<?xml version="1.0" encoding="UTF-8"?><gpx version="1.1" creator="Relive" xmlns="http://www.topografix.com/GPX/1/1" xmlns:xsi="http://www.w3.org/2001/XMLSchema-instance" xsi:schemaLocation="http://www.topografix.com/GPX/1/1 http://www.topografix.com/GPX/1/1/gpx.xsd http://www.garmin.com/xmlschemas/TrackPointExtension/v1 http://www.garmin.com/xmlschemas/TrackPointExtensionv1.xsd http://www.garmin.com/xmlschemas/GpxExtensions/v3 http://www.garmin.com/xmlschemas/GpxExtensionsv3.xsd" xmlns:gpxtpx="http://www.garmin.com/xmlschemas/TrackPointExtension/v1" xmlns:gpxx="http://www.garmin.com/xmlschemas/GpxExtensions/v3"><metadata><time>2024-03-23T07:09:15.000Z</time><name>Morning Mar 23rd</name></metadata><trk><trkseg><trkpt lat="45.81267" lon="9.425905"><time>2024-03-23T07:09:15.000Z</time><ele>244.4</ele></trkpt><trkpt lat="45.81266" lon="9.425922"><time>2024-03-23T07:09:16.000Z</time><ele>244.4</ele></trkpt><trkpt lat="45.812654" lon="9.425934"><time>2024-03-23T07:09:17.000Z</time><ele>244.4</ele></trkpt><trkpt lat="45.812649" lon="9.425943"><time>2024-03-23T07:09:18.000Z</time><ele>244.4</ele></trkpt><trkpt lat="45.812654" lon="9.425953"><time>2024-03-23T07:09:19.000Z</time><ele>244.4</ele></trkpt><trkpt lat="45.81266" lon="9.425963"><time>2024-03-23T07:09:20.000Z</time><ele>244.4</ele></trkpt><trkpt lat="45.812666" lon="9.425975"><time>2024-03-23T07:09:21.000Z</time><ele>244.4</ele></trkpt><trkpt lat="45.812668" lon="9.425984"><time>2024-03-23T07:09:22.000Z</time><ele>244.4</ele></trkpt><trkpt lat="45.81267" lon="9.425989"><time>2024-03-23T07:09:23.000Z</time><ele>244.4</ele></trkpt><trkpt lat="45.812673" lon="9.425994"><time>2024-03-23T07:09:24.000Z</time><ele>244.6</ele></trkpt><trkpt lat="45.812679" lon="9.426"><time>2024-03-23T07:09:25.000Z</time><ele>244.8</ele></trkpt><trkpt lat="45.812688" lon="9.426006"><time>2024-03-23T07:09:26.000Z</time><ele>244.8</ele></trkpt><trkpt lat="45.8127" lon="9.426012"><time>2024-03-23T07:09:27.000Z</time><ele>245</ele></trkpt><trkpt lat="45.812711" lon="9.426022"><time>2024-03-23T07:09:28.000Z</time><ele>245</ele></trkpt><trkpt lat="45.81272" lon="9.426031"><time>2024-03-23T07:09:29.000Z</time><ele>245.2</ele></trkpt><trkpt lat="45.812728" lon="9.426038"><time>2024-03-23T07:09:30.000Z</time><ele>245.4</ele></trkpt><trkpt lat="45.812731" lon="9.426046"><time>2024-03-23T07:09:31.000Z</time><ele>245.6</ele></trkpt><trkpt lat="45.812736" lon="9.426056"><time>2024-03-23T07:09:32.000Z</time><ele>245.8</ele></trkpt><trkpt lat="45.812739" lon="9.426066"><time>2024-03-23T07:09:33.000Z</time><ele>245.8</ele></trkpt><trkpt lat="45.81274" lon="9.426075"><time>2024-03-23T07:09:34.000Z</time><ele>246</ele></trkpt><trkpt lat="45.812744" lon="9.426084"><time>2024-03-23T07:09:35.000Z</time><ele>246.2</ele></trkpt><trkpt lat="45.812745" lon="9.426093"><time>2024-03-23T07:09:36.000Z</time><ele>246.4</ele></trkpt><trkpt lat="45.812749" lon="9.426104"><time>2024-03-23T07:09:37.000Z</time><ele>246.6</ele></trkpt><trkpt lat="45.812752" lon="9.426115"><time>2024-03-23T07:09:38.000Z</time><ele>246.8</ele></trkpt><trkpt lat="45.812755" lon="9.426125"><time>2024-03-23T07:09:39.000Z</time><ele>247</ele></trkpt><trkpt lat="45.812753" lon="9.426136"><time>2024-03-23T07:09:40.000Z</time><ele>247.2</ele></trkpt><trkpt lat="45.812753" lon="9.426145"><time>2024-03-23T07:09:41.000Z</time><ele>247.4</ele></trkpt><trkpt lat="45.812753" lon="9.426152"><time>2024-03-23T07:09:42.000Z</time><ele>247.4</ele></trkpt><trkpt lat="45.812757" lon="9.426161"><time>2024-03-23T07:09:43.000Z</time><ele>247.4</ele></trkpt><trkpt lat="45.812763" lon="9.426171"><time>2024-03-23T07:09:44.000Z</time><ele>247.8</ele></trkpt><trkpt lat="45.812762" lon="9.426186"><time>2024-03-23T07:09:45.000Z</time><ele>248.2</ele></trkpt><trkpt lat="45.812761" lon="9.426199"><time>2024-03-23T07:09:46.000Z</time><ele>248.4</ele></trkpt><trkpt lat="45.812759" lon="9.42621"><time>2024-03-23T07:09:47.000Z</time><ele>248.6</ele></trkpt><trkpt lat="45.812755" lon="9.42623"><time>2024-03-23T07:09:48.000Z</time><ele>248.6</ele></trkpt><trkpt lat="45.812754" lon="9.426244"><time>2024-03-23T07:09:49.000Z</time><ele>248.8</ele></trkpt><trkpt lat="45.812755" lon="9.426257"><time>2024-03-23T07:09:50.000Z</time><ele>249</ele></trkpt><trkpt lat="45.812762" lon="9.426266"><time>2024-03-23T07:09:51.000Z</time><ele>249.2</ele></trkpt><trkpt lat="45.812769" lon="9.426273"><time>2024-03-23T07:09:52.000Z</time><ele>249.4</ele></trkpt><trkpt lat="45.812771" lon="9.426281"><time>2024-03-23T07:09:53.000Z</time><ele>249.6</ele></trkpt><trkpt lat="45.812769" lon="9.426289"><time>2024-03-23T07:09:54.000Z</time><ele>249.8</ele></trkpt><trkpt lat="45.812768" lon="9.426292"><time>2024-03-23T07:09:55.000Z</time><ele>250</ele></trkpt><trkpt lat="45.812769" lon="9.426293"><time>2024-03-23T07:09:56.000Z</time><ele>250.2</ele></trkpt><trkpt lat="45.812764" lon="9.426296"><time>2024-03-23T07:09:57.000Z</time><ele>250.2</ele></trkpt><trkpt lat="45.81276" lon="9.426301"><time>2024-03-23T07:09:58.000Z</time><ele>250.2</ele></trkpt><trkpt lat="45.812755" lon="9.426304"><time>2024-03-23T07:09:59.000Z</time><ele>250.4</ele></trkpt><trkpt lat="45.812753" lon="9.426302"><time>2024-03-23T07:10:00.000Z</time><ele>250.4</ele></trkpt><trkpt lat="45.812756" lon="9.426299"><time>2024-03-23T07:10:01.000Z</time><ele>250.6</ele></trkpt><trkpt lat="45.812757" lon="9.426299"><time>2024-03-23T07:10:02.000Z</time><ele>250.6</ele></trkpt><trkpt lat="45.812751" lon="9.426301"><time>2024-03-23T07:10:03.000Z</time><ele>250.6</ele></trkpt><trkpt lat="45.812751" lon="9.426301"><time>2024-03-23T07:10:04.000Z</time><ele>250.6</ele></trkpt><trkpt lat="45.812753" lon="9.426297"><time>2024-03-23T07:10:05.000Z</time><ele>250.8</ele></trkpt><trkpt lat="45.812746" lon="9.426296"><time>2024-03-23T07:10:06.000Z</time><ele>251</ele></trkpt><trkpt lat="45.812738" lon="9.42629"><time>2024-03-23T07:10:07.000Z</time><ele>251.2</ele></trkpt><trkpt lat="45.81273" lon="9.426291"><time>2024-03-23T07:10:08.000Z</time><ele>251.2</ele></trkpt><trkpt lat="45.81273" lon="9.426291"><time>2024-03-23T07:10:09.000Z</time><ele>251.2</ele></trkpt><trkpt lat="45.81273" lon="9.426291"><time>2024-03-23T07:10:10.000Z</time><ele>251</ele></trkpt><trkpt lat="45.81273" lon="9.426291"><time>2024-03-23T07:10:11.000Z</time><ele>251</ele></trkpt><trkpt lat="45.81273" lon="9.426291"><time>2024-03-23T07:10:12.000Z</time><ele>251</ele></trkpt><trkpt lat="45.81273" lon="9.426291"><time>2024-03-23T07:10:13.000Z</time><ele>251</ele></trkpt><trkpt lat="45.81273" lon="9.426291"><time>2024-03-23T07:10:14.000Z</time><ele>251</ele></trkpt><trkpt lat="45.81273" lon="9.426291"><time>2024-03-23T07:10:15.000Z</time><ele>251</ele></trkpt><trkpt lat="45.81273" lon="9.426291"><time>2024-03-23T07:10:16.000Z</time><ele>251</ele></trkpt><trkpt lat="45.812737" lon="9.426291"><time>2024-03-23T07:10:17.000Z</time><ele>251.2</ele></trkpt><trkpt lat="45.812738" lon="9.426291"><time>2024-03-23T07:10:18.000Z</time><ele>251.2</ele></trkpt><trkpt lat="45.812743" lon="9.426294"><time>2024-03-23T07:10:19.000Z</time><ele>251.4</ele></trkpt><trkpt lat="45.812746" lon="9.426296"><time>2024-03-23T07:10:20.000Z</time><ele>251.8</ele></trkpt><trkpt lat="45.812747" lon="9.426297"><time>2024-03-23T07:10:21.000Z</time><ele>252</ele></trkpt><trkpt lat="45.812748" lon="9.426299"><time>2024-03-23T07:10:22.000Z</time><ele>252</ele></trkpt><trkpt lat="45.812749" lon="9.426299"><time>2024-03-23T07:10:23.000Z</time><ele>250.6</ele></trkpt><trkpt lat="45.81275" lon="9.4263"><time>2024-03-23T07:10:24.000Z</time><ele>250.6</ele></trkpt><trkpt lat="45.812755" lon="9.426311"><time>2024-03-23T07:10:25.000Z</time><ele>250.6</ele></trkpt><trkpt lat="45.812758" lon="9.426334"><time>2024-03-23T07:10:26.000Z</time><ele>250.6</ele></trkpt><trkpt lat="45.812764" lon="9.426355"><time>2024-03-23T07:10:27.000Z</time><ele>250.8</ele></trkpt><trkpt lat="45.812773" lon="9.426375"><time>2024-03-23T07:10:28.000Z</time><ele>251</ele></trkpt><trkpt lat="45.812778" lon="9.426396"><time>2024-03-23T07:10:29.000Z</time><ele>251.4</ele></trkpt><trkpt lat="45.812785" lon="9.426419"><time>2024-03-23T07:10:30.000Z</time><ele>251.4</ele></trkpt><trkpt lat="45.812794" lon="9.426442"><time>2024-03-23T07:10:31.000Z</time><ele>251.6</ele></trkpt><trkpt lat="45.812801" lon="9.426464"><time>2024-03-23T07:10:32.000Z</time><ele>251.8</ele></trkpt><trkpt lat="45.812805" lon="9.426486"><time>2024-03-23T07:10:33.000Z</time><ele>252.2</ele></trkpt><trkpt lat="45.812805" lon="9.426512"><time>2024-03-23T07:10:34.000Z</time><ele>252.4</ele></trkpt><trkpt lat="45.812803" lon="9.426526"><time>2024-03-23T07:10:35.000Z</time><ele>252.6</ele></trkpt><trkpt lat="45.812801" lon="9.42654"><time>2024-03-23T07:10:36.000Z</time><ele>253</ele></trkpt><trkpt lat="45.812799" lon="9.426552"><time>2024-03-23T07:10:37.000Z</time><ele>253.2</ele></trkpt><trkpt lat="45.812794" lon="9.426567"><time>2024-03-23T07:10:38.000Z</time><ele>253.2</ele></trkpt><trkpt lat="45.812792" lon="9.426581"><time>2024-03-23T07:10:39.000Z</time><ele>253.4</ele></trkpt><trkpt lat="45.81279" lon="9.426594"><time>2024-03-23T07:10:40.000Z</time><ele>253.6</ele></trkpt><trkpt lat="45.812786" lon="9.426607"><time>2024-03-23T07:10:41.000Z</time><ele>253.8</ele></trkpt><trkpt lat="45.812785" lon="9.42662"><time>2024-03-23T07:10:42.000Z</time><ele>253.8</ele></trkpt><trkpt lat="45.812786" lon="9.426635"><time>2024-03-23T07:10:43.000Z</time><ele>254.2</ele></trkpt><trkpt lat="45.812787" lon="9.426649"><time>2024-03-23T07:10:44.000Z</time><ele>254.4</ele></trkpt><trkpt lat="45.812786" lon="9.426659"><time>2024-03-23T07:10:45.000Z</time><ele>254.6</ele></trkpt><trkpt lat="45.812784" lon="9.42667"><time>2024-03-23T07:10:46.000Z</time><ele>254.8</ele></trkpt><trkpt lat="45.812785" lon="9.426684"><time>2024-03-23T07:10:47.000Z</time><ele>255</ele></trkpt><trkpt lat="45.812785" lon="9.426698"><time>2024-03-23T07:10:48.000Z</time><ele>255.2</ele></trkpt><trkpt lat="45.812785" lon="9.426711"><time>2024-03-23T07:10:49.000Z</time><ele>255.4</ele></trkpt><trkpt lat="45.812784" lon="9.426723"><time>2024-03-23T07:10:50.000Z</time><ele>255.6</ele></trkpt><trkpt lat="45.812784" lon="9.426737"><time>2024-03-23T07:10:51.000Z</time><ele>255.8</ele></trkpt><trkpt lat="45.812786" lon="9.426752"><time>2024-03-23T07:10:52.000Z</time><ele>256</ele></trkpt><trkpt lat="45.812787" lon="9.426767"><time>2024-03-23T07:10:53.000Z</time><ele>256.2</ele></trkpt><trkpt lat="45.812788" lon="9.426782"><time>2024-03-23T07:10:54.000Z</time><ele>256.4</ele></trkpt><trkpt lat="45.812785" lon="9.426793"><time>2024-03-23T07:10:55.000Z</time><ele>256.6</ele></trkpt><trkpt lat="45.812782" lon="9.426807"><time>2024-03-23T07:10:56.000Z</time><ele>256.8</ele></trkpt><trkpt lat="45.81278" lon="9.426822"><time>2024-03-23T07:10:57.000Z</time><ele>257</ele></trkpt><trkpt lat="45.812779" lon="9.426824"><time>2024-03-23T07:10:58.000Z</time><ele>257.2</ele></trkpt><trkpt lat="45.812782" lon="9.426826"><time>2024-03-23T07:10:59.000Z</time><ele>257.4</ele></trkpt><trkpt lat="45.812783" lon="9.426832"><time>2024-03-23T07:11:00.000Z</time><ele>257.6</ele></trkpt><trkpt lat="45.812793" lon="9.426838"><time>2024-03-23T07:11:01.000Z</time><ele>257.8</ele></trkpt><trkpt lat="45.812799" lon="9.426847"><time>2024-03-23T07:11:02.000Z</time><ele>258</ele></trkpt><trkpt lat="45.812799" lon="9.42686"><time>2024-03-23T07:11:03.000Z</time><ele>258.2</ele></trkpt><trkpt lat="45.8128" lon="9.426871"><time>2024-03-23T07:11:04.000Z</time><ele>258.4</ele></trkpt><trkpt lat="45.8128" lon="9.426876"><time>2024-03-23T07:11:05.000Z</time><ele>258.6</ele></trkpt><trkpt lat="45.812805" lon="9.426888"><time>2024-03-23T07:11:06.000Z</time><ele>258.8</ele></trkpt><trkpt lat="45.812807" lon="9.426904"><time>2024-03-23T07:11:07.000Z</time><ele>259</ele></trkpt><trkpt lat="45.812806" lon="9.426918"><time>2024-03-23T07:11:08.000Z</time><ele>259.2</ele></trkpt><trkpt lat="45.812801" lon="9.426927"><time>2024-03-23T07:11:09.000Z</time><ele>259.6</ele></trkpt><trkpt lat="45.812798" lon="9.426941"><time>2024-03-23T07:11:10.000Z</time><ele>259.8</ele></trkpt><trkpt lat="45.812798" lon="9.426953"><time>2024-03-23T07:11:11.000Z</time><ele>260</ele></trkpt><trkpt lat="45.812797" lon="9.426965"><time>2024-03-23T07:11:12.000Z</time><ele>260.2</ele></trkpt><trkpt lat="45.812793" lon="9.426978"><time>2024-03-23T07:11:13.000Z</time><ele>260.4</ele></trkpt><trkpt lat="45.81279" lon="9.426994"><time>2024-03-23T07:11:14.000Z</time><ele>260.4</ele></trkpt><trkpt lat="45.812788" lon="9.427009"><time>2024-03-23T07:11:15.000Z</time><ele>260.6</ele></trkpt><trkpt lat="45.812787" lon="9.427023"><time>2024-03-23T07:11:16.000Z</time><ele>260.8</ele></trkpt><trkpt lat="45.812784" lon="9.427036"><time>2024-03-23T07:11:17.000Z</time><ele>261</ele></trkpt><trkpt lat="45.812782" lon="9.42705"><time>2024-03-23T07:11:18.000Z</time><ele>261.2</ele></trkpt><trkpt lat="45.812782" lon="9.427062"><time>2024-03-23T07:11:19.000Z</time><ele>261.4</ele></trkpt><trkpt lat="45.812782" lon="9.427074"><time>2024-03-23T07:11:20.000Z</time><ele>261.6</ele></trkpt><trkpt lat="45.812782" lon="9.427085"><time>2024-03-23T07:11:21.000Z</time><ele>261.8</ele></trkpt><trkpt lat="45.81278" lon="9.427096"><time>2024-03-23T07:11:22.000Z</time><ele>262</ele></trkpt><trkpt lat="45.812773" lon="9.427109"><time>2024-03-23T07:11:23.000Z</time><ele>262.2</ele></trkpt><trkpt lat="45.812772" lon="9.42712"><time>2024-03-23T07:11:24.000Z</time><ele>262.4</ele></trkpt><trkpt lat="45.812773" lon="9.427129"><time>2024-03-23T07:11:25.000Z</time><ele>262.4</ele></trkpt><trkpt lat="45.812774" lon="9.427143"><time>2024-03-23T07:11:26.000Z</time><ele>262.6</ele></trkpt><trkpt lat="45.812773" lon="9.427151"><time>2024-03-23T07:11:27.000Z</time><ele>262.8</ele></trkpt><trkpt lat="45.812769" lon="9.427165"><time>2024-03-23T07:11:28.000Z</time><ele>263</ele></trkpt><trkpt lat="45.812765" lon="9.427179"><time>2024-03-23T07:11:29.000Z</time><ele>263.2</ele></trkpt><trkpt lat="45.812762" lon="9.427193"><time>2024-03-23T07:11:30.000Z</time><ele>263.4</ele></trkpt><trkpt lat="45.81276" lon="9.427209"><time>2024-03-23T07:11:31.000Z</time><ele>263.6</ele></trkpt><trkpt lat="45.81276" lon="9.427224"><time>2024-03-23T07:11:32.000Z</time><ele>263.8</ele></trkpt><trkpt lat="45.812762" lon="9.427238"><time>2024-03-23T07:11:33.000Z</time><ele>264</ele></trkpt><trkpt lat="45.812766" lon="9.42725"><time>2024-03-23T07:11:34.000Z</time><ele>264.2</ele></trkpt><trkpt lat="45.812767" lon="9.42727"><time>2024-03-23T07:11:35.000Z</time><ele>264.4</ele></trkpt><trkpt lat="45.812767" lon="9.427279"><time>2024-03-23T07:11:36.000Z</time><ele>264.6</ele></trkpt><trkpt lat="45.812769" lon="9.42729"><time>2024-03-23T07:11:37.000Z</time><ele>264.8</ele></trkpt><trkpt lat="45.81277" lon="9.427303"><time>2024-03-23T07:11:38.000Z</time><ele>264.8</ele></trkpt><trkpt lat="45.812768" lon="9.427317"><time>2024-03-23T07:11:39.000Z</time><ele>265</ele></trkpt><trkpt lat="45.812765" lon="9.427334"><time>2024-03-23T07:11:40.000Z</time><ele>265.2</ele></trkpt><trkpt lat="45.812765" lon="9.42735"><time>2024-03-23T07:11:41.000Z</time><ele>265.4</ele></trkpt><trkpt lat="45.812762" lon="9.427367"><time>2024-03-23T07:11:42.000Z</time><ele>265.6</ele></trkpt><trkpt lat="45.812758" lon="9.42738"><time>2024-03-23T07:11:43.000Z</time><ele>265.8</ele></trkpt><trkpt lat="45.812755" lon="9.427393"><time>2024-03-23T07:11:44.000Z</time><ele>266</ele></trkpt><trkpt lat="45.812754" lon="9.427404"><time>2024-03-23T07:11:45.000Z</time><ele>266.2</ele></trkpt><trkpt lat="45.81275" lon="9.427414"><time>2024-03-23T07:11:46.000Z</time><ele>266.4</ele></trkpt><trkpt lat="45.812749" lon="9.427424"><time>2024-03-23T07:11:47.000Z</time><ele>266.4</ele></trkpt><trkpt lat="45.812747" lon="9.427435"><time>2024-03-23T07:11:48.000Z</time><ele>266.8</ele></trkpt><trkpt lat="45.812746" lon="9.427448"><time>2024-03-23T07:11:49.000Z</time><ele>266.8</ele></trkpt><trkpt lat="45.812746" lon="9.427457"><time>2024-03-23T07:11:50.000Z</time><ele>267</ele></trkpt><trkpt lat="45.812746" lon="9.427466"><time>2024-03-23T07:11:51.000Z</time><ele>267.4</ele></trkpt><trkpt lat="45.812744" lon="9.427476"><time>2024-03-23T07:11:52.000Z</time><ele>267.6</ele></trkpt><trkpt lat="45.812743" lon="9.427487"><time>2024-03-23T07:11:53.000Z</time><ele>267.6</ele></trkpt><trkpt lat="45.812742" lon="9.427497"><time>2024-03-23T07:11:54.000Z</time><ele>267.8</ele></trkpt><trkpt lat="45.812742" lon="9.42751"><time>2024-03-23T07:11:55.000Z</time><ele>268</ele></trkpt><trkpt lat="45.81274" lon="9.427521"><time>2024-03-23T07:11:56.000Z</time><ele>268.2</ele></trkpt><trkpt lat="45.812739" lon="9.42753"><time>2024-03-23T07:11:57.000Z</time><ele>268.4</ele></trkpt><trkpt lat="45.812738" lon="9.427541"><time>2024-03-23T07:11:58.000Z</time><ele>268.6</ele></trkpt><trkpt lat="45.812737" lon="9.427552"><time>2024-03-23T07:11:59.000Z</time><ele>268.8</ele></trkpt><trkpt lat="45.812736" lon="9.427563"><time>2024-03-23T07:12:00.000Z</time><ele>269</ele></trkpt><trkpt lat="45.812734" lon="9.427574"><time>2024-03-23T07:12:01.000Z</time><ele>269.2</ele></trkpt><trkpt lat="45.812731" lon="9.427585"><time>2024-03-23T07:12:02.000Z</time><ele>269.4</ele></trkpt><trkpt lat="45.812727" lon="9.427598"><time>2024-03-23T07:12:03.000Z</time><ele>269.6</ele></trkpt><trkpt lat="45.812728" lon="9.427609"><time>2024-03-23T07:12:04.000Z</time><ele>269.6</ele></trkpt><trkpt lat="45.812732" lon="9.427618"><time>2024-03-23T07:12:05.000Z</time><ele>270</ele></trkpt><trkpt lat="45.812733" lon="9.427629"><time>2024-03-23T07:12:06.000Z</time><ele>270.2</ele></trkpt><trkpt lat="45.81273" lon="9.427643"><time>2024-03-23T07:12:07.000Z</time><ele>270.4</ele></trkpt><trkpt lat="45.812728" lon="9.427658"><time>2024-03-23T07:12:08.000Z</time><ele>270.6</ele></trkpt><trkpt lat="45.812726" lon="9.427671"><time>2024-03-23T07:12:09.000Z</time><ele>270.8</ele></trkpt><trkpt lat="45.812725" lon="9.427683"><time>2024-03-23T07:12:10.000Z</time><ele>271</ele></trkpt><trkpt lat="45.812726" lon="9.427695"><time>2024-03-23T07:12:11.000Z</time><ele>271</ele></trkpt><trkpt lat="45.812722" lon="9.427706"><time>2024-03-23T07:12:12.000Z</time><ele>271.4</ele></trkpt><trkpt lat="45.812719" lon="9.42772"><time>2024-03-23T07:12:13.000Z</time><ele>271.6</ele></trkpt><trkpt lat="45.812719" lon="9.427729"><time>2024-03-23T07:12:14.000Z</time><ele>271.8</ele></trkpt><trkpt lat="45.812716" lon="9.427738"><time>2024-03-23T07:12:15.000Z</time><ele>272</ele></trkpt><trkpt lat="45.812713" lon="9.42775"><time>2024-03-23T07:12:16.000Z</time><ele>272.2</ele></trkpt><trkpt lat="45.812711" lon="9.427764"><time>2024-03-23T07:12:17.000Z</time><ele>272.6</ele></trkpt><trkpt lat="45.812709" lon="9.42778"><time>2024-03-23T07:12:18.000Z</time><ele>272.8</ele></trkpt><trkpt lat="45.812711" lon="9.42779"><time>2024-03-23T07:12:19.000Z</time><ele>273.2</ele></trkpt><trkpt lat="45.812709" lon="9.427802"><time>2024-03-23T07:12:20.000Z</time><ele>273.2</ele></trkpt><trkpt lat="45.812699" lon="9.427821"><time>2024-03-23T07:12:21.000Z</time><ele>273.4</ele></trkpt><trkpt lat="45.812706" lon="9.427834"><time>2024-03-23T07:12:22.000Z</time><ele>273.8</ele></trkpt><trkpt lat="45.812708" lon="9.427847"><time>2024-03-23T07:12:23.000Z</time><ele>274</ele></trkpt><trkpt lat="45.812717" lon="9.427854"><time>2024-03-23T07:12:24.000Z</time><ele>274.2</ele></trkpt><trkpt lat="45.812725" lon="9.427854"><time>2024-03-23T07:12:25.000Z</time><ele>274.6</ele></trkpt><trkpt lat="45.812727" lon="9.427856"><time>2024-03-23T07:12:26.000Z</time><ele>274.8</ele></trkpt><trkpt lat="45.812724" lon="9.427864"><time>2024-03-23T07:12:27.000Z</time><ele>275</ele></trkpt><trkpt lat="45.81272" lon="9.427872"><time>2024-03-23T07:12:28.000Z</time><ele>275.2</ele></trkpt><trkpt lat="45.812716" lon="9.427882"><time>2024-03-23T07:12:29.000Z</time><ele>275.2</ele></trkpt><trkpt lat="45.812714" lon="9.427892"><time>2024-03-23T07:12:30.000Z</time><ele>275.4</ele></trkpt><trkpt lat="45.812718" lon="9.427901"><time>2024-03-23T07:12:31.000Z</time><ele>275.4</ele></trkpt><trkpt lat="45.812719" lon="9.427911"><time>2024-03-23T07:12:32.000Z</time><ele>275.4</ele></trkpt><trkpt lat="45.812713" lon="9.427923"><time>2024-03-23T07:12:33.000Z</time><ele>275.6</ele></trkpt><trkpt lat="45.812708" lon="9.427932"><time>2024-03-23T07:12:34.000Z</time><ele>275.8</ele></trkpt><trkpt lat="45.8127" lon="9.427944"><time>2024-03-23T07:12:35.000Z</time><ele>276</ele></trkpt><trkpt lat="45.812693" lon="9.427956"><time>2024-03-23T07:12:36.000Z</time><ele>276</ele></trkpt><trkpt lat="45.812688" lon="9.427972"><time>2024-03-23T07:12:37.000Z</time><ele>276.4</ele></trkpt><trkpt lat="45.812683" lon="9.427985"><time>2024-03-23T07:12:38.000Z</time><ele>276.6</ele></trkpt><trkpt lat="45.812674" lon="9.428001"><time>2024-03-23T07:12:39.000Z</time><ele>276.6</ele></trkpt><trkpt lat="45.812666" lon="9.428014"><time>2024-03-23T07:12:40.000Z</time><ele>276.8</ele></trkpt><trkpt lat="45.812661" lon="9.428028"><time>2024-03-23T07:12:41.000Z</time><ele>277</ele></trkpt><trkpt lat="45.81266" lon="9.428041"><time>2024-03-23T07:12:42.000Z</time><ele>277.2</ele></trkpt><trkpt lat="45.812659" lon="9.428053"><time>2024-03-23T07:12:43.000Z</time><ele>277.4</ele></trkpt><trkpt lat="45.812659" lon="9.428062"><time>2024-03-23T07:12:44.000Z</time><ele>277.6</ele></trkpt><trkpt lat="45.812655" lon="9.428077"><time>2024-03-23T07:12:45.000Z</time><ele>277.8</ele></trkpt><trkpt lat="45.812648" lon="9.428088"><time>2024-03-23T07:12:46.000Z</time><ele>278</ele></trkpt><trkpt lat="45.81264" lon="9.428103"><time>2024-03-23T07:12:47.000Z</time><ele>278.2</ele></trkpt><trkpt lat="45.812632" lon="9.428115"><time>2024-03-23T07:12:48.000Z</time><ele>278.4</ele></trkpt><trkpt lat="45.812626" lon="9.42813"><time>2024-03-23T07:12:49.000Z</time><ele>278.6</ele></trkpt><trkpt lat="45.812619" lon="9.428142"><time>2024-03-23T07:12:50.000Z</time><ele>278.8</ele></trkpt><trkpt lat="45.812612" lon="9.428153"><time>2024-03-23T07:12:51.000Z</time><ele>278.8</ele></trkpt><trkpt lat="45.812606" lon="9.428166"><time>2024-03-23T07:12:52.000Z</time><ele>279</ele></trkpt><trkpt lat="45.812599" lon="9.428179"><time>2024-03-23T07:12:53.000Z</time><ele>279.2</ele></trkpt><trkpt lat="45.812594" lon="9.428193"><time>2024-03-23T07:12:54.000Z</time><ele>279.4</ele></trkpt><trkpt lat="45.81259" lon="9.428206"><time>2024-03-23T07:12:55.000Z</time><ele>279.6</ele></trkpt><trkpt lat="45.812586" lon="9.42822"><time>2024-03-23T07:12:56.000Z</time><ele>279.8</ele></trkpt><trkpt lat="45.812581" lon="9.428233"><time>2024-03-23T07:12:57.000Z</time><ele>280</ele></trkpt><trkpt lat="45.812578" lon="9.428241"><time>2024-03-23T07:12:58.000Z</time><ele>280</ele></trkpt><trkpt lat="45.812574" lon="9.428246"><time>2024-03-23T07:12:59.000Z</time><ele>280.4</ele></trkpt><trkpt lat="45.81257" lon="9.428255"><time>2024-03-23T07:13:00.000Z</time><ele>280.4</ele></trkpt><trkpt lat="45.812568" lon="9.428268"><time>2024-03-23T07:13:01.000Z</time><ele>280.6</ele></trkpt><trkpt lat="45.812566" lon="9.428279"><time>2024-03-23T07:13:02.000Z</time><ele>280.8</ele></trkpt><trkpt lat="45.812563" lon="9.428288"><time>2024-03-23T07:13:03.000Z</time><ele>281</ele></trkpt><trkpt lat="45.812556" lon="9.428301"><time>2024-03-23T07:13:04.000Z</time><ele>281.2</ele></trkpt><trkpt lat="45.812549" lon="9.428313"><time>2024-03-23T07:13:05.000Z</time><ele>281.4</ele></trkpt><trkpt lat="45.812542" lon="9.428324"><time>2024-03-23T07:13:06.000Z</time><ele>281.4</ele></trkpt><trkpt lat="45.81253" lon="9.428336"><time>2024-03-23T07:13:07.000Z</time><ele>281.6</ele></trkpt><trkpt lat="45.812522" lon="9.428346"><time>2024-03-23T07:13:08.000Z</time><ele>281.8</ele></trkpt><trkpt lat="45.812511" lon="9.42836"><time>2024-03-23T07:13:09.000Z</time><ele>282</ele></trkpt><trkpt lat="45.812497" lon="9.428366"><time>2024-03-23T07:13:10.000Z</time><ele>282.2</ele></trkpt><trkpt lat="45.812486" lon="9.428374"><time>2024-03-23T07:13:11.000Z</time><ele>282.2</ele></trkpt><trkpt lat="45.812476" lon="9.428385"><time>2024-03-23T07:13:12.000Z</time><ele>282.6</ele></trkpt><trkpt lat="45.812468" lon="9.4284"><time>2024-03-23T07:13:13.000Z</time><ele>282.8</ele></trkpt><trkpt lat="45.812461" lon="9.428408"><time>2024-03-23T07:13:14.000Z</time><ele>282.8</ele></trkpt><trkpt lat="45.812444" lon="9.428415"><time>2024-03-23T07:13:15.000Z</time><ele>283</ele></trkpt><trkpt lat="45.812439" lon="9.428426"><time>2024-03-23T07:13:16.000Z</time><ele>283.2</ele></trkpt><trkpt lat="45.812434" lon="9.428439"><time>2024-03-23T07:13:17.000Z</time><ele>283.4</ele></trkpt><trkpt lat="45.812432" lon="9.428452"><time>2024-03-23T07:13:18.000Z</time><ele>283.6</ele></trkpt><trkpt lat="45.812428" lon="9.42847"><time>2024-03-23T07:13:19.000Z</time><ele>283.8</ele></trkpt><trkpt lat="45.812418" lon="9.428484"><time>2024-03-23T07:13:20.000Z</time><ele>284</ele></trkpt><trkpt lat="45.812409" lon="9.428494"><time>2024-03-23T07:13:21.000Z</time><ele>284.2</ele></trkpt><trkpt lat="45.8124" lon="9.428502"><time>2024-03-23T07:13:22.000Z</time><ele>284.4</ele></trkpt><trkpt lat="45.812387" lon="9.428511"><time>2024-03-23T07:13:23.000Z</time><ele>284.6</ele></trkpt><trkpt lat="45.812381" lon="9.428523"><time>2024-03-23T07:13:24.000Z</time><ele>284.6</ele></trkpt><trkpt lat="45.812374" lon="9.428534"><time>2024-03-23T07:13:25.000Z</time><ele>284.8</ele></trkpt><trkpt lat="45.812367" lon="9.428547"><time>2024-03-23T07:13:26.000Z</time><ele>285</ele></trkpt><trkpt lat="45.812355" lon="9.428554"><time>2024-03-23T07:13:27.000Z</time><ele>285.2</ele></trkpt><trkpt lat="45.812344" lon="9.428561"><time>2024-03-23T07:13:28.000Z</time><ele>285.4</ele></trkpt><trkpt lat="45.812332" lon="9.428571"><time>2024-03-23T07:13:29.000Z</time><ele>285.6</ele></trkpt><trkpt lat="45.812329" lon="9.428581"><time>2024-03-23T07:13:30.000Z</time><ele>285.8</ele></trkpt><trkpt lat="45.812328" lon="9.428592"><time>2024-03-23T07:13:31.000Z</time><ele>286</ele></trkpt><trkpt lat="45.812324" lon="9.428603"><time>2024-03-23T07:13:32.000Z</time><ele>286.4</ele></trkpt><trkpt lat="45.812322" lon="9.428616"><time>2024-03-23T07:13:33.000Z</time><ele>286.6</ele></trkpt><trkpt lat="45.812318" lon="9.428627"><time>2024-03-23T07:13:34.000Z</time><ele>286.6</ele></trkpt><trkpt lat="45.812316" lon="9.428633"><time>2024-03-23T07:13:35.000Z</time><ele>286.8</ele></trkpt><trkpt lat="45.81231" lon="9.428648"><time>2024-03-23T07:13:36.000Z</time><ele>287</ele></trkpt><trkpt lat="45.812305" lon="9.428664"><time>2024-03-23T07:13:37.000Z</time><ele>287.2</ele></trkpt><trkpt lat="45.812297" lon="9.428685"><time>2024-03-23T07:13:38.000Z</time><ele>287.4</ele></trkpt><trkpt lat="45.812294" lon="9.428707"><time>2024-03-23T07:13:39.000Z</time><ele>287.6</ele></trkpt><trkpt lat="45.812295" lon="9.428718"><time>2024-03-23T07:13:40.000Z</time><ele>287.8</ele></trkpt><trkpt lat="45.812291" lon="9.42873"><time>2024-03-23T07:13:41.000Z</time><ele>288</ele></trkpt><trkpt lat="45.812281" lon="9.428741"><time>2024-03-23T07:13:42.000Z</time><ele>288</ele></trkpt><trkpt lat="45.812279" lon="9.428746"><time>2024-03-23T07:13:43.000Z</time><ele>288.2</ele></trkpt><trkpt lat="45.812272" lon="9.428754"><time>2024-03-23T07:13:44.000Z</time><ele>288.4</ele></trkpt><trkpt lat="45.81227" lon="9.428762"><time>2024-03-23T07:13:45.000Z</time><ele>288.6</ele></trkpt><trkpt lat="45.812256" lon="9.42877"><time>2024-03-23T07:13:46.000Z</time><ele>288.6</ele></trkpt><trkpt lat="45.812251" lon="9.428777"><time>2024-03-23T07:13:47.000Z</time><ele>288.8</ele></trkpt><trkpt lat="45.812246" lon="9.428785"><time>2024-03-23T07:13:48.000Z</time><ele>289.2</ele></trkpt><trkpt lat="45.81224" lon="9.428793"><time>2024-03-23T07:13:49.000Z</time><ele>289.4</ele></trkpt><trkpt lat="45.812241" lon="9.428798"><time>2024-03-23T07:13:50.000Z</time><ele>289.4</ele></trkpt><trkpt lat="45.81224" lon="9.428803"><time>2024-03-23T07:13:51.000Z</time><ele>289.8</ele></trkpt><trkpt lat="45.812237" lon="9.428807"><time>2024-03-23T07:13:52.000Z</time><ele>290</ele></trkpt><trkpt lat="45.812227" lon="9.428809"><time>2024-03-23T07:13:53.000Z</time><ele>290.2</ele></trkpt><trkpt lat="45.81223" lon="9.428819"><time>2024-03-23T07:13:54.000Z</time><ele>290.4</ele></trkpt><trkpt lat="45.812229" lon="9.428829"><time>2024-03-23T07:13:55.000Z</time><ele>290.4</ele></trkpt><trkpt lat="45.812229" lon="9.428837"><time>2024-03-23T07:13:56.000Z</time><ele>290.4</ele></trkpt><trkpt lat="45.812241" lon="9.428852"><time>2024-03-23T07:13:57.000Z</time><ele>290.4</ele></trkpt><trkpt lat="45.812247" lon="9.428867"><time>2024-03-23T07:13:58.000Z</time><ele>290.6</ele></trkpt><trkpt lat="45.812246" lon="9.428871"><time>2024-03-23T07:13:59.000Z</time><ele>290.6</ele></trkpt><trkpt lat="45.812225" lon="9.428878"><time>2024-03-23T07:14:01.000Z</time><ele>290.6</ele></trkpt><trkpt lat="45.812226" lon="9.428873"><time>2024-03-23T07:14:02.000Z</time><ele>290.8</ele></trkpt><trkpt lat="45.812231" lon="9.428875"><time>2024-03-23T07:14:03.000Z</time><ele>291</ele></trkpt><trkpt lat="45.81223" lon="9.428875"><time>2024-03-23T07:14:04.000Z</time><ele>291.2</ele></trkpt><trkpt lat="45.812215" lon="9.428878"><time>2024-03-23T07:14:05.000Z</time><ele>291.4</ele></trkpt><trkpt lat="45.812211" lon="9.428885"><time>2024-03-23T07:14:06.000Z</time><ele>291.4</ele></trkpt><trkpt lat="45.812199" lon="9.42889"><time>2024-03-23T07:14:07.000Z</time><ele>291.6</ele></trkpt><trkpt lat="45.81218" lon="9.428894"><time>2024-03-23T07:14:08.000Z</time><ele>291.8</ele></trkpt><trkpt lat="45.812162" lon="9.428903"><time>2024-03-23T07:14:09.000Z</time><ele>292</ele></trkpt><trkpt lat="45.812155" lon="9.428916"><time>2024-03-23T07:14:10.000Z</time><ele>292.2</ele></trkpt><trkpt lat="45.812137" lon="9.428926"><time>2024-03-23T07:14:11.000Z</time><ele>292.2</ele></trkpt><trkpt lat="45.812128" lon="9.42894"><time>2024-03-23T07:14:12.000Z</time><ele>292.6</ele></trkpt><trkpt lat="45.812104" lon="9.428948"><time>2024-03-23T07:14:13.000Z</time><ele>292.8</ele></trkpt><trkpt lat="45.81209" lon="9.428957"><time>2024-03-23T07:14:14.000Z</time><ele>292.8</ele></trkpt><trkpt lat="45.812071" lon="9.428963"><time>2024-03-23T07:14:15.000Z</time><ele>293</ele></trkpt><trkpt lat="45.812052" lon="9.428974"><time>2024-03-23T07:14:16.000Z</time><ele>293.2</ele></trkpt><trkpt lat="45.812044" lon="9.428986"><time>2024-03-23T07:14:17.000Z</time><ele>293.4</ele></trkpt><trkpt lat="45.812031" lon="9.428995"><time>2024-03-23T07:14:18.000Z</time><ele>293.6</ele></trkpt><trkpt lat="45.812025" lon="9.428999"><time>2024-03-23T07:14:19.000Z</time><ele>293.8</ele></trkpt><trkpt lat="45.812024" lon="9.429"><time>2024-03-23T07:14:20.000Z</time><ele>294</ele></trkpt><trkpt lat="45.812024" lon="9.428999"><time>2024-03-23T07:14:21.000Z</time><ele>294.2</ele></trkpt><trkpt lat="45.812025" lon="9.429"><time>2024-03-23T07:14:22.000Z</time><ele>294.4</ele></trkpt><trkpt lat="45.812029" lon="9.429005"><time>2024-03-23T07:14:23.000Z</time><ele>294.6</ele></trkpt><trkpt lat="45.812038" lon="9.429007"><time>2024-03-23T07:14:24.000Z</time><ele>294.6</ele></trkpt><trkpt lat="45.812047" lon="9.429009"><time>2024-03-23T07:14:25.000Z</time><ele>294.6</ele></trkpt><trkpt lat="45.812049" lon="9.429007"><time>2024-03-23T07:14:26.000Z</time><ele>294.8</ele></trkpt><trkpt lat="45.81205" lon="9.429008"><time>2024-03-23T07:14:27.000Z</time><ele>294.8</ele></trkpt><trkpt lat="45.812051" lon="9.429012"><time>2024-03-23T07:14:28.000Z</time><ele>294.8</ele></trkpt><trkpt lat="45.812048" lon="9.429001"><time>2024-03-23T07:14:29.000Z</time><ele>294.8</ele></trkpt><trkpt lat="45.812041" lon="9.428997"><time>2024-03-23T07:14:30.000Z</time><ele>294.8</ele></trkpt><trkpt lat="45.812036" lon="9.429003"><time>2024-03-23T07:14:31.000Z</time><ele>294.8</ele></trkpt><trkpt lat="45.812037" lon="9.429014"><time>2024-03-23T07:14:32.000Z</time><ele>294.8</ele></trkpt><trkpt lat="45.812034" lon="9.429021"><time>2024-03-23T07:14:33.000Z</time><ele>294.8</ele></trkpt><trkpt lat="45.812047" lon="9.429043"><time>2024-03-23T07:14:34.000Z</time><ele>294.8</ele></trkpt><trkpt lat="45.812054" lon="9.429062"><time>2024-03-23T07:14:35.000Z</time><ele>294.8</ele></trkpt><trkpt lat="45.81206" lon="9.429079"><time>2024-03-23T07:14:36.000Z</time><ele>295</ele></trkpt><trkpt lat="45.81207" lon="9.4291"><time>2024-03-23T07:14:37.000Z</time><ele>295</ele></trkpt><trkpt lat="45.812072" lon="9.429114"><time>2024-03-23T07:14:38.000Z</time><ele>295</ele></trkpt><trkpt lat="45.812076" lon="9.429125"><time>2024-03-23T07:14:39.000Z</time><ele>295.2</ele></trkpt><trkpt lat="45.812081" lon="9.429139"><time>2024-03-23T07:14:40.000Z</time><ele>295.2</ele></trkpt><trkpt lat="45.812086" lon="9.429153"><time>2024-03-23T07:14:41.000Z</time><ele>295.2</ele></trkpt><trkpt lat="45.812091" lon="9.429166"><time>2024-03-23T07:14:42.000Z</time><ele>295.2</ele></trkpt><trkpt lat="45.812097" lon="9.429179"><time>2024-03-23T07:14:43.000Z</time><ele>295.4</ele></trkpt><trkpt lat="45.812102" lon="9.429193"><time>2024-03-23T07:14:44.000Z</time><ele>295.4</ele></trkpt><trkpt lat="45.812156" lon="9.429309"><time>2024-03-23T07:14:52.000Z</time><ele>295.8</ele></trkpt><trkpt lat="45.812172" lon="9.429314"><time>2024-03-23T07:14:53.000Z</time><ele>296</ele></trkpt><trkpt lat="45.81219" lon="9.429323"><time>2024-03-23T07:14:54.000Z</time><ele>296</ele></trkpt><trkpt lat="45.812213" lon="9.42933"><time>2024-03-23T07:14:55.000Z</time><ele>296.2</ele></trkpt><trkpt lat="45.812229" lon="9.429354"><time>2024-03-23T07:14:56.000Z</time><ele>296.2</ele></trkpt><trkpt lat="45.812232" lon="9.42933"><time>2024-03-23T07:14:57.000Z</time><ele>296.4</ele></trkpt><trkpt lat="45.812237" lon="9.429339"><time>2024-03-23T07:14:58.000Z</time><ele>296.4</ele></trkpt><trkpt lat="45.812235" lon="9.429346"><time>2024-03-23T07:14:59.000Z</time><ele>296.4</ele></trkpt><trkpt lat="45.812232" lon="9.429358"><time>2024-03-23T07:15:00.000Z</time><ele>296.6</ele></trkpt><trkpt lat="45.812232" lon="9.429366"><time>2024-03-23T07:15:01.000Z</time><ele>296.8</ele></trkpt><trkpt lat="45.812226" lon="9.429388"><time>2024-03-23T07:15:02.000Z</time><ele>296.8</ele></trkpt><trkpt lat="45.812231" lon="9.429395"><time>2024-03-23T07:15:03.000Z</time><ele>297</ele></trkpt><trkpt lat="45.812245" lon="9.429409"><time>2024-03-23T07:15:04.000Z</time><ele>297</ele></trkpt><trkpt lat="45.812285" lon="9.42941"><time>2024-03-23T07:15:05.000Z</time><ele>297.2</ele></trkpt><trkpt lat="45.812314" lon="9.429418"><time>2024-03-23T07:15:06.000Z</time><ele>297.2</ele></trkpt><trkpt lat="45.812318" lon="9.429418"><time>2024-03-23T07:15:07.000Z</time><ele>297.4</ele></trkpt><trkpt lat="45.81233" lon="9.429422"><time>2024-03-23T07:15:08.000Z</time><ele>297.4</ele></trkpt><trkpt lat="45.812352" lon="9.429421"><time>2024-03-23T07:15:09.000Z</time><ele>297.4</ele></trkpt><trkpt lat="45.812361" lon="9.429425"><time>2024-03-23T07:15:10.000Z</time><ele>297.4</ele></trkpt><trkpt lat="45.812364" lon="9.429427"><time>2024-03-23T07:15:11.000Z</time><ele>297.8</ele></trkpt><trkpt lat="45.812368" lon="9.429429"><time>2024-03-23T07:15:12.000Z</time><ele>298</ele></trkpt><trkpt lat="45.81237" lon="9.429427"><time>2024-03-23T07:15:13.000Z</time><ele>298.2</ele></trkpt><trkpt lat="45.812369" lon="9.429427"><time>2024-03-23T07:15:14.000Z</time><ele>298.2</ele></trkpt><trkpt lat="45.812368" lon="9.429429"><time>2024-03-23T07:15:15.000Z</time><ele>298.4</ele></trkpt><trkpt lat="45.812364" lon="9.429424"><time>2024-03-23T07:15:16.000Z</time><ele>298.4</ele></trkpt><trkpt lat="45.812364" lon="9.429422"><time>2024-03-23T07:15:17.000Z</time><ele>298.4</ele></trkpt><trkpt lat="45.812363" lon="9.429421"><time>2024-03-23T07:15:18.000Z</time><ele>298.4</ele></trkpt><trkpt lat="45.812365" lon="9.429422"><time>2024-03-23T07:15:19.000Z</time><ele>298.4</ele></trkpt><trkpt lat="45.812364" lon="9.429422"><time>2024-03-23T07:15:20.000Z</time><ele>298.4</ele></trkpt><trkpt lat="45.812368" lon="9.42942"><time>2024-03-23T07:15:21.000Z</time><ele>298.4</ele></trkpt><trkpt lat="45.81237" lon="9.42942"><time>2024-03-23T07:15:22.000Z</time><ele>298.4</ele></trkpt><trkpt lat="45.812372" lon="9.429419"><time>2024-03-23T07:15:23.000Z</time><ele>298.4</ele></trkpt><trkpt lat="45.812373" lon="9.429419"><time>2024-03-23T07:15:24.000Z</time><ele>298.4</ele></trkpt><trkpt lat="45.812385" lon="9.429422"><time>2024-03-23T07:15:25.000Z</time><ele>298.4</ele></trkpt><trkpt lat="45.812386" lon="9.429422"><time>2024-03-23T07:15:26.000Z</time><ele>298.4</ele></trkpt><trkpt lat="45.812388" lon="9.429421"><time>2024-03-23T07:15:27.000Z</time><ele>298.4</ele></trkpt><trkpt lat="45.812388" lon="9.429419"><time>2024-03-23T07:15:28.000Z</time><ele>298.2</ele></trkpt><trkpt lat="45.812389" lon="9.42942"><time>2024-03-23T07:15:29.000Z</time><ele>298.2</ele></trkpt><trkpt lat="45.812394" lon="9.429423"><time>2024-03-23T07:15:30.000Z</time><ele>298.2</ele></trkpt><trkpt lat="45.812401" lon="9.429426"><time>2024-03-23T07:15:31.000Z</time><ele>298.2</ele></trkpt><trkpt lat="45.812401" lon="9.429426"><time>2024-03-23T07:15:32.000Z</time><ele>298.2</ele></trkpt><trkpt lat="45.812401" lon="9.429426"><time>2024-03-23T07:15:33.000Z</time><ele>298.2</ele></trkpt><trkpt lat="45.812401" lon="9.429426"><time>2024-03-23T07:15:34.000Z</time><ele>298.2</ele></trkpt><trkpt lat="45.812401" lon="9.429426"><time>2024-03-23T07:15:35.000Z</time><ele>298.2</ele></trkpt><trkpt lat="45.812401" lon="9.429426"><time>2024-03-23T07:15:36.000Z</time><ele>298.2</ele></trkpt><trkpt lat="45.812401" lon="9.429426"><time>2024-03-23T07:15:37.000Z</time><ele>298.2</ele></trkpt><trkpt lat="45.812401" lon="9.429426"><time>2024-03-23T07:15:38.000Z</time><ele>298.2</ele></trkpt><trkpt lat="45.812401" lon="9.429423"><time>2024-03-23T07:15:39.000Z</time><ele>298.6</ele></trkpt><trkpt lat="45.812401" lon="9.429422"><time>2024-03-23T07:15:40.000Z</time><ele>298.8</ele></trkpt><trkpt lat="45.812401" lon="9.429422"><time>2024-03-23T07:15:41.000Z</time><ele>298.8</ele></trkpt><trkpt lat="45.812401" lon="9.429422"><time>2024-03-23T07:15:42.000Z</time><ele>299</ele></trkpt><trkpt lat="45.812401" lon="9.429422"><time>2024-03-23T07:15:43.000Z</time><ele>299.4</ele></trkpt><trkpt lat="45.812401" lon="9.429422"><time>2024-03-23T07:15:44.000Z</time><ele>299.6</ele></trkpt><trkpt lat="45.812401" lon="9.429422"><time>2024-03-23T07:15:45.000Z</time><ele>299.8</ele></trkpt><trkpt lat="45.812401" lon="9.429422"><time>2024-03-23T07:15:46.000Z</time><ele>300</ele></trkpt><trkpt lat="45.81241" lon="9.429422"><time>2024-03-23T07:15:47.000Z</time><ele>300.2</ele></trkpt><trkpt lat="45.812412" lon="9.429422"><time>2024-03-23T07:15:48.000Z</time><ele>300.2</ele></trkpt><trkpt lat="45.812413" lon="9.429422"><time>2024-03-23T07:15:49.000Z</time><ele>300.2</ele></trkpt><trkpt lat="45.812418" lon="9.429422"><time>2024-03-23T07:15:50.000Z</time><ele>300.2</ele></trkpt><trkpt lat="45.812429" lon="9.429426"><time>2024-03-23T07:15:51.000Z</time><ele>300.2</ele></trkpt><trkpt lat="45.812455" lon="9.429439"><time>2024-03-23T07:15:52.000Z</time><ele>300.2</ele></trkpt><trkpt lat="45.812478" lon="9.429448"><time>2024-03-23T07:15:53.000Z</time><ele>300.4</ele></trkpt><trkpt lat="45.8125" lon="9.429451"><time>2024-03-23T07:15:54.000Z</time><ele>300.4</ele></trkpt><trkpt lat="45.812522" lon="9.429454"><time>2024-03-23T07:15:55.000Z</time><ele>300.6</ele></trkpt><trkpt lat="45.81254" lon="9.42946"><time>2024-03-23T07:15:56.000Z</time><ele>300.6</ele></trkpt><trkpt lat="45.812557" lon="9.42947"><time>2024-03-23T07:15:57.000Z</time><ele>300.8</ele></trkpt><trkpt lat="45.812571" lon="9.429475"><time>2024-03-23T07:15:58.000Z</time><ele>300.8</ele></trkpt><trkpt lat="45.812587" lon="9.429484"><time>2024-03-23T07:15:59.000Z</time><ele>300.8</ele></trkpt><trkpt lat="45.812602" lon="9.429496"><time>2024-03-23T07:16:00.000Z</time><ele>300.8</ele></trkpt><trkpt lat="45.812607" lon="9.429499"><time>2024-03-23T07:16:01.000Z</time><ele>300.8</ele></trkpt><trkpt lat="45.812617" lon="9.429497"><time>2024-03-23T07:16:02.000Z</time><ele>300.8</ele></trkpt><trkpt lat="45.812631" lon="9.42949"><time>2024-03-23T07:16:03.000Z</time><ele>301</ele></trkpt><trkpt lat="45.81264" lon="9.429492"><time>2024-03-23T07:16:04.000Z</time><ele>301</ele></trkpt><trkpt lat="45.812648" lon="9.429493"><time>2024-03-23T07:16:05.000Z</time><ele>301.2</ele></trkpt><trkpt lat="45.812655" lon="9.429496"><time>2024-03-23T07:16:06.000Z</time><ele>301.4</ele></trkpt><trkpt lat="45.812656" lon="9.429495"><time>2024-03-23T07:16:07.000Z</time><ele>301.8</ele></trkpt><trkpt lat="45.812659" lon="9.4295"><time>2024-03-23T07:16:08.000Z</time><ele>302</ele></trkpt><trkpt lat="45.81266" lon="9.429503"><time>2024-03-23T07:16:09.000Z</time><ele>302.2</ele></trkpt><trkpt lat="45.812657" lon="9.429497"><time>2024-03-23T07:16:10.000Z</time><ele>302.4</ele></trkpt><trkpt lat="45.812653" lon="9.429493"><time>2024-03-23T07:16:11.000Z</time><ele>302.6</ele></trkpt><trkpt lat="45.81265" lon="9.429494"><time>2024-03-23T07:16:12.000Z</time><ele>302.6</ele></trkpt><trkpt lat="45.812649" lon="9.429494"><time>2024-03-23T07:16:13.000Z</time><ele>302.6</ele></trkpt><trkpt lat="45.812648" lon="9.429491"><time>2024-03-23T07:16:14.000Z</time><ele>302.4</ele></trkpt><trkpt lat="45.812647" lon="9.429487"><time>2024-03-23T07:16:15.000Z</time><ele>302.4</ele></trkpt><trkpt lat="45.812648" lon="9.429484"><time>2024-03-23T07:16:16.000Z</time><ele>302.2</ele></trkpt><trkpt lat="45.812649" lon="9.429482"><time>2024-03-23T07:16:17.000Z</time><ele>302.2</ele></trkpt><trkpt lat="45.812647" lon="9.429482"><time>2024-03-23T07:16:18.000Z</time><ele>302.2</ele></trkpt><trkpt lat="45.812647" lon="9.42948"><time>2024-03-23T07:16:19.000Z</time><ele>302.2</ele></trkpt><trkpt lat="45.812648" lon="9.429477"><time>2024-03-23T07:16:20.000Z</time><ele>302.2</ele></trkpt><trkpt lat="45.812655" lon="9.429481"><time>2024-03-23T07:16:21.000Z</time><ele>302.2</ele></trkpt><trkpt lat="45.812658" lon="9.429479"><time>2024-03-23T07:16:22.000Z</time><ele>302.4</ele></trkpt><trkpt lat="45.812665" lon="9.429478"><time>2024-03-23T07:16:23.000Z</time><ele>302.4</ele></trkpt><trkpt lat="45.812671" lon="9.429474"><time>2024-03-23T07:16:24.000Z</time><ele>302.6</ele></trkpt><trkpt lat="45.812672" lon="9.429472"><time>2024-03-23T07:16:25.000Z</time><ele>302.6</ele></trkpt><trkpt lat="45.812673" lon="9.429474"><time>2024-03-23T07:16:26.000Z</time><ele>302.8</ele></trkpt><trkpt lat="45.812676" lon="9.429473"><time>2024-03-23T07:16:27.000Z</time><ele>303</ele></trkpt><trkpt lat="45.812677" lon="9.429469"><time>2024-03-23T07:16:28.000Z</time><ele>303</ele></trkpt><trkpt lat="45.812683" lon="9.429467"><time>2024-03-23T07:16:29.000Z</time><ele>303</ele></trkpt><trkpt lat="45.812689" lon="9.429475"><time>2024-03-23T07:16:30.000Z</time><ele>303</ele></trkpt><trkpt lat="45.812693" lon="9.429485"><time>2024-03-23T07:16:31.000Z</time><ele>303.2</ele></trkpt><trkpt lat="45.812693" lon="9.429483"><time>2024-03-23T07:16:32.000Z</time><ele>303.2</ele></trkpt><trkpt lat="45.812693" lon="9.429484"><time>2024-03-23T07:16:33.000Z</time><ele>303.2</ele></trkpt><trkpt lat="45.812694" lon="9.429483"><time>2024-03-23T07:16:34.000Z</time><ele>303.2</ele></trkpt><trkpt lat="45.812696" lon="9.429484"><time>2024-03-23T07:16:35.000Z</time><ele>303.2</ele></trkpt><trkpt lat="45.812706" lon="9.429484"><time>2024-03-23T07:16:36.000Z</time><ele>303.2</ele></trkpt><trkpt lat="45.812715" lon="9.429484"><time>2024-03-23T07:16:37.000Z</time><ele>303.2</ele></trkpt><trkpt lat="45.81272" lon="9.429485"><time>2024-03-23T07:16:38.000Z</time><ele>303.2</ele></trkpt><trkpt lat="45.812724" lon="9.429483"><time>2024-03-23T07:16:39.000Z</time><ele>303.2</ele></trkpt><trkpt lat="45.812728" lon="9.429482"><time>2024-03-23T07:16:40.000Z</time><ele>303.2</ele></trkpt><trkpt lat="45.812734" lon="9.429486"><time>2024-03-23T07:16:41.000Z</time><ele>303.4</ele></trkpt><trkpt lat="45.812739" lon="9.429492"><time>2024-03-23T07:16:42.000Z</time><ele>303.4</ele></trkpt><trkpt lat="45.812747" lon="9.4295"><time>2024-03-23T07:16:43.000Z</time><ele>303.4</ele></trkpt><trkpt lat="45.812762" lon="9.429514"><time>2024-03-23T07:16:44.000Z</time><ele>303.6</ele></trkpt><trkpt lat="45.812775" lon="9.429519"><time>2024-03-23T07:16:45.000Z</time><ele>303.6</ele></trkpt><trkpt lat="45.81279" lon="9.42952"><time>2024-03-23T07:16:46.000Z</time><ele>303.6</ele></trkpt><trkpt lat="45.8128" lon="9.429523"><time>2024-03-23T07:16:47.000Z</time><ele>303.8</ele></trkpt><trkpt lat="45.812811" lon="9.42952"><time>2024-03-23T07:16:48.000Z</time><ele>304</ele></trkpt><trkpt lat="45.812822" lon="9.429515"><time>2024-03-23T07:16:49.000Z</time><ele>304</ele></trkpt><trkpt lat="45.812834" lon="9.429508"><time>2024-03-23T07:16:50.000Z</time><ele>304.2</ele></trkpt><trkpt lat="45.812839" lon="9.429507"><time>2024-03-23T07:16:51.000Z</time><ele>304.4</ele></trkpt><trkpt lat="45.812843" lon="9.429505"><time>2024-03-23T07:16:52.000Z</time><ele>304.4</ele></trkpt><trkpt lat="45.812845" lon="9.429501"><time>2024-03-23T07:16:53.000Z</time><ele>304.6</ele></trkpt><trkpt lat="45.812845" lon="9.429506"><time>2024-03-23T07:16:54.000Z</time><ele>304.8</ele></trkpt><trkpt lat="45.812846" lon="9.429511"><time>2024-03-23T07:16:55.000Z</time><ele>305</ele></trkpt><trkpt lat="45.812852" lon="9.429516"><time>2024-03-23T07:16:56.000Z</time><ele>305</ele></trkpt><trkpt lat="45.812859" lon="9.429524"><time>2024-03-23T07:16:57.000Z</time><ele>305.2</ele></trkpt><trkpt lat="45.812868" lon="9.429527"><time>2024-03-23T07:16:58.000Z</time><ele>305.4</ele></trkpt><trkpt lat="45.812875" lon="9.429531"><time>2024-03-23T07:16:59.000Z</time><ele>305.6</ele></trkpt><trkpt lat="45.812883" lon="9.429535"><time>2024-03-23T07:17:00.000Z</time><ele>305.8</ele></trkpt><trkpt lat="45.812893" lon="9.429548"><time>2024-03-23T07:17:01.000Z</time><ele>305.8</ele></trkpt><trkpt lat="45.812899" lon="9.429556"><time>2024-03-23T07:17:02.000Z</time><ele>306</ele></trkpt><trkpt lat="45.812905" lon="9.429555"><time>2024-03-23T07:17:03.000Z</time><ele>306.2</ele></trkpt><trkpt lat="45.812913" lon="9.429554"><time>2024-03-23T07:17:04.000Z</time><ele>306.4</ele></trkpt><trkpt lat="45.81292" lon="9.429557"><time>2024-03-23T07:17:05.000Z</time><ele>306.6</ele></trkpt><trkpt lat="45.812928" lon="9.429557"><time>2024-03-23T07:17:06.000Z</time><ele>306.8</ele></trkpt><trkpt lat="45.812935" lon="9.429553"><time>2024-03-23T07:17:07.000Z</time><ele>306.8</ele></trkpt><trkpt lat="45.812942" lon="9.429551"><time>2024-03-23T07:17:08.000Z</time><ele>307</ele></trkpt><trkpt lat="45.81295" lon="9.42955"><time>2024-03-23T07:17:09.000Z</time><ele>307.2</ele></trkpt><trkpt lat="45.812958" lon="9.42955"><time>2024-03-23T07:17:10.000Z</time><ele>307.2</ele></trkpt><trkpt lat="45.812967" lon="9.429547"><time>2024-03-23T07:17:11.000Z</time><ele>307.4</ele></trkpt><trkpt lat="45.812978" lon="9.429556"><time>2024-03-23T07:17:12.000Z</time><ele>307.4</ele></trkpt><trkpt lat="45.812989" lon="9.429556"><time>2024-03-23T07:17:13.000Z</time><ele>307.6</ele></trkpt><trkpt lat="45.813001" lon="9.42956"><time>2024-03-23T07:17:14.000Z</time><ele>307.8</ele></trkpt><trkpt lat="45.813016" lon="9.429568"><time>2024-03-23T07:17:15.000Z</time><ele>308.2</ele></trkpt><trkpt lat="45.813027" lon="9.429574"><time>2024-03-23T07:17:16.000Z</time><ele>308.2</ele></trkpt><trkpt lat="45.813038" lon="9.429578"><time>2024-03-23T07:17:17.000Z</time><ele>308.4</ele></trkpt><trkpt lat="45.813045" lon="9.42957"><time>2024-03-23T07:17:18.000Z</time><ele>308.6</ele></trkpt><trkpt lat="45.81305" lon="9.42956"><time>2024-03-23T07:17:19.000Z</time><ele>308.6</ele></trkpt><trkpt lat="45.81306" lon="9.42956"><time>2024-03-23T07:17:20.000Z</time><ele>308.6</ele></trkpt><trkpt lat="45.813071" lon="9.429561"><time>2024-03-23T07:17:21.000Z</time><ele>308.8</ele></trkpt><trkpt lat="45.813082" lon="9.429561"><time>2024-03-23T07:17:22.000Z</time><ele>309</ele></trkpt><trkpt lat="45.813093" lon="9.429563"><time>2024-03-23T07:17:23.000Z</time><ele>309.2</ele></trkpt><trkpt lat="45.813108" lon="9.429567"><time>2024-03-23T07:17:24.000Z</time><ele>309.2</ele></trkpt><trkpt lat="45.81312" lon="9.429567"><time>2024-03-23T07:17:25.000Z</time><ele>309.4</ele></trkpt><trkpt lat="45.813132" lon="9.429565"><time>2024-03-23T07:17:26.000Z</time><ele>309.6</ele></trkpt><trkpt lat="45.813141" lon="9.429569"><time>2024-03-23T07:17:27.000Z</time><ele>309.6</ele></trkpt><trkpt lat="45.813148" lon="9.429574"><time>2024-03-23T07:17:28.000Z</time><ele>309.8</ele></trkpt><trkpt lat="45.813156" lon="9.429574"><time>2024-03-23T07:17:29.000Z</time><ele>310</ele></trkpt><trkpt lat="45.813165" lon="9.429574"><time>2024-03-23T07:17:30.000Z</time><ele>310.2</ele></trkpt><trkpt lat="45.813175" lon="9.429569"><time>2024-03-23T07:17:31.000Z</time><ele>310.4</ele></trkpt><trkpt lat="45.813186" lon="9.429562"><time>2024-03-23T07:17:32.000Z</time><ele>310.4</ele></trkpt><trkpt lat="45.813192" lon="9.429556"><time>2024-03-23T07:17:33.000Z</time><ele>310.6</ele></trkpt><trkpt lat="45.813196" lon="9.429553"><time>2024-03-23T07:17:34.000Z</time><ele>310.6</ele></trkpt><trkpt lat="45.813202" lon="9.429546"><time>2024-03-23T07:17:35.000Z</time><ele>310.6</ele></trkpt><trkpt lat="45.813212" lon="9.429541"><time>2024-03-23T07:17:36.000Z</time><ele>310.8</ele></trkpt><trkpt lat="45.813219" lon="9.429536"><time>2024-03-23T07:17:37.000Z</time><ele>310.8</ele></trkpt><trkpt lat="45.81323" lon="9.429534"><time>2024-03-23T07:17:38.000Z</time><ele>311</ele></trkpt><trkpt lat="45.813246" lon="9.429531"><time>2024-03-23T07:17:39.000Z</time><ele>311</ele></trkpt><trkpt lat="45.813262" lon="9.429531"><time>2024-03-23T07:17:40.000Z</time><ele>311.2</ele></trkpt><trkpt lat="45.813284" lon="9.429535"><time>2024-03-23T07:17:41.000Z</time><ele>311.2</ele></trkpt><trkpt lat="45.813297" lon="9.429534"><time>2024-03-23T07:17:42.000Z</time><ele>311.2</ele></trkpt><trkpt lat="45.813306" lon="9.429529"><time>2024-03-23T07:17:43.000Z</time><ele>311.4</ele></trkpt><trkpt lat="45.813318" lon="9.429527"><time>2024-03-23T07:17:44.000Z</time><ele>311.4</ele></trkpt><trkpt lat="45.813329" lon="9.429526"><time>2024-03-23T07:17:45.000Z</time><ele>311.6</ele></trkpt><trkpt lat="45.813334" lon="9.429524"><time>2024-03-23T07:17:46.000Z</time><ele>311.6</ele></trkpt><trkpt lat="45.813339" lon="9.429522"><time>2024-03-23T07:17:47.000Z</time><ele>311.8</ele></trkpt><trkpt lat="45.813348" lon="9.429518"><time>2024-03-23T07:17:48.000Z</time><ele>311.8</ele></trkpt><trkpt lat="45.813355" lon="9.429508"><time>2024-03-23T07:17:49.000Z</time><ele>312</ele></trkpt><trkpt lat="45.813359" lon="9.429501"><time>2024-03-23T07:17:50.000Z</time><ele>312</ele></trkpt><trkpt lat="45.813362" lon="9.429493"><time>2024-03-23T07:17:51.000Z</time><ele>312.2</ele></trkpt><trkpt lat="45.813365" lon="9.429488"><time>2024-03-23T07:17:52.000Z</time><ele>312.2</ele></trkpt><trkpt lat="45.813369" lon="9.429487"><time>2024-03-23T07:17:53.000Z</time><ele>312.4</ele></trkpt><trkpt lat="45.813373" lon="9.429473"><time>2024-03-23T07:17:54.000Z</time><ele>312.4</ele></trkpt><trkpt lat="45.813373" lon="9.429467"><time>2024-03-23T07:17:55.000Z</time><ele>312.6</ele></trkpt><trkpt lat="45.813379" lon="9.429462"><time>2024-03-23T07:17:56.000Z</time><ele>312.6</ele></trkpt><trkpt lat="45.813388" lon="9.429463"><time>2024-03-23T07:17:57.000Z</time><ele>312.6</ele></trkpt><trkpt lat="45.813399" lon="9.429462"><time>2024-03-23T07:17:58.000Z</time><ele>312.6</ele></trkpt><trkpt lat="45.813409" lon="9.429462"><time>2024-03-23T07:17:59.000Z</time><ele>312.8</ele></trkpt><trkpt lat="45.813422" lon="9.429464"><time>2024-03-23T07:18:00.000Z</time><ele>312.8</ele></trkpt><trkpt lat="45.813434" lon="9.429465"><time>2024-03-23T07:18:01.000Z</time><ele>313</ele></trkpt><trkpt lat="45.813446" lon="9.429466"><time>2024-03-23T07:18:02.000Z</time><ele>313.2</ele></trkpt><trkpt lat="45.813456" lon="9.429466"><time>2024-03-23T07:18:03.000Z</time><ele>313.2</ele></trkpt><trkpt lat="45.813468" lon="9.429461"><time>2024-03-23T07:18:04.000Z</time><ele>313.2</ele></trkpt><trkpt lat="45.813477" lon="9.429456"><time>2024-03-23T07:18:05.000Z</time><ele>313.4</ele></trkpt><trkpt lat="45.813486" lon="9.429448"><time>2024-03-23T07:18:06.000Z</time><ele>313.4</ele></trkpt><trkpt lat="45.813499" lon="9.429441"><time>2024-03-23T07:18:07.000Z</time><ele>313.4</ele></trkpt><trkpt lat="45.813516" lon="9.429435"><time>2024-03-23T07:18:08.000Z</time><ele>313.6</ele></trkpt><trkpt lat="45.813532" lon="9.429425"><time>2024-03-23T07:18:09.000Z</time><ele>313.6</ele></trkpt><trkpt lat="45.813548" lon="9.429409"><time>2024-03-23T07:18:10.000Z</time><ele>313.6</ele></trkpt><trkpt lat="45.813564" lon="9.429388"><time>2024-03-23T07:18:11.000Z</time><ele>313.8</ele></trkpt><trkpt lat="45.813577" lon="9.429368"><time>2024-03-23T07:18:12.000Z</time><ele>313.8</ele></trkpt><trkpt lat="45.813592" lon="9.429357"><time>2024-03-23T07:18:13.000Z</time><ele>314</ele></trkpt><trkpt lat="45.813599" lon="9.429333"><time>2024-03-23T07:18:14.000Z</time><ele>314</ele></trkpt><trkpt lat="45.813598" lon="9.429305"><time>2024-03-23T07:18:15.000Z</time><ele>314.2</ele></trkpt><trkpt lat="45.813604" lon="9.429288"><time>2024-03-23T07:18:16.000Z</time><ele>314.2</ele></trkpt><trkpt lat="45.813612" lon="9.429281"><time>2024-03-23T07:18:17.000Z</time><ele>314.2</ele></trkpt><trkpt lat="45.813616" lon="9.429268"><time>2024-03-23T07:18:18.000Z</time><ele>314.4</ele></trkpt><trkpt lat="45.813616" lon="9.429263"><time>2024-03-23T07:18:19.000Z</time><ele>314.4</ele></trkpt><trkpt lat="45.813617" lon="9.429253"><time>2024-03-23T07:18:20.000Z</time><ele>314.4</ele></trkpt><trkpt lat="45.813619" lon="9.429241"><time>2024-03-23T07:18:21.000Z</time><ele>314.4</ele></trkpt><trkpt lat="45.813623" lon="9.429228"><time>2024-03-23T07:18:22.000Z</time><ele>314.6</ele></trkpt><trkpt lat="45.813626" lon="9.429207"><time>2024-03-23T07:18:23.000Z</time><ele>314.6</ele></trkpt><trkpt lat="45.813634" lon="9.429185"><time>2024-03-23T07:18:24.000Z</time><ele>314.8</ele></trkpt><trkpt lat="45.81364" lon="9.429167"><time>2024-03-23T07:18:25.000Z</time><ele>314.8</ele></trkpt><trkpt lat="45.813643" lon="9.42916"><time>2024-03-23T07:18:26.000Z</time><ele>315</ele></trkpt><trkpt lat="45.813648" lon="9.429151"><time>2024-03-23T07:18:27.000Z</time><ele>315</ele></trkpt><trkpt lat="45.813653" lon="9.429138"><time>2024-03-23T07:18:28.000Z</time><ele>315</ele></trkpt><trkpt lat="45.813656" lon="9.42912"><time>2024-03-23T07:18:29.000Z</time><ele>315</ele></trkpt><trkpt lat="45.813659" lon="9.429103"><time>2024-03-23T07:18:30.000Z</time><ele>315.2</ele></trkpt><trkpt lat="45.813665" lon="9.429086"><time>2024-03-23T07:18:31.000Z</time><ele>315.2</ele></trkpt><trkpt lat="45.813673" lon="9.42907"><time>2024-03-23T07:18:32.000Z</time><ele>315.4</ele></trkpt><trkpt lat="45.813681" lon="9.42906"><time>2024-03-23T07:18:33.000Z</time><ele>315.4</ele></trkpt><trkpt lat="45.81369" lon="9.429049"><time>2024-03-23T07:18:34.000Z</time><ele>315.4</ele></trkpt><trkpt lat="45.8137" lon="9.429038"><time>2024-03-23T07:18:35.000Z</time><ele>315.6</ele></trkpt><trkpt lat="45.813708" lon="9.429019"><time>2024-03-23T07:18:36.000Z</time><ele>315.6</ele></trkpt><trkpt lat="45.813712" lon="9.429"><time>2024-03-23T07:18:37.000Z</time><ele>315.6</ele></trkpt><trkpt lat="45.813716" lon="9.428988"><time>2024-03-23T07:18:38.000Z</time><ele>315.6</ele></trkpt><trkpt lat="45.813722" lon="9.428978"><time>2024-03-23T07:18:39.000Z</time><ele>315.6</ele></trkpt><trkpt lat="45.813729" lon="9.428964"><time>2024-03-23T07:18:40.000Z</time><ele>315.8</ele></trkpt><trkpt lat="45.813735" lon="9.428949"><time>2024-03-23T07:18:41.000Z</time><ele>315.8</ele></trkpt><trkpt lat="45.813743" lon="9.428931"><time>2024-03-23T07:18:42.000Z</time><ele>315.8</ele></trkpt><trkpt lat="45.813746" lon="9.428913"><time>2024-03-23T07:18:43.000Z</time><ele>315.8</ele></trkpt><trkpt lat="45.813747" lon="9.428895"><time>2024-03-23T07:18:44.000Z</time><ele>316</ele></trkpt><trkpt lat="45.813752" lon="9.42888"><time>2024-03-23T07:18:45.000Z</time><ele>316</ele></trkpt><trkpt lat="45.813757" lon="9.428861"><time>2024-03-23T07:18:46.000Z</time><ele>316</ele></trkpt><trkpt lat="45.813765" lon="9.428843"><time>2024-03-23T07:18:47.000Z</time><ele>316</ele></trkpt><trkpt lat="45.813778" lon="9.42883"><time>2024-03-23T07:18:48.000Z</time><ele>316.2</ele></trkpt><trkpt lat="45.813789" lon="9.428817"><time>2024-03-23T07:18:49.000Z</time><ele>316.4</ele></trkpt><trkpt lat="45.813795" lon="9.428795"><time>2024-03-23T07:18:50.000Z</time><ele>316.4</ele></trkpt><trkpt lat="45.813798" lon="9.428769"><time>2024-03-23T07:18:51.000Z</time><ele>316.4</ele></trkpt><trkpt lat="45.81381" lon="9.428766"><time>2024-03-23T07:18:52.000Z</time><ele>316.4</ele></trkpt><trkpt lat="45.81382" lon="9.428761"><time>2024-03-23T07:18:53.000Z</time><ele>316.4</ele></trkpt><trkpt lat="45.81383" lon="9.428748"><time>2024-03-23T07:18:54.000Z</time><ele>316.6</ele></trkpt><trkpt lat="45.813836" lon="9.42873"><time>2024-03-23T07:18:55.000Z</time><ele>316.6</ele></trkpt><trkpt lat="45.813843" lon="9.428712"><time>2024-03-23T07:18:56.000Z</time><ele>316.8</ele></trkpt><trkpt lat="45.813849" lon="9.4287"><time>2024-03-23T07:18:57.000Z</time><ele>316.8</ele></trkpt><trkpt lat="45.813852" lon="9.428683"><time>2024-03-23T07:18:58.000Z</time><ele>317</ele></trkpt><trkpt lat="45.81385" lon="9.428657"><time>2024-03-23T07:18:59.000Z</time><ele>317</ele></trkpt><trkpt lat="45.813849" lon="9.428629"><time>2024-03-23T07:19:00.000Z</time><ele>317</ele></trkpt><trkpt lat="45.81385" lon="9.428607"><time>2024-03-23T07:19:01.000Z</time><ele>317</ele></trkpt><trkpt lat="45.813854" lon="9.428598"><time>2024-03-23T07:19:02.000Z</time><ele>317.2</ele></trkpt><trkpt lat="45.813862" lon="9.428589"><time>2024-03-23T07:19:03.000Z</time><ele>317.2</ele></trkpt><trkpt lat="45.813871" lon="9.428578"><time>2024-03-23T07:19:04.000Z</time><ele>317.4</ele></trkpt><trkpt lat="45.813879" lon="9.428567"><time>2024-03-23T07:19:05.000Z</time><ele>317.4</ele></trkpt><trkpt lat="45.813886" lon="9.428558"><time>2024-03-23T07:19:06.000Z</time><ele>317.4</ele></trkpt><trkpt lat="45.813895" lon="9.428547"><time>2024-03-23T07:19:07.000Z</time><ele>317.6</ele></trkpt><trkpt lat="45.813904" lon="9.428534"><time>2024-03-23T07:19:08.000Z</time><ele>317.8</ele></trkpt><trkpt lat="45.813913" lon="9.428526"><time>2024-03-23T07:19:09.000Z</time><ele>318</ele></trkpt><trkpt lat="45.813916" lon="9.42852"><time>2024-03-23T07:19:10.000Z</time><ele>318</ele></trkpt><trkpt lat="45.813916" lon="9.428509"><time>2024-03-23T07:19:11.000Z</time><ele>318.2</ele></trkpt><trkpt lat="45.813919" lon="9.428497"><time>2024-03-23T07:19:12.000Z</time><ele>318.2</ele></trkpt><trkpt lat="45.81392" lon="9.428486"><time>2024-03-23T07:19:13.000Z</time><ele>318.4</ele></trkpt><trkpt lat="45.813916" lon="9.428473"><time>2024-03-23T07:19:14.000Z</time><ele>318.4</ele></trkpt><trkpt lat="45.813917" lon="9.428458"><time>2024-03-23T07:19:15.000Z</time><ele>318.4</ele></trkpt><trkpt lat="45.813923" lon="9.428441"><time>2024-03-23T07:19:16.000Z</time><ele>318.4</ele></trkpt><trkpt lat="45.813929" lon="9.428427"><time>2024-03-23T07:19:17.000Z</time><ele>318.6</ele></trkpt><trkpt lat="45.813932" lon="9.428417"><time>2024-03-23T07:19:18.000Z</time><ele>318.6</ele></trkpt><trkpt lat="45.813937" lon="9.428406"><time>2024-03-23T07:19:19.000Z</time><ele>318.8</ele></trkpt><trkpt lat="45.813944" lon="9.428391"><time>2024-03-23T07:19:20.000Z</time><ele>318.8</ele></trkpt><trkpt lat="45.813949" lon="9.42838"><time>2024-03-23T07:19:21.000Z</time><ele>319</ele></trkpt><trkpt lat="45.813958" lon="9.428375"><time>2024-03-23T07:19:22.000Z</time><ele>319</ele></trkpt><trkpt lat="45.813968" lon="9.42837"><time>2024-03-23T07:19:23.000Z</time><ele>319</ele></trkpt><trkpt lat="45.813977" lon="9.428361"><time>2024-03-23T07:19:24.000Z</time><ele>319.2</ele></trkpt><trkpt lat="45.813984" lon="9.428358"><time>2024-03-23T07:19:25.000Z</time><ele>319.4</ele></trkpt><trkpt lat="45.813993" lon="9.428352"><time>2024-03-23T07:19:26.000Z</time><ele>319.4</ele></trkpt><trkpt lat="45.813999" lon="9.428341"><time>2024-03-23T07:19:27.000Z</time><ele>319.6</ele></trkpt><trkpt lat="45.814004" lon="9.428324"><time>2024-03-23T07:19:28.000Z</time><ele>319.6</ele></trkpt><trkpt lat="45.814008" lon="9.428315"><time>2024-03-23T07:19:29.000Z</time><ele>319.8</ele></trkpt><trkpt lat="45.814016" lon="9.428307"><time>2024-03-23T07:19:30.000Z</time><ele>319.8</ele></trkpt><trkpt lat="45.814021" lon="9.428298"><time>2024-03-23T07:19:31.000Z</time><ele>319.8</ele></trkpt><trkpt lat="45.814024" lon="9.42829"><time>2024-03-23T07:19:32.000Z</time><ele>320</ele></trkpt><trkpt lat="45.814026" lon="9.428275"><time>2024-03-23T07:19:33.000Z</time><ele>320</ele></trkpt><trkpt lat="45.814027" lon="9.428257"><time>2024-03-23T07:19:34.000Z</time><ele>320.2</ele></trkpt><trkpt lat="45.814029" lon="9.428245"><time>2024-03-23T07:19:35.000Z</time><ele>320.4</ele></trkpt><trkpt lat="45.814028" lon="9.428224"><time>2024-03-23T07:19:36.000Z</time><ele>320.4</ele></trkpt><trkpt lat="45.814031" lon="9.428209"><time>2024-03-23T07:19:37.000Z</time><ele>320.4</ele></trkpt><trkpt lat="45.814038" lon="9.428196"><time>2024-03-23T07:19:38.000Z</time><ele>320.6</ele></trkpt><trkpt lat="45.814042" lon="9.428182"><time>2024-03-23T07:19:39.000Z</time><ele>320.6</ele></trkpt><trkpt lat="45.814045" lon="9.42817"><time>2024-03-23T07:19:40.000Z</time><ele>320.8</ele></trkpt><trkpt lat="45.814052" lon="9.428159"><time>2024-03-23T07:19:41.000Z</time><ele>321</ele></trkpt><trkpt lat="45.814051" lon="9.428144"><time>2024-03-23T07:19:42.000Z</time><ele>321</ele></trkpt><trkpt lat="45.814052" lon="9.428133"><time>2024-03-23T07:19:43.000Z</time><ele>321.2</ele></trkpt><trkpt lat="45.814057" lon="9.42812"><time>2024-03-23T07:19:44.000Z</time><ele>321.2</ele></trkpt><trkpt lat="45.814063" lon="9.428108"><time>2024-03-23T07:19:45.000Z</time><ele>321.2</ele></trkpt><trkpt lat="45.814068" lon="9.428092"><time>2024-03-23T07:19:46.000Z</time><ele>321.4</ele></trkpt><trkpt lat="45.814072" lon="9.428078"><time>2024-03-23T07:19:47.000Z</time><ele>321.4</ele></trkpt><trkpt lat="45.81408" lon="9.428067"><time>2024-03-23T07:19:48.000Z</time><ele>321.6</ele></trkpt><trkpt lat="45.814088" lon="9.428052"><time>2024-03-23T07:19:49.000Z</time><ele>321.8</ele></trkpt><trkpt lat="45.814093" lon="9.428033"><time>2024-03-23T07:19:50.000Z</time><ele>321.8</ele></trkpt><trkpt lat="45.814098" lon="9.428024"><time>2024-03-23T07:19:51.000Z</time><ele>322</ele></trkpt><trkpt lat="45.814102" lon="9.428012"><time>2024-03-23T07:19:52.000Z</time><ele>322</ele></trkpt><trkpt lat="45.814105" lon="9.427997"><time>2024-03-23T07:19:53.000Z</time><ele>322.2</ele></trkpt><trkpt lat="45.814111" lon="9.427983"><time>2024-03-23T07:19:54.000Z</time><ele>322.2</ele></trkpt><trkpt lat="45.814117" lon="9.427971"><time>2024-03-23T07:19:55.000Z</time><ele>322.4</ele></trkpt><trkpt lat="45.814121" lon="9.427954"><time>2024-03-23T07:19:56.000Z</time><ele>322.4</ele></trkpt><trkpt lat="45.814124" lon="9.427935"><time>2024-03-23T07:19:57.000Z</time><ele>322.4</ele></trkpt><trkpt lat="45.814129" lon="9.427919"><time>2024-03-23T07:19:58.000Z</time><ele>322.6</ele></trkpt><trkpt lat="45.814131" lon="9.427902"><time>2024-03-23T07:19:59.000Z</time><ele>322.8</ele></trkpt><trkpt lat="45.814136" lon="9.42789"><time>2024-03-23T07:20:00.000Z</time><ele>322.8</ele></trkpt><trkpt lat="45.81414" lon="9.42788"><time>2024-03-23T07:20:01.000Z</time><ele>323</ele></trkpt><trkpt lat="45.814141" lon="9.427866"><time>2024-03-23T07:20:02.000Z</time><ele>323</ele></trkpt><trkpt lat="45.814139" lon="9.427849"><time>2024-03-23T07:20:03.000Z</time><ele>323.2</ele></trkpt><trkpt lat="45.814139" lon="9.42783"><time>2024-03-23T07:20:04.000Z</time><ele>323.2</ele></trkpt><trkpt lat="45.814142" lon="9.427815"><time>2024-03-23T07:20:05.000Z</time><ele>323.4</ele></trkpt><trkpt lat="45.814151" lon="9.427798"><time>2024-03-23T07:20:06.000Z</time><ele>323.4</ele></trkpt><trkpt lat="45.814156" lon="9.427789"><time>2024-03-23T07:20:07.000Z</time><ele>323.6</ele></trkpt><trkpt lat="45.814168" lon="9.427775"><time>2024-03-23T07:20:08.000Z</time><ele>323.6</ele></trkpt><trkpt lat="45.814178" lon="9.427764"><time>2024-03-23T07:20:09.000Z</time><ele>323.8</ele></trkpt><trkpt lat="45.814183" lon="9.427755"><time>2024-03-23T07:20:10.000Z</time><ele>323.8</ele></trkpt><trkpt lat="45.814185" lon="9.427745"><time>2024-03-23T07:20:11.000Z</time><ele>324</ele></trkpt><trkpt lat="45.81419" lon="9.427727"><time>2024-03-23T07:20:12.000Z</time><ele>324.2</ele></trkpt><trkpt lat="45.814189" lon="9.427714"><time>2024-03-23T07:20:13.000Z</time><ele>324.2</ele></trkpt><trkpt lat="45.814191" lon="9.427704"><time>2024-03-23T07:20:14.000Z</time><ele>324.2</ele></trkpt><trkpt lat="45.81419" lon="9.427692"><time>2024-03-23T07:20:15.000Z</time><ele>324.4</ele></trkpt><trkpt lat="45.81419" lon="9.427682"><time>2024-03-23T07:20:16.000Z</time><ele>324.4</ele></trkpt><trkpt lat="45.814191" lon="9.427667"><time>2024-03-23T07:20:17.000Z</time><ele>324.6</ele></trkpt><trkpt lat="45.814192" lon="9.427656"><time>2024-03-23T07:20:18.000Z</time><ele>324.6</ele></trkpt><trkpt lat="45.814195" lon="9.427641"><time>2024-03-23T07:20:19.000Z</time><ele>324.8</ele></trkpt><trkpt lat="45.814201" lon="9.42763"><time>2024-03-23T07:20:20.000Z</time><ele>324.8</ele></trkpt><trkpt lat="45.814204" lon="9.427619"><time>2024-03-23T07:20:21.000Z</time><ele>324.8</ele></trkpt><trkpt lat="45.814211" lon="9.427606"><time>2024-03-23T07:20:22.000Z</time><ele>324.8</ele></trkpt><trkpt lat="45.814217" lon="9.427594"><time>2024-03-23T07:20:23.000Z</time><ele>325</ele></trkpt><trkpt lat="45.814218" lon="9.427578"><time>2024-03-23T07:20:24.000Z</time><ele>325</ele></trkpt><trkpt lat="45.814222" lon="9.427568"><time>2024-03-23T07:20:25.000Z</time><ele>325.2</ele></trkpt><trkpt lat="45.814229" lon="9.427555"><time>2024-03-23T07:20:26.000Z</time><ele>325.2</ele></trkpt><trkpt lat="45.814233" lon="9.427543"><time>2024-03-23T07:20:27.000Z</time><ele>325.4</ele></trkpt><trkpt lat="45.814241" lon="9.427525"><time>2024-03-23T07:20:28.000Z</time><ele>325.6</ele></trkpt><trkpt lat="45.814248" lon="9.427515"><time>2024-03-23T07:20:29.000Z</time><ele>325.8</ele></trkpt><trkpt lat="45.814255" lon="9.427502"><time>2024-03-23T07:20:30.000Z</time><ele>325.8</ele></trkpt><trkpt lat="45.814261" lon="9.427488"><time>2024-03-23T07:20:31.000Z</time><ele>325.8</ele></trkpt><trkpt lat="45.814269" lon="9.427477"><time>2024-03-23T07:20:32.000Z</time><ele>326</ele></trkpt><trkpt lat="45.814274" lon="9.427463"><time>2024-03-23T07:20:33.000Z</time><ele>326</ele></trkpt><trkpt lat="45.81428" lon="9.427449"><time>2024-03-23T07:20:34.000Z</time><ele>326.2</ele></trkpt><trkpt lat="45.814285" lon="9.427429"><time>2024-03-23T07:20:35.000Z</time><ele>326.4</ele></trkpt><trkpt lat="45.814292" lon="9.427416"><time>2024-03-23T07:20:36.000Z</time><ele>326.4</ele></trkpt><trkpt lat="45.814298" lon="9.427406"><time>2024-03-23T07:20:37.000Z</time><ele>326.6</ele></trkpt><trkpt lat="45.814303" lon="9.427398"><time>2024-03-23T07:20:38.000Z</time><ele>326.6</ele></trkpt><trkpt lat="45.814321" lon="9.427382"><time>2024-03-23T07:20:39.000Z</time><ele>326.8</ele></trkpt><trkpt lat="45.814321" lon="9.427373"><time>2024-03-23T07:20:40.000Z</time><ele>327</ele></trkpt><trkpt lat="45.814329" lon="9.42736"><time>2024-03-23T07:20:41.000Z</time><ele>327</ele></trkpt><trkpt lat="45.814334" lon="9.427346"><time>2024-03-23T07:20:42.000Z</time><ele>327.2</ele></trkpt><trkpt lat="45.814335" lon="9.427339"><time>2024-03-23T07:20:43.000Z</time><ele>327.4</ele></trkpt><trkpt lat="45.814337" lon="9.427332"><time>2024-03-23T07:20:44.000Z</time><ele>327.4</ele></trkpt><trkpt lat="45.814334" lon="9.427315"><time>2024-03-23T07:20:45.000Z</time><ele>327.4</ele></trkpt><trkpt lat="45.81433" lon="9.427305"><time>2024-03-23T07:20:46.000Z</time><ele>327.6</ele></trkpt><trkpt lat="45.814331" lon="9.427294"><time>2024-03-23T07:20:47.000Z</time><ele>327.8</ele></trkpt><trkpt lat="45.814331" lon="9.427282"><time>2024-03-23T07:20:48.000Z</time><ele>327.8</ele></trkpt><trkpt lat="45.814338" lon="9.427263"><time>2024-03-23T07:20:49.000Z</time><ele>327.8</ele></trkpt><trkpt lat="45.814352" lon="9.427243"><time>2024-03-23T07:20:50.000Z</time><ele>328</ele></trkpt><trkpt lat="45.814367" lon="9.427238"><time>2024-03-23T07:20:51.000Z</time><ele>328.2</ele></trkpt><trkpt lat="45.814379" lon="9.427225"><time>2024-03-23T07:20:52.000Z</time><ele>328.2</ele></trkpt><trkpt lat="45.814381" lon="9.427221"><time>2024-03-23T07:20:53.000Z</time><ele>328.4</ele></trkpt><trkpt lat="45.814381" lon="9.427218"><time>2024-03-23T07:20:54.000Z</time><ele>328.6</ele></trkpt><trkpt lat="45.81438" lon="9.427216"><time>2024-03-23T07:20:55.000Z</time><ele>328.6</ele></trkpt><trkpt lat="45.814379" lon="9.427215"><time>2024-03-23T07:20:56.000Z</time><ele>328.6</ele></trkpt><trkpt lat="45.814378" lon="9.427216"><time>2024-03-23T07:20:57.000Z</time><ele>328.8</ele></trkpt><trkpt lat="45.814377" lon="9.427216"><time>2024-03-23T07:20:58.000Z</time><ele>328.8</ele></trkpt><trkpt lat="45.814376" lon="9.427215"><time>2024-03-23T07:20:59.000Z</time><ele>328.8</ele></trkpt><trkpt lat="45.814374" lon="9.427213"><time>2024-03-23T07:21:00.000Z</time><ele>328.8</ele></trkpt><trkpt lat="45.814373" lon="9.427214"><time>2024-03-23T07:21:01.000Z</time><ele>328.8</ele></trkpt><trkpt lat="45.814373" lon="9.427217"><time>2024-03-23T07:21:02.000Z</time><ele>328.8</ele></trkpt><trkpt lat="45.814373" lon="9.427221"><time>2024-03-23T07:21:03.000Z</time><ele>328.8</ele></trkpt><trkpt lat="45.814375" lon="9.427223"><time>2024-03-23T07:21:04.000Z</time><ele>328.8</ele></trkpt><trkpt lat="45.814375" lon="9.427222"><time>2024-03-23T07:21:05.000Z</time><ele>329</ele></trkpt><trkpt lat="45.814375" lon="9.42722"><time>2024-03-23T07:21:06.000Z</time><ele>329</ele></trkpt><trkpt lat="45.814378" lon="9.427219"><time>2024-03-23T07:21:07.000Z</time><ele>329.2</ele></trkpt><trkpt lat="45.814384" lon="9.427212"><time>2024-03-23T07:21:08.000Z</time><ele>329.4</ele></trkpt><trkpt lat="45.814385" lon="9.427214"><time>2024-03-23T07:21:09.000Z</time><ele>329.6</ele></trkpt><trkpt lat="45.814384" lon="9.427211"><time>2024-03-23T07:21:10.000Z</time><ele>329.8</ele></trkpt><trkpt lat="45.814384" lon="9.427211"><time>2024-03-23T07:21:11.000Z</time><ele>329.8</ele></trkpt><trkpt lat="45.814385" lon="9.42721"><time>2024-03-23T07:21:12.000Z</time><ele>329.8</ele></trkpt><trkpt lat="45.814394" lon="9.427199"><time>2024-03-23T07:21:13.000Z</time><ele>329.8</ele></trkpt><trkpt lat="45.814398" lon="9.427184"><time>2024-03-23T07:21:14.000Z</time><ele>329.8</ele></trkpt><trkpt lat="45.814405" lon="9.427174"><time>2024-03-23T07:21:15.000Z</time><ele>329.8</ele></trkpt><trkpt lat="45.814416" lon="9.427171"><time>2024-03-23T07:21:16.000Z</time><ele>329.4</ele></trkpt><trkpt lat="45.814415" lon="9.427168"><time>2024-03-23T07:21:17.000Z</time><ele>329.2</ele></trkpt><trkpt lat="45.814416" lon="9.427163"><time>2024-03-23T07:21:18.000Z</time><ele>329.2</ele></trkpt><trkpt lat="45.814424" lon="9.427156"><time>2024-03-23T07:21:19.000Z</time><ele>329</ele></trkpt><trkpt lat="45.814431" lon="9.427147"><time>2024-03-23T07:21:20.000Z</time><ele>329</ele></trkpt><trkpt lat="45.814437" lon="9.427131"><time>2024-03-23T07:21:21.000Z</time><ele>329.2</ele></trkpt><trkpt lat="45.81444" lon="9.42712"><time>2024-03-23T07:21:22.000Z</time><ele>329.2</ele></trkpt><trkpt lat="45.81444" lon="9.427107"><time>2024-03-23T07:21:23.000Z</time><ele>329.4</ele></trkpt><trkpt lat="45.814443" lon="9.427093"><time>2024-03-23T07:21:24.000Z</time><ele>329.4</ele></trkpt><trkpt lat="45.814448" lon="9.427086"><time>2024-03-23T07:21:25.000Z</time><ele>329.6</ele></trkpt><trkpt lat="45.814449" lon="9.427078"><time>2024-03-23T07:21:26.000Z</time><ele>329.8</ele></trkpt><trkpt lat="45.814447" lon="9.427062"><time>2024-03-23T07:21:27.000Z</time><ele>329.8</ele></trkpt><trkpt lat="45.814446" lon="9.427049"><time>2024-03-23T07:21:28.000Z</time><ele>329.8</ele></trkpt><trkpt lat="45.814445" lon="9.427041"><time>2024-03-23T07:21:29.000Z</time><ele>330</ele></trkpt><trkpt lat="45.814445" lon="9.427038"><time>2024-03-23T07:21:30.000Z</time><ele>330.2</ele></trkpt><trkpt lat="45.814448" lon="9.427031"><time>2024-03-23T07:21:31.000Z</time><ele>330.2</ele></trkpt><trkpt lat="45.814451" lon="9.427014"><time>2024-03-23T07:21:32.000Z</time><ele>330.4</ele></trkpt><trkpt lat="45.814457" lon="9.427003"><time>2024-03-23T07:21:33.000Z</time><ele>330.6</ele></trkpt><trkpt lat="45.814461" lon="9.426982"><time>2024-03-23T07:21:34.000Z</time><ele>330.6</ele></trkpt><trkpt lat="45.814465" lon="9.42697"><time>2024-03-23T07:21:35.000Z</time><ele>330.8</ele></trkpt><trkpt lat="45.814462" lon="9.426961"><time>2024-03-23T07:21:36.000Z</time><ele>330.8</ele></trkpt><trkpt lat="45.814466" lon="9.42695"><time>2024-03-23T07:21:37.000Z</time><ele>331</ele></trkpt><trkpt lat="45.814475" lon="9.426937"><time>2024-03-23T07:21:38.000Z</time><ele>331.2</ele></trkpt><trkpt lat="45.814482" lon="9.426929"><time>2024-03-23T07:21:39.000Z</time><ele>331.2</ele></trkpt><trkpt lat="45.814488" lon="9.426921"><time>2024-03-23T07:21:40.000Z</time><ele>331.6</ele></trkpt><trkpt lat="45.814485" lon="9.426914"><time>2024-03-23T07:21:41.000Z</time><ele>331.6</ele></trkpt><trkpt lat="45.814485" lon="9.426904"><time>2024-03-23T07:21:42.000Z</time><ele>331.6</ele></trkpt><trkpt lat="45.814487" lon="9.426894"><time>2024-03-23T07:21:43.000Z</time><ele>331.8</ele></trkpt><trkpt lat="45.814489" lon="9.426888"><time>2024-03-23T07:21:44.000Z</time><ele>331.8</ele></trkpt><trkpt lat="45.814493" lon="9.426882"><time>2024-03-23T07:21:45.000Z</time><ele>332</ele></trkpt><trkpt lat="45.814494" lon="9.426869"><time>2024-03-23T07:21:46.000Z</time><ele>332.2</ele></trkpt><trkpt lat="45.814498" lon="9.426861"><time>2024-03-23T07:21:47.000Z</time><ele>332.6</ele></trkpt><trkpt lat="45.814503" lon="9.426849"><time>2024-03-23T07:21:48.000Z</time><ele>332.8</ele></trkpt><trkpt lat="45.814509" lon="9.426837"><time>2024-03-23T07:21:49.000Z</time><ele>333</ele></trkpt><trkpt lat="45.814513" lon="9.426827"><time>2024-03-23T07:21:50.000Z</time><ele>333.2</ele></trkpt><trkpt lat="45.814518" lon="9.426821"><time>2024-03-23T07:21:51.000Z</time><ele>333.4</ele></trkpt><trkpt lat="45.814522" lon="9.426807"><time>2024-03-23T07:21:52.000Z</time><ele>333.6</ele></trkpt><trkpt lat="45.814526" lon="9.426796"><time>2024-03-23T07:21:53.000Z</time><ele>333.6</ele></trkpt><trkpt lat="45.814531" lon="9.42678"><time>2024-03-23T07:21:54.000Z</time><ele>333.8</ele></trkpt><trkpt lat="45.814533" lon="9.426767"><time>2024-03-23T07:21:55.000Z</time><ele>333.8</ele></trkpt><trkpt lat="45.814532" lon="9.426748"><time>2024-03-23T07:21:56.000Z</time><ele>333.8</ele></trkpt><trkpt lat="45.814533" lon="9.426729"><time>2024-03-23T07:21:57.000Z</time><ele>334</ele></trkpt><trkpt lat="45.814539" lon="9.426715"><time>2024-03-23T07:21:58.000Z</time><ele>334.2</ele></trkpt><trkpt lat="45.814544" lon="9.426699"><time>2024-03-23T07:21:59.000Z</time><ele>334.4</ele></trkpt><trkpt lat="45.814549" lon="9.42668"><time>2024-03-23T07:22:00.000Z</time><ele>334.6</ele></trkpt><trkpt lat="45.814555" lon="9.426673"><time>2024-03-23T07:22:01.000Z</time><ele>334.8</ele></trkpt><trkpt lat="45.814561" lon="9.426666"><time>2024-03-23T07:22:02.000Z</time><ele>335</ele></trkpt><trkpt lat="45.81457" lon="9.426658"><time>2024-03-23T07:22:03.000Z</time><ele>335.2</ele></trkpt><trkpt lat="45.814575" lon="9.42665"><time>2024-03-23T07:22:04.000Z</time><ele>335.4</ele></trkpt><trkpt lat="45.814578" lon="9.426631"><time>2024-03-23T07:22:05.000Z</time><ele>335.6</ele></trkpt><trkpt lat="45.814582" lon="9.426618"><time>2024-03-23T07:22:06.000Z</time><ele>335.6</ele></trkpt><trkpt lat="45.814582" lon="9.426604"><time>2024-03-23T07:22:07.000Z</time><ele>335.8</ele></trkpt><trkpt lat="45.814577" lon="9.42658"><time>2024-03-23T07:22:08.000Z</time><ele>336</ele></trkpt><trkpt lat="45.814577" lon="9.42656"><time>2024-03-23T07:22:09.000Z</time><ele>336.2</ele></trkpt><trkpt lat="45.814585" lon="9.426551"><time>2024-03-23T07:22:10.000Z</time><ele>336.2</ele></trkpt><trkpt lat="45.814592" lon="9.426543"><time>2024-03-23T07:22:11.000Z</time><ele>336.4</ele></trkpt><trkpt lat="45.814601" lon="9.426535"><time>2024-03-23T07:22:12.000Z</time><ele>336.6</ele></trkpt><trkpt lat="45.814607" lon="9.426526"><time>2024-03-23T07:22:13.000Z</time><ele>336.8</ele></trkpt><trkpt lat="45.81461" lon="9.426516"><time>2024-03-23T07:22:14.000Z</time><ele>337</ele></trkpt><trkpt lat="45.814611" lon="9.426503"><time>2024-03-23T07:22:15.000Z</time><ele>337.2</ele></trkpt><trkpt lat="45.814612" lon="9.426487"><time>2024-03-23T07:22:16.000Z</time><ele>337.4</ele></trkpt><trkpt lat="45.814616" lon="9.426477"><time>2024-03-23T07:22:17.000Z</time><ele>337.6</ele></trkpt><trkpt lat="45.81462" lon="9.42647"><time>2024-03-23T07:22:18.000Z</time><ele>337.6</ele></trkpt><trkpt lat="45.814623" lon="9.426462"><time>2024-03-23T07:22:19.000Z</time><ele>337.8</ele></trkpt><trkpt lat="45.814629" lon="9.426453"><time>2024-03-23T07:22:20.000Z</time><ele>338</ele></trkpt><trkpt lat="45.814634" lon="9.426442"><time>2024-03-23T07:22:21.000Z</time><ele>338.2</ele></trkpt><trkpt lat="45.814637" lon="9.426438"><time>2024-03-23T07:22:22.000Z</time><ele>338.4</ele></trkpt><trkpt lat="45.814644" lon="9.42644"><time>2024-03-23T07:22:23.000Z</time><ele>338.6</ele></trkpt><trkpt lat="45.814648" lon="9.426433"><time>2024-03-23T07:22:24.000Z</time><ele>338.8</ele></trkpt><trkpt lat="45.814649" lon="9.426423"><time>2024-03-23T07:22:25.000Z</time><ele>339</ele></trkpt><trkpt lat="45.81465" lon="9.42641"><time>2024-03-23T07:22:26.000Z</time><ele>339.2</ele></trkpt><trkpt lat="45.814654" lon="9.426396"><time>2024-03-23T07:22:27.000Z</time><ele>339.4</ele></trkpt><trkpt lat="45.814659" lon="9.42639"><time>2024-03-23T07:22:28.000Z</time><ele>339.6</ele></trkpt><trkpt lat="45.814667" lon="9.426386"><time>2024-03-23T07:22:29.000Z</time><ele>339.8</ele></trkpt><trkpt lat="45.81467" lon="9.426382"><time>2024-03-23T07:22:30.000Z</time><ele>339.8</ele></trkpt><trkpt lat="45.814674" lon="9.426381"><time>2024-03-23T07:22:31.000Z</time><ele>340</ele></trkpt><trkpt lat="45.814675" lon="9.426377"><time>2024-03-23T07:22:32.000Z</time><ele>340.2</ele></trkpt><trkpt lat="45.814676" lon="9.426373"><time>2024-03-23T07:22:33.000Z</time><ele>340.4</ele></trkpt><trkpt lat="45.814675" lon="9.426367"><time>2024-03-23T07:22:34.000Z</time><ele>340.6</ele></trkpt><trkpt lat="45.814672" lon="9.42636"><time>2024-03-23T07:22:35.000Z</time><ele>340.8</ele></trkpt><trkpt lat="45.814674" lon="9.426348"><time>2024-03-23T07:22:36.000Z</time><ele>341</ele></trkpt><trkpt lat="45.814676" lon="9.426335"><time>2024-03-23T07:22:37.000Z</time><ele>341.2</ele></trkpt><trkpt lat="45.814671" lon="9.426319"><time>2024-03-23T07:22:38.000Z</time><ele>341.2</ele></trkpt><trkpt lat="45.814665" lon="9.426303"><time>2024-03-23T07:22:39.000Z</time><ele>341.4</ele></trkpt><trkpt lat="45.814663" lon="9.426293"><time>2024-03-23T07:22:40.000Z</time><ele>341.6</ele></trkpt><trkpt lat="45.814668" lon="9.426286"><time>2024-03-23T07:22:41.000Z</time><ele>342</ele></trkpt><trkpt lat="45.814674" lon="9.426283"><time>2024-03-23T07:22:42.000Z</time><ele>342.2</ele></trkpt><trkpt lat="45.814678" lon="9.426278"><time>2024-03-23T07:22:43.000Z</time><ele>342.4</ele></trkpt><trkpt lat="45.814681" lon="9.426267"><time>2024-03-23T07:22:44.000Z</time><ele>342.6</ele></trkpt><trkpt lat="45.814682" lon="9.42626"><time>2024-03-23T07:22:45.000Z</time><ele>342.6</ele></trkpt><trkpt lat="45.814681" lon="9.426252"><time>2024-03-23T07:22:46.000Z</time><ele>343</ele></trkpt><trkpt lat="45.81468" lon="9.426243"><time>2024-03-23T07:22:47.000Z</time><ele>343</ele></trkpt><trkpt lat="45.814679" lon="9.426233"><time>2024-03-23T07:22:48.000Z</time><ele>343.2</ele></trkpt><trkpt lat="45.814681" lon="9.426225"><time>2024-03-23T07:22:49.000Z</time><ele>343.4</ele></trkpt><trkpt lat="45.814681" lon="9.426208"><time>2024-03-23T07:22:50.000Z</time><ele>343.6</ele></trkpt><trkpt lat="45.814679" lon="9.426186"><time>2024-03-23T07:22:51.000Z</time><ele>343.8</ele></trkpt><trkpt lat="45.814676" lon="9.426164"><time>2024-03-23T07:22:52.000Z</time><ele>344</ele></trkpt><trkpt lat="45.814679" lon="9.426153"><time>2024-03-23T07:22:53.000Z</time><ele>344.2</ele></trkpt><trkpt lat="45.814685" lon="9.42615"><time>2024-03-23T07:22:54.000Z</time><ele>344.2</ele></trkpt><trkpt lat="45.814692" lon="9.426151"><time>2024-03-23T07:22:55.000Z</time><ele>344.4</ele></trkpt><trkpt lat="45.814695" lon="9.426141"><time>2024-03-23T07:22:56.000Z</time><ele>344.6</ele></trkpt><trkpt lat="45.814694" lon="9.42612"><time>2024-03-23T07:22:57.000Z</time><ele>344.8</ele></trkpt><trkpt lat="45.814698" lon="9.426112"><time>2024-03-23T07:22:58.000Z</time><ele>345</ele></trkpt><trkpt lat="45.814702" lon="9.426096"><time>2024-03-23T07:22:59.000Z</time><ele>345.2</ele></trkpt><trkpt lat="45.814705" lon="9.426089"><time>2024-03-23T07:23:00.000Z</time><ele>345.4</ele></trkpt><trkpt lat="45.814711" lon="9.426088"><time>2024-03-23T07:23:01.000Z</time><ele>345.6</ele></trkpt><trkpt lat="45.814712" lon="9.426086"><time>2024-03-23T07:23:02.000Z</time><ele>345.8</ele></trkpt><trkpt lat="45.814713" lon="9.426076"><time>2024-03-23T07:23:03.000Z</time><ele>346</ele></trkpt><trkpt lat="45.814714" lon="9.426062"><time>2024-03-23T07:23:04.000Z</time><ele>346</ele></trkpt><trkpt lat="45.814719" lon="9.426057"><time>2024-03-23T07:23:05.000Z</time><ele>346.2</ele></trkpt><trkpt lat="45.814721" lon="9.426058"><time>2024-03-23T07:23:06.000Z</time><ele>346.4</ele></trkpt><trkpt lat="45.81472" lon="9.426056"><time>2024-03-23T07:23:07.000Z</time><ele>346.6</ele></trkpt><trkpt lat="45.814722" lon="9.426048"><time>2024-03-23T07:23:08.000Z</time><ele>346.6</ele></trkpt><trkpt lat="45.814724" lon="9.426038"><time>2024-03-23T07:23:09.000Z</time><ele>346.8</ele></trkpt><trkpt lat="45.814722" lon="9.426031"><time>2024-03-23T07:23:10.000Z</time><ele>347</ele></trkpt><trkpt lat="45.81473" lon="9.426022"><time>2024-03-23T07:23:11.000Z</time><ele>347.2</ele></trkpt><trkpt lat="45.814733" lon="9.426019"><time>2024-03-23T07:23:12.000Z</time><ele>347.4</ele></trkpt><trkpt lat="45.814738" lon="9.426012"><time>2024-03-23T07:23:13.000Z</time><ele>347.6</ele></trkpt><trkpt lat="45.814738" lon="9.426006"><time>2024-03-23T07:23:14.000Z</time><ele>347.6</ele></trkpt><trkpt lat="45.814739" lon="9.425997"><time>2024-03-23T07:23:15.000Z</time><ele>347.8</ele></trkpt><trkpt lat="45.814737" lon="9.425995"><time>2024-03-23T07:23:16.000Z</time><ele>347.8</ele></trkpt><trkpt lat="45.814735" lon="9.425984"><time>2024-03-23T07:23:17.000Z</time><ele>348</ele></trkpt><trkpt lat="45.81473" lon="9.425979"><time>2024-03-23T07:23:18.000Z</time><ele>348</ele></trkpt><trkpt lat="45.814735" lon="9.425983"><time>2024-03-23T07:23:19.000Z</time><ele>348</ele></trkpt><trkpt lat="45.814737" lon="9.425988"><time>2024-03-23T07:23:20.000Z</time><ele>348</ele></trkpt><trkpt lat="45.814739" lon="9.42599"><time>2024-03-23T07:23:21.000Z</time><ele>348</ele></trkpt><trkpt lat="45.814741" lon="9.42599"><time>2024-03-23T07:23:22.000Z</time><ele>348.2</ele></trkpt><trkpt lat="45.814742" lon="9.425991"><time>2024-03-23T07:23:23.000Z</time><ele>348.2</ele></trkpt><trkpt lat="45.814742" lon="9.425991"><time>2024-03-23T07:23:24.000Z</time><ele>348.2</ele></trkpt><trkpt lat="45.814742" lon="9.425992"><time>2024-03-23T07:23:25.000Z</time><ele>348.4</ele></trkpt><trkpt lat="45.814743" lon="9.425996"><time>2024-03-23T07:23:26.000Z</time><ele>348.4</ele></trkpt><trkpt lat="45.814748" lon="9.425995"><time>2024-03-23T07:23:27.000Z</time><ele>348.6</ele></trkpt><trkpt lat="45.81475" lon="9.425994"><time>2024-03-23T07:23:28.000Z</time><ele>348.6</ele></trkpt><trkpt lat="45.814751" lon="9.425993"><time>2024-03-23T07:23:29.000Z</time><ele>348.6</ele></trkpt><trkpt lat="45.814755" lon="9.42598"><time>2024-03-23T07:23:30.000Z</time><ele>348.8</ele></trkpt><trkpt lat="45.814756" lon="9.425985"><time>2024-03-23T07:23:31.000Z</time><ele>348.8</ele></trkpt><trkpt lat="45.814757" lon="9.425985"><time>2024-03-23T07:23:32.000Z</time><ele>348.6</ele></trkpt><trkpt lat="45.814754" lon="9.425983"><time>2024-03-23T07:23:33.000Z</time><ele>348.4</ele></trkpt><trkpt lat="45.814755" lon="9.425982"><time>2024-03-23T07:23:34.000Z</time><ele>348.4</ele></trkpt><trkpt lat="45.814756" lon="9.425976"><time>2024-03-23T07:23:35.000Z</time><ele>348.4</ele></trkpt><trkpt lat="45.814761" lon="9.425969"><time>2024-03-23T07:23:36.000Z</time><ele>348.6</ele></trkpt><trkpt lat="45.814774" lon="9.425967"><time>2024-03-23T07:23:37.000Z</time><ele>348.6</ele></trkpt><trkpt lat="45.814781" lon="9.42596"><time>2024-03-23T07:23:38.000Z</time><ele>349</ele></trkpt><trkpt lat="45.814799" lon="9.425954"><time>2024-03-23T07:23:39.000Z</time><ele>349.2</ele></trkpt><trkpt lat="45.814819" lon="9.42595"><time>2024-03-23T07:23:40.000Z</time><ele>349.4</ele></trkpt><trkpt lat="45.81483" lon="9.425946"><time>2024-03-23T07:23:41.000Z</time><ele>349.6</ele></trkpt><trkpt lat="45.81484" lon="9.425944"><time>2024-03-23T07:23:42.000Z</time><ele>349.6</ele></trkpt><trkpt lat="45.814845" lon="9.425939"><time>2024-03-23T07:23:43.000Z</time><ele>349.8</ele></trkpt><trkpt lat="45.814855" lon="9.425923"><time>2024-03-23T07:23:44.000Z</time><ele>350</ele></trkpt><trkpt lat="45.814848" lon="9.425905"><time>2024-03-23T07:23:45.000Z</time><ele>350</ele></trkpt><trkpt lat="45.814835" lon="9.425883"><time>2024-03-23T07:23:46.000Z</time><ele>350.2</ele></trkpt><trkpt lat="45.814824" lon="9.425873"><time>2024-03-23T07:23:47.000Z</time><ele>350.4</ele></trkpt><trkpt lat="45.814815" lon="9.425856"><time>2024-03-23T07:23:48.000Z</time><ele>350.6</ele></trkpt><trkpt lat="45.814815" lon="9.425849"><time>2024-03-23T07:23:49.000Z</time><ele>350.6</ele></trkpt><trkpt lat="45.814812" lon="9.42585"><time>2024-03-23T07:23:50.000Z</time><ele>350.8</ele></trkpt><trkpt lat="45.814808" lon="9.425851"><time>2024-03-23T07:23:51.000Z</time><ele>351</ele></trkpt><trkpt lat="45.814813" lon="9.425849"><time>2024-03-23T07:23:52.000Z</time><ele>351.2</ele></trkpt><trkpt lat="45.814819" lon="9.425852"><time>2024-03-23T07:23:53.000Z</time><ele>351.2</ele></trkpt><trkpt lat="45.814827" lon="9.425849"><time>2024-03-23T07:23:54.000Z</time><ele>351.4</ele></trkpt><trkpt lat="45.814833" lon="9.42584"><time>2024-03-23T07:23:55.000Z</time><ele>351.6</ele></trkpt><trkpt lat="45.814839" lon="9.425829"><time>2024-03-23T07:23:56.000Z</time><ele>351.8</ele></trkpt><trkpt lat="45.814848" lon="9.425822"><time>2024-03-23T07:23:57.000Z</time><ele>351.8</ele></trkpt><trkpt lat="45.814857" lon="9.425821"><time>2024-03-23T07:23:58.000Z</time><ele>352</ele></trkpt><trkpt lat="45.814872" lon="9.425816"><time>2024-03-23T07:23:59.000Z</time><ele>352.2</ele></trkpt><trkpt lat="45.814875" lon="9.425811"><time>2024-03-23T07:24:00.000Z</time><ele>352.2</ele></trkpt><trkpt lat="45.814875" lon="9.425806"><time>2024-03-23T07:24:01.000Z</time><ele>352.4</ele></trkpt><trkpt lat="45.814873" lon="9.425801"><time>2024-03-23T07:24:02.000Z</time><ele>352.4</ele></trkpt><trkpt lat="45.814883" lon="9.425797"><time>2024-03-23T07:24:03.000Z</time><ele>352.4</ele></trkpt><trkpt lat="45.814892" lon="9.425794"><time>2024-03-23T07:24:04.000Z</time><ele>352.6</ele></trkpt><trkpt lat="45.814907" lon="9.425791"><time>2024-03-23T07:24:05.000Z</time><ele>352.6</ele></trkpt><trkpt lat="45.814913" lon="9.425789"><time>2024-03-23T07:24:06.000Z</time><ele>352.6</ele></trkpt><trkpt lat="45.814914" lon="9.425791"><time>2024-03-23T07:24:07.000Z</time><ele>352.8</ele></trkpt><trkpt lat="45.814914" lon="9.425792"><time>2024-03-23T07:24:08.000Z</time><ele>353</ele></trkpt><trkpt lat="45.814916" lon="9.425794"><time>2024-03-23T07:24:09.000Z</time><ele>353.4</ele></trkpt><trkpt lat="45.814917" lon="9.425794"><time>2024-03-23T07:24:10.000Z</time><ele>353.6</ele></trkpt><trkpt lat="45.814921" lon="9.425795"><time>2024-03-23T07:24:11.000Z</time><ele>353.8</ele></trkpt><trkpt lat="45.814924" lon="9.425794"><time>2024-03-23T07:24:12.000Z</time><ele>354.2</ele></trkpt><trkpt lat="45.814928" lon="9.425792"><time>2024-03-23T07:24:13.000Z</time><ele>354.4</ele></trkpt><trkpt lat="45.814929" lon="9.425786"><time>2024-03-23T07:24:14.000Z</time><ele>354.6</ele></trkpt><trkpt lat="45.814928" lon="9.425786"><time>2024-03-23T07:24:15.000Z</time><ele>354.8</ele></trkpt><trkpt lat="45.81493" lon="9.425795"><time>2024-03-23T07:24:16.000Z</time><ele>355</ele></trkpt><trkpt lat="45.814931" lon="9.425795"><time>2024-03-23T07:24:17.000Z</time><ele>355.4</ele></trkpt><trkpt lat="45.814937" lon="9.425798"><time>2024-03-23T07:24:18.000Z</time><ele>355.6</ele></trkpt><trkpt lat="45.814944" lon="9.4258"><time>2024-03-23T07:24:19.000Z</time><ele>355.8</ele></trkpt><trkpt lat="45.814946" lon="9.425797"><time>2024-03-23T07:24:20.000Z</time><ele>356</ele></trkpt><trkpt lat="45.814948" lon="9.425795"><time>2024-03-23T07:24:21.000Z</time><ele>356.2</ele></trkpt><trkpt lat="45.814959" lon="9.42579"><time>2024-03-23T07:24:22.000Z</time><ele>356.2</ele></trkpt><trkpt lat="45.814964" lon="9.425786"><time>2024-03-23T07:24:23.000Z</time><ele>356.6</ele></trkpt><trkpt lat="45.814965" lon="9.425784"><time>2024-03-23T07:24:24.000Z</time><ele>356.8</ele></trkpt><trkpt lat="45.814964" lon="9.425785"><time>2024-03-23T07:24:25.000Z</time><ele>357</ele></trkpt><trkpt lat="45.814964" lon="9.425785"><time>2024-03-23T07:24:26.000Z</time><ele>357</ele></trkpt><trkpt lat="45.814964" lon="9.425785"><time>2024-03-23T07:24:27.000Z</time><ele>357</ele></trkpt><trkpt lat="45.814964" lon="9.425785"><time>2024-03-23T07:24:28.000Z</time><ele>357.2</ele></trkpt><trkpt lat="45.814964" lon="9.425785"><time>2024-03-23T07:24:29.000Z</time><ele>357.2</ele></trkpt><trkpt lat="45.814964" lon="9.425785"><time>2024-03-23T07:24:30.000Z</time><ele>357.2</ele></trkpt><trkpt lat="45.814964" lon="9.425785"><time>2024-03-23T07:24:31.000Z</time><ele>357.2</ele></trkpt><trkpt lat="45.814964" lon="9.425785"><time>2024-03-23T07:24:32.000Z</time><ele>357.2</ele></trkpt><trkpt lat="45.814964" lon="9.425785"><time>2024-03-23T07:24:33.000Z</time><ele>357.2</ele></trkpt><trkpt lat="45.814964" lon="9.425785"><time>2024-03-23T07:24:34.000Z</time><ele>357.2</ele></trkpt><trkpt lat="45.814964" lon="9.425785"><time>2024-03-23T07:24:35.000Z</time><ele>357.2</ele></trkpt><trkpt lat="45.814964" lon="9.425785"><time>2024-03-23T07:24:36.000Z</time><ele>357.4</ele></trkpt><trkpt lat="45.814964" lon="9.425785"><time>2024-03-23T07:24:37.000Z</time><ele>357.4</ele></trkpt><trkpt lat="45.814964" lon="9.425785"><time>2024-03-23T07:24:38.000Z</time><ele>357.4</ele></trkpt><trkpt lat="45.814971" lon="9.425785"><time>2024-03-23T07:24:39.000Z</time><ele>357.4</ele></trkpt><trkpt lat="45.81498" lon="9.425786"><time>2024-03-23T07:24:40.000Z</time><ele>357.4</ele></trkpt><trkpt lat="45.814988" lon="9.425783"><time>2024-03-23T07:24:41.000Z</time><ele>357.4</ele></trkpt><trkpt lat="45.814996" lon="9.425777"><time>2024-03-23T07:24:42.000Z</time><ele>357.4</ele></trkpt><trkpt lat="45.815008" lon="9.425777"><time>2024-03-23T07:24:43.000Z</time><ele>357.6</ele></trkpt><trkpt lat="45.815012" lon="9.42577"><time>2024-03-23T07:24:44.000Z</time><ele>357.6</ele></trkpt><trkpt lat="45.815011" lon="9.425756"><time>2024-03-23T07:24:45.000Z</time><ele>357.6</ele></trkpt><trkpt lat="45.815008" lon="9.425739"><time>2024-03-23T07:24:46.000Z</time><ele>357.6</ele></trkpt><trkpt lat="45.815009" lon="9.425736"><time>2024-03-23T07:24:47.000Z</time><ele>357.6</ele></trkpt><trkpt lat="45.815012" lon="9.425734"><time>2024-03-23T07:24:48.000Z</time><ele>357.6</ele></trkpt><trkpt lat="45.815013" lon="9.425736"><time>2024-03-23T07:24:49.000Z</time><ele>357.6</ele></trkpt><trkpt lat="45.815012" lon="9.425737"><time>2024-03-23T07:24:50.000Z</time><ele>357.6</ele></trkpt><trkpt lat="45.815011" lon="9.425736"><time>2024-03-23T07:24:51.000Z</time><ele>357.6</ele></trkpt><trkpt lat="45.81501" lon="9.425736"><time>2024-03-23T07:24:52.000Z</time><ele>357.6</ele></trkpt><trkpt lat="45.81501" lon="9.425736"><time>2024-03-23T07:24:53.000Z</time><ele>357.6</ele></trkpt><trkpt lat="45.81501" lon="9.425736"><time>2024-03-23T07:24:54.000Z</time><ele>357.6</ele></trkpt><trkpt lat="45.81501" lon="9.425736"><time>2024-03-23T07:24:55.000Z</time><ele>357.6</ele></trkpt><trkpt lat="45.81501" lon="9.425736"><time>2024-03-23T07:24:56.000Z</time><ele>357.6</ele></trkpt><trkpt lat="45.81501" lon="9.425736"><time>2024-03-23T07:24:57.000Z</time><ele>357.4</ele></trkpt><trkpt lat="45.81501" lon="9.425736"><time>2024-03-23T07:24:58.000Z</time><ele>357.4</ele></trkpt><trkpt lat="45.81501" lon="9.425736"><time>2024-03-23T07:24:59.000Z</time><ele>357.4</ele></trkpt><trkpt lat="45.81501" lon="9.425736"><time>2024-03-23T07:25:00.000Z</time><ele>357.4</ele></trkpt><trkpt lat="45.81501" lon="9.425736"><time>2024-03-23T07:25:01.000Z</time><ele>357.4</ele></trkpt><trkpt lat="45.81501" lon="9.425736"><time>2024-03-23T07:25:02.000Z</time><ele>357.4</ele></trkpt><trkpt lat="45.815011" lon="9.425735"><time>2024-03-23T07:25:03.000Z</time><ele>357.2</ele></trkpt><trkpt lat="45.815009" lon="9.425738"><time>2024-03-23T07:25:04.000Z</time><ele>357.2</ele></trkpt><trkpt lat="45.815008" lon="9.425737"><time>2024-03-23T07:25:05.000Z</time><ele>357</ele></trkpt><trkpt lat="45.815005" lon="9.425734"><time>2024-03-23T07:25:06.000Z</time><ele>357</ele></trkpt><trkpt lat="45.815002" lon="9.425735"><time>2024-03-23T07:25:07.000Z</time><ele>357</ele></trkpt><trkpt lat="45.815" lon="9.425735"><time>2024-03-23T07:25:08.000Z</time><ele>357</ele></trkpt><trkpt lat="45.814999" lon="9.425738"><time>2024-03-23T07:25:09.000Z</time><ele>357</ele></trkpt><trkpt lat="45.814997" lon="9.425738"><time>2024-03-23T07:25:10.000Z</time><ele>357</ele></trkpt><trkpt lat="45.814998" lon="9.425739"><time>2024-03-23T07:25:11.000Z</time><ele>357</ele></trkpt><trkpt lat="45.814998" lon="9.425738"><time>2024-03-23T07:25:12.000Z</time><ele>357</ele></trkpt><trkpt lat="45.814997" lon="9.425737"><time>2024-03-23T07:25:13.000Z</time><ele>356.8</ele></trkpt><trkpt lat="45.814997" lon="9.425737"><time>2024-03-23T07:25:14.000Z</time><ele>356.8</ele></trkpt><trkpt lat="45.814997" lon="9.425737"><time>2024-03-23T07:25:15.000Z</time><ele>356.8</ele></trkpt><trkpt lat="45.814997" lon="9.425737"><time>2024-03-23T07:25:16.000Z</time><ele>356.8</ele></trkpt><trkpt lat="45.814997" lon="9.425737"><time>2024-03-23T07:25:17.000Z</time><ele>356.8</ele></trkpt><trkpt lat="45.814997" lon="9.425737"><time>2024-03-23T07:25:18.000Z</time><ele>357</ele></trkpt><trkpt lat="45.814997" lon="9.425737"><time>2024-03-23T07:25:19.000Z</time><ele>357</ele></trkpt><trkpt lat="45.815001" lon="9.425737"><time>2024-03-23T07:25:20.000Z</time><ele>357</ele></trkpt><trkpt lat="45.815013" lon="9.42573"><time>2024-03-23T07:25:21.000Z</time><ele>357</ele></trkpt><trkpt lat="45.815025" lon="9.425727"><time>2024-03-23T07:25:22.000Z</time><ele>357</ele></trkpt><trkpt lat="45.815037" lon="9.425729"><time>2024-03-23T07:25:23.000Z</time><ele>357</ele></trkpt><trkpt lat="45.815051" lon="9.425742"><time>2024-03-23T07:25:24.000Z</time><ele>357</ele></trkpt><trkpt lat="45.815062" lon="9.42575"><time>2024-03-23T07:25:25.000Z</time><ele>357.2</ele></trkpt><trkpt lat="45.815071" lon="9.425755"><time>2024-03-23T07:25:26.000Z</time><ele>357.2</ele></trkpt><trkpt lat="45.815078" lon="9.42576"><time>2024-03-23T07:25:27.000Z</time><ele>357.2</ele></trkpt><trkpt lat="45.815082" lon="9.425771"><time>2024-03-23T07:25:28.000Z</time><ele>357.2</ele></trkpt><trkpt lat="45.815087" lon="9.425781"><time>2024-03-23T07:25:29.000Z</time><ele>357.2</ele></trkpt><trkpt lat="45.81509" lon="9.425788"><time>2024-03-23T07:25:30.000Z</time><ele>357.2</ele></trkpt><trkpt lat="45.815093" lon="9.425793"><time>2024-03-23T07:25:31.000Z</time><ele>357.2</ele></trkpt><trkpt lat="45.815099" lon="9.425797"><time>2024-03-23T07:25:32.000Z</time><ele>357.4</ele></trkpt><trkpt lat="45.815106" lon="9.4258"><time>2024-03-23T07:25:33.000Z</time><ele>357.4</ele></trkpt><trkpt lat="45.815116" lon="9.425807"><time>2024-03-23T07:25:34.000Z</time><ele>357.4</ele></trkpt><trkpt lat="45.815125" lon="9.425816"><time>2024-03-23T07:25:35.000Z</time><ele>357.4</ele></trkpt><trkpt lat="45.815135" lon="9.425824"><time>2024-03-23T07:25:36.000Z</time><ele>357.4</ele></trkpt><trkpt lat="45.815138" lon="9.425835"><time>2024-03-23T07:25:37.000Z</time><ele>357.4</ele></trkpt><trkpt lat="45.815153" lon="9.425835"><time>2024-03-23T07:25:38.000Z</time><ele>357.4</ele></trkpt><trkpt lat="45.815183" lon="9.425828"><time>2024-03-23T07:25:39.000Z</time><ele>357.4</ele></trkpt><trkpt lat="45.815201" lon="9.425826"><time>2024-03-23T07:25:40.000Z</time><ele>357.4</ele></trkpt><trkpt lat="45.815222" lon="9.425815"><time>2024-03-23T07:25:41.000Z</time><ele>357.4</ele></trkpt><trkpt lat="45.815248" lon="9.425799"><time>2024-03-23T07:25:42.000Z</time><ele>357.4</ele></trkpt><trkpt lat="45.815236" lon="9.4258"><time>2024-03-23T07:25:43.000Z</time><ele>357.4</ele></trkpt><trkpt lat="45.815254" lon="9.425796"><time>2024-03-23T07:25:44.000Z</time><ele>357.4</ele></trkpt><trkpt lat="45.815276" lon="9.425803"><time>2024-03-23T07:25:45.000Z</time><ele>357.4</ele></trkpt><trkpt lat="45.815291" lon="9.42581"><time>2024-03-23T07:25:46.000Z</time><ele>357.4</ele></trkpt><trkpt lat="45.815295" lon="9.425809"><time>2024-03-23T07:25:47.000Z</time><ele>357.4</ele></trkpt><trkpt lat="45.815296" lon="9.425813"><time>2024-03-23T07:25:48.000Z</time><ele>357.4</ele></trkpt><trkpt lat="45.815295" lon="9.425814"><time>2024-03-23T07:25:49.000Z</time><ele>357.4</ele></trkpt><trkpt lat="45.815298" lon="9.42581"><time>2024-03-23T07:25:50.000Z</time><ele>357.4</ele></trkpt><trkpt lat="45.815302" lon="9.425806"><time>2024-03-23T07:25:51.000Z</time><ele>357.4</ele></trkpt><trkpt lat="45.815309" lon="9.4258"><time>2024-03-23T07:25:52.000Z</time><ele>357.4</ele></trkpt><trkpt lat="45.815322" lon="9.425799"><time>2024-03-23T07:25:53.000Z</time><ele>357.4</ele></trkpt><trkpt lat="45.815333" lon="9.425794"><time>2024-03-23T07:25:54.000Z</time><ele>357.4</ele></trkpt><trkpt lat="45.815341" lon="9.425791"><time>2024-03-23T07:25:55.000Z</time><ele>357.4</ele></trkpt><trkpt lat="45.815345" lon="9.42578"><time>2024-03-23T07:25:56.000Z</time><ele>357.4</ele></trkpt><trkpt lat="45.81535" lon="9.425771"><time>2024-03-23T07:25:57.000Z</time><ele>357.4</ele></trkpt><trkpt lat="45.815363" lon="9.425771"><time>2024-03-23T07:25:58.000Z</time><ele>357.4</ele></trkpt><trkpt lat="45.815376" lon="9.425765"><time>2024-03-23T07:25:59.000Z</time><ele>357.4</ele></trkpt><trkpt lat="45.81538" lon="9.425763"><time>2024-03-23T07:26:00.000Z</time><ele>357.4</ele></trkpt><trkpt lat="45.815384" lon="9.425759"><time>2024-03-23T07:26:01.000Z</time><ele>357.4</ele></trkpt><trkpt lat="45.815386" lon="9.42576"><time>2024-03-23T07:26:02.000Z</time><ele>357.4</ele></trkpt><trkpt lat="45.81539" lon="9.425759"><time>2024-03-23T07:26:03.000Z</time><ele>357.4</ele></trkpt><trkpt lat="45.815398" lon="9.425757"><time>2024-03-23T07:26:04.000Z</time><ele>357.4</ele></trkpt><trkpt lat="45.815403" lon="9.425755"><time>2024-03-23T07:26:05.000Z</time><ele>357.4</ele></trkpt><trkpt lat="45.815405" lon="9.425751"><time>2024-03-23T07:26:06.000Z</time><ele>357.4</ele></trkpt><trkpt lat="45.815407" lon="9.425749"><time>2024-03-23T07:26:07.000Z</time><ele>357.4</ele></trkpt><trkpt lat="45.815408" lon="9.425751"><time>2024-03-23T07:26:08.000Z</time><ele>357.4</ele></trkpt><trkpt lat="45.81541" lon="9.425754"><time>2024-03-23T07:26:09.000Z</time><ele>357.4</ele></trkpt><trkpt lat="45.815414" lon="9.425756"><time>2024-03-23T07:26:10.000Z</time><ele>357.4</ele></trkpt><trkpt lat="45.815418" lon="9.425761"><time>2024-03-23T07:26:11.000Z</time><ele>357.4</ele></trkpt><trkpt lat="45.81542" lon="9.425775"><time>2024-03-23T07:26:12.000Z</time><ele>357.4</ele></trkpt><trkpt lat="45.815421" lon="9.425776"><time>2024-03-23T07:26:13.000Z</time><ele>357.4</ele></trkpt><trkpt lat="45.815422" lon="9.425782"><time>2024-03-23T07:26:14.000Z</time><ele>357.4</ele></trkpt><trkpt lat="45.815425" lon="9.425783"><time>2024-03-23T07:26:15.000Z</time><ele>357.4</ele></trkpt><trkpt lat="45.815429" lon="9.425788"><time>2024-03-23T07:26:16.000Z</time><ele>357.4</ele></trkpt><trkpt lat="45.815434" lon="9.425796"><time>2024-03-23T07:26:17.000Z</time><ele>357.4</ele></trkpt><trkpt lat="45.815439" lon="9.4258"><time>2024-03-23T07:26:18.000Z</time><ele>357.4</ele></trkpt><trkpt lat="45.815444" lon="9.425801"><time>2024-03-23T07:26:19.000Z</time><ele>357.4</ele></trkpt><trkpt lat="45.815451" lon="9.425799"><time>2024-03-23T07:26:20.000Z</time><ele>357.4</ele></trkpt><trkpt lat="45.815456" lon="9.425801"><time>2024-03-23T07:26:21.000Z</time><ele>357.4</ele></trkpt><trkpt lat="45.815462" lon="9.425803"><time>2024-03-23T07:26:22.000Z</time><ele>357.4</ele></trkpt><trkpt lat="45.815467" lon="9.425802"><time>2024-03-23T07:26:23.000Z</time><ele>361.8</ele></trkpt><trkpt lat="45.815469" lon="9.425804"><time>2024-03-23T07:26:24.000Z</time><ele>364.2</ele></trkpt><trkpt lat="45.815473" lon="9.425794"><time>2024-03-23T07:26:25.000Z</time><ele>365.4</ele></trkpt><trkpt lat="45.815472" lon="9.425796"><time>2024-03-23T07:26:26.000Z</time><ele>366.2</ele></trkpt><trkpt lat="45.815472" lon="9.425799"><time>2024-03-23T07:26:27.000Z</time><ele>366.6</ele></trkpt><trkpt lat="45.815473" lon="9.425806"><time>2024-03-23T07:26:28.000Z</time><ele>367</ele></trkpt><trkpt lat="45.815476" lon="9.425806"><time>2024-03-23T07:26:29.000Z</time><ele>367</ele></trkpt><trkpt lat="45.815477" lon="9.425813"><time>2024-03-23T07:26:30.000Z</time><ele>367</ele></trkpt><trkpt lat="45.815472" lon="9.425827"><time>2024-03-23T07:26:31.000Z</time><ele>367.2</ele></trkpt><trkpt lat="45.815468" lon="9.425841"><time>2024-03-23T07:26:32.000Z</time><ele>367.2</ele></trkpt><trkpt lat="45.815463" lon="9.425858"><time>2024-03-23T07:26:33.000Z</time><ele>367.2</ele></trkpt><trkpt lat="45.815458" lon="9.425875"><time>2024-03-23T07:26:34.000Z</time><ele>367.2</ele></trkpt><trkpt lat="45.815454" lon="9.425888"><time>2024-03-23T07:26:35.000Z</time><ele>367.2</ele></trkpt><trkpt lat="45.815451" lon="9.425903"><time>2024-03-23T07:26:36.000Z</time><ele>367.2</ele></trkpt><trkpt lat="45.815446" lon="9.425925"><time>2024-03-23T07:26:37.000Z</time><ele>367.2</ele></trkpt><trkpt lat="45.815441" lon="9.425947"><time>2024-03-23T07:26:38.000Z</time><ele>367.2</ele></trkpt><trkpt lat="45.815441" lon="9.42595"><time>2024-03-23T07:26:39.000Z</time><ele>367.2</ele></trkpt><trkpt lat="45.815438" lon="9.425991"><time>2024-03-23T07:26:41.000Z</time><ele>367.2</ele></trkpt><trkpt lat="45.815432" lon="9.42603"><time>2024-03-23T07:26:42.000Z</time><ele>367.2</ele></trkpt><trkpt lat="45.815418" lon="9.426079"><time>2024-03-23T07:26:43.000Z</time><ele>367.2</ele></trkpt><trkpt lat="45.815421" lon="9.426069"><time>2024-03-23T07:26:44.000Z</time><ele>367.4</ele></trkpt><trkpt lat="45.815421" lon="9.426064"><time>2024-03-23T07:26:45.000Z</time><ele>367.4</ele></trkpt><trkpt lat="45.815446" lon="9.425979"><time>2024-03-23T07:26:46.000Z</time><ele>367.4</ele></trkpt><trkpt lat="45.815449" lon="9.425974"><time>2024-03-23T07:26:47.000Z</time><ele>367.4</ele></trkpt><trkpt lat="45.815451" lon="9.425968"><time>2024-03-23T07:26:48.000Z</time><ele>367.4</ele></trkpt><trkpt lat="45.815459" lon="9.42595"><time>2024-03-23T07:26:49.000Z</time><ele>367.4</ele></trkpt><trkpt lat="45.815462" lon="9.425936"><time>2024-03-23T07:26:50.000Z</time><ele>367.4</ele></trkpt><trkpt lat="45.815471" lon="9.425894"><time>2024-03-23T07:26:53.000Z</time><ele>367.4</ele></trkpt><trkpt lat="45.81547" lon="9.4259"><time>2024-03-23T07:26:54.000Z</time><ele>367.4</ele></trkpt><trkpt lat="45.815476" lon="9.425883"><time>2024-03-23T07:26:55.000Z</time><ele>367.4</ele></trkpt><trkpt lat="45.815483" lon="9.425871"><time>2024-03-23T07:26:56.000Z</time><ele>367.4</ele></trkpt><trkpt lat="45.815495" lon="9.425853"><time>2024-03-23T07:26:57.000Z</time><ele>367.4</ele></trkpt><trkpt lat="45.815508" lon="9.42584"><time>2024-03-23T07:26:58.000Z</time><ele>367.4</ele></trkpt><trkpt lat="45.815517" lon="9.42583"><time>2024-03-23T07:26:59.000Z</time><ele>367.6</ele></trkpt><trkpt lat="45.815523" lon="9.425832"><time>2024-03-23T07:27:00.000Z</time><ele>367.6</ele></trkpt><trkpt lat="45.81553" lon="9.425839"><time>2024-03-23T07:27:01.000Z</time><ele>367.6</ele></trkpt><trkpt lat="45.815526" lon="9.425836"><time>2024-03-23T07:27:02.000Z</time><ele>367.8</ele></trkpt><trkpt lat="45.815531" lon="9.425834"><time>2024-03-23T07:27:03.000Z</time><ele>368</ele></trkpt><trkpt lat="45.81553" lon="9.425836"><time>2024-03-23T07:27:04.000Z</time><ele>368</ele></trkpt><trkpt lat="45.815529" lon="9.42584"><time>2024-03-23T07:27:05.000Z</time><ele>368.2</ele></trkpt><trkpt lat="45.815527" lon="9.425837"><time>2024-03-23T07:27:06.000Z</time><ele>368.4</ele></trkpt><trkpt lat="45.815527" lon="9.425836"><time>2024-03-23T07:27:07.000Z</time><ele>368.4</ele></trkpt><trkpt lat="45.815528" lon="9.425828"><time>2024-03-23T07:27:08.000Z</time><ele>368.6</ele></trkpt><trkpt lat="45.815529" lon="9.425824"><time>2024-03-23T07:27:09.000Z</time><ele>368.6</ele></trkpt><trkpt lat="45.81553" lon="9.425822"><time>2024-03-23T07:27:10.000Z</time><ele>368.8</ele></trkpt><trkpt lat="45.815531" lon="9.425821"><time>2024-03-23T07:27:11.000Z</time><ele>368.8</ele></trkpt><trkpt lat="45.815532" lon="9.42582"><time>2024-03-23T07:27:12.000Z</time><ele>369</ele></trkpt><trkpt lat="45.815533" lon="9.425821"><time>2024-03-23T07:27:13.000Z</time><ele>369</ele></trkpt><trkpt lat="45.815533" lon="9.425821"><time>2024-03-23T07:27:14.000Z</time><ele>369.2</ele></trkpt><trkpt lat="45.815533" lon="9.425821"><time>2024-03-23T07:27:15.000Z</time><ele>369.2</ele></trkpt><trkpt lat="45.815533" lon="9.425821"><time>2024-03-23T07:27:16.000Z</time><ele>369.2</ele></trkpt><trkpt lat="45.815532" lon="9.42582"><time>2024-03-23T07:27:17.000Z</time><ele>369.4</ele></trkpt><trkpt lat="45.815531" lon="9.42582"><time>2024-03-23T07:27:18.000Z</time><ele>369.4</ele></trkpt><trkpt lat="45.815527" lon="9.425816"><time>2024-03-23T07:27:19.000Z</time><ele>369</ele></trkpt><trkpt lat="45.815534" lon="9.425814"><time>2024-03-23T07:27:21.000Z</time><ele>368.6</ele></trkpt><trkpt lat="45.815545" lon="9.42582"><time>2024-03-23T07:27:22.000Z</time><ele>368.6</ele></trkpt><trkpt lat="45.815551" lon="9.425825"><time>2024-03-23T07:27:23.000Z</time><ele>368.6</ele></trkpt><trkpt lat="45.815557" lon="9.425831"><time>2024-03-23T07:27:24.000Z</time><ele>368.6</ele></trkpt><trkpt lat="45.81556" lon="9.425832"><time>2024-03-23T07:27:25.000Z</time><ele>368.6</ele></trkpt><trkpt lat="45.815563" lon="9.425838"><time>2024-03-23T07:27:26.000Z</time><ele>368.6</ele></trkpt><trkpt lat="45.815566" lon="9.425842"><time>2024-03-23T07:27:27.000Z</time><ele>368.8</ele></trkpt><trkpt lat="45.81557" lon="9.425841"><time>2024-03-23T07:27:28.000Z</time><ele>368.8</ele></trkpt><trkpt lat="45.815573" lon="9.42584"><time>2024-03-23T07:27:29.000Z</time><ele>368.8</ele></trkpt><trkpt lat="45.815574" lon="9.425837"><time>2024-03-23T07:27:30.000Z</time><ele>368.8</ele></trkpt><trkpt lat="45.815573" lon="9.425837"><time>2024-03-23T07:27:31.000Z</time><ele>368.8</ele></trkpt><trkpt lat="45.815572" lon="9.425834"><time>2024-03-23T07:27:32.000Z</time><ele>368.8</ele></trkpt><trkpt lat="45.815574" lon="9.425827"><time>2024-03-23T07:27:33.000Z</time><ele>368.8</ele></trkpt><trkpt lat="45.815576" lon="9.425815"><time>2024-03-23T07:27:34.000Z</time><ele>368.8</ele></trkpt><trkpt lat="45.815575" lon="9.425813"><time>2024-03-23T07:27:35.000Z</time><ele>368.8</ele></trkpt><trkpt lat="45.815574" lon="9.425812"><time>2024-03-23T07:27:36.000Z</time><ele>368.6</ele></trkpt><trkpt lat="45.815576" lon="9.425812"><time>2024-03-23T07:27:37.000Z</time><ele>368.6</ele></trkpt><trkpt lat="45.815574" lon="9.425811"><time>2024-03-23T07:27:38.000Z</time><ele>368.6</ele></trkpt><trkpt lat="45.815574" lon="9.425811"><time>2024-03-23T07:27:39.000Z</time><ele>368.4</ele></trkpt><trkpt lat="45.815574" lon="9.425811"><time>2024-03-23T07:27:40.000Z</time><ele>368.4</ele></trkpt><trkpt lat="45.815574" lon="9.425811"><time>2024-03-23T07:27:41.000Z</time><ele>368.4</ele></trkpt><trkpt lat="45.815574" lon="9.425811"><time>2024-03-23T07:27:42.000Z</time><ele>368.4</ele></trkpt><trkpt lat="45.815574" lon="9.425811"><time>2024-03-23T07:27:43.000Z</time><ele>368.4</ele></trkpt><trkpt lat="45.815574" lon="9.425811"><time>2024-03-23T07:27:44.000Z</time><ele>368.6</ele></trkpt><trkpt lat="45.815574" lon="9.425811"><time>2024-03-23T07:27:45.000Z</time><ele>368.6</ele></trkpt><trkpt lat="45.815574" lon="9.425811"><time>2024-03-23T07:27:46.000Z</time><ele>368.6</ele></trkpt><trkpt lat="45.815574" lon="9.425811"><time>2024-03-23T07:27:47.000Z</time><ele>368.6</ele></trkpt><trkpt lat="45.815574" lon="9.425808"><time>2024-03-23T07:27:48.000Z</time><ele>368.6</ele></trkpt><trkpt lat="45.815576" lon="9.425803"><time>2024-03-23T07:27:49.000Z</time><ele>368.6</ele></trkpt><trkpt lat="45.815576" lon="9.425796"><time>2024-03-23T07:27:50.000Z</time><ele>368.6</ele></trkpt><trkpt lat="45.815577" lon="9.425793"><time>2024-03-23T07:27:51.000Z</time><ele>368.6</ele></trkpt><trkpt lat="45.815578" lon="9.425791"><time>2024-03-23T07:27:52.000Z</time><ele>368.6</ele></trkpt><trkpt lat="45.815581" lon="9.425786"><time>2024-03-23T07:27:53.000Z</time><ele>368.6</ele></trkpt><trkpt lat="45.815582" lon="9.425782"><time>2024-03-23T07:27:54.000Z</time><ele>368.6</ele></trkpt><trkpt lat="45.815583" lon="9.425777"><time>2024-03-23T07:27:55.000Z</time><ele>368.6</ele></trkpt><trkpt lat="45.815583" lon="9.425775"><time>2024-03-23T07:27:56.000Z</time><ele>368.6</ele></trkpt><trkpt lat="45.815583" lon="9.425775"><time>2024-03-23T07:27:57.000Z</time><ele>368.6</ele></trkpt><trkpt lat="45.815583" lon="9.425775"><time>2024-03-23T07:27:58.000Z</time><ele>368.6</ele></trkpt><trkpt lat="45.815583" lon="9.425775"><time>2024-03-23T07:27:59.000Z</time><ele>368.6</ele></trkpt><trkpt lat="45.815583" lon="9.425775"><time>2024-03-23T07:28:00.000Z</time><ele>368.4</ele></trkpt><trkpt lat="45.815583" lon="9.425775"><time>2024-03-23T07:28:01.000Z</time><ele>368.4</ele></trkpt><trkpt lat="45.815583" lon="9.425775"><time>2024-03-23T07:28:02.000Z</time><ele>368.4</ele></trkpt><trkpt lat="45.815583" lon="9.425775"><time>2024-03-23T07:28:03.000Z</time><ele>368.4</ele></trkpt><trkpt lat="45.815583" lon="9.425775"><time>2024-03-23T07:28:04.000Z</time><ele>368.4</ele></trkpt><trkpt lat="45.815583" lon="9.425775"><time>2024-03-23T07:28:05.000Z</time><ele>368.4</ele></trkpt><trkpt lat="45.815583" lon="9.425775"><time>2024-03-23T07:28:06.000Z</time><ele>368.4</ele></trkpt><trkpt lat="45.815583" lon="9.425775"><time>2024-03-23T07:28:07.000Z</time><ele>368.4</ele></trkpt><trkpt lat="45.815583" lon="9.425775"><time>2024-03-23T07:28:08.000Z</time><ele>368.4</ele></trkpt><trkpt lat="45.815583" lon="9.425774"><time>2024-03-23T07:28:09.000Z</time><ele>368.4</ele></trkpt><trkpt lat="45.815583" lon="9.425772"><time>2024-03-23T07:28:10.000Z</time><ele>368.4</ele></trkpt><trkpt lat="45.815583" lon="9.425772"><time>2024-03-23T07:28:11.000Z</time><ele>368.4</ele></trkpt><trkpt lat="45.815583" lon="9.425771"><time>2024-03-23T07:28:12.000Z</time><ele>368.4</ele></trkpt><trkpt lat="45.815583" lon="9.42577"><time>2024-03-23T07:28:13.000Z</time><ele>368.4</ele></trkpt><trkpt lat="45.815585" lon="9.42577"><time>2024-03-23T07:28:14.000Z</time><ele>368.4</ele></trkpt><trkpt lat="45.815591" lon="9.42577"><time>2024-03-23T07:28:15.000Z</time><ele>368.4</ele></trkpt><trkpt lat="45.815595" lon="9.42577"><time>2024-03-23T07:28:16.000Z</time><ele>368.4</ele></trkpt><trkpt lat="45.815597" lon="9.425769"><time>2024-03-23T07:28:17.000Z</time><ele>368.4</ele></trkpt><trkpt lat="45.815597" lon="9.425769"><time>2024-03-23T07:28:18.000Z</time><ele>368.4</ele></trkpt><trkpt lat="45.815595" lon="9.42577"><time>2024-03-23T07:28:19.000Z</time><ele>368.4</ele></trkpt><trkpt lat="45.815601" lon="9.425781"><time>2024-03-23T07:28:20.000Z</time><ele>368.6</ele></trkpt><trkpt lat="45.815605" lon="9.42579"><time>2024-03-23T07:28:21.000Z</time><ele>368.8</ele></trkpt><trkpt lat="45.81561" lon="9.425799"><time>2024-03-23T07:28:22.000Z</time><ele>368.8</ele></trkpt><trkpt lat="45.815617" lon="9.425804"><time>2024-03-23T07:28:23.000Z</time><ele>369</ele></trkpt><trkpt lat="45.815623" lon="9.425813"><time>2024-03-23T07:28:24.000Z</time><ele>369.2</ele></trkpt><trkpt lat="45.815631" lon="9.425819"><time>2024-03-23T07:28:25.000Z</time><ele>369.4</ele></trkpt><trkpt lat="45.81564" lon="9.425823"><time>2024-03-23T07:28:26.000Z</time><ele>369.6</ele></trkpt><trkpt lat="45.815652" lon="9.425826"><time>2024-03-23T07:28:27.000Z</time><ele>369.8</ele></trkpt><trkpt lat="45.815665" lon="9.425828"><time>2024-03-23T07:28:28.000Z</time><ele>369.8</ele></trkpt><trkpt lat="45.815675" lon="9.425838"><time>2024-03-23T07:28:29.000Z</time><ele>370</ele></trkpt><trkpt lat="45.815683" lon="9.425851"><time>2024-03-23T07:28:30.000Z</time><ele>370.2</ele></trkpt><trkpt lat="45.815688" lon="9.425862"><time>2024-03-23T07:28:31.000Z</time><ele>370.2</ele></trkpt><trkpt lat="45.815686" lon="9.425872"><time>2024-03-23T07:28:32.000Z</time><ele>370.2</ele></trkpt><trkpt lat="45.815684" lon="9.425883"><time>2024-03-23T07:28:33.000Z</time><ele>370.4</ele></trkpt><trkpt lat="45.81569" lon="9.42589"><time>2024-03-23T07:28:34.000Z</time><ele>370.4</ele></trkpt><trkpt lat="45.8157" lon="9.425902"><time>2024-03-23T07:28:35.000Z</time><ele>370.6</ele></trkpt><trkpt lat="45.815708" lon="9.425912"><time>2024-03-23T07:28:36.000Z</time><ele>370.8</ele></trkpt><trkpt lat="45.81572" lon="9.425923"><time>2024-03-23T07:28:37.000Z</time><ele>371</ele></trkpt><trkpt lat="45.815727" lon="9.425936"><time>2024-03-23T07:28:38.000Z</time><ele>371.2</ele></trkpt><trkpt lat="45.815727" lon="9.425958"><time>2024-03-23T07:28:39.000Z</time><ele>371.4</ele></trkpt><trkpt lat="45.815734" lon="9.425973"><time>2024-03-23T07:28:40.000Z</time><ele>371.6</ele></trkpt><trkpt lat="45.815742" lon="9.425984"><time>2024-03-23T07:28:41.000Z</time><ele>371.6</ele></trkpt><trkpt lat="45.815761" lon="9.425991"><time>2024-03-23T07:28:42.000Z</time><ele>371.8</ele></trkpt><trkpt lat="45.815771" lon="9.426003"><time>2024-03-23T07:28:43.000Z</time><ele>371.8</ele></trkpt><trkpt lat="45.815779" lon="9.426016"><time>2024-03-23T07:28:44.000Z</time><ele>372</ele></trkpt><trkpt lat="45.815786" lon="9.426032"><time>2024-03-23T07:28:45.000Z</time><ele>372</ele></trkpt><trkpt lat="45.815793" lon="9.42604"><time>2024-03-23T07:28:46.000Z</time><ele>372.2</ele></trkpt><trkpt lat="45.815794" lon="9.426049"><time>2024-03-23T07:28:47.000Z</time><ele>372.2</ele></trkpt><trkpt lat="45.815795" lon="9.426063"><time>2024-03-23T07:28:48.000Z</time><ele>372.4</ele></trkpt><trkpt lat="45.815797" lon="9.426078"><time>2024-03-23T07:28:49.000Z</time><ele>372.4</ele></trkpt><trkpt lat="45.815795" lon="9.426086"><time>2024-03-23T07:28:50.000Z</time><ele>372.6</ele></trkpt><trkpt lat="45.815789" lon="9.426102"><time>2024-03-23T07:28:51.000Z</time><ele>372.8</ele></trkpt><trkpt lat="45.815789" lon="9.426112"><time>2024-03-23T07:28:52.000Z</time><ele>372.8</ele></trkpt><trkpt lat="45.81579" lon="9.426129"><time>2024-03-23T07:28:53.000Z</time><ele>372.8</ele></trkpt><trkpt lat="45.81579" lon="9.426141"><time>2024-03-23T07:28:54.000Z</time><ele>373</ele></trkpt><trkpt lat="45.815792" lon="9.426154"><time>2024-03-23T07:28:55.000Z</time><ele>373</ele></trkpt><trkpt lat="45.815794" lon="9.426164"><time>2024-03-23T07:28:56.000Z</time><ele>373.2</ele></trkpt><trkpt lat="45.815796" lon="9.42617"><time>2024-03-23T07:28:57.000Z</time><ele>373.2</ele></trkpt><trkpt lat="45.815797" lon="9.426173"><time>2024-03-23T07:28:58.000Z</time><ele>373.4</ele></trkpt><trkpt lat="45.815797" lon="9.426174"><time>2024-03-23T07:28:59.000Z</time><ele>373.6</ele></trkpt><trkpt lat="45.815797" lon="9.426176"><time>2024-03-23T07:29:00.000Z</time><ele>373.8</ele></trkpt><trkpt lat="45.815797" lon="9.426179"><time>2024-03-23T07:29:01.000Z</time><ele>373.8</ele></trkpt><trkpt lat="45.815796" lon="9.42618"><time>2024-03-23T07:29:02.000Z</time><ele>373.8</ele></trkpt><trkpt lat="45.815796" lon="9.426181"><time>2024-03-23T07:29:03.000Z</time><ele>374</ele></trkpt><trkpt lat="45.815796" lon="9.426183"><time>2024-03-23T07:29:04.000Z</time><ele>374</ele></trkpt><trkpt lat="45.815796" lon="9.426184"><time>2024-03-23T07:29:05.000Z</time><ele>374.2</ele></trkpt><trkpt lat="45.815799" lon="9.426182"><time>2024-03-23T07:29:06.000Z</time><ele>374.2</ele></trkpt><trkpt lat="45.815805" lon="9.426182"><time>2024-03-23T07:29:07.000Z</time><ele>374.2</ele></trkpt><trkpt lat="45.815809" lon="9.426182"><time>2024-03-23T07:29:08.000Z</time><ele>374.2</ele></trkpt><trkpt lat="45.815814" lon="9.426186"><time>2024-03-23T07:29:09.000Z</time><ele>374.2</ele></trkpt><trkpt lat="45.815812" lon="9.426192"><time>2024-03-23T07:29:10.000Z</time><ele>374.2</ele></trkpt><trkpt lat="45.815811" lon="9.4262"><time>2024-03-23T07:29:11.000Z</time><ele>374.2</ele></trkpt><trkpt lat="45.815813" lon="9.426205"><time>2024-03-23T07:29:12.000Z</time><ele>374.2</ele></trkpt><trkpt lat="45.815814" lon="9.426214"><time>2024-03-23T07:29:13.000Z</time><ele>374.4</ele></trkpt><trkpt lat="45.815805" lon="9.426224"><time>2024-03-23T07:29:14.000Z</time><ele>374.6</ele></trkpt><trkpt lat="45.815801" lon="9.426229"><time>2024-03-23T07:29:15.000Z</time><ele>374.8</ele></trkpt><trkpt lat="45.815799" lon="9.426236"><time>2024-03-23T07:29:16.000Z</time><ele>375</ele></trkpt><trkpt lat="45.815796" lon="9.42624"><time>2024-03-23T07:29:17.000Z</time><ele>375.2</ele></trkpt><trkpt lat="45.815797" lon="9.426245"><time>2024-03-23T07:29:18.000Z</time><ele>375.6</ele></trkpt><trkpt lat="45.815797" lon="9.42625"><time>2024-03-23T07:29:19.000Z</time><ele>375.8</ele></trkpt><trkpt lat="45.815799" lon="9.426256"><time>2024-03-23T07:29:20.000Z</time><ele>376</ele></trkpt><trkpt lat="45.815805" lon="9.426268"><time>2024-03-23T07:29:21.000Z</time><ele>376.2</ele></trkpt><trkpt lat="45.815806" lon="9.426281"><time>2024-03-23T07:29:22.000Z</time><ele>376.4</ele></trkpt><trkpt lat="45.815806" lon="9.426297"><time>2024-03-23T07:29:23.000Z</time><ele>376.6</ele></trkpt><trkpt lat="45.815812" lon="9.426307"><time>2024-03-23T07:29:24.000Z</time><ele>376.8</ele></trkpt><trkpt lat="45.815809" lon="9.426313"><time>2024-03-23T07:29:25.000Z</time><ele>377.2</ele></trkpt><trkpt lat="45.815804" lon="9.426313"><time>2024-03-23T07:29:26.000Z</time><ele>377.4</ele></trkpt><trkpt lat="45.815808" lon="9.426319"><time>2024-03-23T07:29:27.000Z</time><ele>377.6</ele></trkpt><trkpt lat="45.815811" lon="9.426325"><time>2024-03-23T07:29:28.000Z</time><ele>377.8</ele></trkpt><trkpt lat="45.815817" lon="9.426331"><time>2024-03-23T07:29:29.000Z</time><ele>378</ele></trkpt><trkpt lat="45.815819" lon="9.426338"><time>2024-03-23T07:29:30.000Z</time><ele>378.2</ele></trkpt><trkpt lat="45.81582" lon="9.426345"><time>2024-03-23T07:29:31.000Z</time><ele>378.4</ele></trkpt><trkpt lat="45.81582" lon="9.426358"><time>2024-03-23T07:29:32.000Z</time><ele>378.4</ele></trkpt><trkpt lat="45.815819" lon="9.42637"><time>2024-03-23T07:29:33.000Z</time><ele>378.6</ele></trkpt><trkpt lat="45.81582" lon="9.426382"><time>2024-03-23T07:29:34.000Z</time><ele>378.6</ele></trkpt><trkpt lat="45.815819" lon="9.426397"><time>2024-03-23T07:29:35.000Z</time><ele>378.8</ele></trkpt><trkpt lat="45.815818" lon="9.426402"><time>2024-03-23T07:29:36.000Z</time><ele>379</ele></trkpt><trkpt lat="45.815815" lon="9.426421"><time>2024-03-23T07:29:37.000Z</time><ele>379.2</ele></trkpt><trkpt lat="45.815817" lon="9.42643"><time>2024-03-23T07:29:38.000Z</time><ele>379.2</ele></trkpt><trkpt lat="45.815818" lon="9.426434"><time>2024-03-23T07:29:39.000Z</time><ele>379.2</ele></trkpt><trkpt lat="45.815817" lon="9.426436"><time>2024-03-23T07:29:40.000Z</time><ele>379.4</ele></trkpt><trkpt lat="45.815819" lon="9.426435"><time>2024-03-23T07:29:41.000Z</time><ele>379.4</ele></trkpt><trkpt lat="45.81582" lon="9.426437"><time>2024-03-23T07:29:42.000Z</time><ele>379.6</ele></trkpt><trkpt lat="45.815823" lon="9.426439"><time>2024-03-23T07:29:43.000Z</time><ele>379.6</ele></trkpt><trkpt lat="45.815826" lon="9.426443"><time>2024-03-23T07:29:44.000Z</time><ele>379.8</ele></trkpt><trkpt lat="45.815828" lon="9.426452"><time>2024-03-23T07:29:45.000Z</time><ele>379.8</ele></trkpt><trkpt lat="45.815828" lon="9.426465"><time>2024-03-23T07:29:46.000Z</time><ele>379.8</ele></trkpt><trkpt lat="45.815825" lon="9.426476"><time>2024-03-23T07:29:47.000Z</time><ele>379.8</ele></trkpt><trkpt lat="45.815826" lon="9.426484"><time>2024-03-23T07:29:48.000Z</time><ele>379.8</ele></trkpt><trkpt lat="45.815827" lon="9.426492"><time>2024-03-23T07:29:49.000Z</time><ele>379.8</ele></trkpt><trkpt lat="45.815833" lon="9.426501"><time>2024-03-23T07:29:50.000Z</time><ele>379.6</ele></trkpt><trkpt lat="45.815836" lon="9.426512"><time>2024-03-23T07:29:51.000Z</time><ele>379.4</ele></trkpt><trkpt lat="45.815841" lon="9.426523"><time>2024-03-23T07:29:52.000Z</time><ele>379.2</ele></trkpt><trkpt lat="45.815845" lon="9.426532"><time>2024-03-23T07:29:53.000Z</time><ele>378.8</ele></trkpt><trkpt lat="45.815847" lon="9.426539"><time>2024-03-23T07:29:54.000Z</time><ele>378.6</ele></trkpt><trkpt lat="45.815847" lon="9.426539"><time>2024-03-23T07:29:55.000Z</time><ele>378.6</ele></trkpt><trkpt lat="45.815851" lon="9.42654"><time>2024-03-23T07:29:56.000Z</time><ele>378.4</ele></trkpt><trkpt lat="45.815857" lon="9.426545"><time>2024-03-23T07:29:57.000Z</time><ele>378.2</ele></trkpt><trkpt lat="45.815863" lon="9.426556"><time>2024-03-23T07:29:58.000Z</time><ele>377.8</ele></trkpt><trkpt lat="45.81587" lon="9.426571"><time>2024-03-23T07:29:59.000Z</time><ele>377.6</ele></trkpt><trkpt lat="45.815878" lon="9.426581"><time>2024-03-23T07:30:00.000Z</time><ele>377.4</ele></trkpt><trkpt lat="45.815889" lon="9.426587"><time>2024-03-23T07:30:01.000Z</time><ele>377.2</ele></trkpt><trkpt lat="45.815899" lon="9.426597"><time>2024-03-23T07:30:02.000Z</time><ele>377</ele></trkpt><trkpt lat="45.81591" lon="9.426607"><time>2024-03-23T07:30:03.000Z</time><ele>376.8</ele></trkpt><trkpt lat="45.815919" lon="9.42662"><time>2024-03-23T07:30:04.000Z</time><ele>376.6</ele></trkpt><trkpt lat="45.815927" lon="9.426634"><time>2024-03-23T07:30:05.000Z</time><ele>376.4</ele></trkpt><trkpt lat="45.815937" lon="9.426647"><time>2024-03-23T07:30:06.000Z</time><ele>376.2</ele></trkpt><trkpt lat="45.815942" lon="9.426664"><time>2024-03-23T07:30:07.000Z</time><ele>376.2</ele></trkpt><trkpt lat="45.815948" lon="9.426685"><time>2024-03-23T07:30:08.000Z</time><ele>376</ele></trkpt><trkpt lat="45.815959" lon="9.426698"><time>2024-03-23T07:30:09.000Z</time><ele>375.8</ele></trkpt><trkpt lat="45.815963" lon="9.426714"><time>2024-03-23T07:30:10.000Z</time><ele>375.6</ele></trkpt><trkpt lat="45.815977" lon="9.426721"><time>2024-03-23T07:30:11.000Z</time><ele>375.4</ele></trkpt><trkpt lat="45.815994" lon="9.42673"><time>2024-03-23T07:30:12.000Z</time><ele>375.4</ele></trkpt><trkpt lat="45.81601" lon="9.426741"><time>2024-03-23T07:30:13.000Z</time><ele>375.4</ele></trkpt><trkpt lat="45.816021" lon="9.42675"><time>2024-03-23T07:30:14.000Z</time><ele>375.4</ele></trkpt><trkpt lat="45.816023" lon="9.426761"><time>2024-03-23T07:30:15.000Z</time><ele>375.2</ele></trkpt><trkpt lat="45.816028" lon="9.426775"><time>2024-03-23T07:30:16.000Z</time><ele>375.2</ele></trkpt><trkpt lat="45.816037" lon="9.426787"><time>2024-03-23T07:30:17.000Z</time><ele>375</ele></trkpt><trkpt lat="45.816041" lon="9.426806"><time>2024-03-23T07:30:18.000Z</time><ele>375</ele></trkpt><trkpt lat="45.816047" lon="9.426826"><time>2024-03-23T07:30:19.000Z</time><ele>374.8</ele></trkpt><trkpt lat="45.816056" lon="9.426844"><time>2024-03-23T07:30:20.000Z</time><ele>374.8</ele></trkpt><trkpt lat="45.816063" lon="9.426861"><time>2024-03-23T07:30:21.000Z</time><ele>374.8</ele></trkpt><trkpt lat="45.816073" lon="9.426876"><time>2024-03-23T07:30:22.000Z</time><ele>374.6</ele></trkpt><trkpt lat="45.816079" lon="9.426893"><time>2024-03-23T07:30:23.000Z</time><ele>374.6</ele></trkpt><trkpt lat="45.816084" lon="9.426911"><time>2024-03-23T07:30:24.000Z</time><ele>374.6</ele></trkpt><trkpt lat="45.816092" lon="9.426926"><time>2024-03-23T07:30:25.000Z</time><ele>374.6</ele></trkpt><trkpt lat="45.816095" lon="9.426944"><time>2024-03-23T07:30:26.000Z</time><ele>374.6</ele></trkpt><trkpt lat="45.816103" lon="9.426961"><time>2024-03-23T07:30:27.000Z</time><ele>374.6</ele></trkpt><trkpt lat="45.816107" lon="9.426979"><time>2024-03-23T07:30:28.000Z</time><ele>374.6</ele></trkpt><trkpt lat="45.816111" lon="9.427"><time>2024-03-23T07:30:29.000Z</time><ele>374.8</ele></trkpt><trkpt lat="45.81612" lon="9.427014"><time>2024-03-23T07:30:30.000Z</time><ele>374.8</ele></trkpt><trkpt lat="45.81612" lon="9.427035"><time>2024-03-23T07:30:31.000Z</time><ele>374.8</ele></trkpt><trkpt lat="45.816124" lon="9.427054"><time>2024-03-23T07:30:32.000Z</time><ele>374.8</ele></trkpt><trkpt lat="45.816125" lon="9.427071"><time>2024-03-23T07:30:33.000Z</time><ele>374.8</ele></trkpt><trkpt lat="45.816128" lon="9.427084"><time>2024-03-23T07:30:34.000Z</time><ele>374.8</ele></trkpt><trkpt lat="45.816129" lon="9.427088"><time>2024-03-23T07:30:35.000Z</time><ele>374.8</ele></trkpt><trkpt lat="45.816133" lon="9.427089"><time>2024-03-23T07:30:36.000Z</time><ele>374.8</ele></trkpt><trkpt lat="45.81613" lon="9.427093"><time>2024-03-23T07:30:37.000Z</time><ele>375</ele></trkpt><trkpt lat="45.816128" lon="9.427093"><time>2024-03-23T07:30:38.000Z</time><ele>375</ele></trkpt><trkpt lat="45.816131" lon="9.427091"><time>2024-03-23T07:30:39.000Z</time><ele>375.2</ele></trkpt><trkpt lat="45.816134" lon="9.42709"><time>2024-03-23T07:30:40.000Z</time><ele>375.2</ele></trkpt><trkpt lat="45.816135" lon="9.42709"><time>2024-03-23T07:30:41.000Z</time><ele>375.2</ele></trkpt><trkpt lat="45.816138" lon="9.427093"><time>2024-03-23T07:30:42.000Z</time><ele>375.2</ele></trkpt><trkpt lat="45.816142" lon="9.4271"><time>2024-03-23T07:30:43.000Z</time><ele>375.2</ele></trkpt><trkpt lat="45.816149" lon="9.427108"><time>2024-03-23T07:30:44.000Z</time><ele>375.4</ele></trkpt><trkpt lat="45.816157" lon="9.427119"><time>2024-03-23T07:30:45.000Z</time><ele>375.4</ele></trkpt><trkpt lat="45.816163" lon="9.427132"><time>2024-03-23T07:30:46.000Z</time><ele>375.4</ele></trkpt><trkpt lat="45.816173" lon="9.427141"><time>2024-03-23T07:30:47.000Z</time><ele>375.4</ele></trkpt><trkpt lat="45.816179" lon="9.427156"><time>2024-03-23T07:30:48.000Z</time><ele>375.4</ele></trkpt><trkpt lat="45.816183" lon="9.427173"><time>2024-03-23T07:30:49.000Z</time><ele>375.4</ele></trkpt><trkpt lat="45.816187" lon="9.427187"><time>2024-03-23T07:30:50.000Z</time><ele>375.6</ele></trkpt><trkpt lat="45.816191" lon="9.427198"><time>2024-03-23T07:30:51.000Z</time><ele>375.8</ele></trkpt><trkpt lat="45.8162" lon="9.427203"><time>2024-03-23T07:30:52.000Z</time><ele>375.8</ele></trkpt><trkpt lat="45.816212" lon="9.427211"><time>2024-03-23T07:30:53.000Z</time><ele>376</ele></trkpt><trkpt lat="45.816223" lon="9.427212"><time>2024-03-23T07:30:54.000Z</time><ele>376</ele></trkpt><trkpt lat="45.816235" lon="9.427211"><time>2024-03-23T07:30:55.000Z</time><ele>376</ele></trkpt><trkpt lat="45.816245" lon="9.427212"><time>2024-03-23T07:30:56.000Z</time><ele>376</ele></trkpt><trkpt lat="45.816253" lon="9.427214"><time>2024-03-23T07:30:57.000Z</time><ele>376</ele></trkpt><trkpt lat="45.816262" lon="9.427215"><time>2024-03-23T07:30:58.000Z</time><ele>376</ele></trkpt><trkpt lat="45.816276" lon="9.427214"><time>2024-03-23T07:30:59.000Z</time><ele>376</ele></trkpt><trkpt lat="45.816286" lon="9.427213"><time>2024-03-23T07:31:00.000Z</time><ele>376</ele></trkpt><trkpt lat="45.816294" lon="9.427217"><time>2024-03-23T07:31:01.000Z</time><ele>376</ele></trkpt><trkpt lat="45.816306" lon="9.42722"><time>2024-03-23T07:31:02.000Z</time><ele>375.8</ele></trkpt><trkpt lat="45.816321" lon="9.42722"><time>2024-03-23T07:31:03.000Z</time><ele>375.8</ele></trkpt><trkpt lat="45.816332" lon="9.427223"><time>2024-03-23T07:31:04.000Z</time><ele>375.8</ele></trkpt><trkpt lat="45.816342" lon="9.427226"><time>2024-03-23T07:31:05.000Z</time><ele>375.8</ele></trkpt><trkpt lat="45.816354" lon="9.427232"><time>2024-03-23T07:31:06.000Z</time><ele>375.8</ele></trkpt><trkpt lat="45.816371" lon="9.427237"><time>2024-03-23T07:31:07.000Z</time><ele>375.8</ele></trkpt><trkpt lat="45.81639" lon="9.427238"><time>2024-03-23T07:31:08.000Z</time><ele>375.8</ele></trkpt><trkpt lat="45.816403" lon="9.427239"><time>2024-03-23T07:31:09.000Z</time><ele>375.8</ele></trkpt><trkpt lat="45.81641" lon="9.427244"><time>2024-03-23T07:31:10.000Z</time><ele>375.8</ele></trkpt><trkpt lat="45.816416" lon="9.427254"><time>2024-03-23T07:31:11.000Z</time><ele>375.8</ele></trkpt><trkpt lat="45.816423" lon="9.427254"><time>2024-03-23T07:31:12.000Z</time><ele>375.8</ele></trkpt><trkpt lat="45.816428" lon="9.427252"><time>2024-03-23T07:31:13.000Z</time><ele>375.8</ele></trkpt><trkpt lat="45.816435" lon="9.427251"><time>2024-03-23T07:31:14.000Z</time><ele>375.8</ele></trkpt><trkpt lat="45.816446" lon="9.427252"><time>2024-03-23T07:31:15.000Z</time><ele>375.8</ele></trkpt><trkpt lat="45.816457" lon="9.427264"><time>2024-03-23T07:31:16.000Z</time><ele>375.8</ele></trkpt><trkpt lat="45.816473" lon="9.427278"><time>2024-03-23T07:31:17.000Z</time><ele>375.8</ele></trkpt><trkpt lat="45.816486" lon="9.427291"><time>2024-03-23T07:31:18.000Z</time><ele>375.8</ele></trkpt><trkpt lat="45.816496" lon="9.427305"><time>2024-03-23T07:31:19.000Z</time><ele>375.6</ele></trkpt><trkpt lat="45.816507" lon="9.427311"><time>2024-03-23T07:31:20.000Z</time><ele>375.6</ele></trkpt><trkpt lat="45.816519" lon="9.427316"><time>2024-03-23T07:31:21.000Z</time><ele>375.6</ele></trkpt><trkpt lat="45.81653" lon="9.427321"><time>2024-03-23T07:31:22.000Z</time><ele>375.6</ele></trkpt><trkpt lat="45.816538" lon="9.427327"><time>2024-03-23T07:31:23.000Z</time><ele>375.6</ele></trkpt><trkpt lat="45.816548" lon="9.427333"><time>2024-03-23T07:31:24.000Z</time><ele>375.6</ele></trkpt><trkpt lat="45.816559" lon="9.427341"><time>2024-03-23T07:31:25.000Z</time><ele>375.6</ele></trkpt><trkpt lat="45.816572" lon="9.427347"><time>2024-03-23T07:31:26.000Z</time><ele>375.6</ele></trkpt><trkpt lat="45.816582" lon="9.427354"><time>2024-03-23T07:31:27.000Z</time><ele>375.6</ele></trkpt><trkpt lat="45.816594" lon="9.427362"><time>2024-03-23T07:31:28.000Z</time><ele>375.6</ele></trkpt><trkpt lat="45.816606" lon="9.427369"><time>2024-03-23T07:31:29.000Z</time><ele>375.6</ele></trkpt><trkpt lat="45.816618" lon="9.427376"><time>2024-03-23T07:31:30.000Z</time><ele>375.4</ele></trkpt><trkpt lat="45.81663" lon="9.427379"><time>2024-03-23T07:31:31.000Z</time><ele>375.6</ele></trkpt><trkpt lat="45.816639" lon="9.427376"><time>2024-03-23T07:31:32.000Z</time><ele>375.6</ele></trkpt><trkpt lat="45.81665" lon="9.427378"><time>2024-03-23T07:31:33.000Z</time><ele>375.6</ele></trkpt><trkpt lat="45.816661" lon="9.427383"><time>2024-03-23T07:31:34.000Z</time><ele>375.6</ele></trkpt><trkpt lat="45.816672" lon="9.427393"><time>2024-03-23T07:31:35.000Z</time><ele>375.6</ele></trkpt><trkpt lat="45.816685" lon="9.427401"><time>2024-03-23T07:31:36.000Z</time><ele>375.8</ele></trkpt><trkpt lat="45.816698" lon="9.427394"><time>2024-03-23T07:31:37.000Z</time><ele>375.8</ele></trkpt><trkpt lat="45.816709" lon="9.427389"><time>2024-03-23T07:31:38.000Z</time><ele>375.6</ele></trkpt><trkpt lat="45.816718" lon="9.427378"><time>2024-03-23T07:31:39.000Z</time><ele>375.6</ele></trkpt><trkpt lat="45.816728" lon="9.427366"><time>2024-03-23T07:31:40.000Z</time><ele>375.6</ele></trkpt><trkpt lat="45.816736" lon="9.427355"><time>2024-03-23T07:31:41.000Z</time><ele>375.4</ele></trkpt><trkpt lat="45.81675" lon="9.427353"><time>2024-03-23T07:31:42.000Z</time><ele>375.2</ele></trkpt><trkpt lat="45.816768" lon="9.427357"><time>2024-03-23T07:31:43.000Z</time><ele>375</ele></trkpt><trkpt lat="45.816787" lon="9.427362"><time>2024-03-23T07:31:44.000Z</time><ele>375</ele></trkpt><trkpt lat="45.816803" lon="9.427354"><time>2024-03-23T07:31:45.000Z</time><ele>375</ele></trkpt><trkpt lat="45.816817" lon="9.427347"><time>2024-03-23T07:31:46.000Z</time><ele>374.8</ele></trkpt><trkpt lat="45.816832" lon="9.427338"><time>2024-03-23T07:31:47.000Z</time><ele>374.6</ele></trkpt><trkpt lat="45.816845" lon="9.427328"><time>2024-03-23T07:31:48.000Z</time><ele>374.6</ele></trkpt><trkpt lat="45.816858" lon="9.427317"><time>2024-03-23T07:31:49.000Z</time><ele>374.6</ele></trkpt><trkpt lat="45.816875" lon="9.427312"><time>2024-03-23T07:31:50.000Z</time><ele>374.4</ele></trkpt><trkpt lat="45.816894" lon="9.427311"><time>2024-03-23T07:31:51.000Z</time><ele>374.4</ele></trkpt><trkpt lat="45.816912" lon="9.427318"><time>2024-03-23T07:31:52.000Z</time><ele>374.2</ele></trkpt><trkpt lat="45.816925" lon="9.427315"><time>2024-03-23T07:31:53.000Z</time><ele>374.2</ele></trkpt><trkpt lat="45.816939" lon="9.427315"><time>2024-03-23T07:31:54.000Z</time><ele>374.2</ele></trkpt><trkpt lat="45.816952" lon="9.427313"><time>2024-03-23T07:31:55.000Z</time><ele>374.2</ele></trkpt><trkpt lat="45.816959" lon="9.427315"><time>2024-03-23T07:31:56.000Z</time><ele>374.2</ele></trkpt><trkpt lat="45.816966" lon="9.42731"><time>2024-03-23T07:31:57.000Z</time><ele>374.2</ele></trkpt><trkpt lat="45.816969" lon="9.427309"><time>2024-03-23T07:31:58.000Z</time><ele>374.2</ele></trkpt><trkpt lat="45.816967" lon="9.427302"><time>2024-03-23T07:31:59.000Z</time><ele>374.4</ele></trkpt><trkpt lat="45.816965" lon="9.427298"><time>2024-03-23T07:32:00.000Z</time><ele>374.4</ele></trkpt><trkpt lat="45.816963" lon="9.427298"><time>2024-03-23T07:32:01.000Z</time><ele>374.4</ele></trkpt><trkpt lat="45.816964" lon="9.4273"><time>2024-03-23T07:32:02.000Z</time><ele>374.4</ele></trkpt><trkpt lat="45.816965" lon="9.427302"><time>2024-03-23T07:32:03.000Z</time><ele>374.2</ele></trkpt><trkpt lat="45.816965" lon="9.427305"><time>2024-03-23T07:32:04.000Z</time><ele>374.2</ele></trkpt><trkpt lat="45.816967" lon="9.42731"><time>2024-03-23T07:32:05.000Z</time><ele>374.2</ele></trkpt><trkpt lat="45.816975" lon="9.427314"><time>2024-03-23T07:32:06.000Z</time><ele>374.2</ele></trkpt><trkpt lat="45.816984" lon="9.427308"><time>2024-03-23T07:32:07.000Z</time><ele>374.2</ele></trkpt><trkpt lat="45.816988" lon="9.427306"><time>2024-03-23T07:32:08.000Z</time><ele>374.2</ele></trkpt><trkpt lat="45.817" lon="9.427314"><time>2024-03-23T07:32:09.000Z</time><ele>374.2</ele></trkpt><trkpt lat="45.817007" lon="9.42732"><time>2024-03-23T07:32:10.000Z</time><ele>374.2</ele></trkpt><trkpt lat="45.817012" lon="9.427324"><time>2024-03-23T07:32:11.000Z</time><ele>374.2</ele></trkpt><trkpt lat="45.817013" lon="9.427326"><time>2024-03-23T07:32:12.000Z</time><ele>374.2</ele></trkpt><trkpt lat="45.817014" lon="9.427327"><time>2024-03-23T07:32:13.000Z</time><ele>374</ele></trkpt><trkpt lat="45.817016" lon="9.427327"><time>2024-03-23T07:32:14.000Z</time><ele>374</ele></trkpt><trkpt lat="45.817017" lon="9.427325"><time>2024-03-23T07:32:15.000Z</time><ele>374.2</ele></trkpt><trkpt lat="45.817017" lon="9.427323"><time>2024-03-23T07:32:16.000Z</time><ele>374.2</ele></trkpt><trkpt lat="45.817017" lon="9.42732"><time>2024-03-23T07:32:17.000Z</time><ele>374.4</ele></trkpt><trkpt lat="45.817017" lon="9.42732"><time>2024-03-23T07:32:18.000Z</time><ele>374.4</ele></trkpt><trkpt lat="45.817018" lon="9.427319"><time>2024-03-23T07:32:19.000Z</time><ele>374.4</ele></trkpt><trkpt lat="45.817017" lon="9.427319"><time>2024-03-23T07:32:20.000Z</time><ele>374.4</ele></trkpt><trkpt lat="45.817018" lon="9.427318"><time>2024-03-23T07:32:21.000Z</time><ele>374.4</ele></trkpt><trkpt lat="45.817017" lon="9.427319"><time>2024-03-23T07:32:22.000Z</time><ele>374.4</ele></trkpt><trkpt lat="45.817015" lon="9.427319"><time>2024-03-23T07:32:23.000Z</time><ele>374.4</ele></trkpt><trkpt lat="45.817015" lon="9.42732"><time>2024-03-23T07:32:24.000Z</time><ele>374</ele></trkpt><trkpt lat="45.817014" lon="9.427321"><time>2024-03-23T07:32:25.000Z</time><ele>374</ele></trkpt><trkpt lat="45.817014" lon="9.427317"><time>2024-03-23T07:32:26.000Z</time><ele>373.8</ele></trkpt><trkpt lat="45.817014" lon="9.427315"><time>2024-03-23T07:32:27.000Z</time><ele>373.8</ele></trkpt><trkpt lat="45.817014" lon="9.427313"><time>2024-03-23T07:32:28.000Z</time><ele>373.8</ele></trkpt><trkpt lat="45.817015" lon="9.427314"><time>2024-03-23T07:32:29.000Z</time><ele>373.8</ele></trkpt><trkpt lat="45.817015" lon="9.427315"><time>2024-03-23T07:32:30.000Z</time><ele>373.8</ele></trkpt><trkpt lat="45.817015" lon="9.427315"><time>2024-03-23T07:32:31.000Z</time><ele>373.8</ele></trkpt><trkpt lat="45.817015" lon="9.427315"><time>2024-03-23T07:32:32.000Z</time><ele>373.8</ele></trkpt><trkpt lat="45.817015" lon="9.427315"><time>2024-03-23T07:32:33.000Z</time><ele>373.8</ele></trkpt><trkpt lat="45.817015" lon="9.427315"><time>2024-03-23T07:32:34.000Z</time><ele>374</ele></trkpt><trkpt lat="45.817015" lon="9.427315"><time>2024-03-23T07:32:35.000Z</time><ele>374</ele></trkpt><trkpt lat="45.817015" lon="9.427315"><time>2024-03-23T07:32:36.000Z</time><ele>374</ele></trkpt><trkpt lat="45.817015" lon="9.427315"><time>2024-03-23T07:32:37.000Z</time><ele>374</ele></trkpt><trkpt lat="45.817015" lon="9.427315"><time>2024-03-23T07:32:38.000Z</time><ele>374.2</ele></trkpt><trkpt lat="45.817015" lon="9.427315"><time>2024-03-23T07:32:39.000Z</time><ele>374.4</ele></trkpt><trkpt lat="45.817015" lon="9.427315"><time>2024-03-23T07:32:40.000Z</time><ele>374.8</ele></trkpt><trkpt lat="45.817015" lon="9.427315"><time>2024-03-23T07:32:41.000Z</time><ele>375</ele></trkpt><trkpt lat="45.81702" lon="9.427316"><time>2024-03-23T07:32:42.000Z</time><ele>375.2</ele></trkpt><trkpt lat="45.817033" lon="9.427315"><time>2024-03-23T07:32:43.000Z</time><ele>375.6</ele></trkpt><trkpt lat="45.817044" lon="9.427316"><time>2024-03-23T07:32:44.000Z</time><ele>375.8</ele></trkpt><trkpt lat="45.817058" lon="9.427313"><time>2024-03-23T07:32:45.000Z</time><ele>375.8</ele></trkpt><trkpt lat="45.817072" lon="9.427312"><time>2024-03-23T07:32:46.000Z</time><ele>375.8</ele></trkpt><trkpt lat="45.817085" lon="9.427321"><time>2024-03-23T07:32:47.000Z</time><ele>376</ele></trkpt><trkpt lat="45.817097" lon="9.427315"><time>2024-03-23T07:32:48.000Z</time><ele>375.8</ele></trkpt><trkpt lat="45.817109" lon="9.427314"><time>2024-03-23T07:32:49.000Z</time><ele>375.8</ele></trkpt><trkpt lat="45.817121" lon="9.427313"><time>2024-03-23T07:32:50.000Z</time><ele>375.8</ele></trkpt><trkpt lat="45.817134" lon="9.427313"><time>2024-03-23T07:32:51.000Z</time><ele>375.8</ele></trkpt><trkpt lat="45.817143" lon="9.427315"><time>2024-03-23T07:32:52.000Z</time><ele>376</ele></trkpt><trkpt lat="45.817153" lon="9.42731"><time>2024-03-23T07:32:53.000Z</time><ele>376</ele></trkpt><trkpt lat="45.817165" lon="9.427304"><time>2024-03-23T07:32:54.000Z</time><ele>375.8</ele></trkpt><trkpt lat="45.817177" lon="9.427301"><time>2024-03-23T07:32:55.000Z</time><ele>375.8</ele></trkpt><trkpt lat="45.817187" lon="9.4273"><time>2024-03-23T07:32:56.000Z</time><ele>375.8</ele></trkpt><trkpt lat="45.817194" lon="9.427296"><time>2024-03-23T07:32:57.000Z</time><ele>375.8</ele></trkpt><trkpt lat="45.817203" lon="9.427294"><time>2024-03-23T07:32:58.000Z</time><ele>375.8</ele></trkpt><trkpt lat="45.817215" lon="9.4273"><time>2024-03-23T07:32:59.000Z</time><ele>375.8</ele></trkpt><trkpt lat="45.817225" lon="9.4273"><time>2024-03-23T07:33:00.000Z</time><ele>375.8</ele></trkpt><trkpt lat="45.81724" lon="9.427302"><time>2024-03-23T07:33:01.000Z</time><ele>375.8</ele></trkpt><trkpt lat="45.817252" lon="9.427297"><time>2024-03-23T07:33:02.000Z</time><ele>375.8</ele></trkpt><trkpt lat="45.817262" lon="9.42729"><time>2024-03-23T07:33:03.000Z</time><ele>375.8</ele></trkpt><trkpt lat="45.817272" lon="9.427282"><time>2024-03-23T07:33:04.000Z</time><ele>375.8</ele></trkpt><trkpt lat="45.81728" lon="9.427282"><time>2024-03-23T07:33:05.000Z</time><ele>376</ele></trkpt><trkpt lat="45.817291" lon="9.427286"><time>2024-03-23T07:33:06.000Z</time><ele>376</ele></trkpt><trkpt lat="45.8173" lon="9.427287"><time>2024-03-23T07:33:07.000Z</time><ele>376.2</ele></trkpt><trkpt lat="45.817309" lon="9.427292"><time>2024-03-23T07:33:08.000Z</time><ele>376.4</ele></trkpt><trkpt lat="45.817316" lon="9.427296"><time>2024-03-23T07:33:09.000Z</time><ele>376.4</ele></trkpt><trkpt lat="45.817323" lon="9.427298"><time>2024-03-23T07:33:10.000Z</time><ele>376.6</ele></trkpt><trkpt lat="45.817331" lon="9.427293"><time>2024-03-23T07:33:11.000Z</time><ele>376.8</ele></trkpt><trkpt lat="45.817335" lon="9.42729"><time>2024-03-23T07:33:12.000Z</time><ele>376.8</ele></trkpt><trkpt lat="45.81734" lon="9.427285"><time>2024-03-23T07:33:13.000Z</time><ele>377</ele></trkpt><trkpt lat="45.817344" lon="9.427281"><time>2024-03-23T07:33:14.000Z</time><ele>377.2</ele></trkpt><trkpt lat="45.817351" lon="9.427274"><time>2024-03-23T07:33:15.000Z</time><ele>377.4</ele></trkpt><trkpt lat="45.817357" lon="9.427271"><time>2024-03-23T07:33:16.000Z</time><ele>377.4</ele></trkpt><trkpt lat="45.817367" lon="9.427269"><time>2024-03-23T07:33:17.000Z</time><ele>377.6</ele></trkpt><trkpt lat="45.817372" lon="9.427268"><time>2024-03-23T07:33:18.000Z</time><ele>377.6</ele></trkpt><trkpt lat="45.817372" lon="9.42727"><time>2024-03-23T07:33:19.000Z</time><ele>377.8</ele></trkpt><trkpt lat="45.817377" lon="9.427275"><time>2024-03-23T07:33:20.000Z</time><ele>377.8</ele></trkpt><trkpt lat="45.817378" lon="9.427277"><time>2024-03-23T07:33:21.000Z</time><ele>378</ele></trkpt><trkpt lat="45.817379" lon="9.427278"><time>2024-03-23T07:33:22.000Z</time><ele>378.2</ele></trkpt><trkpt lat="45.817379" lon="9.427278"><time>2024-03-23T07:33:23.000Z</time><ele>378.2</ele></trkpt><trkpt lat="45.81738" lon="9.427278"><time>2024-03-23T07:33:24.000Z</time><ele>378.4</ele></trkpt><trkpt lat="45.81738" lon="9.427277"><time>2024-03-23T07:33:25.000Z</time><ele>378.4</ele></trkpt><trkpt lat="45.817379" lon="9.427274"><time>2024-03-23T07:33:26.000Z</time><ele>378.6</ele></trkpt><trkpt lat="45.817378" lon="9.427274"><time>2024-03-23T07:33:27.000Z</time><ele>378.6</ele></trkpt><trkpt lat="45.817377" lon="9.427279"><time>2024-03-23T07:33:28.000Z</time><ele>378.6</ele></trkpt><trkpt lat="45.817377" lon="9.427283"><time>2024-03-23T07:33:29.000Z</time><ele>378.6</ele></trkpt><trkpt lat="45.817379" lon="9.427285"><time>2024-03-23T07:33:30.000Z</time><ele>378.6</ele></trkpt><trkpt lat="45.817381" lon="9.427284"><time>2024-03-23T07:33:31.000Z</time><ele>378.8</ele></trkpt><trkpt lat="45.817388" lon="9.427284"><time>2024-03-23T07:33:32.000Z</time><ele>378.8</ele></trkpt><trkpt lat="45.81739" lon="9.427279"><time>2024-03-23T07:33:33.000Z</time><ele>378.8</ele></trkpt><trkpt lat="45.817396" lon="9.427278"><time>2024-03-23T07:33:34.000Z</time><ele>379</ele></trkpt><trkpt lat="45.817408" lon="9.427273"><time>2024-03-23T07:33:35.000Z</time><ele>379.2</ele></trkpt><trkpt lat="45.817418" lon="9.427268"><time>2024-03-23T07:33:36.000Z</time><ele>379.4</ele></trkpt><trkpt lat="45.817425" lon="9.427268"><time>2024-03-23T07:33:37.000Z</time><ele>379.6</ele></trkpt><trkpt lat="45.81743" lon="9.427265"><time>2024-03-23T07:33:38.000Z</time><ele>379.8</ele></trkpt><trkpt lat="45.817435" lon="9.427273"><time>2024-03-23T07:33:39.000Z</time><ele>380</ele></trkpt><trkpt lat="45.817441" lon="9.427275"><time>2024-03-23T07:33:40.000Z</time><ele>380.2</ele></trkpt><trkpt lat="45.817449" lon="9.427279"><time>2024-03-23T07:33:41.000Z</time><ele>380.4</ele></trkpt><trkpt lat="45.81746" lon="9.427281"><time>2024-03-23T07:33:42.000Z</time><ele>380.4</ele></trkpt><trkpt lat="45.817467" lon="9.42728"><time>2024-03-23T07:33:43.000Z</time><ele>380.8</ele></trkpt><trkpt lat="45.817468" lon="9.427276"><time>2024-03-23T07:33:44.000Z</time><ele>381</ele></trkpt><trkpt lat="45.817475" lon="9.427272"><time>2024-03-23T07:33:45.000Z</time><ele>381</ele></trkpt><trkpt lat="45.817476" lon="9.427269"><time>2024-03-23T07:33:46.000Z</time><ele>381.4</ele></trkpt><trkpt lat="45.817482" lon="9.427271"><time>2024-03-23T07:33:47.000Z</time><ele>381.6</ele></trkpt><trkpt lat="45.817492" lon="9.427271"><time>2024-03-23T07:33:48.000Z</time><ele>381.6</ele></trkpt><trkpt lat="45.817503" lon="9.427265"><time>2024-03-23T07:33:49.000Z</time><ele>381.8</ele></trkpt><trkpt lat="45.817508" lon="9.427262"><time>2024-03-23T07:33:50.000Z</time><ele>382</ele></trkpt><trkpt lat="45.817515" lon="9.427259"><time>2024-03-23T07:33:51.000Z</time><ele>382.2</ele></trkpt><trkpt lat="45.817521" lon="9.427252"><time>2024-03-23T07:33:52.000Z</time><ele>382.6</ele></trkpt><trkpt lat="45.817528" lon="9.427243"><time>2024-03-23T07:33:53.000Z</time><ele>382.8</ele></trkpt><trkpt lat="45.817534" lon="9.42724"><time>2024-03-23T07:33:54.000Z</time><ele>382.8</ele></trkpt><trkpt lat="45.817541" lon="9.427246"><time>2024-03-23T07:33:55.000Z</time><ele>383</ele></trkpt><trkpt lat="45.817548" lon="9.427247"><time>2024-03-23T07:33:56.000Z</time><ele>383.2</ele></trkpt><trkpt lat="45.817555" lon="9.42725"><time>2024-03-23T07:33:57.000Z</time><ele>383.4</ele></trkpt><trkpt lat="45.817564" lon="9.427243"><time>2024-03-23T07:33:58.000Z</time><ele>383.6</ele></trkpt><trkpt lat="45.817572" lon="9.427241"><time>2024-03-23T07:33:59.000Z</time><ele>383.8</ele></trkpt><trkpt lat="45.817585" lon="9.42724"><time>2024-03-23T07:34:00.000Z</time><ele>384</ele></trkpt><trkpt lat="45.817589" lon="9.427235"><time>2024-03-23T07:34:01.000Z</time><ele>384.2</ele></trkpt><trkpt lat="45.817599" lon="9.427238"><time>2024-03-23T07:34:02.000Z</time><ele>384.2</ele></trkpt><trkpt lat="45.81761" lon="9.427238"><time>2024-03-23T07:34:03.000Z</time><ele>384.4</ele></trkpt><trkpt lat="45.817624" lon="9.427247"><time>2024-03-23T07:34:04.000Z</time><ele>384.4</ele></trkpt><trkpt lat="45.817642" lon="9.427247"><time>2024-03-23T07:34:05.000Z</time><ele>384.6</ele></trkpt><trkpt lat="45.817656" lon="9.427248"><time>2024-03-23T07:34:06.000Z</time><ele>384.8</ele></trkpt><trkpt lat="45.817659" lon="9.427247"><time>2024-03-23T07:34:07.000Z</time><ele>385</ele></trkpt><trkpt lat="45.817661" lon="9.427246"><time>2024-03-23T07:34:08.000Z</time><ele>385</ele></trkpt><trkpt lat="45.817675" lon="9.427247"><time>2024-03-23T07:34:09.000Z</time><ele>385.2</ele></trkpt><trkpt lat="45.817683" lon="9.427235"><time>2024-03-23T07:34:10.000Z</time><ele>385.4</ele></trkpt><trkpt lat="45.817688" lon="9.427226"><time>2024-03-23T07:34:11.000Z</time><ele>385.6</ele></trkpt><trkpt lat="45.817692" lon="9.427216"><time>2024-03-23T07:34:12.000Z</time><ele>385.8</ele></trkpt><trkpt lat="45.817696" lon="9.427219"><time>2024-03-23T07:34:13.000Z</time><ele>385.8</ele></trkpt><trkpt lat="45.817701" lon="9.427219"><time>2024-03-23T07:34:14.000Z</time><ele>386</ele></trkpt><trkpt lat="45.817705" lon="9.427215"><time>2024-03-23T07:34:15.000Z</time><ele>386.2</ele></trkpt><trkpt lat="45.817707" lon="9.427209"><time>2024-03-23T07:34:16.000Z</time><ele>386.4</ele></trkpt><trkpt lat="45.81771" lon="9.4272"><time>2024-03-23T07:34:17.000Z</time><ele>386.4</ele></trkpt><trkpt lat="45.817715" lon="9.427206"><time>2024-03-23T07:34:18.000Z</time><ele>386.6</ele></trkpt><trkpt lat="45.817718" lon="9.427209"><time>2024-03-23T07:34:19.000Z</time><ele>386.8</ele></trkpt><trkpt lat="45.817726" lon="9.42721"><time>2024-03-23T07:34:20.000Z</time><ele>387</ele></trkpt><trkpt lat="45.817732" lon="9.427203"><time>2024-03-23T07:34:21.000Z</time><ele>387.2</ele></trkpt><trkpt lat="45.817734" lon="9.427188"><time>2024-03-23T07:34:22.000Z</time><ele>387.4</ele></trkpt><trkpt lat="45.817743" lon="9.427184"><time>2024-03-23T07:34:23.000Z</time><ele>387.8</ele></trkpt><trkpt lat="45.817747" lon="9.427186"><time>2024-03-23T07:34:24.000Z</time><ele>387.8</ele></trkpt><trkpt lat="45.81776" lon="9.427193"><time>2024-03-23T07:34:25.000Z</time><ele>388.2</ele></trkpt><trkpt lat="45.817762" lon="9.427192"><time>2024-03-23T07:34:26.000Z</time><ele>388.4</ele></trkpt><trkpt lat="45.81777" lon="9.427188"><time>2024-03-23T07:34:27.000Z</time><ele>388.6</ele></trkpt><trkpt lat="45.817782" lon="9.427189"><time>2024-03-23T07:34:28.000Z</time><ele>388.8</ele></trkpt><trkpt lat="45.817795" lon="9.42718"><time>2024-03-23T07:34:29.000Z</time><ele>389</ele></trkpt><trkpt lat="45.817809" lon="9.427172"><time>2024-03-23T07:34:30.000Z</time><ele>389</ele></trkpt><trkpt lat="45.817823" lon="9.427167"><time>2024-03-23T07:34:31.000Z</time><ele>389.2</ele></trkpt><trkpt lat="45.81784" lon="9.427158"><time>2024-03-23T07:34:32.000Z</time><ele>389.2</ele></trkpt><trkpt lat="45.817862" lon="9.427157"><time>2024-03-23T07:34:33.000Z</time><ele>389.4</ele></trkpt><trkpt lat="45.817872" lon="9.427151"><time>2024-03-23T07:34:34.000Z</time><ele>389.4</ele></trkpt><trkpt lat="45.817881" lon="9.427153"><time>2024-03-23T07:34:35.000Z</time><ele>389.6</ele></trkpt><trkpt lat="45.817896" lon="9.42715"><time>2024-03-23T07:34:36.000Z</time><ele>389.8</ele></trkpt><trkpt lat="45.817911" lon="9.427145"><time>2024-03-23T07:34:37.000Z</time><ele>389.8</ele></trkpt><trkpt lat="45.817922" lon="9.427138"><time>2024-03-23T07:34:38.000Z</time><ele>390</ele></trkpt><trkpt lat="45.817932" lon="9.427129"><time>2024-03-23T07:34:39.000Z</time><ele>390</ele></trkpt><trkpt lat="45.817948" lon="9.427126"><time>2024-03-23T07:34:40.000Z</time><ele>390.2</ele></trkpt><trkpt lat="45.817958" lon="9.427125"><time>2024-03-23T07:34:41.000Z</time><ele>390.2</ele></trkpt><trkpt lat="45.817964" lon="9.427124"><time>2024-03-23T07:34:42.000Z</time><ele>390.4</ele></trkpt><trkpt lat="45.817963" lon="9.427132"><time>2024-03-23T07:34:43.000Z</time><ele>390.4</ele></trkpt><trkpt lat="45.817964" lon="9.427137"><time>2024-03-23T07:34:44.000Z</time><ele>390.6</ele></trkpt><trkpt lat="45.817967" lon="9.427136"><time>2024-03-23T07:34:45.000Z</time><ele>390.8</ele></trkpt><trkpt lat="45.817972" lon="9.427135"><time>2024-03-23T07:34:46.000Z</time><ele>391</ele></trkpt><trkpt lat="45.81798" lon="9.427133"><time>2024-03-23T07:34:47.000Z</time><ele>391.2</ele></trkpt><trkpt lat="45.817987" lon="9.427128"><time>2024-03-23T07:34:48.000Z</time><ele>391.4</ele></trkpt><trkpt lat="45.817994" lon="9.427121"><time>2024-03-23T07:34:49.000Z</time><ele>391.6</ele></trkpt><trkpt lat="45.818002" lon="9.427115"><time>2024-03-23T07:34:50.000Z</time><ele>391.8</ele></trkpt><trkpt lat="45.818014" lon="9.427111"><time>2024-03-23T07:34:51.000Z</time><ele>392</ele></trkpt><trkpt lat="45.818029" lon="9.427111"><time>2024-03-23T07:34:52.000Z</time><ele>392.2</ele></trkpt><trkpt lat="45.818034" lon="9.427101"><time>2024-03-23T07:34:53.000Z</time><ele>392.4</ele></trkpt><trkpt lat="45.81804" lon="9.427098"><time>2024-03-23T07:34:54.000Z</time><ele>392.4</ele></trkpt><trkpt lat="45.818048" lon="9.427096"><time>2024-03-23T07:34:55.000Z</time><ele>392.6</ele></trkpt><trkpt lat="45.818054" lon="9.427091"><time>2024-03-23T07:34:56.000Z</time><ele>392.8</ele></trkpt><trkpt lat="45.818065" lon="9.427101"><time>2024-03-23T07:34:57.000Z</time><ele>392.8</ele></trkpt><trkpt lat="45.818069" lon="9.427107"><time>2024-03-23T07:34:58.000Z</time><ele>393</ele></trkpt><trkpt lat="45.818072" lon="9.42711"><time>2024-03-23T07:34:59.000Z</time><ele>393.2</ele></trkpt><trkpt lat="45.818074" lon="9.427112"><time>2024-03-23T07:35:00.000Z</time><ele>393.4</ele></trkpt><trkpt lat="45.818075" lon="9.427112"><time>2024-03-23T07:35:01.000Z</time><ele>393.4</ele></trkpt><trkpt lat="45.818077" lon="9.427111"><time>2024-03-23T07:35:02.000Z</time><ele>393.4</ele></trkpt><trkpt lat="45.81808" lon="9.427112"><time>2024-03-23T07:35:03.000Z</time><ele>393.6</ele></trkpt><trkpt lat="45.818086" lon="9.427119"><time>2024-03-23T07:35:04.000Z</time><ele>393.6</ele></trkpt><trkpt lat="45.81809" lon="9.427121"><time>2024-03-23T07:35:05.000Z</time><ele>393.6</ele></trkpt><trkpt lat="45.818097" lon="9.427131"><time>2024-03-23T07:35:06.000Z</time><ele>393.6</ele></trkpt><trkpt lat="45.818102" lon="9.427138"><time>2024-03-23T07:35:07.000Z</time><ele>393.6</ele></trkpt><trkpt lat="45.818104" lon="9.42714"><time>2024-03-23T07:35:08.000Z</time><ele>393.8</ele></trkpt><trkpt lat="45.818107" lon="9.427142"><time>2024-03-23T07:35:09.000Z</time><ele>393.8</ele></trkpt><trkpt lat="45.818113" lon="9.427149"><time>2024-03-23T07:35:10.000Z</time><ele>394</ele></trkpt><trkpt lat="45.818123" lon="9.427162"><time>2024-03-23T07:35:11.000Z</time><ele>394</ele></trkpt><trkpt lat="45.818131" lon="9.427178"><time>2024-03-23T07:35:12.000Z</time><ele>394</ele></trkpt><trkpt lat="45.818138" lon="9.427192"><time>2024-03-23T07:35:13.000Z</time><ele>394</ele></trkpt><trkpt lat="45.818142" lon="9.427201"><time>2024-03-23T07:35:14.000Z</time><ele>394</ele></trkpt><trkpt lat="45.818147" lon="9.427212"><time>2024-03-23T07:35:15.000Z</time><ele>394</ele></trkpt><trkpt lat="45.818153" lon="9.42722"><time>2024-03-23T07:35:16.000Z</time><ele>394</ele></trkpt><trkpt lat="45.818157" lon="9.427222"><time>2024-03-23T07:35:17.000Z</time><ele>393.8</ele></trkpt><trkpt lat="45.81816" lon="9.427221"><time>2024-03-23T07:35:18.000Z</time><ele>393.6</ele></trkpt><trkpt lat="45.818162" lon="9.427219"><time>2024-03-23T07:35:19.000Z</time><ele>393.4</ele></trkpt><trkpt lat="45.818166" lon="9.427221"><time>2024-03-23T07:35:20.000Z</time><ele>393.2</ele></trkpt><trkpt lat="45.818174" lon="9.427226"><time>2024-03-23T07:35:21.000Z</time><ele>393</ele></trkpt><trkpt lat="45.818176" lon="9.427227"><time>2024-03-23T07:35:22.000Z</time><ele>392.8</ele></trkpt><trkpt lat="45.818176" lon="9.42723"><time>2024-03-23T07:35:23.000Z</time><ele>392.6</ele></trkpt><trkpt lat="45.818177" lon="9.427237"><time>2024-03-23T07:35:24.000Z</time><ele>392.2</ele></trkpt><trkpt lat="45.818181" lon="9.427251"><time>2024-03-23T07:35:25.000Z</time><ele>392</ele></trkpt><trkpt lat="45.818185" lon="9.427258"><time>2024-03-23T07:35:26.000Z</time><ele>391.4</ele></trkpt><trkpt lat="45.818187" lon="9.427263"><time>2024-03-23T07:35:27.000Z</time><ele>391.2</ele></trkpt><trkpt lat="45.818192" lon="9.427269"><time>2024-03-23T07:35:28.000Z</time><ele>391</ele></trkpt><trkpt lat="45.818201" lon="9.427279"><time>2024-03-23T07:35:29.000Z</time><ele>390.8</ele></trkpt><trkpt lat="45.818212" lon="9.427281"><time>2024-03-23T07:35:30.000Z</time><ele>390.6</ele></trkpt><trkpt lat="45.818226" lon="9.427286"><time>2024-03-23T07:35:31.000Z</time><ele>390.4</ele></trkpt><trkpt lat="45.818242" lon="9.427296"><time>2024-03-23T07:35:32.000Z</time><ele>390.4</ele></trkpt><trkpt lat="45.818254" lon="9.427299"><time>2024-03-23T07:35:33.000Z</time><ele>390.2</ele></trkpt><trkpt lat="45.818265" lon="9.427294"><time>2024-03-23T07:35:34.000Z</time><ele>389.8</ele></trkpt><trkpt lat="45.818268" lon="9.427293"><time>2024-03-23T07:35:35.000Z</time><ele>389.4</ele></trkpt><trkpt lat="45.818271" lon="9.427293"><time>2024-03-23T07:35:36.000Z</time><ele>389</ele></trkpt><trkpt lat="45.818272" lon="9.427293"><time>2024-03-23T07:35:37.000Z</time><ele>388.8</ele></trkpt><trkpt lat="45.818277" lon="9.427302"><time>2024-03-23T07:35:38.000Z</time><ele>388.8</ele></trkpt><trkpt lat="45.818283" lon="9.427315"><time>2024-03-23T07:35:39.000Z</time><ele>388.4</ele></trkpt><trkpt lat="45.818284" lon="9.427318"><time>2024-03-23T07:35:40.000Z</time><ele>388</ele></trkpt><trkpt lat="45.818291" lon="9.427331"><time>2024-03-23T07:35:41.000Z</time><ele>387.8</ele></trkpt><trkpt lat="45.818297" lon="9.427342"><time>2024-03-23T07:35:42.000Z</time><ele>387.4</ele></trkpt><trkpt lat="45.818301" lon="9.427347"><time>2024-03-23T07:35:43.000Z</time><ele>387.2</ele></trkpt><trkpt lat="45.818305" lon="9.427351"><time>2024-03-23T07:35:44.000Z</time><ele>386.8</ele></trkpt><trkpt lat="45.818312" lon="9.427357"><time>2024-03-23T07:35:45.000Z</time><ele>386.8</ele></trkpt><trkpt lat="45.818324" lon="9.427364"><time>2024-03-23T07:35:46.000Z</time><ele>386.4</ele></trkpt><trkpt lat="45.818333" lon="9.427374"><time>2024-03-23T07:35:47.000Z</time><ele>386.2</ele></trkpt><trkpt lat="45.81833" lon="9.42738"><time>2024-03-23T07:35:48.000Z</time><ele>385.8</ele></trkpt><trkpt lat="45.818331" lon="9.427387"><time>2024-03-23T07:35:49.000Z</time><ele>385.6</ele></trkpt><trkpt lat="45.818339" lon="9.427396"><time>2024-03-23T07:35:50.000Z</time><ele>385.4</ele></trkpt><trkpt lat="45.818348" lon="9.427404"><time>2024-03-23T07:35:51.000Z</time><ele>385.2</ele></trkpt><trkpt lat="45.818351" lon="9.427414"><time>2024-03-23T07:35:52.000Z</time><ele>385</ele></trkpt><trkpt lat="45.818365" lon="9.42743"><time>2024-03-23T07:35:53.000Z</time><ele>384.8</ele></trkpt><trkpt lat="45.818389" lon="9.427439"><time>2024-03-23T07:35:54.000Z</time><ele>384.6</ele></trkpt><trkpt lat="45.818413" lon="9.42744"><time>2024-03-23T07:35:55.000Z</time><ele>384.4</ele></trkpt><trkpt lat="45.818411" lon="9.42744"><time>2024-03-23T07:35:56.000Z</time><ele>384</ele></trkpt><trkpt lat="45.81841" lon="9.427443"><time>2024-03-23T07:35:57.000Z</time><ele>383.8</ele></trkpt><trkpt lat="45.818409" lon="9.427443"><time>2024-03-23T07:35:58.000Z</time><ele>383.6</ele></trkpt><trkpt lat="45.818424" lon="9.427438"><time>2024-03-23T07:35:59.000Z</time><ele>383.4</ele></trkpt><trkpt lat="45.818421" lon="9.427421"><time>2024-03-23T07:36:00.000Z</time><ele>383.2</ele></trkpt><trkpt lat="45.818428" lon="9.427402"><time>2024-03-23T07:36:01.000Z</time><ele>383</ele></trkpt><trkpt lat="45.818436" lon="9.427382"><time>2024-03-23T07:36:02.000Z</time><ele>382.8</ele></trkpt><trkpt lat="45.818434" lon="9.427366"><time>2024-03-23T07:36:03.000Z</time><ele>382.8</ele></trkpt><trkpt lat="45.818432" lon="9.427354"><time>2024-03-23T07:36:04.000Z</time><ele>382.8</ele></trkpt><trkpt lat="45.818442" lon="9.427335"><time>2024-03-23T07:36:05.000Z</time><ele>382.8</ele></trkpt><trkpt lat="45.818444" lon="9.427319"><time>2024-03-23T07:36:06.000Z</time><ele>382.8</ele></trkpt><trkpt lat="45.81845" lon="9.427312"><time>2024-03-23T07:36:07.000Z</time><ele>382.8</ele></trkpt><trkpt lat="45.818454" lon="9.427303"><time>2024-03-23T07:36:08.000Z</time><ele>382.8</ele></trkpt><trkpt lat="45.818464" lon="9.427294"><time>2024-03-23T07:36:09.000Z</time><ele>383</ele></trkpt><trkpt lat="45.818464" lon="9.427283"><time>2024-03-23T07:36:10.000Z</time><ele>383.2</ele></trkpt><trkpt lat="45.818454" lon="9.427275"><time>2024-03-23T07:36:11.000Z</time><ele>383.2</ele></trkpt><trkpt lat="45.818449" lon="9.42727"><time>2024-03-23T07:36:12.000Z</time><ele>383.4</ele></trkpt><trkpt lat="45.818456" lon="9.42726"><time>2024-03-23T07:36:13.000Z</time><ele>383.6</ele></trkpt><trkpt lat="45.818452" lon="9.427254"><time>2024-03-23T07:36:14.000Z</time><ele>383.8</ele></trkpt><trkpt lat="45.818448" lon="9.42725"><time>2024-03-23T07:36:15.000Z</time><ele>384.2</ele></trkpt><trkpt lat="45.818446" lon="9.427235"><time>2024-03-23T07:36:16.000Z</time><ele>384.4</ele></trkpt><trkpt lat="45.818444" lon="9.427225"><time>2024-03-23T07:36:17.000Z</time><ele>384.6</ele></trkpt><trkpt lat="45.818445" lon="9.427211"><time>2024-03-23T07:36:18.000Z</time><ele>384.8</ele></trkpt><trkpt lat="45.818443" lon="9.427196"><time>2024-03-23T07:36:19.000Z</time><ele>385</ele></trkpt><trkpt lat="45.818452" lon="9.427179"><time>2024-03-23T07:36:20.000Z</time><ele>385</ele></trkpt><trkpt lat="45.818457" lon="9.427168"><time>2024-03-23T07:36:21.000Z</time><ele>385</ele></trkpt><trkpt lat="45.818462" lon="9.42716"><time>2024-03-23T07:36:22.000Z</time><ele>385.2</ele></trkpt><trkpt lat="45.818468" lon="9.427158"><time>2024-03-23T07:36:23.000Z</time><ele>385.4</ele></trkpt><trkpt lat="45.818472" lon="9.427148"><time>2024-03-23T07:36:24.000Z</time><ele>385.6</ele></trkpt><trkpt lat="45.818475" lon="9.427136"><time>2024-03-23T07:36:25.000Z</time><ele>385.6</ele></trkpt><trkpt lat="45.818478" lon="9.427124"><time>2024-03-23T07:36:26.000Z</time><ele>385.8</ele></trkpt><trkpt lat="45.818477" lon="9.427109"><time>2024-03-23T07:36:27.000Z</time><ele>386</ele></trkpt><trkpt lat="45.818477" lon="9.427096"><time>2024-03-23T07:36:28.000Z</time><ele>386.2</ele></trkpt><trkpt lat="45.818477" lon="9.427079"><time>2024-03-23T07:36:29.000Z</time><ele>386.4</ele></trkpt><trkpt lat="45.818479" lon="9.427063"><time>2024-03-23T07:36:30.000Z</time><ele>386.6</ele></trkpt><trkpt lat="45.818481" lon="9.427058"><time>2024-03-23T07:36:31.000Z</time><ele>386.8</ele></trkpt><trkpt lat="45.818485" lon="9.427057"><time>2024-03-23T07:36:32.000Z</time><ele>387</ele></trkpt><trkpt lat="45.8185" lon="9.427049"><time>2024-03-23T07:36:33.000Z</time><ele>387.2</ele></trkpt><trkpt lat="45.818511" lon="9.427043"><time>2024-03-23T07:36:34.000Z</time><ele>387.2</ele></trkpt><trkpt lat="45.81852" lon="9.427033"><time>2024-03-23T07:36:35.000Z</time><ele>387.4</ele></trkpt><trkpt lat="45.818523" lon="9.427023"><time>2024-03-23T07:36:36.000Z</time><ele>387.6</ele></trkpt><trkpt lat="45.818522" lon="9.427014"><time>2024-03-23T07:36:37.000Z</time><ele>387.8</ele></trkpt><trkpt lat="45.818527" lon="9.427017"><time>2024-03-23T07:36:38.000Z</time><ele>388</ele></trkpt><trkpt lat="45.818529" lon="9.427012"><time>2024-03-23T07:36:39.000Z</time><ele>388.2</ele></trkpt><trkpt lat="45.818532" lon="9.427"><time>2024-03-23T07:36:40.000Z</time><ele>388.4</ele></trkpt><trkpt lat="45.818536" lon="9.426985"><time>2024-03-23T07:36:41.000Z</time><ele>388.6</ele></trkpt><trkpt lat="45.818537" lon="9.42698"><time>2024-03-23T07:36:42.000Z</time><ele>388.8</ele></trkpt><trkpt lat="45.818545" lon="9.426973"><time>2024-03-23T07:36:43.000Z</time><ele>389.2</ele></trkpt><trkpt lat="45.818547" lon="9.42697"><time>2024-03-23T07:36:44.000Z</time><ele>389.4</ele></trkpt><trkpt lat="45.818555" lon="9.426972"><time>2024-03-23T07:36:45.000Z</time><ele>389.6</ele></trkpt><trkpt lat="45.818564" lon="9.426973"><time>2024-03-23T07:36:46.000Z</time><ele>389.8</ele></trkpt><trkpt lat="45.818568" lon="9.426974"><time>2024-03-23T07:36:47.000Z</time><ele>390</ele></trkpt><trkpt lat="45.81857" lon="9.426967"><time>2024-03-23T07:36:48.000Z</time><ele>390.2</ele></trkpt><trkpt lat="45.81857" lon="9.426961"><time>2024-03-23T07:36:49.000Z</time><ele>390.2</ele></trkpt><trkpt lat="45.818572" lon="9.426956"><time>2024-03-23T07:36:50.000Z</time><ele>390.4</ele></trkpt><trkpt lat="45.818587" lon="9.426957"><time>2024-03-23T07:36:51.000Z</time><ele>390.8</ele></trkpt><trkpt lat="45.818589" lon="9.426955"><time>2024-03-23T07:36:52.000Z</time><ele>391</ele></trkpt><trkpt lat="45.818591" lon="9.426953"><time>2024-03-23T07:36:53.000Z</time><ele>391.2</ele></trkpt><trkpt lat="45.818606" lon="9.426953"><time>2024-03-23T07:36:54.000Z</time><ele>391.4</ele></trkpt><trkpt lat="45.818608" lon="9.42695"><time>2024-03-23T07:36:55.000Z</time><ele>391.6</ele></trkpt><trkpt lat="45.81861" lon="9.426947"><time>2024-03-23T07:36:56.000Z</time><ele>391.8</ele></trkpt><trkpt lat="45.818615" lon="9.426947"><time>2024-03-23T07:36:57.000Z</time><ele>392</ele></trkpt><trkpt lat="45.818617" lon="9.426945"><time>2024-03-23T07:36:58.000Z</time><ele>392.2</ele></trkpt><trkpt lat="45.818619" lon="9.426943"><time>2024-03-23T07:36:59.000Z</time><ele>392.2</ele></trkpt><trkpt lat="45.81862" lon="9.426942"><time>2024-03-23T07:37:00.000Z</time><ele>392.6</ele></trkpt><trkpt lat="45.81862" lon="9.426941"><time>2024-03-23T07:37:01.000Z</time><ele>392.8</ele></trkpt><trkpt lat="45.818621" lon="9.426939"><time>2024-03-23T07:37:02.000Z</time><ele>393.2</ele></trkpt><trkpt lat="45.818627" lon="9.426945"><time>2024-03-23T07:37:03.000Z</time><ele>393.4</ele></trkpt><trkpt lat="45.818629" lon="9.426945"><time>2024-03-23T07:37:04.000Z</time><ele>393.6</ele></trkpt><trkpt lat="45.818631" lon="9.426947"><time>2024-03-23T07:37:05.000Z</time><ele>393.6</ele></trkpt><trkpt lat="45.818633" lon="9.426952"><time>2024-03-23T07:37:06.000Z</time><ele>393.8</ele></trkpt><trkpt lat="45.818636" lon="9.426953"><time>2024-03-23T07:37:07.000Z</time><ele>394</ele></trkpt><trkpt lat="45.818639" lon="9.426951"><time>2024-03-23T07:37:08.000Z</time><ele>394.2</ele></trkpt><trkpt lat="45.81864" lon="9.426946"><time>2024-03-23T07:37:09.000Z</time><ele>394.4</ele></trkpt><trkpt lat="45.818644" lon="9.426946"><time>2024-03-23T07:37:10.000Z</time><ele>394.4</ele></trkpt><trkpt lat="45.818654" lon="9.426954"><time>2024-03-23T07:37:11.000Z</time><ele>394.6</ele></trkpt><trkpt lat="45.818661" lon="9.426949"><time>2024-03-23T07:37:12.000Z</time><ele>394.8</ele></trkpt><trkpt lat="45.818666" lon="9.426943"><time>2024-03-23T07:37:13.000Z</time><ele>394.8</ele></trkpt><trkpt lat="45.818672" lon="9.426943"><time>2024-03-23T07:37:14.000Z</time><ele>395.2</ele></trkpt><trkpt lat="45.818675" lon="9.426943"><time>2024-03-23T07:37:15.000Z</time><ele>395.4</ele></trkpt><trkpt lat="45.81868" lon="9.426943"><time>2024-03-23T07:37:16.000Z</time><ele>395.6</ele></trkpt><trkpt lat="45.81869" lon="9.426944"><time>2024-03-23T07:37:17.000Z</time><ele>395.8</ele></trkpt><trkpt lat="45.818699" lon="9.426944"><time>2024-03-23T07:37:18.000Z</time><ele>396</ele></trkpt><trkpt lat="45.818702" lon="9.426948"><time>2024-03-23T07:37:19.000Z</time><ele>396</ele></trkpt><trkpt lat="45.818703" lon="9.426949"><time>2024-03-23T07:37:20.000Z</time><ele>396.2</ele></trkpt><trkpt lat="45.818706" lon="9.426959"><time>2024-03-23T07:37:21.000Z</time><ele>396.4</ele></trkpt><trkpt lat="45.81871" lon="9.426974"><time>2024-03-23T07:37:22.000Z</time><ele>396.6</ele></trkpt><trkpt lat="45.81871" lon="9.426981"><time>2024-03-23T07:37:23.000Z</time><ele>396.8</ele></trkpt><trkpt lat="45.818709" lon="9.426987"><time>2024-03-23T07:37:24.000Z</time><ele>396.8</ele></trkpt><trkpt lat="45.818711" lon="9.426996"><time>2024-03-23T07:37:25.000Z</time><ele>397</ele></trkpt><trkpt lat="45.818712" lon="9.427"><time>2024-03-23T07:37:26.000Z</time><ele>397.2</ele></trkpt><trkpt lat="45.818711" lon="9.427002"><time>2024-03-23T07:37:27.000Z</time><ele>397.4</ele></trkpt><trkpt lat="45.818714" lon="9.427001"><time>2024-03-23T07:37:28.000Z</time><ele>397.6</ele></trkpt><trkpt lat="45.818715" lon="9.427"><time>2024-03-23T07:37:29.000Z</time><ele>398</ele></trkpt><trkpt lat="45.818715" lon="9.426998"><time>2024-03-23T07:37:30.000Z</time><ele>398.2</ele></trkpt><trkpt lat="45.818716" lon="9.426997"><time>2024-03-23T07:37:31.000Z</time><ele>398.4</ele></trkpt><trkpt lat="45.818718" lon="9.426997"><time>2024-03-23T07:37:32.000Z</time><ele>398.6</ele></trkpt><trkpt lat="45.81872" lon="9.426996"><time>2024-03-23T07:37:33.000Z</time><ele>398.8</ele></trkpt><trkpt lat="45.818722" lon="9.426993"><time>2024-03-23T07:37:34.000Z</time><ele>398.8</ele></trkpt><trkpt lat="45.818722" lon="9.426998"><time>2024-03-23T07:37:35.000Z</time><ele>398.8</ele></trkpt><trkpt lat="45.818721" lon="9.427"><time>2024-03-23T07:37:36.000Z</time><ele>399</ele></trkpt><trkpt lat="45.818723" lon="9.427006"><time>2024-03-23T07:37:37.000Z</time><ele>399.2</ele></trkpt><trkpt lat="45.818728" lon="9.427014"><time>2024-03-23T07:37:38.000Z</time><ele>399.4</ele></trkpt><trkpt lat="45.818731" lon="9.427026"><time>2024-03-23T07:37:39.000Z</time><ele>399.6</ele></trkpt><trkpt lat="45.818731" lon="9.42703"><time>2024-03-23T07:37:40.000Z</time><ele>399.6</ele></trkpt><trkpt lat="45.818731" lon="9.427032"><time>2024-03-23T07:37:41.000Z</time><ele>399.8</ele></trkpt><trkpt lat="45.818732" lon="9.427038"><time>2024-03-23T07:37:42.000Z</time><ele>400</ele></trkpt><trkpt lat="45.818734" lon="9.42704"><time>2024-03-23T07:37:43.000Z</time><ele>400.2</ele></trkpt><trkpt lat="45.818738" lon="9.427046"><time>2024-03-23T07:37:44.000Z</time><ele>400.2</ele></trkpt><trkpt lat="45.818745" lon="9.42705"><time>2024-03-23T07:37:45.000Z</time><ele>400.4</ele></trkpt><trkpt lat="45.818745" lon="9.427051"><time>2024-03-23T07:37:46.000Z</time><ele>400.8</ele></trkpt><trkpt lat="45.81874" lon="9.42705"><time>2024-03-23T07:37:47.000Z</time><ele>401</ele></trkpt><trkpt lat="45.818738" lon="9.427052"><time>2024-03-23T07:37:48.000Z</time><ele>401.2</ele></trkpt><trkpt lat="45.818737" lon="9.427053"><time>2024-03-23T07:37:49.000Z</time><ele>401.4</ele></trkpt><trkpt lat="45.818738" lon="9.42705"><time>2024-03-23T07:37:50.000Z</time><ele>401.6</ele></trkpt><trkpt lat="45.818741" lon="9.427049"><time>2024-03-23T07:37:51.000Z</time><ele>401.8</ele></trkpt><trkpt lat="45.818745" lon="9.427053"><time>2024-03-23T07:37:52.000Z</time><ele>402</ele></trkpt><trkpt lat="45.818748" lon="9.427056"><time>2024-03-23T07:37:53.000Z</time><ele>402.2</ele></trkpt><trkpt lat="45.818749" lon="9.427065"><time>2024-03-23T07:37:54.000Z</time><ele>402.4</ele></trkpt><trkpt lat="45.818749" lon="9.427069"><time>2024-03-23T07:37:55.000Z</time><ele>402.6</ele></trkpt><trkpt lat="45.81875" lon="9.427073"><time>2024-03-23T07:37:56.000Z</time><ele>402.8</ele></trkpt><trkpt lat="45.818751" lon="9.427073"><time>2024-03-23T07:37:57.000Z</time><ele>402.8</ele></trkpt><trkpt lat="45.818752" lon="9.427074"><time>2024-03-23T07:37:58.000Z</time><ele>403</ele></trkpt><trkpt lat="45.818749" lon="9.427072"><time>2024-03-23T07:37:59.000Z</time><ele>403.4</ele></trkpt><trkpt lat="45.818747" lon="9.427072"><time>2024-03-23T07:38:00.000Z</time><ele>403.6</ele></trkpt><trkpt lat="45.818745" lon="9.427072"><time>2024-03-23T07:38:01.000Z</time><ele>403.6</ele></trkpt><trkpt lat="45.818743" lon="9.427071"><time>2024-03-23T07:38:02.000Z</time><ele>403.8</ele></trkpt><trkpt lat="45.818744" lon="9.427073"><time>2024-03-23T07:38:03.000Z</time><ele>404</ele></trkpt><trkpt lat="45.818745" lon="9.427076"><time>2024-03-23T07:38:04.000Z</time><ele>404.2</ele></trkpt><trkpt lat="45.818746" lon="9.427075"><time>2024-03-23T07:38:05.000Z</time><ele>404.2</ele></trkpt><trkpt lat="45.818747" lon="9.427074"><time>2024-03-23T07:38:06.000Z</time><ele>404.4</ele></trkpt><trkpt lat="45.818748" lon="9.427074"><time>2024-03-23T07:38:07.000Z</time><ele>404.6</ele></trkpt><trkpt lat="45.818748" lon="9.427074"><time>2024-03-23T07:38:08.000Z</time><ele>405</ele></trkpt><trkpt lat="45.818748" lon="9.427074"><time>2024-03-23T07:38:09.000Z</time><ele>405.2</ele></trkpt><trkpt lat="45.818748" lon="9.427074"><time>2024-03-23T07:38:10.000Z</time><ele>405.4</ele></trkpt><trkpt lat="45.818748" lon="9.427074"><time>2024-03-23T07:38:11.000Z</time><ele>405.4</ele></trkpt><trkpt lat="45.818748" lon="9.427074"><time>2024-03-23T07:38:12.000Z</time><ele>405.6</ele></trkpt><trkpt lat="45.818748" lon="9.427074"><time>2024-03-23T07:38:13.000Z</time><ele>405.8</ele></trkpt><trkpt lat="45.818748" lon="9.427074"><time>2024-03-23T07:38:14.000Z</time><ele>406</ele></trkpt><trkpt lat="45.818748" lon="9.427074"><time>2024-03-23T07:38:15.000Z</time><ele>406.2</ele></trkpt><trkpt lat="45.818748" lon="9.427074"><time>2024-03-23T07:38:16.000Z</time><ele>406.2</ele></trkpt><trkpt lat="45.818747" lon="9.427074"><time>2024-03-23T07:38:17.000Z</time><ele>406.4</ele></trkpt><trkpt lat="45.818747" lon="9.427074"><time>2024-03-23T07:38:18.000Z</time><ele>406.4</ele></trkpt><trkpt lat="45.818746" lon="9.427074"><time>2024-03-23T07:38:19.000Z</time><ele>406.6</ele></trkpt><trkpt lat="45.818746" lon="9.427074"><time>2024-03-23T07:38:20.000Z</time><ele>406.8</ele></trkpt><trkpt lat="45.818745" lon="9.427075"><time>2024-03-23T07:38:21.000Z</time><ele>407</ele></trkpt><trkpt lat="45.818745" lon="9.427075"><time>2024-03-23T07:38:22.000Z</time><ele>407</ele></trkpt><trkpt lat="45.818744" lon="9.427083"><time>2024-03-23T07:38:23.000Z</time><ele>407.2</ele></trkpt><trkpt lat="45.818744" lon="9.427091"><time>2024-03-23T07:38:24.000Z</time><ele>407.4</ele></trkpt><trkpt lat="45.818749" lon="9.427101"><time>2024-03-23T07:38:25.000Z</time><ele>407.6</ele></trkpt><trkpt lat="45.818752" lon="9.427105"><time>2024-03-23T07:38:26.000Z</time><ele>407.8</ele></trkpt><trkpt lat="45.818752" lon="9.42711"><time>2024-03-23T07:38:27.000Z</time><ele>408</ele></trkpt><trkpt lat="45.818752" lon="9.427115"><time>2024-03-23T07:38:28.000Z</time><ele>408.2</ele></trkpt><trkpt lat="45.818751" lon="9.427122"><time>2024-03-23T07:38:29.000Z</time><ele>408.4</ele></trkpt><trkpt lat="45.818748" lon="9.427127"><time>2024-03-23T07:38:30.000Z</time><ele>408.6</ele></trkpt><trkpt lat="45.818746" lon="9.427131"><time>2024-03-23T07:38:31.000Z</time><ele>408.6</ele></trkpt><trkpt lat="45.818747" lon="9.427134"><time>2024-03-23T07:38:32.000Z</time><ele>408.8</ele></trkpt><trkpt lat="45.81875" lon="9.42713"><time>2024-03-23T07:38:33.000Z</time><ele>408.8</ele></trkpt><trkpt lat="45.818756" lon="9.427129"><time>2024-03-23T07:38:34.000Z</time><ele>408.8</ele></trkpt><trkpt lat="45.818762" lon="9.427133"><time>2024-03-23T07:38:35.000Z</time><ele>408.8</ele></trkpt><trkpt lat="45.818766" lon="9.427134"><time>2024-03-23T07:38:36.000Z</time><ele>408.8</ele></trkpt><trkpt lat="45.818774" lon="9.427138"><time>2024-03-23T07:38:37.000Z</time><ele>409</ele></trkpt><trkpt lat="45.818785" lon="9.427144"><time>2024-03-23T07:38:38.000Z</time><ele>409</ele></trkpt><trkpt lat="45.818793" lon="9.427153"><time>2024-03-23T07:38:39.000Z</time><ele>409</ele></trkpt><trkpt lat="45.818802" lon="9.427154"><time>2024-03-23T07:38:40.000Z</time><ele>409</ele></trkpt><trkpt lat="45.818808" lon="9.427152"><time>2024-03-23T07:38:41.000Z</time><ele>409</ele></trkpt><trkpt lat="45.818816" lon="9.427149"><time>2024-03-23T07:38:42.000Z</time><ele>409</ele></trkpt><trkpt lat="45.818826" lon="9.42714"><time>2024-03-23T07:38:43.000Z</time><ele>409.2</ele></trkpt><trkpt lat="45.818833" lon="9.42713"><time>2024-03-23T07:38:44.000Z</time><ele>409.2</ele></trkpt><trkpt lat="45.818841" lon="9.427131"><time>2024-03-23T07:38:45.000Z</time><ele>409.2</ele></trkpt><trkpt lat="45.818853" lon="9.427135"><time>2024-03-23T07:38:46.000Z</time><ele>409.2</ele></trkpt><trkpt lat="45.818865" lon="9.427136"><time>2024-03-23T07:38:47.000Z</time><ele>409.4</ele></trkpt><trkpt lat="45.818874" lon="9.427136"><time>2024-03-23T07:38:48.000Z</time><ele>409.4</ele></trkpt><trkpt lat="45.818884" lon="9.427135"><time>2024-03-23T07:38:49.000Z</time><ele>409.4</ele></trkpt><trkpt lat="45.818895" lon="9.427138"><time>2024-03-23T07:38:50.000Z</time><ele>409.4</ele></trkpt><trkpt lat="45.818905" lon="9.427134"><time>2024-03-23T07:38:51.000Z</time><ele>409.4</ele></trkpt><trkpt lat="45.818915" lon="9.427126"><time>2024-03-23T07:38:52.000Z</time><ele>409.2</ele></trkpt><trkpt lat="45.818923" lon="9.427121"><time>2024-03-23T07:38:53.000Z</time><ele>409.2</ele></trkpt><trkpt lat="45.818933" lon="9.427117"><time>2024-03-23T07:38:54.000Z</time><ele>409.4</ele></trkpt><trkpt lat="45.818943" lon="9.427114"><time>2024-03-23T07:38:55.000Z</time><ele>409.4</ele></trkpt><trkpt lat="45.818963" lon="9.427116"><time>2024-03-23T07:38:56.000Z</time><ele>409.4</ele></trkpt><trkpt lat="45.818981" lon="9.427109"><time>2024-03-23T07:38:57.000Z</time><ele>409.4</ele></trkpt><trkpt lat="45.818993" lon="9.427102"><time>2024-03-23T07:38:58.000Z</time><ele>409.4</ele></trkpt><trkpt lat="45.819004" lon="9.427095"><time>2024-03-23T07:38:59.000Z</time><ele>409.6</ele></trkpt><trkpt lat="45.819015" lon="9.427087"><time>2024-03-23T07:39:00.000Z</time><ele>409.8</ele></trkpt><trkpt lat="45.819021" lon="9.427078"><time>2024-03-23T07:39:01.000Z</time><ele>409.8</ele></trkpt><trkpt lat="45.819033" lon="9.427077"><time>2024-03-23T07:39:02.000Z</time><ele>409.8</ele></trkpt><trkpt lat="45.819046" lon="9.427083"><time>2024-03-23T07:39:03.000Z</time><ele>410</ele></trkpt><trkpt lat="45.819056" lon="9.42709"><time>2024-03-23T07:39:04.000Z</time><ele>410</ele></trkpt><trkpt lat="45.819065" lon="9.427095"><time>2024-03-23T07:39:05.000Z</time><ele>410</ele></trkpt><trkpt lat="45.81907" lon="9.427094"><time>2024-03-23T07:39:06.000Z</time><ele>410</ele></trkpt><trkpt lat="45.81907" lon="9.427085"><time>2024-03-23T07:39:07.000Z</time><ele>410</ele></trkpt><trkpt lat="45.81907" lon="9.427072"><time>2024-03-23T07:39:08.000Z</time><ele>410</ele></trkpt><trkpt lat="45.819071" lon="9.427065"><time>2024-03-23T07:39:09.000Z</time><ele>410</ele></trkpt><trkpt lat="45.819079" lon="9.427062"><time>2024-03-23T07:39:10.000Z</time><ele>410.2</ele></trkpt><trkpt lat="45.819087" lon="9.42706"><time>2024-03-23T07:39:11.000Z</time><ele>410.4</ele></trkpt><trkpt lat="45.819092" lon="9.427069"><time>2024-03-23T07:39:12.000Z</time><ele>410.6</ele></trkpt><trkpt lat="45.819097" lon="9.427072"><time>2024-03-23T07:39:13.000Z</time><ele>410.8</ele></trkpt><trkpt lat="45.819101" lon="9.42707"><time>2024-03-23T07:39:14.000Z</time><ele>411</ele></trkpt><trkpt lat="45.819107" lon="9.427079"><time>2024-03-23T07:39:15.000Z</time><ele>411</ele></trkpt><trkpt lat="45.81911" lon="9.427082"><time>2024-03-23T07:39:16.000Z</time><ele>411.2</ele></trkpt><trkpt lat="45.819111" lon="9.427085"><time>2024-03-23T07:39:17.000Z</time><ele>411.6</ele></trkpt><trkpt lat="45.81911" lon="9.427084"><time>2024-03-23T07:39:18.000Z</time><ele>411.8</ele></trkpt><trkpt lat="45.819113" lon="9.427085"><time>2024-03-23T07:39:19.000Z</time><ele>412</ele></trkpt><trkpt lat="45.819118" lon="9.427084"><time>2024-03-23T07:39:20.000Z</time><ele>412.4</ele></trkpt><trkpt lat="45.819125" lon="9.427085"><time>2024-03-23T07:39:21.000Z</time><ele>412.4</ele></trkpt><trkpt lat="45.819131" lon="9.427084"><time>2024-03-23T07:39:22.000Z</time><ele>412.6</ele></trkpt><trkpt lat="45.819135" lon="9.427075"><time>2024-03-23T07:39:23.000Z</time><ele>412.8</ele></trkpt><trkpt lat="45.819143" lon="9.427073"><time>2024-03-23T07:39:24.000Z</time><ele>413</ele></trkpt><trkpt lat="45.819146" lon="9.42707"><time>2024-03-23T07:39:25.000Z</time><ele>413.2</ele></trkpt><trkpt lat="45.819148" lon="9.427061"><time>2024-03-23T07:39:26.000Z</time><ele>413.4</ele></trkpt><trkpt lat="45.81915" lon="9.427056"><time>2024-03-23T07:39:27.000Z</time><ele>413.6</ele></trkpt><trkpt lat="45.819158" lon="9.427052"><time>2024-03-23T07:39:28.000Z</time><ele>413.8</ele></trkpt><trkpt lat="45.819165" lon="9.427046"><time>2024-03-23T07:39:29.000Z</time><ele>413.8</ele></trkpt><trkpt lat="45.819176" lon="9.427035"><time>2024-03-23T07:39:30.000Z</time><ele>413.8</ele></trkpt><trkpt lat="45.819183" lon="9.427025"><time>2024-03-23T07:39:31.000Z</time><ele>414</ele></trkpt><trkpt lat="45.819192" lon="9.427017"><time>2024-03-23T07:39:32.000Z</time><ele>414</ele></trkpt><trkpt lat="45.819206" lon="9.427006"><time>2024-03-23T07:39:33.000Z</time><ele>414</ele></trkpt><trkpt lat="45.819219" lon="9.427001"><time>2024-03-23T07:39:34.000Z</time><ele>414.2</ele></trkpt><trkpt lat="45.819231" lon="9.426994"><time>2024-03-23T07:39:35.000Z</time><ele>414.4</ele></trkpt><trkpt lat="45.819242" lon="9.426992"><time>2024-03-23T07:39:36.000Z</time><ele>414.4</ele></trkpt><trkpt lat="45.819251" lon="9.426989"><time>2024-03-23T07:39:37.000Z</time><ele>414.6</ele></trkpt><trkpt lat="45.819255" lon="9.426986"><time>2024-03-23T07:39:38.000Z</time><ele>414.8</ele></trkpt><trkpt lat="45.819266" lon="9.426976"><time>2024-03-23T07:39:39.000Z</time><ele>415</ele></trkpt><trkpt lat="45.81928" lon="9.426961"><time>2024-03-23T07:39:40.000Z</time><ele>415.2</ele></trkpt><trkpt lat="45.819293" lon="9.426958"><time>2024-03-23T07:39:41.000Z</time><ele>415.4</ele></trkpt><trkpt lat="45.819299" lon="9.42696"><time>2024-03-23T07:39:42.000Z</time><ele>415.6</ele></trkpt><trkpt lat="45.819309" lon="9.426989"><time>2024-03-23T07:39:43.000Z</time><ele>415.6</ele></trkpt><trkpt lat="45.819312" lon="9.426993"><time>2024-03-23T07:39:44.000Z</time><ele>415.8</ele></trkpt><trkpt lat="45.819317" lon="9.426995"><time>2024-03-23T07:39:45.000Z</time><ele>416</ele></trkpt><trkpt lat="45.819326" lon="9.427007"><time>2024-03-23T07:39:46.000Z</time><ele>416</ele></trkpt><trkpt lat="45.819338" lon="9.427021"><time>2024-03-23T07:39:47.000Z</time><ele>416.4</ele></trkpt><trkpt lat="45.819343" lon="9.427021"><time>2024-03-23T07:39:48.000Z</time><ele>416.6</ele></trkpt><trkpt lat="45.819347" lon="9.427023"><time>2024-03-23T07:39:49.000Z</time><ele>416.6</ele></trkpt><trkpt lat="45.819354" lon="9.427027"><time>2024-03-23T07:39:50.000Z</time><ele>416.8</ele></trkpt><trkpt lat="45.819362" lon="9.427023"><time>2024-03-23T07:39:51.000Z</time><ele>416.8</ele></trkpt><trkpt lat="45.819379" lon="9.427011"><time>2024-03-23T07:39:52.000Z</time><ele>416.8</ele></trkpt><trkpt lat="45.819387" lon="9.426996"><time>2024-03-23T07:39:53.000Z</time><ele>417</ele></trkpt><trkpt lat="45.819389" lon="9.426998"><time>2024-03-23T07:39:54.000Z</time><ele>417.4</ele></trkpt><trkpt lat="45.81939" lon="9.426999"><time>2024-03-23T07:39:55.000Z</time><ele>417.6</ele></trkpt><trkpt lat="45.819382" lon="9.426992"><time>2024-03-23T07:39:56.000Z</time><ele>417.8</ele></trkpt><trkpt lat="45.819355" lon="9.426978"><time>2024-03-23T07:39:57.000Z</time><ele>418</ele></trkpt><trkpt lat="45.819355" lon="9.426984"><time>2024-03-23T07:39:58.000Z</time><ele>418.2</ele></trkpt><trkpt lat="45.81935" lon="9.426985"><time>2024-03-23T07:39:59.000Z</time><ele>418.4</ele></trkpt><trkpt lat="45.819347" lon="9.426985"><time>2024-03-23T07:40:00.000Z</time><ele>418.6</ele></trkpt><trkpt lat="45.819347" lon="9.426984"><time>2024-03-23T07:40:01.000Z</time><ele>418.8</ele></trkpt><trkpt lat="45.819344" lon="9.426983"><time>2024-03-23T07:40:02.000Z</time><ele>419</ele></trkpt><trkpt lat="45.81935" lon="9.426996"><time>2024-03-23T07:40:03.000Z</time><ele>419.2</ele></trkpt><trkpt lat="45.819351" lon="9.426996"><time>2024-03-23T07:40:04.000Z</time><ele>419.4</ele></trkpt><trkpt lat="45.819359" lon="9.427013"><time>2024-03-23T07:40:05.000Z</time><ele>419.4</ele></trkpt><trkpt lat="45.81937" lon="9.427022"><time>2024-03-23T07:40:06.000Z</time><ele>419.6</ele></trkpt><trkpt lat="45.819387" lon="9.427028"><time>2024-03-23T07:40:07.000Z</time><ele>419.6</ele></trkpt><trkpt lat="45.819394" lon="9.427027"><time>2024-03-23T07:40:08.000Z</time><ele>419.6</ele></trkpt><trkpt lat="45.819401" lon="9.427009"><time>2024-03-23T07:40:09.000Z</time><ele>419.8</ele></trkpt><trkpt lat="45.819411" lon="9.427002"><time>2024-03-23T07:40:10.000Z</time><ele>419.8</ele></trkpt><trkpt lat="45.819413" lon="9.426999"><time>2024-03-23T07:40:11.000Z</time><ele>420</ele></trkpt><trkpt lat="45.819423" lon="9.427009"><time>2024-03-23T07:40:12.000Z</time><ele>420.2</ele></trkpt><trkpt lat="45.819434" lon="9.427019"><time>2024-03-23T07:40:13.000Z</time><ele>420.4</ele></trkpt><trkpt lat="45.819438" lon="9.427028"><time>2024-03-23T07:40:14.000Z</time><ele>420.4</ele></trkpt><trkpt lat="45.81944" lon="9.427024"><time>2024-03-23T07:40:15.000Z</time><ele>420.6</ele></trkpt><trkpt lat="45.819439" lon="9.42703"><time>2024-03-23T07:40:16.000Z</time><ele>421</ele></trkpt><trkpt lat="45.819434" lon="9.427029"><time>2024-03-23T07:40:17.000Z</time><ele>421</ele></trkpt><trkpt lat="45.819436" lon="9.427048"><time>2024-03-23T07:40:18.000Z</time><ele>421.2</ele></trkpt><trkpt lat="45.819443" lon="9.427062"><time>2024-03-23T07:40:19.000Z</time><ele>421.2</ele></trkpt><trkpt lat="45.819452" lon="9.427068"><time>2024-03-23T07:40:20.000Z</time><ele>421.2</ele></trkpt><trkpt lat="45.819451" lon="9.427071"><time>2024-03-23T07:40:21.000Z</time><ele>421.2</ele></trkpt><trkpt lat="45.819454" lon="9.427068"><time>2024-03-23T07:40:22.000Z</time><ele>420.8</ele></trkpt><trkpt lat="45.81946" lon="9.427061"><time>2024-03-23T07:40:23.000Z</time><ele>420.6</ele></trkpt><trkpt lat="45.819459" lon="9.427061"><time>2024-03-23T07:40:24.000Z</time><ele>420.6</ele></trkpt><trkpt lat="45.819462" lon="9.427046"><time>2024-03-23T07:40:25.000Z</time><ele>420.6</ele></trkpt><trkpt lat="45.819463" lon="9.427043"><time>2024-03-23T07:40:26.000Z</time><ele>420.6</ele></trkpt><trkpt lat="45.819462" lon="9.427043"><time>2024-03-23T07:40:27.000Z</time><ele>420.4</ele></trkpt><trkpt lat="45.819462" lon="9.427042"><time>2024-03-23T07:40:28.000Z</time><ele>420.4</ele></trkpt><trkpt lat="45.819462" lon="9.427042"><time>2024-03-23T07:40:29.000Z</time><ele>420.4</ele></trkpt><trkpt lat="45.819462" lon="9.427042"><time>2024-03-23T07:40:30.000Z</time><ele>420.4</ele></trkpt><trkpt lat="45.819462" lon="9.427042"><time>2024-03-23T07:40:31.000Z</time><ele>420.4</ele></trkpt><trkpt lat="45.819462" lon="9.427042"><time>2024-03-23T07:40:32.000Z</time><ele>420.4</ele></trkpt><trkpt lat="45.819462" lon="9.427042"><time>2024-03-23T07:40:33.000Z</time><ele>420.4</ele></trkpt><trkpt lat="45.819462" lon="9.427042"><time>2024-03-23T07:40:34.000Z</time><ele>420.4</ele></trkpt><trkpt lat="45.819462" lon="9.427042"><time>2024-03-23T07:40:35.000Z</time><ele>420.4</ele></trkpt><trkpt lat="45.819462" lon="9.427042"><time>2024-03-23T07:40:36.000Z</time><ele>420.4</ele></trkpt><trkpt lat="45.819462" lon="9.427043"><time>2024-03-23T07:40:37.000Z</time><ele>420.6</ele></trkpt><trkpt lat="45.819462" lon="9.427043"><time>2024-03-23T07:40:38.000Z</time><ele>420.6</ele></trkpt><trkpt lat="45.819462" lon="9.427046"><time>2024-03-23T07:40:39.000Z</time><ele>420.6</ele></trkpt><trkpt lat="45.819467" lon="9.427051"><time>2024-03-23T07:40:40.000Z</time><ele>420.6</ele></trkpt><trkpt lat="45.819477" lon="9.427056"><time>2024-03-23T07:40:41.000Z</time><ele>420.8</ele></trkpt><trkpt lat="45.819491" lon="9.427058"><time>2024-03-23T07:40:42.000Z</time><ele>420.8</ele></trkpt><trkpt lat="45.819505" lon="9.427055"><time>2024-03-23T07:40:43.000Z</time><ele>420.8</ele></trkpt><trkpt lat="45.819517" lon="9.427061"><time>2024-03-23T07:40:44.000Z</time><ele>420.8</ele></trkpt><trkpt lat="45.819522" lon="9.427069"><time>2024-03-23T07:40:45.000Z</time><ele>420.8</ele></trkpt><trkpt lat="45.819532" lon="9.427085"><time>2024-03-23T07:40:46.000Z</time><ele>421</ele></trkpt><trkpt lat="45.819541" lon="9.427101"><time>2024-03-23T07:40:47.000Z</time><ele>421</ele></trkpt><trkpt lat="45.819549" lon="9.427116"><time>2024-03-23T07:40:48.000Z</time><ele>421.2</ele></trkpt><trkpt lat="45.819554" lon="9.427128"><time>2024-03-23T07:40:49.000Z</time><ele>421.2</ele></trkpt><trkpt lat="45.819557" lon="9.427131"><time>2024-03-23T07:40:50.000Z</time><ele>421.6</ele></trkpt><trkpt lat="45.819562" lon="9.427136"><time>2024-03-23T07:40:51.000Z</time><ele>421.8</ele></trkpt><trkpt lat="45.819565" lon="9.427142"><time>2024-03-23T07:40:52.000Z</time><ele>422</ele></trkpt><trkpt lat="45.819571" lon="9.427147"><time>2024-03-23T07:40:53.000Z</time><ele>422.2</ele></trkpt><trkpt lat="45.819576" lon="9.427147"><time>2024-03-23T07:40:54.000Z</time><ele>422.4</ele></trkpt><trkpt lat="45.81958" lon="9.427147"><time>2024-03-23T07:40:55.000Z</time><ele>422.4</ele></trkpt><trkpt lat="45.819583" lon="9.427141"><time>2024-03-23T07:40:56.000Z</time><ele>422.6</ele></trkpt><trkpt lat="45.819586" lon="9.42714"><time>2024-03-23T07:40:57.000Z</time><ele>422.8</ele></trkpt><trkpt lat="45.819588" lon="9.427136"><time>2024-03-23T07:40:58.000Z</time><ele>423</ele></trkpt><trkpt lat="45.819592" lon="9.427135"><time>2024-03-23T07:40:59.000Z</time><ele>423</ele></trkpt><trkpt lat="45.819604" lon="9.427137"><time>2024-03-23T07:41:00.000Z</time><ele>423</ele></trkpt><trkpt lat="45.819622" lon="9.427136"><time>2024-03-23T07:41:01.000Z</time><ele>423.2</ele></trkpt><trkpt lat="45.819639" lon="9.427129"><time>2024-03-23T07:41:02.000Z</time><ele>423.2</ele></trkpt><trkpt lat="45.819652" lon="9.427119"><time>2024-03-23T07:41:03.000Z</time><ele>423.2</ele></trkpt><trkpt lat="45.819663" lon="9.427109"><time>2024-03-23T07:41:04.000Z</time><ele>423.2</ele></trkpt><trkpt lat="45.819676" lon="9.427106"><time>2024-03-23T07:41:05.000Z</time><ele>423.2</ele></trkpt><trkpt lat="45.81968" lon="9.427101"><time>2024-03-23T07:41:06.000Z</time><ele>423.2</ele></trkpt><trkpt lat="45.819686" lon="9.4271"><time>2024-03-23T07:41:07.000Z</time><ele>423.2</ele></trkpt><trkpt lat="45.819696" lon="9.427103"><time>2024-03-23T07:41:08.000Z</time><ele>423.2</ele></trkpt><trkpt lat="45.819701" lon="9.427104"><time>2024-03-23T07:41:09.000Z</time><ele>423.2</ele></trkpt><trkpt lat="45.819708" lon="9.427104"><time>2024-03-23T07:41:10.000Z</time><ele>423.4</ele></trkpt><trkpt lat="45.819717" lon="9.427105"><time>2024-03-23T07:41:11.000Z</time><ele>423.4</ele></trkpt><trkpt lat="45.819726" lon="9.427101"><time>2024-03-23T07:41:12.000Z</time><ele>423.4</ele></trkpt><trkpt lat="45.819735" lon="9.427096"><time>2024-03-23T07:41:13.000Z</time><ele>423.4</ele></trkpt><trkpt lat="45.819751" lon="9.427089"><time>2024-03-23T07:41:14.000Z</time><ele>423.4</ele></trkpt><trkpt lat="45.819768" lon="9.427076"><time>2024-03-23T07:41:15.000Z</time><ele>423.4</ele></trkpt><trkpt lat="45.819782" lon="9.42707"><time>2024-03-23T07:41:16.000Z</time><ele>423.4</ele></trkpt><trkpt lat="45.819797" lon="9.427085"><time>2024-03-23T07:41:17.000Z</time><ele>423.4</ele></trkpt><trkpt lat="45.819812" lon="9.427077"><time>2024-03-23T07:41:18.000Z</time><ele>423.6</ele></trkpt><trkpt lat="45.819817" lon="9.427073"><time>2024-03-23T07:41:19.000Z</time><ele>423.6</ele></trkpt><trkpt lat="45.81983" lon="9.42707"><time>2024-03-23T07:41:20.000Z</time><ele>423.8</ele></trkpt><trkpt lat="45.819846" lon="9.427066"><time>2024-03-23T07:41:21.000Z</time><ele>424</ele></trkpt><trkpt lat="45.81986" lon="9.427058"><time>2024-03-23T07:41:22.000Z</time><ele>424</ele></trkpt><trkpt lat="45.819873" lon="9.427046"><time>2024-03-23T07:41:23.000Z</time><ele>424</ele></trkpt><trkpt lat="45.819888" lon="9.42704"><time>2024-03-23T07:41:24.000Z</time><ele>424.2</ele></trkpt><trkpt lat="45.819904" lon="9.427058"><time>2024-03-23T07:41:25.000Z</time><ele>424.2</ele></trkpt><trkpt lat="45.819921" lon="9.427072"><time>2024-03-23T07:41:26.000Z</time><ele>424.2</ele></trkpt><trkpt lat="45.819931" lon="9.427069"><time>2024-03-23T07:41:27.000Z</time><ele>424.4</ele></trkpt><trkpt lat="45.819942" lon="9.427067"><time>2024-03-23T07:41:28.000Z</time><ele>424.6</ele></trkpt><trkpt lat="45.819955" lon="9.42707"><time>2024-03-23T07:41:29.000Z</time><ele>424.6</ele></trkpt><trkpt lat="45.81997" lon="9.427072"><time>2024-03-23T07:41:30.000Z</time><ele>424.8</ele></trkpt><trkpt lat="45.819984" lon="9.427067"><time>2024-03-23T07:41:31.000Z</time><ele>424.8</ele></trkpt><trkpt lat="45.819996" lon="9.427065"><time>2024-03-23T07:41:32.000Z</time><ele>424.8</ele></trkpt><trkpt lat="45.820005" lon="9.42706"><time>2024-03-23T07:41:33.000Z</time><ele>424.8</ele></trkpt><trkpt lat="45.820013" lon="9.427054"><time>2024-03-23T07:41:34.000Z</time><ele>425</ele></trkpt><trkpt lat="45.820024" lon="9.427048"><time>2024-03-23T07:41:35.000Z</time><ele>425</ele></trkpt><trkpt lat="45.820033" lon="9.427047"><time>2024-03-23T07:41:36.000Z</time><ele>425</ele></trkpt><trkpt lat="45.82004" lon="9.427046"><time>2024-03-23T07:41:37.000Z</time><ele>425</ele></trkpt><trkpt lat="45.820041" lon="9.42704"><time>2024-03-23T07:41:38.000Z</time><ele>425</ele></trkpt><trkpt lat="45.820037" lon="9.427023"><time>2024-03-23T07:41:39.000Z</time><ele>425.2</ele></trkpt><trkpt lat="45.82004" lon="9.427017"><time>2024-03-23T07:41:40.000Z</time><ele>425.2</ele></trkpt><trkpt lat="45.820052" lon="9.427005"><time>2024-03-23T07:41:41.000Z</time><ele>425.2</ele></trkpt><trkpt lat="45.820059" lon="9.426994"><time>2024-03-23T07:41:42.000Z</time><ele>425.2</ele></trkpt><trkpt lat="45.820062" lon="9.426994"><time>2024-03-23T07:41:43.000Z</time><ele>425.2</ele></trkpt><trkpt lat="45.820067" lon="9.426991"><time>2024-03-23T07:41:44.000Z</time><ele>425.2</ele></trkpt><trkpt lat="45.820068" lon="9.426994"><time>2024-03-23T07:41:45.000Z</time><ele>425.4</ele></trkpt><trkpt lat="45.820069" lon="9.426996"><time>2024-03-23T07:41:46.000Z</time><ele>425.4</ele></trkpt><trkpt lat="45.820071" lon="9.427"><time>2024-03-23T07:41:47.000Z</time><ele>425.4</ele></trkpt><trkpt lat="45.820073" lon="9.427003"><time>2024-03-23T07:41:48.000Z</time><ele>425.2</ele></trkpt><trkpt lat="45.820073" lon="9.427004"><time>2024-03-23T07:41:49.000Z</time><ele>425.2</ele></trkpt><trkpt lat="45.820073" lon="9.427004"><time>2024-03-23T07:41:50.000Z</time><ele>425.2</ele></trkpt><trkpt lat="45.820074" lon="9.427006"><time>2024-03-23T07:41:51.000Z</time><ele>425.4</ele></trkpt><trkpt lat="45.820075" lon="9.426997"><time>2024-03-23T07:41:52.000Z</time><ele>425.4</ele></trkpt><trkpt lat="45.820074" lon="9.426992"><time>2024-03-23T07:41:53.000Z</time><ele>425.4</ele></trkpt><trkpt lat="45.820074" lon="9.426991"><time>2024-03-23T07:41:54.000Z</time><ele>425.4</ele></trkpt><trkpt lat="45.820074" lon="9.426991"><time>2024-03-23T07:41:55.000Z</time><ele>425.6</ele></trkpt><trkpt lat="45.820074" lon="9.426991"><time>2024-03-23T07:41:56.000Z</time><ele>425.4</ele></trkpt><trkpt lat="45.820074" lon="9.426991"><time>2024-03-23T07:41:57.000Z</time><ele>425.4</ele></trkpt><trkpt lat="45.820074" lon="9.426991"><time>2024-03-23T07:41:58.000Z</time><ele>425.4</ele></trkpt><trkpt lat="45.820074" lon="9.426991"><time>2024-03-23T07:41:59.000Z</time><ele>425.4</ele></trkpt><trkpt lat="45.820074" lon="9.426991"><time>2024-03-23T07:42:00.000Z</time><ele>425.4</ele></trkpt><trkpt lat="45.820074" lon="9.426991"><time>2024-03-23T07:42:01.000Z</time><ele>425.4</ele></trkpt><trkpt lat="45.820074" lon="9.426991"><time>2024-03-23T07:42:02.000Z</time><ele>425.4</ele></trkpt><trkpt lat="45.820074" lon="9.426991"><time>2024-03-23T07:42:03.000Z</time><ele>425.4</ele></trkpt><trkpt lat="45.820074" lon="9.426991"><time>2024-03-23T07:42:04.000Z</time><ele>425.4</ele></trkpt><trkpt lat="45.820074" lon="9.426991"><time>2024-03-23T07:42:05.000Z</time><ele>425.4</ele></trkpt><trkpt lat="45.820074" lon="9.426991"><time>2024-03-23T07:42:06.000Z</time><ele>425.4</ele></trkpt><trkpt lat="45.820074" lon="9.426991"><time>2024-03-23T07:42:07.000Z</time><ele>425.4</ele></trkpt><trkpt lat="45.820074" lon="9.426991"><time>2024-03-23T07:42:08.000Z</time><ele>425.4</ele></trkpt><trkpt lat="45.820075" lon="9.426992"><time>2024-03-23T07:42:09.000Z</time><ele>425.6</ele></trkpt><trkpt lat="45.820076" lon="9.426992"><time>2024-03-23T07:42:10.000Z</time><ele>425.6</ele></trkpt><trkpt lat="45.820077" lon="9.426994"><time>2024-03-23T07:42:11.000Z</time><ele>425.6</ele></trkpt><trkpt lat="45.820078" lon="9.426995"><time>2024-03-23T07:42:12.000Z</time><ele>425.8</ele></trkpt><trkpt lat="45.820079" lon="9.426995"><time>2024-03-23T07:42:13.000Z</time><ele>425.8</ele></trkpt><trkpt lat="45.820082" lon="9.426995"><time>2024-03-23T07:42:14.000Z</time><ele>425.8</ele></trkpt><trkpt lat="45.820083" lon="9.426995"><time>2024-03-23T07:42:15.000Z</time><ele>425.8</ele></trkpt><trkpt lat="45.820083" lon="9.426995"><time>2024-03-23T07:42:16.000Z</time><ele>425.8</ele></trkpt><trkpt lat="45.820084" lon="9.426994"><time>2024-03-23T07:42:17.000Z</time><ele>425.2</ele></trkpt><trkpt lat="45.820084" lon="9.426993"><time>2024-03-23T07:42:18.000Z</time><ele>425</ele></trkpt><trkpt lat="45.820084" lon="9.426993"><time>2024-03-23T07:42:19.000Z</time><ele>425</ele></trkpt><trkpt lat="45.820085" lon="9.426993"><time>2024-03-23T07:42:20.000Z</time><ele>424.8</ele></trkpt><trkpt lat="45.820088" lon="9.426995"><time>2024-03-23T07:42:21.000Z</time><ele>424.8</ele></trkpt><trkpt lat="45.820102" lon="9.427"><time>2024-03-23T07:42:22.000Z</time><ele>425</ele></trkpt><trkpt lat="45.820109" lon="9.427004"><time>2024-03-23T07:42:23.000Z</time><ele>425.2</ele></trkpt><trkpt lat="45.820114" lon="9.427006"><time>2024-03-23T07:42:24.000Z</time><ele>425.4</ele></trkpt><trkpt lat="45.820119" lon="9.427009"><time>2024-03-23T07:42:25.000Z</time><ele>425.8</ele></trkpt><trkpt lat="45.820123" lon="9.42701"><time>2024-03-23T07:42:26.000Z</time><ele>426</ele></trkpt><trkpt lat="45.820125" lon="9.427012"><time>2024-03-23T07:42:27.000Z</time><ele>426.2</ele></trkpt><trkpt lat="45.820126" lon="9.427007"><time>2024-03-23T07:42:28.000Z</time><ele>426.2</ele></trkpt><trkpt lat="45.820128" lon="9.427005"><time>2024-03-23T07:42:29.000Z</time><ele>426.4</ele></trkpt><trkpt lat="45.82013" lon="9.427006"><time>2024-03-23T07:42:30.000Z</time><ele>426.4</ele></trkpt><trkpt lat="45.820129" lon="9.427005"><time>2024-03-23T07:42:31.000Z</time><ele>426.4</ele></trkpt><trkpt lat="45.82013" lon="9.427004"><time>2024-03-23T07:42:32.000Z</time><ele>426.4</ele></trkpt><trkpt lat="45.820133" lon="9.427004"><time>2024-03-23T07:42:33.000Z</time><ele>426.2</ele></trkpt><trkpt lat="45.820135" lon="9.427004"><time>2024-03-23T07:42:34.000Z</time><ele>426.2</ele></trkpt><trkpt lat="45.820139" lon="9.426997"><time>2024-03-23T07:42:35.000Z</time><ele>426.2</ele></trkpt><trkpt lat="45.82014" lon="9.426986"><time>2024-03-23T07:42:36.000Z</time><ele>426.2</ele></trkpt><trkpt lat="45.820141" lon="9.426981"><time>2024-03-23T07:42:37.000Z</time><ele>426.2</ele></trkpt><trkpt lat="45.820149" lon="9.426978"><time>2024-03-23T07:42:38.000Z</time><ele>426.4</ele></trkpt><trkpt lat="45.820156" lon="9.426971"><time>2024-03-23T07:42:39.000Z</time><ele>426.4</ele></trkpt><trkpt lat="45.820164" lon="9.426968"><time>2024-03-23T07:42:40.000Z</time><ele>426.6</ele></trkpt><trkpt lat="45.820169" lon="9.426964"><time>2024-03-23T07:42:41.000Z</time><ele>426.6</ele></trkpt><trkpt lat="45.820179" lon="9.426962"><time>2024-03-23T07:42:42.000Z</time><ele>426.6</ele></trkpt><trkpt lat="45.820191" lon="9.42696"><time>2024-03-23T07:42:43.000Z</time><ele>426.6</ele></trkpt><trkpt lat="45.820205" lon="9.426955"><time>2024-03-23T07:42:44.000Z</time><ele>426.6</ele></trkpt><trkpt lat="45.82021" lon="9.426953"><time>2024-03-23T07:42:45.000Z</time><ele>426.6</ele></trkpt><trkpt lat="45.82022" lon="9.426951"><time>2024-03-23T07:42:46.000Z</time><ele>426.6</ele></trkpt><trkpt lat="45.82023" lon="9.426948"><time>2024-03-23T07:42:47.000Z</time><ele>426.6</ele></trkpt><trkpt lat="45.820245" lon="9.426947"><time>2024-03-23T07:42:48.000Z</time><ele>426.4</ele></trkpt><trkpt lat="45.820256" lon="9.426945"><time>2024-03-23T07:42:49.000Z</time><ele>426.4</ele></trkpt><trkpt lat="45.820268" lon="9.426943"><time>2024-03-23T07:42:50.000Z</time><ele>426.4</ele></trkpt><trkpt lat="45.820282" lon="9.42694"><time>2024-03-23T07:42:51.000Z</time><ele>426.6</ele></trkpt><trkpt lat="45.820295" lon="9.426942"><time>2024-03-23T07:42:52.000Z</time><ele>426.6</ele></trkpt><trkpt lat="45.820308" lon="9.426938"><time>2024-03-23T07:42:53.000Z</time><ele>426.6</ele></trkpt><trkpt lat="45.820313" lon="9.426935"><time>2024-03-23T07:42:54.000Z</time><ele>426.8</ele></trkpt><trkpt lat="45.820319" lon="9.426926"><time>2024-03-23T07:42:55.000Z</time><ele>427</ele></trkpt><trkpt lat="45.820326" lon="9.426918"><time>2024-03-23T07:42:56.000Z</time><ele>427</ele></trkpt><trkpt lat="45.820328" lon="9.426913"><time>2024-03-23T07:42:57.000Z</time><ele>427</ele></trkpt><trkpt lat="45.820329" lon="9.426913"><time>2024-03-23T07:42:58.000Z</time><ele>427.2</ele></trkpt><trkpt lat="45.82034" lon="9.426915"><time>2024-03-23T07:42:59.000Z</time><ele>427.2</ele></trkpt><trkpt lat="45.820357" lon="9.426927"><time>2024-03-23T07:43:00.000Z</time><ele>427.2</ele></trkpt><trkpt lat="45.820372" lon="9.426936"><time>2024-03-23T07:43:01.000Z</time><ele>427.2</ele></trkpt><trkpt lat="45.820385" lon="9.42693"><time>2024-03-23T07:43:02.000Z</time><ele>427.2</ele></trkpt><trkpt lat="45.820395" lon="9.426922"><time>2024-03-23T07:43:03.000Z</time><ele>427.2</ele></trkpt><trkpt lat="45.820407" lon="9.426914"><time>2024-03-23T07:43:04.000Z</time><ele>427.2</ele></trkpt><trkpt lat="45.820419" lon="9.426915"><time>2024-03-23T07:43:05.000Z</time><ele>427.2</ele></trkpt><trkpt lat="45.820436" lon="9.426921"><time>2024-03-23T07:43:06.000Z</time><ele>427.2</ele></trkpt><trkpt lat="45.820449" lon="9.426921"><time>2024-03-23T07:43:07.000Z</time><ele>427.4</ele></trkpt><trkpt lat="45.820455" lon="9.426914"><time>2024-03-23T07:43:08.000Z</time><ele>427.4</ele></trkpt><trkpt lat="45.820461" lon="9.426907"><time>2024-03-23T07:43:09.000Z</time><ele>427.6</ele></trkpt><trkpt lat="45.820473" lon="9.426918"><time>2024-03-23T07:43:10.000Z</time><ele>427.6</ele></trkpt><trkpt lat="45.820487" lon="9.426932"><time>2024-03-23T07:43:11.000Z</time><ele>427.6</ele></trkpt><trkpt lat="45.820505" lon="9.426939"><time>2024-03-23T07:43:12.000Z</time><ele>427.6</ele></trkpt><trkpt lat="45.820521" lon="9.426943"><time>2024-03-23T07:43:13.000Z</time><ele>427.6</ele></trkpt><trkpt lat="45.82053" lon="9.426945"><time>2024-03-23T07:43:14.000Z</time><ele>427.6</ele></trkpt><trkpt lat="45.820538" lon="9.426945"><time>2024-03-23T07:43:15.000Z</time><ele>427.6</ele></trkpt><trkpt lat="45.820542" lon="9.426937"><time>2024-03-23T07:43:16.000Z</time><ele>427.6</ele></trkpt><trkpt lat="45.820546" lon="9.426923"><time>2024-03-23T07:43:17.000Z</time><ele>427.6</ele></trkpt><trkpt lat="45.820554" lon="9.426923"><time>2024-03-23T07:43:18.000Z</time><ele>427.6</ele></trkpt><trkpt lat="45.820562" lon="9.426924"><time>2024-03-23T07:43:19.000Z</time><ele>427.6</ele></trkpt><trkpt lat="45.820573" lon="9.426928"><time>2024-03-23T07:43:20.000Z</time><ele>427.6</ele></trkpt><trkpt lat="45.82058" lon="9.426935"><time>2024-03-23T07:43:21.000Z</time><ele>427.6</ele></trkpt><trkpt lat="45.820586" lon="9.426942"><time>2024-03-23T07:43:22.000Z</time><ele>427.6</ele></trkpt><trkpt lat="45.820592" lon="9.426951"><time>2024-03-23T07:43:23.000Z</time><ele>427.8</ele></trkpt><trkpt lat="45.820599" lon="9.42697"><time>2024-03-23T07:43:24.000Z</time><ele>428</ele></trkpt><trkpt lat="45.820608" lon="9.426985"><time>2024-03-23T07:43:25.000Z</time><ele>428.2</ele></trkpt><trkpt lat="45.820611" lon="9.426987"><time>2024-03-23T07:43:26.000Z</time><ele>428.4</ele></trkpt><trkpt lat="45.820618" lon="9.426988"><time>2024-03-23T07:43:27.000Z</time><ele>428.6</ele></trkpt><trkpt lat="45.820632" lon="9.426997"><time>2024-03-23T07:43:28.000Z</time><ele>428.6</ele></trkpt><trkpt lat="45.820646" lon="9.427003"><time>2024-03-23T07:43:29.000Z</time><ele>428.8</ele></trkpt><trkpt lat="45.820662" lon="9.426998"><time>2024-03-23T07:43:30.000Z</time><ele>428.8</ele></trkpt><trkpt lat="45.820676" lon="9.426993"><time>2024-03-23T07:43:31.000Z</time><ele>428.8</ele></trkpt><trkpt lat="45.820691" lon="9.426989"><time>2024-03-23T07:43:32.000Z</time><ele>428.8</ele></trkpt><trkpt lat="45.820704" lon="9.426978"><time>2024-03-23T07:43:33.000Z</time><ele>428.8</ele></trkpt><trkpt lat="45.820716" lon="9.426972"><time>2024-03-23T07:43:34.000Z</time><ele>428.8</ele></trkpt><trkpt lat="45.820731" lon="9.426974"><time>2024-03-23T07:43:35.000Z</time><ele>428.8</ele></trkpt><trkpt lat="45.820738" lon="9.426968"><time>2024-03-23T07:43:36.000Z</time><ele>428.8</ele></trkpt><trkpt lat="45.820746" lon="9.426959"><time>2024-03-23T07:43:37.000Z</time><ele>428.8</ele></trkpt><trkpt lat="45.820756" lon="9.426949"><time>2024-03-23T07:43:38.000Z</time><ele>429</ele></trkpt><trkpt lat="45.820763" lon="9.426943"><time>2024-03-23T07:43:39.000Z</time><ele>429</ele></trkpt><trkpt lat="45.820766" lon="9.426938"><time>2024-03-23T07:43:40.000Z</time><ele>429</ele></trkpt><trkpt lat="45.820771" lon="9.426932"><time>2024-03-23T07:43:41.000Z</time><ele>429.2</ele></trkpt><trkpt lat="45.820773" lon="9.426922"><time>2024-03-23T07:43:42.000Z</time><ele>429.2</ele></trkpt><trkpt lat="45.820782" lon="9.426916"><time>2024-03-23T07:43:43.000Z</time><ele>429.4</ele></trkpt><trkpt lat="45.820794" lon="9.426914"><time>2024-03-23T07:43:44.000Z</time><ele>429.8</ele></trkpt><trkpt lat="45.820798" lon="9.426915"><time>2024-03-23T07:43:45.000Z</time><ele>430</ele></trkpt><trkpt lat="45.820798" lon="9.426915"><time>2024-03-23T07:43:46.000Z</time><ele>430</ele></trkpt><trkpt lat="45.820796" lon="9.426916"><time>2024-03-23T07:43:47.000Z</time><ele>430.2</ele></trkpt><trkpt lat="45.820796" lon="9.426918"><time>2024-03-23T07:43:48.000Z</time><ele>430.4</ele></trkpt><trkpt lat="45.820803" lon="9.426918"><time>2024-03-23T07:43:49.000Z</time><ele>430.4</ele></trkpt><trkpt lat="45.820806" lon="9.426918"><time>2024-03-23T07:43:50.000Z</time><ele>430.6</ele></trkpt><trkpt lat="45.820809" lon="9.426917"><time>2024-03-23T07:43:51.000Z</time><ele>430.6</ele></trkpt><trkpt lat="45.820812" lon="9.426915"><time>2024-03-23T07:43:52.000Z</time><ele>430.6</ele></trkpt><trkpt lat="45.820817" lon="9.426913"><time>2024-03-23T07:43:53.000Z</time><ele>430.6</ele></trkpt><trkpt lat="45.820819" lon="9.426909"><time>2024-03-23T07:43:54.000Z</time><ele>430.8</ele></trkpt><trkpt lat="45.820819" lon="9.426907"><time>2024-03-23T07:43:55.000Z</time><ele>431</ele></trkpt><trkpt lat="45.820817" lon="9.426908"><time>2024-03-23T07:43:56.000Z</time><ele>431</ele></trkpt><trkpt lat="45.820819" lon="9.426908"><time>2024-03-23T07:43:57.000Z</time><ele>431.2</ele></trkpt><trkpt lat="45.820824" lon="9.426914"><time>2024-03-23T07:43:58.000Z</time><ele>431.4</ele></trkpt><trkpt lat="45.82083" lon="9.426919"><time>2024-03-23T07:43:59.000Z</time><ele>431.4</ele></trkpt><trkpt lat="45.820832" lon="9.426923"><time>2024-03-23T07:44:00.000Z</time><ele>431.6</ele></trkpt><trkpt lat="45.820836" lon="9.426919"><time>2024-03-23T07:44:01.000Z</time><ele>431.6</ele></trkpt><trkpt lat="45.820842" lon="9.426923"><time>2024-03-23T07:44:02.000Z</time><ele>431.8</ele></trkpt><trkpt lat="45.820847" lon="9.426931"><time>2024-03-23T07:44:03.000Z</time><ele>431.8</ele></trkpt><trkpt lat="45.820845" lon="9.426932"><time>2024-03-23T07:44:04.000Z</time><ele>432</ele></trkpt><trkpt lat="45.820844" lon="9.426933"><time>2024-03-23T07:44:05.000Z</time><ele>432.4</ele></trkpt><trkpt lat="45.820846" lon="9.426934"><time>2024-03-23T07:44:06.000Z</time><ele>432.6</ele></trkpt><trkpt lat="45.820848" lon="9.426932"><time>2024-03-23T07:44:07.000Z</time><ele>432.8</ele></trkpt><trkpt lat="45.820857" lon="9.426934"><time>2024-03-23T07:44:08.000Z</time><ele>433</ele></trkpt><trkpt lat="45.820867" lon="9.426929"><time>2024-03-23T07:44:09.000Z</time><ele>433</ele></trkpt><trkpt lat="45.820876" lon="9.426928"><time>2024-03-23T07:44:10.000Z</time><ele>433.2</ele></trkpt><trkpt lat="45.820882" lon="9.426922"><time>2024-03-23T07:44:11.000Z</time><ele>433.4</ele></trkpt><trkpt lat="45.820888" lon="9.426923"><time>2024-03-23T07:44:12.000Z</time><ele>433.4</ele></trkpt><trkpt lat="45.82089" lon="9.426921"><time>2024-03-23T07:44:13.000Z</time><ele>433.6</ele></trkpt><trkpt lat="45.820892" lon="9.426919"><time>2024-03-23T07:44:14.000Z</time><ele>433.8</ele></trkpt><trkpt lat="45.820892" lon="9.42692"><time>2024-03-23T07:44:15.000Z</time><ele>434.2</ele></trkpt><trkpt lat="45.820892" lon="9.426914"><time>2024-03-23T07:44:16.000Z</time><ele>434.4</ele></trkpt><trkpt lat="45.820891" lon="9.426909"><time>2024-03-23T07:44:17.000Z</time><ele>434.6</ele></trkpt><trkpt lat="45.820889" lon="9.426906"><time>2024-03-23T07:44:18.000Z</time><ele>434.8</ele></trkpt><trkpt lat="45.820891" lon="9.426906"><time>2024-03-23T07:44:19.000Z</time><ele>435</ele></trkpt><trkpt lat="45.820897" lon="9.426916"><time>2024-03-23T07:44:20.000Z</time><ele>435</ele></trkpt><trkpt lat="45.820898" lon="9.426923"><time>2024-03-23T07:44:21.000Z</time><ele>435.4</ele></trkpt><trkpt lat="45.820896" lon="9.426928"><time>2024-03-23T07:44:22.000Z</time><ele>435.6</ele></trkpt><trkpt lat="45.820896" lon="9.426931"><time>2024-03-23T07:44:23.000Z</time><ele>435.8</ele></trkpt><trkpt lat="45.820902" lon="9.426936"><time>2024-03-23T07:44:24.000Z</time><ele>435.8</ele></trkpt><trkpt lat="45.820904" lon="9.426946"><time>2024-03-23T07:44:25.000Z</time><ele>436</ele></trkpt><trkpt lat="45.820906" lon="9.42695"><time>2024-03-23T07:44:26.000Z</time><ele>436</ele></trkpt><trkpt lat="45.820907" lon="9.426949"><time>2024-03-23T07:44:27.000Z</time><ele>436.2</ele></trkpt><trkpt lat="45.82091" lon="9.42695"><time>2024-03-23T07:44:28.000Z</time><ele>436.6</ele></trkpt><trkpt lat="45.820917" lon="9.426949"><time>2024-03-23T07:44:29.000Z</time><ele>436.8</ele></trkpt><trkpt lat="45.82092" lon="9.426949"><time>2024-03-23T07:44:30.000Z</time><ele>436.8</ele></trkpt><trkpt lat="45.820923" lon="9.426951"><time>2024-03-23T07:44:31.000Z</time><ele>437</ele></trkpt><trkpt lat="45.820926" lon="9.426946"><time>2024-03-23T07:44:32.000Z</time><ele>437.2</ele></trkpt><trkpt lat="45.820925" lon="9.426946"><time>2024-03-23T07:44:33.000Z</time><ele>437.4</ele></trkpt><trkpt lat="45.82093" lon="9.42695"><time>2024-03-23T07:44:34.000Z</time><ele>437.6</ele></trkpt><trkpt lat="45.820937" lon="9.426958"><time>2024-03-23T07:44:35.000Z</time><ele>437.8</ele></trkpt><trkpt lat="45.820938" lon="9.426961"><time>2024-03-23T07:44:36.000Z</time><ele>437.8</ele></trkpt><trkpt lat="45.82094" lon="9.426961"><time>2024-03-23T07:44:37.000Z</time><ele>438</ele></trkpt><trkpt lat="45.820951" lon="9.426969"><time>2024-03-23T07:44:38.000Z</time><ele>438.2</ele></trkpt><trkpt lat="45.820964" lon="9.426978"><time>2024-03-23T07:44:39.000Z</time><ele>438.2</ele></trkpt><trkpt lat="45.820979" lon="9.426987"><time>2024-03-23T07:44:40.000Z</time><ele>438.4</ele></trkpt><trkpt lat="45.820983" lon="9.426992"><time>2024-03-23T07:44:41.000Z</time><ele>438.6</ele></trkpt><trkpt lat="45.820983" lon="9.426997"><time>2024-03-23T07:44:42.000Z</time><ele>438.8</ele></trkpt><trkpt lat="45.82098" lon="9.426999"><time>2024-03-23T07:44:43.000Z</time><ele>438.8</ele></trkpt><trkpt lat="45.82098" lon="9.427002"><time>2024-03-23T07:44:44.000Z</time><ele>439.2</ele></trkpt><trkpt lat="45.820985" lon="9.426999"><time>2024-03-23T07:44:45.000Z</time><ele>439.4</ele></trkpt><trkpt lat="45.820992" lon="9.426999"><time>2024-03-23T07:44:46.000Z</time><ele>439.6</ele></trkpt><trkpt lat="45.820995" lon="9.426997"><time>2024-03-23T07:44:47.000Z</time><ele>439.8</ele></trkpt><trkpt lat="45.820997" lon="9.426997"><time>2024-03-23T07:44:48.000Z</time><ele>440</ele></trkpt><trkpt lat="45.820999" lon="9.426998"><time>2024-03-23T07:44:49.000Z</time><ele>440</ele></trkpt><trkpt lat="45.821005" lon="9.426999"><time>2024-03-23T07:44:50.000Z</time><ele>440.2</ele></trkpt><trkpt lat="45.821007" lon="9.426997"><time>2024-03-23T07:44:51.000Z</time><ele>440.2</ele></trkpt><trkpt lat="45.821015" lon="9.426998"><time>2024-03-23T07:44:52.000Z</time><ele>440.6</ele></trkpt><trkpt lat="45.821024" lon="9.427008"><time>2024-03-23T07:44:53.000Z</time><ele>440.6</ele></trkpt><trkpt lat="45.82103" lon="9.427013"><time>2024-03-23T07:44:54.000Z</time><ele>440.8</ele></trkpt><trkpt lat="45.821034" lon="9.427017"><time>2024-03-23T07:44:55.000Z</time><ele>441</ele></trkpt><trkpt lat="45.821036" lon="9.427016"><time>2024-03-23T07:44:56.000Z</time><ele>441.4</ele></trkpt><trkpt lat="45.82104" lon="9.427008"><time>2024-03-23T07:44:57.000Z</time><ele>441.6</ele></trkpt><trkpt lat="45.821048" lon="9.427012"><time>2024-03-23T07:44:58.000Z</time><ele>441.8</ele></trkpt><trkpt lat="45.821054" lon="9.427013"><time>2024-03-23T07:44:59.000Z</time><ele>442</ele></trkpt><trkpt lat="45.821058" lon="9.427013"><time>2024-03-23T07:45:00.000Z</time><ele>442</ele></trkpt><trkpt lat="45.82106" lon="9.42701"><time>2024-03-23T07:45:01.000Z</time><ele>442.4</ele></trkpt><trkpt lat="45.821075" lon="9.426999"><time>2024-03-23T07:45:02.000Z</time><ele>442.6</ele></trkpt><trkpt lat="45.821075" lon="9.426991"><time>2024-03-23T07:45:03.000Z</time><ele>442.8</ele></trkpt><trkpt lat="45.821074" lon="9.426987"><time>2024-03-23T07:45:04.000Z</time><ele>443</ele></trkpt><trkpt lat="45.821077" lon="9.426986"><time>2024-03-23T07:45:05.000Z</time><ele>443.2</ele></trkpt><trkpt lat="45.821079" lon="9.426983"><time>2024-03-23T07:45:06.000Z</time><ele>443.2</ele></trkpt><trkpt lat="45.82109" lon="9.426985"><time>2024-03-23T07:45:07.000Z</time><ele>443.4</ele></trkpt><trkpt lat="45.8211" lon="9.426987"><time>2024-03-23T07:45:08.000Z</time><ele>443.4</ele></trkpt><trkpt lat="45.821109" lon="9.426982"><time>2024-03-23T07:45:09.000Z</time><ele>443.6</ele></trkpt><trkpt lat="45.821119" lon="9.426984"><time>2024-03-23T07:45:10.000Z</time><ele>443.8</ele></trkpt><trkpt lat="45.821131" lon="9.426989"><time>2024-03-23T07:45:11.000Z</time><ele>444</ele></trkpt><trkpt lat="45.821134" lon="9.426989"><time>2024-03-23T07:45:12.000Z</time><ele>444.2</ele></trkpt><trkpt lat="45.821138" lon="9.426986"><time>2024-03-23T07:45:13.000Z</time><ele>444.4</ele></trkpt><trkpt lat="45.821141" lon="9.426986"><time>2024-03-23T07:45:14.000Z</time><ele>444.4</ele></trkpt><trkpt lat="45.821146" lon="9.426991"><time>2024-03-23T07:45:15.000Z</time><ele>444.6</ele></trkpt><trkpt lat="45.821152" lon="9.426997"><time>2024-03-23T07:45:16.000Z</time><ele>444.8</ele></trkpt><trkpt lat="45.821156" lon="9.427001"><time>2024-03-23T07:45:17.000Z</time><ele>444.8</ele></trkpt><trkpt lat="45.821163" lon="9.427002"><time>2024-03-23T07:45:18.000Z</time><ele>444.8</ele></trkpt><trkpt lat="45.821169" lon="9.427005"><time>2024-03-23T07:45:19.000Z</time><ele>445.2</ele></trkpt><trkpt lat="45.821181" lon="9.427009"><time>2024-03-23T07:45:20.000Z</time><ele>445.4</ele></trkpt><trkpt lat="45.821186" lon="9.427013"><time>2024-03-23T07:45:21.000Z</time><ele>445.6</ele></trkpt><trkpt lat="45.821199" lon="9.427022"><time>2024-03-23T07:45:22.000Z</time><ele>445.8</ele></trkpt><trkpt lat="45.82121" lon="9.427024"><time>2024-03-23T07:45:23.000Z</time><ele>446</ele></trkpt><trkpt lat="45.82123" lon="9.427018"><time>2024-03-23T07:45:24.000Z</time><ele>446.2</ele></trkpt><trkpt lat="45.821245" lon="9.427018"><time>2024-03-23T07:45:25.000Z</time><ele>446.4</ele></trkpt><trkpt lat="45.821248" lon="9.427021"><time>2024-03-23T07:45:26.000Z</time><ele>446.6</ele></trkpt><trkpt lat="45.821256" lon="9.42703"><time>2024-03-23T07:45:27.000Z</time><ele>446.8</ele></trkpt><trkpt lat="45.821269" lon="9.427041"><time>2024-03-23T07:45:28.000Z</time><ele>446.8</ele></trkpt><trkpt lat="45.821281" lon="9.427052"><time>2024-03-23T07:45:29.000Z</time><ele>447</ele></trkpt><trkpt lat="45.821287" lon="9.427056"><time>2024-03-23T07:45:30.000Z</time><ele>447</ele></trkpt><trkpt lat="45.821289" lon="9.42705"><time>2024-03-23T07:45:31.000Z</time><ele>447.2</ele></trkpt><trkpt lat="45.821295" lon="9.42705"><time>2024-03-23T07:45:32.000Z</time><ele>447.4</ele></trkpt><trkpt lat="45.821297" lon="9.427046"><time>2024-03-23T07:45:33.000Z</time><ele>447.6</ele></trkpt><trkpt lat="45.821299" lon="9.427044"><time>2024-03-23T07:45:34.000Z</time><ele>447.8</ele></trkpt><trkpt lat="45.821305" lon="9.427039"><time>2024-03-23T07:45:35.000Z</time><ele>448</ele></trkpt><trkpt lat="45.821314" lon="9.427036"><time>2024-03-23T07:45:36.000Z</time><ele>448.2</ele></trkpt><trkpt lat="45.821323" lon="9.427038"><time>2024-03-23T07:45:37.000Z</time><ele>448.4</ele></trkpt><trkpt lat="45.821328" lon="9.427038"><time>2024-03-23T07:45:38.000Z</time><ele>448.6</ele></trkpt><trkpt lat="45.821332" lon="9.42704"><time>2024-03-23T07:45:39.000Z</time><ele>448.8</ele></trkpt><trkpt lat="45.821335" lon="9.427043"><time>2024-03-23T07:45:40.000Z</time><ele>449</ele></trkpt><trkpt lat="45.821339" lon="9.427045"><time>2024-03-23T07:45:41.000Z</time><ele>449</ele></trkpt><trkpt lat="45.821341" lon="9.427047"><time>2024-03-23T07:45:42.000Z</time><ele>449.2</ele></trkpt><trkpt lat="45.821346" lon="9.427046"><time>2024-03-23T07:45:43.000Z</time><ele>449.4</ele></trkpt><trkpt lat="45.82135" lon="9.427053"><time>2024-03-23T07:45:44.000Z</time><ele>449.6</ele></trkpt><trkpt lat="45.821354" lon="9.42706"><time>2024-03-23T07:45:45.000Z</time><ele>449.8</ele></trkpt><trkpt lat="45.821355" lon="9.427061"><time>2024-03-23T07:45:46.000Z</time><ele>450</ele></trkpt><trkpt lat="45.821352" lon="9.427062"><time>2024-03-23T07:45:47.000Z</time><ele>450.4</ele></trkpt><trkpt lat="45.821352" lon="9.427067"><time>2024-03-23T07:45:48.000Z</time><ele>450.6</ele></trkpt><trkpt lat="45.821356" lon="9.427065"><time>2024-03-23T07:45:49.000Z</time><ele>450.6</ele></trkpt><trkpt lat="45.821368" lon="9.427074"><time>2024-03-23T07:45:50.000Z</time><ele>450.8</ele></trkpt><trkpt lat="45.821381" lon="9.427076"><time>2024-03-23T07:45:51.000Z</time><ele>451</ele></trkpt><trkpt lat="45.821387" lon="9.427065"><time>2024-03-23T07:45:52.000Z</time><ele>451.2</ele></trkpt><trkpt lat="45.821386" lon="9.427061"><time>2024-03-23T07:45:53.000Z</time><ele>451.4</ele></trkpt><trkpt lat="45.821389" lon="9.427058"><time>2024-03-23T07:45:54.000Z</time><ele>451.4</ele></trkpt><trkpt lat="45.821393" lon="9.427058"><time>2024-03-23T07:45:55.000Z</time><ele>451.6</ele></trkpt><trkpt lat="45.821394" lon="9.427059"><time>2024-03-23T07:45:56.000Z</time><ele>451.8</ele></trkpt><trkpt lat="45.821396" lon="9.427052"><time>2024-03-23T07:45:57.000Z</time><ele>451.8</ele></trkpt><trkpt lat="45.821398" lon="9.427052"><time>2024-03-23T07:45:58.000Z</time><ele>451.8</ele></trkpt><trkpt lat="45.821404" lon="9.427048"><time>2024-03-23T07:45:59.000Z</time><ele>452.2</ele></trkpt><trkpt lat="45.821412" lon="9.427049"><time>2024-03-23T07:46:00.000Z</time><ele>452.4</ele></trkpt><trkpt lat="45.821417" lon="9.427049"><time>2024-03-23T07:46:01.000Z</time><ele>452.6</ele></trkpt><trkpt lat="45.821424" lon="9.427045"><time>2024-03-23T07:46:02.000Z</time><ele>452.6</ele></trkpt><trkpt lat="45.821426" lon="9.427034"><time>2024-03-23T07:46:03.000Z</time><ele>453</ele></trkpt><trkpt lat="45.82143" lon="9.427029"><time>2024-03-23T07:46:04.000Z</time><ele>453.2</ele></trkpt><trkpt lat="45.821435" lon="9.427032"><time>2024-03-23T07:46:05.000Z</time><ele>453.2</ele></trkpt><trkpt lat="45.821442" lon="9.427033"><time>2024-03-23T07:46:06.000Z</time><ele>453.4</ele></trkpt><trkpt lat="45.821447" lon="9.427035"><time>2024-03-23T07:46:07.000Z</time><ele>453.4</ele></trkpt><trkpt lat="45.821449" lon="9.427037"><time>2024-03-23T07:46:08.000Z</time><ele>453.4</ele></trkpt><trkpt lat="45.82145" lon="9.427039"><time>2024-03-23T07:46:09.000Z</time><ele>453.6</ele></trkpt><trkpt lat="45.821452" lon="9.427042"><time>2024-03-23T07:46:10.000Z</time><ele>453.8</ele></trkpt><trkpt lat="45.821454" lon="9.427042"><time>2024-03-23T07:46:11.000Z</time><ele>454.2</ele></trkpt><trkpt lat="45.821453" lon="9.427032"><time>2024-03-23T07:46:12.000Z</time><ele>454.4</ele></trkpt><trkpt lat="45.82146" lon="9.42703"><time>2024-03-23T07:46:13.000Z</time><ele>454.4</ele></trkpt><trkpt lat="45.821469" lon="9.427032"><time>2024-03-23T07:46:14.000Z</time><ele>454.6</ele></trkpt><trkpt lat="45.821481" lon="9.427035"><time>2024-03-23T07:46:15.000Z</time><ele>454.6</ele></trkpt><trkpt lat="45.821494" lon="9.427039"><time>2024-03-23T07:46:16.000Z</time><ele>454.8</ele></trkpt><trkpt lat="45.821497" lon="9.427038"><time>2024-03-23T07:46:17.000Z</time><ele>455.2</ele></trkpt><trkpt lat="45.821499" lon="9.427036"><time>2024-03-23T07:46:18.000Z</time><ele>455.4</ele></trkpt><trkpt lat="45.821501" lon="9.427035"><time>2024-03-23T07:46:19.000Z</time><ele>455.6</ele></trkpt><trkpt lat="45.821505" lon="9.427036"><time>2024-03-23T07:46:20.000Z</time><ele>455.8</ele></trkpt><trkpt lat="45.821511" lon="9.427028"><time>2024-03-23T07:46:21.000Z</time><ele>455.8</ele></trkpt><trkpt lat="45.82152" lon="9.427024"><time>2024-03-23T07:46:22.000Z</time><ele>455.8</ele></trkpt><trkpt lat="45.821526" lon="9.42702"><time>2024-03-23T07:46:23.000Z</time><ele>456</ele></trkpt><trkpt lat="45.82153" lon="9.427019"><time>2024-03-23T07:46:24.000Z</time><ele>456</ele></trkpt><trkpt lat="45.821536" lon="9.427017"><time>2024-03-23T07:46:25.000Z</time><ele>456</ele></trkpt><trkpt lat="45.821542" lon="9.427016"><time>2024-03-23T07:46:26.000Z</time><ele>456.2</ele></trkpt><trkpt lat="45.821551" lon="9.42701"><time>2024-03-23T07:46:27.000Z</time><ele>456.2</ele></trkpt><trkpt lat="45.82156" lon="9.427002"><time>2024-03-23T07:46:28.000Z</time><ele>456.4</ele></trkpt><trkpt lat="45.821566" lon="9.42699"><time>2024-03-23T07:46:29.000Z</time><ele>456.4</ele></trkpt><trkpt lat="45.821571" lon="9.426978"><time>2024-03-23T07:46:30.000Z</time><ele>456.6</ele></trkpt><trkpt lat="45.821578" lon="9.426974"><time>2024-03-23T07:46:31.000Z</time><ele>456.6</ele></trkpt><trkpt lat="45.821582" lon="9.426965"><time>2024-03-23T07:46:32.000Z</time><ele>456.8</ele></trkpt><trkpt lat="45.821588" lon="9.426959"><time>2024-03-23T07:46:33.000Z</time><ele>456.8</ele></trkpt><trkpt lat="45.821593" lon="9.426958"><time>2024-03-23T07:46:34.000Z</time><ele>457</ele></trkpt><trkpt lat="45.821599" lon="9.426961"><time>2024-03-23T07:46:35.000Z</time><ele>457</ele></trkpt><trkpt lat="45.821604" lon="9.426967"><time>2024-03-23T07:46:36.000Z</time><ele>457</ele></trkpt><trkpt lat="45.821605" lon="9.426965"><time>2024-03-23T07:46:37.000Z</time><ele>457</ele></trkpt><trkpt lat="45.821608" lon="9.426958"><time>2024-03-23T07:46:38.000Z</time><ele>457.2</ele></trkpt><trkpt lat="45.821615" lon="9.426957"><time>2024-03-23T07:46:39.000Z</time><ele>457.4</ele></trkpt><trkpt lat="45.821618" lon="9.426956"><time>2024-03-23T07:46:40.000Z</time><ele>457.8</ele></trkpt><trkpt lat="45.821621" lon="9.426957"><time>2024-03-23T07:46:41.000Z</time><ele>458</ele></trkpt><trkpt lat="45.821631" lon="9.42696"><time>2024-03-23T07:46:42.000Z</time><ele>458.2</ele></trkpt><trkpt lat="45.821644" lon="9.426971"><time>2024-03-23T07:46:43.000Z</time><ele>458.2</ele></trkpt><trkpt lat="45.821657" lon="9.426976"><time>2024-03-23T07:46:44.000Z</time><ele>458.4</ele></trkpt><trkpt lat="45.821663" lon="9.426976"><time>2024-03-23T07:46:45.000Z</time><ele>458.4</ele></trkpt><trkpt lat="45.821665" lon="9.426976"><time>2024-03-23T07:46:46.000Z</time><ele>458.4</ele></trkpt><trkpt lat="45.821663" lon="9.426974"><time>2024-03-23T07:46:47.000Z</time><ele>458.4</ele></trkpt><trkpt lat="45.821661" lon="9.42697"><time>2024-03-23T07:46:48.000Z</time><ele>458.4</ele></trkpt><trkpt lat="45.82166" lon="9.426969"><time>2024-03-23T07:46:49.000Z</time><ele>458.4</ele></trkpt><trkpt lat="45.821661" lon="9.426968"><time>2024-03-23T07:46:50.000Z</time><ele>458.4</ele></trkpt><trkpt lat="45.821663" lon="9.42697"><time>2024-03-23T07:46:51.000Z</time><ele>458.6</ele></trkpt><trkpt lat="45.821664" lon="9.426972"><time>2024-03-23T07:46:52.000Z</time><ele>458.6</ele></trkpt><trkpt lat="45.821665" lon="9.426975"><time>2024-03-23T07:46:53.000Z</time><ele>458.6</ele></trkpt><trkpt lat="45.821655" lon="9.426986"><time>2024-03-23T07:46:54.000Z</time><ele>458.6</ele></trkpt><trkpt lat="45.821647" lon="9.42699"><time>2024-03-23T07:46:55.000Z</time><ele>458.6</ele></trkpt><trkpt lat="45.821645" lon="9.426994"><time>2024-03-23T07:46:56.000Z</time><ele>458.6</ele></trkpt><trkpt lat="45.821643" lon="9.426994"><time>2024-03-23T07:46:57.000Z</time><ele>458.6</ele></trkpt><trkpt lat="45.821643" lon="9.426998"><time>2024-03-23T07:46:58.000Z</time><ele>458.6</ele></trkpt><trkpt lat="45.821643" lon="9.426997"><time>2024-03-23T07:46:59.000Z</time><ele>458.6</ele></trkpt><trkpt lat="45.821651" lon="9.427007"><time>2024-03-23T07:47:00.000Z</time><ele>458.6</ele></trkpt><trkpt lat="45.821658" lon="9.427013"><time>2024-03-23T07:47:01.000Z</time><ele>458.6</ele></trkpt><trkpt lat="45.821668" lon="9.427016"><time>2024-03-23T07:47:02.000Z</time><ele>458.6</ele></trkpt><trkpt lat="45.821682" lon="9.427009"><time>2024-03-23T07:47:03.000Z</time><ele>458.6</ele></trkpt><trkpt lat="45.821689" lon="9.427002"><time>2024-03-23T07:47:04.000Z</time><ele>458.4</ele></trkpt><trkpt lat="45.821698" lon="9.427"><time>2024-03-23T07:47:05.000Z</time><ele>458.4</ele></trkpt><trkpt lat="45.821706" lon="9.427"><time>2024-03-23T07:47:06.000Z</time><ele>458.6</ele></trkpt><trkpt lat="45.821712" lon="9.427"><time>2024-03-23T07:47:07.000Z</time><ele>458.6</ele></trkpt><trkpt lat="45.821721" lon="9.426999"><time>2024-03-23T07:47:08.000Z</time><ele>458.6</ele></trkpt><trkpt lat="45.821731" lon="9.426997"><time>2024-03-23T07:47:09.000Z</time><ele>458.8</ele></trkpt><trkpt lat="45.821744" lon="9.426999"><time>2024-03-23T07:47:10.000Z</time><ele>459</ele></trkpt><trkpt lat="45.821756" lon="9.427002"><time>2024-03-23T07:47:11.000Z</time><ele>459</ele></trkpt><trkpt lat="45.821766" lon="9.427003"><time>2024-03-23T07:47:12.000Z</time><ele>459.2</ele></trkpt><trkpt lat="45.821775" lon="9.427003"><time>2024-03-23T07:47:13.000Z</time><ele>459.2</ele></trkpt><trkpt lat="45.821783" lon="9.427"><time>2024-03-23T07:47:14.000Z</time><ele>459.4</ele></trkpt><trkpt lat="45.821791" lon="9.426994"><time>2024-03-23T07:47:15.000Z</time><ele>459.4</ele></trkpt><trkpt lat="45.821796" lon="9.42699"><time>2024-03-23T07:47:16.000Z</time><ele>459.4</ele></trkpt><trkpt lat="45.821799" lon="9.426986"><time>2024-03-23T07:47:17.000Z</time><ele>459.4</ele></trkpt><trkpt lat="45.821808" lon="9.426987"><time>2024-03-23T07:47:18.000Z</time><ele>459.4</ele></trkpt><trkpt lat="45.821821" lon="9.426981"><time>2024-03-23T07:47:19.000Z</time><ele>459.6</ele></trkpt><trkpt lat="45.821832" lon="9.426977"><time>2024-03-23T07:47:20.000Z</time><ele>459.6</ele></trkpt><trkpt lat="45.821844" lon="9.426972"><time>2024-03-23T07:47:21.000Z</time><ele>459.8</ele></trkpt><trkpt lat="45.821856" lon="9.426961"><time>2024-03-23T07:47:22.000Z</time><ele>459.8</ele></trkpt><trkpt lat="45.821861" lon="9.426956"><time>2024-03-23T07:47:23.000Z</time><ele>460</ele></trkpt><trkpt lat="45.821864" lon="9.426954"><time>2024-03-23T07:47:24.000Z</time><ele>460.2</ele></trkpt><trkpt lat="45.82187" lon="9.426948"><time>2024-03-23T07:47:25.000Z</time><ele>460.4</ele></trkpt><trkpt lat="45.821876" lon="9.426941"><time>2024-03-23T07:47:26.000Z</time><ele>460.6</ele></trkpt><trkpt lat="45.821884" lon="9.426937"><time>2024-03-23T07:47:27.000Z</time><ele>460.8</ele></trkpt><trkpt lat="45.821894" lon="9.426949"><time>2024-03-23T07:47:28.000Z</time><ele>460.8</ele></trkpt><trkpt lat="45.821898" lon="9.426954"><time>2024-03-23T07:47:29.000Z</time><ele>461</ele></trkpt><trkpt lat="45.821903" lon="9.426957"><time>2024-03-23T07:47:30.000Z</time><ele>461.2</ele></trkpt><trkpt lat="45.821907" lon="9.426958"><time>2024-03-23T07:47:31.000Z</time><ele>461.2</ele></trkpt><trkpt lat="45.821915" lon="9.426966"><time>2024-03-23T07:47:32.000Z</time><ele>461.4</ele></trkpt><trkpt lat="45.821919" lon="9.426969"><time>2024-03-23T07:47:33.000Z</time><ele>461.6</ele></trkpt><trkpt lat="45.821921" lon="9.42697"><time>2024-03-23T07:47:34.000Z</time><ele>461.8</ele></trkpt><trkpt lat="45.821929" lon="9.426975"><time>2024-03-23T07:47:35.000Z</time><ele>462</ele></trkpt><trkpt lat="45.821934" lon="9.426967"><time>2024-03-23T07:47:36.000Z</time><ele>462.2</ele></trkpt><trkpt lat="45.821936" lon="9.426962"><time>2024-03-23T07:47:37.000Z</time><ele>462.4</ele></trkpt><trkpt lat="45.821941" lon="9.426958"><time>2024-03-23T07:47:38.000Z</time><ele>462.6</ele></trkpt><trkpt lat="45.821946" lon="9.426956"><time>2024-03-23T07:47:39.000Z</time><ele>463</ele></trkpt><trkpt lat="45.821948" lon="9.426949"><time>2024-03-23T07:47:40.000Z</time><ele>463.2</ele></trkpt><trkpt lat="45.82195" lon="9.426945"><time>2024-03-23T07:47:41.000Z</time><ele>463.4</ele></trkpt><trkpt lat="45.821961" lon="9.426949"><time>2024-03-23T07:47:42.000Z</time><ele>463.6</ele></trkpt><trkpt lat="45.821972" lon="9.426957"><time>2024-03-23T07:47:43.000Z</time><ele>463.8</ele></trkpt><trkpt lat="45.821979" lon="9.426958"><time>2024-03-23T07:47:44.000Z</time><ele>464</ele></trkpt><trkpt lat="45.821986" lon="9.426962"><time>2024-03-23T07:47:45.000Z</time><ele>464</ele></trkpt><trkpt lat="45.821997" lon="9.42696"><time>2024-03-23T07:47:46.000Z</time><ele>464.2</ele></trkpt><trkpt lat="45.822015" lon="9.426967"><time>2024-03-23T07:47:47.000Z</time><ele>464.2</ele></trkpt><trkpt lat="45.822016" lon="9.426964"><time>2024-03-23T07:47:48.000Z</time><ele>464.2</ele></trkpt><trkpt lat="45.822017" lon="9.426965"><time>2024-03-23T07:47:49.000Z</time><ele>464.4</ele></trkpt><trkpt lat="45.822018" lon="9.426965"><time>2024-03-23T07:47:50.000Z</time><ele>464.6</ele></trkpt><trkpt lat="45.822016" lon="9.426961"><time>2024-03-23T07:47:51.000Z</time><ele>464.8</ele></trkpt><trkpt lat="45.822018" lon="9.426956"><time>2024-03-23T07:47:52.000Z</time><ele>465.2</ele></trkpt><trkpt lat="45.822019" lon="9.426955"><time>2024-03-23T07:47:53.000Z</time><ele>465.4</ele></trkpt><trkpt lat="45.82202" lon="9.426959"><time>2024-03-23T07:47:54.000Z</time><ele>465.4</ele></trkpt><trkpt lat="45.822021" lon="9.426961"><time>2024-03-23T07:47:55.000Z</time><ele>465.8</ele></trkpt><trkpt lat="45.822023" lon="9.426962"><time>2024-03-23T07:47:56.000Z</time><ele>466</ele></trkpt><trkpt lat="45.822029" lon="9.426969"><time>2024-03-23T07:47:57.000Z</time><ele>466.2</ele></trkpt><trkpt lat="45.822033" lon="9.426973"><time>2024-03-23T07:47:58.000Z</time><ele>466.4</ele></trkpt><trkpt lat="45.822036" lon="9.426975"><time>2024-03-23T07:47:59.000Z</time><ele>466.4</ele></trkpt><trkpt lat="45.822039" lon="9.426976"><time>2024-03-23T07:48:00.000Z</time><ele>466.6</ele></trkpt><trkpt lat="45.82205" lon="9.426976"><time>2024-03-23T07:48:01.000Z</time><ele>466.6</ele></trkpt><trkpt lat="45.822051" lon="9.426975"><time>2024-03-23T07:48:02.000Z</time><ele>466.8</ele></trkpt><trkpt lat="45.822053" lon="9.426972"><time>2024-03-23T07:48:03.000Z</time><ele>467.2</ele></trkpt><trkpt lat="45.822062" lon="9.426973"><time>2024-03-23T07:48:04.000Z</time><ele>467.4</ele></trkpt><trkpt lat="45.82207" lon="9.426968"><time>2024-03-23T07:48:05.000Z</time><ele>467.6</ele></trkpt><trkpt lat="45.822081" lon="9.426964"><time>2024-03-23T07:48:06.000Z</time><ele>467.8</ele></trkpt><trkpt lat="45.822089" lon="9.426958"><time>2024-03-23T07:48:07.000Z</time><ele>467.8</ele></trkpt><trkpt lat="45.822093" lon="9.426951"><time>2024-03-23T07:48:08.000Z</time><ele>468</ele></trkpt><trkpt lat="45.822095" lon="9.426946"><time>2024-03-23T07:48:09.000Z</time><ele>468.2</ele></trkpt><trkpt lat="45.822096" lon="9.426937"><time>2024-03-23T07:48:10.000Z</time><ele>468.2</ele></trkpt><trkpt lat="45.822099" lon="9.426933"><time>2024-03-23T07:48:11.000Z</time><ele>468.4</ele></trkpt><trkpt lat="45.822103" lon="9.426933"><time>2024-03-23T07:48:12.000Z</time><ele>468.4</ele></trkpt><trkpt lat="45.822106" lon="9.426932"><time>2024-03-23T07:48:13.000Z</time><ele>468.8</ele></trkpt><trkpt lat="45.822106" lon="9.426928"><time>2024-03-23T07:48:14.000Z</time><ele>469</ele></trkpt><trkpt lat="45.822101" lon="9.426918"><time>2024-03-23T07:48:15.000Z</time><ele>469.2</ele></trkpt><trkpt lat="45.822101" lon="9.42692"><time>2024-03-23T07:48:16.000Z</time><ele>469.2</ele></trkpt><trkpt lat="45.822101" lon="9.426924"><time>2024-03-23T07:48:17.000Z</time><ele>469.4</ele></trkpt><trkpt lat="45.822107" lon="9.42694"><time>2024-03-23T07:48:18.000Z</time><ele>469.6</ele></trkpt><trkpt lat="45.822114" lon="9.426951"><time>2024-03-23T07:48:19.000Z</time><ele>469.8</ele></trkpt><trkpt lat="45.822117" lon="9.426956"><time>2024-03-23T07:48:20.000Z</time><ele>470</ele></trkpt><trkpt lat="45.82212" lon="9.426958"><time>2024-03-23T07:48:21.000Z</time><ele>470.4</ele></trkpt><trkpt lat="45.822126" lon="9.426956"><time>2024-03-23T07:48:22.000Z</time><ele>470.8</ele></trkpt><trkpt lat="45.822132" lon="9.426962"><time>2024-03-23T07:48:23.000Z</time><ele>471</ele></trkpt><trkpt lat="45.822134" lon="9.426966"><time>2024-03-23T07:48:24.000Z</time><ele>471.2</ele></trkpt><trkpt lat="45.822135" lon="9.426967"><time>2024-03-23T07:48:25.000Z</time><ele>471.2</ele></trkpt><trkpt lat="45.822137" lon="9.426966"><time>2024-03-23T07:48:26.000Z</time><ele>471.4</ele></trkpt><trkpt lat="45.822138" lon="9.426967"><time>2024-03-23T07:48:27.000Z</time><ele>471.4</ele></trkpt><trkpt lat="45.822139" lon="9.426968"><time>2024-03-23T07:48:28.000Z</time><ele>471.6</ele></trkpt><trkpt lat="45.822141" lon="9.42697"><time>2024-03-23T07:48:29.000Z</time><ele>471.8</ele></trkpt><trkpt lat="45.822141" lon="9.42697"><time>2024-03-23T07:48:30.000Z</time><ele>472.2</ele></trkpt><trkpt lat="45.822145" lon="9.426969"><time>2024-03-23T07:48:31.000Z</time><ele>472.4</ele></trkpt><trkpt lat="45.822149" lon="9.426969"><time>2024-03-23T07:48:32.000Z</time><ele>472.6</ele></trkpt><trkpt lat="45.822154" lon="9.426974"><time>2024-03-23T07:48:33.000Z</time><ele>472.8</ele></trkpt><trkpt lat="45.822158" lon="9.426975"><time>2024-03-23T07:48:34.000Z</time><ele>473</ele></trkpt><trkpt lat="45.822161" lon="9.426977"><time>2024-03-23T07:48:35.000Z</time><ele>473.2</ele></trkpt><trkpt lat="45.822164" lon="9.426982"><time>2024-03-23T07:48:36.000Z</time><ele>473.2</ele></trkpt><trkpt lat="45.822166" lon="9.426986"><time>2024-03-23T07:48:37.000Z</time><ele>473.4</ele></trkpt><trkpt lat="45.822167" lon="9.426987"><time>2024-03-23T07:48:38.000Z</time><ele>473.4</ele></trkpt><trkpt lat="45.822169" lon="9.426992"><time>2024-03-23T07:48:39.000Z</time><ele>473.4</ele></trkpt><trkpt lat="45.822171" lon="9.426996"><time>2024-03-23T07:48:40.000Z</time><ele>473.6</ele></trkpt><trkpt lat="45.822172" lon="9.427002"><time>2024-03-23T07:48:41.000Z</time><ele>473.6</ele></trkpt><trkpt lat="45.822182" lon="9.427011"><time>2024-03-23T07:48:42.000Z</time><ele>473.8</ele></trkpt><trkpt lat="45.822183" lon="9.427018"><time>2024-03-23T07:48:43.000Z</time><ele>474</ele></trkpt><trkpt lat="45.822186" lon="9.427023"><time>2024-03-23T07:48:44.000Z</time><ele>474.2</ele></trkpt><trkpt lat="45.822192" lon="9.427034"><time>2024-03-23T07:48:45.000Z</time><ele>474.6</ele></trkpt><trkpt lat="45.822197" lon="9.427047"><time>2024-03-23T07:48:46.000Z</time><ele>474.8</ele></trkpt><trkpt lat="45.8222" lon="9.427053"><time>2024-03-23T07:48:47.000Z</time><ele>475</ele></trkpt><trkpt lat="45.822205" lon="9.42706"><time>2024-03-23T07:48:48.000Z</time><ele>475.2</ele></trkpt><trkpt lat="45.822211" lon="9.427068"><time>2024-03-23T07:48:49.000Z</time><ele>475.4</ele></trkpt><trkpt lat="45.822213" lon="9.42707"><time>2024-03-23T07:48:50.000Z</time><ele>475.6</ele></trkpt><trkpt lat="45.822213" lon="9.427073"><time>2024-03-23T07:48:51.000Z</time><ele>475.8</ele></trkpt><trkpt lat="45.822214" lon="9.427078"><time>2024-03-23T07:48:52.000Z</time><ele>475.8</ele></trkpt><trkpt lat="45.822219" lon="9.427089"><time>2024-03-23T07:48:53.000Z</time><ele>476</ele></trkpt><trkpt lat="45.822223" lon="9.427093"><time>2024-03-23T07:48:54.000Z</time><ele>476.2</ele></trkpt><trkpt lat="45.822225" lon="9.427105"><time>2024-03-23T07:48:55.000Z</time><ele>476.4</ele></trkpt><trkpt lat="45.822228" lon="9.427119"><time>2024-03-23T07:48:56.000Z</time><ele>476.6</ele></trkpt><trkpt lat="45.822232" lon="9.427127"><time>2024-03-23T07:48:57.000Z</time><ele>476.8</ele></trkpt><trkpt lat="45.822236" lon="9.427143"><time>2024-03-23T07:48:58.000Z</time><ele>477</ele></trkpt><trkpt lat="45.82224" lon="9.42715"><time>2024-03-23T07:48:59.000Z</time><ele>477</ele></trkpt><trkpt lat="45.822242" lon="9.427155"><time>2024-03-23T07:49:00.000Z</time><ele>477.2</ele></trkpt><trkpt lat="45.822241" lon="9.427158"><time>2024-03-23T07:49:01.000Z</time><ele>477.4</ele></trkpt><trkpt lat="45.82224" lon="9.42716"><time>2024-03-23T07:49:02.000Z</time><ele>477.6</ele></trkpt><trkpt lat="45.822245" lon="9.427171"><time>2024-03-23T07:49:03.000Z</time><ele>477.6</ele></trkpt><trkpt lat="45.822248" lon="9.427178"><time>2024-03-23T07:49:04.000Z</time><ele>477.8</ele></trkpt><trkpt lat="45.822249" lon="9.427182"><time>2024-03-23T07:49:05.000Z</time><ele>477.8</ele></trkpt><trkpt lat="45.82225" lon="9.427184"><time>2024-03-23T07:49:06.000Z</time><ele>477.8</ele></trkpt><trkpt lat="45.822251" lon="9.427187"><time>2024-03-23T07:49:07.000Z</time><ele>478</ele></trkpt><trkpt lat="45.822252" lon="9.427187"><time>2024-03-23T07:49:08.000Z</time><ele>478.2</ele></trkpt><trkpt lat="45.822253" lon="9.427189"><time>2024-03-23T07:49:09.000Z</time><ele>478.4</ele></trkpt><trkpt lat="45.822255" lon="9.427192"><time>2024-03-23T07:49:10.000Z</time><ele>478.6</ele></trkpt><trkpt lat="45.822255" lon="9.427193"><time>2024-03-23T07:49:11.000Z</time><ele>478.8</ele></trkpt><trkpt lat="45.822255" lon="9.427189"><time>2024-03-23T07:49:12.000Z</time><ele>478.8</ele></trkpt><trkpt lat="45.822259" lon="9.427195"><time>2024-03-23T07:49:13.000Z</time><ele>479</ele></trkpt><trkpt lat="45.82226" lon="9.427196"><time>2024-03-23T07:49:14.000Z</time><ele>479</ele></trkpt><trkpt lat="45.82226" lon="9.427202"><time>2024-03-23T07:49:15.000Z</time><ele>479.2</ele></trkpt><trkpt lat="45.822264" lon="9.427209"><time>2024-03-23T07:49:16.000Z</time><ele>479.4</ele></trkpt><trkpt lat="45.822271" lon="9.427228"><time>2024-03-23T07:49:17.000Z</time><ele>479.6</ele></trkpt><trkpt lat="45.822271" lon="9.427238"><time>2024-03-23T07:49:18.000Z</time><ele>479.6</ele></trkpt><trkpt lat="45.822266" lon="9.42724"><time>2024-03-23T07:49:19.000Z</time><ele>479.8</ele></trkpt><trkpt lat="45.822259" lon="9.427243"><time>2024-03-23T07:49:20.000Z</time><ele>479.8</ele></trkpt><trkpt lat="45.822258" lon="9.427242"><time>2024-03-23T07:49:21.000Z</time><ele>480.2</ele></trkpt><trkpt lat="45.822263" lon="9.427241"><time>2024-03-23T07:49:22.000Z</time><ele>480.2</ele></trkpt><trkpt lat="45.822272" lon="9.427249"><time>2024-03-23T07:49:23.000Z</time><ele>480.4</ele></trkpt><trkpt lat="45.822282" lon="9.427262"><time>2024-03-23T07:49:24.000Z</time><ele>480.4</ele></trkpt><trkpt lat="45.822288" lon="9.427267"><time>2024-03-23T07:49:25.000Z</time><ele>480.6</ele></trkpt><trkpt lat="45.822292" lon="9.42727"><time>2024-03-23T07:49:26.000Z</time><ele>481</ele></trkpt><trkpt lat="45.822292" lon="9.427273"><time>2024-03-23T07:49:27.000Z</time><ele>481.2</ele></trkpt><trkpt lat="45.822288" lon="9.427292"><time>2024-03-23T07:49:28.000Z</time><ele>481.2</ele></trkpt><trkpt lat="45.822277" lon="9.427299"><time>2024-03-23T07:49:29.000Z</time><ele>481.4</ele></trkpt><trkpt lat="45.822275" lon="9.427306"><time>2024-03-23T07:49:30.000Z</time><ele>481.6</ele></trkpt><trkpt lat="45.822275" lon="9.427311"><time>2024-03-23T07:49:31.000Z</time><ele>481.6</ele></trkpt><trkpt lat="45.822273" lon="9.427313"><time>2024-03-23T07:49:32.000Z</time><ele>481.8</ele></trkpt><trkpt lat="45.82228" lon="9.427317"><time>2024-03-23T07:49:33.000Z</time><ele>481.8</ele></trkpt><trkpt lat="45.82229" lon="9.427325"><time>2024-03-23T07:49:34.000Z</time><ele>482</ele></trkpt><trkpt lat="45.822307" lon="9.427334"><time>2024-03-23T07:49:35.000Z</time><ele>482.2</ele></trkpt><trkpt lat="45.822311" lon="9.427337"><time>2024-03-23T07:49:36.000Z</time><ele>482.4</ele></trkpt><trkpt lat="45.822319" lon="9.427342"><time>2024-03-23T07:49:37.000Z</time><ele>482.4</ele></trkpt><trkpt lat="45.82232" lon="9.427361"><time>2024-03-23T07:49:38.000Z</time><ele>482.6</ele></trkpt><trkpt lat="45.822317" lon="9.42738"><time>2024-03-23T07:49:39.000Z</time><ele>482.8</ele></trkpt><trkpt lat="45.822315" lon="9.42739"><time>2024-03-23T07:49:40.000Z</time><ele>482.8</ele></trkpt><trkpt lat="45.822317" lon="9.427394"><time>2024-03-23T07:49:41.000Z</time><ele>483.2</ele></trkpt><trkpt lat="45.822311" lon="9.427397"><time>2024-03-23T07:49:42.000Z</time><ele>483.4</ele></trkpt><trkpt lat="45.822305" lon="9.427396"><time>2024-03-23T07:49:43.000Z</time><ele>483.6</ele></trkpt><trkpt lat="45.822301" lon="9.427403"><time>2024-03-23T07:49:44.000Z</time><ele>483.6</ele></trkpt><trkpt lat="45.822302" lon="9.427413"><time>2024-03-23T07:49:45.000Z</time><ele>483.8</ele></trkpt><trkpt lat="45.822305" lon="9.427415"><time>2024-03-23T07:49:46.000Z</time><ele>484</ele></trkpt><trkpt lat="45.822308" lon="9.427415"><time>2024-03-23T07:49:47.000Z</time><ele>484</ele></trkpt><trkpt lat="45.822309" lon="9.427415"><time>2024-03-23T07:49:48.000Z</time><ele>484.2</ele></trkpt><trkpt lat="45.822311" lon="9.427415"><time>2024-03-23T07:49:49.000Z</time><ele>484.4</ele></trkpt><trkpt lat="45.822308" lon="9.427416"><time>2024-03-23T07:49:50.000Z</time><ele>484.6</ele></trkpt><trkpt lat="45.822305" lon="9.427425"><time>2024-03-23T07:49:51.000Z</time><ele>484.8</ele></trkpt><trkpt lat="45.82231" lon="9.427435"><time>2024-03-23T07:49:52.000Z</time><ele>485</ele></trkpt><trkpt lat="45.822309" lon="9.427438"><time>2024-03-23T07:49:53.000Z</time><ele>485.2</ele></trkpt><trkpt lat="45.822307" lon="9.427437"><time>2024-03-23T07:49:54.000Z</time><ele>485.4</ele></trkpt><trkpt lat="45.822304" lon="9.42744"><time>2024-03-23T07:49:55.000Z</time><ele>485.6</ele></trkpt><trkpt lat="45.82231" lon="9.427455"><time>2024-03-23T07:49:56.000Z</time><ele>485.6</ele></trkpt><trkpt lat="45.822317" lon="9.427473"><time>2024-03-23T07:49:57.000Z</time><ele>485.8</ele></trkpt><trkpt lat="45.822328" lon="9.427486"><time>2024-03-23T07:49:58.000Z</time><ele>485.8</ele></trkpt><trkpt lat="45.822331" lon="9.427495"><time>2024-03-23T07:49:59.000Z</time><ele>486</ele></trkpt><trkpt lat="45.822334" lon="9.427498"><time>2024-03-23T07:50:00.000Z</time><ele>486</ele></trkpt><trkpt lat="45.822337" lon="9.427495"><time>2024-03-23T07:50:01.000Z</time><ele>486.2</ele></trkpt><trkpt lat="45.822338" lon="9.427492"><time>2024-03-23T07:50:02.000Z</time><ele>486.2</ele></trkpt><trkpt lat="45.822327" lon="9.42748"><time>2024-03-23T07:50:03.000Z</time><ele>486.4</ele></trkpt><trkpt lat="45.822318" lon="9.427467"><time>2024-03-23T07:50:04.000Z</time><ele>486.6</ele></trkpt><trkpt lat="45.822313" lon="9.427465"><time>2024-03-23T07:50:05.000Z</time><ele>486.8</ele></trkpt><trkpt lat="45.82231" lon="9.427465"><time>2024-03-23T07:50:06.000Z</time><ele>487</ele></trkpt><trkpt lat="45.822307" lon="9.427464"><time>2024-03-23T07:50:07.000Z</time><ele>487.2</ele></trkpt><trkpt lat="45.822308" lon="9.42746"><time>2024-03-23T07:50:08.000Z</time><ele>487.4</ele></trkpt><trkpt lat="45.822308" lon="9.427452"><time>2024-03-23T07:50:09.000Z</time><ele>487.4</ele></trkpt><trkpt lat="45.822298" lon="9.427451"><time>2024-03-23T07:50:10.000Z</time><ele>487.6</ele></trkpt><trkpt lat="45.822284" lon="9.427451"><time>2024-03-23T07:50:11.000Z</time><ele>487.8</ele></trkpt><trkpt lat="45.822277" lon="9.427455"><time>2024-03-23T07:50:12.000Z</time><ele>487.8</ele></trkpt><trkpt lat="45.822276" lon="9.427454"><time>2024-03-23T07:50:13.000Z</time><ele>488</ele></trkpt><trkpt lat="45.822274" lon="9.427457"><time>2024-03-23T07:50:14.000Z</time><ele>488</ele></trkpt><trkpt lat="45.822275" lon="9.427455"><time>2024-03-23T07:50:15.000Z</time><ele>488.2</ele></trkpt><trkpt lat="45.822277" lon="9.427445"><time>2024-03-23T07:50:16.000Z</time><ele>488.2</ele></trkpt><trkpt lat="45.82228" lon="9.427439"><time>2024-03-23T07:50:17.000Z</time><ele>488.4</ele></trkpt><trkpt lat="45.822286" lon="9.427441"><time>2024-03-23T07:50:18.000Z</time><ele>488.8</ele></trkpt><trkpt lat="45.822291" lon="9.427444"><time>2024-03-23T07:50:19.000Z</time><ele>489</ele></trkpt><trkpt lat="45.822295" lon="9.427444"><time>2024-03-23T07:50:20.000Z</time><ele>489.2</ele></trkpt><trkpt lat="45.822296" lon="9.427443"><time>2024-03-23T07:50:21.000Z</time><ele>489.4</ele></trkpt><trkpt lat="45.822296" lon="9.427447"><time>2024-03-23T07:50:22.000Z</time><ele>489.4</ele></trkpt><trkpt lat="45.822295" lon="9.427448"><time>2024-03-23T07:50:23.000Z</time><ele>489.6</ele></trkpt><trkpt lat="45.822295" lon="9.42745"><time>2024-03-23T07:50:24.000Z</time><ele>489.6</ele></trkpt><trkpt lat="45.822301" lon="9.427456"><time>2024-03-23T07:50:25.000Z</time><ele>489.6</ele></trkpt><trkpt lat="45.822311" lon="9.427457"><time>2024-03-23T07:50:26.000Z</time><ele>489.8</ele></trkpt><trkpt lat="45.82232" lon="9.427456"><time>2024-03-23T07:50:27.000Z</time><ele>489.8</ele></trkpt><trkpt lat="45.822336" lon="9.42746"><time>2024-03-23T07:50:28.000Z</time><ele>489.8</ele></trkpt><trkpt lat="45.822354" lon="9.427475"><time>2024-03-23T07:50:29.000Z</time><ele>490</ele></trkpt><trkpt lat="45.822373" lon="9.427492"><time>2024-03-23T07:50:30.000Z</time><ele>490</ele></trkpt><trkpt lat="45.822386" lon="9.427505"><time>2024-03-23T07:50:31.000Z</time><ele>490.6</ele></trkpt><trkpt lat="45.822396" lon="9.427517"><time>2024-03-23T07:50:32.000Z</time><ele>490.8</ele></trkpt><trkpt lat="45.82241" lon="9.427531"><time>2024-03-23T07:50:33.000Z</time><ele>491</ele></trkpt><trkpt lat="45.822417" lon="9.427537"><time>2024-03-23T07:50:34.000Z</time><ele>491.2</ele></trkpt><trkpt lat="45.822428" lon="9.427541"><time>2024-03-23T07:50:35.000Z</time><ele>491.2</ele></trkpt><trkpt lat="45.822443" lon="9.42755"><time>2024-03-23T07:50:36.000Z</time><ele>491.2</ele></trkpt><trkpt lat="45.822454" lon="9.427556"><time>2024-03-23T07:50:37.000Z</time><ele>491.4</ele></trkpt><trkpt lat="45.822461" lon="9.427555"><time>2024-03-23T07:50:38.000Z</time><ele>491.4</ele></trkpt><trkpt lat="45.822472" lon="9.427559"><time>2024-03-23T07:50:39.000Z</time><ele>491.8</ele></trkpt><trkpt lat="45.822478" lon="9.427558"><time>2024-03-23T07:50:40.000Z</time><ele>492</ele></trkpt><trkpt lat="45.822481" lon="9.427556"><time>2024-03-23T07:50:41.000Z</time><ele>492.2</ele></trkpt><trkpt lat="45.822483" lon="9.427553"><time>2024-03-23T07:50:42.000Z</time><ele>492.4</ele></trkpt><trkpt lat="45.822488" lon="9.42755"><time>2024-03-23T07:50:43.000Z</time><ele>492.6</ele></trkpt><trkpt lat="45.822492" lon="9.427545"><time>2024-03-23T07:50:44.000Z</time><ele>492.6</ele></trkpt><trkpt lat="45.822494" lon="9.427538"><time>2024-03-23T07:50:45.000Z</time><ele>492.8</ele></trkpt><trkpt lat="45.822496" lon="9.427533"><time>2024-03-23T07:50:46.000Z</time><ele>492.8</ele></trkpt><trkpt lat="45.822512" lon="9.427534"><time>2024-03-23T07:50:47.000Z</time><ele>492.8</ele></trkpt><trkpt lat="45.822528" lon="9.42754"><time>2024-03-23T07:50:48.000Z</time><ele>492.8</ele></trkpt><trkpt lat="45.822535" lon="9.427538"><time>2024-03-23T07:50:49.000Z</time><ele>493</ele></trkpt><trkpt lat="45.822539" lon="9.427539"><time>2024-03-23T07:50:50.000Z</time><ele>493.2</ele></trkpt><trkpt lat="45.822541" lon="9.427537"><time>2024-03-23T07:50:51.000Z</time><ele>493.4</ele></trkpt><trkpt lat="45.822543" lon="9.427532"><time>2024-03-23T07:50:52.000Z</time><ele>493.6</ele></trkpt><trkpt lat="45.822549" lon="9.427531"><time>2024-03-23T07:50:53.000Z</time><ele>493.6</ele></trkpt><trkpt lat="45.82255" lon="9.427531"><time>2024-03-23T07:50:54.000Z</time><ele>493.6</ele></trkpt><trkpt lat="45.822543" lon="9.427528"><time>2024-03-23T07:50:55.000Z</time><ele>493.6</ele></trkpt><trkpt lat="45.822538" lon="9.42752"><time>2024-03-23T07:50:56.000Z</time><ele>493.8</ele></trkpt><trkpt lat="45.822537" lon="9.427518"><time>2024-03-23T07:50:57.000Z</time><ele>493.8</ele></trkpt><trkpt lat="45.822546" lon="9.427521"><time>2024-03-23T07:50:58.000Z</time><ele>494</ele></trkpt><trkpt lat="45.822555" lon="9.427523"><time>2024-03-23T07:50:59.000Z</time><ele>494.2</ele></trkpt><trkpt lat="45.822559" lon="9.427519"><time>2024-03-23T07:51:00.000Z</time><ele>494.4</ele></trkpt><trkpt lat="45.822557" lon="9.427511"><time>2024-03-23T07:51:01.000Z</time><ele>494.4</ele></trkpt><trkpt lat="45.822549" lon="9.427502"><time>2024-03-23T07:51:02.000Z</time><ele>494.8</ele></trkpt><trkpt lat="45.822548" lon="9.427502"><time>2024-03-23T07:51:03.000Z</time><ele>494.8</ele></trkpt><trkpt lat="45.822555" lon="9.427507"><time>2024-03-23T07:51:04.000Z</time><ele>495</ele></trkpt><trkpt lat="45.822552" lon="9.427503"><time>2024-03-23T07:51:05.000Z</time><ele>495</ele></trkpt><trkpt lat="45.822553" lon="9.427501"><time>2024-03-23T07:51:06.000Z</time><ele>495.2</ele></trkpt><trkpt lat="45.822554" lon="9.427498"><time>2024-03-23T07:51:07.000Z</time><ele>495.2</ele></trkpt><trkpt lat="45.822556" lon="9.427499"><time>2024-03-23T07:51:08.000Z</time><ele>495.6</ele></trkpt><trkpt lat="45.822568" lon="9.427507"><time>2024-03-23T07:51:09.000Z</time><ele>495.6</ele></trkpt><trkpt lat="45.822572" lon="9.427512"><time>2024-03-23T07:51:10.000Z</time><ele>495.8</ele></trkpt><trkpt lat="45.822572" lon="9.427508"><time>2024-03-23T07:51:11.000Z</time><ele>495.8</ele></trkpt><trkpt lat="45.822571" lon="9.427501"><time>2024-03-23T07:51:12.000Z</time><ele>496</ele></trkpt><trkpt lat="45.82257" lon="9.427494"><time>2024-03-23T07:51:13.000Z</time><ele>496.2</ele></trkpt><trkpt lat="45.822568" lon="9.427488"><time>2024-03-23T07:51:14.000Z</time><ele>496.4</ele></trkpt><trkpt lat="45.82257" lon="9.427475"><time>2024-03-23T07:51:15.000Z</time><ele>496.6</ele></trkpt><trkpt lat="45.82257" lon="9.427469"><time>2024-03-23T07:51:16.000Z</time><ele>496.6</ele></trkpt><trkpt lat="45.822569" lon="9.427466"><time>2024-03-23T07:51:17.000Z</time><ele>497.2</ele></trkpt><trkpt lat="45.822567" lon="9.427462"><time>2024-03-23T07:51:18.000Z</time><ele>497.4</ele></trkpt><trkpt lat="45.822569" lon="9.427453"><time>2024-03-23T07:51:19.000Z</time><ele>497.6</ele></trkpt><trkpt lat="45.822584" lon="9.42745"><time>2024-03-23T07:51:20.000Z</time><ele>497.6</ele></trkpt><trkpt lat="45.822598" lon="9.427442"><time>2024-03-23T07:51:21.000Z</time><ele>497.8</ele></trkpt><trkpt lat="45.822605" lon="9.427422"><time>2024-03-23T07:51:22.000Z</time><ele>497.8</ele></trkpt><trkpt lat="45.822604" lon="9.427416"><time>2024-03-23T07:51:23.000Z</time><ele>497.8</ele></trkpt><trkpt lat="45.822605" lon="9.427412"><time>2024-03-23T07:51:24.000Z</time><ele>497.8</ele></trkpt><trkpt lat="45.822607" lon="9.427411"><time>2024-03-23T07:51:25.000Z</time><ele>497.8</ele></trkpt><trkpt lat="45.822622" lon="9.427432"><time>2024-03-23T07:51:26.000Z</time><ele>498</ele></trkpt><trkpt lat="45.822626" lon="9.427435"><time>2024-03-23T07:51:27.000Z</time><ele>498.2</ele></trkpt><trkpt lat="45.822633" lon="9.427429"><time>2024-03-23T07:51:28.000Z</time><ele>498.4</ele></trkpt><trkpt lat="45.82264" lon="9.427423"><time>2024-03-23T07:51:29.000Z</time><ele>498.4</ele></trkpt><trkpt lat="45.822642" lon="9.427419"><time>2024-03-23T07:51:30.000Z</time><ele>498.6</ele></trkpt><trkpt lat="45.822651" lon="9.427408"><time>2024-03-23T07:51:31.000Z</time><ele>498.6</ele></trkpt><trkpt lat="45.822653" lon="9.427405"><time>2024-03-23T07:51:32.000Z</time><ele>498.6</ele></trkpt><trkpt lat="45.822669" lon="9.427405"><time>2024-03-23T07:51:33.000Z</time><ele>498.8</ele></trkpt><trkpt lat="45.822671" lon="9.427405"><time>2024-03-23T07:51:34.000Z</time><ele>499</ele></trkpt><trkpt lat="45.822682" lon="9.427396"><time>2024-03-23T07:51:35.000Z</time><ele>499.2</ele></trkpt><trkpt lat="45.822685" lon="9.427393"><time>2024-03-23T07:51:36.000Z</time><ele>499.4</ele></trkpt><trkpt lat="45.822691" lon="9.427398"><time>2024-03-23T07:51:37.000Z</time><ele>499.6</ele></trkpt><trkpt lat="45.822696" lon="9.427406"><time>2024-03-23T07:51:38.000Z</time><ele>499.8</ele></trkpt><trkpt lat="45.822699" lon="9.427408"><time>2024-03-23T07:51:39.000Z</time><ele>500</ele></trkpt><trkpt lat="45.822706" lon="9.42741"><time>2024-03-23T07:51:40.000Z</time><ele>500</ele></trkpt><trkpt lat="45.822709" lon="9.42741"><time>2024-03-23T07:51:41.000Z</time><ele>500</ele></trkpt><trkpt lat="45.822713" lon="9.427412"><time>2024-03-23T07:51:42.000Z</time><ele>500.2</ele></trkpt><trkpt lat="45.822716" lon="9.427413"><time>2024-03-23T07:51:43.000Z</time><ele>500.4</ele></trkpt><trkpt lat="45.822718" lon="9.427414"><time>2024-03-23T07:51:44.000Z</time><ele>500.4</ele></trkpt><trkpt lat="45.822719" lon="9.427411"><time>2024-03-23T07:51:45.000Z</time><ele>500.4</ele></trkpt><trkpt lat="45.822719" lon="9.427409"><time>2024-03-23T07:51:46.000Z</time><ele>500.6</ele></trkpt><trkpt lat="45.82272" lon="9.427418"><time>2024-03-23T07:51:47.000Z</time><ele>500.8</ele></trkpt><trkpt lat="45.822724" lon="9.427423"><time>2024-03-23T07:51:48.000Z</time><ele>501</ele></trkpt><trkpt lat="45.822728" lon="9.427424"><time>2024-03-23T07:51:49.000Z</time><ele>501.2</ele></trkpt><trkpt lat="45.822734" lon="9.427432"><time>2024-03-23T07:51:50.000Z</time><ele>501.2</ele></trkpt><trkpt lat="45.822743" lon="9.427435"><time>2024-03-23T07:51:51.000Z</time><ele>501.4</ele></trkpt><trkpt lat="45.822753" lon="9.427436"><time>2024-03-23T07:51:52.000Z</time><ele>501.6</ele></trkpt><trkpt lat="45.822761" lon="9.427442"><time>2024-03-23T07:51:53.000Z</time><ele>501.6</ele></trkpt><trkpt lat="45.822769" lon="9.427444"><time>2024-03-23T07:51:54.000Z</time><ele>501.8</ele></trkpt><trkpt lat="45.822773" lon="9.427445"><time>2024-03-23T07:51:55.000Z</time><ele>501.8</ele></trkpt><trkpt lat="45.822778" lon="9.427454"><time>2024-03-23T07:51:56.000Z</time><ele>502.2</ele></trkpt><trkpt lat="45.822784" lon="9.42746"><time>2024-03-23T07:51:57.000Z</time><ele>502.4</ele></trkpt><trkpt lat="45.822791" lon="9.42746"><time>2024-03-23T07:51:58.000Z</time><ele>502.4</ele></trkpt><trkpt lat="45.822802" lon="9.42746"><time>2024-03-23T07:51:59.000Z</time><ele>502.6</ele></trkpt><trkpt lat="45.822813" lon="9.427459"><time>2024-03-23T07:52:00.000Z</time><ele>502.6</ele></trkpt><trkpt lat="45.822816" lon="9.42746"><time>2024-03-23T07:52:01.000Z</time><ele>502.8</ele></trkpt><trkpt lat="45.822819" lon="9.42746"><time>2024-03-23T07:52:02.000Z</time><ele>503</ele></trkpt><trkpt lat="45.822826" lon="9.427463"><time>2024-03-23T07:52:03.000Z</time><ele>503.2</ele></trkpt><trkpt lat="45.822833" lon="9.427462"><time>2024-03-23T07:52:04.000Z</time><ele>503.4</ele></trkpt><trkpt lat="45.822839" lon="9.427458"><time>2024-03-23T07:52:05.000Z</time><ele>503.4</ele></trkpt><trkpt lat="45.822842" lon="9.427457"><time>2024-03-23T07:52:06.000Z</time><ele>503.4</ele></trkpt><trkpt lat="45.822848" lon="9.427471"><time>2024-03-23T07:52:07.000Z</time><ele>503.6</ele></trkpt><trkpt lat="45.822856" lon="9.427481"><time>2024-03-23T07:52:08.000Z</time><ele>503.6</ele></trkpt><trkpt lat="45.822868" lon="9.42749"><time>2024-03-23T07:52:09.000Z</time><ele>503.6</ele></trkpt><trkpt lat="45.822881" lon="9.427495"><time>2024-03-23T07:52:10.000Z</time><ele>503.8</ele></trkpt><trkpt lat="45.822886" lon="9.427488"><time>2024-03-23T07:52:11.000Z</time><ele>503.8</ele></trkpt><trkpt lat="45.822886" lon="9.427485"><time>2024-03-23T07:52:12.000Z</time><ele>504</ele></trkpt><trkpt lat="45.822902" lon="9.42748"><time>2024-03-23T07:52:13.000Z</time><ele>504.2</ele></trkpt><trkpt lat="45.822915" lon="9.427478"><time>2024-03-23T07:52:14.000Z</time><ele>504.4</ele></trkpt><trkpt lat="45.822924" lon="9.427472"><time>2024-03-23T07:52:15.000Z</time><ele>504.6</ele></trkpt><trkpt lat="45.822926" lon="9.427468"><time>2024-03-23T07:52:16.000Z</time><ele>504.6</ele></trkpt><trkpt lat="45.822931" lon="9.427457"><time>2024-03-23T07:52:17.000Z</time><ele>504.8</ele></trkpt><trkpt lat="45.822937" lon="9.427445"><time>2024-03-23T07:52:18.000Z</time><ele>505</ele></trkpt><trkpt lat="45.822943" lon="9.427435"><time>2024-03-23T07:52:19.000Z</time><ele>505</ele></trkpt><trkpt lat="45.822949" lon="9.427426"><time>2024-03-23T07:52:20.000Z</time><ele>505</ele></trkpt><trkpt lat="45.822956" lon="9.427423"><time>2024-03-23T07:52:21.000Z</time><ele>505</ele></trkpt><trkpt lat="45.822969" lon="9.427431"><time>2024-03-23T07:52:22.000Z</time><ele>505.2</ele></trkpt><trkpt lat="45.822978" lon="9.427433"><time>2024-03-23T07:52:23.000Z</time><ele>505.2</ele></trkpt><trkpt lat="45.822982" lon="9.427431"><time>2024-03-23T07:52:24.000Z</time><ele>505.2</ele></trkpt><trkpt lat="45.822986" lon="9.427428"><time>2024-03-23T07:52:25.000Z</time><ele>505.2</ele></trkpt><trkpt lat="45.822995" lon="9.427424"><time>2024-03-23T07:52:26.000Z</time><ele>505.2</ele></trkpt><trkpt lat="45.823012" lon="9.427428"><time>2024-03-23T07:52:27.000Z</time><ele>505.4</ele></trkpt><trkpt lat="45.82304" lon="9.427434"><time>2024-03-23T07:52:28.000Z</time><ele>505.4</ele></trkpt><trkpt lat="45.823056" lon="9.427441"><time>2024-03-23T07:52:29.000Z</time><ele>505.6</ele></trkpt><trkpt lat="45.823068" lon="9.427433"><time>2024-03-23T07:52:30.000Z</time><ele>505.6</ele></trkpt><trkpt lat="45.823068" lon="9.427422"><time>2024-03-23T07:52:31.000Z</time><ele>505.6</ele></trkpt><trkpt lat="45.823072" lon="9.427419"><time>2024-03-23T07:52:32.000Z</time><ele>505.8</ele></trkpt><trkpt lat="45.823077" lon="9.427411"><time>2024-03-23T07:52:33.000Z</time><ele>505.8</ele></trkpt><trkpt lat="45.823081" lon="9.4274"><time>2024-03-23T07:52:34.000Z</time><ele>505.8</ele></trkpt><trkpt lat="45.823082" lon="9.427393"><time>2024-03-23T07:52:35.000Z</time><ele>505.8</ele></trkpt><trkpt lat="45.823083" lon="9.427389"><time>2024-03-23T07:52:36.000Z</time><ele>505.6</ele></trkpt><trkpt lat="45.823089" lon="9.427387"><time>2024-03-23T07:52:37.000Z</time><ele>505.6</ele></trkpt><trkpt lat="45.823093" lon="9.427385"><time>2024-03-23T07:52:38.000Z</time><ele>505.6</ele></trkpt><trkpt lat="45.8231" lon="9.427381"><time>2024-03-23T07:52:39.000Z</time><ele>505.6</ele></trkpt><trkpt lat="45.823108" lon="9.427375"><time>2024-03-23T07:52:40.000Z</time><ele>505.6</ele></trkpt><trkpt lat="45.82312" lon="9.427376"><time>2024-03-23T07:52:41.000Z</time><ele>505.6</ele></trkpt><trkpt lat="45.823136" lon="9.427379"><time>2024-03-23T07:52:42.000Z</time><ele>505.6</ele></trkpt><trkpt lat="45.823149" lon="9.427374"><time>2024-03-23T07:52:43.000Z</time><ele>505.6</ele></trkpt><trkpt lat="45.823163" lon="9.427373"><time>2024-03-23T07:52:44.000Z</time><ele>505.6</ele></trkpt><trkpt lat="45.823178" lon="9.427375"><time>2024-03-23T07:52:45.000Z</time><ele>505.6</ele></trkpt><trkpt lat="45.823192" lon="9.427371"><time>2024-03-23T07:52:46.000Z</time><ele>505.6</ele></trkpt><trkpt lat="45.823203" lon="9.427367"><time>2024-03-23T07:52:47.000Z</time><ele>505.4</ele></trkpt><trkpt lat="45.823218" lon="9.427364"><time>2024-03-23T07:52:48.000Z</time><ele>505.4</ele></trkpt><trkpt lat="45.82323" lon="9.427365"><time>2024-03-23T07:52:49.000Z</time><ele>505.2</ele></trkpt><trkpt lat="45.823235" lon="9.427359"><time>2024-03-23T07:52:50.000Z</time><ele>505.2</ele></trkpt><trkpt lat="45.823235" lon="9.427352"><time>2024-03-23T07:52:51.000Z</time><ele>505.2</ele></trkpt><trkpt lat="45.823239" lon="9.427342"><time>2024-03-23T07:52:52.000Z</time><ele>505</ele></trkpt><trkpt lat="45.823246" lon="9.427328"><time>2024-03-23T07:52:53.000Z</time><ele>505</ele></trkpt><trkpt lat="45.823247" lon="9.427322"><time>2024-03-23T07:52:54.000Z</time><ele>505</ele></trkpt><trkpt lat="45.823254" lon="9.427311"><time>2024-03-23T07:52:55.000Z</time><ele>505</ele></trkpt><trkpt lat="45.823261" lon="9.427298"><time>2024-03-23T07:52:56.000Z</time><ele>505</ele></trkpt><trkpt lat="45.823267" lon="9.427286"><time>2024-03-23T07:52:57.000Z</time><ele>505</ele></trkpt><trkpt lat="45.823278" lon="9.427281"><time>2024-03-23T07:52:58.000Z</time><ele>505</ele></trkpt><trkpt lat="45.823284" lon="9.42728"><time>2024-03-23T07:52:59.000Z</time><ele>504.8</ele></trkpt><trkpt lat="45.823304" lon="9.427294"><time>2024-03-23T07:53:00.000Z</time><ele>504.8</ele></trkpt><trkpt lat="45.823324" lon="9.427301"><time>2024-03-23T07:53:01.000Z</time><ele>504.8</ele></trkpt><trkpt lat="45.823342" lon="9.427303"><time>2024-03-23T07:53:02.000Z</time><ele>504.8</ele></trkpt><trkpt lat="45.82335" lon="9.427305"><time>2024-03-23T07:53:03.000Z</time><ele>504.8</ele></trkpt><trkpt lat="45.823352" lon="9.427303"><time>2024-03-23T07:53:04.000Z</time><ele>504.8</ele></trkpt><trkpt lat="45.823354" lon="9.427302"><time>2024-03-23T07:53:05.000Z</time><ele>504.8</ele></trkpt><trkpt lat="45.823357" lon="9.427291"><time>2024-03-23T07:53:06.000Z</time><ele>504.6</ele></trkpt><trkpt lat="45.823357" lon="9.427281"><time>2024-03-23T07:53:07.000Z</time><ele>504.6</ele></trkpt><trkpt lat="45.823362" lon="9.427275"><time>2024-03-23T07:53:08.000Z</time><ele>504.6</ele></trkpt><trkpt lat="45.823373" lon="9.427266"><time>2024-03-23T07:53:09.000Z</time><ele>504.6</ele></trkpt><trkpt lat="45.823379" lon="9.427257"><time>2024-03-23T07:53:10.000Z</time><ele>504.6</ele></trkpt><trkpt lat="45.823387" lon="9.427245"><time>2024-03-23T07:53:11.000Z</time><ele>504.6</ele></trkpt><trkpt lat="45.82339" lon="9.427241"><time>2024-03-23T07:53:12.000Z</time><ele>504.6</ele></trkpt><trkpt lat="45.823391" lon="9.427235"><time>2024-03-23T07:53:13.000Z</time><ele>504.6</ele></trkpt><trkpt lat="45.823395" lon="9.427233"><time>2024-03-23T07:53:14.000Z</time><ele>504.6</ele></trkpt><trkpt lat="45.823399" lon="9.42723"><time>2024-03-23T07:53:15.000Z</time><ele>504.6</ele></trkpt><trkpt lat="45.823405" lon="9.427229"><time>2024-03-23T07:53:16.000Z</time><ele>504.6</ele></trkpt><trkpt lat="45.823412" lon="9.427232"><time>2024-03-23T07:53:17.000Z</time><ele>504.6</ele></trkpt><trkpt lat="45.823426" lon="9.427234"><time>2024-03-23T07:53:18.000Z</time><ele>504.8</ele></trkpt><trkpt lat="45.823439" lon="9.427238"><time>2024-03-23T07:53:19.000Z</time><ele>504.8</ele></trkpt><trkpt lat="45.823444" lon="9.427231"><time>2024-03-23T07:53:20.000Z</time><ele>505</ele></trkpt><trkpt lat="45.823449" lon="9.427235"><time>2024-03-23T07:53:21.000Z</time><ele>505</ele></trkpt><trkpt lat="45.823452" lon="9.427236"><time>2024-03-23T07:53:22.000Z</time><ele>505.2</ele></trkpt><trkpt lat="45.823455" lon="9.427227"><time>2024-03-23T07:53:23.000Z</time><ele>505.2</ele></trkpt><trkpt lat="45.823455" lon="9.427223"><time>2024-03-23T07:53:24.000Z</time><ele>505.4</ele></trkpt><trkpt lat="45.823455" lon="9.427221"><time>2024-03-23T07:53:25.000Z</time><ele>505.4</ele></trkpt><trkpt lat="45.823457" lon="9.427225"><time>2024-03-23T07:53:26.000Z</time><ele>505.4</ele></trkpt><trkpt lat="45.823463" lon="9.427225"><time>2024-03-23T07:53:27.000Z</time><ele>505.4</ele></trkpt><trkpt lat="45.82347" lon="9.427222"><time>2024-03-23T07:53:28.000Z</time><ele>505.6</ele></trkpt><trkpt lat="45.823478" lon="9.427213"><time>2024-03-23T07:53:29.000Z</time><ele>505.6</ele></trkpt><trkpt lat="45.823487" lon="9.427202"><time>2024-03-23T07:53:30.000Z</time><ele>505.6</ele></trkpt><trkpt lat="45.82349" lon="9.427189"><time>2024-03-23T07:53:31.000Z</time><ele>505.8</ele></trkpt><trkpt lat="45.82349" lon="9.42718"><time>2024-03-23T07:53:32.000Z</time><ele>505.8</ele></trkpt><trkpt lat="45.823483" lon="9.427166"><time>2024-03-23T07:53:33.000Z</time><ele>505.8</ele></trkpt><trkpt lat="45.823481" lon="9.427153"><time>2024-03-23T07:53:34.000Z</time><ele>505.6</ele></trkpt><trkpt lat="45.823491" lon="9.427143"><time>2024-03-23T07:53:35.000Z</time><ele>505.6</ele></trkpt><trkpt lat="45.823503" lon="9.427138"><time>2024-03-23T07:53:36.000Z</time><ele>505.6</ele></trkpt><trkpt lat="45.823519" lon="9.427136"><time>2024-03-23T07:53:37.000Z</time><ele>505.6</ele></trkpt><trkpt lat="45.82353" lon="9.427123"><time>2024-03-23T07:53:38.000Z</time><ele>505.6</ele></trkpt><trkpt lat="45.823538" lon="9.427112"><time>2024-03-23T07:53:39.000Z</time><ele>505.6</ele></trkpt><trkpt lat="45.823542" lon="9.427101"><time>2024-03-23T07:53:40.000Z</time><ele>505.6</ele></trkpt><trkpt lat="45.823547" lon="9.427095"><time>2024-03-23T07:53:41.000Z</time><ele>505.4</ele></trkpt><trkpt lat="45.82355" lon="9.427091"><time>2024-03-23T07:53:42.000Z</time><ele>505.4</ele></trkpt><trkpt lat="45.823549" lon="9.427088"><time>2024-03-23T07:53:43.000Z</time><ele>505.4</ele></trkpt><trkpt lat="45.82355" lon="9.427085"><time>2024-03-23T07:53:44.000Z</time><ele>505.4</ele></trkpt><trkpt lat="45.82355" lon="9.427083"><time>2024-03-23T07:53:45.000Z</time><ele>505.2</ele></trkpt><trkpt lat="45.82355" lon="9.42708"><time>2024-03-23T07:53:46.000Z</time><ele>505.2</ele></trkpt><trkpt lat="45.823549" lon="9.427078"><time>2024-03-23T07:53:47.000Z</time><ele>505.2</ele></trkpt><trkpt lat="45.82355" lon="9.42708"><time>2024-03-23T07:53:48.000Z</time><ele>505.2</ele></trkpt><trkpt lat="45.823551" lon="9.42708"><time>2024-03-23T07:53:49.000Z</time><ele>505.4</ele></trkpt><trkpt lat="45.823552" lon="9.427083"><time>2024-03-23T07:53:50.000Z</time><ele>505.4</ele></trkpt><trkpt lat="45.823553" lon="9.427081"><time>2024-03-23T07:53:51.000Z</time><ele>505.4</ele></trkpt><trkpt lat="45.823561" lon="9.42708"><time>2024-03-23T07:53:52.000Z</time><ele>505.6</ele></trkpt><trkpt lat="45.823569" lon="9.427078"><time>2024-03-23T07:53:53.000Z</time><ele>505.6</ele></trkpt><trkpt lat="45.823596" lon="9.427093"><time>2024-03-23T07:53:54.000Z</time><ele>505.6</ele></trkpt><trkpt lat="45.823608" lon="9.427098"><time>2024-03-23T07:53:55.000Z</time><ele>505.8</ele></trkpt><trkpt lat="45.823622" lon="9.427098"><time>2024-03-23T07:53:56.000Z</time><ele>505.8</ele></trkpt><trkpt lat="45.823637" lon="9.427098"><time>2024-03-23T07:53:57.000Z</time><ele>505.8</ele></trkpt><trkpt lat="45.823659" lon="9.427108"><time>2024-03-23T07:53:58.000Z</time><ele>505.8</ele></trkpt><trkpt lat="45.823662" lon="9.427108"><time>2024-03-23T07:53:59.000Z</time><ele>505.8</ele></trkpt><trkpt lat="45.823666" lon="9.427108"><time>2024-03-23T07:54:00.000Z</time><ele>505.8</ele></trkpt><trkpt lat="45.823668" lon="9.427106"><time>2024-03-23T07:54:01.000Z</time><ele>505.8</ele></trkpt><trkpt lat="45.823671" lon="9.427103"><time>2024-03-23T07:54:02.000Z</time><ele>505.8</ele></trkpt><trkpt lat="45.823674" lon="9.427103"><time>2024-03-23T07:54:03.000Z</time><ele>505.8</ele></trkpt><trkpt lat="45.823686" lon="9.427106"><time>2024-03-23T07:54:04.000Z</time><ele>505.8</ele></trkpt><trkpt lat="45.823705" lon="9.42711"><time>2024-03-23T07:54:05.000Z</time><ele>506</ele></trkpt><trkpt lat="45.823725" lon="9.427114"><time>2024-03-23T07:54:06.000Z</time><ele>506</ele></trkpt><trkpt lat="45.823724" lon="9.427114"><time>2024-03-23T07:54:07.000Z</time><ele>506</ele></trkpt><trkpt lat="45.823722" lon="9.427112"><time>2024-03-23T07:54:08.000Z</time><ele>506.2</ele></trkpt><trkpt lat="45.823724" lon="9.427111"><time>2024-03-23T07:54:09.000Z</time><ele>506.2</ele></trkpt><trkpt lat="45.823723" lon="9.42711"><time>2024-03-23T07:54:10.000Z</time><ele>505.8</ele></trkpt><trkpt lat="45.823723" lon="9.427107"><time>2024-03-23T07:54:11.000Z</time><ele>505.8</ele></trkpt><trkpt lat="45.823722" lon="9.427106"><time>2024-03-23T07:54:12.000Z</time><ele>505.6</ele></trkpt><trkpt lat="45.823714" lon="9.427097"><time>2024-03-23T07:54:13.000Z</time><ele>505.6</ele></trkpt><trkpt lat="45.823718" lon="9.427099"><time>2024-03-23T07:54:14.000Z</time><ele>505.6</ele></trkpt><trkpt lat="45.823722" lon="9.427104"><time>2024-03-23T07:54:15.000Z</time><ele>505.6</ele></trkpt><trkpt lat="45.823723" lon="9.427106"><time>2024-03-23T07:54:16.000Z</time><ele>505.6</ele></trkpt><trkpt lat="45.823725" lon="9.427106"><time>2024-03-23T07:54:17.000Z</time><ele>505.6</ele></trkpt><trkpt lat="45.823724" lon="9.427101"><time>2024-03-23T07:54:18.000Z</time><ele>505.6</ele></trkpt><trkpt lat="45.823727" lon="9.427101"><time>2024-03-23T07:54:19.000Z</time><ele>505.6</ele></trkpt><trkpt lat="45.823729" lon="9.427099"><time>2024-03-23T07:54:20.000Z</time><ele>505.6</ele></trkpt><trkpt lat="45.82373" lon="9.427084"><time>2024-03-23T07:54:21.000Z</time><ele>505.6</ele></trkpt><trkpt lat="45.823738" lon="9.427078"><time>2024-03-23T07:54:22.000Z</time><ele>505.6</ele></trkpt><trkpt lat="45.823739" lon="9.427074"><time>2024-03-23T07:54:23.000Z</time><ele>505.6</ele></trkpt><trkpt lat="45.823744" lon="9.427074"><time>2024-03-23T07:54:24.000Z</time><ele>505.6</ele></trkpt><trkpt lat="45.82375" lon="9.427079"><time>2024-03-23T07:54:25.000Z</time><ele>505.6</ele></trkpt><trkpt lat="45.823751" lon="9.427078"><time>2024-03-23T07:54:26.000Z</time><ele>505.8</ele></trkpt><trkpt lat="45.823762" lon="9.427099"><time>2024-03-23T07:54:27.000Z</time><ele>505.8</ele></trkpt><trkpt lat="45.823762" lon="9.427092"><time>2024-03-23T07:54:28.000Z</time><ele>505.8</ele></trkpt><trkpt lat="45.823762" lon="9.427091"><time>2024-03-23T07:54:29.000Z</time><ele>505.8</ele></trkpt><trkpt lat="45.823764" lon="9.42709"><time>2024-03-23T07:54:30.000Z</time><ele>505.8</ele></trkpt><trkpt lat="45.823767" lon="9.427091"><time>2024-03-23T07:54:31.000Z</time><ele>505.8</ele></trkpt><trkpt lat="45.823766" lon="9.427088"><time>2024-03-23T07:54:32.000Z</time><ele>505.8</ele></trkpt><trkpt lat="45.823759" lon="9.427082"><time>2024-03-23T07:54:33.000Z</time><ele>505.6</ele></trkpt><trkpt lat="45.823746" lon="9.427078"><time>2024-03-23T07:54:34.000Z</time><ele>505.6</ele></trkpt><trkpt lat="45.823735" lon="9.427072"><time>2024-03-23T07:54:35.000Z</time><ele>505.6</ele></trkpt><trkpt lat="45.823723" lon="9.427064"><time>2024-03-23T07:54:36.000Z</time><ele>505.6</ele></trkpt><trkpt lat="45.823712" lon="9.427061"><time>2024-03-23T07:54:37.000Z</time><ele>505.4</ele></trkpt><trkpt lat="45.823712" lon="9.427064"><time>2024-03-23T07:54:38.000Z</time><ele>505.4</ele></trkpt><trkpt lat="45.823716" lon="9.427061"><time>2024-03-23T07:54:39.000Z</time><ele>505.4</ele></trkpt><trkpt lat="45.823724" lon="9.427065"><time>2024-03-23T07:54:40.000Z</time><ele>505.4</ele></trkpt><trkpt lat="45.823724" lon="9.427069"><time>2024-03-23T07:54:41.000Z</time><ele>505.6</ele></trkpt><trkpt lat="45.82372" lon="9.427076"><time>2024-03-23T07:54:42.000Z</time><ele>505.8</ele></trkpt><trkpt lat="45.823719" lon="9.427094"><time>2024-03-23T07:54:43.000Z</time><ele>505.8</ele></trkpt><trkpt lat="45.823727" lon="9.427105"><time>2024-03-23T07:54:44.000Z</time><ele>506</ele></trkpt><trkpt lat="45.82373" lon="9.427112"><time>2024-03-23T07:54:45.000Z</time><ele>506</ele></trkpt><trkpt lat="45.823729" lon="9.427109"><time>2024-03-23T07:54:46.000Z</time><ele>506.2</ele></trkpt><trkpt lat="45.823738" lon="9.427118"><time>2024-03-23T07:54:47.000Z</time><ele>506.2</ele></trkpt><trkpt lat="45.823741" lon="9.427119"><time>2024-03-23T07:54:48.000Z</time><ele>506.4</ele></trkpt><trkpt lat="45.823738" lon="9.427122"><time>2024-03-23T07:54:49.000Z</time><ele>506.6</ele></trkpt><trkpt lat="45.823744" lon="9.427122"><time>2024-03-23T07:54:50.000Z</time><ele>506.6</ele></trkpt><trkpt lat="45.823749" lon="9.427121"><time>2024-03-23T07:54:51.000Z</time><ele>506.8</ele></trkpt><trkpt lat="45.823757" lon="9.427128"><time>2024-03-23T07:54:52.000Z</time><ele>507</ele></trkpt><trkpt lat="45.823763" lon="9.427136"><time>2024-03-23T07:54:53.000Z</time><ele>507</ele></trkpt><trkpt lat="45.823774" lon="9.427151"><time>2024-03-23T07:54:54.000Z</time><ele>507</ele></trkpt><trkpt lat="45.823776" lon="9.427155"><time>2024-03-23T07:54:55.000Z</time><ele>507</ele></trkpt><trkpt lat="45.823793" lon="9.427172"><time>2024-03-23T07:54:56.000Z</time><ele>507.2</ele></trkpt><trkpt lat="45.82381" lon="9.427186"><time>2024-03-23T07:54:57.000Z</time><ele>507.4</ele></trkpt><trkpt lat="45.82382" lon="9.427195"><time>2024-03-23T07:54:58.000Z</time><ele>507.6</ele></trkpt><trkpt lat="45.823824" lon="9.427198"><time>2024-03-23T07:54:59.000Z</time><ele>507.8</ele></trkpt><trkpt lat="45.823828" lon="9.427192"><time>2024-03-23T07:55:00.000Z</time><ele>507.8</ele></trkpt><trkpt lat="45.823837" lon="9.427192"><time>2024-03-23T07:55:01.000Z</time><ele>508</ele></trkpt><trkpt lat="45.823848" lon="9.427195"><time>2024-03-23T07:55:02.000Z</time><ele>508.2</ele></trkpt><trkpt lat="45.823855" lon="9.4272"><time>2024-03-23T07:55:03.000Z</time><ele>508.4</ele></trkpt><trkpt lat="45.823863" lon="9.427205"><time>2024-03-23T07:55:04.000Z</time><ele>508.4</ele></trkpt><trkpt lat="45.82387" lon="9.427209"><time>2024-03-23T07:55:05.000Z</time><ele>508.6</ele></trkpt><trkpt lat="45.823884" lon="9.427213"><time>2024-03-23T07:55:06.000Z</time><ele>508.8</ele></trkpt><trkpt lat="45.823892" lon="9.427219"><time>2024-03-23T07:55:07.000Z</time><ele>508.8</ele></trkpt><trkpt lat="45.823898" lon="9.427223"><time>2024-03-23T07:55:08.000Z</time><ele>508.8</ele></trkpt><trkpt lat="45.823909" lon="9.427231"><time>2024-03-23T07:55:09.000Z</time><ele>509</ele></trkpt><trkpt lat="45.82392" lon="9.427235"><time>2024-03-23T07:55:10.000Z</time><ele>509</ele></trkpt><trkpt lat="45.823941" lon="9.427251"><time>2024-03-23T07:55:11.000Z</time><ele>509.2</ele></trkpt><trkpt lat="45.823964" lon="9.427256"><time>2024-03-23T07:55:12.000Z</time><ele>509.4</ele></trkpt><trkpt lat="45.823976" lon="9.427265"><time>2024-03-23T07:55:13.000Z</time><ele>509.4</ele></trkpt><trkpt lat="45.82399" lon="9.427275"><time>2024-03-23T07:55:14.000Z</time><ele>509.6</ele></trkpt><trkpt lat="45.823989" lon="9.427277"><time>2024-03-23T07:55:15.000Z</time><ele>510</ele></trkpt><trkpt lat="45.823982" lon="9.427275"><time>2024-03-23T07:55:16.000Z</time><ele>510.2</ele></trkpt><trkpt lat="45.82398" lon="9.427275"><time>2024-03-23T07:55:17.000Z</time><ele>510.2</ele></trkpt><trkpt lat="45.823974" lon="9.427272"><time>2024-03-23T07:55:18.000Z</time><ele>510.4</ele></trkpt><trkpt lat="45.823976" lon="9.427273"><time>2024-03-23T07:55:19.000Z</time><ele>510.4</ele></trkpt><trkpt lat="45.823976" lon="9.427267"><time>2024-03-23T07:55:20.000Z</time><ele>510.4</ele></trkpt><trkpt lat="45.823985" lon="9.427275"><time>2024-03-23T07:55:21.000Z</time><ele>510.6</ele></trkpt><trkpt lat="45.823992" lon="9.427284"><time>2024-03-23T07:55:22.000Z</time><ele>510.8</ele></trkpt><trkpt lat="45.823993" lon="9.427286"><time>2024-03-23T07:55:23.000Z</time><ele>510.8</ele></trkpt><trkpt lat="45.823996" lon="9.427287"><time>2024-03-23T07:55:24.000Z</time><ele>511</ele></trkpt><trkpt lat="45.824011" lon="9.427289"><time>2024-03-23T07:55:25.000Z</time><ele>511</ele></trkpt><trkpt lat="45.824017" lon="9.427285"><time>2024-03-23T07:55:26.000Z</time><ele>511</ele></trkpt><trkpt lat="45.824012" lon="9.427282"><time>2024-03-23T07:55:27.000Z</time><ele>510.8</ele></trkpt><trkpt lat="45.824009" lon="9.427282"><time>2024-03-23T07:55:28.000Z</time><ele>510.8</ele></trkpt><trkpt lat="45.824002" lon="9.427278"><time>2024-03-23T07:55:29.000Z</time><ele>510.8</ele></trkpt><trkpt lat="45.823997" lon="9.42727"><time>2024-03-23T07:55:30.000Z</time><ele>510.8</ele></trkpt><trkpt lat="45.823994" lon="9.427266"><time>2024-03-23T07:55:31.000Z</time><ele>510.8</ele></trkpt><trkpt lat="45.823998" lon="9.42727"><time>2024-03-23T07:55:32.000Z</time><ele>510.6</ele></trkpt><trkpt lat="45.824004" lon="9.427274"><time>2024-03-23T07:55:33.000Z</time><ele>510.6</ele></trkpt><trkpt lat="45.824001" lon="9.427274"><time>2024-03-23T07:55:34.000Z</time><ele>510.6</ele></trkpt><trkpt lat="45.823998" lon="9.427276"><time>2024-03-23T07:55:35.000Z</time><ele>510.6</ele></trkpt><trkpt lat="45.823998" lon="9.42728"><time>2024-03-23T07:55:36.000Z</time><ele>510.6</ele></trkpt><trkpt lat="45.823999" lon="9.427282"><time>2024-03-23T07:55:37.000Z</time><ele>510.6</ele></trkpt><trkpt lat="45.824" lon="9.427278"><time>2024-03-23T07:55:38.000Z</time><ele>510.8</ele></trkpt><trkpt lat="45.824006" lon="9.427277"><time>2024-03-23T07:55:39.000Z</time><ele>511</ele></trkpt><trkpt lat="45.824012" lon="9.427284"><time>2024-03-23T07:55:40.000Z</time><ele>511</ele></trkpt><trkpt lat="45.824021" lon="9.42729"><time>2024-03-23T07:55:41.000Z</time><ele>511</ele></trkpt><trkpt lat="45.82404" lon="9.427294"><time>2024-03-23T07:55:42.000Z</time><ele>511</ele></trkpt><trkpt lat="45.824048" lon="9.427299"><time>2024-03-23T07:55:43.000Z</time><ele>510.8</ele></trkpt><trkpt lat="45.824067" lon="9.427307"><time>2024-03-23T07:55:44.000Z</time><ele>510.8</ele></trkpt><trkpt lat="45.824078" lon="9.427312"><time>2024-03-23T07:55:45.000Z</time><ele>510.8</ele></trkpt><trkpt lat="45.824092" lon="9.427311"><time>2024-03-23T07:55:46.000Z</time><ele>510.8</ele></trkpt><trkpt lat="45.824103" lon="9.427313"><time>2024-03-23T07:55:47.000Z</time><ele>510.8</ele></trkpt><trkpt lat="45.824114" lon="9.427309"><time>2024-03-23T07:55:48.000Z</time><ele>511</ele></trkpt><trkpt lat="45.824124" lon="9.427307"><time>2024-03-23T07:55:49.000Z</time><ele>511</ele></trkpt><trkpt lat="45.824125" lon="9.427302"><time>2024-03-23T07:55:50.000Z</time><ele>511</ele></trkpt><trkpt lat="45.82412" lon="9.427297"><time>2024-03-23T07:55:51.000Z</time><ele>511.2</ele></trkpt><trkpt lat="45.824119" lon="9.427299"><time>2024-03-23T07:55:52.000Z</time><ele>511.4</ele></trkpt><trkpt lat="45.824114" lon="9.427297"><time>2024-03-23T07:55:53.000Z</time><ele>511.6</ele></trkpt><trkpt lat="45.824111" lon="9.427296"><time>2024-03-23T07:55:54.000Z</time><ele>511.6</ele></trkpt><trkpt lat="45.824116" lon="9.427299"><time>2024-03-23T07:55:55.000Z</time><ele>511.8</ele></trkpt><trkpt lat="45.824124" lon="9.427304"><time>2024-03-23T07:55:56.000Z</time><ele>512</ele></trkpt><trkpt lat="45.82413" lon="9.427313"><time>2024-03-23T07:55:57.000Z</time><ele>512.2</ele></trkpt><trkpt lat="45.824132" lon="9.427317"><time>2024-03-23T07:55:58.000Z</time><ele>512.4</ele></trkpt><trkpt lat="45.824133" lon="9.427323"><time>2024-03-23T07:55:59.000Z</time><ele>512.6</ele></trkpt><trkpt lat="45.824138" lon="9.427327"><time>2024-03-23T07:56:00.000Z</time><ele>512.8</ele></trkpt><trkpt lat="45.824141" lon="9.427327"><time>2024-03-23T07:56:01.000Z</time><ele>513.2</ele></trkpt><trkpt lat="45.82414" lon="9.427326"><time>2024-03-23T07:56:02.000Z</time><ele>513.4</ele></trkpt><trkpt lat="45.82414" lon="9.427326"><time>2024-03-23T07:56:03.000Z</time><ele>513.6</ele></trkpt><trkpt lat="45.82414" lon="9.427326"><time>2024-03-23T07:56:04.000Z</time><ele>513.6</ele></trkpt><trkpt lat="45.82414" lon="9.427326"><time>2024-03-23T07:56:05.000Z</time><ele>513.8</ele></trkpt><trkpt lat="45.824145" lon="9.427329"><time>2024-03-23T07:56:06.000Z</time><ele>513.8</ele></trkpt><trkpt lat="45.824159" lon="9.427334"><time>2024-03-23T07:56:07.000Z</time><ele>513.6</ele></trkpt><trkpt lat="45.824168" lon="9.427335"><time>2024-03-23T07:56:08.000Z</time><ele>513.6</ele></trkpt><trkpt lat="45.824175" lon="9.427326"><time>2024-03-23T07:56:09.000Z</time><ele>513.6</ele></trkpt><trkpt lat="45.824185" lon="9.427319"><time>2024-03-23T07:56:10.000Z</time><ele>513.6</ele></trkpt><trkpt lat="45.824194" lon="9.427319"><time>2024-03-23T07:56:11.000Z</time><ele>513.8</ele></trkpt><trkpt lat="45.824209" lon="9.427324"><time>2024-03-23T07:56:12.000Z</time><ele>513.8</ele></trkpt><trkpt lat="45.82422" lon="9.42732"><time>2024-03-23T07:56:13.000Z</time><ele>514</ele></trkpt><trkpt lat="45.824236" lon="9.427322"><time>2024-03-23T07:56:14.000Z</time><ele>514</ele></trkpt><trkpt lat="45.82425" lon="9.427325"><time>2024-03-23T07:56:15.000Z</time><ele>514.2</ele></trkpt><trkpt lat="45.824265" lon="9.427329"><time>2024-03-23T07:56:16.000Z</time><ele>514.2</ele></trkpt><trkpt lat="45.824279" lon="9.427335"><time>2024-03-23T07:56:17.000Z</time><ele>514.2</ele></trkpt><trkpt lat="45.824298" lon="9.427349"><time>2024-03-23T07:56:18.000Z</time><ele>514.4</ele></trkpt><trkpt lat="45.824311" lon="9.42736"><time>2024-03-23T07:56:19.000Z</time><ele>514.6</ele></trkpt><trkpt lat="45.824326" lon="9.427366"><time>2024-03-23T07:56:20.000Z</time><ele>514.8</ele></trkpt><trkpt lat="45.824345" lon="9.42737"><time>2024-03-23T07:56:21.000Z</time><ele>515</ele></trkpt><trkpt lat="45.824358" lon="9.427373"><time>2024-03-23T07:56:22.000Z</time><ele>515.2</ele></trkpt><trkpt lat="45.824369" lon="9.427375"><time>2024-03-23T07:56:23.000Z</time><ele>515.2</ele></trkpt><trkpt lat="45.824373" lon="9.427374"><time>2024-03-23T07:56:24.000Z</time><ele>515.4</ele></trkpt><trkpt lat="45.82438" lon="9.427377"><time>2024-03-23T07:56:25.000Z</time><ele>515.6</ele></trkpt><trkpt lat="45.82439" lon="9.427384"><time>2024-03-23T07:56:26.000Z</time><ele>515.8</ele></trkpt><trkpt lat="45.824396" lon="9.42739"><time>2024-03-23T07:56:27.000Z</time><ele>516</ele></trkpt><trkpt lat="45.824397" lon="9.427391"><time>2024-03-23T07:56:28.000Z</time><ele>516</ele></trkpt><trkpt lat="45.824398" lon="9.42739"><time>2024-03-23T07:56:29.000Z</time><ele>516.4</ele></trkpt><trkpt lat="45.824398" lon="9.427389"><time>2024-03-23T07:56:30.000Z</time><ele>516.6</ele></trkpt><trkpt lat="45.824405" lon="9.427396"><time>2024-03-23T07:56:31.000Z</time><ele>516.8</ele></trkpt><trkpt lat="45.824414" lon="9.427402"><time>2024-03-23T07:56:32.000Z</time><ele>517</ele></trkpt><trkpt lat="45.824418" lon="9.427395"><time>2024-03-23T07:56:33.000Z</time><ele>517</ele></trkpt><trkpt lat="45.824421" lon="9.42739"><time>2024-03-23T07:56:34.000Z</time><ele>517.2</ele></trkpt><trkpt lat="45.824426" lon="9.427387"><time>2024-03-23T07:56:35.000Z</time><ele>517.2</ele></trkpt><trkpt lat="45.824433" lon="9.427388"><time>2024-03-23T07:56:36.000Z</time><ele>517.4</ele></trkpt><trkpt lat="45.824444" lon="9.427393"><time>2024-03-23T07:56:37.000Z</time><ele>517.6</ele></trkpt><trkpt lat="45.824446" lon="9.427396"><time>2024-03-23T07:56:38.000Z</time><ele>517.8</ele></trkpt><trkpt lat="45.824448" lon="9.427398"><time>2024-03-23T07:56:39.000Z</time><ele>518</ele></trkpt><trkpt lat="45.824451" lon="9.427402"><time>2024-03-23T07:56:40.000Z</time><ele>518.2</ele></trkpt><trkpt lat="45.824454" lon="9.427406"><time>2024-03-23T07:56:41.000Z</time><ele>518.4</ele></trkpt><trkpt lat="45.824459" lon="9.42741"><time>2024-03-23T07:56:42.000Z</time><ele>518.4</ele></trkpt><trkpt lat="45.824461" lon="9.427409"><time>2024-03-23T07:56:43.000Z</time><ele>518.6</ele></trkpt><trkpt lat="45.824462" lon="9.427409"><time>2024-03-23T07:56:44.000Z</time><ele>518.8</ele></trkpt><trkpt lat="45.824472" lon="9.427416"><time>2024-03-23T07:56:45.000Z</time><ele>519</ele></trkpt><trkpt lat="45.824475" lon="9.427419"><time>2024-03-23T07:56:46.000Z</time><ele>519.2</ele></trkpt><trkpt lat="45.824465" lon="9.427418"><time>2024-03-23T07:56:47.000Z</time><ele>519.6</ele></trkpt><trkpt lat="45.824462" lon="9.427418"><time>2024-03-23T07:56:48.000Z</time><ele>519.8</ele></trkpt><trkpt lat="45.824462" lon="9.427419"><time>2024-03-23T07:56:49.000Z</time><ele>520</ele></trkpt><trkpt lat="45.82446" lon="9.427423"><time>2024-03-23T07:56:50.000Z</time><ele>520</ele></trkpt><trkpt lat="45.824466" lon="9.427424"><time>2024-03-23T07:56:51.000Z</time><ele>520.2</ele></trkpt><trkpt lat="45.824468" lon="9.42743"><time>2024-03-23T07:56:52.000Z</time><ele>520.4</ele></trkpt><trkpt lat="45.824467" lon="9.427431"><time>2024-03-23T07:56:53.000Z</time><ele>520.6</ele></trkpt><trkpt lat="45.824474" lon="9.427437"><time>2024-03-23T07:56:54.000Z</time><ele>520.8</ele></trkpt><trkpt lat="45.824474" lon="9.427437"><time>2024-03-23T07:56:55.000Z</time><ele>520.8</ele></trkpt><trkpt lat="45.824474" lon="9.427437"><time>2024-03-23T07:56:56.000Z</time><ele>521</ele></trkpt><trkpt lat="45.824474" lon="9.427437"><time>2024-03-23T07:56:57.000Z</time><ele>521</ele></trkpt><trkpt lat="45.824474" lon="9.427437"><time>2024-03-23T07:56:58.000Z</time><ele>521.2</ele></trkpt><trkpt lat="45.824474" lon="9.427437"><time>2024-03-23T07:56:59.000Z</time><ele>521.2</ele></trkpt><trkpt lat="45.824474" lon="9.427437"><time>2024-03-23T07:57:00.000Z</time><ele>521.4</ele></trkpt><trkpt lat="45.824474" lon="9.427437"><time>2024-03-23T07:57:01.000Z</time><ele>521.4</ele></trkpt><trkpt lat="45.824474" lon="9.427437"><time>2024-03-23T07:57:02.000Z</time><ele>521.6</ele></trkpt><trkpt lat="45.824474" lon="9.427437"><time>2024-03-23T07:57:03.000Z</time><ele>521.6</ele></trkpt><trkpt lat="45.824474" lon="9.427437"><time>2024-03-23T07:57:04.000Z</time><ele>521.6</ele></trkpt><trkpt lat="45.824474" lon="9.427437"><time>2024-03-23T07:57:05.000Z</time><ele>521.8</ele></trkpt><trkpt lat="45.824474" lon="9.427437"><time>2024-03-23T07:57:06.000Z</time><ele>522</ele></trkpt><trkpt lat="45.824474" lon="9.427437"><time>2024-03-23T07:57:07.000Z</time><ele>522</ele></trkpt><trkpt lat="45.824474" lon="9.427437"><time>2024-03-23T07:57:08.000Z</time><ele>522.2</ele></trkpt><trkpt lat="45.824475" lon="9.427437"><time>2024-03-23T07:57:09.000Z</time><ele>522.2</ele></trkpt><trkpt lat="45.824487" lon="9.427437"><time>2024-03-23T07:57:10.000Z</time><ele>522.2</ele></trkpt><trkpt lat="45.824489" lon="9.427437"><time>2024-03-23T07:57:11.000Z</time><ele>522.2</ele></trkpt><trkpt lat="45.824489" lon="9.427437"><time>2024-03-23T07:57:12.000Z</time><ele>522.2</ele></trkpt><trkpt lat="45.82449" lon="9.427438"><time>2024-03-23T07:57:13.000Z</time><ele>522</ele></trkpt><trkpt lat="45.824492" lon="9.427439"><time>2024-03-23T07:57:14.000Z</time><ele>522</ele></trkpt><trkpt lat="45.824492" lon="9.42744"><time>2024-03-23T07:57:15.000Z</time><ele>522</ele></trkpt><trkpt lat="45.8245" lon="9.42744"><time>2024-03-23T07:57:16.000Z</time><ele>522</ele></trkpt><trkpt lat="45.824501" lon="9.42744"><time>2024-03-23T07:57:17.000Z</time><ele>522</ele></trkpt><trkpt lat="45.824501" lon="9.42744"><time>2024-03-23T07:57:18.000Z</time><ele>522</ele></trkpt><trkpt lat="45.824502" lon="9.42744"><time>2024-03-23T07:57:19.000Z</time><ele>522</ele></trkpt><trkpt lat="45.824485" lon="9.427445"><time>2024-03-23T07:57:20.000Z</time><ele>522</ele></trkpt><trkpt lat="45.824481" lon="9.427443"><time>2024-03-23T07:57:21.000Z</time><ele>522.2</ele></trkpt><trkpt lat="45.82448" lon="9.42744"><time>2024-03-23T07:57:22.000Z</time><ele>522.4</ele></trkpt><trkpt lat="45.824487" lon="9.427444"><time>2024-03-23T07:57:23.000Z</time><ele>522.4</ele></trkpt><trkpt lat="45.824486" lon="9.427449"><time>2024-03-23T07:57:24.000Z</time><ele>522.6</ele></trkpt><trkpt lat="45.82449" lon="9.427455"><time>2024-03-23T07:57:25.000Z</time><ele>522.6</ele></trkpt><trkpt lat="45.824497" lon="9.427457"><time>2024-03-23T07:57:26.000Z</time><ele>522.8</ele></trkpt><trkpt lat="45.824506" lon="9.427459"><time>2024-03-23T07:57:27.000Z</time><ele>523</ele></trkpt><trkpt lat="45.824506" lon="9.427462"><time>2024-03-23T07:57:28.000Z</time><ele>523.2</ele></trkpt><trkpt lat="45.824511" lon="9.42746"><time>2024-03-23T07:57:29.000Z</time><ele>523.4</ele></trkpt><trkpt lat="45.824519" lon="9.427463"><time>2024-03-23T07:57:30.000Z</time><ele>523.6</ele></trkpt><trkpt lat="45.824522" lon="9.427466"><time>2024-03-23T07:57:31.000Z</time><ele>524</ele></trkpt><trkpt lat="45.824525" lon="9.427465"><time>2024-03-23T07:57:32.000Z</time><ele>524</ele></trkpt><trkpt lat="45.824533" lon="9.42747"><time>2024-03-23T07:57:33.000Z</time><ele>524.2</ele></trkpt><trkpt lat="45.824541" lon="9.427483"><time>2024-03-23T07:57:34.000Z</time><ele>524.6</ele></trkpt><trkpt lat="45.824551" lon="9.427493"><time>2024-03-23T07:57:35.000Z</time><ele>524.8</ele></trkpt><trkpt lat="45.824553" lon="9.427495"><time>2024-03-23T07:57:36.000Z</time><ele>525</ele></trkpt><trkpt lat="45.824565" lon="9.427499"><time>2024-03-23T07:57:37.000Z</time><ele>525</ele></trkpt><trkpt lat="45.824565" lon="9.427496"><time>2024-03-23T07:57:38.000Z</time><ele>525.2</ele></trkpt><trkpt lat="45.824568" lon="9.427498"><time>2024-03-23T07:57:39.000Z</time><ele>525.4</ele></trkpt><trkpt lat="45.824577" lon="9.427495"><time>2024-03-23T07:57:40.000Z</time><ele>525.6</ele></trkpt><trkpt lat="45.824591" lon="9.427496"><time>2024-03-23T07:57:41.000Z</time><ele>525.6</ele></trkpt><trkpt lat="45.824602" lon="9.427497"><time>2024-03-23T07:57:42.000Z</time><ele>525.8</ele></trkpt><trkpt lat="45.824611" lon="9.427499"><time>2024-03-23T07:57:43.000Z</time><ele>525.8</ele></trkpt><trkpt lat="45.824615" lon="9.427504"><time>2024-03-23T07:57:44.000Z</time><ele>525.8</ele></trkpt><trkpt lat="45.824632" lon="9.427512"><time>2024-03-23T07:57:45.000Z</time><ele>526</ele></trkpt><trkpt lat="45.824647" lon="9.427524"><time>2024-03-23T07:57:46.000Z</time><ele>526</ele></trkpt><trkpt lat="45.824657" lon="9.427535"><time>2024-03-23T07:57:47.000Z</time><ele>526</ele></trkpt><trkpt lat="45.824663" lon="9.427545"><time>2024-03-23T07:57:48.000Z</time><ele>526</ele></trkpt><trkpt lat="45.824669" lon="9.427546"><time>2024-03-23T07:57:49.000Z</time><ele>526.4</ele></trkpt><trkpt lat="45.824672" lon="9.427538"><time>2024-03-23T07:57:50.000Z</time><ele>526.6</ele></trkpt><trkpt lat="45.824676" lon="9.427536"><time>2024-03-23T07:57:51.000Z</time><ele>526.8</ele></trkpt><trkpt lat="45.82468" lon="9.427534"><time>2024-03-23T07:57:52.000Z</time><ele>527</ele></trkpt><trkpt lat="45.824697" lon="9.427541"><time>2024-03-23T07:57:53.000Z</time><ele>527.2</ele></trkpt><trkpt lat="45.824703" lon="9.427528"><time>2024-03-23T07:57:54.000Z</time><ele>527.2</ele></trkpt><trkpt lat="45.824711" lon="9.427524"><time>2024-03-23T07:57:55.000Z</time><ele>527.2</ele></trkpt><trkpt lat="45.824711" lon="9.427522"><time>2024-03-23T07:57:56.000Z</time><ele>527.2</ele></trkpt><trkpt lat="45.824709" lon="9.427521"><time>2024-03-23T07:57:57.000Z</time><ele>527.2</ele></trkpt><trkpt lat="45.82471" lon="9.427521"><time>2024-03-23T07:57:58.000Z</time><ele>527.2</ele></trkpt><trkpt lat="45.824707" lon="9.427525"><time>2024-03-23T07:57:59.000Z</time><ele>527.4</ele></trkpt><trkpt lat="45.824711" lon="9.42753"><time>2024-03-23T07:58:00.000Z</time><ele>527.4</ele></trkpt><trkpt lat="45.824709" lon="9.427524"><time>2024-03-23T07:58:01.000Z</time><ele>527.6</ele></trkpt><trkpt lat="45.824702" lon="9.427508"><time>2024-03-23T07:58:02.000Z</time><ele>527.8</ele></trkpt><trkpt lat="45.8247" lon="9.427503"><time>2024-03-23T07:58:03.000Z</time><ele>528</ele></trkpt><trkpt lat="45.824707" lon="9.427507"><time>2024-03-23T07:58:04.000Z</time><ele>528.2</ele></trkpt><trkpt lat="45.824706" lon="9.427508"><time>2024-03-23T07:58:05.000Z</time><ele>528.4</ele></trkpt><trkpt lat="45.824704" lon="9.427509"><time>2024-03-23T07:58:06.000Z</time><ele>528.6</ele></trkpt><trkpt lat="45.824704" lon="9.42751"><time>2024-03-23T07:58:07.000Z</time><ele>528.6</ele></trkpt><trkpt lat="45.824704" lon="9.42751"><time>2024-03-23T07:58:08.000Z</time><ele>528.8</ele></trkpt><trkpt lat="45.824704" lon="9.42751"><time>2024-03-23T07:58:09.000Z</time><ele>528.8</ele></trkpt><trkpt lat="45.824704" lon="9.42751"><time>2024-03-23T07:58:10.000Z</time><ele>528.8</ele></trkpt><trkpt lat="45.824704" lon="9.42751"><time>2024-03-23T07:58:11.000Z</time><ele>528.8</ele></trkpt><trkpt lat="45.824704" lon="9.42751"><time>2024-03-23T07:58:12.000Z</time><ele>528.8</ele></trkpt><trkpt lat="45.824704" lon="9.42751"><time>2024-03-23T07:58:13.000Z</time><ele>528.8</ele></trkpt><trkpt lat="45.824704" lon="9.42751"><time>2024-03-23T07:58:14.000Z</time><ele>528.8</ele></trkpt><trkpt lat="45.824704" lon="9.42751"><time>2024-03-23T07:58:15.000Z</time><ele>528.8</ele></trkpt><trkpt lat="45.824704" lon="9.42751"><time>2024-03-23T07:58:16.000Z</time><ele>528.8</ele></trkpt><trkpt lat="45.824704" lon="9.42751"><time>2024-03-23T07:58:17.000Z</time><ele>528.8</ele></trkpt><trkpt lat="45.824704" lon="9.427509"><time>2024-03-23T07:58:18.000Z</time><ele>528.8</ele></trkpt><trkpt lat="45.824704" lon="9.427509"><time>2024-03-23T07:58:19.000Z</time><ele>528.8</ele></trkpt><trkpt lat="45.824704" lon="9.427508"><time>2024-03-23T07:58:20.000Z</time><ele>528.8</ele></trkpt><trkpt lat="45.824702" lon="9.427508"><time>2024-03-23T07:58:21.000Z</time><ele>528.8</ele></trkpt><trkpt lat="45.824702" lon="9.427508"><time>2024-03-23T07:58:22.000Z</time><ele>528.8</ele></trkpt><trkpt lat="45.824703" lon="9.427505"><time>2024-03-23T07:58:23.000Z</time><ele>528.8</ele></trkpt><trkpt lat="45.824705" lon="9.4275"><time>2024-03-23T07:58:24.000Z</time><ele>528.8</ele></trkpt><trkpt lat="45.824708" lon="9.427494"><time>2024-03-23T07:58:25.000Z</time><ele>528.8</ele></trkpt><trkpt lat="45.824712" lon="9.427488"><time>2024-03-23T07:58:26.000Z</time><ele>528.8</ele></trkpt><trkpt lat="45.824716" lon="9.427477"><time>2024-03-23T07:58:27.000Z</time><ele>528.8</ele></trkpt><trkpt lat="45.824717" lon="9.427466"><time>2024-03-23T07:58:28.000Z</time><ele>528.8</ele></trkpt><trkpt lat="45.824718" lon="9.427461"><time>2024-03-23T07:58:29.000Z</time><ele>528.8</ele></trkpt><trkpt lat="45.82472" lon="9.427455"><time>2024-03-23T07:58:30.000Z</time><ele>528.8</ele></trkpt><trkpt lat="45.824731" lon="9.427466"><time>2024-03-23T07:58:31.000Z</time><ele>528.8</ele></trkpt><trkpt lat="45.824737" lon="9.427473"><time>2024-03-23T07:58:32.000Z</time><ele>528.6</ele></trkpt><trkpt lat="45.824743" lon="9.427477"><time>2024-03-23T07:58:33.000Z</time><ele>528.6</ele></trkpt><trkpt lat="45.824752" lon="9.427481"><time>2024-03-23T07:58:34.000Z</time><ele>528.6</ele></trkpt><trkpt lat="45.824754" lon="9.427483"><time>2024-03-23T07:58:35.000Z</time><ele>528.6</ele></trkpt><trkpt lat="45.824765" lon="9.427487"><time>2024-03-23T07:58:36.000Z</time><ele>528.6</ele></trkpt><trkpt lat="45.824778" lon="9.427491"><time>2024-03-23T07:58:37.000Z</time><ele>528.6</ele></trkpt><trkpt lat="45.824783" lon="9.427492"><time>2024-03-23T07:58:38.000Z</time><ele>528.6</ele></trkpt><trkpt lat="45.824791" lon="9.427499"><time>2024-03-23T07:58:39.000Z</time><ele>528.6</ele></trkpt><trkpt lat="45.824796" lon="9.4275"><time>2024-03-23T07:58:40.000Z</time><ele>528.6</ele></trkpt><trkpt lat="45.824805" lon="9.427506"><time>2024-03-23T07:58:41.000Z</time><ele>528.6</ele></trkpt><trkpt lat="45.824809" lon="9.427508"><time>2024-03-23T07:58:42.000Z</time><ele>528.6</ele></trkpt><trkpt lat="45.824804" lon="9.427507"><time>2024-03-23T07:58:43.000Z</time><ele>528.8</ele></trkpt><trkpt lat="45.824794" lon="9.427507"><time>2024-03-23T07:58:44.000Z</time><ele>528.8</ele></trkpt><trkpt lat="45.824787" lon="9.427512"><time>2024-03-23T07:58:45.000Z</time><ele>529</ele></trkpt><trkpt lat="45.824784" lon="9.427516"><time>2024-03-23T07:58:46.000Z</time><ele>529.2</ele></trkpt><trkpt lat="45.824776" lon="9.427515"><time>2024-03-23T07:58:47.000Z</time><ele>529.4</ele></trkpt><trkpt lat="45.824774" lon="9.427518"><time>2024-03-23T07:58:48.000Z</time><ele>529.4</ele></trkpt><trkpt lat="45.824772" lon="9.427515"><time>2024-03-23T07:58:49.000Z</time><ele>529.6</ele></trkpt><trkpt lat="45.82478" lon="9.427517"><time>2024-03-23T07:58:50.000Z</time><ele>529.8</ele></trkpt><trkpt lat="45.824788" lon="9.427524"><time>2024-03-23T07:58:51.000Z</time><ele>530</ele></trkpt><trkpt lat="45.824817" lon="9.427534"><time>2024-03-23T07:58:52.000Z</time><ele>530.2</ele></trkpt><trkpt lat="45.824821" lon="9.427536"><time>2024-03-23T07:58:53.000Z</time><ele>530.4</ele></trkpt><trkpt lat="45.824837" lon="9.427542"><time>2024-03-23T07:58:54.000Z</time><ele>530.4</ele></trkpt><trkpt lat="45.824842" lon="9.427539"><time>2024-03-23T07:58:55.000Z</time><ele>530.8</ele></trkpt><trkpt lat="45.82485" lon="9.427534"><time>2024-03-23T07:58:56.000Z</time><ele>530.8</ele></trkpt><trkpt lat="45.824855" lon="9.427531"><time>2024-03-23T07:58:57.000Z</time><ele>531</ele></trkpt><trkpt lat="45.824858" lon="9.427527"><time>2024-03-23T07:58:58.000Z</time><ele>531</ele></trkpt><trkpt lat="45.824883" lon="9.427552"><time>2024-03-23T07:58:59.000Z</time><ele>531.2</ele></trkpt><trkpt lat="45.824885" lon="9.427554"><time>2024-03-23T07:59:00.000Z</time><ele>531.2</ele></trkpt><trkpt lat="45.824896" lon="9.427563"><time>2024-03-23T07:59:01.000Z</time><ele>531.4</ele></trkpt><trkpt lat="45.824915" lon="9.427576"><time>2024-03-23T07:59:02.000Z</time><ele>531.6</ele></trkpt><trkpt lat="45.824914" lon="9.427586"><time>2024-03-23T07:59:03.000Z</time><ele>531.8</ele></trkpt><trkpt lat="45.82493" lon="9.427597"><time>2024-03-23T07:59:04.000Z</time><ele>531.8</ele></trkpt><trkpt lat="45.824932" lon="9.427603"><time>2024-03-23T07:59:05.000Z</time><ele>531.8</ele></trkpt><trkpt lat="45.824949" lon="9.427613"><time>2024-03-23T07:59:06.000Z</time><ele>532</ele></trkpt><trkpt lat="45.824953" lon="9.427612"><time>2024-03-23T07:59:07.000Z</time><ele>532.2</ele></trkpt><trkpt lat="45.824959" lon="9.427613"><time>2024-03-23T07:59:08.000Z</time><ele>532.4</ele></trkpt><trkpt lat="45.824975" lon="9.427616"><time>2024-03-23T07:59:09.000Z</time><ele>532.6</ele></trkpt><trkpt lat="45.824988" lon="9.427621"><time>2024-03-23T07:59:10.000Z</time><ele>532.8</ele></trkpt><trkpt lat="45.825007" lon="9.427626"><time>2024-03-23T07:59:11.000Z</time><ele>532.8</ele></trkpt><trkpt lat="45.825026" lon="9.427629"><time>2024-03-23T07:59:12.000Z</time><ele>533.2</ele></trkpt><trkpt lat="45.82504" lon="9.427628"><time>2024-03-23T07:59:13.000Z</time><ele>533.6</ele></trkpt><trkpt lat="45.825054" lon="9.427631"><time>2024-03-23T07:59:14.000Z</time><ele>533.8</ele></trkpt><trkpt lat="45.825073" lon="9.427636"><time>2024-03-23T07:59:15.000Z</time><ele>534</ele></trkpt><trkpt lat="45.825085" lon="9.427641"><time>2024-03-23T07:59:16.000Z</time><ele>534</ele></trkpt><trkpt lat="45.825086" lon="9.42764"><time>2024-03-23T07:59:17.000Z</time><ele>534.2</ele></trkpt><trkpt lat="45.82508" lon="9.427636"><time>2024-03-23T07:59:18.000Z</time><ele>534.2</ele></trkpt><trkpt lat="45.825077" lon="9.427636"><time>2024-03-23T07:59:19.000Z</time><ele>534.2</ele></trkpt><trkpt lat="45.825076" lon="9.427638"><time>2024-03-23T07:59:20.000Z</time><ele>534.2</ele></trkpt><trkpt lat="45.825069" lon="9.427634"><time>2024-03-23T07:59:21.000Z</time><ele>534.4</ele></trkpt><trkpt lat="45.825062" lon="9.427615"><time>2024-03-23T07:59:22.000Z</time><ele>534.6</ele></trkpt><trkpt lat="45.825062" lon="9.427605"><time>2024-03-23T07:59:23.000Z</time><ele>534.8</ele></trkpt><trkpt lat="45.825062" lon="9.427603"><time>2024-03-23T07:59:24.000Z</time><ele>535</ele></trkpt><trkpt lat="45.82508" lon="9.427603"><time>2024-03-23T07:59:25.000Z</time><ele>535.4</ele></trkpt><trkpt lat="45.825091" lon="9.427596"><time>2024-03-23T07:59:26.000Z</time><ele>535.6</ele></trkpt><trkpt lat="45.825103" lon="9.427594"><time>2024-03-23T07:59:27.000Z</time><ele>536</ele></trkpt><trkpt lat="45.825116" lon="9.427602"><time>2024-03-23T07:59:28.000Z</time><ele>536</ele></trkpt><trkpt lat="45.825128" lon="9.427608"><time>2024-03-23T07:59:29.000Z</time><ele>536.2</ele></trkpt><trkpt lat="45.825138" lon="9.42761"><time>2024-03-23T07:59:30.000Z</time><ele>536.4</ele></trkpt><trkpt lat="45.825138" lon="9.427604"><time>2024-03-23T07:59:31.000Z</time><ele>536.4</ele></trkpt><trkpt lat="45.825146" lon="9.427596"><time>2024-03-23T07:59:32.000Z</time><ele>536.8</ele></trkpt><trkpt lat="45.825155" lon="9.427589"><time>2024-03-23T07:59:33.000Z</time><ele>537</ele></trkpt><trkpt lat="45.825158" lon="9.427587"><time>2024-03-23T07:59:34.000Z</time><ele>537.2</ele></trkpt><trkpt lat="45.825164" lon="9.427587"><time>2024-03-23T07:59:35.000Z</time><ele>537.4</ele></trkpt><trkpt lat="45.825164" lon="9.427583"><time>2024-03-23T07:59:36.000Z</time><ele>537.4</ele></trkpt><trkpt lat="45.825174" lon="9.42758"><time>2024-03-23T07:59:37.000Z</time><ele>537.6</ele></trkpt><trkpt lat="45.825188" lon="9.427579"><time>2024-03-23T07:59:38.000Z</time><ele>537.8</ele></trkpt><trkpt lat="45.825205" lon="9.427582"><time>2024-03-23T07:59:39.000Z</time><ele>537.8</ele></trkpt><trkpt lat="45.82521" lon="9.427579"><time>2024-03-23T07:59:40.000Z</time><ele>538</ele></trkpt><trkpt lat="45.825228" lon="9.427583"><time>2024-03-23T07:59:41.000Z</time><ele>538.2</ele></trkpt><trkpt lat="45.82523" lon="9.427577"><time>2024-03-23T07:59:42.000Z</time><ele>538.2</ele></trkpt><trkpt lat="45.825232" lon="9.427574"><time>2024-03-23T07:59:43.000Z</time><ele>538.4</ele></trkpt><trkpt lat="45.825244" lon="9.427573"><time>2024-03-23T07:59:44.000Z</time><ele>538.6</ele></trkpt><trkpt lat="45.825259" lon="9.427573"><time>2024-03-23T07:59:45.000Z</time><ele>538.8</ele></trkpt><trkpt lat="45.825272" lon="9.427581"><time>2024-03-23T07:59:46.000Z</time><ele>538.8</ele></trkpt><trkpt lat="45.825283" lon="9.42759"><time>2024-03-23T07:59:47.000Z</time><ele>539</ele></trkpt><trkpt lat="45.825299" lon="9.427596"><time>2024-03-23T07:59:48.000Z</time><ele>539.2</ele></trkpt><trkpt lat="45.825314" lon="9.427604"><time>2024-03-23T07:59:49.000Z</time><ele>539.2</ele></trkpt><trkpt lat="45.825322" lon="9.427603"><time>2024-03-23T07:59:50.000Z</time><ele>539.2</ele></trkpt><trkpt lat="45.825331" lon="9.427604"><time>2024-03-23T07:59:51.000Z</time><ele>539.2</ele></trkpt><trkpt lat="45.825334" lon="9.427591"><time>2024-03-23T07:59:52.000Z</time><ele>539.2</ele></trkpt><trkpt lat="45.825335" lon="9.427586"><time>2024-03-23T07:59:53.000Z</time><ele>539</ele></trkpt><trkpt lat="45.825345" lon="9.427589"><time>2024-03-23T07:59:54.000Z</time><ele>539</ele></trkpt><trkpt lat="45.825346" lon="9.427586"><time>2024-03-23T07:59:55.000Z</time><ele>539</ele></trkpt><trkpt lat="45.825348" lon="9.427582"><time>2024-03-23T07:59:56.000Z</time><ele>539</ele></trkpt><trkpt lat="45.825353" lon="9.427579"><time>2024-03-23T07:59:57.000Z</time><ele>539.2</ele></trkpt><trkpt lat="45.825369" lon="9.427574"><time>2024-03-23T07:59:58.000Z</time><ele>539.2</ele></trkpt><trkpt lat="45.82537" lon="9.427566"><time>2024-03-23T07:59:59.000Z</time><ele>539.4</ele></trkpt><trkpt lat="45.825372" lon="9.42756"><time>2024-03-23T08:00:00.000Z</time><ele>539.6</ele></trkpt><trkpt lat="45.825385" lon="9.42757"><time>2024-03-23T08:00:01.000Z</time><ele>539.6</ele></trkpt><trkpt lat="45.82539" lon="9.42757"><time>2024-03-23T08:00:02.000Z</time><ele>539.8</ele></trkpt><trkpt lat="45.825394" lon="9.427566"><time>2024-03-23T08:00:03.000Z</time><ele>539.8</ele></trkpt><trkpt lat="45.825403" lon="9.427576"><time>2024-03-23T08:00:04.000Z</time><ele>540</ele></trkpt><trkpt lat="45.825405" lon="9.42758"><time>2024-03-23T08:00:05.000Z</time><ele>540</ele></trkpt><trkpt lat="45.825413" lon="9.427598"><time>2024-03-23T08:00:06.000Z</time><ele>540</ele></trkpt><trkpt lat="45.825413" lon="9.427609"><time>2024-03-23T08:00:07.000Z</time><ele>540.2</ele></trkpt><trkpt lat="45.825411" lon="9.427608"><time>2024-03-23T08:00:08.000Z</time><ele>540.2</ele></trkpt><trkpt lat="45.825413" lon="9.427613"><time>2024-03-23T08:00:09.000Z</time><ele>540.4</ele></trkpt><trkpt lat="45.825409" lon="9.42761"><time>2024-03-23T08:00:10.000Z</time><ele>540.4</ele></trkpt><trkpt lat="45.825413" lon="9.427615"><time>2024-03-23T08:00:11.000Z</time><ele>540.4</ele></trkpt><trkpt lat="45.825415" lon="9.42762"><time>2024-03-23T08:00:12.000Z</time><ele>540.4</ele></trkpt><trkpt lat="45.825412" lon="9.427616"><time>2024-03-23T08:00:13.000Z</time><ele>540.4</ele></trkpt><trkpt lat="45.825414" lon="9.427614"><time>2024-03-23T08:00:14.000Z</time><ele>540.4</ele></trkpt><trkpt lat="45.825417" lon="9.427615"><time>2024-03-23T08:00:15.000Z</time><ele>540.4</ele></trkpt><trkpt lat="45.825421" lon="9.427618"><time>2024-03-23T08:00:16.000Z</time><ele>540.4</ele></trkpt><trkpt lat="45.825417" lon="9.427614"><time>2024-03-23T08:00:17.000Z</time><ele>540.4</ele></trkpt><trkpt lat="45.825419" lon="9.427614"><time>2024-03-23T08:00:18.000Z</time><ele>540.4</ele></trkpt><trkpt lat="45.825418" lon="9.427613"><time>2024-03-23T08:00:19.000Z</time><ele>540.4</ele></trkpt><trkpt lat="45.825416" lon="9.427616"><time>2024-03-23T08:00:20.000Z</time><ele>540.4</ele></trkpt><trkpt lat="45.825417" lon="9.42761"><time>2024-03-23T08:00:21.000Z</time><ele>540.4</ele></trkpt><trkpt lat="45.825409" lon="9.427603"><time>2024-03-23T08:00:22.000Z</time><ele>540.6</ele></trkpt><trkpt lat="45.825403" lon="9.427601"><time>2024-03-23T08:00:23.000Z</time><ele>540.6</ele></trkpt><trkpt lat="45.825398" lon="9.427597"><time>2024-03-23T08:00:24.000Z</time><ele>540.6</ele></trkpt><trkpt lat="45.825394" lon="9.427594"><time>2024-03-23T08:00:25.000Z</time><ele>540.6</ele></trkpt><trkpt lat="45.825398" lon="9.427604"><time>2024-03-23T08:00:26.000Z</time><ele>540.6</ele></trkpt><trkpt lat="45.825398" lon="9.427605"><time>2024-03-23T08:00:27.000Z</time><ele>540.6</ele></trkpt><trkpt lat="45.825399" lon="9.427604"><time>2024-03-23T08:00:28.000Z</time><ele>540.6</ele></trkpt><trkpt lat="45.8254" lon="9.427603"><time>2024-03-23T08:00:29.000Z</time><ele>540.6</ele></trkpt><trkpt lat="45.825401" lon="9.427605"><time>2024-03-23T08:00:30.000Z</time><ele>540.6</ele></trkpt><trkpt lat="45.825399" lon="9.427599"><time>2024-03-23T08:00:31.000Z</time><ele>540.6</ele></trkpt><trkpt lat="45.825398" lon="9.427596"><time>2024-03-23T08:00:32.000Z</time><ele>540.8</ele></trkpt><trkpt lat="45.825406" lon="9.4276"><time>2024-03-23T08:00:33.000Z</time><ele>540.8</ele></trkpt><trkpt lat="45.825412" lon="9.427605"><time>2024-03-23T08:00:34.000Z</time><ele>540.8</ele></trkpt><trkpt lat="45.825413" lon="9.427605"><time>2024-03-23T08:00:35.000Z</time><ele>540.8</ele></trkpt><trkpt lat="45.825413" lon="9.427605"><time>2024-03-23T08:00:36.000Z</time><ele>541</ele></trkpt><trkpt lat="45.825413" lon="9.427605"><time>2024-03-23T08:00:37.000Z</time><ele>541</ele></trkpt><trkpt lat="45.825413" lon="9.427605"><time>2024-03-23T08:00:38.000Z</time><ele>541.2</ele></trkpt><trkpt lat="45.825414" lon="9.427607"><time>2024-03-23T08:00:39.000Z</time><ele>541.2</ele></trkpt><trkpt lat="45.825416" lon="9.427615"><time>2024-03-23T08:00:40.000Z</time><ele>541</ele></trkpt><trkpt lat="45.825419" lon="9.427622"><time>2024-03-23T08:00:41.000Z</time><ele>540.8</ele></trkpt><trkpt lat="45.825418" lon="9.427626"><time>2024-03-23T08:00:42.000Z</time><ele>540.6</ele></trkpt><trkpt lat="45.825416" lon="9.427627"><time>2024-03-23T08:00:43.000Z</time><ele>540.4</ele></trkpt><trkpt lat="45.825419" lon="9.427632"><time>2024-03-23T08:00:44.000Z</time><ele>540.4</ele></trkpt><trkpt lat="45.825419" lon="9.427632"><time>2024-03-23T08:00:45.000Z</time><ele>540.4</ele></trkpt><trkpt lat="45.825419" lon="9.427632"><time>2024-03-23T08:00:46.000Z</time><ele>540.4</ele></trkpt><trkpt lat="45.825419" lon="9.427632"><time>2024-03-23T08:00:47.000Z</time><ele>540.4</ele></trkpt><trkpt lat="45.825418" lon="9.427633"><time>2024-03-23T08:00:48.000Z</time><ele>540.4</ele></trkpt><trkpt lat="45.825418" lon="9.427637"><time>2024-03-23T08:00:49.000Z</time><ele>540.6</ele></trkpt><trkpt lat="45.825416" lon="9.427645"><time>2024-03-23T08:00:51.000Z</time><ele>540.6</ele></trkpt><trkpt lat="45.825421" lon="9.427657"><time>2024-03-23T08:00:52.000Z</time><ele>540.6</ele></trkpt><trkpt lat="45.825436" lon="9.427673"><time>2024-03-23T08:00:53.000Z</time><ele>540.8</ele></trkpt><trkpt lat="45.825437" lon="9.427675"><time>2024-03-23T08:00:54.000Z</time><ele>540.8</ele></trkpt><trkpt lat="45.82544" lon="9.42768"><time>2024-03-23T08:00:56.000Z</time><ele>540.8</ele></trkpt><trkpt lat="45.825462" lon="9.427696"><time>2024-03-23T08:00:57.000Z</time><ele>540.6</ele></trkpt><trkpt lat="45.82547" lon="9.427697"><time>2024-03-23T08:00:59.000Z</time><ele>540.6</ele></trkpt><trkpt lat="45.825474" lon="9.427698"><time>2024-03-23T08:01:00.000Z</time><ele>540.4</ele></trkpt><trkpt lat="45.825475" lon="9.427697"><time>2024-03-23T08:01:01.000Z</time><ele>540.4</ele></trkpt><trkpt lat="45.825486" lon="9.427707"><time>2024-03-23T08:01:02.000Z</time><ele>540.4</ele></trkpt><trkpt lat="45.825486" lon="9.427707"><time>2024-03-23T08:01:03.000Z</time><ele>540.4</ele></trkpt><trkpt lat="45.825486" lon="9.427707"><time>2024-03-23T08:01:04.000Z</time><ele>540.4</ele></trkpt><trkpt lat="45.825486" lon="9.427707"><time>2024-03-23T08:01:05.000Z</time><ele>540.4</ele></trkpt><trkpt lat="45.825486" lon="9.427704"><time>2024-03-23T08:01:06.000Z</time><ele>540.4</ele></trkpt><trkpt lat="45.825481" lon="9.427689"><time>2024-03-23T08:01:07.000Z</time><ele>540.4</ele></trkpt><trkpt lat="45.825476" lon="9.427669"><time>2024-03-23T08:01:08.000Z</time><ele>540.4</ele></trkpt><trkpt lat="45.825475" lon="9.427665"><time>2024-03-23T08:01:09.000Z</time><ele>540.4</ele></trkpt><trkpt lat="45.825473" lon="9.427661"><time>2024-03-23T08:01:10.000Z</time><ele>540.4</ele></trkpt><trkpt lat="45.825484" lon="9.427662"><time>2024-03-23T08:01:11.000Z</time><ele>540.4</ele></trkpt><trkpt lat="45.825493" lon="9.42766"><time>2024-03-23T08:01:12.000Z</time><ele>540.4</ele></trkpt><trkpt lat="45.825496" lon="9.427653"><time>2024-03-23T08:01:13.000Z</time><ele>540.2</ele></trkpt><trkpt lat="45.825502" lon="9.427657"><time>2024-03-23T08:01:14.000Z</time><ele>540.2</ele></trkpt><trkpt lat="45.825513" lon="9.427661"><time>2024-03-23T08:01:15.000Z</time><ele>540.2</ele></trkpt><trkpt lat="45.825515" lon="9.427664"><time>2024-03-23T08:01:16.000Z</time><ele>540</ele></trkpt><trkpt lat="45.825512" lon="9.427674"><time>2024-03-23T08:01:17.000Z</time><ele>540</ele></trkpt><trkpt lat="45.825516" lon="9.427687"><time>2024-03-23T08:01:18.000Z</time><ele>540</ele></trkpt><trkpt lat="45.825525" lon="9.42769"><time>2024-03-23T08:01:19.000Z</time><ele>540</ele></trkpt><trkpt lat="45.825523" lon="9.42769"><time>2024-03-23T08:01:20.000Z</time><ele>540.2</ele></trkpt><trkpt lat="45.825529" lon="9.427694"><time>2024-03-23T08:01:21.000Z</time><ele>540.4</ele></trkpt><trkpt lat="45.825547" lon="9.427711"><time>2024-03-23T08:01:22.000Z</time><ele>540.6</ele></trkpt><trkpt lat="45.825554" lon="9.427726"><time>2024-03-23T08:01:23.000Z</time><ele>540.8</ele></trkpt><trkpt lat="45.82556" lon="9.427738"><time>2024-03-23T08:01:24.000Z</time><ele>540.8</ele></trkpt><trkpt lat="45.825574" lon="9.427764"><time>2024-03-23T08:01:26.000Z</time><ele>541.2</ele></trkpt><trkpt lat="45.825588" lon="9.42778"><time>2024-03-23T08:01:28.000Z</time><ele>541.4</ele></trkpt><trkpt lat="45.82559" lon="9.427783"><time>2024-03-23T08:01:29.000Z</time><ele>541.4</ele></trkpt><trkpt lat="45.825585" lon="9.427786"><time>2024-03-23T08:01:30.000Z</time><ele>541.6</ele></trkpt><trkpt lat="45.825589" lon="9.427795"><time>2024-03-23T08:01:31.000Z</time><ele>541.8</ele></trkpt><trkpt lat="45.825593" lon="9.4278"><time>2024-03-23T08:01:32.000Z</time><ele>542</ele></trkpt><trkpt lat="45.825594" lon="9.427802"><time>2024-03-23T08:01:33.000Z</time><ele>542.2</ele></trkpt><trkpt lat="45.825594" lon="9.427799"><time>2024-03-23T08:01:34.000Z</time><ele>542.4</ele></trkpt><trkpt lat="45.825589" lon="9.427794"><time>2024-03-23T08:01:35.000Z</time><ele>542.6</ele></trkpt><trkpt lat="45.825585" lon="9.427791"><time>2024-03-23T08:01:36.000Z</time><ele>542.8</ele></trkpt><trkpt lat="45.825575" lon="9.427786"><time>2024-03-23T08:01:38.000Z</time><ele>543.2</ele></trkpt><trkpt lat="45.825578" lon="9.427799"><time>2024-03-23T08:01:39.000Z</time><ele>543.4</ele></trkpt><trkpt lat="45.825576" lon="9.427808"><time>2024-03-23T08:01:40.000Z</time><ele>543.6</ele></trkpt><trkpt lat="45.825575" lon="9.427818"><time>2024-03-23T08:01:41.000Z</time><ele>543.6</ele></trkpt><trkpt lat="45.825576" lon="9.427828"><time>2024-03-23T08:01:42.000Z</time><ele>543.8</ele></trkpt><trkpt lat="45.825577" lon="9.427841"><time>2024-03-23T08:01:43.000Z</time><ele>544</ele></trkpt><trkpt lat="45.825583" lon="9.42785"><time>2024-03-23T08:01:44.000Z</time><ele>544.2</ele></trkpt><trkpt lat="45.825583" lon="9.427853"><time>2024-03-23T08:01:45.000Z</time><ele>544.2</ele></trkpt><trkpt lat="45.825579" lon="9.427855"><time>2024-03-23T08:01:46.000Z</time><ele>544.6</ele></trkpt><trkpt lat="45.82559" lon="9.427869"><time>2024-03-23T08:01:47.000Z</time><ele>544.8</ele></trkpt><trkpt lat="45.825602" lon="9.42788"><time>2024-03-23T08:01:48.000Z</time><ele>545</ele></trkpt><trkpt lat="45.825614" lon="9.427885"><time>2024-03-23T08:01:49.000Z</time><ele>545</ele></trkpt><trkpt lat="45.825628" lon="9.42789"><time>2024-03-23T08:01:50.000Z</time><ele>545.2</ele></trkpt><trkpt lat="45.825626" lon="9.427894"><time>2024-03-23T08:01:51.000Z</time><ele>545.4</ele></trkpt><trkpt lat="45.825624" lon="9.427895"><time>2024-03-23T08:01:52.000Z</time><ele>545.6</ele></trkpt><trkpt lat="45.825622" lon="9.427893"><time>2024-03-23T08:01:53.000Z</time><ele>545.8</ele></trkpt><trkpt lat="45.825624" lon="9.427896"><time>2024-03-23T08:01:54.000Z</time><ele>546</ele></trkpt><trkpt lat="45.825628" lon="9.427908"><time>2024-03-23T08:01:55.000Z</time><ele>546.2</ele></trkpt><trkpt lat="45.825633" lon="9.427917"><time>2024-03-23T08:01:56.000Z</time><ele>546.4</ele></trkpt><trkpt lat="45.825633" lon="9.427923"><time>2024-03-23T08:01:57.000Z</time><ele>546.4</ele></trkpt><trkpt lat="45.825635" lon="9.427944"><time>2024-03-23T08:01:58.000Z</time><ele>546.6</ele></trkpt><trkpt lat="45.825642" lon="9.427955"><time>2024-03-23T08:01:59.000Z</time><ele>546.8</ele></trkpt><trkpt lat="45.825643" lon="9.427963"><time>2024-03-23T08:02:00.000Z</time><ele>546.8</ele></trkpt><trkpt lat="45.825637" lon="9.427958"><time>2024-03-23T08:02:01.000Z</time><ele>547</ele></trkpt><trkpt lat="45.825631" lon="9.427963"><time>2024-03-23T08:02:02.000Z</time><ele>547.2</ele></trkpt><trkpt lat="45.825628" lon="9.427981"><time>2024-03-23T08:02:03.000Z</time><ele>547.4</ele></trkpt><trkpt lat="45.825634" lon="9.427996"><time>2024-03-23T08:02:04.000Z</time><ele>547.6</ele></trkpt><trkpt lat="45.825636" lon="9.428007"><time>2024-03-23T08:02:05.000Z</time><ele>547.8</ele></trkpt><trkpt lat="45.82564" lon="9.428021"><time>2024-03-23T08:02:06.000Z</time><ele>548</ele></trkpt><trkpt lat="45.82564" lon="9.428028"><time>2024-03-23T08:02:07.000Z</time><ele>548</ele></trkpt><trkpt lat="45.825635" lon="9.428028"><time>2024-03-23T08:02:08.000Z</time><ele>548.4</ele></trkpt><trkpt lat="45.825636" lon="9.42803"><time>2024-03-23T08:02:09.000Z</time><ele>548.6</ele></trkpt><trkpt lat="45.825633" lon="9.428034"><time>2024-03-23T08:02:10.000Z</time><ele>548.6</ele></trkpt><trkpt lat="45.825632" lon="9.42804"><time>2024-03-23T08:02:11.000Z</time><ele>548.8</ele></trkpt><trkpt lat="45.82563" lon="9.428045"><time>2024-03-23T08:02:12.000Z</time><ele>548.8</ele></trkpt><trkpt lat="45.82563" lon="9.428046"><time>2024-03-23T08:02:14.000Z</time><ele>549</ele></trkpt><trkpt lat="45.825637" lon="9.428053"><time>2024-03-23T08:02:15.000Z</time><ele>549.2</ele></trkpt><trkpt lat="45.825643" lon="9.428065"><time>2024-03-23T08:02:16.000Z</time><ele>549.4</ele></trkpt><trkpt lat="45.825644" lon="9.428081"><time>2024-03-23T08:02:18.000Z</time><ele>549.6</ele></trkpt><trkpt lat="45.825634" lon="9.42808"><time>2024-03-23T08:02:19.000Z</time><ele>550</ele></trkpt><trkpt lat="45.825625" lon="9.428084"><time>2024-03-23T08:02:21.000Z</time><ele>550.4</ele></trkpt><trkpt lat="45.825623" lon="9.428084"><time>2024-03-23T08:02:22.000Z</time><ele>550.8</ele></trkpt><trkpt lat="45.825614" lon="9.428069"><time>2024-03-23T08:02:23.000Z</time><ele>551</ele></trkpt><trkpt lat="45.825612" lon="9.428061"><time>2024-03-23T08:02:24.000Z</time><ele>551</ele></trkpt><trkpt lat="45.825616" lon="9.428064"><time>2024-03-23T08:02:25.000Z</time><ele>551.2</ele></trkpt><trkpt lat="45.825618" lon="9.428065"><time>2024-03-23T08:02:26.000Z</time><ele>551.2</ele></trkpt><trkpt lat="45.825618" lon="9.428065"><time>2024-03-23T08:02:27.000Z</time><ele>551.2</ele></trkpt><trkpt lat="45.825618" lon="9.428065"><time>2024-03-23T08:02:28.000Z</time><ele>551.4</ele></trkpt><trkpt lat="45.825618" lon="9.428065"><time>2024-03-23T08:02:29.000Z</time><ele>551.6</ele></trkpt><trkpt lat="45.825618" lon="9.428065"><time>2024-03-23T08:02:33.000Z</time><ele>552.4</ele></trkpt><trkpt lat="45.825614" lon="9.428066"><time>2024-03-23T08:02:34.000Z</time><ele>552.6</ele></trkpt><trkpt lat="45.825613" lon="9.428068"><time>2024-03-23T08:02:35.000Z</time><ele>552.6</ele></trkpt><trkpt lat="45.825615" lon="9.428069"><time>2024-03-23T08:02:36.000Z</time><ele>552.8</ele></trkpt><trkpt lat="45.82561" lon="9.428075"><time>2024-03-23T08:02:37.000Z</time><ele>553</ele></trkpt><trkpt lat="45.825604" lon="9.428086"><time>2024-03-23T08:02:38.000Z</time><ele>553.2</ele></trkpt><trkpt lat="45.825591" lon="9.428105"><time>2024-03-23T08:02:40.000Z</time><ele>553.6</ele></trkpt><trkpt lat="45.82558" lon="9.428115"><time>2024-03-23T08:02:41.000Z</time><ele>553.8</ele></trkpt><trkpt lat="45.825567" lon="9.428119"><time>2024-03-23T08:02:42.000Z</time><ele>554</ele></trkpt><trkpt lat="45.825559" lon="9.428125"><time>2024-03-23T08:02:44.000Z</time><ele>554.2</ele></trkpt><trkpt lat="45.825552" lon="9.428131"><time>2024-03-23T08:02:45.000Z</time><ele>554.4</ele></trkpt><trkpt lat="45.825551" lon="9.428128"><time>2024-03-23T08:02:46.000Z</time><ele>554.6</ele></trkpt><trkpt lat="45.825549" lon="9.428127"><time>2024-03-23T08:02:47.000Z</time><ele>554.6</ele></trkpt><trkpt lat="45.825547" lon="9.428122"><time>2024-03-23T08:02:48.000Z</time><ele>554.6</ele></trkpt><trkpt lat="45.825546" lon="9.428119"><time>2024-03-23T08:02:49.000Z</time><ele>554.6</ele></trkpt><trkpt lat="45.825544" lon="9.428117"><time>2024-03-23T08:02:50.000Z</time><ele>554.6</ele></trkpt><trkpt lat="45.825545" lon="9.428116"><time>2024-03-23T08:02:51.000Z</time><ele>554.6</ele></trkpt><trkpt lat="45.825558" lon="9.428129"><time>2024-03-23T08:02:52.000Z</time><ele>554.6</ele></trkpt><trkpt lat="45.825572" lon="9.428146"><time>2024-03-23T08:02:53.000Z</time><ele>554.6</ele></trkpt><trkpt lat="45.825585" lon="9.428163"><time>2024-03-23T08:02:55.000Z</time><ele>554.6</ele></trkpt><trkpt lat="45.825583" lon="9.428165"><time>2024-03-23T08:02:56.000Z</time><ele>554.8</ele></trkpt><trkpt lat="45.82558" lon="9.428166"><time>2024-03-23T08:02:57.000Z</time><ele>554.8</ele></trkpt><trkpt lat="45.825582" lon="9.428168"><time>2024-03-23T08:02:58.000Z</time><ele>555</ele></trkpt><trkpt lat="45.825578" lon="9.428166"><time>2024-03-23T08:02:59.000Z</time><ele>555</ele></trkpt><trkpt lat="45.825583" lon="9.428173"><time>2024-03-23T08:03:00.000Z</time><ele>555</ele></trkpt><trkpt lat="45.825582" lon="9.42817"><time>2024-03-23T08:03:01.000Z</time><ele>555</ele></trkpt><trkpt lat="45.825581" lon="9.428172"><time>2024-03-23T08:03:02.000Z</time><ele>555</ele></trkpt><trkpt lat="45.82558" lon="9.428172"><time>2024-03-23T08:03:03.000Z</time><ele>555</ele></trkpt><trkpt lat="45.82558" lon="9.428174"><time>2024-03-23T08:03:04.000Z</time><ele>555</ele></trkpt><trkpt lat="45.825578" lon="9.428174"><time>2024-03-23T08:03:05.000Z</time><ele>555</ele></trkpt><trkpt lat="45.825576" lon="9.428171"><time>2024-03-23T08:03:06.000Z</time><ele>555</ele></trkpt><trkpt lat="45.825561" lon="9.428162"><time>2024-03-23T08:03:07.000Z</time><ele>555</ele></trkpt><trkpt lat="45.825561" lon="9.428163"><time>2024-03-23T08:03:08.000Z</time><ele>555</ele></trkpt><trkpt lat="45.82556" lon="9.428164"><time>2024-03-23T08:03:09.000Z</time><ele>555</ele></trkpt><trkpt lat="45.825543" lon="9.428163"><time>2024-03-23T08:03:11.000Z</time><ele>555</ele></trkpt><trkpt lat="45.825541" lon="9.428165"><time>2024-03-23T08:03:12.000Z</time><ele>555</ele></trkpt><trkpt lat="45.82554" lon="9.428166"><time>2024-03-23T08:03:13.000Z</time><ele>555</ele></trkpt><trkpt lat="45.825537" lon="9.428166"><time>2024-03-23T08:03:14.000Z</time><ele>555</ele></trkpt><trkpt lat="45.825525" lon="9.428168"><time>2024-03-23T08:03:16.000Z</time><ele>555</ele></trkpt><trkpt lat="45.825513" lon="9.428164"><time>2024-03-23T08:03:17.000Z</time><ele>555</ele></trkpt><trkpt lat="45.825508" lon="9.428163"><time>2024-03-23T08:03:18.000Z</time><ele>554.8</ele></trkpt><trkpt lat="45.825509" lon="9.428165"><time>2024-03-23T08:03:19.000Z</time><ele>554.8</ele></trkpt><trkpt lat="45.825502" lon="9.428168"><time>2024-03-23T08:03:21.000Z</time><ele>554.8</ele></trkpt><trkpt lat="45.825498" lon="9.428168"><time>2024-03-23T08:03:22.000Z</time><ele>555</ele></trkpt><trkpt lat="45.825501" lon="9.428177"><time>2024-03-23T08:03:23.000Z</time><ele>555.2</ele></trkpt><trkpt lat="45.825498" lon="9.428179"><time>2024-03-23T08:03:24.000Z</time><ele>555.2</ele></trkpt><trkpt lat="45.825508" lon="9.428189"><time>2024-03-23T08:03:25.000Z</time><ele>555.4</ele></trkpt><trkpt lat="45.825507" lon="9.42819"><time>2024-03-23T08:03:27.000Z</time><ele>556.2</ele></trkpt><trkpt lat="45.82551" lon="9.428201"><time>2024-03-23T08:03:28.000Z</time><ele>556.4</ele></trkpt><trkpt lat="45.825517" lon="9.428209"><time>2024-03-23T08:03:29.000Z</time><ele>556.6</ele></trkpt><trkpt lat="45.825529" lon="9.428217"><time>2024-03-23T08:03:30.000Z</time><ele>556.6</ele></trkpt><trkpt lat="45.825546" lon="9.428231"><time>2024-03-23T08:03:32.000Z</time><ele>556.8</ele></trkpt><trkpt lat="45.825556" lon="9.428242"><time>2024-03-23T08:03:33.000Z</time><ele>557</ele></trkpt><trkpt lat="45.82556" lon="9.428245"><time>2024-03-23T08:03:34.000Z</time><ele>557.2</ele></trkpt><trkpt lat="45.82556" lon="9.428245"><time>2024-03-23T08:03:35.000Z</time><ele>557.4</ele></trkpt><trkpt lat="45.825571" lon="9.428251"><time>2024-03-23T08:03:36.000Z</time><ele>557.6</ele></trkpt><trkpt lat="45.825575" lon="9.428259"><time>2024-03-23T08:03:37.000Z</time><ele>557.8</ele></trkpt><trkpt lat="45.82559" lon="9.428267"><time>2024-03-23T08:03:38.000Z</time><ele>558</ele></trkpt><trkpt lat="45.825604" lon="9.428275"><time>2024-03-23T08:03:39.000Z</time><ele>558.2</ele></trkpt><trkpt lat="45.825607" lon="9.428277"><time>2024-03-23T08:03:40.000Z</time><ele>558.2</ele></trkpt><trkpt lat="45.825614" lon="9.428284"><time>2024-03-23T08:03:41.000Z</time><ele>558.4</ele></trkpt><trkpt lat="45.825615" lon="9.428286"><time>2024-03-23T08:03:42.000Z</time><ele>558.4</ele></trkpt><trkpt lat="45.825614" lon="9.428292"><time>2024-03-23T08:03:43.000Z</time><ele>558.8</ele></trkpt><trkpt lat="45.825614" lon="9.428294"><time>2024-03-23T08:03:44.000Z</time><ele>558.8</ele></trkpt><trkpt lat="45.825616" lon="9.428295"><time>2024-03-23T08:03:45.000Z</time><ele>559</ele></trkpt><trkpt lat="45.825613" lon="9.428286"><time>2024-03-23T08:03:46.000Z</time><ele>559.2</ele></trkpt><trkpt lat="45.825611" lon="9.428287"><time>2024-03-23T08:03:47.000Z</time><ele>559.2</ele></trkpt><trkpt lat="45.825613" lon="9.42829"><time>2024-03-23T08:03:48.000Z</time><ele>559.6</ele></trkpt><trkpt lat="45.825614" lon="9.428294"><time>2024-03-23T08:03:49.000Z</time><ele>559.8</ele></trkpt><trkpt lat="45.825617" lon="9.428297"><time>2024-03-23T08:03:50.000Z</time><ele>560</ele></trkpt><trkpt lat="45.825629" lon="9.428307"><time>2024-03-23T08:03:51.000Z</time><ele>560.2</ele></trkpt><trkpt lat="45.825636" lon="9.428315"><time>2024-03-23T08:03:52.000Z</time><ele>560.2</ele></trkpt><trkpt lat="45.82564" lon="9.428319"><time>2024-03-23T08:03:53.000Z</time><ele>560.6</ele></trkpt><trkpt lat="45.825647" lon="9.42833"><time>2024-03-23T08:03:54.000Z</time><ele>560.8</ele></trkpt><trkpt lat="45.825656" lon="9.428337"><time>2024-03-23T08:03:55.000Z</time><ele>561</ele></trkpt><trkpt lat="45.825668" lon="9.428339"><time>2024-03-23T08:03:56.000Z</time><ele>561.2</ele></trkpt><trkpt lat="45.825689" lon="9.428354"><time>2024-03-23T08:03:57.000Z</time><ele>561.4</ele></trkpt><trkpt lat="45.825707" lon="9.428364"><time>2024-03-23T08:03:58.000Z</time><ele>561.6</ele></trkpt><trkpt lat="45.825713" lon="9.428366"><time>2024-03-23T08:03:59.000Z</time><ele>561.6</ele></trkpt><trkpt lat="45.825717" lon="9.428364"><time>2024-03-23T08:04:00.000Z</time><ele>561.6</ele></trkpt><trkpt lat="45.82572" lon="9.428357"><time>2024-03-23T08:04:01.000Z</time><ele>561.6</ele></trkpt><trkpt lat="45.825731" lon="9.428357"><time>2024-03-23T08:04:02.000Z</time><ele>561.8</ele></trkpt><trkpt lat="45.825734" lon="9.428357"><time>2024-03-23T08:04:03.000Z</time><ele>561.8</ele></trkpt><trkpt lat="45.825734" lon="9.428354"><time>2024-03-23T08:04:04.000Z</time><ele>561.8</ele></trkpt><trkpt lat="45.825742" lon="9.428357"><time>2024-03-23T08:04:05.000Z</time><ele>562</ele></trkpt><trkpt lat="45.82575" lon="9.428368"><time>2024-03-23T08:04:06.000Z</time><ele>562</ele></trkpt><trkpt lat="45.825755" lon="9.428372"><time>2024-03-23T08:04:07.000Z</time><ele>562.2</ele></trkpt><trkpt lat="45.825756" lon="9.428369"><time>2024-03-23T08:04:08.000Z</time><ele>562.6</ele></trkpt><trkpt lat="45.825763" lon="9.428369"><time>2024-03-23T08:04:09.000Z</time><ele>562.8</ele></trkpt><trkpt lat="45.825769" lon="9.428369"><time>2024-03-23T08:04:10.000Z</time><ele>562.8</ele></trkpt><trkpt lat="45.825776" lon="9.428367"><time>2024-03-23T08:04:11.000Z</time><ele>563</ele></trkpt><trkpt lat="45.825777" lon="9.428368"><time>2024-03-23T08:04:12.000Z</time><ele>563</ele></trkpt><trkpt lat="45.825778" lon="9.428373"><time>2024-03-23T08:04:13.000Z</time><ele>563.2</ele></trkpt><trkpt lat="45.825781" lon="9.428375"><time>2024-03-23T08:04:14.000Z</time><ele>563.2</ele></trkpt><trkpt lat="45.82579" lon="9.428383"><time>2024-03-23T08:04:15.000Z</time><ele>563.4</ele></trkpt><trkpt lat="45.8258" lon="9.428388"><time>2024-03-23T08:04:16.000Z</time><ele>563.6</ele></trkpt><trkpt lat="45.825802" lon="9.428388"><time>2024-03-23T08:04:17.000Z</time><ele>563.8</ele></trkpt><trkpt lat="45.825804" lon="9.428385"><time>2024-03-23T08:04:18.000Z</time><ele>564</ele></trkpt><trkpt lat="45.825806" lon="9.428386"><time>2024-03-23T08:04:19.000Z</time><ele>564.6</ele></trkpt><trkpt lat="45.825805" lon="9.42838"><time>2024-03-23T08:04:20.000Z</time><ele>564.8</ele></trkpt><trkpt lat="45.825794" lon="9.42837"><time>2024-03-23T08:04:21.000Z</time><ele>565</ele></trkpt><trkpt lat="45.825807" lon="9.428373"><time>2024-03-23T08:04:22.000Z</time><ele>565</ele></trkpt><trkpt lat="45.825809" lon="9.428368"><time>2024-03-23T08:04:23.000Z</time><ele>565.2</ele></trkpt><trkpt lat="45.825809" lon="9.428364"><time>2024-03-23T08:04:24.000Z</time><ele>565.2</ele></trkpt><trkpt lat="45.825818" lon="9.428364"><time>2024-03-23T08:04:25.000Z</time><ele>565.4</ele></trkpt><trkpt lat="45.825826" lon="9.428362"><time>2024-03-23T08:04:26.000Z</time><ele>565.4</ele></trkpt><trkpt lat="45.825828" lon="9.428364"><time>2024-03-23T08:04:27.000Z</time><ele>565.6</ele></trkpt><trkpt lat="45.82583" lon="9.428367"><time>2024-03-23T08:04:28.000Z</time><ele>565.8</ele></trkpt><trkpt lat="45.825842" lon="9.428366"><time>2024-03-23T08:04:29.000Z</time><ele>566.2</ele></trkpt><trkpt lat="45.825845" lon="9.428368"><time>2024-03-23T08:04:30.000Z</time><ele>566.4</ele></trkpt><trkpt lat="45.825845" lon="9.428368"><time>2024-03-23T08:04:31.000Z</time><ele>566.6</ele></trkpt><trkpt lat="45.825854" lon="9.428376"><time>2024-03-23T08:04:32.000Z</time><ele>566.6</ele></trkpt><trkpt lat="45.825857" lon="9.428375"><time>2024-03-23T08:04:33.000Z</time><ele>566.8</ele></trkpt><trkpt lat="45.825865" lon="9.42838"><time>2024-03-23T08:04:34.000Z</time><ele>567</ele></trkpt><trkpt lat="45.825874" lon="9.428388"><time>2024-03-23T08:04:35.000Z</time><ele>567.2</ele></trkpt><trkpt lat="45.825881" lon="9.428384"><time>2024-03-23T08:04:36.000Z</time><ele>567.4</ele></trkpt><trkpt lat="45.825884" lon="9.428386"><time>2024-03-23T08:04:37.000Z</time><ele>567.6</ele></trkpt><trkpt lat="45.825885" lon="9.42838"><time>2024-03-23T08:04:38.000Z</time><ele>567.6</ele></trkpt><trkpt lat="45.825891" lon="9.428373"><time>2024-03-23T08:04:39.000Z</time><ele>567.8</ele></trkpt><trkpt lat="45.82589" lon="9.428369"><time>2024-03-23T08:04:40.000Z</time><ele>567.8</ele></trkpt><trkpt lat="45.825889" lon="9.428368"><time>2024-03-23T08:04:41.000Z</time><ele>568.2</ele></trkpt><trkpt lat="45.825889" lon="9.428364"><time>2024-03-23T08:04:42.000Z</time><ele>568.6</ele></trkpt><trkpt lat="45.825889" lon="9.428362"><time>2024-03-23T08:04:43.000Z</time><ele>568.6</ele></trkpt><trkpt lat="45.825894" lon="9.428355"><time>2024-03-23T08:04:44.000Z</time><ele>568.6</ele></trkpt><trkpt lat="45.8259" lon="9.428358"><time>2024-03-23T08:04:45.000Z</time><ele>569</ele></trkpt><trkpt lat="45.825901" lon="9.428359"><time>2024-03-23T08:04:46.000Z</time><ele>569.4</ele></trkpt><trkpt lat="45.825911" lon="9.42836"><time>2024-03-23T08:04:47.000Z</time><ele>569.6</ele></trkpt><trkpt lat="45.825919" lon="9.428364"><time>2024-03-23T08:04:48.000Z</time><ele>569.8</ele></trkpt><trkpt lat="45.825936" lon="9.428373"><time>2024-03-23T08:04:49.000Z</time><ele>570.2</ele></trkpt><trkpt lat="45.825946" lon="9.428381"><time>2024-03-23T08:04:50.000Z</time><ele>570.2</ele></trkpt><trkpt lat="45.825959" lon="9.42839"><time>2024-03-23T08:04:51.000Z</time><ele>570.4</ele></trkpt><trkpt lat="45.825972" lon="9.428402"><time>2024-03-23T08:04:52.000Z</time><ele>570.6</ele></trkpt><trkpt lat="45.825978" lon="9.428403"><time>2024-03-23T08:04:53.000Z</time><ele>571</ele></trkpt><trkpt lat="45.825973" lon="9.428396"><time>2024-03-23T08:04:54.000Z</time><ele>571.2</ele></trkpt><trkpt lat="45.825972" lon="9.428392"><time>2024-03-23T08:04:55.000Z</time><ele>571.2</ele></trkpt><trkpt lat="45.825977" lon="9.428392"><time>2024-03-23T08:04:56.000Z</time><ele>571.4</ele></trkpt><trkpt lat="45.825976" lon="9.428392"><time>2024-03-23T08:04:57.000Z</time><ele>571.4</ele></trkpt><trkpt lat="45.825975" lon="9.428393"><time>2024-03-23T08:04:58.000Z</time><ele>571.4</ele></trkpt><trkpt lat="45.825973" lon="9.428394"><time>2024-03-23T08:04:59.000Z</time><ele>571.6</ele></trkpt><trkpt lat="45.825982" lon="9.428404"><time>2024-03-23T08:05:00.000Z</time><ele>571.8</ele></trkpt><trkpt lat="45.825991" lon="9.428411"><time>2024-03-23T08:05:01.000Z</time><ele>571.8</ele></trkpt><trkpt lat="45.825994" lon="9.428415"><time>2024-03-23T08:05:02.000Z</time><ele>571.8</ele></trkpt><trkpt lat="45.826001" lon="9.428415"><time>2024-03-23T08:05:03.000Z</time><ele>572</ele></trkpt><trkpt lat="45.826009" lon="9.428415"><time>2024-03-23T08:05:04.000Z</time><ele>572</ele></trkpt><trkpt lat="45.826011" lon="9.428416"><time>2024-03-23T08:05:05.000Z</time><ele>572.2</ele></trkpt><trkpt lat="45.826022" lon="9.428418"><time>2024-03-23T08:05:06.000Z</time><ele>572.4</ele></trkpt><trkpt lat="45.826034" lon="9.428426"><time>2024-03-23T08:05:07.000Z</time><ele>572.8</ele></trkpt><trkpt lat="45.826034" lon="9.428429"><time>2024-03-23T08:05:08.000Z</time><ele>572.8</ele></trkpt><trkpt lat="45.826035" lon="9.428431"><time>2024-03-23T08:05:09.000Z</time><ele>573</ele></trkpt><trkpt lat="45.826039" lon="9.428433"><time>2024-03-23T08:05:10.000Z</time><ele>573</ele></trkpt><trkpt lat="45.82604" lon="9.428436"><time>2024-03-23T08:05:11.000Z</time><ele>573.2</ele></trkpt><trkpt lat="45.826049" lon="9.428444"><time>2024-03-23T08:05:12.000Z</time><ele>573.4</ele></trkpt><trkpt lat="45.826053" lon="9.428446"><time>2024-03-23T08:05:13.000Z</time><ele>573.6</ele></trkpt><trkpt lat="45.826059" lon="9.428452"><time>2024-03-23T08:05:14.000Z</time><ele>573.6</ele></trkpt><trkpt lat="45.826064" lon="9.428457"><time>2024-03-23T08:05:15.000Z</time><ele>573.8</ele></trkpt><trkpt lat="45.826071" lon="9.428464"><time>2024-03-23T08:05:16.000Z</time><ele>574</ele></trkpt><trkpt lat="45.826073" lon="9.428466"><time>2024-03-23T08:05:17.000Z</time><ele>574.2</ele></trkpt><trkpt lat="45.826077" lon="9.428469"><time>2024-03-23T08:05:18.000Z</time><ele>574.4</ele></trkpt><trkpt lat="45.826079" lon="9.428463"><time>2024-03-23T08:05:19.000Z</time><ele>574.6</ele></trkpt><trkpt lat="45.826079" lon="9.42846"><time>2024-03-23T08:05:20.000Z</time><ele>574.8</ele></trkpt><trkpt lat="45.826093" lon="9.428468"><time>2024-03-23T08:05:21.000Z</time><ele>574.8</ele></trkpt><trkpt lat="45.826105" lon="9.428478"><time>2024-03-23T08:05:22.000Z</time><ele>575.2</ele></trkpt><trkpt lat="45.826105" lon="9.428476"><time>2024-03-23T08:05:23.000Z</time><ele>575.4</ele></trkpt><trkpt lat="45.826103" lon="9.428473"><time>2024-03-23T08:05:24.000Z</time><ele>575.4</ele></trkpt><trkpt lat="45.826104" lon="9.428473"><time>2024-03-23T08:05:25.000Z</time><ele>575.6</ele></trkpt><trkpt lat="45.826105" lon="9.428474"><time>2024-03-23T08:05:26.000Z</time><ele>575.8</ele></trkpt><trkpt lat="45.826111" lon="9.42848"><time>2024-03-23T08:05:27.000Z</time><ele>575.8</ele></trkpt><trkpt lat="45.826113" lon="9.428485"><time>2024-03-23T08:05:28.000Z</time><ele>576</ele></trkpt><trkpt lat="45.826128" lon="9.428491"><time>2024-03-23T08:05:29.000Z</time><ele>576.2</ele></trkpt><trkpt lat="45.82613" lon="9.428492"><time>2024-03-23T08:05:30.000Z</time><ele>576.4</ele></trkpt><trkpt lat="45.826134" lon="9.42849"><time>2024-03-23T08:05:31.000Z</time><ele>576.6</ele></trkpt><trkpt lat="45.826131" lon="9.428486"><time>2024-03-23T08:05:32.000Z</time><ele>576.8</ele></trkpt><trkpt lat="45.826128" lon="9.428487"><time>2024-03-23T08:05:33.000Z</time><ele>576.8</ele></trkpt><trkpt lat="45.826127" lon="9.428488"><time>2024-03-23T08:05:34.000Z</time><ele>577</ele></trkpt><trkpt lat="45.826126" lon="9.42849"><time>2024-03-23T08:05:35.000Z</time><ele>577</ele></trkpt><trkpt lat="45.826127" lon="9.428494"><time>2024-03-23T08:05:36.000Z</time><ele>577.2</ele></trkpt><trkpt lat="45.826137" lon="9.428502"><time>2024-03-23T08:05:37.000Z</time><ele>577.2</ele></trkpt><trkpt lat="45.826145" lon="9.428509"><time>2024-03-23T08:05:38.000Z</time><ele>577.4</ele></trkpt><trkpt lat="45.826156" lon="9.428514"><time>2024-03-23T08:05:39.000Z</time><ele>577.6</ele></trkpt><trkpt lat="45.826168" lon="9.428523"><time>2024-03-23T08:05:40.000Z</time><ele>577.8</ele></trkpt><trkpt lat="45.826171" lon="9.428525"><time>2024-03-23T08:05:41.000Z</time><ele>578</ele></trkpt><trkpt lat="45.826176" lon="9.428532"><time>2024-03-23T08:05:42.000Z</time><ele>578.2</ele></trkpt><trkpt lat="45.826178" lon="9.428541"><time>2024-03-23T08:05:43.000Z</time><ele>578.4</ele></trkpt><trkpt lat="45.826186" lon="9.42855"><time>2024-03-23T08:05:44.000Z</time><ele>578.6</ele></trkpt><trkpt lat="45.826189" lon="9.428557"><time>2024-03-23T08:05:45.000Z</time><ele>578.6</ele></trkpt><trkpt lat="45.826197" lon="9.428562"><time>2024-03-23T08:05:46.000Z</time><ele>578.6</ele></trkpt><trkpt lat="45.826197" lon="9.428564"><time>2024-03-23T08:05:47.000Z</time><ele>578.8</ele></trkpt><trkpt lat="45.826198" lon="9.428562"><time>2024-03-23T08:05:48.000Z</time><ele>579</ele></trkpt><trkpt lat="45.826206" lon="9.42856"><time>2024-03-23T08:05:49.000Z</time><ele>579.4</ele></trkpt><trkpt lat="45.826216" lon="9.428569"><time>2024-03-23T08:05:50.000Z</time><ele>579.6</ele></trkpt><trkpt lat="45.826225" lon="9.428576"><time>2024-03-23T08:05:51.000Z</time><ele>579.8</ele></trkpt><trkpt lat="45.826228" lon="9.428577"><time>2024-03-23T08:05:52.000Z</time><ele>580</ele></trkpt><trkpt lat="45.82623" lon="9.428575"><time>2024-03-23T08:05:53.000Z</time><ele>580</ele></trkpt><trkpt lat="45.826241" lon="9.428579"><time>2024-03-23T08:05:54.000Z</time><ele>580</ele></trkpt><trkpt lat="45.826252" lon="9.428572"><time>2024-03-23T08:05:55.000Z</time><ele>580</ele></trkpt><trkpt lat="45.826263" lon="9.428579"><time>2024-03-23T08:05:56.000Z</time><ele>580.2</ele></trkpt><trkpt lat="45.826266" lon="9.428577"><time>2024-03-23T08:05:57.000Z</time><ele>580.4</ele></trkpt><trkpt lat="45.826266" lon="9.428575"><time>2024-03-23T08:05:58.000Z</time><ele>580.4</ele></trkpt><trkpt lat="45.82627" lon="9.428571"><time>2024-03-23T08:05:59.000Z</time><ele>580.8</ele></trkpt><trkpt lat="45.826286" lon="9.428578"><time>2024-03-23T08:06:00.000Z</time><ele>581</ele></trkpt><trkpt lat="45.826289" lon="9.428579"><time>2024-03-23T08:06:01.000Z</time><ele>581.2</ele></trkpt><trkpt lat="45.82629" lon="9.428579"><time>2024-03-23T08:06:02.000Z</time><ele>581.4</ele></trkpt><trkpt lat="45.826295" lon="9.428591"><time>2024-03-23T08:06:03.000Z</time><ele>581.6</ele></trkpt><trkpt lat="45.8263" lon="9.428598"><time>2024-03-23T08:06:04.000Z</time><ele>581.8</ele></trkpt><trkpt lat="45.82631" lon="9.428602"><time>2024-03-23T08:06:05.000Z</time><ele>581.8</ele></trkpt><trkpt lat="45.826327" lon="9.428611"><time>2024-03-23T08:06:06.000Z</time><ele>582</ele></trkpt><trkpt lat="45.826333" lon="9.428616"><time>2024-03-23T08:06:07.000Z</time><ele>582</ele></trkpt><trkpt lat="45.826335" lon="9.428616"><time>2024-03-23T08:06:08.000Z</time><ele>582</ele></trkpt><trkpt lat="45.826343" lon="9.428615"><time>2024-03-23T08:06:09.000Z</time><ele>582.2</ele></trkpt><trkpt lat="45.826348" lon="9.428618"><time>2024-03-23T08:06:10.000Z</time><ele>582.4</ele></trkpt><trkpt lat="45.826354" lon="9.428627"><time>2024-03-23T08:06:11.000Z</time><ele>582.6</ele></trkpt><trkpt lat="45.826361" lon="9.428633"><time>2024-03-23T08:06:12.000Z</time><ele>582.8</ele></trkpt><trkpt lat="45.826375" lon="9.428637"><time>2024-03-23T08:06:13.000Z</time><ele>583</ele></trkpt><trkpt lat="45.826384" lon="9.428634"><time>2024-03-23T08:06:14.000Z</time><ele>583.2</ele></trkpt><trkpt lat="45.826385" lon="9.428632"><time>2024-03-23T08:06:15.000Z</time><ele>583.2</ele></trkpt><trkpt lat="45.826392" lon="9.428639"><time>2024-03-23T08:06:16.000Z</time><ele>583.4</ele></trkpt><trkpt lat="45.826407" lon="9.428638"><time>2024-03-23T08:06:17.000Z</time><ele>583.4</ele></trkpt><trkpt lat="45.826413" lon="9.428639"><time>2024-03-23T08:06:18.000Z</time><ele>583.4</ele></trkpt><trkpt lat="45.826419" lon="9.428643"><time>2024-03-23T08:06:19.000Z</time><ele>583.6</ele></trkpt><trkpt lat="45.826422" lon="9.428648"><time>2024-03-23T08:06:20.000Z</time><ele>583.6</ele></trkpt><trkpt lat="45.826427" lon="9.428649"><time>2024-03-23T08:06:21.000Z</time><ele>583.6</ele></trkpt><trkpt lat="45.826432" lon="9.428652"><time>2024-03-23T08:06:22.000Z</time><ele>583.8</ele></trkpt><trkpt lat="45.826434" lon="9.428657"><time>2024-03-23T08:06:23.000Z</time><ele>583.8</ele></trkpt><trkpt lat="45.826439" lon="9.42866"><time>2024-03-23T08:06:24.000Z</time><ele>583.8</ele></trkpt><trkpt lat="45.826438" lon="9.428661"><time>2024-03-23T08:06:25.000Z</time><ele>584</ele></trkpt><trkpt lat="45.826434" lon="9.428667"><time>2024-03-23T08:06:26.000Z</time><ele>584.2</ele></trkpt><trkpt lat="45.826439" lon="9.428668"><time>2024-03-23T08:06:27.000Z</time><ele>584.6</ele></trkpt><trkpt lat="45.82644" lon="9.428679"><time>2024-03-23T08:06:28.000Z</time><ele>584.6</ele></trkpt><trkpt lat="45.82644" lon="9.428685"><time>2024-03-23T08:06:29.000Z</time><ele>584.8</ele></trkpt><trkpt lat="45.826446" lon="9.428694"><time>2024-03-23T08:06:30.000Z</time><ele>585</ele></trkpt><trkpt lat="45.826453" lon="9.428704"><time>2024-03-23T08:06:31.000Z</time><ele>585.4</ele></trkpt><trkpt lat="45.826455" lon="9.428709"><time>2024-03-23T08:06:32.000Z</time><ele>585.6</ele></trkpt><trkpt lat="45.826467" lon="9.428715"><time>2024-03-23T08:06:33.000Z</time><ele>585.8</ele></trkpt><trkpt lat="45.826468" lon="9.428718"><time>2024-03-23T08:06:34.000Z</time><ele>586</ele></trkpt><trkpt lat="45.826477" lon="9.428722"><time>2024-03-23T08:06:35.000Z</time><ele>586</ele></trkpt><trkpt lat="45.826478" lon="9.428728"><time>2024-03-23T08:06:36.000Z</time><ele>586.2</ele></trkpt><trkpt lat="45.82648" lon="9.428745"><time>2024-03-23T08:06:37.000Z</time><ele>586.2</ele></trkpt><trkpt lat="45.826486" lon="9.428767"><time>2024-03-23T08:06:38.000Z</time><ele>586.2</ele></trkpt><trkpt lat="45.826484" lon="9.428769"><time>2024-03-23T08:06:39.000Z</time><ele>586.4</ele></trkpt><trkpt lat="45.826487" lon="9.428771"><time>2024-03-23T08:06:40.000Z</time><ele>586.6</ele></trkpt><trkpt lat="45.826493" lon="9.428777"><time>2024-03-23T08:06:41.000Z</time><ele>586.8</ele></trkpt><trkpt lat="45.826488" lon="9.428783"><time>2024-03-23T08:06:42.000Z</time><ele>587</ele></trkpt><trkpt lat="45.826488" lon="9.428786"><time>2024-03-23T08:06:43.000Z</time><ele>587</ele></trkpt><trkpt lat="45.826494" lon="9.428792"><time>2024-03-23T08:06:44.000Z</time><ele>587</ele></trkpt><trkpt lat="45.826495" lon="9.428801"><time>2024-03-23T08:06:45.000Z</time><ele>587.2</ele></trkpt><trkpt lat="45.826498" lon="9.428808"><time>2024-03-23T08:06:46.000Z</time><ele>587.2</ele></trkpt><trkpt lat="45.8265" lon="9.428815"><time>2024-03-23T08:06:47.000Z</time><ele>587.4</ele></trkpt><trkpt lat="45.826501" lon="9.428819"><time>2024-03-23T08:06:48.000Z</time><ele>587.6</ele></trkpt><trkpt lat="45.82651" lon="9.42883"><time>2024-03-23T08:06:49.000Z</time><ele>587.8</ele></trkpt><trkpt lat="45.826516" lon="9.428841"><time>2024-03-23T08:06:50.000Z</time><ele>588</ele></trkpt><trkpt lat="45.826524" lon="9.428848"><time>2024-03-23T08:06:51.000Z</time><ele>588.2</ele></trkpt><trkpt lat="45.826532" lon="9.428855"><time>2024-03-23T08:06:52.000Z</time><ele>588.4</ele></trkpt><trkpt lat="45.826535" lon="9.42886"><time>2024-03-23T08:06:53.000Z</time><ele>588.6</ele></trkpt><trkpt lat="45.826551" lon="9.428858"><time>2024-03-23T08:06:54.000Z</time><ele>588.8</ele></trkpt><trkpt lat="45.826565" lon="9.428862"><time>2024-03-23T08:06:55.000Z</time><ele>588.8</ele></trkpt><trkpt lat="45.82658" lon="9.428871"><time>2024-03-23T08:06:56.000Z</time><ele>589</ele></trkpt><trkpt lat="45.82659" lon="9.42888"><time>2024-03-23T08:06:57.000Z</time><ele>589</ele></trkpt><trkpt lat="45.826594" lon="9.428893"><time>2024-03-23T08:06:58.000Z</time><ele>589.2</ele></trkpt><trkpt lat="45.8266" lon="9.428904"><time>2024-03-23T08:06:59.000Z</time><ele>589.2</ele></trkpt><trkpt lat="45.826616" lon="9.428918"><time>2024-03-23T08:07:00.000Z</time><ele>589.4</ele></trkpt><trkpt lat="45.826623" lon="9.42892"><time>2024-03-23T08:07:01.000Z</time><ele>589.6</ele></trkpt><trkpt lat="45.826632" lon="9.428929"><time>2024-03-23T08:07:02.000Z</time><ele>589.6</ele></trkpt><trkpt lat="45.82664" lon="9.428947"><time>2024-03-23T08:07:03.000Z</time><ele>589.8</ele></trkpt><trkpt lat="45.826645" lon="9.428955"><time>2024-03-23T08:07:04.000Z</time><ele>590</ele></trkpt><trkpt lat="45.826649" lon="9.428959"><time>2024-03-23T08:07:05.000Z</time><ele>590</ele></trkpt><trkpt lat="45.826651" lon="9.428964"><time>2024-03-23T08:07:06.000Z</time><ele>590</ele></trkpt><trkpt lat="45.826663" lon="9.428975"><time>2024-03-23T08:07:07.000Z</time><ele>590.2</ele></trkpt><trkpt lat="45.826667" lon="9.42898"><time>2024-03-23T08:07:08.000Z</time><ele>590.2</ele></trkpt><trkpt lat="45.826683" lon="9.428983"><time>2024-03-23T08:07:09.000Z</time><ele>590.2</ele></trkpt><trkpt lat="45.826684" lon="9.428987"><time>2024-03-23T08:07:10.000Z</time><ele>590.4</ele></trkpt><trkpt lat="45.826696" lon="9.428998"><time>2024-03-23T08:07:11.000Z</time><ele>590.4</ele></trkpt><trkpt lat="45.826697" lon="9.429004"><time>2024-03-23T08:07:12.000Z</time><ele>590.4</ele></trkpt><trkpt lat="45.826696" lon="9.429013"><time>2024-03-23T08:07:13.000Z</time><ele>590.4</ele></trkpt><trkpt lat="45.826697" lon="9.429018"><time>2024-03-23T08:07:14.000Z</time><ele>590.6</ele></trkpt><trkpt lat="45.826701" lon="9.429026"><time>2024-03-23T08:07:15.000Z</time><ele>590.8</ele></trkpt><trkpt lat="45.826709" lon="9.429038"><time>2024-03-23T08:07:16.000Z</time><ele>591</ele></trkpt><trkpt lat="45.826721" lon="9.429052"><time>2024-03-23T08:07:17.000Z</time><ele>591.2</ele></trkpt><trkpt lat="45.826725" lon="9.429053"><time>2024-03-23T08:07:18.000Z</time><ele>591.4</ele></trkpt><trkpt lat="45.826735" lon="9.429066"><time>2024-03-23T08:07:19.000Z</time><ele>591.4</ele></trkpt><trkpt lat="45.826736" lon="9.429067"><time>2024-03-23T08:07:20.000Z</time><ele>591.4</ele></trkpt><trkpt lat="45.826742" lon="9.429074"><time>2024-03-23T08:07:21.000Z</time><ele>591.4</ele></trkpt><trkpt lat="45.826741" lon="9.429073"><time>2024-03-23T08:07:22.000Z</time><ele>591.6</ele></trkpt><trkpt lat="45.826741" lon="9.429075"><time>2024-03-23T08:07:23.000Z</time><ele>591.6</ele></trkpt><trkpt lat="45.826738" lon="9.429073"><time>2024-03-23T08:07:24.000Z</time><ele>591.6</ele></trkpt><trkpt lat="45.826741" lon="9.429067"><time>2024-03-23T08:07:25.000Z</time><ele>591.6</ele></trkpt><trkpt lat="45.82674" lon="9.42907"><time>2024-03-23T08:07:26.000Z</time><ele>591.6</ele></trkpt><trkpt lat="45.826739" lon="9.42907"><time>2024-03-23T08:07:27.000Z</time><ele>591.8</ele></trkpt><trkpt lat="45.826741" lon="9.429063"><time>2024-03-23T08:07:28.000Z</time><ele>591.8</ele></trkpt><trkpt lat="45.826739" lon="9.429061"><time>2024-03-23T08:07:29.000Z</time><ele>591.8</ele></trkpt><trkpt lat="45.826738" lon="9.429062"><time>2024-03-23T08:07:30.000Z</time><ele>592</ele></trkpt><trkpt lat="45.826736" lon="9.429062"><time>2024-03-23T08:07:31.000Z</time><ele>592</ele></trkpt><trkpt lat="45.826736" lon="9.429063"><time>2024-03-23T08:07:32.000Z</time><ele>592</ele></trkpt><trkpt lat="45.826736" lon="9.429063"><time>2024-03-23T08:07:33.000Z</time><ele>592</ele></trkpt><trkpt lat="45.826736" lon="9.429063"><time>2024-03-23T08:07:34.000Z</time><ele>592</ele></trkpt><trkpt lat="45.826736" lon="9.429063"><time>2024-03-23T08:07:35.000Z</time><ele>592</ele></trkpt><trkpt lat="45.826736" lon="9.429063"><time>2024-03-23T08:07:36.000Z</time><ele>592</ele></trkpt><trkpt lat="45.826736" lon="9.429063"><time>2024-03-23T08:07:37.000Z</time><ele>592</ele></trkpt><trkpt lat="45.826736" lon="9.429063"><time>2024-03-23T08:07:38.000Z</time><ele>592</ele></trkpt><trkpt lat="45.82674" lon="9.429065"><time>2024-03-23T08:07:39.000Z</time><ele>592</ele></trkpt><trkpt lat="45.826744" lon="9.429063"><time>2024-03-23T08:07:40.000Z</time><ele>592</ele></trkpt><trkpt lat="45.826745" lon="9.42906"><time>2024-03-23T08:07:41.000Z</time><ele>592.2</ele></trkpt><trkpt lat="45.826749" lon="9.429062"><time>2024-03-23T08:07:42.000Z</time><ele>592.4</ele></trkpt><trkpt lat="45.826766" lon="9.429069"><time>2024-03-23T08:07:43.000Z</time><ele>592.4</ele></trkpt><trkpt lat="45.826784" lon="9.429086"><time>2024-03-23T08:07:44.000Z</time><ele>592.4</ele></trkpt><trkpt lat="45.826804" lon="9.429102"><time>2024-03-23T08:07:45.000Z</time><ele>592.6</ele></trkpt><trkpt lat="45.82682" lon="9.429119"><time>2024-03-23T08:07:46.000Z</time><ele>592.8</ele></trkpt><trkpt lat="45.826826" lon="9.429127"><time>2024-03-23T08:07:47.000Z</time><ele>593</ele></trkpt><trkpt lat="45.826829" lon="9.429133"><time>2024-03-23T08:07:48.000Z</time><ele>593.2</ele></trkpt><trkpt lat="45.826839" lon="9.429143"><time>2024-03-23T08:07:49.000Z</time><ele>593.2</ele></trkpt><trkpt lat="45.826851" lon="9.429152"><time>2024-03-23T08:07:50.000Z</time><ele>593.4</ele></trkpt><trkpt lat="45.826853" lon="9.429157"><time>2024-03-23T08:07:51.000Z</time><ele>593.4</ele></trkpt><trkpt lat="45.826852" lon="9.429158"><time>2024-03-23T08:07:52.000Z</time><ele>593.6</ele></trkpt><trkpt lat="45.826848" lon="9.429159"><time>2024-03-23T08:07:53.000Z</time><ele>593.8</ele></trkpt><trkpt lat="45.826846" lon="9.429157"><time>2024-03-23T08:07:54.000Z</time><ele>593.8</ele></trkpt><trkpt lat="45.826847" lon="9.429154"><time>2024-03-23T08:07:55.000Z</time><ele>593.8</ele></trkpt><trkpt lat="45.826855" lon="9.429152"><time>2024-03-23T08:07:56.000Z</time><ele>594</ele></trkpt><trkpt lat="45.82687" lon="9.429155"><time>2024-03-23T08:07:57.000Z</time><ele>594</ele></trkpt><trkpt lat="45.826885" lon="9.429157"><time>2024-03-23T08:07:58.000Z</time><ele>594</ele></trkpt><trkpt lat="45.826904" lon="9.429163"><time>2024-03-23T08:07:59.000Z</time><ele>594.2</ele></trkpt><trkpt lat="45.826928" lon="9.429171"><time>2024-03-23T08:08:00.000Z</time><ele>594.4</ele></trkpt><trkpt lat="45.826939" lon="9.429172"><time>2024-03-23T08:08:01.000Z</time><ele>594.6</ele></trkpt><trkpt lat="45.826949" lon="9.42917"><time>2024-03-23T08:08:02.000Z</time><ele>594.8</ele></trkpt><trkpt lat="45.826956" lon="9.429166"><time>2024-03-23T08:08:03.000Z</time><ele>594.8</ele></trkpt><trkpt lat="45.826967" lon="9.429165"><time>2024-03-23T08:08:04.000Z</time><ele>595</ele></trkpt><trkpt lat="45.826981" lon="9.429173"><time>2024-03-23T08:08:05.000Z</time><ele>595</ele></trkpt><trkpt lat="45.826995" lon="9.429182"><time>2024-03-23T08:08:06.000Z</time><ele>595.2</ele></trkpt><trkpt lat="45.827021" lon="9.429203"><time>2024-03-23T08:08:07.000Z</time><ele>595.2</ele></trkpt><trkpt lat="45.82704" lon="9.429215"><time>2024-03-23T08:08:08.000Z</time><ele>595.4</ele></trkpt><trkpt lat="45.827043" lon="9.42922"><time>2024-03-23T08:08:09.000Z</time><ele>595.8</ele></trkpt><trkpt lat="45.827052" lon="9.429229"><time>2024-03-23T08:08:10.000Z</time><ele>596</ele></trkpt><trkpt lat="45.827055" lon="9.42923"><time>2024-03-23T08:08:11.000Z</time><ele>596.2</ele></trkpt><trkpt lat="45.827057" lon="9.429232"><time>2024-03-23T08:08:12.000Z</time><ele>596.4</ele></trkpt><trkpt lat="45.827058" lon="9.429232"><time>2024-03-23T08:08:13.000Z</time><ele>596.6</ele></trkpt><trkpt lat="45.82706" lon="9.429237"><time>2024-03-23T08:08:14.000Z</time><ele>596.6</ele></trkpt><trkpt lat="45.827062" lon="9.429242"><time>2024-03-23T08:08:15.000Z</time><ele>596.8</ele></trkpt><trkpt lat="45.827064" lon="9.429245"><time>2024-03-23T08:08:16.000Z</time><ele>596.8</ele></trkpt><trkpt lat="45.827072" lon="9.429251"><time>2024-03-23T08:08:17.000Z</time><ele>596.8</ele></trkpt><trkpt lat="45.82708" lon="9.429259"><time>2024-03-23T08:08:18.000Z</time><ele>597</ele></trkpt><trkpt lat="45.82709" lon="9.429275"><time>2024-03-23T08:08:19.000Z</time><ele>597.2</ele></trkpt><trkpt lat="45.827092" lon="9.429281"><time>2024-03-23T08:08:20.000Z</time><ele>597.4</ele></trkpt><trkpt lat="45.827104" lon="9.42929"><time>2024-03-23T08:08:21.000Z</time><ele>597.4</ele></trkpt><trkpt lat="45.827108" lon="9.429296"><time>2024-03-23T08:08:22.000Z</time><ele>597.6</ele></trkpt><trkpt lat="45.82712" lon="9.429303"><time>2024-03-23T08:08:23.000Z</time><ele>597.8</ele></trkpt><trkpt lat="45.827129" lon="9.429308"><time>2024-03-23T08:08:24.000Z</time><ele>598</ele></trkpt><trkpt lat="45.827132" lon="9.429309"><time>2024-03-23T08:08:25.000Z</time><ele>598.2</ele></trkpt><trkpt lat="45.827143" lon="9.429312"><time>2024-03-23T08:08:26.000Z</time><ele>598.4</ele></trkpt><trkpt lat="45.827143" lon="9.429309"><time>2024-03-23T08:08:27.000Z</time><ele>598.6</ele></trkpt><trkpt lat="45.827142" lon="9.429305"><time>2024-03-23T08:08:28.000Z</time><ele>598.8</ele></trkpt><trkpt lat="45.827144" lon="9.429308"><time>2024-03-23T08:08:29.000Z</time><ele>599</ele></trkpt><trkpt lat="45.827144" lon="9.429309"><time>2024-03-23T08:08:30.000Z</time><ele>599</ele></trkpt><trkpt lat="45.827133" lon="9.429306"><time>2024-03-23T08:08:31.000Z</time><ele>599.2</ele></trkpt><trkpt lat="45.827134" lon="9.429304"><time>2024-03-23T08:08:32.000Z</time><ele>599.2</ele></trkpt><trkpt lat="45.827142" lon="9.429311"><time>2024-03-23T08:08:33.000Z</time><ele>599.6</ele></trkpt><trkpt lat="45.82716" lon="9.429323"><time>2024-03-23T08:08:34.000Z</time><ele>599.6</ele></trkpt><trkpt lat="45.827168" lon="9.429323"><time>2024-03-23T08:08:35.000Z</time><ele>599.8</ele></trkpt><trkpt lat="45.827171" lon="9.429325"><time>2024-03-23T08:08:36.000Z</time><ele>600</ele></trkpt><trkpt lat="45.827169" lon="9.429327"><time>2024-03-23T08:08:37.000Z</time><ele>600.2</ele></trkpt><trkpt lat="45.827165" lon="9.429326"><time>2024-03-23T08:08:38.000Z</time><ele>600.2</ele></trkpt><trkpt lat="45.82716" lon="9.429325"><time>2024-03-23T08:08:39.000Z</time><ele>600.4</ele></trkpt><trkpt lat="45.827167" lon="9.429331"><time>2024-03-23T08:08:40.000Z</time><ele>600.6</ele></trkpt><trkpt lat="45.827172" lon="9.429339"><time>2024-03-23T08:08:41.000Z</time><ele>600.8</ele></trkpt><trkpt lat="45.827181" lon="9.429353"><time>2024-03-23T08:08:42.000Z</time><ele>600.8</ele></trkpt><trkpt lat="45.827183" lon="9.429355"><time>2024-03-23T08:08:43.000Z</time><ele>601</ele></trkpt><trkpt lat="45.827181" lon="9.429353"><time>2024-03-23T08:08:44.000Z</time><ele>601</ele></trkpt><trkpt lat="45.827181" lon="9.429353"><time>2024-03-23T08:08:45.000Z</time><ele>601.2</ele></trkpt><trkpt lat="45.827181" lon="9.429353"><time>2024-03-23T08:08:46.000Z</time><ele>601.2</ele></trkpt><trkpt lat="45.827181" lon="9.429353"><time>2024-03-23T08:08:47.000Z</time><ele>601.2</ele></trkpt><trkpt lat="45.827181" lon="9.429353"><time>2024-03-23T08:08:48.000Z</time><ele>601.2</ele></trkpt><trkpt lat="45.827181" lon="9.429353"><time>2024-03-23T08:08:49.000Z</time><ele>601.4</ele></trkpt><trkpt lat="45.827181" lon="9.429353"><time>2024-03-23T08:08:50.000Z</time><ele>601.6</ele></trkpt><trkpt lat="45.827181" lon="9.429353"><time>2024-03-23T08:08:51.000Z</time><ele>601.6</ele></trkpt><trkpt lat="45.827181" lon="9.429353"><time>2024-03-23T08:08:52.000Z</time><ele>601.6</ele></trkpt><trkpt lat="45.827181" lon="9.429353"><time>2024-03-23T08:08:53.000Z</time><ele>601.6</ele></trkpt><trkpt lat="45.827181" lon="9.429353"><time>2024-03-23T08:08:54.000Z</time><ele>601.6</ele></trkpt><trkpt lat="45.827181" lon="9.429353"><time>2024-03-23T08:08:55.000Z</time><ele>601.6</ele></trkpt><trkpt lat="45.827181" lon="9.429353"><time>2024-03-23T08:08:56.000Z</time><ele>601.4</ele></trkpt><trkpt lat="45.827181" lon="9.429353"><time>2024-03-23T08:08:57.000Z</time><ele>601.4</ele></trkpt><trkpt lat="45.82719" lon="9.429358"><time>2024-03-23T08:08:58.000Z</time><ele>601.2</ele></trkpt><trkpt lat="45.827217" lon="9.429366"><time>2024-03-23T08:08:59.000Z</time><ele>601.2</ele></trkpt><trkpt lat="45.827239" lon="9.42937"><time>2024-03-23T08:09:00.000Z</time><ele>601.2</ele></trkpt><trkpt lat="45.82726" lon="9.429371"><time>2024-03-23T08:09:01.000Z</time><ele>601.2</ele></trkpt><trkpt lat="45.827277" lon="9.429371"><time>2024-03-23T08:09:02.000Z</time><ele>601.2</ele></trkpt><trkpt lat="45.827296" lon="9.429368"><time>2024-03-23T08:09:03.000Z</time><ele>601.2</ele></trkpt><trkpt lat="45.827319" lon="9.429375"><time>2024-03-23T08:09:04.000Z</time><ele>601.2</ele></trkpt><trkpt lat="45.827332" lon="9.429374"><time>2024-03-23T08:09:05.000Z</time><ele>601</ele></trkpt><trkpt lat="45.82735" lon="9.429378"><time>2024-03-23T08:09:06.000Z</time><ele>601</ele></trkpt><trkpt lat="45.827356" lon="9.429381"><time>2024-03-23T08:09:07.000Z</time><ele>601</ele></trkpt><trkpt lat="45.827355" lon="9.429383"><time>2024-03-23T08:09:08.000Z</time><ele>600.8</ele></trkpt><trkpt lat="45.82736" lon="9.429383"><time>2024-03-23T08:09:09.000Z</time><ele>600.6</ele></trkpt><trkpt lat="45.827363" lon="9.429379"><time>2024-03-23T08:09:10.000Z</time><ele>600.6</ele></trkpt><trkpt lat="45.827362" lon="9.429371"><time>2024-03-23T08:09:11.000Z</time><ele>600.4</ele></trkpt><trkpt lat="45.827362" lon="9.42937"><time>2024-03-23T08:09:12.000Z</time><ele>600.4</ele></trkpt><trkpt lat="45.827359" lon="9.429365"><time>2024-03-23T08:09:13.000Z</time><ele>600.4</ele></trkpt><trkpt lat="45.827359" lon="9.429362"><time>2024-03-23T08:09:14.000Z</time><ele>600.4</ele></trkpt><trkpt lat="45.827381" lon="9.429364"><time>2024-03-23T08:09:15.000Z</time><ele>600.2</ele></trkpt><trkpt lat="45.827388" lon="9.429362"><time>2024-03-23T08:09:16.000Z</time><ele>600.2</ele></trkpt><trkpt lat="45.827361" lon="9.42933"><time>2024-03-23T08:09:17.000Z</time><ele>600.2</ele></trkpt><trkpt lat="45.827365" lon="9.429322"><time>2024-03-23T08:09:18.000Z</time><ele>600.2</ele></trkpt><trkpt lat="45.827378" lon="9.429325"><time>2024-03-23T08:09:19.000Z</time><ele>600.2</ele></trkpt><trkpt lat="45.827388" lon="9.429329"><time>2024-03-23T08:09:20.000Z</time><ele>600.2</ele></trkpt><trkpt lat="45.827394" lon="9.429321"><time>2024-03-23T08:09:21.000Z</time><ele>600.2</ele></trkpt><trkpt lat="45.827407" lon="9.429317"><time>2024-03-23T08:09:22.000Z</time><ele>600.2</ele></trkpt><trkpt lat="45.827417" lon="9.429306"><time>2024-03-23T08:09:23.000Z</time><ele>600.2</ele></trkpt><trkpt lat="45.827428" lon="9.429302"><time>2024-03-23T08:09:24.000Z</time><ele>600.2</ele></trkpt><trkpt lat="45.827452" lon="9.429293"><time>2024-03-23T08:09:28.000Z</time><ele>599.6</ele></trkpt><trkpt lat="45.827458" lon="9.429297"><time>2024-03-23T08:09:29.000Z</time><ele>599.4</ele></trkpt><trkpt lat="45.827458" lon="9.429286"><time>2024-03-23T08:09:30.000Z</time><ele>599.4</ele></trkpt><trkpt lat="45.827459" lon="9.429285"><time>2024-03-23T08:09:31.000Z</time><ele>599.4</ele></trkpt><trkpt lat="45.827455" lon="9.429283"><time>2024-03-23T08:09:32.000Z</time><ele>599.4</ele></trkpt><trkpt lat="45.827456" lon="9.429281"><time>2024-03-23T08:09:33.000Z</time><ele>599.4</ele></trkpt><trkpt lat="45.827466" lon="9.429312"><time>2024-03-23T08:09:34.000Z</time><ele>599.4</ele></trkpt><trkpt lat="45.827475" lon="9.429313"><time>2024-03-23T08:09:35.000Z</time><ele>599.4</ele></trkpt><trkpt lat="45.827482" lon="9.429319"><time>2024-03-23T08:09:36.000Z</time><ele>599.4</ele></trkpt><trkpt lat="45.827488" lon="9.429326"><time>2024-03-23T08:09:37.000Z</time><ele>599.4</ele></trkpt><trkpt lat="45.827496" lon="9.429333"><time>2024-03-23T08:09:38.000Z</time><ele>599.4</ele></trkpt><trkpt lat="45.827511" lon="9.429345"><time>2024-03-23T08:09:39.000Z</time><ele>599.4</ele></trkpt><trkpt lat="45.827524" lon="9.429355"><time>2024-03-23T08:09:40.000Z</time><ele>599.6</ele></trkpt><trkpt lat="45.82754" lon="9.429367"><time>2024-03-23T08:09:41.000Z</time><ele>599.6</ele></trkpt><trkpt lat="45.827543" lon="9.429364"><time>2024-03-23T08:09:42.000Z</time><ele>599.8</ele></trkpt><trkpt lat="45.827549" lon="9.429365"><time>2024-03-23T08:09:43.000Z</time><ele>599.8</ele></trkpt><trkpt lat="45.827555" lon="9.429366"><time>2024-03-23T08:09:44.000Z</time><ele>599.8</ele></trkpt><trkpt lat="45.827562" lon="9.429369"><time>2024-03-23T08:09:45.000Z</time><ele>599.8</ele></trkpt><trkpt lat="45.827564" lon="9.429366"><time>2024-03-23T08:09:46.000Z</time><ele>599.8</ele></trkpt><trkpt lat="45.827569" lon="9.429361"><time>2024-03-23T08:09:47.000Z</time><ele>599.8</ele></trkpt><trkpt lat="45.827574" lon="9.429358"><time>2024-03-23T08:09:48.000Z</time><ele>599.8</ele></trkpt><trkpt lat="45.827583" lon="9.429361"><time>2024-03-23T08:09:49.000Z</time><ele>600</ele></trkpt><trkpt lat="45.827605" lon="9.429382"><time>2024-03-23T08:09:50.000Z</time><ele>600</ele></trkpt><trkpt lat="45.827614" lon="9.42938"><time>2024-03-23T08:09:51.000Z</time><ele>600</ele></trkpt><trkpt lat="45.827627" lon="9.429386"><time>2024-03-23T08:09:52.000Z</time><ele>600</ele></trkpt><trkpt lat="45.827638" lon="9.429392"><time>2024-03-23T08:09:53.000Z</time><ele>600</ele></trkpt><trkpt lat="45.827653" lon="9.429401"><time>2024-03-23T08:09:54.000Z</time><ele>600</ele></trkpt><trkpt lat="45.82767" lon="9.429412"><time>2024-03-23T08:09:55.000Z</time><ele>600</ele></trkpt><trkpt lat="45.827687" lon="9.42942"><time>2024-03-23T08:09:56.000Z</time><ele>600</ele></trkpt><trkpt lat="45.827696" lon="9.429419"><time>2024-03-23T08:09:57.000Z</time><ele>599.8</ele></trkpt><trkpt lat="45.827709" lon="9.429413"><time>2024-03-23T08:09:58.000Z</time><ele>599.6</ele></trkpt><trkpt lat="45.827702" lon="9.429402"><time>2024-03-23T08:09:59.000Z</time><ele>599.6</ele></trkpt><trkpt lat="45.827691" lon="9.4294"><time>2024-03-23T08:10:00.000Z</time><ele>599.4</ele></trkpt><trkpt lat="45.827678" lon="9.429392"><time>2024-03-23T08:10:01.000Z</time><ele>599.4</ele></trkpt><trkpt lat="45.827672" lon="9.42939"><time>2024-03-23T08:10:02.000Z</time><ele>599.4</ele></trkpt><trkpt lat="45.827647" lon="9.429391"><time>2024-03-23T08:10:05.000Z</time><ele>599.4</ele></trkpt><trkpt lat="45.827648" lon="9.429364"><time>2024-03-23T08:10:06.000Z</time><ele>599.4</ele></trkpt><trkpt lat="45.827641" lon="9.429344"><time>2024-03-23T08:10:07.000Z</time><ele>599.4</ele></trkpt><trkpt lat="45.82764" lon="9.429342"><time>2024-03-23T08:10:08.000Z</time><ele>599.4</ele></trkpt><trkpt lat="45.827638" lon="9.429332"><time>2024-03-23T08:10:09.000Z</time><ele>599.4</ele></trkpt><trkpt lat="45.827634" lon="9.429324"><time>2024-03-23T08:10:10.000Z</time><ele>599.6</ele></trkpt><trkpt lat="45.827631" lon="9.429317"><time>2024-03-23T08:10:11.000Z</time><ele>599.6</ele></trkpt><trkpt lat="45.827632" lon="9.429313"><time>2024-03-23T08:10:12.000Z</time><ele>599.8</ele></trkpt><trkpt lat="45.827634" lon="9.429308"><time>2024-03-23T08:10:13.000Z</time><ele>599.8</ele></trkpt><trkpt lat="45.827633" lon="9.429286"><time>2024-03-23T08:10:17.000Z</time><ele>600</ele></trkpt><trkpt lat="45.827685" lon="9.429514"><time>2024-03-23T08:10:40.000Z</time><ele>599.8</ele></trkpt><trkpt lat="45.82748" lon="9.429408"><time>2024-03-23T08:10:42.000Z</time><ele>599.8</ele></trkpt><trkpt lat="45.827753" lon="9.429341"><time>2024-03-23T08:12:37.000Z</time><ele>599.8</ele></trkpt><trkpt lat="45.827768" lon="9.429298"><time>2024-03-23T08:12:38.000Z</time><ele>599.8</ele></trkpt><trkpt lat="45.827759" lon="9.429274"><time>2024-03-23T08:12:39.000Z</time><ele>599.8</ele></trkpt><trkpt lat="45.827709" lon="9.429194"><time>2024-03-23T08:12:40.000Z</time><ele>599.8</ele></trkpt><trkpt lat="45.827653" lon="9.429274"><time>2024-03-23T08:12:42.000Z</time><ele>599.8</ele></trkpt><trkpt lat="45.827588" lon="9.429199"><time>2024-03-23T08:12:44.000Z</time><ele>599.8</ele></trkpt><trkpt lat="45.827575" lon="9.429189"><time>2024-03-23T08:12:45.000Z</time><ele>599.8</ele></trkpt><trkpt lat="45.827586" lon="9.42921"><time>2024-03-23T08:12:46.000Z</time><ele>599.8</ele></trkpt><trkpt lat="45.827597" lon="9.429226"><time>2024-03-23T08:12:47.000Z</time><ele>599.8</ele></trkpt><trkpt lat="45.827612" lon="9.429235"><time>2024-03-23T08:12:48.000Z</time><ele>599.8</ele></trkpt><trkpt lat="45.827632" lon="9.429252"><time>2024-03-23T08:12:49.000Z</time><ele>599</ele></trkpt><trkpt lat="45.827638" lon="9.429251"><time>2024-03-23T08:12:50.000Z</time><ele>598.6</ele></trkpt><trkpt lat="45.82762" lon="9.429265"><time>2024-03-23T08:12:51.000Z</time><ele>598.4</ele></trkpt><trkpt lat="45.827607" lon="9.42928"><time>2024-03-23T08:12:52.000Z</time><ele>598.4</ele></trkpt><trkpt lat="45.827601" lon="9.429283"><time>2024-03-23T08:12:53.000Z</time><ele>598.2</ele></trkpt><trkpt lat="45.827593" lon="9.429277"><time>2024-03-23T08:12:54.000Z</time><ele>598.2</ele></trkpt><trkpt lat="45.827593" lon="9.429275"><time>2024-03-23T08:12:55.000Z</time><ele>598.2</ele></trkpt><trkpt lat="45.827596" lon="9.42927"><time>2024-03-23T08:12:56.000Z</time><ele>598.2</ele></trkpt><trkpt lat="45.827609" lon="9.429274"><time>2024-03-23T08:12:57.000Z</time><ele>598.2</ele></trkpt><trkpt lat="45.827622" lon="9.429282"><time>2024-03-23T08:12:58.000Z</time><ele>598</ele></trkpt><trkpt lat="45.827637" lon="9.429291"><time>2024-03-23T08:12:59.000Z</time><ele>598</ele></trkpt><trkpt lat="45.827645" lon="9.42929"><time>2024-03-23T08:13:00.000Z</time><ele>598</ele></trkpt><trkpt lat="45.827632" lon="9.429275"><time>2024-03-23T08:13:01.000Z</time><ele>598</ele></trkpt><trkpt lat="45.827626" lon="9.429268"><time>2024-03-23T08:13:02.000Z</time><ele>598</ele></trkpt><trkpt lat="45.827622" lon="9.429261"><time>2024-03-23T08:13:03.000Z</time><ele>598</ele></trkpt><trkpt lat="45.827617" lon="9.429256"><time>2024-03-23T08:13:04.000Z</time><ele>598.2</ele></trkpt><trkpt lat="45.827614" lon="9.429253"><time>2024-03-23T08:13:05.000Z</time><ele>598.4</ele></trkpt><trkpt lat="45.827609" lon="9.429248"><time>2024-03-23T08:13:06.000Z</time><ele>598.4</ele></trkpt><trkpt lat="45.827606" lon="9.429247"><time>2024-03-23T08:13:07.000Z</time><ele>598.6</ele></trkpt><trkpt lat="45.827604" lon="9.429246"><time>2024-03-23T08:13:08.000Z</time><ele>598.6</ele></trkpt><trkpt lat="45.827602" lon="9.429246"><time>2024-03-23T08:13:09.000Z</time><ele>598.8</ele></trkpt><trkpt lat="45.827592" lon="9.429238"><time>2024-03-23T08:13:10.000Z</time><ele>598.8</ele></trkpt><trkpt lat="45.827592" lon="9.429239"><time>2024-03-23T08:13:11.000Z</time><ele>598.8</ele></trkpt><trkpt lat="45.827594" lon="9.429239"><time>2024-03-23T08:13:12.000Z</time><ele>598.8</ele></trkpt><trkpt lat="45.827598" lon="9.42924"><time>2024-03-23T08:13:13.000Z</time><ele>598.4</ele></trkpt><trkpt lat="45.827597" lon="9.42924"><time>2024-03-23T08:13:14.000Z</time><ele>598.2</ele></trkpt><trkpt lat="45.827591" lon="9.429237"><time>2024-03-23T08:13:15.000Z</time><ele>598.2</ele></trkpt><trkpt lat="45.827585" lon="9.429227"><time>2024-03-23T08:13:16.000Z</time><ele>598</ele></trkpt><trkpt lat="45.827585" lon="9.429227"><time>2024-03-23T08:13:17.000Z</time><ele>598</ele></trkpt><trkpt lat="45.827585" lon="9.429227"><time>2024-03-23T08:13:18.000Z</time><ele>598</ele></trkpt><trkpt lat="45.827585" lon="9.429227"><time>2024-03-23T08:13:19.000Z</time><ele>598</ele></trkpt><trkpt lat="45.827585" lon="9.429227"><time>2024-03-23T08:13:20.000Z</time><ele>598</ele></trkpt><trkpt lat="45.827585" lon="9.429227"><time>2024-03-23T08:13:21.000Z</time><ele>598</ele></trkpt><trkpt lat="45.827585" lon="9.429227"><time>2024-03-23T08:13:22.000Z</time><ele>598</ele></trkpt><trkpt lat="45.827585" lon="9.429227"><time>2024-03-23T08:13:23.000Z</time><ele>598</ele></trkpt><trkpt lat="45.827585" lon="9.429233"><time>2024-03-23T08:13:24.000Z</time><ele>598</ele></trkpt><trkpt lat="45.827585" lon="9.429236"><time>2024-03-23T08:13:25.000Z</time><ele>598</ele></trkpt><trkpt lat="45.827585" lon="9.429236"><time>2024-03-23T08:13:26.000Z</time><ele>598</ele></trkpt><trkpt lat="45.827585" lon="9.429236"><time>2024-03-23T08:13:27.000Z</time><ele>598</ele></trkpt><trkpt lat="45.827585" lon="9.429236"><time>2024-03-23T08:13:28.000Z</time><ele>598</ele></trkpt><trkpt lat="45.827585" lon="9.429236"><time>2024-03-23T08:13:29.000Z</time><ele>597.8</ele></trkpt><trkpt lat="45.827585" lon="9.429236"><time>2024-03-23T08:13:30.000Z</time><ele>597.8</ele></trkpt><trkpt lat="45.827585" lon="9.429236"><time>2024-03-23T08:13:31.000Z</time><ele>597.8</ele></trkpt><trkpt lat="45.827585" lon="9.429236"><time>2024-03-23T08:13:32.000Z</time><ele>597.8</ele></trkpt><trkpt lat="45.827585" lon="9.429236"><time>2024-03-23T08:13:33.000Z</time><ele>597.8</ele></trkpt><trkpt lat="45.827585" lon="9.429236"><time>2024-03-23T08:13:34.000Z</time><ele>597.8</ele></trkpt><trkpt lat="45.827585" lon="9.429236"><time>2024-03-23T08:13:35.000Z</time><ele>597.8</ele></trkpt><trkpt lat="45.827585" lon="9.429236"><time>2024-03-23T08:13:36.000Z</time><ele>597.8</ele></trkpt><trkpt lat="45.827581" lon="9.429236"><time>2024-03-23T08:13:37.000Z</time><ele>597.8</ele></trkpt><trkpt lat="45.82758" lon="9.429235"><time>2024-03-23T08:13:38.000Z</time><ele>597.8</ele></trkpt><trkpt lat="45.827574" lon="9.429235"><time>2024-03-23T08:13:39.000Z</time><ele>597.6</ele></trkpt><trkpt lat="45.827565" lon="9.429235"><time>2024-03-23T08:13:40.000Z</time><ele>597.6</ele></trkpt><trkpt lat="45.827558" lon="9.429235"><time>2024-03-23T08:13:41.000Z</time><ele>597.6</ele></trkpt><trkpt lat="45.827556" lon="9.429235"><time>2024-03-23T08:13:42.000Z</time><ele>597.6</ele></trkpt><trkpt lat="45.827556" lon="9.429235"><time>2024-03-23T08:13:43.000Z</time><ele>597.6</ele></trkpt><trkpt lat="45.827556" lon="9.429235"><time>2024-03-23T08:13:44.000Z</time><ele>597.6</ele></trkpt><trkpt lat="45.827556" lon="9.429235"><time>2024-03-23T08:13:45.000Z</time><ele>597.8</ele></trkpt><trkpt lat="45.827556" lon="9.429236"><time>2024-03-23T08:13:46.000Z</time><ele>597.8</ele></trkpt><trkpt lat="45.827556" lon="9.429238"><time>2024-03-23T08:13:47.000Z</time><ele>597.8</ele></trkpt><trkpt lat="45.827556" lon="9.429239"><time>2024-03-23T08:13:48.000Z</time><ele>597.8</ele></trkpt><trkpt lat="45.827556" lon="9.429239"><time>2024-03-23T08:13:49.000Z</time><ele>597.8</ele></trkpt><trkpt lat="45.827556" lon="9.429239"><time>2024-03-23T08:13:50.000Z</time><ele>597.8</ele></trkpt><trkpt lat="45.827556" lon="9.429239"><time>2024-03-23T08:13:51.000Z</time><ele>597.8</ele></trkpt><trkpt lat="45.827556" lon="9.429239"><time>2024-03-23T08:13:52.000Z</time><ele>597.8</ele></trkpt><trkpt lat="45.827556" lon="9.429239"><time>2024-03-23T08:13:53.000Z</time><ele>597.8</ele></trkpt><trkpt lat="45.827556" lon="9.429239"><time>2024-03-23T08:13:54.000Z</time><ele>597.8</ele></trkpt><trkpt lat="45.827556" lon="9.42924"><time>2024-03-23T08:13:55.000Z</time><ele>597.4</ele></trkpt><trkpt lat="45.827556" lon="9.42924"><time>2024-03-23T08:13:56.000Z</time><ele>597.4</ele></trkpt><trkpt lat="45.827556" lon="9.42924"><time>2024-03-23T08:13:57.000Z</time><ele>597.4</ele></trkpt><trkpt lat="45.827557" lon="9.429241"><time>2024-03-23T08:13:58.000Z</time><ele>597.4</ele></trkpt><trkpt lat="45.827558" lon="9.429241"><time>2024-03-23T08:13:59.000Z</time><ele>597.4</ele></trkpt><trkpt lat="45.827559" lon="9.429242"><time>2024-03-23T08:14:00.000Z</time><ele>597.4</ele></trkpt><trkpt lat="45.82756" lon="9.429242"><time>2024-03-23T08:14:01.000Z</time><ele>597.4</ele></trkpt><trkpt lat="45.82756" lon="9.429243"><time>2024-03-23T08:14:02.000Z</time><ele>597.4</ele></trkpt><trkpt lat="45.827561" lon="9.429243"><time>2024-03-23T08:14:03.000Z</time><ele>597.4</ele></trkpt><trkpt lat="45.827561" lon="9.429243"><time>2024-03-23T08:14:04.000Z</time><ele>597.4</ele></trkpt><trkpt lat="45.827562" lon="9.429244"><time>2024-03-23T08:14:05.000Z</time><ele>597.4</ele></trkpt><trkpt lat="45.827562" lon="9.429246"><time>2024-03-23T08:14:06.000Z</time><ele>597.4</ele></trkpt><trkpt lat="45.827564" lon="9.429252"><time>2024-03-23T08:14:07.000Z</time><ele>597.4</ele></trkpt><trkpt lat="45.827568" lon="9.429267"><time>2024-03-23T08:14:08.000Z</time><ele>597.4</ele></trkpt><trkpt lat="45.827578" lon="9.429278"><time>2024-03-23T08:14:09.000Z</time><ele>597.4</ele></trkpt><trkpt lat="45.827585" lon="9.429281"><time>2024-03-23T08:14:10.000Z</time><ele>597.4</ele></trkpt><trkpt lat="45.827587" lon="9.429282"><time>2024-03-23T08:14:11.000Z</time><ele>597.4</ele></trkpt><trkpt lat="45.827587" lon="9.429282"><time>2024-03-23T08:14:12.000Z</time><ele>597.4</ele></trkpt><trkpt lat="45.827587" lon="9.429283"><time>2024-03-23T08:14:13.000Z</time><ele>597.4</ele></trkpt><trkpt lat="45.827587" lon="9.429284"><time>2024-03-23T08:14:14.000Z</time><ele>597.4</ele></trkpt><trkpt lat="45.827587" lon="9.429284"><time>2024-03-23T08:14:15.000Z</time><ele>597.4</ele></trkpt><trkpt lat="45.827589" lon="9.429285"><time>2024-03-23T08:14:16.000Z</time><ele>597.4</ele></trkpt><trkpt lat="45.827589" lon="9.429286"><time>2024-03-23T08:14:17.000Z</time><ele>597.4</ele></trkpt><trkpt lat="45.82759" lon="9.429287"><time>2024-03-23T08:14:18.000Z</time><ele>597.4</ele></trkpt><trkpt lat="45.827592" lon="9.429288"><time>2024-03-23T08:14:19.000Z</time><ele>597.4</ele></trkpt><trkpt lat="45.827594" lon="9.429289"><time>2024-03-23T08:14:20.000Z</time><ele>597.4</ele></trkpt><trkpt lat="45.827595" lon="9.429289"><time>2024-03-23T08:14:21.000Z</time><ele>597.4</ele></trkpt><trkpt lat="45.827596" lon="9.42929"><time>2024-03-23T08:14:22.000Z</time><ele>597.4</ele></trkpt><trkpt lat="45.827597" lon="9.429292"><time>2024-03-23T08:14:23.000Z</time><ele>597.4</ele></trkpt><trkpt lat="45.827598" lon="9.429292"><time>2024-03-23T08:14:24.000Z</time><ele>597.4</ele></trkpt><trkpt lat="45.827598" lon="9.429293"><time>2024-03-23T08:14:25.000Z</time><ele>597.4</ele></trkpt><trkpt lat="45.827598" lon="9.429293"><time>2024-03-23T08:14:26.000Z</time><ele>597.4</ele></trkpt><trkpt lat="45.827599" lon="9.429293"><time>2024-03-23T08:14:27.000Z</time><ele>597.4</ele></trkpt><trkpt lat="45.8276" lon="9.429293"><time>2024-03-23T08:14:28.000Z</time><ele>597.4</ele></trkpt><trkpt lat="45.8276" lon="9.429294"><time>2024-03-23T08:14:29.000Z</time><ele>597.4</ele></trkpt><trkpt lat="45.827601" lon="9.429295"><time>2024-03-23T08:14:30.000Z</time><ele>597.4</ele></trkpt><trkpt lat="45.827602" lon="9.429295"><time>2024-03-23T08:14:31.000Z</time><ele>597.4</ele></trkpt><trkpt lat="45.827604" lon="9.429296"><time>2024-03-23T08:14:32.000Z</time><ele>597.4</ele></trkpt><trkpt lat="45.827607" lon="9.429297"><time>2024-03-23T08:14:33.000Z</time><ele>597.4</ele></trkpt><trkpt lat="45.827607" lon="9.429298"><time>2024-03-23T08:14:34.000Z</time><ele>597.4</ele></trkpt><trkpt lat="45.827608" lon="9.429298"><time>2024-03-23T08:14:35.000Z</time><ele>597.4</ele></trkpt><trkpt lat="45.827608" lon="9.429298"><time>2024-03-23T08:14:36.000Z</time><ele>597.4</ele></trkpt><trkpt lat="45.827608" lon="9.429298"><time>2024-03-23T08:14:37.000Z</time><ele>597.4</ele></trkpt><trkpt lat="45.827608" lon="9.429297"><time>2024-03-23T08:14:38.000Z</time><ele>597.4</ele></trkpt><trkpt lat="45.827608" lon="9.429297"><time>2024-03-23T08:14:39.000Z</time><ele>597.4</ele></trkpt><trkpt lat="45.82761" lon="9.429296"><time>2024-03-23T08:14:40.000Z</time><ele>597.4</ele></trkpt><trkpt lat="45.82761" lon="9.429296"><time>2024-03-23T08:14:41.000Z</time><ele>597.4</ele></trkpt><trkpt lat="45.82761" lon="9.429296"><time>2024-03-23T08:14:42.000Z</time><ele>597.4</ele></trkpt><trkpt lat="45.827611" lon="9.429296"><time>2024-03-23T08:14:43.000Z</time><ele>597.4</ele></trkpt><trkpt lat="45.827611" lon="9.429296"><time>2024-03-23T08:14:44.000Z</time><ele>597.4</ele></trkpt><trkpt lat="45.827611" lon="9.429299"><time>2024-03-23T08:14:45.000Z</time><ele>597.4</ele></trkpt><trkpt lat="45.82761" lon="9.429317"><time>2024-03-23T08:14:46.000Z</time><ele>597.4</ele></trkpt><trkpt lat="45.82761" lon="9.429326"><time>2024-03-23T08:14:47.000Z</time><ele>597.4</ele></trkpt><trkpt lat="45.827599" lon="9.42932"><time>2024-03-23T08:14:48.000Z</time><ele>597.4</ele></trkpt><trkpt lat="45.82759" lon="9.429322"><time>2024-03-23T08:14:49.000Z</time><ele>597.4</ele></trkpt><trkpt lat="45.827583" lon="9.429324"><time>2024-03-23T08:14:50.000Z</time><ele>597.4</ele></trkpt><trkpt lat="45.827578" lon="9.42933"><time>2024-03-23T08:14:51.000Z</time><ele>597.4</ele></trkpt><trkpt lat="45.827569" lon="9.429334"><time>2024-03-23T08:14:52.000Z</time><ele>597.4</ele></trkpt><trkpt lat="45.827564" lon="9.42933"><time>2024-03-23T08:14:53.000Z</time><ele>597.4</ele></trkpt><trkpt lat="45.827559" lon="9.429323"><time>2024-03-23T08:14:54.000Z</time><ele>597.4</ele></trkpt><trkpt lat="45.827554" lon="9.42932"><time>2024-03-23T08:14:55.000Z</time><ele>597.4</ele></trkpt><trkpt lat="45.827549" lon="9.429317"><time>2024-03-23T08:14:56.000Z</time><ele>597.4</ele></trkpt><trkpt lat="45.827545" lon="9.429316"><time>2024-03-23T08:14:57.000Z</time><ele>597.4</ele></trkpt><trkpt lat="45.827539" lon="9.429312"><time>2024-03-23T08:14:58.000Z</time><ele>597.4</ele></trkpt><trkpt lat="45.827532" lon="9.429305"><time>2024-03-23T08:14:59.000Z</time><ele>597.4</ele></trkpt><trkpt lat="45.827529" lon="9.429301"><time>2024-03-23T08:15:00.000Z</time><ele>597.4</ele></trkpt><trkpt lat="45.827533" lon="9.429291"><time>2024-03-23T08:15:01.000Z</time><ele>597.4</ele></trkpt><trkpt lat="45.827532" lon="9.429289"><time>2024-03-23T08:15:02.000Z</time><ele>597.4</ele></trkpt><trkpt lat="45.827532" lon="9.429291"><time>2024-03-23T08:15:03.000Z</time><ele>597.4</ele></trkpt><trkpt lat="45.82753" lon="9.429293"><time>2024-03-23T08:15:04.000Z</time><ele>597.4</ele></trkpt><trkpt lat="45.827527" lon="9.429293"><time>2024-03-23T08:15:05.000Z</time><ele>597.4</ele></trkpt><trkpt lat="45.827525" lon="9.429298"><time>2024-03-23T08:15:06.000Z</time><ele>597.4</ele></trkpt><trkpt lat="45.827518" lon="9.429312"><time>2024-03-23T08:15:07.000Z</time><ele>597.4</ele></trkpt><trkpt lat="45.827512" lon="9.429318"><time>2024-03-23T08:15:08.000Z</time><ele>597.4</ele></trkpt><trkpt lat="45.8275" lon="9.429328"><time>2024-03-23T08:15:09.000Z</time><ele>597.4</ele></trkpt><trkpt lat="45.827496" lon="9.429326"><time>2024-03-23T08:15:10.000Z</time><ele>597.4</ele></trkpt><trkpt lat="45.827505" lon="9.429325"><time>2024-03-23T08:15:11.000Z</time><ele>597.4</ele></trkpt><trkpt lat="45.827505" lon="9.429325"><time>2024-03-23T08:15:12.000Z</time><ele>597.4</ele></trkpt><trkpt lat="45.827505" lon="9.429325"><time>2024-03-23T08:15:13.000Z</time><ele>597.4</ele></trkpt><trkpt lat="45.827505" lon="9.429325"><time>2024-03-23T08:15:14.000Z</time><ele>597.4</ele></trkpt><trkpt lat="45.827505" lon="9.429325"><time>2024-03-23T08:15:15.000Z</time><ele>597.4</ele></trkpt><trkpt lat="45.827505" lon="9.429325"><time>2024-03-23T08:15:16.000Z</time><ele>597.4</ele></trkpt><trkpt lat="45.827505" lon="9.429325"><time>2024-03-23T08:15:17.000Z</time><ele>597.4</ele></trkpt><trkpt lat="45.827505" lon="9.429325"><time>2024-03-23T08:15:18.000Z</time><ele>597.4</ele></trkpt><trkpt lat="45.827505" lon="9.429325"><time>2024-03-23T08:15:19.000Z</time><ele>597.4</ele></trkpt><trkpt lat="45.827505" lon="9.429325"><time>2024-03-23T08:15:20.000Z</time><ele>597.4</ele></trkpt><trkpt lat="45.827512" lon="9.429324"><time>2024-03-23T08:15:21.000Z</time><ele>597.4</ele></trkpt><trkpt lat="45.827513" lon="9.429321"><time>2024-03-23T08:15:22.000Z</time><ele>597.4</ele></trkpt><trkpt lat="45.827517" lon="9.429319"><time>2024-03-23T08:15:23.000Z</time><ele>597.4</ele></trkpt><trkpt lat="45.827519" lon="9.429318"><time>2024-03-23T08:15:24.000Z</time><ele>597.4</ele></trkpt><trkpt lat="45.827522" lon="9.429316"><time>2024-03-23T08:15:25.000Z</time><ele>597.4</ele></trkpt><trkpt lat="45.827525" lon="9.429315"><time>2024-03-23T08:15:26.000Z</time><ele>597.4</ele></trkpt><trkpt lat="45.827526" lon="9.429315"><time>2024-03-23T08:15:27.000Z</time><ele>597.4</ele></trkpt><trkpt lat="45.827527" lon="9.429314"><time>2024-03-23T08:15:28.000Z</time><ele>597.4</ele></trkpt><trkpt lat="45.827528" lon="9.429313"><time>2024-03-23T08:15:29.000Z</time><ele>597.4</ele></trkpt><trkpt lat="45.827528" lon="9.429312"><time>2024-03-23T08:15:30.000Z</time><ele>597.4</ele></trkpt><trkpt lat="45.827528" lon="9.429312"><time>2024-03-23T08:15:31.000Z</time><ele>597.4</ele></trkpt><trkpt lat="45.827529" lon="9.42931"><time>2024-03-23T08:15:32.000Z</time><ele>597.4</ele></trkpt><trkpt lat="45.82753" lon="9.42931"><time>2024-03-23T08:15:33.000Z</time><ele>597.4</ele></trkpt><trkpt lat="45.82753" lon="9.42931"><time>2024-03-23T08:15:34.000Z</time><ele>597.4</ele></trkpt><trkpt lat="45.827531" lon="9.42931"><time>2024-03-23T08:15:35.000Z</time><ele>597.4</ele></trkpt><trkpt lat="45.827531" lon="9.42931"><time>2024-03-23T08:15:36.000Z</time><ele>597.4</ele></trkpt><trkpt lat="45.827532" lon="9.429309"><time>2024-03-23T08:15:37.000Z</time><ele>597.4</ele></trkpt><trkpt lat="45.827533" lon="9.429309"><time>2024-03-23T08:15:38.000Z</time><ele>597.4</ele></trkpt><trkpt lat="45.827534" lon="9.429308"><time>2024-03-23T08:15:39.000Z</time><ele>597.4</ele></trkpt><trkpt lat="45.827534" lon="9.429308"><time>2024-03-23T08:15:40.000Z</time><ele>597.4</ele></trkpt><trkpt lat="45.827536" lon="9.429307"><time>2024-03-23T08:15:41.000Z</time><ele>597.4</ele></trkpt><trkpt lat="45.827539" lon="9.429305"><time>2024-03-23T08:15:42.000Z</time><ele>597.4</ele></trkpt><trkpt lat="45.827539" lon="9.429305"><time>2024-03-23T08:15:43.000Z</time><ele>597.4</ele></trkpt><trkpt lat="45.827539" lon="9.429305"><time>2024-03-23T08:15:44.000Z</time><ele>597.4</ele></trkpt><trkpt lat="45.827539" lon="9.429305"><time>2024-03-23T08:15:45.000Z</time><ele>597.4</ele></trkpt><trkpt lat="45.827539" lon="9.429305"><time>2024-03-23T08:15:46.000Z</time><ele>597.4</ele></trkpt><trkpt lat="45.827539" lon="9.429305"><time>2024-03-23T08:15:47.000Z</time><ele>597.4</ele></trkpt><trkpt lat="45.827539" lon="9.429305"><time>2024-03-23T08:15:48.000Z</time><ele>597.4</ele></trkpt><trkpt lat="45.827539" lon="9.429297"><time>2024-03-23T08:15:49.000Z</time><ele>597.4</ele></trkpt><trkpt lat="45.827542" lon="9.429294"><time>2024-03-23T08:15:50.000Z</time><ele>597.4</ele></trkpt><trkpt lat="45.82755" lon="9.429292"><time>2024-03-23T08:15:51.000Z</time><ele>597.4</ele></trkpt><trkpt lat="45.827557" lon="9.429289"><time>2024-03-23T08:15:52.000Z</time><ele>597.4</ele></trkpt><trkpt lat="45.827559" lon="9.429286"><time>2024-03-23T08:15:53.000Z</time><ele>597.4</ele></trkpt><trkpt lat="45.82756" lon="9.429286"><time>2024-03-23T08:15:54.000Z</time><ele>597.4</ele></trkpt><trkpt lat="45.827561" lon="9.429285"><time>2024-03-23T08:15:55.000Z</time><ele>597.4</ele></trkpt><trkpt lat="45.827561" lon="9.429283"><time>2024-03-23T08:15:56.000Z</time><ele>597.4</ele></trkpt><trkpt lat="45.827561" lon="9.429282"><time>2024-03-23T08:15:57.000Z</time><ele>597.4</ele></trkpt><trkpt lat="45.827558" lon="9.429274"><time>2024-03-23T08:15:58.000Z</time><ele>597.4</ele></trkpt><trkpt lat="45.827555" lon="9.429266"><time>2024-03-23T08:15:59.000Z</time><ele>597.4</ele></trkpt><trkpt lat="45.827559" lon="9.429263"><time>2024-03-23T08:16:00.000Z</time><ele>597.4</ele></trkpt><trkpt lat="45.827556" lon="9.429247"><time>2024-03-23T08:16:01.000Z</time><ele>597.4</ele></trkpt><trkpt lat="45.827554" lon="9.42924"><time>2024-03-23T08:16:02.000Z</time><ele>597.4</ele></trkpt><trkpt lat="45.827556" lon="9.429239"><time>2024-03-23T08:16:03.000Z</time><ele>597.4</ele></trkpt><trkpt lat="45.827557" lon="9.429235"><time>2024-03-23T08:16:04.000Z</time><ele>597.4</ele></trkpt><trkpt lat="45.827558" lon="9.42923"><time>2024-03-23T08:16:05.000Z</time><ele>597.4</ele></trkpt><trkpt lat="45.827559" lon="9.429223"><time>2024-03-23T08:16:06.000Z</time><ele>597.4</ele></trkpt><trkpt lat="45.827561" lon="9.429216"><time>2024-03-23T08:16:07.000Z</time><ele>597.4</ele></trkpt><trkpt lat="45.827557" lon="9.429219"><time>2024-03-23T08:16:08.000Z</time><ele>597.4</ele></trkpt><trkpt lat="45.827559" lon="9.429225"><time>2024-03-23T08:16:09.000Z</time><ele>597.4</ele></trkpt><trkpt lat="45.827559" lon="9.429225"><time>2024-03-23T08:16:10.000Z</time><ele>597.4</ele></trkpt><trkpt lat="45.827559" lon="9.429225"><time>2024-03-23T08:16:11.000Z</time><ele>597.4</ele></trkpt><trkpt lat="45.827559" lon="9.429225"><time>2024-03-23T08:16:12.000Z</time><ele>597.4</ele></trkpt><trkpt lat="45.827559" lon="9.429225"><time>2024-03-23T08:16:13.000Z</time><ele>597.4</ele></trkpt><trkpt lat="45.827559" lon="9.429225"><time>2024-03-23T08:16:14.000Z</time><ele>597.4</ele></trkpt><trkpt lat="45.827559" lon="9.429225"><time>2024-03-23T08:16:15.000Z</time><ele>597.4</ele></trkpt><trkpt lat="45.827559" lon="9.429225"><time>2024-03-23T08:16:16.000Z</time><ele>597.4</ele></trkpt><trkpt lat="45.827559" lon="9.429225"><time>2024-03-23T08:16:17.000Z</time><ele>597.4</ele></trkpt><trkpt lat="45.827559" lon="9.429225"><time>2024-03-23T08:16:18.000Z</time><ele>597.4</ele></trkpt><trkpt lat="45.827559" lon="9.429225"><time>2024-03-23T08:16:19.000Z</time><ele>597.4</ele></trkpt><trkpt lat="45.827559" lon="9.429225"><time>2024-03-23T08:16:20.000Z</time><ele>597.4</ele></trkpt><trkpt lat="45.827559" lon="9.429225"><time>2024-03-23T08:16:21.000Z</time><ele>597.4</ele></trkpt><trkpt lat="45.827559" lon="9.429225"><time>2024-03-23T08:16:22.000Z</time><ele>597.4</ele></trkpt><trkpt lat="45.827559" lon="9.429225"><time>2024-03-23T08:16:23.000Z</time><ele>597.4</ele></trkpt><trkpt lat="45.827559" lon="9.429225"><time>2024-03-23T08:16:24.000Z</time><ele>597.4</ele></trkpt><trkpt lat="45.827559" lon="9.429225"><time>2024-03-23T08:16:25.000Z</time><ele>597.4</ele></trkpt><trkpt lat="45.827559" lon="9.429225"><time>2024-03-23T08:16:26.000Z</time><ele>597.4</ele></trkpt><trkpt lat="45.827559" lon="9.429225"><time>2024-03-23T08:16:27.000Z</time><ele>597.4</ele></trkpt><trkpt lat="45.827559" lon="9.429225"><time>2024-03-23T08:16:28.000Z</time><ele>597.4</ele></trkpt><trkpt lat="45.827559" lon="9.429225"><time>2024-03-23T08:16:29.000Z</time><ele>597.4</ele></trkpt><trkpt lat="45.827556" lon="9.429227"><time>2024-03-23T08:16:30.000Z</time><ele>597.4</ele></trkpt><trkpt lat="45.827552" lon="9.429239"><time>2024-03-23T08:16:31.000Z</time><ele>597.4</ele></trkpt><trkpt lat="45.827546" lon="9.429249"><time>2024-03-23T08:16:32.000Z</time><ele>597.4</ele></trkpt><trkpt lat="45.82754" lon="9.429259"><time>2024-03-23T08:16:33.000Z</time><ele>597.4</ele></trkpt><trkpt lat="45.827673" lon="9.429377"><time>2024-03-23T08:16:37.000Z</time><ele>597.4</ele></trkpt><trkpt lat="45.827771" lon="9.429453"><time>2024-03-23T08:16:40.000Z</time><ele>597.4</ele></trkpt><trkpt lat="45.828084" lon="9.429626"><time>2024-03-23T08:16:52.000Z</time><ele>597.4</ele></trkpt><trkpt lat="45.827971" lon="9.429564"><time>2024-03-23T08:16:55.000Z</time><ele>597.4</ele></trkpt><trkpt lat="45.82792" lon="9.429528"><time>2024-03-23T08:16:56.000Z</time><ele>597.4</ele></trkpt><trkpt lat="45.827314" lon="9.429401"><time>2024-03-23T08:23:31.000Z</time><ele>597.4</ele></trkpt><trkpt lat="45.827226" lon="9.429293"><time>2024-03-23T08:23:32.000Z</time><ele>598</ele></trkpt><trkpt lat="45.827218" lon="9.429283"><time>2024-03-23T08:23:33.000Z</time><ele>598.2</ele></trkpt><trkpt lat="45.82725" lon="9.429315"><time>2024-03-23T08:23:34.000Z</time><ele>598.4</ele></trkpt><trkpt lat="45.827267" lon="9.429346"><time>2024-03-23T08:23:35.000Z</time><ele>598.4</ele></trkpt><trkpt lat="45.827317" lon="9.429395"><time>2024-03-23T08:23:36.000Z</time><ele>598.4</ele></trkpt><trkpt lat="45.827361" lon="9.429436"><time>2024-03-23T08:23:37.000Z</time><ele>598.4</ele></trkpt><trkpt lat="45.827423" lon="9.429481"><time>2024-03-23T08:23:38.000Z</time><ele>598.6</ele></trkpt><trkpt lat="45.827444" lon="9.429506"><time>2024-03-23T08:23:39.000Z</time><ele>598.6</ele></trkpt><trkpt lat="45.827473" lon="9.429521"><time>2024-03-23T08:23:40.000Z</time><ele>598.6</ele></trkpt><trkpt lat="45.827511" lon="9.429548"><time>2024-03-23T08:23:41.000Z</time><ele>598.6</ele></trkpt><trkpt lat="45.827565" lon="9.42958"><time>2024-03-23T08:23:42.000Z</time><ele>598.6</ele></trkpt><trkpt lat="45.827599" lon="9.429609"><time>2024-03-23T08:23:43.000Z</time><ele>598.6</ele></trkpt><trkpt lat="45.827627" lon="9.42963"><time>2024-03-23T08:23:44.000Z</time><ele>598.6</ele></trkpt><trkpt lat="45.827659" lon="9.429651"><time>2024-03-23T08:23:45.000Z</time><ele>598.6</ele></trkpt><trkpt lat="45.827686" lon="9.429662"><time>2024-03-23T08:23:46.000Z</time><ele>598.6</ele></trkpt><trkpt lat="45.827703" lon="9.429671"><time>2024-03-23T08:23:47.000Z</time><ele>598.6</ele></trkpt><trkpt lat="45.827727" lon="9.429678"><time>2024-03-23T08:23:48.000Z</time><ele>598.6</ele></trkpt><trkpt lat="45.827728" lon="9.429663"><time>2024-03-23T08:23:49.000Z</time><ele>598.6</ele></trkpt><trkpt lat="45.827737" lon="9.429663"><time>2024-03-23T08:23:50.000Z</time><ele>598.6</ele></trkpt><trkpt lat="45.827722" lon="9.429643"><time>2024-03-23T08:23:51.000Z</time><ele>598.6</ele></trkpt><trkpt lat="45.827727" lon="9.429651"><time>2024-03-23T08:23:52.000Z</time><ele>598.6</ele></trkpt><trkpt lat="45.827734" lon="9.429661"><time>2024-03-23T08:23:53.000Z</time><ele>598.6</ele></trkpt><trkpt lat="45.827762" lon="9.429687"><time>2024-03-23T08:23:54.000Z</time><ele>598.6</ele></trkpt><trkpt lat="45.827758" lon="9.42968"><time>2024-03-23T08:23:55.000Z</time><ele>598.6</ele></trkpt><trkpt lat="45.827757" lon="9.429686"><time>2024-03-23T08:23:56.000Z</time><ele>598.6</ele></trkpt><trkpt lat="45.827759" lon="9.429699"><time>2024-03-23T08:23:57.000Z</time><ele>598.6</ele></trkpt><trkpt lat="45.827785" lon="9.429724"><time>2024-03-23T08:23:58.000Z</time><ele>598.8</ele></trkpt><trkpt lat="45.82779" lon="9.429735"><time>2024-03-23T08:23:59.000Z</time><ele>598.8</ele></trkpt><trkpt lat="45.82779" lon="9.429734"><time>2024-03-23T08:24:00.000Z</time><ele>598.8</ele></trkpt><trkpt lat="45.827788" lon="9.429732"><time>2024-03-23T08:24:01.000Z</time><ele>598.8</ele></trkpt><trkpt lat="45.827786" lon="9.42973"><time>2024-03-23T08:24:02.000Z</time><ele>598.8</ele></trkpt><trkpt lat="45.827792" lon="9.429732"><time>2024-03-23T08:24:03.000Z</time><ele>598.8</ele></trkpt><trkpt lat="45.827802" lon="9.429736"><time>2024-03-23T08:24:04.000Z</time><ele>598.8</ele></trkpt><trkpt lat="45.827805" lon="9.42974"><time>2024-03-23T08:24:05.000Z</time><ele>598.8</ele></trkpt><trkpt lat="45.827813" lon="9.42974"><time>2024-03-23T08:24:06.000Z</time><ele>598.8</ele></trkpt><trkpt lat="45.827834" lon="9.429754"><time>2024-03-23T08:24:07.000Z</time><ele>598.8</ele></trkpt><trkpt lat="45.827848" lon="9.429765"><time>2024-03-23T08:24:08.000Z</time><ele>598.8</ele></trkpt><trkpt lat="45.827863" lon="9.429777"><time>2024-03-23T08:24:09.000Z</time><ele>598.8</ele></trkpt><trkpt lat="45.827872" lon="9.429786"><time>2024-03-23T08:24:10.000Z</time><ele>599</ele></trkpt><trkpt lat="45.827879" lon="9.429789"><time>2024-03-23T08:24:11.000Z</time><ele>599</ele></trkpt><trkpt lat="45.827886" lon="9.429791"><time>2024-03-23T08:24:12.000Z</time><ele>599</ele></trkpt><trkpt lat="45.827873" lon="9.429775"><time>2024-03-23T08:24:13.000Z</time><ele>599.2</ele></trkpt><trkpt lat="45.827867" lon="9.429764"><time>2024-03-23T08:24:14.000Z</time><ele>599.2</ele></trkpt><trkpt lat="45.827863" lon="9.429759"><time>2024-03-23T08:24:15.000Z</time><ele>599.4</ele></trkpt><trkpt lat="45.827875" lon="9.429772"><time>2024-03-23T08:24:16.000Z</time><ele>599.4</ele></trkpt><trkpt lat="45.827877" lon="9.429779"><time>2024-03-23T08:24:17.000Z</time><ele>599.4</ele></trkpt><trkpt lat="45.827884" lon="9.429789"><time>2024-03-23T08:24:18.000Z</time><ele>599.4</ele></trkpt><trkpt lat="45.827892" lon="9.429798"><time>2024-03-23T08:24:19.000Z</time><ele>599.6</ele></trkpt><trkpt lat="45.827893" lon="9.429796"><time>2024-03-23T08:24:20.000Z</time><ele>599.6</ele></trkpt><trkpt lat="45.827908" lon="9.429809"><time>2024-03-23T08:24:22.000Z</time><ele>599.6</ele></trkpt><trkpt lat="45.827916" lon="9.429818"><time>2024-03-23T08:24:23.000Z</time><ele>599.4</ele></trkpt><trkpt lat="45.827927" lon="9.429828"><time>2024-03-23T08:24:24.000Z</time><ele>599.4</ele></trkpt><trkpt lat="45.827939" lon="9.429837"><time>2024-03-23T08:24:25.000Z</time><ele>599.4</ele></trkpt><trkpt lat="45.827938" lon="9.429836"><time>2024-03-23T08:24:26.000Z</time><ele>599.4</ele></trkpt><trkpt lat="45.827935" lon="9.429835"><time>2024-03-23T08:24:27.000Z</time><ele>599.2</ele></trkpt><trkpt lat="45.827935" lon="9.429836"><time>2024-03-23T08:24:28.000Z</time><ele>599.2</ele></trkpt><trkpt lat="45.827932" lon="9.429835"><time>2024-03-23T08:24:29.000Z</time><ele>599.2</ele></trkpt><trkpt lat="45.827931" lon="9.429837"><time>2024-03-23T08:24:30.000Z</time><ele>599.2</ele></trkpt><trkpt lat="45.827931" lon="9.429838"><time>2024-03-23T08:24:31.000Z</time><ele>599</ele></trkpt><trkpt lat="45.82792" lon="9.429822"><time>2024-03-23T08:24:32.000Z</time><ele>599.2</ele></trkpt><trkpt lat="45.827914" lon="9.429817"><time>2024-03-23T08:24:33.000Z</time><ele>599.2</ele></trkpt><trkpt lat="45.827915" lon="9.429815"><time>2024-03-23T08:24:34.000Z</time><ele>599.2</ele></trkpt><trkpt lat="45.827921" lon="9.429818"><time>2024-03-23T08:24:35.000Z</time><ele>599.2</ele></trkpt><trkpt lat="45.827923" lon="9.42982"><time>2024-03-23T08:24:36.000Z</time><ele>599.2</ele></trkpt><trkpt lat="45.827925" lon="9.429822"><time>2024-03-23T08:24:37.000Z</time><ele>599.2</ele></trkpt><trkpt lat="45.827926" lon="9.429822"><time>2024-03-23T08:24:38.000Z</time><ele>599.2</ele></trkpt><trkpt lat="45.827925" lon="9.429824"><time>2024-03-23T08:24:39.000Z</time><ele>599.2</ele></trkpt><trkpt lat="45.827927" lon="9.42983"><time>2024-03-23T08:24:40.000Z</time><ele>599.4</ele></trkpt><trkpt lat="45.82792" lon="9.429829"><time>2024-03-23T08:24:41.000Z</time><ele>599.4</ele></trkpt><trkpt lat="45.827905" lon="9.429823"><time>2024-03-23T08:24:42.000Z</time><ele>599.4</ele></trkpt><trkpt lat="45.8279" lon="9.429818"><time>2024-03-23T08:24:43.000Z</time><ele>599.4</ele></trkpt><trkpt lat="45.827891" lon="9.42981"><time>2024-03-23T08:24:44.000Z</time><ele>599.8</ele></trkpt><trkpt lat="45.827889" lon="9.429804"><time>2024-03-23T08:24:45.000Z</time><ele>600</ele></trkpt><trkpt lat="45.827885" lon="9.429802"><time>2024-03-23T08:24:46.000Z</time><ele>600.4</ele></trkpt><trkpt lat="45.827877" lon="9.429801"><time>2024-03-23T08:24:47.000Z</time><ele>600.6</ele></trkpt><trkpt lat="45.827871" lon="9.429804"><time>2024-03-23T08:24:48.000Z</time><ele>600.8</ele></trkpt><trkpt lat="45.827859" lon="9.429803"><time>2024-03-23T08:24:49.000Z</time><ele>601</ele></trkpt><trkpt lat="45.827854" lon="9.429789"><time>2024-03-23T08:24:50.000Z</time><ele>601</ele></trkpt><trkpt lat="45.827847" lon="9.42978"><time>2024-03-23T08:24:51.000Z</time><ele>601.4</ele></trkpt><trkpt lat="45.827844" lon="9.429782"><time>2024-03-23T08:24:52.000Z</time><ele>601.6</ele></trkpt><trkpt lat="45.827839" lon="9.429786"><time>2024-03-23T08:24:53.000Z</time><ele>601.8</ele></trkpt><trkpt lat="45.827824" lon="9.429787"><time>2024-03-23T08:24:54.000Z</time><ele>601.8</ele></trkpt><trkpt lat="45.827813" lon="9.429781"><time>2024-03-23T08:24:55.000Z</time><ele>602.2</ele></trkpt><trkpt lat="45.827801" lon="9.429765"><time>2024-03-23T08:24:56.000Z</time><ele>602.2</ele></trkpt><trkpt lat="45.827793" lon="9.429768"><time>2024-03-23T08:24:57.000Z</time><ele>602.4</ele></trkpt><trkpt lat="45.827793" lon="9.429769"><time>2024-03-23T08:24:58.000Z</time><ele>602.4</ele></trkpt><trkpt lat="45.827796" lon="9.429774"><time>2024-03-23T08:24:59.000Z</time><ele>602.4</ele></trkpt><trkpt lat="45.827799" lon="9.42978"><time>2024-03-23T08:25:00.000Z</time><ele>602.6</ele></trkpt><trkpt lat="45.827802" lon="9.429785"><time>2024-03-23T08:25:01.000Z</time><ele>602.6</ele></trkpt><trkpt lat="45.827802" lon="9.42979"><time>2024-03-23T08:25:02.000Z</time><ele>602.6</ele></trkpt><trkpt lat="45.827799" lon="9.429789"><time>2024-03-23T08:25:03.000Z</time><ele>602.6</ele></trkpt><trkpt lat="45.827797" lon="9.429789"><time>2024-03-23T08:25:04.000Z</time><ele>602.8</ele></trkpt><trkpt lat="45.827797" lon="9.429779"><time>2024-03-23T08:25:05.000Z</time><ele>603</ele></trkpt><trkpt lat="45.827793" lon="9.429773"><time>2024-03-23T08:25:06.000Z</time><ele>603.2</ele></trkpt><trkpt lat="45.82779" lon="9.429777"><time>2024-03-23T08:25:07.000Z</time><ele>603.2</ele></trkpt><trkpt lat="45.827785" lon="9.429778"><time>2024-03-23T08:25:08.000Z</time><ele>603.2</ele></trkpt><trkpt lat="45.82778" lon="9.429782"><time>2024-03-23T08:25:09.000Z</time><ele>603.2</ele></trkpt><trkpt lat="45.827774" lon="9.429785"><time>2024-03-23T08:25:10.000Z</time><ele>603.2</ele></trkpt><trkpt lat="45.827772" lon="9.42979"><time>2024-03-23T08:25:11.000Z</time><ele>603.2</ele></trkpt><trkpt lat="45.827772" lon="9.429796"><time>2024-03-23T08:25:12.000Z</time><ele>603.2</ele></trkpt><trkpt lat="45.827774" lon="9.429803"><time>2024-03-23T08:25:13.000Z</time><ele>603.2</ele></trkpt><trkpt lat="45.827775" lon="9.429808"><time>2024-03-23T08:25:14.000Z</time><ele>603.4</ele></trkpt><trkpt lat="45.827772" lon="9.429807"><time>2024-03-23T08:25:15.000Z</time><ele>603.4</ele></trkpt><trkpt lat="45.827766" lon="9.4298"><time>2024-03-23T08:25:16.000Z</time><ele>603.4</ele></trkpt><trkpt lat="45.827754" lon="9.429786"><time>2024-03-23T08:25:17.000Z</time><ele>603.4</ele></trkpt><trkpt lat="45.827745" lon="9.429779"><time>2024-03-23T08:25:18.000Z</time><ele>603.6</ele></trkpt><trkpt lat="45.827741" lon="9.429776"><time>2024-03-23T08:25:19.000Z</time><ele>603.6</ele></trkpt><trkpt lat="45.827738" lon="9.429778"><time>2024-03-23T08:25:20.000Z</time><ele>603.6</ele></trkpt><trkpt lat="45.82775" lon="9.429785"><time>2024-03-23T08:25:21.000Z</time><ele>603.8</ele></trkpt><trkpt lat="45.827747" lon="9.429778"><time>2024-03-23T08:25:22.000Z</time><ele>603.8</ele></trkpt><trkpt lat="45.827746" lon="9.429775"><time>2024-03-23T08:25:23.000Z</time><ele>603.8</ele></trkpt><trkpt lat="45.827752" lon="9.429782"><time>2024-03-23T08:25:24.000Z</time><ele>603.8</ele></trkpt><trkpt lat="45.82777" lon="9.429791"><time>2024-03-23T08:25:25.000Z</time><ele>603.8</ele></trkpt><trkpt lat="45.827792" lon="9.429805"><time>2024-03-23T08:25:26.000Z</time><ele>603.8</ele></trkpt><trkpt lat="45.8278" lon="9.429814"><time>2024-03-23T08:25:27.000Z</time><ele>603.8</ele></trkpt><trkpt lat="45.827802" lon="9.429822"><time>2024-03-23T08:25:28.000Z</time><ele>603.8</ele></trkpt><trkpt lat="45.827799" lon="9.429821"><time>2024-03-23T08:25:29.000Z</time><ele>603.8</ele></trkpt><trkpt lat="45.827795" lon="9.42982"><time>2024-03-23T08:25:30.000Z</time><ele>603.8</ele></trkpt><trkpt lat="45.827798" lon="9.429821"><time>2024-03-23T08:25:31.000Z</time><ele>603.8</ele></trkpt><trkpt lat="45.827796" lon="9.429817"><time>2024-03-23T08:25:32.000Z</time><ele>604</ele></trkpt><trkpt lat="45.827791" lon="9.429816"><time>2024-03-23T08:25:33.000Z</time><ele>604</ele></trkpt><trkpt lat="45.827787" lon="9.42982"><time>2024-03-23T08:25:34.000Z</time><ele>604</ele></trkpt><trkpt lat="45.827788" lon="9.429831"><time>2024-03-23T08:25:35.000Z</time><ele>604</ele></trkpt><trkpt lat="45.827787" lon="9.42984"><time>2024-03-23T08:25:36.000Z</time><ele>604.2</ele></trkpt><trkpt lat="45.827787" lon="9.429846"><time>2024-03-23T08:25:37.000Z</time><ele>604.4</ele></trkpt><trkpt lat="45.827793" lon="9.429855"><time>2024-03-23T08:25:38.000Z</time><ele>604.4</ele></trkpt><trkpt lat="45.827794" lon="9.429858"><time>2024-03-23T08:25:39.000Z</time><ele>604.4</ele></trkpt><trkpt lat="45.8278" lon="9.429868"><time>2024-03-23T08:25:40.000Z</time><ele>604.6</ele></trkpt><trkpt lat="45.827802" lon="9.429872"><time>2024-03-23T08:25:41.000Z</time><ele>604.8</ele></trkpt><trkpt lat="45.827803" lon="9.429873"><time>2024-03-23T08:25:42.000Z</time><ele>605</ele></trkpt><trkpt lat="45.827807" lon="9.42988"><time>2024-03-23T08:25:43.000Z</time><ele>605</ele></trkpt><trkpt lat="45.827808" lon="9.429885"><time>2024-03-23T08:25:44.000Z</time><ele>605.2</ele></trkpt><trkpt lat="45.827811" lon="9.429891"><time>2024-03-23T08:25:45.000Z</time><ele>605.4</ele></trkpt><trkpt lat="45.827813" lon="9.429895"><time>2024-03-23T08:25:46.000Z</time><ele>605.4</ele></trkpt><trkpt lat="45.827814" lon="9.429894"><time>2024-03-23T08:25:47.000Z</time><ele>605.6</ele></trkpt><trkpt lat="45.827811" lon="9.429893"><time>2024-03-23T08:25:48.000Z</time><ele>605.6</ele></trkpt><trkpt lat="45.827813" lon="9.429897"><time>2024-03-23T08:25:49.000Z</time><ele>605.8</ele></trkpt><trkpt lat="45.827821" lon="9.429906"><time>2024-03-23T08:25:50.000Z</time><ele>605.8</ele></trkpt><trkpt lat="45.827826" lon="9.429911"><time>2024-03-23T08:25:51.000Z</time><ele>605.8</ele></trkpt><trkpt lat="45.827828" lon="9.429911"><time>2024-03-23T08:25:52.000Z</time><ele>605.8</ele></trkpt><trkpt lat="45.827823" lon="9.429905"><time>2024-03-23T08:25:53.000Z</time><ele>606</ele></trkpt><trkpt lat="45.827818" lon="9.429896"><time>2024-03-23T08:25:54.000Z</time><ele>606</ele></trkpt><trkpt lat="45.827815" lon="9.429891"><time>2024-03-23T08:25:55.000Z</time><ele>606</ele></trkpt><trkpt lat="45.827814" lon="9.429887"><time>2024-03-23T08:25:56.000Z</time><ele>606.2</ele></trkpt><trkpt lat="45.827805" lon="9.429873"><time>2024-03-23T08:25:57.000Z</time><ele>606.2</ele></trkpt><trkpt lat="45.827811" lon="9.429879"><time>2024-03-23T08:25:58.000Z</time><ele>606.2</ele></trkpt><trkpt lat="45.82781" lon="9.429874"><time>2024-03-23T08:25:59.000Z</time><ele>606.2</ele></trkpt><trkpt lat="45.827815" lon="9.429874"><time>2024-03-23T08:26:00.000Z</time><ele>606.4</ele></trkpt><trkpt lat="45.827823" lon="9.429881"><time>2024-03-23T08:26:01.000Z</time><ele>606.4</ele></trkpt><trkpt lat="45.827833" lon="9.429889"><time>2024-03-23T08:26:02.000Z</time><ele>606.4</ele></trkpt><trkpt lat="45.82784" lon="9.429896"><time>2024-03-23T08:26:03.000Z</time><ele>606.4</ele></trkpt><trkpt lat="45.827847" lon="9.429902"><time>2024-03-23T08:26:04.000Z</time><ele>606.6</ele></trkpt><trkpt lat="45.827846" lon="9.429903"><time>2024-03-23T08:26:05.000Z</time><ele>606.6</ele></trkpt><trkpt lat="45.827849" lon="9.429909"><time>2024-03-23T08:26:06.000Z</time><ele>607</ele></trkpt><trkpt lat="45.827852" lon="9.429912"><time>2024-03-23T08:26:07.000Z</time><ele>607.2</ele></trkpt><trkpt lat="45.827852" lon="9.429914"><time>2024-03-23T08:26:08.000Z</time><ele>607.6</ele></trkpt><trkpt lat="45.827858" lon="9.42993"><time>2024-03-23T08:26:09.000Z</time><ele>607.8</ele></trkpt><trkpt lat="45.827856" lon="9.429934"><time>2024-03-23T08:26:10.000Z</time><ele>607.8</ele></trkpt><trkpt lat="45.82785" lon="9.429935"><time>2024-03-23T08:26:11.000Z</time><ele>608</ele></trkpt><trkpt lat="45.827842" lon="9.429932"><time>2024-03-23T08:26:12.000Z</time><ele>608.2</ele></trkpt><trkpt lat="45.827843" lon="9.429938"><time>2024-03-23T08:26:13.000Z</time><ele>608.4</ele></trkpt><trkpt lat="45.827834" lon="9.42993"><time>2024-03-23T08:26:14.000Z</time><ele>608.6</ele></trkpt><trkpt lat="45.827827" lon="9.429925"><time>2024-03-23T08:26:15.000Z</time><ele>608.6</ele></trkpt><trkpt lat="45.827818" lon="9.429929"><time>2024-03-23T08:26:16.000Z</time><ele>608.8</ele></trkpt><trkpt lat="45.827814" lon="9.42994"><time>2024-03-23T08:26:17.000Z</time><ele>608.8</ele></trkpt><trkpt lat="45.827823" lon="9.42995"><time>2024-03-23T08:26:18.000Z</time><ele>609</ele></trkpt><trkpt lat="45.827837" lon="9.429964"><time>2024-03-23T08:26:19.000Z</time><ele>609.2</ele></trkpt><trkpt lat="45.827852" lon="9.429977"><time>2024-03-23T08:26:20.000Z</time><ele>609.4</ele></trkpt><trkpt lat="45.827868" lon="9.429993"><time>2024-03-23T08:26:21.000Z</time><ele>609.4</ele></trkpt><trkpt lat="45.827877" lon="9.430006"><time>2024-03-23T08:26:22.000Z</time><ele>609.6</ele></trkpt><trkpt lat="45.827883" lon="9.430018"><time>2024-03-23T08:26:23.000Z</time><ele>609.6</ele></trkpt><trkpt lat="45.827886" lon="9.430026"><time>2024-03-23T08:26:24.000Z</time><ele>609.6</ele></trkpt><trkpt lat="45.827886" lon="9.430031"><time>2024-03-23T08:26:25.000Z</time><ele>609.8</ele></trkpt><trkpt lat="45.827889" lon="9.430031"><time>2024-03-23T08:26:26.000Z</time><ele>610</ele></trkpt><trkpt lat="45.827894" lon="9.430034"><time>2024-03-23T08:26:27.000Z</time><ele>610</ele></trkpt><trkpt lat="45.827898" lon="9.430037"><time>2024-03-23T08:26:28.000Z</time><ele>610.2</ele></trkpt><trkpt lat="45.827905" lon="9.430044"><time>2024-03-23T08:26:29.000Z</time><ele>610.4</ele></trkpt><trkpt lat="45.827912" lon="9.430052"><time>2024-03-23T08:26:30.000Z</time><ele>610.6</ele></trkpt><trkpt lat="45.827918" lon="9.430064"><time>2024-03-23T08:26:31.000Z</time><ele>610.8</ele></trkpt><trkpt lat="45.827923" lon="9.430072"><time>2024-03-23T08:26:32.000Z</time><ele>611</ele></trkpt><trkpt lat="45.827929" lon="9.430078"><time>2024-03-23T08:26:33.000Z</time><ele>611.2</ele></trkpt><trkpt lat="45.827934" lon="9.430083"><time>2024-03-23T08:26:34.000Z</time><ele>611.4</ele></trkpt><trkpt lat="45.827938" lon="9.430088"><time>2024-03-23T08:26:35.000Z</time><ele>611.6</ele></trkpt><trkpt lat="45.827948" lon="9.43009"><time>2024-03-23T08:26:36.000Z</time><ele>611.8</ele></trkpt><trkpt lat="45.827957" lon="9.430092"><time>2024-03-23T08:26:37.000Z</time><ele>612.2</ele></trkpt><trkpt lat="45.82796" lon="9.430091"><time>2024-03-23T08:26:38.000Z</time><ele>612.4</ele></trkpt><trkpt lat="45.827967" lon="9.43009"><time>2024-03-23T08:26:39.000Z</time><ele>612.6</ele></trkpt><trkpt lat="45.82797" lon="9.430093"><time>2024-03-23T08:26:40.000Z</time><ele>612.6</ele></trkpt><trkpt lat="45.827969" lon="9.430097"><time>2024-03-23T08:26:41.000Z</time><ele>612.6</ele></trkpt><trkpt lat="45.827972" lon="9.430102"><time>2024-03-23T08:26:42.000Z</time><ele>612.6</ele></trkpt><trkpt lat="45.827973" lon="9.430101"><time>2024-03-23T08:26:43.000Z</time><ele>612.8</ele></trkpt><trkpt lat="45.827976" lon="9.430104"><time>2024-03-23T08:26:44.000Z</time><ele>612.8</ele></trkpt><trkpt lat="45.827982" lon="9.430108"><time>2024-03-23T08:26:45.000Z</time><ele>613</ele></trkpt><trkpt lat="45.827985" lon="9.430116"><time>2024-03-23T08:26:46.000Z</time><ele>613.2</ele></trkpt><trkpt lat="45.827985" lon="9.430114"><time>2024-03-23T08:26:47.000Z</time><ele>613.4</ele></trkpt><trkpt lat="45.827989" lon="9.430119"><time>2024-03-23T08:26:48.000Z</time><ele>613.6</ele></trkpt><trkpt lat="45.827999" lon="9.430128"><time>2024-03-23T08:26:49.000Z</time><ele>613.6</ele></trkpt><trkpt lat="45.828007" lon="9.430138"><time>2024-03-23T08:26:50.000Z</time><ele>613.8</ele></trkpt><trkpt lat="45.82801" lon="9.430142"><time>2024-03-23T08:26:51.000Z</time><ele>614</ele></trkpt><trkpt lat="45.828005" lon="9.430148"><time>2024-03-23T08:26:52.000Z</time><ele>614.2</ele></trkpt><trkpt lat="45.828002" lon="9.430157"><time>2024-03-23T08:26:53.000Z</time><ele>614.4</ele></trkpt><trkpt lat="45.828004" lon="9.430165"><time>2024-03-23T08:26:54.000Z</time><ele>614.6</ele></trkpt><trkpt lat="45.828005" lon="9.430167"><time>2024-03-23T08:26:55.000Z</time><ele>614.8</ele></trkpt><trkpt lat="45.828006" lon="9.43018"><time>2024-03-23T08:26:56.000Z</time><ele>615</ele></trkpt><trkpt lat="45.828009" lon="9.430186"><time>2024-03-23T08:26:57.000Z</time><ele>615.2</ele></trkpt><trkpt lat="45.828014" lon="9.430196"><time>2024-03-23T08:26:58.000Z</time><ele>615.6</ele></trkpt><trkpt lat="45.828022" lon="9.4302"><time>2024-03-23T08:26:59.000Z</time><ele>615.6</ele></trkpt><trkpt lat="45.828029" lon="9.430199"><time>2024-03-23T08:27:00.000Z</time><ele>615.8</ele></trkpt><trkpt lat="45.828033" lon="9.430204"><time>2024-03-23T08:27:01.000Z</time><ele>616</ele></trkpt><trkpt lat="45.828034" lon="9.430209"><time>2024-03-23T08:27:02.000Z</time><ele>616.2</ele></trkpt><trkpt lat="45.82803" lon="9.430207"><time>2024-03-23T08:27:03.000Z</time><ele>616.4</ele></trkpt><trkpt lat="45.828029" lon="9.430213"><time>2024-03-23T08:27:04.000Z</time><ele>616.6</ele></trkpt><trkpt lat="45.828021" lon="9.430203"><time>2024-03-23T08:27:05.000Z</time><ele>616.8</ele></trkpt><trkpt lat="45.828017" lon="9.430203"><time>2024-03-23T08:27:06.000Z</time><ele>616.8</ele></trkpt><trkpt lat="45.828027" lon="9.430217"><time>2024-03-23T08:27:07.000Z</time><ele>617</ele></trkpt><trkpt lat="45.828038" lon="9.430239"><time>2024-03-23T08:27:08.000Z</time><ele>617.2</ele></trkpt><trkpt lat="45.828053" lon="9.430255"><time>2024-03-23T08:27:09.000Z</time><ele>617.4</ele></trkpt><trkpt lat="45.828069" lon="9.43027"><time>2024-03-23T08:27:10.000Z</time><ele>617.6</ele></trkpt><trkpt lat="45.828074" lon="9.430279"><time>2024-03-23T08:27:11.000Z</time><ele>617.8</ele></trkpt><trkpt lat="45.828078" lon="9.430288"><time>2024-03-23T08:27:12.000Z</time><ele>617.8</ele></trkpt><trkpt lat="45.828079" lon="9.430288"><time>2024-03-23T08:27:13.000Z</time><ele>618</ele></trkpt><trkpt lat="45.82808" lon="9.430289"><time>2024-03-23T08:27:14.000Z</time><ele>618.2</ele></trkpt><trkpt lat="45.828084" lon="9.430291"><time>2024-03-23T08:27:15.000Z</time><ele>618.6</ele></trkpt><trkpt lat="45.828089" lon="9.430292"><time>2024-03-23T08:27:16.000Z</time><ele>618.8</ele></trkpt><trkpt lat="45.828094" lon="9.430296"><time>2024-03-23T08:27:17.000Z</time><ele>619</ele></trkpt><trkpt lat="45.828099" lon="9.430303"><time>2024-03-23T08:27:18.000Z</time><ele>619.2</ele></trkpt><trkpt lat="45.828104" lon="9.430312"><time>2024-03-23T08:27:19.000Z</time><ele>619.2</ele></trkpt><trkpt lat="45.828103" lon="9.430315"><time>2024-03-23T08:27:20.000Z</time><ele>619.4</ele></trkpt><trkpt lat="45.828101" lon="9.430315"><time>2024-03-23T08:27:21.000Z</time><ele>619.6</ele></trkpt><trkpt lat="45.828105" lon="9.430317"><time>2024-03-23T08:27:22.000Z</time><ele>620</ele></trkpt><trkpt lat="45.828108" lon="9.430313"><time>2024-03-23T08:27:23.000Z</time><ele>620.2</ele></trkpt><trkpt lat="45.828115" lon="9.430315"><time>2024-03-23T08:27:24.000Z</time><ele>620.2</ele></trkpt><trkpt lat="45.828122" lon="9.43032"><time>2024-03-23T08:27:25.000Z</time><ele>620.4</ele></trkpt><trkpt lat="45.828125" lon="9.430324"><time>2024-03-23T08:27:26.000Z</time><ele>620.6</ele></trkpt><trkpt lat="45.828126" lon="9.430331"><time>2024-03-23T08:27:27.000Z</time><ele>620.8</ele></trkpt><trkpt lat="45.828132" lon="9.430343"><time>2024-03-23T08:27:28.000Z</time><ele>621</ele></trkpt><trkpt lat="45.828134" lon="9.430348"><time>2024-03-23T08:27:29.000Z</time><ele>621.2</ele></trkpt><trkpt lat="45.828135" lon="9.430346"><time>2024-03-23T08:27:30.000Z</time><ele>621.4</ele></trkpt><trkpt lat="45.828135" lon="9.430344"><time>2024-03-23T08:27:31.000Z</time><ele>621.6</ele></trkpt><trkpt lat="45.828142" lon="9.430351"><time>2024-03-23T08:27:32.000Z</time><ele>621.8</ele></trkpt><trkpt lat="45.828148" lon="9.430363"><time>2024-03-23T08:27:33.000Z</time><ele>622</ele></trkpt><trkpt lat="45.828151" lon="9.430369"><time>2024-03-23T08:27:34.000Z</time><ele>622.2</ele></trkpt><trkpt lat="45.828152" lon="9.430379"><time>2024-03-23T08:27:35.000Z</time><ele>622.4</ele></trkpt><trkpt lat="45.828155" lon="9.430388"><time>2024-03-23T08:27:36.000Z</time><ele>622.4</ele></trkpt><trkpt lat="45.828163" lon="9.4304"><time>2024-03-23T08:27:37.000Z</time><ele>622.6</ele></trkpt><trkpt lat="45.828168" lon="9.430407"><time>2024-03-23T08:27:38.000Z</time><ele>622.6</ele></trkpt><trkpt lat="45.82817" lon="9.43042"><time>2024-03-23T08:27:39.000Z</time><ele>623</ele></trkpt><trkpt lat="45.82818" lon="9.430436"><time>2024-03-23T08:27:40.000Z</time><ele>623.2</ele></trkpt><trkpt lat="45.828189" lon="9.430454"><time>2024-03-23T08:27:41.000Z</time><ele>623.6</ele></trkpt><trkpt lat="45.82819" lon="9.430459"><time>2024-03-23T08:27:42.000Z</time><ele>623.8</ele></trkpt><trkpt lat="45.828192" lon="9.43047"><time>2024-03-23T08:27:43.000Z</time><ele>624</ele></trkpt><trkpt lat="45.828197" lon="9.430478"><time>2024-03-23T08:27:44.000Z</time><ele>624</ele></trkpt><trkpt lat="45.828197" lon="9.430482"><time>2024-03-23T08:27:45.000Z</time><ele>624.4</ele></trkpt><trkpt lat="45.828198" lon="9.430488"><time>2024-03-23T08:27:46.000Z</time><ele>624.6</ele></trkpt><trkpt lat="45.8282" lon="9.430491"><time>2024-03-23T08:27:47.000Z</time><ele>624.6</ele></trkpt><trkpt lat="45.828207" lon="9.430495"><time>2024-03-23T08:27:48.000Z</time><ele>624.8</ele></trkpt><trkpt lat="45.828213" lon="9.430496"><time>2024-03-23T08:27:49.000Z</time><ele>625</ele></trkpt><trkpt lat="45.828219" lon="9.430499"><time>2024-03-23T08:27:50.000Z</time><ele>625.2</ele></trkpt><trkpt lat="45.828225" lon="9.430503"><time>2024-03-23T08:27:51.000Z</time><ele>625.4</ele></trkpt><trkpt lat="45.828229" lon="9.43051"><time>2024-03-23T08:27:52.000Z</time><ele>625.6</ele></trkpt><trkpt lat="45.828235" lon="9.430517"><time>2024-03-23T08:27:53.000Z</time><ele>625.8</ele></trkpt><trkpt lat="45.828236" lon="9.430522"><time>2024-03-23T08:27:54.000Z</time><ele>626.2</ele></trkpt><trkpt lat="45.828238" lon="9.430531"><time>2024-03-23T08:27:55.000Z</time><ele>626.4</ele></trkpt><trkpt lat="45.82824" lon="9.430533"><time>2024-03-23T08:27:56.000Z</time><ele>626.4</ele></trkpt><trkpt lat="45.828239" lon="9.430533"><time>2024-03-23T08:27:57.000Z</time><ele>626.6</ele></trkpt><trkpt lat="45.828242" lon="9.430537"><time>2024-03-23T08:27:58.000Z</time><ele>626.8</ele></trkpt><trkpt lat="45.828237" lon="9.430539"><time>2024-03-23T08:27:59.000Z</time><ele>627</ele></trkpt><trkpt lat="45.828232" lon="9.43055"><time>2024-03-23T08:28:00.000Z</time><ele>627</ele></trkpt><trkpt lat="45.828234" lon="9.43055"><time>2024-03-23T08:28:01.000Z</time><ele>627.2</ele></trkpt><trkpt lat="45.828238" lon="9.430562"><time>2024-03-23T08:28:02.000Z</time><ele>627.6</ele></trkpt><trkpt lat="45.828242" lon="9.430571"><time>2024-03-23T08:28:03.000Z</time><ele>627.8</ele></trkpt><trkpt lat="45.828248" lon="9.430574"><time>2024-03-23T08:28:04.000Z</time><ele>627.8</ele></trkpt><trkpt lat="45.828253" lon="9.430583"><time>2024-03-23T08:28:05.000Z</time><ele>628</ele></trkpt><trkpt lat="45.82826" lon="9.430594"><time>2024-03-23T08:28:06.000Z</time><ele>628.4</ele></trkpt><trkpt lat="45.828266" lon="9.430597"><time>2024-03-23T08:28:07.000Z</time><ele>628.6</ele></trkpt><trkpt lat="45.828265" lon="9.430601"><time>2024-03-23T08:28:08.000Z</time><ele>628.8</ele></trkpt><trkpt lat="45.828268" lon="9.430613"><time>2024-03-23T08:28:09.000Z</time><ele>629</ele></trkpt><trkpt lat="45.82827" lon="9.430621"><time>2024-03-23T08:28:10.000Z</time><ele>629.4</ele></trkpt><trkpt lat="45.82827" lon="9.430624"><time>2024-03-23T08:28:11.000Z</time><ele>629.6</ele></trkpt><trkpt lat="45.82827" lon="9.430625"><time>2024-03-23T08:28:12.000Z</time><ele>629.8</ele></trkpt><trkpt lat="45.828269" lon="9.430627"><time>2024-03-23T08:28:13.000Z</time><ele>629.8</ele></trkpt><trkpt lat="45.828264" lon="9.430623"><time>2024-03-23T08:28:14.000Z</time><ele>630</ele></trkpt><trkpt lat="45.828258" lon="9.430616"><time>2024-03-23T08:28:15.000Z</time><ele>630.2</ele></trkpt><trkpt lat="45.828259" lon="9.430618"><time>2024-03-23T08:28:16.000Z</time><ele>630.2</ele></trkpt><trkpt lat="45.828264" lon="9.430624"><time>2024-03-23T08:28:17.000Z</time><ele>630.4</ele></trkpt><trkpt lat="45.828265" lon="9.430627"><time>2024-03-23T08:28:18.000Z</time><ele>630.4</ele></trkpt><trkpt lat="45.828275" lon="9.430634"><time>2024-03-23T08:28:19.000Z</time><ele>630.6</ele></trkpt><trkpt lat="45.828282" lon="9.430643"><time>2024-03-23T08:28:20.000Z</time><ele>630.8</ele></trkpt><trkpt lat="45.828281" lon="9.430647"><time>2024-03-23T08:28:21.000Z</time><ele>631</ele></trkpt><trkpt lat="45.828284" lon="9.430649"><time>2024-03-23T08:28:22.000Z</time><ele>631</ele></trkpt><trkpt lat="45.828282" lon="9.430651"><time>2024-03-23T08:28:23.000Z</time><ele>631.4</ele></trkpt><trkpt lat="45.828287" lon="9.430659"><time>2024-03-23T08:28:24.000Z</time><ele>631.6</ele></trkpt><trkpt lat="45.828295" lon="9.430665"><time>2024-03-23T08:28:25.000Z</time><ele>631.6</ele></trkpt><trkpt lat="45.828299" lon="9.430669"><time>2024-03-23T08:28:26.000Z</time><ele>631.8</ele></trkpt><trkpt lat="45.828308" lon="9.430677"><time>2024-03-23T08:28:27.000Z</time><ele>632</ele></trkpt><trkpt lat="45.82832" lon="9.430679"><time>2024-03-23T08:28:28.000Z</time><ele>632.2</ele></trkpt><trkpt lat="45.828328" lon="9.430676"><time>2024-03-23T08:28:29.000Z</time><ele>632.4</ele></trkpt><trkpt lat="45.828334" lon="9.430677"><time>2024-03-23T08:28:30.000Z</time><ele>632.4</ele></trkpt><trkpt lat="45.828336" lon="9.430677"><time>2024-03-23T08:28:31.000Z</time><ele>632.6</ele></trkpt><trkpt lat="45.828338" lon="9.430678"><time>2024-03-23T08:28:32.000Z</time><ele>632.8</ele></trkpt><trkpt lat="45.82834" lon="9.430678"><time>2024-03-23T08:28:33.000Z</time><ele>632.8</ele></trkpt><trkpt lat="45.828343" lon="9.430681"><time>2024-03-23T08:28:34.000Z</time><ele>633.2</ele></trkpt><trkpt lat="45.828344" lon="9.430686"><time>2024-03-23T08:28:35.000Z</time><ele>633.4</ele></trkpt><trkpt lat="45.828345" lon="9.430691"><time>2024-03-23T08:28:36.000Z</time><ele>633.4</ele></trkpt><trkpt lat="45.828344" lon="9.430694"><time>2024-03-23T08:28:37.000Z</time><ele>633.8</ele></trkpt><trkpt lat="45.828341" lon="9.430697"><time>2024-03-23T08:28:38.000Z</time><ele>634</ele></trkpt><trkpt lat="45.828342" lon="9.430698"><time>2024-03-23T08:28:39.000Z</time><ele>634</ele></trkpt><trkpt lat="45.828345" lon="9.4307"><time>2024-03-23T08:28:40.000Z</time><ele>634.2</ele></trkpt><trkpt lat="45.828347" lon="9.430704"><time>2024-03-23T08:28:41.000Z</time><ele>634.4</ele></trkpt><trkpt lat="45.828346" lon="9.430709"><time>2024-03-23T08:28:42.000Z</time><ele>634.6</ele></trkpt><trkpt lat="45.828348" lon="9.430706"><time>2024-03-23T08:28:43.000Z</time><ele>634.8</ele></trkpt><trkpt lat="45.828347" lon="9.430702"><time>2024-03-23T08:28:44.000Z</time><ele>635</ele></trkpt><trkpt lat="45.828351" lon="9.430708"><time>2024-03-23T08:28:45.000Z</time><ele>635.2</ele></trkpt><trkpt lat="45.828345" lon="9.430706"><time>2024-03-23T08:28:46.000Z</time><ele>635.4</ele></trkpt><trkpt lat="45.828341" lon="9.430704"><time>2024-03-23T08:28:47.000Z</time><ele>635.4</ele></trkpt><trkpt lat="45.82834" lon="9.430704"><time>2024-03-23T08:28:48.000Z</time><ele>635.6</ele></trkpt><trkpt lat="45.828338" lon="9.430706"><time>2024-03-23T08:28:49.000Z</time><ele>635.8</ele></trkpt><trkpt lat="45.828338" lon="9.43071"><time>2024-03-23T08:28:50.000Z</time><ele>635.8</ele></trkpt><trkpt lat="45.828338" lon="9.430715"><time>2024-03-23T08:28:51.000Z</time><ele>636</ele></trkpt><trkpt lat="45.828337" lon="9.430717"><time>2024-03-23T08:28:52.000Z</time><ele>636</ele></trkpt><trkpt lat="45.828337" lon="9.430718"><time>2024-03-23T08:28:53.000Z</time><ele>636.4</ele></trkpt><trkpt lat="45.828337" lon="9.430718"><time>2024-03-23T08:28:54.000Z</time><ele>636.6</ele></trkpt><trkpt lat="45.828337" lon="9.430718"><time>2024-03-23T08:28:55.000Z</time><ele>636.8</ele></trkpt><trkpt lat="45.828339" lon="9.430721"><time>2024-03-23T08:28:56.000Z</time><ele>637</ele></trkpt><trkpt lat="45.828342" lon="9.430728"><time>2024-03-23T08:28:57.000Z</time><ele>637</ele></trkpt><trkpt lat="45.828343" lon="9.430733"><time>2024-03-23T08:28:58.000Z</time><ele>637.2</ele></trkpt><trkpt lat="45.828349" lon="9.430741"><time>2024-03-23T08:28:59.000Z</time><ele>637.6</ele></trkpt><trkpt lat="45.828353" lon="9.430742"><time>2024-03-23T08:29:00.000Z</time><ele>637.8</ele></trkpt><trkpt lat="45.828353" lon="9.430743"><time>2024-03-23T08:29:01.000Z</time><ele>638</ele></trkpt><trkpt lat="45.828361" lon="9.430746"><time>2024-03-23T08:29:02.000Z</time><ele>638</ele></trkpt><trkpt lat="45.828373" lon="9.430753"><time>2024-03-23T08:29:03.000Z</time><ele>638.2</ele></trkpt><trkpt lat="45.828395" lon="9.430771"><time>2024-03-23T08:29:04.000Z</time><ele>638.4</ele></trkpt><trkpt lat="45.828403" lon="9.430777"><time>2024-03-23T08:29:05.000Z</time><ele>638.4</ele></trkpt><trkpt lat="45.828407" lon="9.43078"><time>2024-03-23T08:29:06.000Z</time><ele>638.6</ele></trkpt><trkpt lat="45.82841" lon="9.430784"><time>2024-03-23T08:29:07.000Z</time><ele>638.8</ele></trkpt><trkpt lat="45.828412" lon="9.430789"><time>2024-03-23T08:29:08.000Z</time><ele>638.8</ele></trkpt><trkpt lat="45.828417" lon="9.430793"><time>2024-03-23T08:29:09.000Z</time><ele>639</ele></trkpt><trkpt lat="45.828419" lon="9.430798"><time>2024-03-23T08:29:10.000Z</time><ele>639.2</ele></trkpt><trkpt lat="45.828427" lon="9.430806"><time>2024-03-23T08:29:11.000Z</time><ele>639.2</ele></trkpt><trkpt lat="45.82843" lon="9.43081"><time>2024-03-23T08:29:12.000Z</time><ele>639.4</ele></trkpt><trkpt lat="45.828431" lon="9.430811"><time>2024-03-23T08:29:13.000Z</time><ele>639.8</ele></trkpt><trkpt lat="45.828433" lon="9.430811"><time>2024-03-23T08:29:14.000Z</time><ele>639.8</ele></trkpt><trkpt lat="45.82844" lon="9.430821"><time>2024-03-23T08:29:15.000Z</time><ele>640</ele></trkpt><trkpt lat="45.828445" lon="9.430822"><time>2024-03-23T08:29:16.000Z</time><ele>640.2</ele></trkpt><trkpt lat="45.828447" lon="9.430822"><time>2024-03-23T08:29:17.000Z</time><ele>640.2</ele></trkpt><trkpt lat="45.828449" lon="9.430823"><time>2024-03-23T08:29:18.000Z</time><ele>640.6</ele></trkpt><trkpt lat="45.828459" lon="9.430828"><time>2024-03-23T08:29:19.000Z</time><ele>640.8</ele></trkpt><trkpt lat="45.828462" lon="9.43083"><time>2024-03-23T08:29:20.000Z</time><ele>640.8</ele></trkpt><trkpt lat="45.828465" lon="9.430831"><time>2024-03-23T08:29:21.000Z</time><ele>641</ele></trkpt><trkpt lat="45.828467" lon="9.430832"><time>2024-03-23T08:29:22.000Z</time><ele>641.2</ele></trkpt><trkpt lat="45.828465" lon="9.430835"><time>2024-03-23T08:29:23.000Z</time><ele>641.4</ele></trkpt><trkpt lat="45.82847" lon="9.430843"><time>2024-03-23T08:29:24.000Z</time><ele>641.6</ele></trkpt><trkpt lat="45.828471" lon="9.430847"><time>2024-03-23T08:29:25.000Z</time><ele>641.6</ele></trkpt><trkpt lat="45.828472" lon="9.430851"><time>2024-03-23T08:29:26.000Z</time><ele>641.8</ele></trkpt><trkpt lat="45.828474" lon="9.430854"><time>2024-03-23T08:29:27.000Z</time><ele>642</ele></trkpt><trkpt lat="45.82848" lon="9.430865"><time>2024-03-23T08:29:28.000Z</time><ele>642.2</ele></trkpt><trkpt lat="45.828485" lon="9.430873"><time>2024-03-23T08:29:29.000Z</time><ele>642.4</ele></trkpt><trkpt lat="45.828488" lon="9.430878"><time>2024-03-23T08:29:30.000Z</time><ele>642.4</ele></trkpt><trkpt lat="45.82849" lon="9.430878"><time>2024-03-23T08:29:31.000Z</time><ele>642.6</ele></trkpt><trkpt lat="45.828496" lon="9.430883"><time>2024-03-23T08:29:32.000Z</time><ele>642.8</ele></trkpt><trkpt lat="45.828504" lon="9.430889"><time>2024-03-23T08:29:33.000Z</time><ele>643</ele></trkpt><trkpt lat="45.82851" lon="9.430895"><time>2024-03-23T08:29:34.000Z</time><ele>643.2</ele></trkpt><trkpt lat="45.828515" lon="9.4309"><time>2024-03-23T08:29:35.000Z</time><ele>643.2</ele></trkpt><trkpt lat="45.828519" lon="9.4309"><time>2024-03-23T08:29:36.000Z</time><ele>643.4</ele></trkpt><trkpt lat="45.828525" lon="9.430902"><time>2024-03-23T08:29:37.000Z</time><ele>643.4</ele></trkpt><trkpt lat="45.828533" lon="9.430904"><time>2024-03-23T08:29:38.000Z</time><ele>643.6</ele></trkpt><trkpt lat="45.828541" lon="9.430902"><time>2024-03-23T08:29:39.000Z</time><ele>644</ele></trkpt><trkpt lat="45.82855" lon="9.430904"><time>2024-03-23T08:29:40.000Z</time><ele>644.2</ele></trkpt><trkpt lat="45.828555" lon="9.430899"><time>2024-03-23T08:29:41.000Z</time><ele>644.4</ele></trkpt><trkpt lat="45.828559" lon="9.4309"><time>2024-03-23T08:29:42.000Z</time><ele>644.6</ele></trkpt><trkpt lat="45.828563" lon="9.4309"><time>2024-03-23T08:29:43.000Z</time><ele>644.6</ele></trkpt><trkpt lat="45.828566" lon="9.430902"><time>2024-03-23T08:29:44.000Z</time><ele>644.8</ele></trkpt><trkpt lat="45.828568" lon="9.430901"><time>2024-03-23T08:29:45.000Z</time><ele>644.8</ele></trkpt><trkpt lat="45.82857" lon="9.430901"><time>2024-03-23T08:29:46.000Z</time><ele>645</ele></trkpt><trkpt lat="45.828572" lon="9.430905"><time>2024-03-23T08:29:47.000Z</time><ele>645</ele></trkpt><trkpt lat="45.828573" lon="9.430908"><time>2024-03-23T08:29:48.000Z</time><ele>645.2</ele></trkpt><trkpt lat="45.828573" lon="9.430908"><time>2024-03-23T08:29:49.000Z</time><ele>645.2</ele></trkpt><trkpt lat="45.828574" lon="9.430907"><time>2024-03-23T08:29:50.000Z</time><ele>645.2</ele></trkpt><trkpt lat="45.828573" lon="9.430909"><time>2024-03-23T08:29:51.000Z</time><ele>645.4</ele></trkpt><trkpt lat="45.828567" lon="9.430913"><time>2024-03-23T08:29:52.000Z</time><ele>645.4</ele></trkpt><trkpt lat="45.828563" lon="9.430922"><time>2024-03-23T08:29:53.000Z</time><ele>645.4</ele></trkpt><trkpt lat="45.82856" lon="9.430927"><time>2024-03-23T08:29:54.000Z</time><ele>645.6</ele></trkpt><trkpt lat="45.82856" lon="9.430931"><time>2024-03-23T08:29:55.000Z</time><ele>645.8</ele></trkpt><trkpt lat="45.828558" lon="9.430936"><time>2024-03-23T08:29:56.000Z</time><ele>646</ele></trkpt><trkpt lat="45.828558" lon="9.43094"><time>2024-03-23T08:29:57.000Z</time><ele>646</ele></trkpt><trkpt lat="45.828552" lon="9.430942"><time>2024-03-23T08:29:58.000Z</time><ele>646.2</ele></trkpt><trkpt lat="45.82855" lon="9.430945"><time>2024-03-23T08:29:59.000Z</time><ele>646.2</ele></trkpt><trkpt lat="45.82855" lon="9.430952"><time>2024-03-23T08:30:00.000Z</time><ele>646.2</ele></trkpt><trkpt lat="45.828549" lon="9.430957"><time>2024-03-23T08:30:01.000Z</time><ele>646.4</ele></trkpt><trkpt lat="45.828545" lon="9.430959"><time>2024-03-23T08:30:02.000Z</time><ele>646.6</ele></trkpt><trkpt lat="45.828543" lon="9.430959"><time>2024-03-23T08:30:03.000Z</time><ele>646.8</ele></trkpt><trkpt lat="45.82854" lon="9.430963"><time>2024-03-23T08:30:04.000Z</time><ele>647.2</ele></trkpt><trkpt lat="45.828541" lon="9.430965"><time>2024-03-23T08:30:05.000Z</time><ele>647.2</ele></trkpt><trkpt lat="45.82854" lon="9.430971"><time>2024-03-23T08:30:06.000Z</time><ele>647.4</ele></trkpt><trkpt lat="45.828534" lon="9.43097"><time>2024-03-23T08:30:07.000Z</time><ele>647.6</ele></trkpt><trkpt lat="45.828528" lon="9.430972"><time>2024-03-23T08:30:08.000Z</time><ele>647.6</ele></trkpt><trkpt lat="45.828524" lon="9.430979"><time>2024-03-23T08:30:09.000Z</time><ele>647.6</ele></trkpt><trkpt lat="45.828521" lon="9.430982"><time>2024-03-23T08:30:10.000Z</time><ele>647.8</ele></trkpt><trkpt lat="45.828521" lon="9.430987"><time>2024-03-23T08:30:11.000Z</time><ele>648</ele></trkpt><trkpt lat="45.828521" lon="9.43099"><time>2024-03-23T08:30:12.000Z</time><ele>648</ele></trkpt><trkpt lat="45.828525" lon="9.430994"><time>2024-03-23T08:30:13.000Z</time><ele>648.2</ele></trkpt><trkpt lat="45.828522" lon="9.430994"><time>2024-03-23T08:30:14.000Z</time><ele>648.6</ele></trkpt><trkpt lat="45.828519" lon="9.430998"><time>2024-03-23T08:30:15.000Z</time><ele>648.6</ele></trkpt><trkpt lat="45.828514" lon="9.430996"><time>2024-03-23T08:30:16.000Z</time><ele>648.8</ele></trkpt><trkpt lat="45.828508" lon="9.430989"><time>2024-03-23T08:30:17.000Z</time><ele>649</ele></trkpt><trkpt lat="45.828505" lon="9.430983"><time>2024-03-23T08:30:18.000Z</time><ele>649.2</ele></trkpt><trkpt lat="45.828501" lon="9.430984"><time>2024-03-23T08:30:19.000Z</time><ele>649.2</ele></trkpt><trkpt lat="45.828494" lon="9.43099"><time>2024-03-23T08:30:20.000Z</time><ele>649.4</ele></trkpt><trkpt lat="45.828492" lon="9.430995"><time>2024-03-23T08:30:21.000Z</time><ele>649.4</ele></trkpt><trkpt lat="45.828488" lon="9.431"><time>2024-03-23T08:30:22.000Z</time><ele>649.8</ele></trkpt><trkpt lat="45.828484" lon="9.431004"><time>2024-03-23T08:30:23.000Z</time><ele>650</ele></trkpt><trkpt lat="45.828474" lon="9.430999"><time>2024-03-23T08:30:24.000Z</time><ele>650</ele></trkpt><trkpt lat="45.828469" lon="9.430997"><time>2024-03-23T08:30:25.000Z</time><ele>650.2</ele></trkpt><trkpt lat="45.828465" lon="9.430997"><time>2024-03-23T08:30:26.000Z</time><ele>650.2</ele></trkpt><trkpt lat="45.828462" lon="9.430997"><time>2024-03-23T08:30:27.000Z</time><ele>650.4</ele></trkpt><trkpt lat="45.828456" lon="9.431"><time>2024-03-23T08:30:28.000Z</time><ele>650.6</ele></trkpt><trkpt lat="45.828455" lon="9.431006"><time>2024-03-23T08:30:29.000Z</time><ele>650.6</ele></trkpt><trkpt lat="45.828456" lon="9.431018"><time>2024-03-23T08:30:30.000Z</time><ele>651</ele></trkpt><trkpt lat="45.828454" lon="9.431024"><time>2024-03-23T08:30:31.000Z</time><ele>651.2</ele></trkpt><trkpt lat="45.828449" lon="9.431031"><time>2024-03-23T08:30:32.000Z</time><ele>651.4</ele></trkpt><trkpt lat="45.828446" lon="9.431034"><time>2024-03-23T08:30:33.000Z</time><ele>651.4</ele></trkpt><trkpt lat="45.828442" lon="9.431035"><time>2024-03-23T08:30:34.000Z</time><ele>651.6</ele></trkpt><trkpt lat="45.828437" lon="9.43104"><time>2024-03-23T08:30:35.000Z</time><ele>651.6</ele></trkpt><trkpt lat="45.828434" lon="9.431042"><time>2024-03-23T08:30:36.000Z</time><ele>651.8</ele></trkpt><trkpt lat="45.828428" lon="9.431045"><time>2024-03-23T08:30:37.000Z</time><ele>651.8</ele></trkpt><trkpt lat="45.828421" lon="9.431047"><time>2024-03-23T08:30:38.000Z</time><ele>652</ele></trkpt><trkpt lat="45.828418" lon="9.431057"><time>2024-03-23T08:30:39.000Z</time><ele>652.2</ele></trkpt><trkpt lat="45.828418" lon="9.431061"><time>2024-03-23T08:30:40.000Z</time><ele>652.2</ele></trkpt><trkpt lat="45.828418" lon="9.431066"><time>2024-03-23T08:30:41.000Z</time><ele>652.6</ele></trkpt><trkpt lat="45.828414" lon="9.431072"><time>2024-03-23T08:30:42.000Z</time><ele>652.8</ele></trkpt><trkpt lat="45.828409" lon="9.431078"><time>2024-03-23T08:30:43.000Z</time><ele>653</ele></trkpt><trkpt lat="45.828408" lon="9.431084"><time>2024-03-23T08:30:44.000Z</time><ele>653.2</ele></trkpt><trkpt lat="45.828407" lon="9.431092"><time>2024-03-23T08:30:45.000Z</time><ele>653.2</ele></trkpt><trkpt lat="45.828405" lon="9.431096"><time>2024-03-23T08:30:46.000Z</time><ele>653.4</ele></trkpt><trkpt lat="45.828404" lon="9.4311"><time>2024-03-23T08:30:47.000Z</time><ele>653.4</ele></trkpt><trkpt lat="45.828401" lon="9.431104"><time>2024-03-23T08:30:48.000Z</time><ele>653.6</ele></trkpt><trkpt lat="45.828399" lon="9.431119"><time>2024-03-23T08:30:49.000Z</time><ele>653.8</ele></trkpt><trkpt lat="45.828394" lon="9.431126"><time>2024-03-23T08:30:50.000Z</time><ele>654</ele></trkpt><trkpt lat="45.828392" lon="9.43113"><time>2024-03-23T08:30:51.000Z</time><ele>654</ele></trkpt><trkpt lat="45.828388" lon="9.431132"><time>2024-03-23T08:30:52.000Z</time><ele>654.4</ele></trkpt><trkpt lat="45.828381" lon="9.431137"><time>2024-03-23T08:30:53.000Z</time><ele>654.4</ele></trkpt><trkpt lat="45.828375" lon="9.431145"><time>2024-03-23T08:30:54.000Z</time><ele>654.6</ele></trkpt><trkpt lat="45.828373" lon="9.431153"><time>2024-03-23T08:30:55.000Z</time><ele>654.8</ele></trkpt><trkpt lat="45.828369" lon="9.431161"><time>2024-03-23T08:30:56.000Z</time><ele>655</ele></trkpt><trkpt lat="45.828367" lon="9.431166"><time>2024-03-23T08:30:57.000Z</time><ele>655.2</ele></trkpt><trkpt lat="45.828365" lon="9.431171"><time>2024-03-23T08:30:58.000Z</time><ele>655.4</ele></trkpt><trkpt lat="45.828365" lon="9.431176"><time>2024-03-23T08:30:59.000Z</time><ele>655.6</ele></trkpt><trkpt lat="45.828364" lon="9.43118"><time>2024-03-23T08:31:00.000Z</time><ele>655.6</ele></trkpt><trkpt lat="45.828362" lon="9.431188"><time>2024-03-23T08:31:01.000Z</time><ele>655.8</ele></trkpt><trkpt lat="45.828361" lon="9.431201"><time>2024-03-23T08:31:02.000Z</time><ele>656</ele></trkpt><trkpt lat="45.828362" lon="9.431213"><time>2024-03-23T08:31:03.000Z</time><ele>656</ele></trkpt><trkpt lat="45.828358" lon="9.431222"><time>2024-03-23T08:31:04.000Z</time><ele>656.2</ele></trkpt><trkpt lat="45.828356" lon="9.431223"><time>2024-03-23T08:31:05.000Z</time><ele>656.6</ele></trkpt><trkpt lat="45.82835" lon="9.431226"><time>2024-03-23T08:31:06.000Z</time><ele>656.8</ele></trkpt><trkpt lat="45.828347" lon="9.431228"><time>2024-03-23T08:31:07.000Z</time><ele>657</ele></trkpt><trkpt lat="45.828343" lon="9.431239"><time>2024-03-23T08:31:08.000Z</time><ele>657</ele></trkpt><trkpt lat="45.828337" lon="9.431247"><time>2024-03-23T08:31:09.000Z</time><ele>657.2</ele></trkpt><trkpt lat="45.828332" lon="9.431252"><time>2024-03-23T08:31:10.000Z</time><ele>657.2</ele></trkpt><trkpt lat="45.828328" lon="9.431257"><time>2024-03-23T08:31:11.000Z</time><ele>657.4</ele></trkpt><trkpt lat="45.828321" lon="9.431255"><time>2024-03-23T08:31:12.000Z</time><ele>657.4</ele></trkpt><trkpt lat="45.828317" lon="9.431258"><time>2024-03-23T08:31:13.000Z</time><ele>657.8</ele></trkpt><trkpt lat="45.828309" lon="9.431267"><time>2024-03-23T08:31:14.000Z</time><ele>658</ele></trkpt><trkpt lat="45.828298" lon="9.431267"><time>2024-03-23T08:31:15.000Z</time><ele>658</ele></trkpt><trkpt lat="45.828296" lon="9.431269"><time>2024-03-23T08:31:16.000Z</time><ele>658.2</ele></trkpt><trkpt lat="45.828295" lon="9.431272"><time>2024-03-23T08:31:17.000Z</time><ele>658.2</ele></trkpt><trkpt lat="45.828294" lon="9.431275"><time>2024-03-23T08:31:18.000Z</time><ele>658.4</ele></trkpt><trkpt lat="45.828291" lon="9.431281"><time>2024-03-23T08:31:19.000Z</time><ele>658.8</ele></trkpt><trkpt lat="45.828285" lon="9.43128"><time>2024-03-23T08:31:20.000Z</time><ele>658.8</ele></trkpt><trkpt lat="45.82828" lon="9.431281"><time>2024-03-23T08:31:21.000Z</time><ele>659</ele></trkpt><trkpt lat="45.828276" lon="9.431281"><time>2024-03-23T08:31:22.000Z</time><ele>659</ele></trkpt><trkpt lat="45.828273" lon="9.431283"><time>2024-03-23T08:31:23.000Z</time><ele>659.2</ele></trkpt><trkpt lat="45.828269" lon="9.431285"><time>2024-03-23T08:31:24.000Z</time><ele>659.2</ele></trkpt><trkpt lat="45.828264" lon="9.431289"><time>2024-03-23T08:31:25.000Z</time><ele>659.4</ele></trkpt><trkpt lat="45.828263" lon="9.431296"><time>2024-03-23T08:31:26.000Z</time><ele>659.6</ele></trkpt><trkpt lat="45.828261" lon="9.431305"><time>2024-03-23T08:31:27.000Z</time><ele>659.8</ele></trkpt><trkpt lat="45.828255" lon="9.431312"><time>2024-03-23T08:31:28.000Z</time><ele>660</ele></trkpt><trkpt lat="45.828246" lon="9.43131"><time>2024-03-23T08:31:29.000Z</time><ele>660.2</ele></trkpt><trkpt lat="45.828241" lon="9.43131"><time>2024-03-23T08:31:30.000Z</time><ele>660.4</ele></trkpt><trkpt lat="45.828238" lon="9.431312"><time>2024-03-23T08:31:31.000Z</time><ele>660.6</ele></trkpt><trkpt lat="45.828232" lon="9.431319"><time>2024-03-23T08:31:32.000Z</time><ele>660.6</ele></trkpt><trkpt lat="45.828227" lon="9.431322"><time>2024-03-23T08:31:33.000Z</time><ele>660.8</ele></trkpt><trkpt lat="45.828225" lon="9.431333"><time>2024-03-23T08:31:34.000Z</time><ele>660.8</ele></trkpt><trkpt lat="45.828224" lon="9.431337"><time>2024-03-23T08:31:35.000Z</time><ele>660.8</ele></trkpt><trkpt lat="45.828218" lon="9.431338"><time>2024-03-23T08:31:36.000Z</time><ele>661.2</ele></trkpt><trkpt lat="45.828213" lon="9.431343"><time>2024-03-23T08:31:37.000Z</time><ele>661.4</ele></trkpt><trkpt lat="45.828211" lon="9.43135"><time>2024-03-23T08:31:38.000Z</time><ele>661.6</ele></trkpt><trkpt lat="45.828208" lon="9.431358"><time>2024-03-23T08:31:39.000Z</time><ele>661.8</ele></trkpt><trkpt lat="45.828204" lon="9.431363"><time>2024-03-23T08:31:40.000Z</time><ele>662</ele></trkpt><trkpt lat="45.828196" lon="9.431365"><time>2024-03-23T08:31:41.000Z</time><ele>662.2</ele></trkpt><trkpt lat="45.828186" lon="9.431365"><time>2024-03-23T08:31:42.000Z</time><ele>662.4</ele></trkpt><trkpt lat="45.828186" lon="9.431367"><time>2024-03-23T08:31:43.000Z</time><ele>662.6</ele></trkpt><trkpt lat="45.828182" lon="9.431372"><time>2024-03-23T08:31:44.000Z</time><ele>662.8</ele></trkpt><trkpt lat="45.828177" lon="9.431377"><time>2024-03-23T08:31:45.000Z</time><ele>662.8</ele></trkpt><trkpt lat="45.828171" lon="9.431375"><time>2024-03-23T08:31:46.000Z</time><ele>662.8</ele></trkpt><trkpt lat="45.828172" lon="9.431377"><time>2024-03-23T08:31:47.000Z</time><ele>663</ele></trkpt><trkpt lat="45.828165" lon="9.431375"><time>2024-03-23T08:31:48.000Z</time><ele>663.4</ele></trkpt><trkpt lat="45.828159" lon="9.431373"><time>2024-03-23T08:31:49.000Z</time><ele>663.6</ele></trkpt><trkpt lat="45.828152" lon="9.43138"><time>2024-03-23T08:31:50.000Z</time><ele>663.8</ele></trkpt><trkpt lat="45.828144" lon="9.431382"><time>2024-03-23T08:31:51.000Z</time><ele>663.8</ele></trkpt><trkpt lat="45.828142" lon="9.431392"><time>2024-03-23T08:31:52.000Z</time><ele>663.8</ele></trkpt><trkpt lat="45.82814" lon="9.431396"><time>2024-03-23T08:31:53.000Z</time><ele>664</ele></trkpt><trkpt lat="45.828138" lon="9.431396"><time>2024-03-23T08:31:54.000Z</time><ele>664</ele></trkpt><trkpt lat="45.828136" lon="9.431396"><time>2024-03-23T08:31:55.000Z</time><ele>664.4</ele></trkpt><trkpt lat="45.828133" lon="9.431397"><time>2024-03-23T08:31:56.000Z</time><ele>664.6</ele></trkpt><trkpt lat="45.82813" lon="9.431397"><time>2024-03-23T08:31:57.000Z</time><ele>664.8</ele></trkpt><trkpt lat="45.828126" lon="9.431394"><time>2024-03-23T08:31:58.000Z</time><ele>665</ele></trkpt><trkpt lat="45.82812" lon="9.431393"><time>2024-03-23T08:31:59.000Z</time><ele>665.2</ele></trkpt><trkpt lat="45.828116" lon="9.431388"><time>2024-03-23T08:32:00.000Z</time><ele>665.2</ele></trkpt><trkpt lat="45.82811" lon="9.431386"><time>2024-03-23T08:32:01.000Z</time><ele>665.4</ele></trkpt><trkpt lat="45.828108" lon="9.431387"><time>2024-03-23T08:32:02.000Z</time><ele>665.6</ele></trkpt><trkpt lat="45.828108" lon="9.431388"><time>2024-03-23T08:32:03.000Z</time><ele>665.8</ele></trkpt><trkpt lat="45.828106" lon="9.431389"><time>2024-03-23T08:32:04.000Z</time><ele>666</ele></trkpt><trkpt lat="45.828104" lon="9.431388"><time>2024-03-23T08:32:05.000Z</time><ele>666.2</ele></trkpt><trkpt lat="45.828097" lon="9.431389"><time>2024-03-23T08:32:06.000Z</time><ele>666.4</ele></trkpt><trkpt lat="45.828091" lon="9.43139"><time>2024-03-23T08:32:07.000Z</time><ele>666.6</ele></trkpt><trkpt lat="45.828085" lon="9.431393"><time>2024-03-23T08:32:08.000Z</time><ele>666.8</ele></trkpt><trkpt lat="45.828081" lon="9.431393"><time>2024-03-23T08:32:09.000Z</time><ele>666.8</ele></trkpt><trkpt lat="45.828073" lon="9.431396"><time>2024-03-23T08:32:10.000Z</time><ele>667</ele></trkpt><trkpt lat="45.828068" lon="9.431397"><time>2024-03-23T08:32:11.000Z</time><ele>667</ele></trkpt><trkpt lat="45.828062" lon="9.431406"><time>2024-03-23T08:32:12.000Z</time><ele>667</ele></trkpt><trkpt lat="45.828057" lon="9.43141"><time>2024-03-23T08:32:13.000Z</time><ele>667</ele></trkpt><trkpt lat="45.828053" lon="9.431409"><time>2024-03-23T08:32:14.000Z</time><ele>667.2</ele></trkpt><trkpt lat="45.828052" lon="9.43141"><time>2024-03-23T08:32:15.000Z</time><ele>667.4</ele></trkpt><trkpt lat="45.82805" lon="9.431412"><time>2024-03-23T08:32:16.000Z</time><ele>667.4</ele></trkpt><trkpt lat="45.828046" lon="9.431416"><time>2024-03-23T08:32:17.000Z</time><ele>667.6</ele></trkpt><trkpt lat="45.828038" lon="9.431418"><time>2024-03-23T08:32:18.000Z</time><ele>667.6</ele></trkpt><trkpt lat="45.828036" lon="9.431416"><time>2024-03-23T08:32:19.000Z</time><ele>667.8</ele></trkpt><trkpt lat="45.828035" lon="9.431416"><time>2024-03-23T08:32:20.000Z</time><ele>668</ele></trkpt><trkpt lat="45.828031" lon="9.431421"><time>2024-03-23T08:32:21.000Z</time><ele>668.2</ele></trkpt><trkpt lat="45.828025" lon="9.431425"><time>2024-03-23T08:32:22.000Z</time><ele>668.2</ele></trkpt><trkpt lat="45.828022" lon="9.431433"><time>2024-03-23T08:32:23.000Z</time><ele>668.4</ele></trkpt><trkpt lat="45.82802" lon="9.43144"><time>2024-03-23T08:32:24.000Z</time><ele>668.4</ele></trkpt><trkpt lat="45.828017" lon="9.431445"><time>2024-03-23T08:32:25.000Z</time><ele>668.6</ele></trkpt><trkpt lat="45.828009" lon="9.431446"><time>2024-03-23T08:32:26.000Z</time><ele>668.8</ele></trkpt><trkpt lat="45.828005" lon="9.431447"><time>2024-03-23T08:32:27.000Z</time><ele>668.8</ele></trkpt><trkpt lat="45.828002" lon="9.43145"><time>2024-03-23T08:32:28.000Z</time><ele>669</ele></trkpt><trkpt lat="45.828001" lon="9.431451"><time>2024-03-23T08:32:29.000Z</time><ele>669.2</ele></trkpt><trkpt lat="45.827995" lon="9.431462"><time>2024-03-23T08:32:30.000Z</time><ele>669.4</ele></trkpt><trkpt lat="45.82799" lon="9.431449"><time>2024-03-23T08:32:31.000Z</time><ele>669.4</ele></trkpt><trkpt lat="45.827992" lon="9.431451"><time>2024-03-23T08:32:32.000Z</time><ele>669.6</ele></trkpt><trkpt lat="45.827993" lon="9.431452"><time>2024-03-23T08:32:33.000Z</time><ele>669.8</ele></trkpt><trkpt lat="45.827987" lon="9.431458"><time>2024-03-23T08:32:34.000Z</time><ele>670</ele></trkpt><trkpt lat="45.827984" lon="9.431463"><time>2024-03-23T08:32:35.000Z</time><ele>670.2</ele></trkpt><trkpt lat="45.827973" lon="9.431466"><time>2024-03-23T08:32:36.000Z</time><ele>670.2</ele></trkpt><trkpt lat="45.82797" lon="9.431468"><time>2024-03-23T08:32:37.000Z</time><ele>670.4</ele></trkpt><trkpt lat="45.827966" lon="9.431475"><time>2024-03-23T08:32:38.000Z</time><ele>670.6</ele></trkpt><trkpt lat="45.827963" lon="9.431477"><time>2024-03-23T08:32:39.000Z</time><ele>670.6</ele></trkpt><trkpt lat="45.82796" lon="9.431476"><time>2024-03-23T08:32:40.000Z</time><ele>670.8</ele></trkpt><trkpt lat="45.827953" lon="9.431479"><time>2024-03-23T08:32:41.000Z</time><ele>671</ele></trkpt><trkpt lat="45.82795" lon="9.43148"><time>2024-03-23T08:32:42.000Z</time><ele>671</ele></trkpt><trkpt lat="45.82795" lon="9.431479"><time>2024-03-23T08:32:43.000Z</time><ele>671.2</ele></trkpt><trkpt lat="45.827946" lon="9.431479"><time>2024-03-23T08:32:44.000Z</time><ele>671.4</ele></trkpt><trkpt lat="45.827944" lon="9.431483"><time>2024-03-23T08:32:45.000Z</time><ele>671.6</ele></trkpt><trkpt lat="45.827936" lon="9.431479"><time>2024-03-23T08:32:46.000Z</time><ele>671.8</ele></trkpt><trkpt lat="45.82793" lon="9.431486"><time>2024-03-23T08:32:47.000Z</time><ele>672</ele></trkpt><trkpt lat="45.827926" lon="9.431488"><time>2024-03-23T08:32:48.000Z</time><ele>672</ele></trkpt><trkpt lat="45.82792" lon="9.431487"><time>2024-03-23T08:32:49.000Z</time><ele>672.2</ele></trkpt><trkpt lat="45.827909" lon="9.431482"><time>2024-03-23T08:32:50.000Z</time><ele>672.2</ele></trkpt><trkpt lat="45.8279" lon="9.431482"><time>2024-03-23T08:32:51.000Z</time><ele>672.4</ele></trkpt><trkpt lat="45.827895" lon="9.43148"><time>2024-03-23T08:32:52.000Z</time><ele>672.4</ele></trkpt><trkpt lat="45.827885" lon="9.43149"><time>2024-03-23T08:32:53.000Z</time><ele>672.6</ele></trkpt><trkpt lat="45.827874" lon="9.431498"><time>2024-03-23T08:32:54.000Z</time><ele>672.8</ele></trkpt><trkpt lat="45.827868" lon="9.431514"><time>2024-03-23T08:32:55.000Z</time><ele>673</ele></trkpt><trkpt lat="45.827867" lon="9.431516"><time>2024-03-23T08:32:56.000Z</time><ele>673</ele></trkpt><trkpt lat="45.827865" lon="9.431526"><time>2024-03-23T08:32:57.000Z</time><ele>673.2</ele></trkpt><trkpt lat="45.827861" lon="9.431539"><time>2024-03-23T08:32:58.000Z</time><ele>673.4</ele></trkpt><trkpt lat="45.827861" lon="9.431545"><time>2024-03-23T08:32:59.000Z</time><ele>673.4</ele></trkpt><trkpt lat="45.827859" lon="9.431549"><time>2024-03-23T08:33:00.000Z</time><ele>673.6</ele></trkpt><trkpt lat="45.827854" lon="9.431553"><time>2024-03-23T08:33:01.000Z</time><ele>673.8</ele></trkpt><trkpt lat="45.827852" lon="9.431551"><time>2024-03-23T08:33:02.000Z</time><ele>674</ele></trkpt><trkpt lat="45.827844" lon="9.431547"><time>2024-03-23T08:33:03.000Z</time><ele>674</ele></trkpt><trkpt lat="45.827841" lon="9.43155"><time>2024-03-23T08:33:04.000Z</time><ele>674.2</ele></trkpt><trkpt lat="45.827838" lon="9.431555"><time>2024-03-23T08:33:05.000Z</time><ele>674.2</ele></trkpt><trkpt lat="45.827832" lon="9.431559"><time>2024-03-23T08:33:06.000Z</time><ele>674.4</ele></trkpt><trkpt lat="45.827828" lon="9.431563"><time>2024-03-23T08:33:07.000Z</time><ele>674.8</ele></trkpt><trkpt lat="45.827826" lon="9.431566"><time>2024-03-23T08:33:08.000Z</time><ele>675</ele></trkpt><trkpt lat="45.827824" lon="9.431564"><time>2024-03-23T08:33:09.000Z</time><ele>675.2</ele></trkpt><trkpt lat="45.827822" lon="9.431563"><time>2024-03-23T08:33:10.000Z</time><ele>675.2</ele></trkpt><trkpt lat="45.827819" lon="9.431565"><time>2024-03-23T08:33:11.000Z</time><ele>675.4</ele></trkpt><trkpt lat="45.827814" lon="9.431567"><time>2024-03-23T08:33:12.000Z</time><ele>675.4</ele></trkpt><trkpt lat="45.827812" lon="9.43157"><time>2024-03-23T08:33:13.000Z</time><ele>675.6</ele></trkpt><trkpt lat="45.827811" lon="9.431574"><time>2024-03-23T08:33:14.000Z</time><ele>675.6</ele></trkpt><trkpt lat="45.827807" lon="9.431579"><time>2024-03-23T08:33:15.000Z</time><ele>675.8</ele></trkpt><trkpt lat="45.827804" lon="9.431582"><time>2024-03-23T08:33:16.000Z</time><ele>676</ele></trkpt><trkpt lat="45.827801" lon="9.431588"><time>2024-03-23T08:33:17.000Z</time><ele>676.2</ele></trkpt><trkpt lat="45.827802" lon="9.431606"><time>2024-03-23T08:33:18.000Z</time><ele>676.2</ele></trkpt><trkpt lat="45.827801" lon="9.431612"><time>2024-03-23T08:33:19.000Z</time><ele>676.4</ele></trkpt><trkpt lat="45.827795" lon="9.431614"><time>2024-03-23T08:33:20.000Z</time><ele>676.4</ele></trkpt><trkpt lat="45.827788" lon="9.431609"><time>2024-03-23T08:33:21.000Z</time><ele>676.6</ele></trkpt><trkpt lat="45.827781" lon="9.431604"><time>2024-03-23T08:33:22.000Z</time><ele>676.8</ele></trkpt><trkpt lat="45.827776" lon="9.431598"><time>2024-03-23T08:33:23.000Z</time><ele>677</ele></trkpt><trkpt lat="45.827768" lon="9.431595"><time>2024-03-23T08:33:24.000Z</time><ele>677.2</ele></trkpt><trkpt lat="45.82776" lon="9.431596"><time>2024-03-23T08:33:25.000Z</time><ele>677.4</ele></trkpt><trkpt lat="45.827759" lon="9.431595"><time>2024-03-23T08:33:26.000Z</time><ele>677.4</ele></trkpt><trkpt lat="45.827753" lon="9.431596"><time>2024-03-23T08:33:27.000Z</time><ele>677.6</ele></trkpt><trkpt lat="45.827752" lon="9.431598"><time>2024-03-23T08:33:28.000Z</time><ele>677.8</ele></trkpt><trkpt lat="45.827744" lon="9.431604"><time>2024-03-23T08:33:29.000Z</time><ele>677.8</ele></trkpt><trkpt lat="45.82774" lon="9.431613"><time>2024-03-23T08:33:30.000Z</time><ele>678</ele></trkpt><trkpt lat="45.827735" lon="9.431614"><time>2024-03-23T08:33:31.000Z</time><ele>678</ele></trkpt><trkpt lat="45.827733" lon="9.431613"><time>2024-03-23T08:33:32.000Z</time><ele>678.4</ele></trkpt><trkpt lat="45.827725" lon="9.431612"><time>2024-03-23T08:33:33.000Z</time><ele>678.4</ele></trkpt><trkpt lat="45.827726" lon="9.431615"><time>2024-03-23T08:33:34.000Z</time><ele>678.6</ele></trkpt><trkpt lat="45.827727" lon="9.431618"><time>2024-03-23T08:33:35.000Z</time><ele>678.8</ele></trkpt><trkpt lat="45.827725" lon="9.43162"><time>2024-03-23T08:33:36.000Z</time><ele>679</ele></trkpt><trkpt lat="45.827719" lon="9.431623"><time>2024-03-23T08:33:37.000Z</time><ele>679.2</ele></trkpt><trkpt lat="45.827714" lon="9.431631"><time>2024-03-23T08:33:38.000Z</time><ele>679.4</ele></trkpt><trkpt lat="45.827709" lon="9.431637"><time>2024-03-23T08:33:39.000Z</time><ele>679.4</ele></trkpt><trkpt lat="45.827705" lon="9.431641"><time>2024-03-23T08:33:40.000Z</time><ele>679.6</ele></trkpt><trkpt lat="45.827704" lon="9.431644"><time>2024-03-23T08:33:41.000Z</time><ele>679.8</ele></trkpt><trkpt lat="45.827702" lon="9.431647"><time>2024-03-23T08:33:42.000Z</time><ele>680</ele></trkpt><trkpt lat="45.827699" lon="9.431657"><time>2024-03-23T08:33:43.000Z</time><ele>680</ele></trkpt><trkpt lat="45.827692" lon="9.431665"><time>2024-03-23T08:33:44.000Z</time><ele>680</ele></trkpt><trkpt lat="45.827687" lon="9.431666"><time>2024-03-23T08:33:45.000Z</time><ele>680.2</ele></trkpt><trkpt lat="45.82768" lon="9.431667"><time>2024-03-23T08:33:46.000Z</time><ele>680.6</ele></trkpt><trkpt lat="45.827673" lon="9.431667"><time>2024-03-23T08:33:47.000Z</time><ele>680.8</ele></trkpt><trkpt lat="45.827664" lon="9.431663"><time>2024-03-23T08:33:48.000Z</time><ele>680.8</ele></trkpt><trkpt lat="45.827664" lon="9.431666"><time>2024-03-23T08:33:49.000Z</time><ele>680.8</ele></trkpt><trkpt lat="45.827654" lon="9.431665"><time>2024-03-23T08:33:50.000Z</time><ele>681.2</ele></trkpt><trkpt lat="45.827644" lon="9.431666"><time>2024-03-23T08:33:51.000Z</time><ele>681.4</ele></trkpt><trkpt lat="45.827636" lon="9.431668"><time>2024-03-23T08:33:52.000Z</time><ele>681.6</ele></trkpt><trkpt lat="45.827635" lon="9.431671"><time>2024-03-23T08:33:53.000Z</time><ele>681.8</ele></trkpt><trkpt lat="45.827631" lon="9.431669"><time>2024-03-23T08:33:54.000Z</time><ele>681.8</ele></trkpt><trkpt lat="45.827628" lon="9.431669"><time>2024-03-23T08:33:55.000Z</time><ele>682</ele></trkpt><trkpt lat="45.827628" lon="9.431674"><time>2024-03-23T08:33:56.000Z</time><ele>682.2</ele></trkpt><trkpt lat="45.827625" lon="9.431674"><time>2024-03-23T08:33:57.000Z</time><ele>682.2</ele></trkpt><trkpt lat="45.827622" lon="9.431674"><time>2024-03-23T08:33:58.000Z</time><ele>682.2</ele></trkpt><trkpt lat="45.82762" lon="9.431676"><time>2024-03-23T08:33:59.000Z</time><ele>682.4</ele></trkpt><trkpt lat="45.827618" lon="9.431676"><time>2024-03-23T08:34:00.000Z</time><ele>682.4</ele></trkpt><trkpt lat="45.827608" lon="9.431677"><time>2024-03-23T08:34:01.000Z</time><ele>682.6</ele></trkpt><trkpt lat="45.8276" lon="9.431682"><time>2024-03-23T08:34:02.000Z</time><ele>682.8</ele></trkpt><trkpt lat="45.827599" lon="9.431688"><time>2024-03-23T08:34:03.000Z</time><ele>683</ele></trkpt><trkpt lat="45.827593" lon="9.431691"><time>2024-03-23T08:34:04.000Z</time><ele>683.2</ele></trkpt><trkpt lat="45.827591" lon="9.431693"><time>2024-03-23T08:34:05.000Z</time><ele>683.4</ele></trkpt><trkpt lat="45.827592" lon="9.431693"><time>2024-03-23T08:34:06.000Z</time><ele>683.4</ele></trkpt><trkpt lat="45.827589" lon="9.43169"><time>2024-03-23T08:34:07.000Z</time><ele>683.6</ele></trkpt><trkpt lat="45.827587" lon="9.431694"><time>2024-03-23T08:34:08.000Z</time><ele>683.8</ele></trkpt><trkpt lat="45.827577" lon="9.431691"><time>2024-03-23T08:34:09.000Z</time><ele>684</ele></trkpt><trkpt lat="45.827572" lon="9.431691"><time>2024-03-23T08:34:10.000Z</time><ele>684</ele></trkpt><trkpt lat="45.827563" lon="9.431693"><time>2024-03-23T08:34:11.000Z</time><ele>684.4</ele></trkpt><trkpt lat="45.827561" lon="9.431697"><time>2024-03-23T08:34:12.000Z</time><ele>684.8</ele></trkpt><trkpt lat="45.82756" lon="9.4317"><time>2024-03-23T08:34:13.000Z</time><ele>684.8</ele></trkpt><trkpt lat="45.827559" lon="9.4317"><time>2024-03-23T08:34:14.000Z</time><ele>685.2</ele></trkpt><trkpt lat="45.827555" lon="9.431704"><time>2024-03-23T08:34:15.000Z</time><ele>685.2</ele></trkpt><trkpt lat="45.827551" lon="9.431703"><time>2024-03-23T08:34:16.000Z</time><ele>685.4</ele></trkpt><trkpt lat="45.827543" lon="9.431699"><time>2024-03-23T08:34:17.000Z</time><ele>685.6</ele></trkpt><trkpt lat="45.827533" lon="9.431694"><time>2024-03-23T08:34:18.000Z</time><ele>685.8</ele></trkpt><trkpt lat="45.827521" lon="9.431692"><time>2024-03-23T08:34:19.000Z</time><ele>685.8</ele></trkpt><trkpt lat="45.827518" lon="9.431691"><time>2024-03-23T08:34:20.000Z</time><ele>685.8</ele></trkpt><trkpt lat="45.827511" lon="9.431687"><time>2024-03-23T08:34:21.000Z</time><ele>686</ele></trkpt><trkpt lat="45.8275" lon="9.431682"><time>2024-03-23T08:34:22.000Z</time><ele>686.2</ele></trkpt><trkpt lat="45.82749" lon="9.431679"><time>2024-03-23T08:34:23.000Z</time><ele>686.4</ele></trkpt><trkpt lat="45.82749" lon="9.431682"><time>2024-03-23T08:34:24.000Z</time><ele>686.6</ele></trkpt><trkpt lat="45.82749" lon="9.431683"><time>2024-03-23T08:34:25.000Z</time><ele>686.8</ele></trkpt><trkpt lat="45.827481" lon="9.431678"><time>2024-03-23T08:34:26.000Z</time><ele>687</ele></trkpt><trkpt lat="45.827481" lon="9.431682"><time>2024-03-23T08:34:27.000Z</time><ele>687.2</ele></trkpt><trkpt lat="45.827474" lon="9.431685"><time>2024-03-23T08:34:28.000Z</time><ele>687.2</ele></trkpt><trkpt lat="45.827471" lon="9.431684"><time>2024-03-23T08:34:29.000Z</time><ele>687.4</ele></trkpt><trkpt lat="45.827464" lon="9.431685"><time>2024-03-23T08:34:30.000Z</time><ele>687.6</ele></trkpt><trkpt lat="45.827461" lon="9.431683"><time>2024-03-23T08:34:31.000Z</time><ele>687.6</ele></trkpt><trkpt lat="45.827453" lon="9.431688"><time>2024-03-23T08:34:32.000Z</time><ele>688</ele></trkpt><trkpt lat="45.827452" lon="9.431691"><time>2024-03-23T08:34:33.000Z</time><ele>688</ele></trkpt><trkpt lat="45.82745" lon="9.431692"><time>2024-03-23T08:34:34.000Z</time><ele>688.2</ele></trkpt><trkpt lat="45.827449" lon="9.431693"><time>2024-03-23T08:34:35.000Z</time><ele>688.2</ele></trkpt><trkpt lat="45.827446" lon="9.431696"><time>2024-03-23T08:34:36.000Z</time><ele>688.6</ele></trkpt><trkpt lat="45.827434" lon="9.4317"><time>2024-03-23T08:34:37.000Z</time><ele>688.6</ele></trkpt><trkpt lat="45.827426" lon="9.431715"><time>2024-03-23T08:34:38.000Z</time><ele>688.8</ele></trkpt><trkpt lat="45.827421" lon="9.43172"><time>2024-03-23T08:34:39.000Z</time><ele>689</ele></trkpt><trkpt lat="45.827415" lon="9.431725"><time>2024-03-23T08:34:40.000Z</time><ele>689</ele></trkpt><trkpt lat="45.827412" lon="9.431729"><time>2024-03-23T08:34:41.000Z</time><ele>689.2</ele></trkpt><trkpt lat="45.827409" lon="9.43173"><time>2024-03-23T08:34:42.000Z</time><ele>689.4</ele></trkpt><trkpt lat="45.827406" lon="9.431731"><time>2024-03-23T08:34:43.000Z</time><ele>689.6</ele></trkpt><trkpt lat="45.827405" lon="9.431732"><time>2024-03-23T08:34:44.000Z</time><ele>689.8</ele></trkpt><trkpt lat="45.827404" lon="9.431735"><time>2024-03-23T08:34:45.000Z</time><ele>689.8</ele></trkpt><trkpt lat="45.827395" lon="9.431734"><time>2024-03-23T08:34:46.000Z</time><ele>690</ele></trkpt><trkpt lat="45.827387" lon="9.431735"><time>2024-03-23T08:34:47.000Z</time><ele>690.2</ele></trkpt><trkpt lat="45.827383" lon="9.431744"><time>2024-03-23T08:34:48.000Z</time><ele>690.4</ele></trkpt><trkpt lat="45.827381" lon="9.431755"><time>2024-03-23T08:34:49.000Z</time><ele>690.6</ele></trkpt><trkpt lat="45.827378" lon="9.431765"><time>2024-03-23T08:34:50.000Z</time><ele>690.8</ele></trkpt><trkpt lat="45.827372" lon="9.431772"><time>2024-03-23T08:34:51.000Z</time><ele>691</ele></trkpt><trkpt lat="45.827369" lon="9.431776"><time>2024-03-23T08:34:52.000Z</time><ele>691.2</ele></trkpt><trkpt lat="45.827363" lon="9.431771"><time>2024-03-23T08:34:53.000Z</time><ele>691.4</ele></trkpt><trkpt lat="45.827362" lon="9.431775"><time>2024-03-23T08:34:54.000Z</time><ele>691.4</ele></trkpt><trkpt lat="45.827353" lon="9.431769"><time>2024-03-23T08:34:55.000Z</time><ele>691.6</ele></trkpt><trkpt lat="45.827351" lon="9.431768"><time>2024-03-23T08:34:56.000Z</time><ele>691.8</ele></trkpt><trkpt lat="45.827351" lon="9.431774"><time>2024-03-23T08:34:57.000Z</time><ele>691.8</ele></trkpt><trkpt lat="45.827353" lon="9.431777"><time>2024-03-23T08:34:58.000Z</time><ele>692</ele></trkpt><trkpt lat="45.827354" lon="9.431781"><time>2024-03-23T08:34:59.000Z</time><ele>692.2</ele></trkpt><trkpt lat="45.827354" lon="9.431793"><time>2024-03-23T08:35:00.000Z</time><ele>692.2</ele></trkpt><trkpt lat="45.827347" lon="9.431802"><time>2024-03-23T08:35:01.000Z</time><ele>692.4</ele></trkpt><trkpt lat="45.827348" lon="9.431803"><time>2024-03-23T08:35:02.000Z</time><ele>692.6</ele></trkpt><trkpt lat="45.82735" lon="9.4318"><time>2024-03-23T08:35:03.000Z</time><ele>692.8</ele></trkpt><trkpt lat="45.82735" lon="9.431796"><time>2024-03-23T08:35:04.000Z</time><ele>692.8</ele></trkpt><trkpt lat="45.827344" lon="9.431795"><time>2024-03-23T08:35:05.000Z</time><ele>693</ele></trkpt><trkpt lat="45.827342" lon="9.431794"><time>2024-03-23T08:35:06.000Z</time><ele>693</ele></trkpt><trkpt lat="45.827342" lon="9.431797"><time>2024-03-23T08:35:07.000Z</time><ele>693.2</ele></trkpt><trkpt lat="45.827338" lon="9.431799"><time>2024-03-23T08:35:08.000Z</time><ele>693.4</ele></trkpt><trkpt lat="45.827338" lon="9.431799"><time>2024-03-23T08:35:09.000Z</time><ele>693.6</ele></trkpt><trkpt lat="45.827338" lon="9.431799"><time>2024-03-23T08:35:10.000Z</time><ele>693.8</ele></trkpt><trkpt lat="45.827338" lon="9.431799"><time>2024-03-23T08:35:11.000Z</time><ele>694</ele></trkpt><trkpt lat="45.827338" lon="9.431799"><time>2024-03-23T08:35:12.000Z</time><ele>694.4</ele></trkpt><trkpt lat="45.827338" lon="9.431799"><time>2024-03-23T08:35:13.000Z</time><ele>694.6</ele></trkpt><trkpt lat="45.827338" lon="9.431799"><time>2024-03-23T08:35:14.000Z</time><ele>694.6</ele></trkpt><trkpt lat="45.827338" lon="9.431799"><time>2024-03-23T08:35:15.000Z</time><ele>694.8</ele></trkpt><trkpt lat="45.827338" lon="9.431799"><time>2024-03-23T08:35:16.000Z</time><ele>694.8</ele></trkpt><trkpt lat="45.827338" lon="9.431799"><time>2024-03-23T08:35:17.000Z</time><ele>695</ele></trkpt><trkpt lat="45.827338" lon="9.431799"><time>2024-03-23T08:35:18.000Z</time><ele>695</ele></trkpt><trkpt lat="45.827338" lon="9.431799"><time>2024-03-23T08:35:19.000Z</time><ele>695.2</ele></trkpt><trkpt lat="45.827338" lon="9.431799"><time>2024-03-23T08:35:20.000Z</time><ele>695.2</ele></trkpt><trkpt lat="45.827338" lon="9.431799"><time>2024-03-23T08:35:21.000Z</time><ele>695.4</ele></trkpt><trkpt lat="45.827338" lon="9.431799"><time>2024-03-23T08:35:22.000Z</time><ele>695.6</ele></trkpt><trkpt lat="45.827338" lon="9.4318"><time>2024-03-23T08:35:23.000Z</time><ele>695.6</ele></trkpt><trkpt lat="45.827332" lon="9.431801"><time>2024-03-23T08:35:24.000Z</time><ele>696.2</ele></trkpt><trkpt lat="45.82733" lon="9.431801"><time>2024-03-23T08:35:25.000Z</time><ele>696.4</ele></trkpt><trkpt lat="45.827325" lon="9.431803"><time>2024-03-23T08:35:26.000Z</time><ele>696.6</ele></trkpt><trkpt lat="45.827319" lon="9.431803"><time>2024-03-23T08:35:27.000Z</time><ele>696.6</ele></trkpt><trkpt lat="45.827316" lon="9.431803"><time>2024-03-23T08:35:28.000Z</time><ele>696.8</ele></trkpt><trkpt lat="45.827315" lon="9.431805"><time>2024-03-23T08:35:29.000Z</time><ele>696.8</ele></trkpt><trkpt lat="45.827309" lon="9.431811"><time>2024-03-23T08:35:30.000Z</time><ele>697.2</ele></trkpt><trkpt lat="45.827306" lon="9.431815"><time>2024-03-23T08:35:31.000Z</time><ele>697.4</ele></trkpt><trkpt lat="45.827303" lon="9.431817"><time>2024-03-23T08:35:32.000Z</time><ele>697.4</ele></trkpt><trkpt lat="45.8273" lon="9.431818"><time>2024-03-23T08:35:33.000Z</time><ele>697.8</ele></trkpt><trkpt lat="45.827297" lon="9.431818"><time>2024-03-23T08:35:34.000Z</time><ele>698</ele></trkpt><trkpt lat="45.827293" lon="9.431818"><time>2024-03-23T08:35:35.000Z</time><ele>698.2</ele></trkpt><trkpt lat="45.827283" lon="9.431823"><time>2024-03-23T08:35:36.000Z</time><ele>698.4</ele></trkpt><trkpt lat="45.827267" lon="9.431827"><time>2024-03-23T08:35:37.000Z</time><ele>698.4</ele></trkpt><trkpt lat="45.827256" lon="9.431839"><time>2024-03-23T08:35:38.000Z</time><ele>698.6</ele></trkpt><trkpt lat="45.82724" lon="9.431848"><time>2024-03-23T08:35:39.000Z</time><ele>698.8</ele></trkpt><trkpt lat="45.827225" lon="9.431851"><time>2024-03-23T08:35:40.000Z</time><ele>699</ele></trkpt><trkpt lat="45.827205" lon="9.43186"><time>2024-03-23T08:35:41.000Z</time><ele>699.2</ele></trkpt><trkpt lat="45.827185" lon="9.431868"><time>2024-03-23T08:35:42.000Z</time><ele>699.2</ele></trkpt><trkpt lat="45.827173" lon="9.431875"><time>2024-03-23T08:35:43.000Z</time><ele>699.4</ele></trkpt><trkpt lat="45.827164" lon="9.431879"><time>2024-03-23T08:35:44.000Z</time><ele>699.6</ele></trkpt><trkpt lat="45.827149" lon="9.431882"><time>2024-03-23T08:35:45.000Z</time><ele>699.8</ele></trkpt><trkpt lat="45.827146" lon="9.431877"><time>2024-03-23T08:35:46.000Z</time><ele>700</ele></trkpt><trkpt lat="45.827141" lon="9.431872"><time>2024-03-23T08:35:47.000Z</time><ele>700</ele></trkpt><trkpt lat="45.827138" lon="9.431872"><time>2024-03-23T08:35:48.000Z</time><ele>700.2</ele></trkpt><trkpt lat="45.82713" lon="9.431866"><time>2024-03-23T08:35:49.000Z</time><ele>700.4</ele></trkpt><trkpt lat="45.827127" lon="9.431865"><time>2024-03-23T08:35:50.000Z</time><ele>700.4</ele></trkpt><trkpt lat="45.827128" lon="9.431868"><time>2024-03-23T08:35:51.000Z</time><ele>700.6</ele></trkpt><trkpt lat="45.827129" lon="9.431871"><time>2024-03-23T08:35:52.000Z</time><ele>700.8</ele></trkpt><trkpt lat="45.827129" lon="9.431871"><time>2024-03-23T08:35:53.000Z</time><ele>701</ele></trkpt><trkpt lat="45.827128" lon="9.431868"><time>2024-03-23T08:35:54.000Z</time><ele>701.2</ele></trkpt><trkpt lat="45.827128" lon="9.431866"><time>2024-03-23T08:35:55.000Z</time><ele>701.2</ele></trkpt><trkpt lat="45.827124" lon="9.431868"><time>2024-03-23T08:35:56.000Z</time><ele>701.4</ele></trkpt><trkpt lat="45.827117" lon="9.431871"><time>2024-03-23T08:35:57.000Z</time><ele>701.4</ele></trkpt><trkpt lat="45.827108" lon="9.431873"><time>2024-03-23T08:35:58.000Z</time><ele>701.6</ele></trkpt><trkpt lat="45.827104" lon="9.431875"><time>2024-03-23T08:35:59.000Z</time><ele>701.8</ele></trkpt><trkpt lat="45.827104" lon="9.431878"><time>2024-03-23T08:36:00.000Z</time><ele>702</ele></trkpt><trkpt lat="45.827097" lon="9.431873"><time>2024-03-23T08:36:01.000Z</time><ele>702</ele></trkpt><trkpt lat="45.827089" lon="9.431872"><time>2024-03-23T08:36:02.000Z</time><ele>702.2</ele></trkpt><trkpt lat="45.827082" lon="9.431872"><time>2024-03-23T08:36:03.000Z</time><ele>702.4</ele></trkpt><trkpt lat="45.82707" lon="9.431878"><time>2024-03-23T08:36:04.000Z</time><ele>702.6</ele></trkpt><trkpt lat="45.827065" lon="9.431879"><time>2024-03-23T08:36:05.000Z</time><ele>702.6</ele></trkpt><trkpt lat="45.827057" lon="9.431883"><time>2024-03-23T08:36:06.000Z</time><ele>702.8</ele></trkpt><trkpt lat="45.827049" lon="9.431888"><time>2024-03-23T08:36:07.000Z</time><ele>702.8</ele></trkpt><trkpt lat="45.827046" lon="9.431893"><time>2024-03-23T08:36:08.000Z</time><ele>703</ele></trkpt><trkpt lat="45.827043" lon="9.431896"><time>2024-03-23T08:36:09.000Z</time><ele>703.4</ele></trkpt><trkpt lat="45.827039" lon="9.431898"><time>2024-03-23T08:36:10.000Z</time><ele>703.6</ele></trkpt><trkpt lat="45.827027" lon="9.4319"><time>2024-03-23T08:36:11.000Z</time><ele>703.6</ele></trkpt><trkpt lat="45.827022" lon="9.431904"><time>2024-03-23T08:36:12.000Z</time><ele>703.8</ele></trkpt><trkpt lat="45.827019" lon="9.431906"><time>2024-03-23T08:36:13.000Z</time><ele>704</ele></trkpt><trkpt lat="45.827014" lon="9.431903"><time>2024-03-23T08:36:14.000Z</time><ele>704</ele></trkpt><trkpt lat="45.827011" lon="9.431909"><time>2024-03-23T08:36:15.000Z</time><ele>704.2</ele></trkpt><trkpt lat="45.82701" lon="9.431914"><time>2024-03-23T08:36:16.000Z</time><ele>704.4</ele></trkpt><trkpt lat="45.827004" lon="9.431916"><time>2024-03-23T08:36:17.000Z</time><ele>704.6</ele></trkpt><trkpt lat="45.826998" lon="9.431917"><time>2024-03-23T08:36:18.000Z</time><ele>704.6</ele></trkpt><trkpt lat="45.826994" lon="9.431922"><time>2024-03-23T08:36:19.000Z</time><ele>704.8</ele></trkpt><trkpt lat="45.826993" lon="9.431923"><time>2024-03-23T08:36:20.000Z</time><ele>704.8</ele></trkpt><trkpt lat="45.826993" lon="9.431924"><time>2024-03-23T08:36:21.000Z</time><ele>705</ele></trkpt><trkpt lat="45.826993" lon="9.431924"><time>2024-03-23T08:36:22.000Z</time><ele>705.2</ele></trkpt><trkpt lat="45.82699" lon="9.431919"><time>2024-03-23T08:36:23.000Z</time><ele>705.4</ele></trkpt><trkpt lat="45.826989" lon="9.431918"><time>2024-03-23T08:36:24.000Z</time><ele>705.4</ele></trkpt><trkpt lat="45.826983" lon="9.431917"><time>2024-03-23T08:36:25.000Z</time><ele>705.8</ele></trkpt><trkpt lat="45.826981" lon="9.431921"><time>2024-03-23T08:36:26.000Z</time><ele>705.8</ele></trkpt><trkpt lat="45.826975" lon="9.431929"><time>2024-03-23T08:36:27.000Z</time><ele>706</ele></trkpt><trkpt lat="45.82697" lon="9.431942"><time>2024-03-23T08:36:28.000Z</time><ele>706</ele></trkpt><trkpt lat="45.826967" lon="9.431946"><time>2024-03-23T08:36:29.000Z</time><ele>706</ele></trkpt><trkpt lat="45.826966" lon="9.431957"><time>2024-03-23T08:36:30.000Z</time><ele>706.2</ele></trkpt><trkpt lat="45.826965" lon="9.431962"><time>2024-03-23T08:36:31.000Z</time><ele>706.4</ele></trkpt><trkpt lat="45.826961" lon="9.431967"><time>2024-03-23T08:36:32.000Z</time><ele>706.4</ele></trkpt><trkpt lat="45.826958" lon="9.431967"><time>2024-03-23T08:36:33.000Z</time><ele>706.6</ele></trkpt><trkpt lat="45.826958" lon="9.431968"><time>2024-03-23T08:36:34.000Z</time><ele>706.8</ele></trkpt><trkpt lat="45.826958" lon="9.431971"><time>2024-03-23T08:36:35.000Z</time><ele>707</ele></trkpt><trkpt lat="45.826958" lon="9.431972"><time>2024-03-23T08:36:36.000Z</time><ele>707</ele></trkpt><trkpt lat="45.82695" lon="9.431968"><time>2024-03-23T08:36:37.000Z</time><ele>707.4</ele></trkpt><trkpt lat="45.826937" lon="9.431957"><time>2024-03-23T08:36:38.000Z</time><ele>707.8</ele></trkpt><trkpt lat="45.826934" lon="9.431958"><time>2024-03-23T08:36:39.000Z</time><ele>708</ele></trkpt><trkpt lat="45.826926" lon="9.431968"><time>2024-03-23T08:36:40.000Z</time><ele>708.2</ele></trkpt><trkpt lat="45.826926" lon="9.431969"><time>2024-03-23T08:36:41.000Z</time><ele>708.2</ele></trkpt><trkpt lat="45.826928" lon="9.431968"><time>2024-03-23T08:36:42.000Z</time><ele>708.4</ele></trkpt><trkpt lat="45.82693" lon="9.43197"><time>2024-03-23T08:36:43.000Z</time><ele>708.6</ele></trkpt><trkpt lat="45.82693" lon="9.431972"><time>2024-03-23T08:36:44.000Z</time><ele>708.8</ele></trkpt><trkpt lat="45.826929" lon="9.431972"><time>2024-03-23T08:36:45.000Z</time><ele>709</ele></trkpt><trkpt lat="45.826929" lon="9.431972"><time>2024-03-23T08:36:46.000Z</time><ele>709</ele></trkpt><trkpt lat="45.826929" lon="9.431972"><time>2024-03-23T08:36:47.000Z</time><ele>709.2</ele></trkpt><trkpt lat="45.826929" lon="9.431972"><time>2024-03-23T08:36:48.000Z</time><ele>709.2</ele></trkpt><trkpt lat="45.826929" lon="9.431972"><time>2024-03-23T08:36:49.000Z</time><ele>709.4</ele></trkpt><trkpt lat="45.826929" lon="9.431972"><time>2024-03-23T08:36:50.000Z</time><ele>709.6</ele></trkpt><trkpt lat="45.826929" lon="9.431972"><time>2024-03-23T08:36:51.000Z</time><ele>709.8</ele></trkpt><trkpt lat="45.826929" lon="9.431972"><time>2024-03-23T08:36:52.000Z</time><ele>710</ele></trkpt><trkpt lat="45.826929" lon="9.431972"><time>2024-03-23T08:36:53.000Z</time><ele>710.2</ele></trkpt><trkpt lat="45.826929" lon="9.431972"><time>2024-03-23T08:36:54.000Z</time><ele>710.4</ele></trkpt><trkpt lat="45.826929" lon="9.431972"><time>2024-03-23T08:36:55.000Z</time><ele>710.6</ele></trkpt><trkpt lat="45.826929" lon="9.431972"><time>2024-03-23T08:36:56.000Z</time><ele>710.8</ele></trkpt><trkpt lat="45.826929" lon="9.431972"><time>2024-03-23T08:36:57.000Z</time><ele>710.8</ele></trkpt><trkpt lat="45.826928" lon="9.431972"><time>2024-03-23T08:36:58.000Z</time><ele>711</ele></trkpt><trkpt lat="45.826926" lon="9.431972"><time>2024-03-23T08:36:59.000Z</time><ele>711</ele></trkpt><trkpt lat="45.826926" lon="9.431972"><time>2024-03-23T08:37:00.000Z</time><ele>711.2</ele></trkpt><trkpt lat="45.826925" lon="9.431976"><time>2024-03-23T08:37:01.000Z</time><ele>711.2</ele></trkpt><trkpt lat="45.826924" lon="9.431977"><time>2024-03-23T08:37:02.000Z</time><ele>711.4</ele></trkpt><trkpt lat="45.826924" lon="9.431978"><time>2024-03-23T08:37:03.000Z</time><ele>711.4</ele></trkpt><trkpt lat="45.82692" lon="9.431981"><time>2024-03-23T08:37:04.000Z</time><ele>711.6</ele></trkpt><trkpt lat="45.826916" lon="9.431982"><time>2024-03-23T08:37:05.000Z</time><ele>711.8</ele></trkpt><trkpt lat="45.826915" lon="9.431988"><time>2024-03-23T08:37:06.000Z</time><ele>711.8</ele></trkpt><trkpt lat="45.826914" lon="9.431992"><time>2024-03-23T08:37:07.000Z</time><ele>712</ele></trkpt><trkpt lat="45.826913" lon="9.431998"><time>2024-03-23T08:37:08.000Z</time><ele>712.2</ele></trkpt><trkpt lat="45.826907" lon="9.432002"><time>2024-03-23T08:37:09.000Z</time><ele>712.4</ele></trkpt><trkpt lat="45.826905" lon="9.432006"><time>2024-03-23T08:37:10.000Z</time><ele>712.6</ele></trkpt><trkpt lat="45.826902" lon="9.432009"><time>2024-03-23T08:37:11.000Z</time><ele>712.8</ele></trkpt><trkpt lat="45.826899" lon="9.43201"><time>2024-03-23T08:37:12.000Z</time><ele>712.8</ele></trkpt><trkpt lat="45.826897" lon="9.43201"><time>2024-03-23T08:37:13.000Z</time><ele>712.8</ele></trkpt><trkpt lat="45.826897" lon="9.432011"><time>2024-03-23T08:37:14.000Z</time><ele>713.2</ele></trkpt><trkpt lat="45.826895" lon="9.432012"><time>2024-03-23T08:37:15.000Z</time><ele>713.4</ele></trkpt><trkpt lat="45.826894" lon="9.432012"><time>2024-03-23T08:37:16.000Z</time><ele>713.4</ele></trkpt><trkpt lat="45.826894" lon="9.432014"><time>2024-03-23T08:37:17.000Z</time><ele>713.6</ele></trkpt><trkpt lat="45.826893" lon="9.432016"><time>2024-03-23T08:37:18.000Z</time><ele>713.8</ele></trkpt><trkpt lat="45.826892" lon="9.432017"><time>2024-03-23T08:37:19.000Z</time><ele>714</ele></trkpt><trkpt lat="45.826892" lon="9.432018"><time>2024-03-23T08:37:20.000Z</time><ele>714.2</ele></trkpt><trkpt lat="45.826892" lon="9.432018"><time>2024-03-23T08:37:21.000Z</time><ele>714.4</ele></trkpt><trkpt lat="45.826891" lon="9.432019"><time>2024-03-23T08:37:22.000Z</time><ele>714.8</ele></trkpt><trkpt lat="45.826891" lon="9.43202"><time>2024-03-23T08:37:23.000Z</time><ele>715.2</ele></trkpt><trkpt lat="45.826888" lon="9.432022"><time>2024-03-23T08:37:24.000Z</time><ele>715.2</ele></trkpt><trkpt lat="45.826886" lon="9.432023"><time>2024-03-23T08:37:25.000Z</time><ele>715.4</ele></trkpt><trkpt lat="45.826885" lon="9.432023"><time>2024-03-23T08:37:26.000Z</time><ele>715.6</ele></trkpt><trkpt lat="45.826885" lon="9.432028"><time>2024-03-23T08:37:27.000Z</time><ele>715.6</ele></trkpt><trkpt lat="45.826884" lon="9.43203"><time>2024-03-23T08:37:28.000Z</time><ele>715.8</ele></trkpt><trkpt lat="45.826883" lon="9.432033"><time>2024-03-23T08:37:29.000Z</time><ele>715.8</ele></trkpt><trkpt lat="45.826882" lon="9.432034"><time>2024-03-23T08:37:30.000Z</time><ele>715.8</ele></trkpt><trkpt lat="45.826881" lon="9.432036"><time>2024-03-23T08:37:31.000Z</time><ele>716</ele></trkpt><trkpt lat="45.82688" lon="9.432036"><time>2024-03-23T08:37:32.000Z</time><ele>716.2</ele></trkpt><trkpt lat="45.826879" lon="9.432038"><time>2024-03-23T08:37:33.000Z</time><ele>716.4</ele></trkpt><trkpt lat="45.826875" lon="9.432039"><time>2024-03-23T08:37:34.000Z</time><ele>716.4</ele></trkpt><trkpt lat="45.826869" lon="9.43204"><time>2024-03-23T08:37:35.000Z</time><ele>716.6</ele></trkpt><trkpt lat="45.826868" lon="9.432041"><time>2024-03-23T08:37:36.000Z</time><ele>716.6</ele></trkpt><trkpt lat="45.826865" lon="9.432043"><time>2024-03-23T08:37:37.000Z</time><ele>716.8</ele></trkpt><trkpt lat="45.82686" lon="9.432049"><time>2024-03-23T08:37:38.000Z</time><ele>716.8</ele></trkpt><trkpt lat="45.826857" lon="9.432051"><time>2024-03-23T08:37:39.000Z</time><ele>716.8</ele></trkpt><trkpt lat="45.826857" lon="9.432051"><time>2024-03-23T08:37:40.000Z</time><ele>717.2</ele></trkpt><trkpt lat="45.826855" lon="9.432053"><time>2024-03-23T08:37:41.000Z</time><ele>717.4</ele></trkpt><trkpt lat="45.826854" lon="9.432053"><time>2024-03-23T08:37:42.000Z</time><ele>717.6</ele></trkpt><trkpt lat="45.826851" lon="9.432059"><time>2024-03-23T08:37:43.000Z</time><ele>717.6</ele></trkpt><trkpt lat="45.82685" lon="9.432061"><time>2024-03-23T08:37:44.000Z</time><ele>717.8</ele></trkpt><trkpt lat="45.826843" lon="9.432064"><time>2024-03-23T08:37:45.000Z</time><ele>718</ele></trkpt><trkpt lat="45.826819" lon="9.432068"><time>2024-03-23T08:37:46.000Z</time><ele>718.2</ele></trkpt><trkpt lat="45.826802" lon="9.432065"><time>2024-03-23T08:37:47.000Z</time><ele>718.4</ele></trkpt><trkpt lat="45.826794" lon="9.432069"><time>2024-03-23T08:37:48.000Z</time><ele>718.4</ele></trkpt><trkpt lat="45.826787" lon="9.432073"><time>2024-03-23T08:37:49.000Z</time><ele>718.6</ele></trkpt><trkpt lat="45.826777" lon="9.432085"><time>2024-03-23T08:37:50.000Z</time><ele>718.8</ele></trkpt><trkpt lat="45.826769" lon="9.432092"><time>2024-03-23T08:37:51.000Z</time><ele>719</ele></trkpt><trkpt lat="45.826761" lon="9.432098"><time>2024-03-23T08:37:52.000Z</time><ele>719.2</ele></trkpt><trkpt lat="45.826752" lon="9.432111"><time>2024-03-23T08:37:53.000Z</time><ele>719.4</ele></trkpt><trkpt lat="45.826743" lon="9.43212"><time>2024-03-23T08:37:54.000Z</time><ele>719.6</ele></trkpt><trkpt lat="45.82673" lon="9.432117"><time>2024-03-23T08:37:55.000Z</time><ele>719.8</ele></trkpt><trkpt lat="45.826719" lon="9.432112"><time>2024-03-23T08:37:56.000Z</time><ele>720</ele></trkpt><trkpt lat="45.826716" lon="9.43211"><time>2024-03-23T08:37:57.000Z</time><ele>720</ele></trkpt><trkpt lat="45.826709" lon="9.432106"><time>2024-03-23T08:37:58.000Z</time><ele>720</ele></trkpt><trkpt lat="45.826698" lon="9.432104"><time>2024-03-23T08:37:59.000Z</time><ele>720.2</ele></trkpt><trkpt lat="45.826692" lon="9.432114"><time>2024-03-23T08:38:00.000Z</time><ele>720.4</ele></trkpt><trkpt lat="45.826689" lon="9.432125"><time>2024-03-23T08:38:01.000Z</time><ele>720.6</ele></trkpt><trkpt lat="45.826687" lon="9.432129"><time>2024-03-23T08:38:02.000Z</time><ele>720.8</ele></trkpt><trkpt lat="45.826684" lon="9.432132"><time>2024-03-23T08:38:03.000Z</time><ele>721</ele></trkpt><trkpt lat="45.826673" lon="9.432137"><time>2024-03-23T08:38:04.000Z</time><ele>721.2</ele></trkpt><trkpt lat="45.826669" lon="9.43214"><time>2024-03-23T08:38:05.000Z</time><ele>721.4</ele></trkpt><trkpt lat="45.826669" lon="9.432141"><time>2024-03-23T08:38:06.000Z</time><ele>721.8</ele></trkpt><trkpt lat="45.82667" lon="9.432142"><time>2024-03-23T08:38:07.000Z</time><ele>721.8</ele></trkpt><trkpt lat="45.82667" lon="9.432144"><time>2024-03-23T08:38:08.000Z</time><ele>722</ele></trkpt><trkpt lat="45.826674" lon="9.432144"><time>2024-03-23T08:38:09.000Z</time><ele>722</ele></trkpt><trkpt lat="45.826677" lon="9.432141"><time>2024-03-23T08:38:10.000Z</time><ele>722.2</ele></trkpt><trkpt lat="45.826671" lon="9.432138"><time>2024-03-23T08:38:11.000Z</time><ele>722.2</ele></trkpt><trkpt lat="45.82667" lon="9.432136"><time>2024-03-23T08:38:12.000Z</time><ele>722.2</ele></trkpt><trkpt lat="45.826668" lon="9.432137"><time>2024-03-23T08:38:13.000Z</time><ele>722.4</ele></trkpt><trkpt lat="45.826668" lon="9.432138"><time>2024-03-23T08:38:14.000Z</time><ele>722.4</ele></trkpt><trkpt lat="45.826656" lon="9.432141"><time>2024-03-23T08:38:15.000Z</time><ele>722.4</ele></trkpt><trkpt lat="45.826655" lon="9.432141"><time>2024-03-23T08:38:16.000Z</time><ele>722.6</ele></trkpt><trkpt lat="45.826653" lon="9.432151"><time>2024-03-23T08:38:17.000Z</time><ele>723</ele></trkpt><trkpt lat="45.82665" lon="9.432152"><time>2024-03-23T08:38:18.000Z</time><ele>723.2</ele></trkpt><trkpt lat="45.826651" lon="9.432155"><time>2024-03-23T08:38:19.000Z</time><ele>723.2</ele></trkpt><trkpt lat="45.826654" lon="9.432158"><time>2024-03-23T08:38:20.000Z</time><ele>723.4</ele></trkpt><trkpt lat="45.826657" lon="9.432164"><time>2024-03-23T08:38:21.000Z</time><ele>723.6</ele></trkpt><trkpt lat="45.82666" lon="9.432176"><time>2024-03-23T08:38:22.000Z</time><ele>723.6</ele></trkpt><trkpt lat="45.826662" lon="9.43218"><time>2024-03-23T08:38:23.000Z</time><ele>724</ele></trkpt><trkpt lat="45.826663" lon="9.432182"><time>2024-03-23T08:38:24.000Z</time><ele>724.2</ele></trkpt><trkpt lat="45.826656" lon="9.432184"><time>2024-03-23T08:38:25.000Z</time><ele>724.4</ele></trkpt><trkpt lat="45.826655" lon="9.432185"><time>2024-03-23T08:38:26.000Z</time><ele>724.6</ele></trkpt><trkpt lat="45.826655" lon="9.432186"><time>2024-03-23T08:38:27.000Z</time><ele>724.6</ele></trkpt><trkpt lat="45.826652" lon="9.432189"><time>2024-03-23T08:38:28.000Z</time><ele>724.8</ele></trkpt><trkpt lat="45.826648" lon="9.432192"><time>2024-03-23T08:38:29.000Z</time><ele>725</ele></trkpt><trkpt lat="45.826645" lon="9.432201"><time>2024-03-23T08:38:30.000Z</time><ele>725.2</ele></trkpt><trkpt lat="45.826644" lon="9.432205"><time>2024-03-23T08:38:31.000Z</time><ele>725.2</ele></trkpt><trkpt lat="45.826648" lon="9.43222"><time>2024-03-23T08:38:32.000Z</time><ele>725.4</ele></trkpt><trkpt lat="45.826648" lon="9.432224"><time>2024-03-23T08:38:33.000Z</time><ele>725.4</ele></trkpt><trkpt lat="45.826647" lon="9.432228"><time>2024-03-23T08:38:34.000Z</time><ele>725.6</ele></trkpt><trkpt lat="45.826648" lon="9.432233"><time>2024-03-23T08:38:35.000Z</time><ele>725.8</ele></trkpt><trkpt lat="45.826648" lon="9.432234"><time>2024-03-23T08:38:36.000Z</time><ele>725.8</ele></trkpt><trkpt lat="45.826645" lon="9.432234"><time>2024-03-23T08:38:37.000Z</time><ele>726</ele></trkpt><trkpt lat="45.826642" lon="9.432236"><time>2024-03-23T08:38:38.000Z</time><ele>726</ele></trkpt><trkpt lat="45.826639" lon="9.432239"><time>2024-03-23T08:38:39.000Z</time><ele>726</ele></trkpt><trkpt lat="45.826635" lon="9.432236"><time>2024-03-23T08:38:40.000Z</time><ele>726.2</ele></trkpt><trkpt lat="45.826629" lon="9.432233"><time>2024-03-23T08:38:41.000Z</time><ele>726.6</ele></trkpt><trkpt lat="45.826625" lon="9.432233"><time>2024-03-23T08:38:42.000Z</time><ele>726.8</ele></trkpt><trkpt lat="45.82662" lon="9.432229"><time>2024-03-23T08:38:43.000Z</time><ele>727</ele></trkpt><trkpt lat="45.826617" lon="9.432229"><time>2024-03-23T08:38:44.000Z</time><ele>727.2</ele></trkpt><trkpt lat="45.826612" lon="9.432225"><time>2024-03-23T08:38:45.000Z</time><ele>727.4</ele></trkpt><trkpt lat="45.826608" lon="9.432224"><time>2024-03-23T08:38:46.000Z</time><ele>727.6</ele></trkpt><trkpt lat="45.826603" lon="9.432222"><time>2024-03-23T08:38:47.000Z</time><ele>727.8</ele></trkpt><trkpt lat="45.826601" lon="9.43223"><time>2024-03-23T08:38:48.000Z</time><ele>727.8</ele></trkpt><trkpt lat="45.826602" lon="9.432234"><time>2024-03-23T08:38:49.000Z</time><ele>728</ele></trkpt><trkpt lat="45.826601" lon="9.432238"><time>2024-03-23T08:38:50.000Z</time><ele>728.2</ele></trkpt><trkpt lat="45.826599" lon="9.43224"><time>2024-03-23T08:38:51.000Z</time><ele>728.2</ele></trkpt><trkpt lat="45.826599" lon="9.43224"><time>2024-03-23T08:38:52.000Z</time><ele>728.2</ele></trkpt><trkpt lat="45.826599" lon="9.432239"><time>2024-03-23T08:38:53.000Z</time><ele>728.4</ele></trkpt><trkpt lat="45.826599" lon="9.432242"><time>2024-03-23T08:38:54.000Z</time><ele>728.4</ele></trkpt><trkpt lat="45.826598" lon="9.432242"><time>2024-03-23T08:38:55.000Z</time><ele>728.4</ele></trkpt><trkpt lat="45.82659" lon="9.432242"><time>2024-03-23T08:38:56.000Z</time><ele>728.4</ele></trkpt><trkpt lat="45.826588" lon="9.432244"><time>2024-03-23T08:38:57.000Z</time><ele>728.4</ele></trkpt><trkpt lat="45.826588" lon="9.432244"><time>2024-03-23T08:38:58.000Z</time><ele>728.4</ele></trkpt><trkpt lat="45.826587" lon="9.432243"><time>2024-03-23T08:38:59.000Z</time><ele>728.4</ele></trkpt><trkpt lat="45.826588" lon="9.432243"><time>2024-03-23T08:39:00.000Z</time><ele>728.4</ele></trkpt><trkpt lat="45.826588" lon="9.432243"><time>2024-03-23T08:39:01.000Z</time><ele>728.6</ele></trkpt><trkpt lat="45.826588" lon="9.432243"><time>2024-03-23T08:39:02.000Z</time><ele>728.6</ele></trkpt><trkpt lat="45.826588" lon="9.432243"><time>2024-03-23T08:39:03.000Z</time><ele>728.6</ele></trkpt><trkpt lat="45.826588" lon="9.432243"><time>2024-03-23T08:39:04.000Z</time><ele>728.6</ele></trkpt><trkpt lat="45.826588" lon="9.432243"><time>2024-03-23T08:39:05.000Z</time><ele>728.6</ele></trkpt><trkpt lat="45.826588" lon="9.432243"><time>2024-03-23T08:39:06.000Z</time><ele>728.6</ele></trkpt><trkpt lat="45.826588" lon="9.432243"><time>2024-03-23T08:39:07.000Z</time><ele>728.4</ele></trkpt><trkpt lat="45.826588" lon="9.432243"><time>2024-03-23T08:39:08.000Z</time><ele>728.4</ele></trkpt><trkpt lat="45.826588" lon="9.432243"><time>2024-03-23T08:39:09.000Z</time><ele>728.4</ele></trkpt><trkpt lat="45.826588" lon="9.432243"><time>2024-03-23T08:39:10.000Z</time><ele>728.2</ele></trkpt><trkpt lat="45.82659" lon="9.432243"><time>2024-03-23T08:39:11.000Z</time><ele>728.2</ele></trkpt><trkpt lat="45.826592" lon="9.432243"><time>2024-03-23T08:39:12.000Z</time><ele>728.2</ele></trkpt><trkpt lat="45.826593" lon="9.432243"><time>2024-03-23T08:39:13.000Z</time><ele>728.2</ele></trkpt><trkpt lat="45.826594" lon="9.432243"><time>2024-03-23T08:39:14.000Z</time><ele>728.2</ele></trkpt><trkpt lat="45.826594" lon="9.432243"><time>2024-03-23T08:39:15.000Z</time><ele>728.2</ele></trkpt><trkpt lat="45.826595" lon="9.432243"><time>2024-03-23T08:39:16.000Z</time><ele>728.2</ele></trkpt><trkpt lat="45.826595" lon="9.432243"><time>2024-03-23T08:39:17.000Z</time><ele>728</ele></trkpt><trkpt lat="45.826595" lon="9.432242"><time>2024-03-23T08:39:18.000Z</time><ele>728</ele></trkpt><trkpt lat="45.826595" lon="9.432242"><time>2024-03-23T08:39:19.000Z</time><ele>728</ele></trkpt><trkpt lat="45.826595" lon="9.432242"><time>2024-03-23T08:39:20.000Z</time><ele>728.2</ele></trkpt><trkpt lat="45.826595" lon="9.432242"><time>2024-03-23T08:39:21.000Z</time><ele>728.2</ele></trkpt><trkpt lat="45.826595" lon="9.432242"><time>2024-03-23T08:39:22.000Z</time><ele>728.2</ele></trkpt><trkpt lat="45.826595" lon="9.432242"><time>2024-03-23T08:39:23.000Z</time><ele>728.4</ele></trkpt><trkpt lat="45.826595" lon="9.432242"><time>2024-03-23T08:39:24.000Z</time><ele>728.4</ele></trkpt><trkpt lat="45.826594" lon="9.432242"><time>2024-03-23T08:39:25.000Z</time><ele>728.4</ele></trkpt><trkpt lat="45.826594" lon="9.432242"><time>2024-03-23T08:39:26.000Z</time><ele>728.4</ele></trkpt><trkpt lat="45.826594" lon="9.432242"><time>2024-03-23T08:39:27.000Z</time><ele>728.4</ele></trkpt><trkpt lat="45.826594" lon="9.432241"><time>2024-03-23T08:39:28.000Z</time><ele>728.6</ele></trkpt><trkpt lat="45.826594" lon="9.43224"><time>2024-03-23T08:39:29.000Z</time><ele>728.4</ele></trkpt><trkpt lat="45.826594" lon="9.43224"><time>2024-03-23T08:39:30.000Z</time><ele>728.4</ele></trkpt><trkpt lat="45.826594" lon="9.43224"><time>2024-03-23T08:39:31.000Z</time><ele>728.4</ele></trkpt><trkpt lat="45.826595" lon="9.43224"><time>2024-03-23T08:39:32.000Z</time><ele>728.4</ele></trkpt><trkpt lat="45.826595" lon="9.43224"><time>2024-03-23T08:39:33.000Z</time><ele>728.4</ele></trkpt><trkpt lat="45.826594" lon="9.43224"><time>2024-03-23T08:39:34.000Z</time><ele>728.6</ele></trkpt><trkpt lat="45.826594" lon="9.43224"><time>2024-03-23T08:39:35.000Z</time><ele>728.6</ele></trkpt><trkpt lat="45.826594" lon="9.432239"><time>2024-03-23T08:39:36.000Z</time><ele>728.6</ele></trkpt><trkpt lat="45.826594" lon="9.432238"><time>2024-03-23T08:39:37.000Z</time><ele>728.6</ele></trkpt><trkpt lat="45.826594" lon="9.432237"><time>2024-03-23T08:39:38.000Z</time><ele>728.6</ele></trkpt><trkpt lat="45.826593" lon="9.432236"><time>2024-03-23T08:39:39.000Z</time><ele>728.6</ele></trkpt><trkpt lat="45.826593" lon="9.432234"><time>2024-03-23T08:39:40.000Z</time><ele>728.6</ele></trkpt><trkpt lat="45.826592" lon="9.432231"><time>2024-03-23T08:39:41.000Z</time><ele>728.6</ele></trkpt><trkpt lat="45.826591" lon="9.432231"><time>2024-03-23T08:39:42.000Z</time><ele>728.4</ele></trkpt><trkpt lat="45.826591" lon="9.43223"><time>2024-03-23T08:39:43.000Z</time><ele>728.4</ele></trkpt><trkpt lat="45.826591" lon="9.43223"><time>2024-03-23T08:39:44.000Z</time><ele>728.4</ele></trkpt><trkpt lat="45.826589" lon="9.43223"><time>2024-03-23T08:39:45.000Z</time><ele>728.4</ele></trkpt><trkpt lat="45.826589" lon="9.432229"><time>2024-03-23T08:39:46.000Z</time><ele>728.4</ele></trkpt><trkpt lat="45.826589" lon="9.432229"><time>2024-03-23T08:39:47.000Z</time><ele>728.4</ele></trkpt><trkpt lat="45.826588" lon="9.432229"><time>2024-03-23T08:39:48.000Z</time><ele>728.4</ele></trkpt><trkpt lat="45.826588" lon="9.432229"><time>2024-03-23T08:39:49.000Z</time><ele>728.4</ele></trkpt><trkpt lat="45.826588" lon="9.432228"><time>2024-03-23T08:39:50.000Z</time><ele>728.2</ele></trkpt><trkpt lat="45.826587" lon="9.432228"><time>2024-03-23T08:39:51.000Z</time><ele>728.2</ele></trkpt><trkpt lat="45.826586" lon="9.432228"><time>2024-03-23T08:39:52.000Z</time><ele>728.2</ele></trkpt><trkpt lat="45.826586" lon="9.432228"><time>2024-03-23T08:39:53.000Z</time><ele>728.2</ele></trkpt><trkpt lat="45.826586" lon="9.432227"><time>2024-03-23T08:39:54.000Z</time><ele>728.2</ele></trkpt><trkpt lat="45.826586" lon="9.432227"><time>2024-03-23T08:39:55.000Z</time><ele>728.2</ele></trkpt><trkpt lat="45.826586" lon="9.432227"><time>2024-03-23T08:39:56.000Z</time><ele>728.4</ele></trkpt><trkpt lat="45.826585" lon="9.432227"><time>2024-03-23T08:39:57.000Z</time><ele>728.4</ele></trkpt><trkpt lat="45.826584" lon="9.432228"><time>2024-03-23T08:39:58.000Z</time><ele>728.4</ele></trkpt><trkpt lat="45.826583" lon="9.432228"><time>2024-03-23T08:39:59.000Z</time><ele>728.8</ele></trkpt><trkpt lat="45.826583" lon="9.432228"><time>2024-03-23T08:40:00.000Z</time><ele>728.8</ele></trkpt><trkpt lat="45.826581" lon="9.432228"><time>2024-03-23T08:40:01.000Z</time><ele>729</ele></trkpt><trkpt lat="45.826581" lon="9.432229"><time>2024-03-23T08:40:02.000Z</time><ele>729</ele></trkpt><trkpt lat="45.826581" lon="9.432229"><time>2024-03-23T08:40:03.000Z</time><ele>729.4</ele></trkpt><trkpt lat="45.826581" lon="9.43223"><time>2024-03-23T08:40:04.000Z</time><ele>729.6</ele></trkpt><trkpt lat="45.82658" lon="9.43223"><time>2024-03-23T08:40:05.000Z</time><ele>729.8</ele></trkpt><trkpt lat="45.826579" lon="9.43223"><time>2024-03-23T08:40:06.000Z</time><ele>729.8</ele></trkpt><trkpt lat="45.826575" lon="9.43223"><time>2024-03-23T08:40:07.000Z</time><ele>730</ele></trkpt><trkpt lat="45.826572" lon="9.432231"><time>2024-03-23T08:40:08.000Z</time><ele>730.2</ele></trkpt><trkpt lat="45.826569" lon="9.432236"><time>2024-03-23T08:40:09.000Z</time><ele>730.4</ele></trkpt><trkpt lat="45.826567" lon="9.432242"><time>2024-03-23T08:40:10.000Z</time><ele>730.6</ele></trkpt><trkpt lat="45.826565" lon="9.432246"><time>2024-03-23T08:40:11.000Z</time><ele>730.8</ele></trkpt><trkpt lat="45.826558" lon="9.432248"><time>2024-03-23T08:40:12.000Z</time><ele>731</ele></trkpt><trkpt lat="45.826552" lon="9.43225"><time>2024-03-23T08:40:13.000Z</time><ele>731.2</ele></trkpt><trkpt lat="45.826548" lon="9.432251"><time>2024-03-23T08:40:14.000Z</time><ele>731.2</ele></trkpt><trkpt lat="45.826547" lon="9.432253"><time>2024-03-23T08:40:15.000Z</time><ele>731.2</ele></trkpt><trkpt lat="45.826545" lon="9.432254"><time>2024-03-23T08:40:16.000Z</time><ele>731.4</ele></trkpt><trkpt lat="45.826539" lon="9.432255"><time>2024-03-23T08:40:17.000Z</time><ele>731.6</ele></trkpt><trkpt lat="45.826536" lon="9.432256"><time>2024-03-23T08:40:18.000Z</time><ele>731.8</ele></trkpt><trkpt lat="45.826525" lon="9.432258"><time>2024-03-23T08:40:19.000Z</time><ele>731.8</ele></trkpt><trkpt lat="45.826512" lon="9.432259"><time>2024-03-23T08:40:20.000Z</time><ele>731.8</ele></trkpt><trkpt lat="45.826507" lon="9.432261"><time>2024-03-23T08:40:21.000Z</time><ele>731.8</ele></trkpt><trkpt lat="45.826504" lon="9.432263"><time>2024-03-23T08:40:22.000Z</time><ele>731.8</ele></trkpt><trkpt lat="45.826502" lon="9.432265"><time>2024-03-23T08:40:23.000Z</time><ele>731.8</ele></trkpt><trkpt lat="45.826501" lon="9.432267"><time>2024-03-23T08:40:24.000Z</time><ele>731.8</ele></trkpt><trkpt lat="45.826501" lon="9.432268"><time>2024-03-23T08:40:25.000Z</time><ele>731.8</ele></trkpt><trkpt lat="45.8265" lon="9.43227"><time>2024-03-23T08:40:26.000Z</time><ele>731.8</ele></trkpt><trkpt lat="45.826497" lon="9.432271"><time>2024-03-23T08:40:27.000Z</time><ele>732</ele></trkpt><trkpt lat="45.826491" lon="9.432268"><time>2024-03-23T08:40:28.000Z</time><ele>732.2</ele></trkpt><trkpt lat="45.826481" lon="9.432263"><time>2024-03-23T08:40:29.000Z</time><ele>732.4</ele></trkpt><trkpt lat="45.826476" lon="9.432261"><time>2024-03-23T08:40:30.000Z</time><ele>732.6</ele></trkpt><trkpt lat="45.826469" lon="9.432262"><time>2024-03-23T08:40:31.000Z</time><ele>732.6</ele></trkpt><trkpt lat="45.826461" lon="9.432271"><time>2024-03-23T08:40:32.000Z</time><ele>733</ele></trkpt><trkpt lat="45.826451" lon="9.432279"><time>2024-03-23T08:40:33.000Z</time><ele>733</ele></trkpt><trkpt lat="45.826441" lon="9.432281"><time>2024-03-23T08:40:34.000Z</time><ele>733.2</ele></trkpt><trkpt lat="45.826434" lon="9.43228"><time>2024-03-23T08:40:35.000Z</time><ele>733.2</ele></trkpt><trkpt lat="45.826422" lon="9.432273"><time>2024-03-23T08:40:36.000Z</time><ele>733.4</ele></trkpt><trkpt lat="45.826408" lon="9.432272"><time>2024-03-23T08:40:37.000Z</time><ele>733.6</ele></trkpt><trkpt lat="45.826407" lon="9.432269"><time>2024-03-23T08:40:38.000Z</time><ele>733.6</ele></trkpt><trkpt lat="45.826404" lon="9.432269"><time>2024-03-23T08:40:39.000Z</time><ele>733.8</ele></trkpt><trkpt lat="45.826401" lon="9.432269"><time>2024-03-23T08:40:40.000Z</time><ele>734</ele></trkpt><trkpt lat="45.826392" lon="9.432277"><time>2024-03-23T08:40:41.000Z</time><ele>734.2</ele></trkpt><trkpt lat="45.826389" lon="9.432278"><time>2024-03-23T08:40:42.000Z</time><ele>734.2</ele></trkpt><trkpt lat="45.826387" lon="9.432281"><time>2024-03-23T08:40:43.000Z</time><ele>734.4</ele></trkpt><trkpt lat="45.82638" lon="9.432289"><time>2024-03-23T08:40:44.000Z</time><ele>734.6</ele></trkpt><trkpt lat="45.826378" lon="9.432294"><time>2024-03-23T08:40:45.000Z</time><ele>734.6</ele></trkpt><trkpt lat="45.826377" lon="9.432297"><time>2024-03-23T08:40:46.000Z</time><ele>735</ele></trkpt><trkpt lat="45.826367" lon="9.432294"><time>2024-03-23T08:40:47.000Z</time><ele>735.4</ele></trkpt><trkpt lat="45.826356" lon="9.432288"><time>2024-03-23T08:40:48.000Z</time><ele>735.6</ele></trkpt><trkpt lat="45.826354" lon="9.432285"><time>2024-03-23T08:40:49.000Z</time><ele>735.6</ele></trkpt><trkpt lat="45.826355" lon="9.432273"><time>2024-03-23T08:40:50.000Z</time><ele>735.8</ele></trkpt><trkpt lat="45.826363" lon="9.432282"><time>2024-03-23T08:40:51.000Z</time><ele>735.8</ele></trkpt><trkpt lat="45.826365" lon="9.432284"><time>2024-03-23T08:40:52.000Z</time><ele>735.8</ele></trkpt><trkpt lat="45.826363" lon="9.432278"><time>2024-03-23T08:40:53.000Z</time><ele>735.8</ele></trkpt><trkpt lat="45.826362" lon="9.432279"><time>2024-03-23T08:40:54.000Z</time><ele>736</ele></trkpt><trkpt lat="45.826362" lon="9.432281"><time>2024-03-23T08:40:55.000Z</time><ele>736</ele></trkpt><trkpt lat="45.826361" lon="9.43228"><time>2024-03-23T08:40:56.000Z</time><ele>736</ele></trkpt><trkpt lat="45.826361" lon="9.432276"><time>2024-03-23T08:40:57.000Z</time><ele>736</ele></trkpt><trkpt lat="45.826361" lon="9.432274"><time>2024-03-23T08:40:58.000Z</time><ele>736</ele></trkpt><trkpt lat="45.826357" lon="9.432277"><time>2024-03-23T08:40:59.000Z</time><ele>736</ele></trkpt><trkpt lat="45.826358" lon="9.432278"><time>2024-03-23T08:41:00.000Z</time><ele>736</ele></trkpt><trkpt lat="45.826359" lon="9.432277"><time>2024-03-23T08:41:01.000Z</time><ele>736</ele></trkpt><trkpt lat="45.826359" lon="9.432268"><time>2024-03-23T08:41:02.000Z</time><ele>736</ele></trkpt><trkpt lat="45.826358" lon="9.43226"><time>2024-03-23T08:41:03.000Z</time><ele>736</ele></trkpt><trkpt lat="45.826359" lon="9.432264"><time>2024-03-23T08:41:04.000Z</time><ele>735.8</ele></trkpt><trkpt lat="45.826359" lon="9.432268"><time>2024-03-23T08:41:05.000Z</time><ele>735.8</ele></trkpt><trkpt lat="45.82636" lon="9.432272"><time>2024-03-23T08:41:06.000Z</time><ele>735.8</ele></trkpt><trkpt lat="45.826361" lon="9.432277"><time>2024-03-23T08:41:07.000Z</time><ele>735.8</ele></trkpt><trkpt lat="45.826361" lon="9.432278"><time>2024-03-23T08:41:08.000Z</time><ele>735.8</ele></trkpt><trkpt lat="45.826362" lon="9.432277"><time>2024-03-23T08:41:09.000Z</time><ele>735.8</ele></trkpt><trkpt lat="45.826362" lon="9.432277"><time>2024-03-23T08:41:10.000Z</time><ele>735.8</ele></trkpt><trkpt lat="45.826362" lon="9.432277"><time>2024-03-23T08:41:11.000Z</time><ele>736</ele></trkpt><trkpt lat="45.826362" lon="9.432277"><time>2024-03-23T08:41:12.000Z</time><ele>736</ele></trkpt><trkpt lat="45.826362" lon="9.432277"><time>2024-03-23T08:41:13.000Z</time><ele>736</ele></trkpt><trkpt lat="45.826362" lon="9.432277"><time>2024-03-23T08:41:14.000Z</time><ele>736</ele></trkpt><trkpt lat="45.826362" lon="9.432277"><time>2024-03-23T08:41:15.000Z</time><ele>736</ele></trkpt><trkpt lat="45.826362" lon="9.432277"><time>2024-03-23T08:41:16.000Z</time><ele>736</ele></trkpt><trkpt lat="45.826361" lon="9.432277"><time>2024-03-23T08:41:17.000Z</time><ele>736.2</ele></trkpt><trkpt lat="45.826361" lon="9.432277"><time>2024-03-23T08:41:18.000Z</time><ele>736</ele></trkpt><trkpt lat="45.826361" lon="9.432277"><time>2024-03-23T08:41:19.000Z</time><ele>736</ele></trkpt><trkpt lat="45.82636" lon="9.432277"><time>2024-03-23T08:41:20.000Z</time><ele>735.8</ele></trkpt><trkpt lat="45.826359" lon="9.432277"><time>2024-03-23T08:41:21.000Z</time><ele>735.8</ele></trkpt><trkpt lat="45.826359" lon="9.432277"><time>2024-03-23T08:41:22.000Z</time><ele>735.8</ele></trkpt><trkpt lat="45.826359" lon="9.432277"><time>2024-03-23T08:41:23.000Z</time><ele>735.6</ele></trkpt><trkpt lat="45.826359" lon="9.432277"><time>2024-03-23T08:41:24.000Z</time><ele>735.6</ele></trkpt><trkpt lat="45.826359" lon="9.432277"><time>2024-03-23T08:41:25.000Z</time><ele>735.6</ele></trkpt><trkpt lat="45.826359" lon="9.432277"><time>2024-03-23T08:41:26.000Z</time><ele>735.4</ele></trkpt><trkpt lat="45.826358" lon="9.432277"><time>2024-03-23T08:41:27.000Z</time><ele>735.4</ele></trkpt><trkpt lat="45.826358" lon="9.432277"><time>2024-03-23T08:41:28.000Z</time><ele>735.4</ele></trkpt><trkpt lat="45.826357" lon="9.432277"><time>2024-03-23T08:41:29.000Z</time><ele>735.4</ele></trkpt><trkpt lat="45.826357" lon="9.432277"><time>2024-03-23T08:41:30.000Z</time><ele>735.4</ele></trkpt><trkpt lat="45.826355" lon="9.432277"><time>2024-03-23T08:41:31.000Z</time><ele>735.6</ele></trkpt><trkpt lat="45.826354" lon="9.432277"><time>2024-03-23T08:41:32.000Z</time><ele>735.6</ele></trkpt><trkpt lat="45.826354" lon="9.432277"><time>2024-03-23T08:41:33.000Z</time><ele>735.8</ele></trkpt><trkpt lat="45.826352" lon="9.432277"><time>2024-03-23T08:41:34.000Z</time><ele>736</ele></trkpt><trkpt lat="45.826346" lon="9.432277"><time>2024-03-23T08:41:35.000Z</time><ele>736</ele></trkpt><trkpt lat="45.826346" lon="9.432277"><time>2024-03-23T08:41:36.000Z</time><ele>736.2</ele></trkpt><trkpt lat="45.826342" lon="9.432277"><time>2024-03-23T08:41:37.000Z</time><ele>736.4</ele></trkpt><trkpt lat="45.826335" lon="9.432266"><time>2024-03-23T08:41:38.000Z</time><ele>736.6</ele></trkpt><trkpt lat="45.826333" lon="9.432259"><time>2024-03-23T08:41:39.000Z</time><ele>736.8</ele></trkpt><trkpt lat="45.826332" lon="9.432255"><time>2024-03-23T08:41:40.000Z</time><ele>736.8</ele></trkpt><trkpt lat="45.826326" lon="9.432251"><time>2024-03-23T08:41:41.000Z</time><ele>736.8</ele></trkpt><trkpt lat="45.826324" lon="9.432248"><time>2024-03-23T08:41:42.000Z</time><ele>736.8</ele></trkpt><trkpt lat="45.826324" lon="9.432247"><time>2024-03-23T08:41:43.000Z</time><ele>736.6</ele></trkpt><trkpt lat="45.826323" lon="9.432247"><time>2024-03-23T08:41:44.000Z</time><ele>736.6</ele></trkpt><trkpt lat="45.826322" lon="9.432246"><time>2024-03-23T08:41:45.000Z</time><ele>736.4</ele></trkpt><trkpt lat="45.826321" lon="9.432246"><time>2024-03-23T08:41:46.000Z</time><ele>736.2</ele></trkpt><trkpt lat="45.826319" lon="9.432244"><time>2024-03-23T08:41:47.000Z</time><ele>736</ele></trkpt><trkpt lat="45.826318" lon="9.432245"><time>2024-03-23T08:41:48.000Z</time><ele>736</ele></trkpt><trkpt lat="45.826319" lon="9.432246"><time>2024-03-23T08:41:49.000Z</time><ele>736</ele></trkpt><trkpt lat="45.826318" lon="9.432244"><time>2024-03-23T08:41:50.000Z</time><ele>735.8</ele></trkpt><trkpt lat="45.826316" lon="9.432243"><time>2024-03-23T08:41:51.000Z</time><ele>735.8</ele></trkpt><trkpt lat="45.826313" lon="9.432241"><time>2024-03-23T08:41:52.000Z</time><ele>735.6</ele></trkpt><trkpt lat="45.826309" lon="9.432236"><time>2024-03-23T08:41:53.000Z</time><ele>735.6</ele></trkpt><trkpt lat="45.826305" lon="9.432232"><time>2024-03-23T08:41:54.000Z</time><ele>735.6</ele></trkpt><trkpt lat="45.826304" lon="9.432229"><time>2024-03-23T08:41:55.000Z</time><ele>735.6</ele></trkpt><trkpt lat="45.826303" lon="9.432228"><time>2024-03-23T08:41:56.000Z</time><ele>735.6</ele></trkpt><trkpt lat="45.826302" lon="9.432228"><time>2024-03-23T08:41:57.000Z</time><ele>735.4</ele></trkpt><trkpt lat="45.826302" lon="9.432226"><time>2024-03-23T08:41:58.000Z</time><ele>735.4</ele></trkpt><trkpt lat="45.826304" lon="9.432226"><time>2024-03-23T08:41:59.000Z</time><ele>735.4</ele></trkpt><trkpt lat="45.826304" lon="9.432226"><time>2024-03-23T08:42:00.000Z</time><ele>735.4</ele></trkpt><trkpt lat="45.826304" lon="9.432226"><time>2024-03-23T08:42:01.000Z</time><ele>735.4</ele></trkpt><trkpt lat="45.826304" lon="9.432226"><time>2024-03-23T08:42:02.000Z</time><ele>735.4</ele></trkpt><trkpt lat="45.826304" lon="9.432226"><time>2024-03-23T08:42:03.000Z</time><ele>735.2</ele></trkpt><trkpt lat="45.826304" lon="9.432226"><time>2024-03-23T08:42:04.000Z</time><ele>735.2</ele></trkpt><trkpt lat="45.826304" lon="9.432226"><time>2024-03-23T08:42:05.000Z</time><ele>735.2</ele></trkpt><trkpt lat="45.826304" lon="9.432226"><time>2024-03-23T08:42:06.000Z</time><ele>735.2</ele></trkpt><trkpt lat="45.826304" lon="9.432226"><time>2024-03-23T08:42:07.000Z</time><ele>735.4</ele></trkpt><trkpt lat="45.826304" lon="9.432227"><time>2024-03-23T08:42:08.000Z</time><ele>735.4</ele></trkpt><trkpt lat="45.826303" lon="9.432227"><time>2024-03-23T08:42:09.000Z</time><ele>735.6</ele></trkpt><trkpt lat="45.826303" lon="9.432228"><time>2024-03-23T08:42:10.000Z</time><ele>735.8</ele></trkpt><trkpt lat="45.826302" lon="9.432228"><time>2024-03-23T08:42:11.000Z</time><ele>736</ele></trkpt><trkpt lat="45.826302" lon="9.432228"><time>2024-03-23T08:42:12.000Z</time><ele>736.2</ele></trkpt><trkpt lat="45.826302" lon="9.432228"><time>2024-03-23T08:42:13.000Z</time><ele>736.4</ele></trkpt><trkpt lat="45.826302" lon="9.432228"><time>2024-03-23T08:42:14.000Z</time><ele>736.4</ele></trkpt><trkpt lat="45.826302" lon="9.432229"><time>2024-03-23T08:42:15.000Z</time><ele>736.8</ele></trkpt><trkpt lat="45.826302" lon="9.432231"><time>2024-03-23T08:42:16.000Z</time><ele>737</ele></trkpt><trkpt lat="45.826302" lon="9.432232"><time>2024-03-23T08:42:17.000Z</time><ele>737.2</ele></trkpt><trkpt lat="45.826301" lon="9.432234"><time>2024-03-23T08:42:18.000Z</time><ele>737.2</ele></trkpt><trkpt lat="45.826301" lon="9.432235"><time>2024-03-23T08:42:19.000Z</time><ele>737.4</ele></trkpt><trkpt lat="45.826301" lon="9.432235"><time>2024-03-23T08:42:20.000Z</time><ele>737.6</ele></trkpt><trkpt lat="45.826301" lon="9.432241"><time>2024-03-23T08:42:21.000Z</time><ele>737.6</ele></trkpt><trkpt lat="45.8263" lon="9.432246"><time>2024-03-23T08:42:22.000Z</time><ele>737.8</ele></trkpt><trkpt lat="45.826299" lon="9.432252"><time>2024-03-23T08:42:23.000Z</time><ele>737.8</ele></trkpt><trkpt lat="45.826299" lon="9.432254"><time>2024-03-23T08:42:24.000Z</time><ele>738</ele></trkpt><trkpt lat="45.826298" lon="9.432266"><time>2024-03-23T08:42:25.000Z</time><ele>738</ele></trkpt><trkpt lat="45.826298" lon="9.432274"><time>2024-03-23T08:42:26.000Z</time><ele>738.2</ele></trkpt><trkpt lat="45.826297" lon="9.432283"><time>2024-03-23T08:42:27.000Z</time><ele>738.4</ele></trkpt><trkpt lat="45.826294" lon="9.43229"><time>2024-03-23T08:42:28.000Z</time><ele>738.6</ele></trkpt><trkpt lat="45.826294" lon="9.432296"><time>2024-03-23T08:42:29.000Z</time><ele>738.8</ele></trkpt><trkpt lat="45.826293" lon="9.432304"><time>2024-03-23T08:42:30.000Z</time><ele>738.8</ele></trkpt><trkpt lat="45.826293" lon="9.432313"><time>2024-03-23T08:42:31.000Z</time><ele>739</ele></trkpt><trkpt lat="45.826293" lon="9.432317"><time>2024-03-23T08:42:32.000Z</time><ele>739.2</ele></trkpt><trkpt lat="45.826291" lon="9.432321"><time>2024-03-23T08:42:33.000Z</time><ele>739.4</ele></trkpt><trkpt lat="45.826291" lon="9.432323"><time>2024-03-23T08:42:34.000Z</time><ele>739.6</ele></trkpt><trkpt lat="45.82629" lon="9.432327"><time>2024-03-23T08:42:35.000Z</time><ele>739.8</ele></trkpt><trkpt lat="45.82629" lon="9.432332"><time>2024-03-23T08:42:36.000Z</time><ele>740</ele></trkpt><trkpt lat="45.82629" lon="9.432337"><time>2024-03-23T08:42:37.000Z</time><ele>740.2</ele></trkpt><trkpt lat="45.82629" lon="9.432339"><time>2024-03-23T08:42:38.000Z</time><ele>740.2</ele></trkpt><trkpt lat="45.82629" lon="9.432341"><time>2024-03-23T08:42:39.000Z</time><ele>740.4</ele></trkpt><trkpt lat="45.826291" lon="9.43235"><time>2024-03-23T08:42:40.000Z</time><ele>740.4</ele></trkpt><trkpt lat="45.826292" lon="9.432366"><time>2024-03-23T08:42:41.000Z</time><ele>740.6</ele></trkpt><trkpt lat="45.826293" lon="9.432371"><time>2024-03-23T08:42:42.000Z</time><ele>740.8</ele></trkpt><trkpt lat="45.826293" lon="9.432377"><time>2024-03-23T08:42:43.000Z</time><ele>741</ele></trkpt><trkpt lat="45.826294" lon="9.432387"><time>2024-03-23T08:42:44.000Z</time><ele>741.2</ele></trkpt><trkpt lat="45.826294" lon="9.432397"><time>2024-03-23T08:42:45.000Z</time><ele>741.6</ele></trkpt><trkpt lat="45.826295" lon="9.4324"><time>2024-03-23T08:42:46.000Z</time><ele>741.6</ele></trkpt><trkpt lat="45.826296" lon="9.432406"><time>2024-03-23T08:42:47.000Z</time><ele>741.8</ele></trkpt><trkpt lat="45.826296" lon="9.43241"><time>2024-03-23T08:42:48.000Z</time><ele>742</ele></trkpt><trkpt lat="45.826296" lon="9.432415"><time>2024-03-23T08:42:49.000Z</time><ele>742.4</ele></trkpt><trkpt lat="45.826296" lon="9.432422"><time>2024-03-23T08:42:50.000Z</time><ele>742.4</ele></trkpt><trkpt lat="45.826296" lon="9.432431"><time>2024-03-23T08:42:51.000Z</time><ele>742.6</ele></trkpt><trkpt lat="45.826296" lon="9.432435"><time>2024-03-23T08:42:52.000Z</time><ele>742.6</ele></trkpt><trkpt lat="45.826296" lon="9.432439"><time>2024-03-23T08:42:53.000Z</time><ele>742.8</ele></trkpt><trkpt lat="45.826297" lon="9.432444"><time>2024-03-23T08:42:54.000Z</time><ele>743</ele></trkpt><trkpt lat="45.826297" lon="9.432448"><time>2024-03-23T08:42:55.000Z</time><ele>743</ele></trkpt><trkpt lat="45.826297" lon="9.432449"><time>2024-03-23T08:42:56.000Z</time><ele>743</ele></trkpt><trkpt lat="45.826298" lon="9.432451"><time>2024-03-23T08:42:57.000Z</time><ele>743</ele></trkpt><trkpt lat="45.826298" lon="9.432451"><time>2024-03-23T08:42:58.000Z</time><ele>743</ele></trkpt><trkpt lat="45.826298" lon="9.432452"><time>2024-03-23T08:42:59.000Z</time><ele>743.2</ele></trkpt><trkpt lat="45.826298" lon="9.432455"><time>2024-03-23T08:43:00.000Z</time><ele>743.4</ele></trkpt><trkpt lat="45.826302" lon="9.432456"><time>2024-03-23T08:43:01.000Z</time><ele>743.6</ele></trkpt><trkpt lat="45.826312" lon="9.43246"><time>2024-03-23T08:43:02.000Z</time><ele>743.8</ele></trkpt><trkpt lat="45.826317" lon="9.432462"><time>2024-03-23T08:43:03.000Z</time><ele>744</ele></trkpt><trkpt lat="45.82632" lon="9.432465"><time>2024-03-23T08:43:04.000Z</time><ele>744</ele></trkpt><trkpt lat="45.826322" lon="9.432466"><time>2024-03-23T08:43:05.000Z</time><ele>744.4</ele></trkpt><trkpt lat="45.826323" lon="9.432467"><time>2024-03-23T08:43:06.000Z</time><ele>744.4</ele></trkpt><trkpt lat="45.826323" lon="9.432468"><time>2024-03-23T08:43:07.000Z</time><ele>744.6</ele></trkpt><trkpt lat="45.826324" lon="9.432469"><time>2024-03-23T08:43:08.000Z</time><ele>744.6</ele></trkpt><trkpt lat="45.826326" lon="9.432471"><time>2024-03-23T08:43:09.000Z</time><ele>744.8</ele></trkpt><trkpt lat="45.826328" lon="9.432479"><time>2024-03-23T08:43:10.000Z</time><ele>745</ele></trkpt><trkpt lat="45.826331" lon="9.432486"><time>2024-03-23T08:43:11.000Z</time><ele>745.2</ele></trkpt><trkpt lat="45.826334" lon="9.432491"><time>2024-03-23T08:43:12.000Z</time><ele>745.2</ele></trkpt><trkpt lat="45.826337" lon="9.432495"><time>2024-03-23T08:43:13.000Z</time><ele>745.4</ele></trkpt><trkpt lat="45.826342" lon="9.4325"><time>2024-03-23T08:43:14.000Z</time><ele>745.8</ele></trkpt><trkpt lat="45.826344" lon="9.432503"><time>2024-03-23T08:43:15.000Z</time><ele>746.2</ele></trkpt><trkpt lat="45.826346" lon="9.432505"><time>2024-03-23T08:43:16.000Z</time><ele>746.4</ele></trkpt><trkpt lat="45.826348" lon="9.432511"><time>2024-03-23T08:43:17.000Z</time><ele>746.6</ele></trkpt><trkpt lat="45.826348" lon="9.432514"><time>2024-03-23T08:43:18.000Z</time><ele>746.8</ele></trkpt><trkpt lat="45.826351" lon="9.432519"><time>2024-03-23T08:43:19.000Z</time><ele>746.8</ele></trkpt><trkpt lat="45.826353" lon="9.432521"><time>2024-03-23T08:43:20.000Z</time><ele>747</ele></trkpt><trkpt lat="45.826355" lon="9.432527"><time>2024-03-23T08:43:21.000Z</time><ele>747</ele></trkpt><trkpt lat="45.826359" lon="9.432536"><time>2024-03-23T08:43:22.000Z</time><ele>747</ele></trkpt><trkpt lat="45.826363" lon="9.432547"><time>2024-03-23T08:43:23.000Z</time><ele>747.2</ele></trkpt><trkpt lat="45.826365" lon="9.432554"><time>2024-03-23T08:43:24.000Z</time><ele>747.2</ele></trkpt><trkpt lat="45.826366" lon="9.432559"><time>2024-03-23T08:43:25.000Z</time><ele>747.4</ele></trkpt><trkpt lat="45.826366" lon="9.432564"><time>2024-03-23T08:43:26.000Z</time><ele>747.8</ele></trkpt><trkpt lat="45.826367" lon="9.432567"><time>2024-03-23T08:43:27.000Z</time><ele>748.2</ele></trkpt><trkpt lat="45.826369" lon="9.43257"><time>2024-03-23T08:43:28.000Z</time><ele>748.2</ele></trkpt><trkpt lat="45.826375" lon="9.432574"><time>2024-03-23T08:43:29.000Z</time><ele>748.4</ele></trkpt><trkpt lat="45.82638" lon="9.432582"><time>2024-03-23T08:43:30.000Z</time><ele>748.6</ele></trkpt><trkpt lat="45.826385" lon="9.432589"><time>2024-03-23T08:43:31.000Z</time><ele>748.8</ele></trkpt><trkpt lat="45.826387" lon="9.432595"><time>2024-03-23T08:43:32.000Z</time><ele>748.8</ele></trkpt><trkpt lat="45.82639" lon="9.4326"><time>2024-03-23T08:43:33.000Z</time><ele>749</ele></trkpt><trkpt lat="45.826393" lon="9.432607"><time>2024-03-23T08:43:34.000Z</time><ele>749.2</ele></trkpt><trkpt lat="45.826396" lon="9.432615"><time>2024-03-23T08:43:35.000Z</time><ele>749.4</ele></trkpt><trkpt lat="45.826398" lon="9.432622"><time>2024-03-23T08:43:36.000Z</time><ele>749.6</ele></trkpt><trkpt lat="45.8264" lon="9.432627"><time>2024-03-23T08:43:37.000Z</time><ele>749.6</ele></trkpt><trkpt lat="45.826401" lon="9.432629"><time>2024-03-23T08:43:38.000Z</time><ele>749.8</ele></trkpt><trkpt lat="45.826402" lon="9.43263"><time>2024-03-23T08:43:39.000Z</time><ele>750</ele></trkpt><trkpt lat="45.826402" lon="9.432631"><time>2024-03-23T08:43:40.000Z</time><ele>750.2</ele></trkpt><trkpt lat="45.826403" lon="9.432632"><time>2024-03-23T08:43:41.000Z</time><ele>750.4</ele></trkpt><trkpt lat="45.826404" lon="9.432634"><time>2024-03-23T08:43:42.000Z</time><ele>750.6</ele></trkpt><trkpt lat="45.826405" lon="9.432636"><time>2024-03-23T08:43:43.000Z</time><ele>750.6</ele></trkpt><trkpt lat="45.826407" lon="9.43264"><time>2024-03-23T08:43:44.000Z</time><ele>750.6</ele></trkpt><trkpt lat="45.826409" lon="9.432655"><time>2024-03-23T08:43:45.000Z</time><ele>750.8</ele></trkpt><trkpt lat="45.826413" lon="9.432667"><time>2024-03-23T08:43:46.000Z</time><ele>751</ele></trkpt><trkpt lat="45.82642" lon="9.432678"><time>2024-03-23T08:43:47.000Z</time><ele>751.4</ele></trkpt><trkpt lat="45.826428" lon="9.43269"><time>2024-03-23T08:43:48.000Z</time><ele>751.4</ele></trkpt><trkpt lat="45.826431" lon="9.432701"><time>2024-03-23T08:43:49.000Z</time><ele>751.6</ele></trkpt><trkpt lat="45.826436" lon="9.432713"><time>2024-03-23T08:43:50.000Z</time><ele>751.8</ele></trkpt><trkpt lat="45.826442" lon="9.432717"><time>2024-03-23T08:43:51.000Z</time><ele>752</ele></trkpt><trkpt lat="45.826447" lon="9.432721"><time>2024-03-23T08:43:52.000Z</time><ele>752</ele></trkpt><trkpt lat="45.826451" lon="9.432723"><time>2024-03-23T08:43:53.000Z</time><ele>752.2</ele></trkpt><trkpt lat="45.826453" lon="9.432724"><time>2024-03-23T08:43:54.000Z</time><ele>752.4</ele></trkpt><trkpt lat="45.826453" lon="9.432725"><time>2024-03-23T08:43:55.000Z</time><ele>752.6</ele></trkpt><trkpt lat="45.826454" lon="9.432727"><time>2024-03-23T08:43:56.000Z</time><ele>752.6</ele></trkpt><trkpt lat="45.826453" lon="9.432712"><time>2024-03-23T08:43:57.000Z</time><ele>753</ele></trkpt><trkpt lat="45.826456" lon="9.432705"><time>2024-03-23T08:43:58.000Z</time><ele>753</ele></trkpt><trkpt lat="45.826459" lon="9.432705"><time>2024-03-23T08:43:59.000Z</time><ele>753.4</ele></trkpt><trkpt lat="45.826458" lon="9.432707"><time>2024-03-23T08:44:00.000Z</time><ele>753.6</ele></trkpt><trkpt lat="45.826457" lon="9.432706"><time>2024-03-23T08:44:01.000Z</time><ele>753.8</ele></trkpt><trkpt lat="45.826458" lon="9.432706"><time>2024-03-23T08:44:02.000Z</time><ele>753.8</ele></trkpt><trkpt lat="45.82646" lon="9.432702"><time>2024-03-23T08:44:03.000Z</time><ele>754</ele></trkpt><trkpt lat="45.826458" lon="9.432706"><time>2024-03-23T08:44:04.000Z</time><ele>754</ele></trkpt><trkpt lat="45.826456" lon="9.432705"><time>2024-03-23T08:44:05.000Z</time><ele>754</ele></trkpt><trkpt lat="45.826457" lon="9.432704"><time>2024-03-23T08:44:06.000Z</time><ele>754.2</ele></trkpt><trkpt lat="45.826456" lon="9.432711"><time>2024-03-23T08:44:07.000Z</time><ele>754.2</ele></trkpt><trkpt lat="45.826456" lon="9.432709"><time>2024-03-23T08:44:08.000Z</time><ele>754.6</ele></trkpt><trkpt lat="45.826455" lon="9.432718"><time>2024-03-23T08:44:09.000Z</time><ele>754.6</ele></trkpt><trkpt lat="45.826457" lon="9.432726"><time>2024-03-23T08:44:10.000Z</time><ele>754.8</ele></trkpt><trkpt lat="45.826463" lon="9.432728"><time>2024-03-23T08:44:11.000Z</time><ele>754.8</ele></trkpt><trkpt lat="45.826468" lon="9.432724"><time>2024-03-23T08:44:12.000Z</time><ele>755</ele></trkpt><trkpt lat="45.826469" lon="9.432724"><time>2024-03-23T08:44:13.000Z</time><ele>755.2</ele></trkpt><trkpt lat="45.826469" lon="9.432727"><time>2024-03-23T08:44:14.000Z</time><ele>755.4</ele></trkpt><trkpt lat="45.82647" lon="9.432739"><time>2024-03-23T08:44:15.000Z</time><ele>755.6</ele></trkpt><trkpt lat="45.826471" lon="9.432748"><time>2024-03-23T08:44:16.000Z</time><ele>755.8</ele></trkpt><trkpt lat="45.826471" lon="9.432747"><time>2024-03-23T08:44:17.000Z</time><ele>755.8</ele></trkpt><trkpt lat="45.826473" lon="9.432748"><time>2024-03-23T08:44:18.000Z</time><ele>756</ele></trkpt><trkpt lat="45.826474" lon="9.432746"><time>2024-03-23T08:44:19.000Z</time><ele>756</ele></trkpt><trkpt lat="45.826476" lon="9.432745"><time>2024-03-23T08:44:20.000Z</time><ele>756.2</ele></trkpt><trkpt lat="45.826477" lon="9.432747"><time>2024-03-23T08:44:21.000Z</time><ele>756.4</ele></trkpt><trkpt lat="45.826477" lon="9.432748"><time>2024-03-23T08:44:22.000Z</time><ele>756.4</ele></trkpt><trkpt lat="45.826477" lon="9.432748"><time>2024-03-23T08:44:23.000Z</time><ele>756.6</ele></trkpt><trkpt lat="45.826478" lon="9.432751"><time>2024-03-23T08:44:24.000Z</time><ele>756.8</ele></trkpt><trkpt lat="45.826478" lon="9.432752"><time>2024-03-23T08:44:25.000Z</time><ele>757</ele></trkpt><trkpt lat="45.826483" lon="9.432756"><time>2024-03-23T08:44:26.000Z</time><ele>757</ele></trkpt><trkpt lat="45.826485" lon="9.432762"><time>2024-03-23T08:44:27.000Z</time><ele>757.4</ele></trkpt><trkpt lat="45.826489" lon="9.432765"><time>2024-03-23T08:44:28.000Z</time><ele>757.6</ele></trkpt><trkpt lat="45.826494" lon="9.432773"><time>2024-03-23T08:44:29.000Z</time><ele>757.8</ele></trkpt><trkpt lat="45.826497" lon="9.432777"><time>2024-03-23T08:44:30.000Z</time><ele>758</ele></trkpt><trkpt lat="45.826497" lon="9.43278"><time>2024-03-23T08:44:31.000Z</time><ele>758</ele></trkpt><trkpt lat="45.826497" lon="9.432784"><time>2024-03-23T08:44:32.000Z</time><ele>758</ele></trkpt><trkpt lat="45.826497" lon="9.432784"><time>2024-03-23T08:44:33.000Z</time><ele>758</ele></trkpt><trkpt lat="45.8265" lon="9.432791"><time>2024-03-23T08:44:34.000Z</time><ele>758.2</ele></trkpt><trkpt lat="45.826505" lon="9.4328"><time>2024-03-23T08:44:35.000Z</time><ele>758.2</ele></trkpt><trkpt lat="45.826505" lon="9.432804"><time>2024-03-23T08:44:36.000Z</time><ele>758.4</ele></trkpt><trkpt lat="45.826506" lon="9.432816"><time>2024-03-23T08:44:37.000Z</time><ele>758.6</ele></trkpt><trkpt lat="45.826511" lon="9.432823"><time>2024-03-23T08:44:38.000Z</time><ele>758.8</ele></trkpt><trkpt lat="45.826517" lon="9.43282"><time>2024-03-23T08:44:39.000Z</time><ele>759.2</ele></trkpt><trkpt lat="45.826519" lon="9.432819"><time>2024-03-23T08:44:40.000Z</time><ele>759.2</ele></trkpt><trkpt lat="45.82652" lon="9.432819"><time>2024-03-23T08:44:41.000Z</time><ele>759.4</ele></trkpt><trkpt lat="45.826516" lon="9.432821"><time>2024-03-23T08:44:42.000Z</time><ele>759.6</ele></trkpt><trkpt lat="45.826516" lon="9.432823"><time>2024-03-23T08:44:43.000Z</time><ele>759.6</ele></trkpt><trkpt lat="45.826517" lon="9.432824"><time>2024-03-23T08:44:44.000Z</time><ele>759.8</ele></trkpt><trkpt lat="45.826515" lon="9.432823"><time>2024-03-23T08:44:45.000Z</time><ele>759.8</ele></trkpt><trkpt lat="45.826516" lon="9.432828"><time>2024-03-23T08:44:46.000Z</time><ele>760</ele></trkpt><trkpt lat="45.826515" lon="9.432831"><time>2024-03-23T08:44:47.000Z</time><ele>760.2</ele></trkpt><trkpt lat="45.826516" lon="9.432846"><time>2024-03-23T08:44:48.000Z</time><ele>760.2</ele></trkpt><trkpt lat="45.826522" lon="9.432858"><time>2024-03-23T08:44:49.000Z</time><ele>760.6</ele></trkpt><trkpt lat="45.826535" lon="9.432882"><time>2024-03-23T08:44:50.000Z</time><ele>760.8</ele></trkpt><trkpt lat="45.826542" lon="9.432902"><time>2024-03-23T08:44:51.000Z</time><ele>761</ele></trkpt><trkpt lat="45.826543" lon="9.43291"><time>2024-03-23T08:44:52.000Z</time><ele>761.2</ele></trkpt><trkpt lat="45.826542" lon="9.432917"><time>2024-03-23T08:44:53.000Z</time><ele>761.2</ele></trkpt><trkpt lat="45.826541" lon="9.432919"><time>2024-03-23T08:44:54.000Z</time><ele>761.6</ele></trkpt><trkpt lat="45.82654" lon="9.432921"><time>2024-03-23T08:44:55.000Z</time><ele>761.6</ele></trkpt><trkpt lat="45.826541" lon="9.432929"><time>2024-03-23T08:44:56.000Z</time><ele>761.8</ele></trkpt><trkpt lat="45.826537" lon="9.43294"><time>2024-03-23T08:44:57.000Z</time><ele>761.8</ele></trkpt><trkpt lat="45.826538" lon="9.432944"><time>2024-03-23T08:44:58.000Z</time><ele>762</ele></trkpt><trkpt lat="45.82654" lon="9.432947"><time>2024-03-23T08:44:59.000Z</time><ele>762.2</ele></trkpt><trkpt lat="45.826536" lon="9.432955"><time>2024-03-23T08:45:00.000Z</time><ele>762.2</ele></trkpt><trkpt lat="45.826534" lon="9.43296"><time>2024-03-23T08:45:01.000Z</time><ele>762.4</ele></trkpt><trkpt lat="45.826526" lon="9.432959"><time>2024-03-23T08:45:02.000Z</time><ele>762.6</ele></trkpt><trkpt lat="45.826512" lon="9.432961"><time>2024-03-23T08:45:03.000Z</time><ele>762.6</ele></trkpt><trkpt lat="45.826498" lon="9.432971"><time>2024-03-23T08:45:04.000Z</time><ele>762.8</ele></trkpt><trkpt lat="45.826494" lon="9.432983"><time>2024-03-23T08:45:05.000Z</time><ele>762.8</ele></trkpt><trkpt lat="45.82649" lon="9.432984"><time>2024-03-23T08:45:06.000Z</time><ele>763.2</ele></trkpt><trkpt lat="45.826486" lon="9.432985"><time>2024-03-23T08:45:07.000Z</time><ele>763.4</ele></trkpt><trkpt lat="45.826486" lon="9.432992"><time>2024-03-23T08:45:08.000Z</time><ele>763.6</ele></trkpt><trkpt lat="45.826484" lon="9.432997"><time>2024-03-23T08:45:09.000Z</time><ele>763.8</ele></trkpt><trkpt lat="45.826484" lon="9.433001"><time>2024-03-23T08:45:10.000Z</time><ele>763.8</ele></trkpt><trkpt lat="45.82649" lon="9.433019"><time>2024-03-23T08:45:11.000Z</time><ele>764</ele></trkpt><trkpt lat="45.82649" lon="9.433029"><time>2024-03-23T08:45:12.000Z</time><ele>764</ele></trkpt><trkpt lat="45.826488" lon="9.43303"><time>2024-03-23T08:45:13.000Z</time><ele>764.2</ele></trkpt><trkpt lat="45.826486" lon="9.433027"><time>2024-03-23T08:45:14.000Z</time><ele>764.4</ele></trkpt><trkpt lat="45.826485" lon="9.433026"><time>2024-03-23T08:45:15.000Z</time><ele>764.6</ele></trkpt><trkpt lat="45.82648" lon="9.433034"><time>2024-03-23T08:45:16.000Z</time><ele>764.8</ele></trkpt><trkpt lat="45.826475" lon="9.433038"><time>2024-03-23T08:45:17.000Z</time><ele>764.8</ele></trkpt><trkpt lat="45.826474" lon="9.43304"><time>2024-03-23T08:45:18.000Z</time><ele>765</ele></trkpt><trkpt lat="45.826471" lon="9.433038"><time>2024-03-23T08:45:19.000Z</time><ele>765.2</ele></trkpt><trkpt lat="45.826468" lon="9.433036"><time>2024-03-23T08:45:20.000Z</time><ele>765.4</ele></trkpt><trkpt lat="45.826465" lon="9.433033"><time>2024-03-23T08:45:21.000Z</time><ele>765.4</ele></trkpt><trkpt lat="45.826464" lon="9.433025"><time>2024-03-23T08:45:22.000Z</time><ele>765.6</ele></trkpt><trkpt lat="45.826462" lon="9.433019"><time>2024-03-23T08:45:23.000Z</time><ele>765.8</ele></trkpt><trkpt lat="45.826459" lon="9.43301"><time>2024-03-23T08:45:24.000Z</time><ele>766</ele></trkpt><trkpt lat="45.826458" lon="9.433009"><time>2024-03-23T08:45:25.000Z</time><ele>766</ele></trkpt><trkpt lat="45.826458" lon="9.433009"><time>2024-03-23T08:45:26.000Z</time><ele>766.2</ele></trkpt><trkpt lat="45.826458" lon="9.433009"><time>2024-03-23T08:45:27.000Z</time><ele>766.6</ele></trkpt><trkpt lat="45.826458" lon="9.433009"><time>2024-03-23T08:45:28.000Z</time><ele>766.8</ele></trkpt><trkpt lat="45.826458" lon="9.433009"><time>2024-03-23T08:45:29.000Z</time><ele>766.8</ele></trkpt><trkpt lat="45.826458" lon="9.433009"><time>2024-03-23T08:45:30.000Z</time><ele>767</ele></trkpt><trkpt lat="45.826458" lon="9.433009"><time>2024-03-23T08:45:31.000Z</time><ele>767.2</ele></trkpt><trkpt lat="45.826458" lon="9.433009"><time>2024-03-23T08:45:32.000Z</time><ele>767.4</ele></trkpt><trkpt lat="45.826458" lon="9.43301"><time>2024-03-23T08:45:33.000Z</time><ele>767.4</ele></trkpt><trkpt lat="45.826458" lon="9.433011"><time>2024-03-23T08:45:34.000Z</time><ele>767.6</ele></trkpt><trkpt lat="45.826458" lon="9.433012"><time>2024-03-23T08:45:35.000Z</time><ele>767.6</ele></trkpt><trkpt lat="45.826458" lon="9.433012"><time>2024-03-23T08:45:36.000Z</time><ele>767.8</ele></trkpt><trkpt lat="45.826458" lon="9.433013"><time>2024-03-23T08:45:37.000Z</time><ele>768</ele></trkpt><trkpt lat="45.826458" lon="9.433019"><time>2024-03-23T08:45:38.000Z</time><ele>768.2</ele></trkpt><trkpt lat="45.826458" lon="9.433022"><time>2024-03-23T08:45:39.000Z</time><ele>768.2</ele></trkpt><trkpt lat="45.826458" lon="9.433025"><time>2024-03-23T08:45:40.000Z</time><ele>768.4</ele></trkpt><trkpt lat="45.826458" lon="9.433026"><time>2024-03-23T08:45:41.000Z</time><ele>768.6</ele></trkpt><trkpt lat="45.826457" lon="9.433029"><time>2024-03-23T08:45:42.000Z</time><ele>768.8</ele></trkpt><trkpt lat="45.826456" lon="9.433032"><time>2024-03-23T08:45:43.000Z</time><ele>768.8</ele></trkpt><trkpt lat="45.826452" lon="9.433036"><time>2024-03-23T08:45:44.000Z</time><ele>768.8</ele></trkpt><trkpt lat="45.826449" lon="9.433038"><time>2024-03-23T08:45:45.000Z</time><ele>769</ele></trkpt><trkpt lat="45.826448" lon="9.433038"><time>2024-03-23T08:45:46.000Z</time><ele>769.2</ele></trkpt><trkpt lat="45.826447" lon="9.43304"><time>2024-03-23T08:45:47.000Z</time><ele>769.6</ele></trkpt><trkpt lat="45.826447" lon="9.433041"><time>2024-03-23T08:45:48.000Z</time><ele>769.8</ele></trkpt><trkpt lat="45.826446" lon="9.433045"><time>2024-03-23T08:45:49.000Z</time><ele>770</ele></trkpt><trkpt lat="45.826446" lon="9.433051"><time>2024-03-23T08:45:50.000Z</time><ele>770.2</ele></trkpt><trkpt lat="45.826445" lon="9.433055"><time>2024-03-23T08:45:51.000Z</time><ele>770.4</ele></trkpt><trkpt lat="45.826443" lon="9.433057"><time>2024-03-23T08:45:52.000Z</time><ele>770.6</ele></trkpt><trkpt lat="45.826441" lon="9.433058"><time>2024-03-23T08:45:53.000Z</time><ele>770.6</ele></trkpt><trkpt lat="45.826441" lon="9.43306"><time>2024-03-23T08:45:54.000Z</time><ele>770.6</ele></trkpt><trkpt lat="45.826438" lon="9.433061"><time>2024-03-23T08:45:55.000Z</time><ele>770.8</ele></trkpt><trkpt lat="45.826434" lon="9.433063"><time>2024-03-23T08:45:56.000Z</time><ele>771</ele></trkpt><trkpt lat="45.826431" lon="9.433064"><time>2024-03-23T08:45:57.000Z</time><ele>771.2</ele></trkpt><trkpt lat="45.826428" lon="9.433064"><time>2024-03-23T08:45:58.000Z</time><ele>771.4</ele></trkpt><trkpt lat="45.826426" lon="9.433065"><time>2024-03-23T08:45:59.000Z</time><ele>771.6</ele></trkpt><trkpt lat="45.826422" lon="9.433068"><time>2024-03-23T08:46:00.000Z</time><ele>771.6</ele></trkpt><trkpt lat="45.826416" lon="9.433068"><time>2024-03-23T08:46:01.000Z</time><ele>771.8</ele></trkpt><trkpt lat="45.826408" lon="9.433065"><time>2024-03-23T08:46:02.000Z</time><ele>772</ele></trkpt><trkpt lat="45.826401" lon="9.433075"><time>2024-03-23T08:46:03.000Z</time><ele>772.2</ele></trkpt><trkpt lat="45.826401" lon="9.433087"><time>2024-03-23T08:46:04.000Z</time><ele>772.4</ele></trkpt><trkpt lat="45.826394" lon="9.433086"><time>2024-03-23T08:46:05.000Z</time><ele>772.4</ele></trkpt><trkpt lat="45.82639" lon="9.433089"><time>2024-03-23T08:46:06.000Z</time><ele>772.6</ele></trkpt><trkpt lat="45.82639" lon="9.433089"><time>2024-03-23T08:46:07.000Z</time><ele>772.8</ele></trkpt><trkpt lat="45.82639" lon="9.433089"><time>2024-03-23T08:46:08.000Z</time><ele>773</ele></trkpt><trkpt lat="45.82639" lon="9.433089"><time>2024-03-23T08:46:09.000Z</time><ele>773.2</ele></trkpt><trkpt lat="45.82639" lon="9.433089"><time>2024-03-23T08:46:10.000Z</time><ele>773.2</ele></trkpt><trkpt lat="45.826387" lon="9.433088"><time>2024-03-23T08:46:11.000Z</time><ele>773.4</ele></trkpt><trkpt lat="45.826382" lon="9.433086"><time>2024-03-23T08:46:12.000Z</time><ele>773.4</ele></trkpt><trkpt lat="45.826373" lon="9.433088"><time>2024-03-23T08:46:13.000Z</time><ele>773.8</ele></trkpt><trkpt lat="45.826365" lon="9.433091"><time>2024-03-23T08:46:14.000Z</time><ele>774</ele></trkpt><trkpt lat="45.82636" lon="9.433096"><time>2024-03-23T08:46:15.000Z</time><ele>774</ele></trkpt><trkpt lat="45.826358" lon="9.433096"><time>2024-03-23T08:46:16.000Z</time><ele>774.2</ele></trkpt><trkpt lat="45.826354" lon="9.433099"><time>2024-03-23T08:46:17.000Z</time><ele>774.6</ele></trkpt><trkpt lat="45.826348" lon="9.433097"><time>2024-03-23T08:46:18.000Z</time><ele>774.8</ele></trkpt><trkpt lat="45.826345" lon="9.433101"><time>2024-03-23T08:46:19.000Z</time><ele>775</ele></trkpt><trkpt lat="45.82634" lon="9.433105"><time>2024-03-23T08:46:20.000Z</time><ele>775</ele></trkpt><trkpt lat="45.826335" lon="9.433107"><time>2024-03-23T08:46:21.000Z</time><ele>775.2</ele></trkpt><trkpt lat="45.826335" lon="9.43311"><time>2024-03-23T08:46:22.000Z</time><ele>775.2</ele></trkpt><trkpt lat="45.826334" lon="9.433119"><time>2024-03-23T08:46:23.000Z</time><ele>775.4</ele></trkpt><trkpt lat="45.826334" lon="9.433123"><time>2024-03-23T08:46:24.000Z</time><ele>775.6</ele></trkpt><trkpt lat="45.826332" lon="9.433119"><time>2024-03-23T08:46:25.000Z</time><ele>775.8</ele></trkpt><trkpt lat="45.826328" lon="9.433118"><time>2024-03-23T08:46:26.000Z</time><ele>776</ele></trkpt><trkpt lat="45.826328" lon="9.433115"><time>2024-03-23T08:46:27.000Z</time><ele>776.2</ele></trkpt><trkpt lat="45.826327" lon="9.433118"><time>2024-03-23T08:46:28.000Z</time><ele>776.4</ele></trkpt><trkpt lat="45.826326" lon="9.43312"><time>2024-03-23T08:46:29.000Z</time><ele>776.6</ele></trkpt><trkpt lat="45.826323" lon="9.43312"><time>2024-03-23T08:46:30.000Z</time><ele>776.6</ele></trkpt><trkpt lat="45.826315" lon="9.433121"><time>2024-03-23T08:46:31.000Z</time><ele>776.6</ele></trkpt><trkpt lat="45.826306" lon="9.433118"><time>2024-03-23T08:46:32.000Z</time><ele>776.6</ele></trkpt><trkpt lat="45.826303" lon="9.433117"><time>2024-03-23T08:46:33.000Z</time><ele>776.8</ele></trkpt><trkpt lat="45.826306" lon="9.433119"><time>2024-03-23T08:46:34.000Z</time><ele>777.2</ele></trkpt><trkpt lat="45.82631" lon="9.433121"><time>2024-03-23T08:46:35.000Z</time><ele>777.4</ele></trkpt><trkpt lat="45.82631" lon="9.433121"><time>2024-03-23T08:46:36.000Z</time><ele>777.6</ele></trkpt><trkpt lat="45.826309" lon="9.43312"><time>2024-03-23T08:46:37.000Z</time><ele>777.8</ele></trkpt><trkpt lat="45.826308" lon="9.43312"><time>2024-03-23T08:46:38.000Z</time><ele>778</ele></trkpt><trkpt lat="45.826306" lon="9.433117"><time>2024-03-23T08:46:39.000Z</time><ele>778</ele></trkpt><trkpt lat="45.826306" lon="9.433114"><time>2024-03-23T08:46:40.000Z</time><ele>778.2</ele></trkpt><trkpt lat="45.826304" lon="9.433113"><time>2024-03-23T08:46:41.000Z</time><ele>778.4</ele></trkpt><trkpt lat="45.826301" lon="9.433112"><time>2024-03-23T08:46:42.000Z</time><ele>778.4</ele></trkpt><trkpt lat="45.826296" lon="9.433113"><time>2024-03-23T08:46:43.000Z</time><ele>778.4</ele></trkpt><trkpt lat="45.826296" lon="9.433115"><time>2024-03-23T08:46:44.000Z</time><ele>778.6</ele></trkpt><trkpt lat="45.826298" lon="9.433105"><time>2024-03-23T08:46:45.000Z</time><ele>778.8</ele></trkpt><trkpt lat="45.826298" lon="9.433095"><time>2024-03-23T08:46:46.000Z</time><ele>779</ele></trkpt><trkpt lat="45.826296" lon="9.433086"><time>2024-03-23T08:46:47.000Z</time><ele>779</ele></trkpt><trkpt lat="45.826299" lon="9.433073"><time>2024-03-23T08:46:48.000Z</time><ele>779</ele></trkpt><trkpt lat="45.8263" lon="9.433066"><time>2024-03-23T08:46:49.000Z</time><ele>779</ele></trkpt><trkpt lat="45.826304" lon="9.433064"><time>2024-03-23T08:46:50.000Z</time><ele>779</ele></trkpt><trkpt lat="45.826303" lon="9.433059"><time>2024-03-23T08:46:51.000Z</time><ele>779</ele></trkpt><trkpt lat="45.826303" lon="9.433055"><time>2024-03-23T08:46:52.000Z</time><ele>779</ele></trkpt><trkpt lat="45.826304" lon="9.433049"><time>2024-03-23T08:46:53.000Z</time><ele>779</ele></trkpt><trkpt lat="45.826304" lon="9.433046"><time>2024-03-23T08:46:54.000Z</time><ele>779.2</ele></trkpt><trkpt lat="45.826304" lon="9.433046"><time>2024-03-23T08:46:55.000Z</time><ele>779.2</ele></trkpt><trkpt lat="45.826302" lon="9.433045"><time>2024-03-23T08:46:56.000Z</time><ele>779.2</ele></trkpt><trkpt lat="45.826301" lon="9.433043"><time>2024-03-23T08:46:57.000Z</time><ele>779.2</ele></trkpt><trkpt lat="45.826301" lon="9.433041"><time>2024-03-23T08:46:58.000Z</time><ele>779.2</ele></trkpt><trkpt lat="45.826304" lon="9.433045"><time>2024-03-23T08:46:59.000Z</time><ele>779.2</ele></trkpt><trkpt lat="45.826305" lon="9.433042"><time>2024-03-23T08:47:00.000Z</time><ele>779.2</ele></trkpt><trkpt lat="45.826306" lon="9.433039"><time>2024-03-23T08:47:01.000Z</time><ele>779.2</ele></trkpt><trkpt lat="45.826301" lon="9.433035"><time>2024-03-23T08:47:02.000Z</time><ele>779.4</ele></trkpt><trkpt lat="45.826299" lon="9.433036"><time>2024-03-23T08:47:03.000Z</time><ele>779.4</ele></trkpt><trkpt lat="45.826298" lon="9.433038"><time>2024-03-23T08:47:04.000Z</time><ele>779.2</ele></trkpt><trkpt lat="45.826297" lon="9.433038"><time>2024-03-23T08:47:05.000Z</time><ele>779.2</ele></trkpt><trkpt lat="45.826296" lon="9.433035"><time>2024-03-23T08:47:06.000Z</time><ele>779.2</ele></trkpt><trkpt lat="45.826296" lon="9.433031"><time>2024-03-23T08:47:07.000Z</time><ele>779.2</ele></trkpt><trkpt lat="45.826295" lon="9.433029"><time>2024-03-23T08:47:08.000Z</time><ele>779.2</ele></trkpt><trkpt lat="45.826293" lon="9.433028"><time>2024-03-23T08:47:09.000Z</time><ele>779.2</ele></trkpt><trkpt lat="45.826292" lon="9.433031"><time>2024-03-23T08:47:10.000Z</time><ele>779.2</ele></trkpt><trkpt lat="45.826292" lon="9.433033"><time>2024-03-23T08:47:11.000Z</time><ele>779.2</ele></trkpt><trkpt lat="45.826292" lon="9.433034"><time>2024-03-23T08:47:12.000Z</time><ele>779.2</ele></trkpt><trkpt lat="45.826291" lon="9.433032"><time>2024-03-23T08:47:13.000Z</time><ele>779.2</ele></trkpt><trkpt lat="45.826291" lon="9.433032"><time>2024-03-23T08:47:14.000Z</time><ele>779.2</ele></trkpt><trkpt lat="45.826291" lon="9.433032"><time>2024-03-23T08:47:15.000Z</time><ele>779.2</ele></trkpt><trkpt lat="45.826291" lon="9.433032"><time>2024-03-23T08:47:16.000Z</time><ele>779.2</ele></trkpt><trkpt lat="45.826291" lon="9.433032"><time>2024-03-23T08:47:17.000Z</time><ele>779.2</ele></trkpt><trkpt lat="45.826291" lon="9.433032"><time>2024-03-23T08:47:18.000Z</time><ele>779.2</ele></trkpt><trkpt lat="45.826291" lon="9.433032"><time>2024-03-23T08:47:19.000Z</time><ele>779.2</ele></trkpt><trkpt lat="45.826291" lon="9.433032"><time>2024-03-23T08:47:20.000Z</time><ele>779.2</ele></trkpt><trkpt lat="45.826291" lon="9.433032"><time>2024-03-23T08:47:21.000Z</time><ele>779.2</ele></trkpt><trkpt lat="45.826291" lon="9.433032"><time>2024-03-23T08:47:22.000Z</time><ele>779.2</ele></trkpt><trkpt lat="45.826291" lon="9.433032"><time>2024-03-23T08:47:23.000Z</time><ele>779.2</ele></trkpt><trkpt lat="45.826291" lon="9.433032"><time>2024-03-23T08:47:24.000Z</time><ele>779.2</ele></trkpt><trkpt lat="45.826291" lon="9.433032"><time>2024-03-23T08:47:25.000Z</time><ele>779</ele></trkpt><trkpt lat="45.826291" lon="9.433032"><time>2024-03-23T08:47:26.000Z</time><ele>779</ele></trkpt><trkpt lat="45.826291" lon="9.433032"><time>2024-03-23T08:47:27.000Z</time><ele>779.2</ele></trkpt><trkpt lat="45.826291" lon="9.433032"><time>2024-03-23T08:47:28.000Z</time><ele>779.2</ele></trkpt><trkpt lat="45.826291" lon="9.433031"><time>2024-03-23T08:47:29.000Z</time><ele>779.2</ele></trkpt><trkpt lat="45.82629" lon="9.433031"><time>2024-03-23T08:47:30.000Z</time><ele>779.2</ele></trkpt><trkpt lat="45.82629" lon="9.433031"><time>2024-03-23T08:47:31.000Z</time><ele>779.2</ele></trkpt><trkpt lat="45.82629" lon="9.433031"><time>2024-03-23T08:47:32.000Z</time><ele>779.2</ele></trkpt><trkpt lat="45.82629" lon="9.433031"><time>2024-03-23T08:47:33.000Z</time><ele>779.2</ele></trkpt><trkpt lat="45.826289" lon="9.433031"><time>2024-03-23T08:47:34.000Z</time><ele>779.2</ele></trkpt><trkpt lat="45.826289" lon="9.433031"><time>2024-03-23T08:47:35.000Z</time><ele>779.2</ele></trkpt><trkpt lat="45.826289" lon="9.433031"><time>2024-03-23T08:47:36.000Z</time><ele>779.2</ele></trkpt><trkpt lat="45.826289" lon="9.433031"><time>2024-03-23T08:47:37.000Z</time><ele>779.2</ele></trkpt><trkpt lat="45.826289" lon="9.433031"><time>2024-03-23T08:47:38.000Z</time><ele>779.2</ele></trkpt><trkpt lat="45.826289" lon="9.433031"><time>2024-03-23T08:47:39.000Z</time><ele>779.4</ele></trkpt><trkpt lat="45.826288" lon="9.433031"><time>2024-03-23T08:47:40.000Z</time><ele>779.4</ele></trkpt><trkpt lat="45.826286" lon="9.433032"><time>2024-03-23T08:47:41.000Z</time><ele>779.4</ele></trkpt><trkpt lat="45.826286" lon="9.433032"><time>2024-03-23T08:47:42.000Z</time><ele>779.4</ele></trkpt><trkpt lat="45.826285" lon="9.433032"><time>2024-03-23T08:47:43.000Z</time><ele>779.4</ele></trkpt><trkpt lat="45.826284" lon="9.433033"><time>2024-03-23T08:47:44.000Z</time><ele>779.4</ele></trkpt><trkpt lat="45.826283" lon="9.433034"><time>2024-03-23T08:47:45.000Z</time><ele>779.4</ele></trkpt><trkpt lat="45.826283" lon="9.433036"><time>2024-03-23T08:47:46.000Z</time><ele>779.4</ele></trkpt><trkpt lat="45.826283" lon="9.433037"><time>2024-03-23T08:47:47.000Z</time><ele>779.4</ele></trkpt><trkpt lat="45.826283" lon="9.433037"><time>2024-03-23T08:47:48.000Z</time><ele>779.4</ele></trkpt><trkpt lat="45.826283" lon="9.433044"><time>2024-03-23T08:47:49.000Z</time><ele>779.4</ele></trkpt><trkpt lat="45.826283" lon="9.433048"><time>2024-03-23T08:47:50.000Z</time><ele>779.4</ele></trkpt><trkpt lat="45.826283" lon="9.433049"><time>2024-03-23T08:47:51.000Z</time><ele>779.4</ele></trkpt><trkpt lat="45.826283" lon="9.43305"><time>2024-03-23T08:47:52.000Z</time><ele>779.4</ele></trkpt><trkpt lat="45.826283" lon="9.433051"><time>2024-03-23T08:47:53.000Z</time><ele>779.6</ele></trkpt><trkpt lat="45.826283" lon="9.433053"><time>2024-03-23T08:47:54.000Z</time><ele>779.6</ele></trkpt><trkpt lat="45.826283" lon="9.433055"><time>2024-03-23T08:47:55.000Z</time><ele>779.6</ele></trkpt><trkpt lat="45.826283" lon="9.433056"><time>2024-03-23T08:47:56.000Z</time><ele>779.6</ele></trkpt><trkpt lat="45.826283" lon="9.433056"><time>2024-03-23T08:47:57.000Z</time><ele>779.8</ele></trkpt><trkpt lat="45.826283" lon="9.433057"><time>2024-03-23T08:47:58.000Z</time><ele>779.8</ele></trkpt><trkpt lat="45.826283" lon="9.433057"><time>2024-03-23T08:47:59.000Z</time><ele>779.8</ele></trkpt><trkpt lat="45.826283" lon="9.433058"><time>2024-03-23T08:48:00.000Z</time><ele>779.8</ele></trkpt><trkpt lat="45.826283" lon="9.433058"><time>2024-03-23T08:48:01.000Z</time><ele>779.8</ele></trkpt><trkpt lat="45.826283" lon="9.433059"><time>2024-03-23T08:48:02.000Z</time><ele>779.8</ele></trkpt><trkpt lat="45.826283" lon="9.43306"><time>2024-03-23T08:48:03.000Z</time><ele>779.8</ele></trkpt><trkpt lat="45.826284" lon="9.43306"><time>2024-03-23T08:48:04.000Z</time><ele>779.8</ele></trkpt><trkpt lat="45.826284" lon="9.433061"><time>2024-03-23T08:48:05.000Z</time><ele>779.8</ele></trkpt><trkpt lat="45.826284" lon="9.433061"><time>2024-03-23T08:48:06.000Z</time><ele>779.8</ele></trkpt><trkpt lat="45.826284" lon="9.433061"><time>2024-03-23T08:48:07.000Z</time><ele>779.8</ele></trkpt><trkpt lat="45.826286" lon="9.433062"><time>2024-03-23T08:48:08.000Z</time><ele>779.8</ele></trkpt><trkpt lat="45.826286" lon="9.433062"><time>2024-03-23T08:48:09.000Z</time><ele>779.8</ele></trkpt><trkpt lat="45.826287" lon="9.433063"><time>2024-03-23T08:48:10.000Z</time><ele>779.8</ele></trkpt><trkpt lat="45.826287" lon="9.433064"><time>2024-03-23T08:48:11.000Z</time><ele>779.8</ele></trkpt><trkpt lat="45.826287" lon="9.433064"><time>2024-03-23T08:48:12.000Z</time><ele>779.8</ele></trkpt><trkpt lat="45.826287" lon="9.433064"><time>2024-03-23T08:48:13.000Z</time><ele>779.8</ele></trkpt><trkpt lat="45.826287" lon="9.433064"><time>2024-03-23T08:48:14.000Z</time><ele>779.8</ele></trkpt><trkpt lat="45.826287" lon="9.433064"><time>2024-03-23T08:48:15.000Z</time><ele>779.8</ele></trkpt><trkpt lat="45.826287" lon="9.433064"><time>2024-03-23T08:48:16.000Z</time><ele>779.8</ele></trkpt><trkpt lat="45.826287" lon="9.433064"><time>2024-03-23T08:48:17.000Z</time><ele>779.8</ele></trkpt><trkpt lat="45.826287" lon="9.433064"><time>2024-03-23T08:48:18.000Z</time><ele>779.8</ele></trkpt><trkpt lat="45.826287" lon="9.433064"><time>2024-03-23T08:48:19.000Z</time><ele>779.8</ele></trkpt><trkpt lat="45.826287" lon="9.433064"><time>2024-03-23T08:48:20.000Z</time><ele>779.8</ele></trkpt><trkpt lat="45.826287" lon="9.433065"><time>2024-03-23T08:48:21.000Z</time><ele>779.8</ele></trkpt><trkpt lat="45.826286" lon="9.433066"><time>2024-03-23T08:48:22.000Z</time><ele>779.8</ele></trkpt><trkpt lat="45.826285" lon="9.433066"><time>2024-03-23T08:48:23.000Z</time><ele>779.8</ele></trkpt><trkpt lat="45.826285" lon="9.433066"><time>2024-03-23T08:48:24.000Z</time><ele>779.8</ele></trkpt><trkpt lat="45.826285" lon="9.433067"><time>2024-03-23T08:48:25.000Z</time><ele>779.8</ele></trkpt><trkpt lat="45.826285" lon="9.433067"><time>2024-03-23T08:48:26.000Z</time><ele>780</ele></trkpt><trkpt lat="45.826284" lon="9.433067"><time>2024-03-23T08:48:27.000Z</time><ele>780.2</ele></trkpt><trkpt lat="45.82628" lon="9.433067"><time>2024-03-23T08:48:28.000Z</time><ele>780.2</ele></trkpt><trkpt lat="45.826277" lon="9.433066"><time>2024-03-23T08:48:29.000Z</time><ele>780.4</ele></trkpt><trkpt lat="45.826274" lon="9.433073"><time>2024-03-23T08:48:30.000Z</time><ele>780.8</ele></trkpt><trkpt lat="45.82627" lon="9.433081"><time>2024-03-23T08:48:31.000Z</time><ele>781</ele></trkpt><trkpt lat="45.826263" lon="9.433089"><time>2024-03-23T08:48:32.000Z</time><ele>781.2</ele></trkpt><trkpt lat="45.826257" lon="9.433087"><time>2024-03-23T08:48:33.000Z</time><ele>781.2</ele></trkpt><trkpt lat="45.826249" lon="9.433092"><time>2024-03-23T08:48:34.000Z</time><ele>781.4</ele></trkpt><trkpt lat="45.826246" lon="9.433091"><time>2024-03-23T08:48:35.000Z</time><ele>781.4</ele></trkpt><trkpt lat="45.826242" lon="9.433091"><time>2024-03-23T08:48:36.000Z</time><ele>781.6</ele></trkpt><trkpt lat="45.826241" lon="9.433093"><time>2024-03-23T08:48:37.000Z</time><ele>781.8</ele></trkpt><trkpt lat="45.826242" lon="9.433096"><time>2024-03-23T08:48:38.000Z</time><ele>782</ele></trkpt><trkpt lat="45.82624" lon="9.433096"><time>2024-03-23T08:48:39.000Z</time><ele>782</ele></trkpt><trkpt lat="45.826239" lon="9.433097"><time>2024-03-23T08:48:40.000Z</time><ele>782.2</ele></trkpt><trkpt lat="45.826237" lon="9.433093"><time>2024-03-23T08:48:41.000Z</time><ele>782.4</ele></trkpt><trkpt lat="45.826226" lon="9.433089"><time>2024-03-23T08:48:42.000Z</time><ele>782.6</ele></trkpt><trkpt lat="45.826218" lon="9.433092"><time>2024-03-23T08:48:43.000Z</time><ele>782.8</ele></trkpt><trkpt lat="45.82621" lon="9.433106"><time>2024-03-23T08:48:44.000Z</time><ele>782.8</ele></trkpt><trkpt lat="45.826204" lon="9.433108"><time>2024-03-23T08:48:45.000Z</time><ele>783</ele></trkpt><trkpt lat="45.826198" lon="9.433109"><time>2024-03-23T08:48:46.000Z</time><ele>783.2</ele></trkpt><trkpt lat="45.826191" lon="9.43311"><time>2024-03-23T08:48:47.000Z</time><ele>783.4</ele></trkpt><trkpt lat="45.826188" lon="9.433118"><time>2024-03-23T08:48:48.000Z</time><ele>783.6</ele></trkpt><trkpt lat="45.826186" lon="9.433114"><time>2024-03-23T08:48:49.000Z</time><ele>783.8</ele></trkpt><trkpt lat="45.826185" lon="9.43311"><time>2024-03-23T08:48:50.000Z</time><ele>784</ele></trkpt><trkpt lat="45.826181" lon="9.433098"><time>2024-03-23T08:48:51.000Z</time><ele>784</ele></trkpt><trkpt lat="45.826179" lon="9.433105"><time>2024-03-23T08:48:52.000Z</time><ele>784.2</ele></trkpt><trkpt lat="45.826172" lon="9.433109"><time>2024-03-23T08:48:53.000Z</time><ele>784.2</ele></trkpt><trkpt lat="45.826172" lon="9.433111"><time>2024-03-23T08:48:54.000Z</time><ele>784.4</ele></trkpt><trkpt lat="45.826167" lon="9.433121"><time>2024-03-23T08:48:55.000Z</time><ele>784.6</ele></trkpt><trkpt lat="45.826166" lon="9.433125"><time>2024-03-23T08:48:56.000Z</time><ele>785</ele></trkpt><trkpt lat="45.826165" lon="9.433128"><time>2024-03-23T08:48:57.000Z</time><ele>785.2</ele></trkpt><trkpt lat="45.826156" lon="9.433141"><time>2024-03-23T08:48:58.000Z</time><ele>785.2</ele></trkpt><trkpt lat="45.826152" lon="9.433157"><time>2024-03-23T08:48:59.000Z</time><ele>785.6</ele></trkpt><trkpt lat="45.826151" lon="9.433161"><time>2024-03-23T08:49:00.000Z</time><ele>785.8</ele></trkpt><trkpt lat="45.82615" lon="9.433164"><time>2024-03-23T08:49:01.000Z</time><ele>786</ele></trkpt><trkpt lat="45.826151" lon="9.433169"><time>2024-03-23T08:49:02.000Z</time><ele>786</ele></trkpt><trkpt lat="45.826151" lon="9.433171"><time>2024-03-23T08:49:03.000Z</time><ele>786.2</ele></trkpt><trkpt lat="45.826154" lon="9.433171"><time>2024-03-23T08:49:04.000Z</time><ele>786.2</ele></trkpt><trkpt lat="45.826155" lon="9.433172"><time>2024-03-23T08:49:05.000Z</time><ele>786.4</ele></trkpt><trkpt lat="45.826155" lon="9.433169"><time>2024-03-23T08:49:06.000Z</time><ele>786.4</ele></trkpt><trkpt lat="45.826155" lon="9.433168"><time>2024-03-23T08:49:07.000Z</time><ele>786.4</ele></trkpt><trkpt lat="45.826155" lon="9.433168"><time>2024-03-23T08:49:08.000Z</time><ele>786.6</ele></trkpt><trkpt lat="45.826152" lon="9.43318"><time>2024-03-23T08:49:09.000Z</time><ele>786.8</ele></trkpt><trkpt lat="45.826151" lon="9.433179"><time>2024-03-23T08:49:10.000Z</time><ele>787</ele></trkpt><trkpt lat="45.826151" lon="9.433181"><time>2024-03-23T08:49:11.000Z</time><ele>787.2</ele></trkpt><trkpt lat="45.826151" lon="9.433184"><time>2024-03-23T08:49:12.000Z</time><ele>787.2</ele></trkpt><trkpt lat="45.826149" lon="9.433189"><time>2024-03-23T08:49:13.000Z</time><ele>787.6</ele></trkpt><trkpt lat="45.826141" lon="9.433192"><time>2024-03-23T08:49:14.000Z</time><ele>787.8</ele></trkpt><trkpt lat="45.826134" lon="9.433194"><time>2024-03-23T08:49:15.000Z</time><ele>788</ele></trkpt><trkpt lat="45.826132" lon="9.433197"><time>2024-03-23T08:49:16.000Z</time><ele>788.2</ele></trkpt><trkpt lat="45.826129" lon="9.433197"><time>2024-03-23T08:49:17.000Z</time><ele>788.4</ele></trkpt><trkpt lat="45.826127" lon="9.433196"><time>2024-03-23T08:49:18.000Z</time><ele>788.6</ele></trkpt><trkpt lat="45.826129" lon="9.433211"><time>2024-03-23T08:49:19.000Z</time><ele>788.6</ele></trkpt><trkpt lat="45.826132" lon="9.43321"><time>2024-03-23T08:49:20.000Z</time><ele>788.8</ele></trkpt><trkpt lat="45.82613" lon="9.433211"><time>2024-03-23T08:49:21.000Z</time><ele>789</ele></trkpt><trkpt lat="45.826126" lon="9.43321"><time>2024-03-23T08:49:22.000Z</time><ele>789.2</ele></trkpt><trkpt lat="45.826124" lon="9.433211"><time>2024-03-23T08:49:23.000Z</time><ele>789.4</ele></trkpt><trkpt lat="45.826122" lon="9.43321"><time>2024-03-23T08:49:24.000Z</time><ele>789.6</ele></trkpt><trkpt lat="45.82611" lon="9.43321"><time>2024-03-23T08:49:25.000Z</time><ele>789.8</ele></trkpt><trkpt lat="45.826102" lon="9.433215"><time>2024-03-23T08:49:26.000Z</time><ele>790.2</ele></trkpt><trkpt lat="45.826103" lon="9.433215"><time>2024-03-23T08:49:27.000Z</time><ele>790.4</ele></trkpt><trkpt lat="45.8261" lon="9.433219"><time>2024-03-23T08:49:28.000Z</time><ele>790.4</ele></trkpt><trkpt lat="45.826098" lon="9.43322"><time>2024-03-23T08:49:29.000Z</time><ele>790.6</ele></trkpt><trkpt lat="45.826093" lon="9.433221"><time>2024-03-23T08:49:30.000Z</time><ele>790.8</ele></trkpt><trkpt lat="45.826093" lon="9.433227"><time>2024-03-23T08:49:31.000Z</time><ele>790.8</ele></trkpt><trkpt lat="45.826092" lon="9.433226"><time>2024-03-23T08:49:32.000Z</time><ele>791</ele></trkpt><trkpt lat="45.826084" lon="9.433228"><time>2024-03-23T08:49:33.000Z</time><ele>791.2</ele></trkpt><trkpt lat="45.826077" lon="9.433224"><time>2024-03-23T08:49:34.000Z</time><ele>791.6</ele></trkpt><trkpt lat="45.826077" lon="9.433221"><time>2024-03-23T08:49:35.000Z</time><ele>791.8</ele></trkpt><trkpt lat="45.826078" lon="9.433219"><time>2024-03-23T08:49:36.000Z</time><ele>792</ele></trkpt><trkpt lat="45.826076" lon="9.433219"><time>2024-03-23T08:49:37.000Z</time><ele>792.2</ele></trkpt><trkpt lat="45.826069" lon="9.433224"><time>2024-03-23T08:49:38.000Z</time><ele>792.4</ele></trkpt><trkpt lat="45.826066" lon="9.43323"><time>2024-03-23T08:49:39.000Z</time><ele>792.6</ele></trkpt><trkpt lat="45.826065" lon="9.43323"><time>2024-03-23T08:49:40.000Z</time><ele>792.8</ele></trkpt><trkpt lat="45.826061" lon="9.433231"><time>2024-03-23T08:49:41.000Z</time><ele>792.8</ele></trkpt><trkpt lat="45.826061" lon="9.433229"><time>2024-03-23T08:49:42.000Z</time><ele>793</ele></trkpt><trkpt lat="45.826063" lon="9.433227"><time>2024-03-23T08:49:43.000Z</time><ele>793.2</ele></trkpt><trkpt lat="45.826065" lon="9.433229"><time>2024-03-23T08:49:44.000Z</time><ele>793.2</ele></trkpt><trkpt lat="45.826066" lon="9.433225"><time>2024-03-23T08:49:45.000Z</time><ele>793.4</ele></trkpt><trkpt lat="45.826065" lon="9.433223"><time>2024-03-23T08:49:46.000Z</time><ele>793.4</ele></trkpt><trkpt lat="45.82606" lon="9.43323"><time>2024-03-23T08:49:47.000Z</time><ele>793.6</ele></trkpt><trkpt lat="45.826054" lon="9.433248"><time>2024-03-23T08:49:48.000Z</time><ele>793.8</ele></trkpt><trkpt lat="45.826045" lon="9.43326"><time>2024-03-23T08:49:49.000Z</time><ele>794</ele></trkpt><trkpt lat="45.826038" lon="9.433263"><time>2024-03-23T08:49:50.000Z</time><ele>794.2</ele></trkpt><trkpt lat="45.826033" lon="9.433274"><time>2024-03-23T08:49:51.000Z</time><ele>794.4</ele></trkpt><trkpt lat="45.82603" lon="9.433285"><time>2024-03-23T08:49:52.000Z</time><ele>794.6</ele></trkpt><trkpt lat="45.826034" lon="9.433295"><time>2024-03-23T08:49:53.000Z</time><ele>794.8</ele></trkpt><trkpt lat="45.82604" lon="9.433303"><time>2024-03-23T08:49:54.000Z</time><ele>795</ele></trkpt><trkpt lat="45.826042" lon="9.433313"><time>2024-03-23T08:49:55.000Z</time><ele>795</ele></trkpt><trkpt lat="45.826042" lon="9.433319"><time>2024-03-23T08:49:56.000Z</time><ele>795</ele></trkpt><trkpt lat="45.826042" lon="9.433323"><time>2024-03-23T08:49:57.000Z</time><ele>795.2</ele></trkpt><trkpt lat="45.826032" lon="9.43333"><time>2024-03-23T08:49:58.000Z</time><ele>795.4</ele></trkpt><trkpt lat="45.826023" lon="9.433339"><time>2024-03-23T08:49:59.000Z</time><ele>795.6</ele></trkpt><trkpt lat="45.826022" lon="9.433346"><time>2024-03-23T08:50:00.000Z</time><ele>795.8</ele></trkpt><trkpt lat="45.82602" lon="9.433366"><time>2024-03-23T08:50:01.000Z</time><ele>796.2</ele></trkpt><trkpt lat="45.826021" lon="9.43338"><time>2024-03-23T08:50:02.000Z</time><ele>796.4</ele></trkpt><trkpt lat="45.826021" lon="9.433389"><time>2024-03-23T08:50:03.000Z</time><ele>796.4</ele></trkpt><trkpt lat="45.826019" lon="9.433402"><time>2024-03-23T08:50:04.000Z</time><ele>796.6</ele></trkpt><trkpt lat="45.826019" lon="9.433408"><time>2024-03-23T08:50:05.000Z</time><ele>796.6</ele></trkpt><trkpt lat="45.826016" lon="9.43341"><time>2024-03-23T08:50:06.000Z</time><ele>796.8</ele></trkpt><trkpt lat="45.826011" lon="9.433426"><time>2024-03-23T08:50:07.000Z</time><ele>797</ele></trkpt><trkpt lat="45.826009" lon="9.433431"><time>2024-03-23T08:50:08.000Z</time><ele>797</ele></trkpt><trkpt lat="45.825999" lon="9.433434"><time>2024-03-23T08:50:09.000Z</time><ele>797.2</ele></trkpt><trkpt lat="45.825996" lon="9.433437"><time>2024-03-23T08:50:10.000Z</time><ele>797.2</ele></trkpt><trkpt lat="45.825988" lon="9.433434"><time>2024-03-23T08:50:11.000Z</time><ele>797.4</ele></trkpt><trkpt lat="45.825988" lon="9.433431"><time>2024-03-23T08:50:12.000Z</time><ele>797.6</ele></trkpt><trkpt lat="45.825991" lon="9.433435"><time>2024-03-23T08:50:13.000Z</time><ele>798</ele></trkpt><trkpt lat="45.825993" lon="9.433445"><time>2024-03-23T08:50:14.000Z</time><ele>798.2</ele></trkpt><trkpt lat="45.825992" lon="9.43346"><time>2024-03-23T08:50:15.000Z</time><ele>798.2</ele></trkpt><trkpt lat="45.825995" lon="9.433468"><time>2024-03-23T08:50:16.000Z</time><ele>798.4</ele></trkpt><trkpt lat="45.825991" lon="9.433479"><time>2024-03-23T08:50:17.000Z</time><ele>798.6</ele></trkpt><trkpt lat="45.825992" lon="9.433494"><time>2024-03-23T08:50:18.000Z</time><ele>798.8</ele></trkpt><trkpt lat="45.825983" lon="9.433513"><time>2024-03-23T08:50:19.000Z</time><ele>799</ele></trkpt><trkpt lat="45.825988" lon="9.433516"><time>2024-03-23T08:50:20.000Z</time><ele>799.2</ele></trkpt><trkpt lat="45.825982" lon="9.433506"><time>2024-03-23T08:50:21.000Z</time><ele>799.4</ele></trkpt><trkpt lat="45.825981" lon="9.433507"><time>2024-03-23T08:50:22.000Z</time><ele>799.4</ele></trkpt><trkpt lat="45.825982" lon="9.433508"><time>2024-03-23T08:50:23.000Z</time><ele>799.6</ele></trkpt><trkpt lat="45.825982" lon="9.433511"><time>2024-03-23T08:50:24.000Z</time><ele>799.6</ele></trkpt><trkpt lat="45.82598" lon="9.433515"><time>2024-03-23T08:50:25.000Z</time><ele>800</ele></trkpt><trkpt lat="45.825984" lon="9.43352"><time>2024-03-23T08:50:26.000Z</time><ele>800.2</ele></trkpt><trkpt lat="45.825984" lon="9.433522"><time>2024-03-23T08:50:27.000Z</time><ele>800.2</ele></trkpt><trkpt lat="45.825984" lon="9.433522"><time>2024-03-23T08:50:28.000Z</time><ele>800.6</ele></trkpt><trkpt lat="45.825985" lon="9.433521"><time>2024-03-23T08:50:29.000Z</time><ele>800.8</ele></trkpt><trkpt lat="45.825986" lon="9.433525"><time>2024-03-23T08:50:30.000Z</time><ele>800.8</ele></trkpt><trkpt lat="45.82599" lon="9.433533"><time>2024-03-23T08:50:31.000Z</time><ele>801</ele></trkpt><trkpt lat="45.825998" lon="9.433537"><time>2024-03-23T08:50:32.000Z</time><ele>801.2</ele></trkpt><trkpt lat="45.826002" lon="9.433536"><time>2024-03-23T08:50:33.000Z</time><ele>801.2</ele></trkpt><trkpt lat="45.826003" lon="9.433537"><time>2024-03-23T08:50:34.000Z</time><ele>801.6</ele></trkpt><trkpt lat="45.826006" lon="9.433538"><time>2024-03-23T08:50:35.000Z</time><ele>801.8</ele></trkpt><trkpt lat="45.826008" lon="9.433543"><time>2024-03-23T08:50:36.000Z</time><ele>802</ele></trkpt><trkpt lat="45.826012" lon="9.433541"><time>2024-03-23T08:50:37.000Z</time><ele>802.2</ele></trkpt><trkpt lat="45.826015" lon="9.433544"><time>2024-03-23T08:50:38.000Z</time><ele>802.4</ele></trkpt><trkpt lat="45.826017" lon="9.433548"><time>2024-03-23T08:50:39.000Z</time><ele>802.4</ele></trkpt><trkpt lat="45.826018" lon="9.433558"><time>2024-03-23T08:50:40.000Z</time><ele>802.6</ele></trkpt><trkpt lat="45.82602" lon="9.433565"><time>2024-03-23T08:50:41.000Z</time><ele>802.8</ele></trkpt><trkpt lat="45.826023" lon="9.433567"><time>2024-03-23T08:50:42.000Z</time><ele>802.8</ele></trkpt><trkpt lat="45.826027" lon="9.433566"><time>2024-03-23T08:50:43.000Z</time><ele>803</ele></trkpt><trkpt lat="45.826028" lon="9.433568"><time>2024-03-23T08:50:44.000Z</time><ele>803</ele></trkpt><trkpt lat="45.826029" lon="9.433577"><time>2024-03-23T08:50:45.000Z</time><ele>803.4</ele></trkpt><trkpt lat="45.826031" lon="9.433586"><time>2024-03-23T08:50:46.000Z</time><ele>803.6</ele></trkpt><trkpt lat="45.826033" lon="9.433593"><time>2024-03-23T08:50:47.000Z</time><ele>803.6</ele></trkpt><trkpt lat="45.826034" lon="9.433594"><time>2024-03-23T08:50:48.000Z</time><ele>803.8</ele></trkpt><trkpt lat="45.826033" lon="9.433594"><time>2024-03-23T08:50:49.000Z</time><ele>804</ele></trkpt><trkpt lat="45.826035" lon="9.433595"><time>2024-03-23T08:50:50.000Z</time><ele>804.2</ele></trkpt><trkpt lat="45.826038" lon="9.433597"><time>2024-03-23T08:50:51.000Z</time><ele>804.4</ele></trkpt><trkpt lat="45.826039" lon="9.433594"><time>2024-03-23T08:50:52.000Z</time><ele>804.6</ele></trkpt><trkpt lat="45.826041" lon="9.433599"><time>2024-03-23T08:50:53.000Z</time><ele>804.8</ele></trkpt><trkpt lat="45.826044" lon="9.4336"><time>2024-03-23T08:50:54.000Z</time><ele>804.8</ele></trkpt><trkpt lat="45.826041" lon="9.43361"><time>2024-03-23T08:50:55.000Z</time><ele>805</ele></trkpt><trkpt lat="45.826036" lon="9.433623"><time>2024-03-23T08:50:56.000Z</time><ele>805.2</ele></trkpt><trkpt lat="45.826039" lon="9.433627"><time>2024-03-23T08:50:57.000Z</time><ele>805.4</ele></trkpt><trkpt lat="45.826037" lon="9.433629"><time>2024-03-23T08:50:58.000Z</time><ele>805.6</ele></trkpt><trkpt lat="45.826032" lon="9.433638"><time>2024-03-23T08:50:59.000Z</time><ele>805.8</ele></trkpt><trkpt lat="45.826016" lon="9.433658"><time>2024-03-23T08:51:00.000Z</time><ele>806</ele></trkpt><trkpt lat="45.826007" lon="9.433678"><time>2024-03-23T08:51:01.000Z</time><ele>806</ele></trkpt><trkpt lat="45.826002" lon="9.433685"><time>2024-03-23T08:51:02.000Z</time><ele>806.2</ele></trkpt><trkpt lat="45.826004" lon="9.433693"><time>2024-03-23T08:51:03.000Z</time><ele>806.4</ele></trkpt><trkpt lat="45.826005" lon="9.433697"><time>2024-03-23T08:51:04.000Z</time><ele>806.4</ele></trkpt><trkpt lat="45.826006" lon="9.4337"><time>2024-03-23T08:51:05.000Z</time><ele>806.6</ele></trkpt><trkpt lat="45.826008" lon="9.433704"><time>2024-03-23T08:51:06.000Z</time><ele>806.8</ele></trkpt><trkpt lat="45.82601" lon="9.433719"><time>2024-03-23T08:51:07.000Z</time><ele>807</ele></trkpt><trkpt lat="45.826008" lon="9.433724"><time>2024-03-23T08:51:08.000Z</time><ele>807</ele></trkpt><trkpt lat="45.826009" lon="9.433721"><time>2024-03-23T08:51:09.000Z</time><ele>807.2</ele></trkpt><trkpt lat="45.826006" lon="9.433722"><time>2024-03-23T08:51:10.000Z</time><ele>807.4</ele></trkpt><trkpt lat="45.826005" lon="9.433722"><time>2024-03-23T08:51:11.000Z</time><ele>807.6</ele></trkpt><trkpt lat="45.826007" lon="9.43372"><time>2024-03-23T08:51:12.000Z</time><ele>807.8</ele></trkpt><trkpt lat="45.826009" lon="9.433722"><time>2024-03-23T08:51:13.000Z</time><ele>808</ele></trkpt><trkpt lat="45.82601" lon="9.433723"><time>2024-03-23T08:51:14.000Z</time><ele>808.2</ele></trkpt><trkpt lat="45.826016" lon="9.433726"><time>2024-03-23T08:51:15.000Z</time><ele>808.2</ele></trkpt><trkpt lat="45.826021" lon="9.433726"><time>2024-03-23T08:51:16.000Z</time><ele>808.2</ele></trkpt><trkpt lat="45.826024" lon="9.433727"><time>2024-03-23T08:51:17.000Z</time><ele>808.4</ele></trkpt><trkpt lat="45.826026" lon="9.433727"><time>2024-03-23T08:51:18.000Z</time><ele>808.6</ele></trkpt><trkpt lat="45.826029" lon="9.433728"><time>2024-03-23T08:51:19.000Z</time><ele>809</ele></trkpt><trkpt lat="45.826033" lon="9.43373"><time>2024-03-23T08:51:20.000Z</time><ele>809.2</ele></trkpt><trkpt lat="45.826038" lon="9.433736"><time>2024-03-23T08:51:21.000Z</time><ele>809.4</ele></trkpt><trkpt lat="45.82604" lon="9.433738"><time>2024-03-23T08:51:22.000Z</time><ele>809.4</ele></trkpt><trkpt lat="45.826042" lon="9.433741"><time>2024-03-23T08:51:23.000Z</time><ele>809.6</ele></trkpt><trkpt lat="45.826043" lon="9.433741"><time>2024-03-23T08:51:24.000Z</time><ele>809.6</ele></trkpt><trkpt lat="45.826041" lon="9.433736"><time>2024-03-23T08:51:25.000Z</time><ele>809.8</ele></trkpt><trkpt lat="45.826041" lon="9.433732"><time>2024-03-23T08:51:26.000Z</time><ele>810</ele></trkpt><trkpt lat="45.826043" lon="9.433733"><time>2024-03-23T08:51:27.000Z</time><ele>810</ele></trkpt><trkpt lat="45.826048" lon="9.433744"><time>2024-03-23T08:51:28.000Z</time><ele>810.2</ele></trkpt><trkpt lat="45.826052" lon="9.433746"><time>2024-03-23T08:51:29.000Z</time><ele>810.2</ele></trkpt><trkpt lat="45.826054" lon="9.433749"><time>2024-03-23T08:51:30.000Z</time><ele>810.2</ele></trkpt><trkpt lat="45.826059" lon="9.433754"><time>2024-03-23T08:51:31.000Z</time><ele>810.4</ele></trkpt><trkpt lat="45.826063" lon="9.433757"><time>2024-03-23T08:51:32.000Z</time><ele>810.6</ele></trkpt><trkpt lat="45.826068" lon="9.433764"><time>2024-03-23T08:51:33.000Z</time><ele>810.8</ele></trkpt><trkpt lat="45.826074" lon="9.433769"><time>2024-03-23T08:51:34.000Z</time><ele>810.8</ele></trkpt><trkpt lat="45.82608" lon="9.433772"><time>2024-03-23T08:51:35.000Z</time><ele>811</ele></trkpt><trkpt lat="45.826086" lon="9.43377"><time>2024-03-23T08:51:36.000Z</time><ele>811</ele></trkpt><trkpt lat="45.82609" lon="9.43377"><time>2024-03-23T08:51:37.000Z</time><ele>811.2</ele></trkpt><trkpt lat="45.826094" lon="9.433772"><time>2024-03-23T08:51:38.000Z</time><ele>811.4</ele></trkpt><trkpt lat="45.826101" lon="9.43378"><time>2024-03-23T08:51:39.000Z</time><ele>811.6</ele></trkpt><trkpt lat="45.826105" lon="9.433783"><time>2024-03-23T08:51:40.000Z</time><ele>811.8</ele></trkpt><trkpt lat="45.82611" lon="9.433799"><time>2024-03-23T08:51:41.000Z</time><ele>812</ele></trkpt><trkpt lat="45.826118" lon="9.433804"><time>2024-03-23T08:51:42.000Z</time><ele>812</ele></trkpt><trkpt lat="45.826122" lon="9.433806"><time>2024-03-23T08:51:43.000Z</time><ele>812.2</ele></trkpt><trkpt lat="45.826127" lon="9.433815"><time>2024-03-23T08:51:44.000Z</time><ele>812.4</ele></trkpt><trkpt lat="45.826133" lon="9.433827"><time>2024-03-23T08:51:45.000Z</time><ele>812.6</ele></trkpt><trkpt lat="45.826137" lon="9.433831"><time>2024-03-23T08:51:46.000Z</time><ele>812.8</ele></trkpt><trkpt lat="45.826139" lon="9.433836"><time>2024-03-23T08:51:47.000Z</time><ele>813</ele></trkpt><trkpt lat="45.826143" lon="9.433836"><time>2024-03-23T08:51:48.000Z</time><ele>813.2</ele></trkpt><trkpt lat="45.82615" lon="9.433836"><time>2024-03-23T08:51:49.000Z</time><ele>813.4</ele></trkpt><trkpt lat="45.826157" lon="9.433839"><time>2024-03-23T08:51:50.000Z</time><ele>813.6</ele></trkpt><trkpt lat="45.826163" lon="9.433844"><time>2024-03-23T08:51:51.000Z</time><ele>813.6</ele></trkpt><trkpt lat="45.826169" lon="9.433844"><time>2024-03-23T08:51:52.000Z</time><ele>813.8</ele></trkpt><trkpt lat="45.826173" lon="9.433843"><time>2024-03-23T08:51:53.000Z</time><ele>814</ele></trkpt><trkpt lat="45.826176" lon="9.433847"><time>2024-03-23T08:51:54.000Z</time><ele>814.2</ele></trkpt><trkpt lat="45.826184" lon="9.433855"><time>2024-03-23T08:51:55.000Z</time><ele>814.2</ele></trkpt><trkpt lat="45.826186" lon="9.43386"><time>2024-03-23T08:51:56.000Z</time><ele>814.4</ele></trkpt><trkpt lat="45.826189" lon="9.433857"><time>2024-03-23T08:51:57.000Z</time><ele>814.8</ele></trkpt><trkpt lat="45.826191" lon="9.43386"><time>2024-03-23T08:51:58.000Z</time><ele>815</ele></trkpt><trkpt lat="45.826192" lon="9.433878"><time>2024-03-23T08:51:59.000Z</time><ele>815</ele></trkpt><trkpt lat="45.826195" lon="9.43389"><time>2024-03-23T08:52:00.000Z</time><ele>815.2</ele></trkpt><trkpt lat="45.826199" lon="9.43389"><time>2024-03-23T08:52:01.000Z</time><ele>815.2</ele></trkpt><trkpt lat="45.826201" lon="9.433893"><time>2024-03-23T08:52:02.000Z</time><ele>815.4</ele></trkpt><trkpt lat="45.8262" lon="9.433891"><time>2024-03-23T08:52:03.000Z</time><ele>815.4</ele></trkpt><trkpt lat="45.826203" lon="9.433894"><time>2024-03-23T08:52:04.000Z</time><ele>815.6</ele></trkpt><trkpt lat="45.826206" lon="9.433903"><time>2024-03-23T08:52:05.000Z</time><ele>815.8</ele></trkpt><trkpt lat="45.826211" lon="9.433915"><time>2024-03-23T08:52:06.000Z</time><ele>816</ele></trkpt><trkpt lat="45.826219" lon="9.433929"><time>2024-03-23T08:52:07.000Z</time><ele>816</ele></trkpt><trkpt lat="45.826223" lon="9.433942"><time>2024-03-23T08:52:08.000Z</time><ele>816.4</ele></trkpt><trkpt lat="45.826222" lon="9.433945"><time>2024-03-23T08:52:09.000Z</time><ele>816.4</ele></trkpt><trkpt lat="45.826221" lon="9.433949"><time>2024-03-23T08:52:10.000Z</time><ele>816.6</ele></trkpt><trkpt lat="45.82622" lon="9.433953"><time>2024-03-23T08:52:11.000Z</time><ele>816.8</ele></trkpt><trkpt lat="45.826219" lon="9.433957"><time>2024-03-23T08:52:12.000Z</time><ele>816.8</ele></trkpt><trkpt lat="45.82622" lon="9.433958"><time>2024-03-23T08:52:13.000Z</time><ele>817.2</ele></trkpt><trkpt lat="45.826221" lon="9.43396"><time>2024-03-23T08:52:14.000Z</time><ele>817.2</ele></trkpt><trkpt lat="45.826222" lon="9.433962"><time>2024-03-23T08:52:15.000Z</time><ele>817.4</ele></trkpt><trkpt lat="45.826224" lon="9.433962"><time>2024-03-23T08:52:16.000Z</time><ele>817.4</ele></trkpt><trkpt lat="45.826225" lon="9.433968"><time>2024-03-23T08:52:17.000Z</time><ele>817.6</ele></trkpt><trkpt lat="45.826227" lon="9.433981"><time>2024-03-23T08:52:18.000Z</time><ele>818</ele></trkpt><trkpt lat="45.826229" lon="9.433995"><time>2024-03-23T08:52:19.000Z</time><ele>818.2</ele></trkpt><trkpt lat="45.826229" lon="9.434002"><time>2024-03-23T08:52:20.000Z</time><ele>818.2</ele></trkpt><trkpt lat="45.82623" lon="9.434003"><time>2024-03-23T08:52:21.000Z</time><ele>818.4</ele></trkpt><trkpt lat="45.826234" lon="9.434003"><time>2024-03-23T08:52:22.000Z</time><ele>818.6</ele></trkpt><trkpt lat="45.826236" lon="9.434005"><time>2024-03-23T08:52:23.000Z</time><ele>818.8</ele></trkpt><trkpt lat="45.826235" lon="9.434005"><time>2024-03-23T08:52:24.000Z</time><ele>818.8</ele></trkpt><trkpt lat="45.826236" lon="9.434006"><time>2024-03-23T08:52:25.000Z</time><ele>819</ele></trkpt><trkpt lat="45.826235" lon="9.434009"><time>2024-03-23T08:52:26.000Z</time><ele>819.2</ele></trkpt><trkpt lat="45.826236" lon="9.43401"><time>2024-03-23T08:52:27.000Z</time><ele>819.2</ele></trkpt><trkpt lat="45.826236" lon="9.433999"><time>2024-03-23T08:52:28.000Z</time><ele>819.2</ele></trkpt><trkpt lat="45.826238" lon="9.433997"><time>2024-03-23T08:52:29.000Z</time><ele>819.6</ele></trkpt><trkpt lat="45.826241" lon="9.433997"><time>2024-03-23T08:52:30.000Z</time><ele>820</ele></trkpt><trkpt lat="45.826245" lon="9.433997"><time>2024-03-23T08:52:31.000Z</time><ele>820</ele></trkpt><trkpt lat="45.826247" lon="9.433999"><time>2024-03-23T08:52:32.000Z</time><ele>820.2</ele></trkpt><trkpt lat="45.826249" lon="9.434011"><time>2024-03-23T08:52:33.000Z</time><ele>820.6</ele></trkpt><trkpt lat="45.826253" lon="9.434019"><time>2024-03-23T08:52:34.000Z</time><ele>820.8</ele></trkpt><trkpt lat="45.826256" lon="9.434027"><time>2024-03-23T08:52:35.000Z</time><ele>821</ele></trkpt><trkpt lat="45.826259" lon="9.434027"><time>2024-03-23T08:52:36.000Z</time><ele>821.2</ele></trkpt><trkpt lat="45.826263" lon="9.434036"><time>2024-03-23T08:52:37.000Z</time><ele>821.4</ele></trkpt><trkpt lat="45.826267" lon="9.434039"><time>2024-03-23T08:52:38.000Z</time><ele>821.4</ele></trkpt><trkpt lat="45.826273" lon="9.434037"><time>2024-03-23T08:52:39.000Z</time><ele>821.6</ele></trkpt><trkpt lat="45.826275" lon="9.434037"><time>2024-03-23T08:52:40.000Z</time><ele>821.8</ele></trkpt><trkpt lat="45.826275" lon="9.434042"><time>2024-03-23T08:52:41.000Z</time><ele>822</ele></trkpt><trkpt lat="45.826277" lon="9.434047"><time>2024-03-23T08:52:42.000Z</time><ele>822</ele></trkpt><trkpt lat="45.826284" lon="9.434052"><time>2024-03-23T08:52:43.000Z</time><ele>822.2</ele></trkpt><trkpt lat="45.826287" lon="9.434057"><time>2024-03-23T08:52:44.000Z</time><ele>822.2</ele></trkpt><trkpt lat="45.826288" lon="9.434061"><time>2024-03-23T08:52:45.000Z</time><ele>822.4</ele></trkpt><trkpt lat="45.826289" lon="9.434066"><time>2024-03-23T08:52:46.000Z</time><ele>822.6</ele></trkpt><trkpt lat="45.826291" lon="9.434066"><time>2024-03-23T08:52:47.000Z</time><ele>822.8</ele></trkpt><trkpt lat="45.826294" lon="9.434066"><time>2024-03-23T08:52:48.000Z</time><ele>822.8</ele></trkpt><trkpt lat="45.826295" lon="9.434067"><time>2024-03-23T08:52:49.000Z</time><ele>823</ele></trkpt><trkpt lat="45.826297" lon="9.434063"><time>2024-03-23T08:52:50.000Z</time><ele>823.2</ele></trkpt><trkpt lat="45.826303" lon="9.434061"><time>2024-03-23T08:52:51.000Z</time><ele>823.2</ele></trkpt><trkpt lat="45.826308" lon="9.434067"><time>2024-03-23T08:52:52.000Z</time><ele>823.4</ele></trkpt><trkpt lat="45.82631" lon="9.434073"><time>2024-03-23T08:52:53.000Z</time><ele>823.8</ele></trkpt><trkpt lat="45.82631" lon="9.434077"><time>2024-03-23T08:52:54.000Z</time><ele>824</ele></trkpt><trkpt lat="45.826312" lon="9.434079"><time>2024-03-23T08:52:55.000Z</time><ele>824.2</ele></trkpt><trkpt lat="45.826316" lon="9.434076"><time>2024-03-23T08:52:56.000Z</time><ele>824.2</ele></trkpt><trkpt lat="45.826318" lon="9.434081"><time>2024-03-23T08:52:57.000Z</time><ele>824.4</ele></trkpt><trkpt lat="45.826325" lon="9.434091"><time>2024-03-23T08:52:58.000Z</time><ele>824.4</ele></trkpt><trkpt lat="45.826332" lon="9.4341"><time>2024-03-23T08:52:59.000Z</time><ele>824.6</ele></trkpt><trkpt lat="45.82634" lon="9.434115"><time>2024-03-23T08:53:00.000Z</time><ele>824.8</ele></trkpt><trkpt lat="45.826346" lon="9.434132"><time>2024-03-23T08:53:01.000Z</time><ele>825.2</ele></trkpt><trkpt lat="45.826349" lon="9.434134"><time>2024-03-23T08:53:02.000Z</time><ele>825.4</ele></trkpt><trkpt lat="45.826352" lon="9.434139"><time>2024-03-23T08:53:03.000Z</time><ele>825.6</ele></trkpt><trkpt lat="45.826352" lon="9.434139"><time>2024-03-23T08:53:04.000Z</time><ele>825.6</ele></trkpt><trkpt lat="45.82635" lon="9.43414"><time>2024-03-23T08:53:05.000Z</time><ele>826</ele></trkpt><trkpt lat="45.826349" lon="9.434142"><time>2024-03-23T08:53:06.000Z</time><ele>826.2</ele></trkpt><trkpt lat="45.826351" lon="9.43414"><time>2024-03-23T08:53:07.000Z</time><ele>826.4</ele></trkpt><trkpt lat="45.826353" lon="9.434154"><time>2024-03-23T08:53:08.000Z</time><ele>826.4</ele></trkpt><trkpt lat="45.826354" lon="9.434157"><time>2024-03-23T08:53:09.000Z</time><ele>826.6</ele></trkpt><trkpt lat="45.826354" lon="9.434161"><time>2024-03-23T08:53:10.000Z</time><ele>826.6</ele></trkpt><trkpt lat="45.826356" lon="9.434158"><time>2024-03-23T08:53:11.000Z</time><ele>826.8</ele></trkpt><trkpt lat="45.826356" lon="9.434159"><time>2024-03-23T08:53:12.000Z</time><ele>826.8</ele></trkpt><trkpt lat="45.826362" lon="9.434162"><time>2024-03-23T08:53:13.000Z</time><ele>827</ele></trkpt><trkpt lat="45.826369" lon="9.434168"><time>2024-03-23T08:53:14.000Z</time><ele>827.4</ele></trkpt><trkpt lat="45.826373" lon="9.434177"><time>2024-03-23T08:53:15.000Z</time><ele>827.6</ele></trkpt><trkpt lat="45.826372" lon="9.43419"><time>2024-03-23T08:53:16.000Z</time><ele>827.6</ele></trkpt><trkpt lat="45.82637" lon="9.434198"><time>2024-03-23T08:53:17.000Z</time><ele>827.8</ele></trkpt><trkpt lat="45.826371" lon="9.434204"><time>2024-03-23T08:53:18.000Z</time><ele>827.8</ele></trkpt><trkpt lat="45.826371" lon="9.434207"><time>2024-03-23T08:53:19.000Z</time><ele>828</ele></trkpt><trkpt lat="45.826371" lon="9.434212"><time>2024-03-23T08:53:20.000Z</time><ele>828</ele></trkpt><trkpt lat="45.826369" lon="9.434214"><time>2024-03-23T08:53:21.000Z</time><ele>828.2</ele></trkpt><trkpt lat="45.826368" lon="9.434219"><time>2024-03-23T08:53:22.000Z</time><ele>828.2</ele></trkpt><trkpt lat="45.82637" lon="9.434222"><time>2024-03-23T08:53:23.000Z</time><ele>828.4</ele></trkpt><trkpt lat="45.82637" lon="9.434223"><time>2024-03-23T08:53:24.000Z</time><ele>828.8</ele></trkpt><trkpt lat="45.826369" lon="9.434223"><time>2024-03-23T08:53:25.000Z</time><ele>829</ele></trkpt><trkpt lat="45.826368" lon="9.434223"><time>2024-03-23T08:53:26.000Z</time><ele>829.2</ele></trkpt><trkpt lat="45.826366" lon="9.434228"><time>2024-03-23T08:53:27.000Z</time><ele>829.4</ele></trkpt><trkpt lat="45.826362" lon="9.434233"><time>2024-03-23T08:53:28.000Z</time><ele>829.4</ele></trkpt><trkpt lat="45.82636" lon="9.434238"><time>2024-03-23T08:53:29.000Z</time><ele>829.6</ele></trkpt><trkpt lat="45.82636" lon="9.43424"><time>2024-03-23T08:53:30.000Z</time><ele>829.8</ele></trkpt><trkpt lat="45.826362" lon="9.434238"><time>2024-03-23T08:53:31.000Z</time><ele>830</ele></trkpt><trkpt lat="45.826354" lon="9.43424"><time>2024-03-23T08:53:32.000Z</time><ele>830.2</ele></trkpt><trkpt lat="45.82635" lon="9.434242"><time>2024-03-23T08:53:33.000Z</time><ele>830.2</ele></trkpt><trkpt lat="45.826348" lon="9.434247"><time>2024-03-23T08:53:34.000Z</time><ele>830.4</ele></trkpt><trkpt lat="45.826348" lon="9.434253"><time>2024-03-23T08:53:35.000Z</time><ele>830.6</ele></trkpt><trkpt lat="45.826346" lon="9.434262"><time>2024-03-23T08:53:36.000Z</time><ele>830.8</ele></trkpt><trkpt lat="45.826348" lon="9.434269"><time>2024-03-23T08:53:37.000Z</time><ele>830.8</ele></trkpt><trkpt lat="45.826351" lon="9.434268"><time>2024-03-23T08:53:38.000Z</time><ele>831</ele></trkpt><trkpt lat="45.826355" lon="9.434267"><time>2024-03-23T08:53:39.000Z</time><ele>831.4</ele></trkpt><trkpt lat="45.826362" lon="9.434263"><time>2024-03-23T08:53:40.000Z</time><ele>831.6</ele></trkpt><trkpt lat="45.82637" lon="9.434255"><time>2024-03-23T08:53:41.000Z</time><ele>831.8</ele></trkpt><trkpt lat="45.826376" lon="9.43425"><time>2024-03-23T08:53:42.000Z</time><ele>831.8</ele></trkpt><trkpt lat="45.826384" lon="9.434259"><time>2024-03-23T08:53:43.000Z</time><ele>832</ele></trkpt><trkpt lat="45.826392" lon="9.434263"><time>2024-03-23T08:53:44.000Z</time><ele>832</ele></trkpt><trkpt lat="45.826396" lon="9.434256"><time>2024-03-23T08:53:45.000Z</time><ele>832.2</ele></trkpt><trkpt lat="45.826399" lon="9.43426"><time>2024-03-23T08:53:46.000Z</time><ele>832.4</ele></trkpt><trkpt lat="45.826403" lon="9.434268"><time>2024-03-23T08:53:47.000Z</time><ele>832.8</ele></trkpt><trkpt lat="45.826405" lon="9.434259"><time>2024-03-23T08:53:48.000Z</time><ele>832.8</ele></trkpt><trkpt lat="45.826404" lon="9.434254"><time>2024-03-23T08:53:49.000Z</time><ele>833</ele></trkpt><trkpt lat="45.826405" lon="9.434255"><time>2024-03-23T08:53:50.000Z</time><ele>833</ele></trkpt><trkpt lat="45.826401" lon="9.434258"><time>2024-03-23T08:53:51.000Z</time><ele>833.2</ele></trkpt><trkpt lat="45.826397" lon="9.43427"><time>2024-03-23T08:53:52.000Z</time><ele>833.4</ele></trkpt><trkpt lat="45.826399" lon="9.434275"><time>2024-03-23T08:53:53.000Z</time><ele>833.4</ele></trkpt><trkpt lat="45.8264" lon="9.434275"><time>2024-03-23T08:53:54.000Z</time><ele>833.4</ele></trkpt><trkpt lat="45.8264" lon="9.434278"><time>2024-03-23T08:53:55.000Z</time><ele>833.6</ele></trkpt><trkpt lat="45.826401" lon="9.43428"><time>2024-03-23T08:53:56.000Z</time><ele>833.6</ele></trkpt><trkpt lat="45.826402" lon="9.434281"><time>2024-03-23T08:53:57.000Z</time><ele>833.8</ele></trkpt><trkpt lat="45.826402" lon="9.434283"><time>2024-03-23T08:53:58.000Z</time><ele>834</ele></trkpt><trkpt lat="45.826403" lon="9.434285"><time>2024-03-23T08:53:59.000Z</time><ele>834.2</ele></trkpt><trkpt lat="45.826404" lon="9.434288"><time>2024-03-23T08:54:00.000Z</time><ele>834.6</ele></trkpt><trkpt lat="45.826404" lon="9.434289"><time>2024-03-23T08:54:01.000Z</time><ele>834.8</ele></trkpt><trkpt lat="45.826403" lon="9.434292"><time>2024-03-23T08:54:02.000Z</time><ele>834.8</ele></trkpt><trkpt lat="45.8264" lon="9.434294"><time>2024-03-23T08:54:03.000Z</time><ele>835</ele></trkpt><trkpt lat="45.826398" lon="9.434308"><time>2024-03-23T08:54:04.000Z</time><ele>835</ele></trkpt><trkpt lat="45.826399" lon="9.434315"><time>2024-03-23T08:54:05.000Z</time><ele>835.2</ele></trkpt><trkpt lat="45.826402" lon="9.43431"><time>2024-03-23T08:54:06.000Z</time><ele>835.2</ele></trkpt><trkpt lat="45.826404" lon="9.434308"><time>2024-03-23T08:54:07.000Z</time><ele>835.4</ele></trkpt><trkpt lat="45.826409" lon="9.434317"><time>2024-03-23T08:54:08.000Z</time><ele>835.6</ele></trkpt><trkpt lat="45.826412" lon="9.434326"><time>2024-03-23T08:54:09.000Z</time><ele>835.8</ele></trkpt><trkpt lat="45.826415" lon="9.43433"><time>2024-03-23T08:54:10.000Z</time><ele>836</ele></trkpt><trkpt lat="45.826421" lon="9.434338"><time>2024-03-23T08:54:11.000Z</time><ele>836</ele></trkpt><trkpt lat="45.826423" lon="9.434338"><time>2024-03-23T08:54:12.000Z</time><ele>836</ele></trkpt><trkpt lat="45.826424" lon="9.434339"><time>2024-03-23T08:54:13.000Z</time><ele>836.4</ele></trkpt><trkpt lat="45.826429" lon="9.434347"><time>2024-03-23T08:54:14.000Z</time><ele>836.6</ele></trkpt><trkpt lat="45.82643" lon="9.434351"><time>2024-03-23T08:54:15.000Z</time><ele>836.8</ele></trkpt><trkpt lat="45.826433" lon="9.434354"><time>2024-03-23T08:54:16.000Z</time><ele>836.8</ele></trkpt><trkpt lat="45.826436" lon="9.434354"><time>2024-03-23T08:54:17.000Z</time><ele>837</ele></trkpt><trkpt lat="45.826438" lon="9.434354"><time>2024-03-23T08:54:18.000Z</time><ele>837</ele></trkpt><trkpt lat="45.826437" lon="9.434363"><time>2024-03-23T08:54:19.000Z</time><ele>837</ele></trkpt><trkpt lat="45.826438" lon="9.434365"><time>2024-03-23T08:54:20.000Z</time><ele>837.4</ele></trkpt><trkpt lat="45.82644" lon="9.434366"><time>2024-03-23T08:54:21.000Z</time><ele>837.6</ele></trkpt><trkpt lat="45.826443" lon="9.434366"><time>2024-03-23T08:54:22.000Z</time><ele>837.8</ele></trkpt><trkpt lat="45.826444" lon="9.434371"><time>2024-03-23T08:54:23.000Z</time><ele>837.8</ele></trkpt><trkpt lat="45.826447" lon="9.434375"><time>2024-03-23T08:54:24.000Z</time><ele>838</ele></trkpt><trkpt lat="45.826456" lon="9.434379"><time>2024-03-23T08:54:25.000Z</time><ele>838</ele></trkpt><trkpt lat="45.826468" lon="9.434385"><time>2024-03-23T08:54:26.000Z</time><ele>838.2</ele></trkpt><trkpt lat="45.826477" lon="9.434382"><time>2024-03-23T08:54:27.000Z</time><ele>838.4</ele></trkpt><trkpt lat="45.826478" lon="9.43438"><time>2024-03-23T08:54:28.000Z</time><ele>838.6</ele></trkpt><trkpt lat="45.82648" lon="9.434379"><time>2024-03-23T08:54:29.000Z</time><ele>838.8</ele></trkpt><trkpt lat="45.826483" lon="9.434379"><time>2024-03-23T08:54:30.000Z</time><ele>839</ele></trkpt><trkpt lat="45.826488" lon="9.434377"><time>2024-03-23T08:54:31.000Z</time><ele>839</ele></trkpt><trkpt lat="45.826491" lon="9.434376"><time>2024-03-23T08:54:32.000Z</time><ele>839.2</ele></trkpt><trkpt lat="45.826494" lon="9.434376"><time>2024-03-23T08:54:33.000Z</time><ele>839.2</ele></trkpt><trkpt lat="45.826497" lon="9.434374"><time>2024-03-23T08:54:34.000Z</time><ele>839.2</ele></trkpt><trkpt lat="45.826502" lon="9.434381"><time>2024-03-23T08:54:35.000Z</time><ele>839.4</ele></trkpt><trkpt lat="45.826508" lon="9.434381"><time>2024-03-23T08:54:36.000Z</time><ele>839.6</ele></trkpt><trkpt lat="45.826514" lon="9.434383"><time>2024-03-23T08:54:37.000Z</time><ele>839.8</ele></trkpt><trkpt lat="45.826517" lon="9.434387"><time>2024-03-23T08:54:38.000Z</time><ele>839.8</ele></trkpt><trkpt lat="45.826519" lon="9.434392"><time>2024-03-23T08:54:39.000Z</time><ele>840</ele></trkpt><trkpt lat="45.826519" lon="9.434398"><time>2024-03-23T08:54:40.000Z</time><ele>840.4</ele></trkpt><trkpt lat="45.82652" lon="9.434399"><time>2024-03-23T08:54:41.000Z</time><ele>840.6</ele></trkpt><trkpt lat="45.826522" lon="9.434399"><time>2024-03-23T08:54:42.000Z</time><ele>840.8</ele></trkpt><trkpt lat="45.826527" lon="9.434385"><time>2024-03-23T08:54:43.000Z</time><ele>840.8</ele></trkpt><trkpt lat="45.82653" lon="9.434381"><time>2024-03-23T08:54:44.000Z</time><ele>841</ele></trkpt><trkpt lat="45.826537" lon="9.434385"><time>2024-03-23T08:54:45.000Z</time><ele>841</ele></trkpt><trkpt lat="45.826541" lon="9.434385"><time>2024-03-23T08:54:46.000Z</time><ele>841.2</ele></trkpt><trkpt lat="45.826544" lon="9.434387"><time>2024-03-23T08:54:47.000Z</time><ele>841.4</ele></trkpt><trkpt lat="45.826544" lon="9.434389"><time>2024-03-23T08:54:48.000Z</time><ele>841.8</ele></trkpt><trkpt lat="45.826546" lon="9.434389"><time>2024-03-23T08:54:49.000Z</time><ele>841.8</ele></trkpt><trkpt lat="45.826549" lon="9.434389"><time>2024-03-23T08:54:50.000Z</time><ele>842</ele></trkpt><trkpt lat="45.826552" lon="9.43439"><time>2024-03-23T08:54:51.000Z</time><ele>842</ele></trkpt><trkpt lat="45.826556" lon="9.434389"><time>2024-03-23T08:54:52.000Z</time><ele>842.2</ele></trkpt><trkpt lat="45.82656" lon="9.434386"><time>2024-03-23T08:54:53.000Z</time><ele>842.4</ele></trkpt><trkpt lat="45.826564" lon="9.434385"><time>2024-03-23T08:54:54.000Z</time><ele>842.4</ele></trkpt><trkpt lat="45.82657" lon="9.434377"><time>2024-03-23T08:54:55.000Z</time><ele>842.6</ele></trkpt><trkpt lat="45.826571" lon="9.434373"><time>2024-03-23T08:54:56.000Z</time><ele>842.8</ele></trkpt><trkpt lat="45.826572" lon="9.43437"><time>2024-03-23T08:54:57.000Z</time><ele>843</ele></trkpt><trkpt lat="45.826575" lon="9.434374"><time>2024-03-23T08:54:58.000Z</time><ele>843</ele></trkpt><trkpt lat="45.826576" lon="9.434377"><time>2024-03-23T08:54:59.000Z</time><ele>843.2</ele></trkpt><trkpt lat="45.826577" lon="9.434379"><time>2024-03-23T08:55:00.000Z</time><ele>843.2</ele></trkpt><trkpt lat="45.826578" lon="9.434383"><time>2024-03-23T08:55:01.000Z</time><ele>843.4</ele></trkpt><trkpt lat="45.826582" lon="9.434386"><time>2024-03-23T08:55:02.000Z</time><ele>843.6</ele></trkpt><trkpt lat="45.826589" lon="9.434385"><time>2024-03-23T08:55:03.000Z</time><ele>843.8</ele></trkpt><trkpt lat="45.826591" lon="9.434383"><time>2024-03-23T08:55:04.000Z</time><ele>844</ele></trkpt><trkpt lat="45.826594" lon="9.434382"><time>2024-03-23T08:55:05.000Z</time><ele>844</ele></trkpt><trkpt lat="45.826597" lon="9.434386"><time>2024-03-23T08:55:06.000Z</time><ele>844.2</ele></trkpt><trkpt lat="45.826603" lon="9.434394"><time>2024-03-23T08:55:07.000Z</time><ele>844.4</ele></trkpt><trkpt lat="45.826612" lon="9.434398"><time>2024-03-23T08:55:08.000Z</time><ele>844.6</ele></trkpt><trkpt lat="45.826615" lon="9.434397"><time>2024-03-23T08:55:09.000Z</time><ele>844.8</ele></trkpt><trkpt lat="45.826622" lon="9.434395"><time>2024-03-23T08:55:10.000Z</time><ele>845</ele></trkpt><trkpt lat="45.826626" lon="9.434392"><time>2024-03-23T08:55:11.000Z</time><ele>845.2</ele></trkpt><trkpt lat="45.826629" lon="9.434393"><time>2024-03-23T08:55:12.000Z</time><ele>845.4</ele></trkpt><trkpt lat="45.82663" lon="9.434386"><time>2024-03-23T08:55:13.000Z</time><ele>845.6</ele></trkpt><trkpt lat="45.826635" lon="9.434388"><time>2024-03-23T08:55:14.000Z</time><ele>845.6</ele></trkpt><trkpt lat="45.826637" lon="9.434393"><time>2024-03-23T08:55:15.000Z</time><ele>845.6</ele></trkpt><trkpt lat="45.826639" lon="9.4344"><time>2024-03-23T08:55:16.000Z</time><ele>845.8</ele></trkpt><trkpt lat="45.82664" lon="9.434397"><time>2024-03-23T08:55:17.000Z</time><ele>845.8</ele></trkpt><trkpt lat="45.826643" lon="9.434404"><time>2024-03-23T08:55:18.000Z</time><ele>845.8</ele></trkpt><trkpt lat="45.826641" lon="9.434405"><time>2024-03-23T08:55:19.000Z</time><ele>846</ele></trkpt><trkpt lat="45.826647" lon="9.434409"><time>2024-03-23T08:55:20.000Z</time><ele>846</ele></trkpt><trkpt lat="45.826657" lon="9.434424"><time>2024-03-23T08:55:21.000Z</time><ele>846.2</ele></trkpt><trkpt lat="45.826659" lon="9.43443"><time>2024-03-23T08:55:22.000Z</time><ele>846.4</ele></trkpt><trkpt lat="45.826662" lon="9.434431"><time>2024-03-23T08:55:23.000Z</time><ele>846.6</ele></trkpt><trkpt lat="45.826664" lon="9.434434"><time>2024-03-23T08:55:24.000Z</time><ele>847</ele></trkpt><trkpt lat="45.826669" lon="9.434433"><time>2024-03-23T08:55:25.000Z</time><ele>847.2</ele></trkpt><trkpt lat="45.82667" lon="9.434434"><time>2024-03-23T08:55:26.000Z</time><ele>847.4</ele></trkpt><trkpt lat="45.826672" lon="9.434436"><time>2024-03-23T08:55:27.000Z</time><ele>847.4</ele></trkpt><trkpt lat="45.826676" lon="9.434439"><time>2024-03-23T08:55:28.000Z</time><ele>847.6</ele></trkpt><trkpt lat="45.82668" lon="9.434449"><time>2024-03-23T08:55:29.000Z</time><ele>847.8</ele></trkpt><trkpt lat="45.826681" lon="9.43445"><time>2024-03-23T08:55:30.000Z</time><ele>847.8</ele></trkpt><trkpt lat="45.826681" lon="9.434453"><time>2024-03-23T08:55:31.000Z</time><ele>848</ele></trkpt><trkpt lat="45.826683" lon="9.434457"><time>2024-03-23T08:55:32.000Z</time><ele>848.2</ele></trkpt><trkpt lat="45.826686" lon="9.434458"><time>2024-03-23T08:55:33.000Z</time><ele>848.6</ele></trkpt><trkpt lat="45.826689" lon="9.43446"><time>2024-03-23T08:55:34.000Z</time><ele>848.8</ele></trkpt><trkpt lat="45.826692" lon="9.434466"><time>2024-03-23T08:55:35.000Z</time><ele>848.8</ele></trkpt><trkpt lat="45.826697" lon="9.43447"><time>2024-03-23T08:55:36.000Z</time><ele>849</ele></trkpt><trkpt lat="45.8267" lon="9.434462"><time>2024-03-23T08:55:37.000Z</time><ele>849</ele></trkpt><trkpt lat="45.826701" lon="9.43446"><time>2024-03-23T08:55:38.000Z</time><ele>849.2</ele></trkpt><trkpt lat="45.826703" lon="9.434459"><time>2024-03-23T08:55:39.000Z</time><ele>849.6</ele></trkpt><trkpt lat="45.826709" lon="9.434461"><time>2024-03-23T08:55:40.000Z</time><ele>849.8</ele></trkpt><trkpt lat="45.826718" lon="9.434465"><time>2024-03-23T08:55:41.000Z</time><ele>849.8</ele></trkpt><trkpt lat="45.826727" lon="9.434468"><time>2024-03-23T08:55:42.000Z</time><ele>850</ele></trkpt><trkpt lat="45.826733" lon="9.434468"><time>2024-03-23T08:55:43.000Z</time><ele>850.2</ele></trkpt><trkpt lat="45.826732" lon="9.434473"><time>2024-03-23T08:55:44.000Z</time><ele>850.4</ele></trkpt><trkpt lat="45.826733" lon="9.434475"><time>2024-03-23T08:55:45.000Z</time><ele>850.6</ele></trkpt><trkpt lat="45.826738" lon="9.43448"><time>2024-03-23T08:55:46.000Z</time><ele>850.8</ele></trkpt><trkpt lat="45.826747" lon="9.434488"><time>2024-03-23T08:55:47.000Z</time><ele>850.8</ele></trkpt><trkpt lat="45.826751" lon="9.434492"><time>2024-03-23T08:55:48.000Z</time><ele>851</ele></trkpt><trkpt lat="45.826752" lon="9.434492"><time>2024-03-23T08:55:49.000Z</time><ele>851</ele></trkpt><trkpt lat="45.826754" lon="9.434494"><time>2024-03-23T08:55:50.000Z</time><ele>851.2</ele></trkpt><trkpt lat="45.826756" lon="9.434498"><time>2024-03-23T08:55:51.000Z</time><ele>851.2</ele></trkpt><trkpt lat="45.826759" lon="9.434499"><time>2024-03-23T08:55:52.000Z</time><ele>851.4</ele></trkpt><trkpt lat="45.826763" lon="9.434497"><time>2024-03-23T08:55:53.000Z</time><ele>851.4</ele></trkpt><trkpt lat="45.826762" lon="9.43451"><time>2024-03-23T08:55:54.000Z</time><ele>851.6</ele></trkpt><trkpt lat="45.826767" lon="9.434525"><time>2024-03-23T08:55:55.000Z</time><ele>851.6</ele></trkpt><trkpt lat="45.826771" lon="9.434529"><time>2024-03-23T08:55:56.000Z</time><ele>851.8</ele></trkpt><trkpt lat="45.826773" lon="9.43453"><time>2024-03-23T08:55:57.000Z</time><ele>852</ele></trkpt><trkpt lat="45.826774" lon="9.43453"><time>2024-03-23T08:55:58.000Z</time><ele>852.4</ele></trkpt><trkpt lat="45.826774" lon="9.434531"><time>2024-03-23T08:55:59.000Z</time><ele>852.4</ele></trkpt><trkpt lat="45.826776" lon="9.434533"><time>2024-03-23T08:56:00.000Z</time><ele>852.6</ele></trkpt><trkpt lat="45.826776" lon="9.434534"><time>2024-03-23T08:56:01.000Z</time><ele>852.8</ele></trkpt><trkpt lat="45.826778" lon="9.434538"><time>2024-03-23T08:56:02.000Z</time><ele>852.8</ele></trkpt><trkpt lat="45.826782" lon="9.434538"><time>2024-03-23T08:56:03.000Z</time><ele>853</ele></trkpt><trkpt lat="45.826791" lon="9.434539"><time>2024-03-23T08:56:04.000Z</time><ele>853.2</ele></trkpt><trkpt lat="45.826805" lon="9.434541"><time>2024-03-23T08:56:05.000Z</time><ele>853.4</ele></trkpt><trkpt lat="45.826813" lon="9.434551"><time>2024-03-23T08:56:06.000Z</time><ele>853.6</ele></trkpt><trkpt lat="45.826817" lon="9.434555"><time>2024-03-23T08:56:07.000Z</time><ele>853.6</ele></trkpt><trkpt lat="45.826819" lon="9.434558"><time>2024-03-23T08:56:08.000Z</time><ele>853.6</ele></trkpt><trkpt lat="45.826821" lon="9.434558"><time>2024-03-23T08:56:09.000Z</time><ele>853.8</ele></trkpt><trkpt lat="45.826824" lon="9.434559"><time>2024-03-23T08:56:10.000Z</time><ele>853.8</ele></trkpt><trkpt lat="45.826826" lon="9.43456"><time>2024-03-23T08:56:11.000Z</time><ele>854</ele></trkpt><trkpt lat="45.826827" lon="9.434559"><time>2024-03-23T08:56:12.000Z</time><ele>854</ele></trkpt><trkpt lat="45.826827" lon="9.434566"><time>2024-03-23T08:56:13.000Z</time><ele>854.2</ele></trkpt><trkpt lat="45.826826" lon="9.434569"><time>2024-03-23T08:56:14.000Z</time><ele>854.4</ele></trkpt><trkpt lat="45.826823" lon="9.434569"><time>2024-03-23T08:56:15.000Z</time><ele>854.6</ele></trkpt><trkpt lat="45.826828" lon="9.434551"><time>2024-03-23T08:56:16.000Z</time><ele>854.8</ele></trkpt><trkpt lat="45.82683" lon="9.43455"><time>2024-03-23T08:56:17.000Z</time><ele>855</ele></trkpt><trkpt lat="45.826831" lon="9.434551"><time>2024-03-23T08:56:18.000Z</time><ele>855.2</ele></trkpt><trkpt lat="45.826831" lon="9.434552"><time>2024-03-23T08:56:19.000Z</time><ele>855.4</ele></trkpt><trkpt lat="45.826831" lon="9.434552"><time>2024-03-23T08:56:20.000Z</time><ele>855.4</ele></trkpt><trkpt lat="45.826831" lon="9.434552"><time>2024-03-23T08:56:21.000Z</time><ele>855.6</ele></trkpt><trkpt lat="45.826831" lon="9.434552"><time>2024-03-23T08:56:22.000Z</time><ele>855.6</ele></trkpt><trkpt lat="45.826831" lon="9.434552"><time>2024-03-23T08:56:23.000Z</time><ele>855.8</ele></trkpt><trkpt lat="45.826831" lon="9.434552"><time>2024-03-23T08:56:24.000Z</time><ele>856</ele></trkpt><trkpt lat="45.826831" lon="9.434552"><time>2024-03-23T08:56:25.000Z</time><ele>856.2</ele></trkpt><trkpt lat="45.826831" lon="9.434552"><time>2024-03-23T08:56:26.000Z</time><ele>856.2</ele></trkpt><trkpt lat="45.826831" lon="9.434552"><time>2024-03-23T08:56:27.000Z</time><ele>856.4</ele></trkpt><trkpt lat="45.826831" lon="9.434552"><time>2024-03-23T08:56:28.000Z</time><ele>856.4</ele></trkpt><trkpt lat="45.826831" lon="9.434552"><time>2024-03-23T08:56:29.000Z</time><ele>856.4</ele></trkpt><trkpt lat="45.826831" lon="9.434554"><time>2024-03-23T08:56:30.000Z</time><ele>856.6</ele></trkpt><trkpt lat="45.826831" lon="9.434556"><time>2024-03-23T08:56:31.000Z</time><ele>857</ele></trkpt><trkpt lat="45.826831" lon="9.434558"><time>2024-03-23T08:56:32.000Z</time><ele>857.2</ele></trkpt><trkpt lat="45.826831" lon="9.434558"><time>2024-03-23T08:56:33.000Z</time><ele>857.4</ele></trkpt><trkpt lat="45.826831" lon="9.434559"><time>2024-03-23T08:56:34.000Z</time><ele>857.4</ele></trkpt><trkpt lat="45.826831" lon="9.434559"><time>2024-03-23T08:56:35.000Z</time><ele>858</ele></trkpt><trkpt lat="45.826831" lon="9.43456"><time>2024-03-23T08:56:36.000Z</time><ele>858.2</ele></trkpt><trkpt lat="45.826832" lon="9.43456"><time>2024-03-23T08:56:37.000Z</time><ele>858.4</ele></trkpt><trkpt lat="45.826832" lon="9.43456"><time>2024-03-23T08:56:38.000Z</time><ele>858.4</ele></trkpt><trkpt lat="45.826833" lon="9.43456"><time>2024-03-23T08:56:39.000Z</time><ele>858.6</ele></trkpt><trkpt lat="45.826834" lon="9.434561"><time>2024-03-23T08:56:40.000Z</time><ele>858.6</ele></trkpt><trkpt lat="45.826835" lon="9.434563"><time>2024-03-23T08:56:41.000Z</time><ele>858.6</ele></trkpt><trkpt lat="45.826836" lon="9.434564"><time>2024-03-23T08:56:42.000Z</time><ele>858.8</ele></trkpt><trkpt lat="45.826838" lon="9.434564"><time>2024-03-23T08:56:43.000Z</time><ele>858.8</ele></trkpt><trkpt lat="45.826838" lon="9.434564"><time>2024-03-23T08:56:44.000Z</time><ele>859</ele></trkpt><trkpt lat="45.826839" lon="9.434564"><time>2024-03-23T08:56:45.000Z</time><ele>859.2</ele></trkpt><trkpt lat="45.826841" lon="9.434564"><time>2024-03-23T08:56:46.000Z</time><ele>859.4</ele></trkpt><trkpt lat="45.826841" lon="9.434566"><time>2024-03-23T08:56:47.000Z</time><ele>859.6</ele></trkpt><trkpt lat="45.826844" lon="9.434567"><time>2024-03-23T08:56:48.000Z</time><ele>859.8</ele></trkpt><trkpt lat="45.826845" lon="9.43457"><time>2024-03-23T08:56:49.000Z</time><ele>859.8</ele></trkpt><trkpt lat="45.826845" lon="9.434573"><time>2024-03-23T08:56:50.000Z</time><ele>860</ele></trkpt><trkpt lat="45.826846" lon="9.434574"><time>2024-03-23T08:56:51.000Z</time><ele>860.2</ele></trkpt><trkpt lat="45.826847" lon="9.434575"><time>2024-03-23T08:56:52.000Z</time><ele>860.4</ele></trkpt><trkpt lat="45.826847" lon="9.434578"><time>2024-03-23T08:56:53.000Z</time><ele>860.4</ele></trkpt><trkpt lat="45.82685" lon="9.434578"><time>2024-03-23T08:56:54.000Z</time><ele>860.6</ele></trkpt><trkpt lat="45.826853" lon="9.434588"><time>2024-03-23T08:56:55.000Z</time><ele>860.6</ele></trkpt><trkpt lat="45.826859" lon="9.434595"><time>2024-03-23T08:56:56.000Z</time><ele>861</ele></trkpt><trkpt lat="45.826864" lon="9.434602"><time>2024-03-23T08:56:57.000Z</time><ele>861.2</ele></trkpt><trkpt lat="45.826865" lon="9.434605"><time>2024-03-23T08:56:58.000Z</time><ele>861.4</ele></trkpt><trkpt lat="45.826869" lon="9.434609"><time>2024-03-23T08:56:59.000Z</time><ele>861.4</ele></trkpt><trkpt lat="45.826872" lon="9.434611"><time>2024-03-23T08:57:00.000Z</time><ele>861.6</ele></trkpt><trkpt lat="45.826875" lon="9.434612"><time>2024-03-23T08:57:01.000Z</time><ele>862</ele></trkpt><trkpt lat="45.826878" lon="9.434614"><time>2024-03-23T08:57:02.000Z</time><ele>862.2</ele></trkpt><trkpt lat="45.82688" lon="9.434615"><time>2024-03-23T08:57:03.000Z</time><ele>862.2</ele></trkpt><trkpt lat="45.826881" lon="9.434617"><time>2024-03-23T08:57:04.000Z</time><ele>862.4</ele></trkpt><trkpt lat="45.826882" lon="9.434618"><time>2024-03-23T08:57:05.000Z</time><ele>862.4</ele></trkpt><trkpt lat="45.826885" lon="9.434621"><time>2024-03-23T08:57:06.000Z</time><ele>862.4</ele></trkpt><trkpt lat="45.826887" lon="9.434628"><time>2024-03-23T08:57:07.000Z</time><ele>862.6</ele></trkpt><trkpt lat="45.826889" lon="9.434638"><time>2024-03-23T08:57:08.000Z</time><ele>862.8</ele></trkpt><trkpt lat="45.826892" lon="9.434644"><time>2024-03-23T08:57:09.000Z</time><ele>863</ele></trkpt><trkpt lat="45.826892" lon="9.434647"><time>2024-03-23T08:57:10.000Z</time><ele>863.2</ele></trkpt><trkpt lat="45.826893" lon="9.434651"><time>2024-03-23T08:57:11.000Z</time><ele>863.2</ele></trkpt><trkpt lat="45.826893" lon="9.434659"><time>2024-03-23T08:57:12.000Z</time><ele>863.2</ele></trkpt><trkpt lat="45.826894" lon="9.434662"><time>2024-03-23T08:57:13.000Z</time><ele>863.4</ele></trkpt><trkpt lat="45.826896" lon="9.434666"><time>2024-03-23T08:57:14.000Z</time><ele>863.6</ele></trkpt><trkpt lat="45.826897" lon="9.434669"><time>2024-03-23T08:57:15.000Z</time><ele>863.6</ele></trkpt><trkpt lat="45.826897" lon="9.434674"><time>2024-03-23T08:57:16.000Z</time><ele>863.8</ele></trkpt><trkpt lat="45.826898" lon="9.434679"><time>2024-03-23T08:57:17.000Z</time><ele>863.8</ele></trkpt><trkpt lat="45.8269" lon="9.434681"><time>2024-03-23T08:57:18.000Z</time><ele>864.2</ele></trkpt><trkpt lat="45.826901" lon="9.434682"><time>2024-03-23T08:57:19.000Z</time><ele>864.2</ele></trkpt><trkpt lat="45.826902" lon="9.434688"><time>2024-03-23T08:57:20.000Z</time><ele>864.4</ele></trkpt><trkpt lat="45.826903" lon="9.43469"><time>2024-03-23T08:57:21.000Z</time><ele>864.4</ele></trkpt><trkpt lat="45.826903" lon="9.434695"><time>2024-03-23T08:57:22.000Z</time><ele>864.6</ele></trkpt><trkpt lat="45.826904" lon="9.434699"><time>2024-03-23T08:57:23.000Z</time><ele>864.8</ele></trkpt><trkpt lat="45.826905" lon="9.434702"><time>2024-03-23T08:57:24.000Z</time><ele>865</ele></trkpt><trkpt lat="45.826902" lon="9.434702"><time>2024-03-23T08:57:25.000Z</time><ele>865.4</ele></trkpt><trkpt lat="45.826904" lon="9.434713"><time>2024-03-23T08:57:26.000Z</time><ele>865.6</ele></trkpt><trkpt lat="45.826905" lon="9.434721"><time>2024-03-23T08:57:27.000Z</time><ele>865.8</ele></trkpt><trkpt lat="45.826904" lon="9.434738"><time>2024-03-23T08:57:28.000Z</time><ele>865.8</ele></trkpt><trkpt lat="45.826903" lon="9.434743"><time>2024-03-23T08:57:29.000Z</time><ele>866</ele></trkpt><trkpt lat="45.826903" lon="9.434754"><time>2024-03-23T08:57:30.000Z</time><ele>866.2</ele></trkpt><trkpt lat="45.826902" lon="9.434762"><time>2024-03-23T08:57:31.000Z</time><ele>866.2</ele></trkpt><trkpt lat="45.826902" lon="9.434765"><time>2024-03-23T08:57:32.000Z</time><ele>866.4</ele></trkpt><trkpt lat="45.826904" lon="9.434769"><time>2024-03-23T08:57:33.000Z</time><ele>866.6</ele></trkpt><trkpt lat="45.826904" lon="9.434769"><time>2024-03-23T08:57:34.000Z</time><ele>866.8</ele></trkpt><trkpt lat="45.826904" lon="9.434769"><time>2024-03-23T08:57:35.000Z</time><ele>867</ele></trkpt><trkpt lat="45.826904" lon="9.434769"><time>2024-03-23T08:57:36.000Z</time><ele>867</ele></trkpt><trkpt lat="45.826904" lon="9.434769"><time>2024-03-23T08:57:37.000Z</time><ele>867.2</ele></trkpt><trkpt lat="45.826904" lon="9.434769"><time>2024-03-23T08:57:38.000Z</time><ele>867.2</ele></trkpt><trkpt lat="45.826904" lon="9.434769"><time>2024-03-23T08:57:39.000Z</time><ele>867.4</ele></trkpt><trkpt lat="45.826904" lon="9.434769"><time>2024-03-23T08:57:40.000Z</time><ele>867.6</ele></trkpt><trkpt lat="45.826904" lon="9.434769"><time>2024-03-23T08:57:41.000Z</time><ele>867.8</ele></trkpt><trkpt lat="45.826904" lon="9.434769"><time>2024-03-23T08:57:42.000Z</time><ele>868</ele></trkpt><trkpt lat="45.826904" lon="9.434769"><time>2024-03-23T08:57:43.000Z</time><ele>868.2</ele></trkpt><trkpt lat="45.826904" lon="9.434769"><time>2024-03-23T08:57:44.000Z</time><ele>868.4</ele></trkpt><trkpt lat="45.826904" lon="9.434769"><time>2024-03-23T08:57:45.000Z</time><ele>868.4</ele></trkpt><trkpt lat="45.826906" lon="9.434769"><time>2024-03-23T08:57:46.000Z</time><ele>868.6</ele></trkpt><trkpt lat="45.826906" lon="9.434769"><time>2024-03-23T08:57:47.000Z</time><ele>868.8</ele></trkpt><trkpt lat="45.826907" lon="9.434769"><time>2024-03-23T08:57:48.000Z</time><ele>869</ele></trkpt><trkpt lat="45.826908" lon="9.434769"><time>2024-03-23T08:57:49.000Z</time><ele>869.2</ele></trkpt><trkpt lat="45.826909" lon="9.434769"><time>2024-03-23T08:57:50.000Z</time><ele>869.4</ele></trkpt><trkpt lat="45.826909" lon="9.434769"><time>2024-03-23T08:57:51.000Z</time><ele>869.6</ele></trkpt><trkpt lat="45.826909" lon="9.434771"><time>2024-03-23T08:57:52.000Z</time><ele>869.8</ele></trkpt><trkpt lat="45.826909" lon="9.434772"><time>2024-03-23T08:57:53.000Z</time><ele>869.8</ele></trkpt><trkpt lat="45.826909" lon="9.434774"><time>2024-03-23T08:57:54.000Z</time><ele>869.8</ele></trkpt><trkpt lat="45.826909" lon="9.434774"><time>2024-03-23T08:57:55.000Z</time><ele>870.2</ele></trkpt><trkpt lat="45.826909" lon="9.434775"><time>2024-03-23T08:57:56.000Z</time><ele>870.4</ele></trkpt><trkpt lat="45.826908" lon="9.434775"><time>2024-03-23T08:57:57.000Z</time><ele>870.4</ele></trkpt><trkpt lat="45.826908" lon="9.434775"><time>2024-03-23T08:57:58.000Z</time><ele>870.6</ele></trkpt><trkpt lat="45.826908" lon="9.434775"><time>2024-03-23T08:57:59.000Z</time><ele>870.6</ele></trkpt><trkpt lat="45.826908" lon="9.434776"><time>2024-03-23T08:58:00.000Z</time><ele>870.8</ele></trkpt><trkpt lat="45.826908" lon="9.434776"><time>2024-03-23T08:58:01.000Z</time><ele>870.8</ele></trkpt><trkpt lat="45.826908" lon="9.434777"><time>2024-03-23T08:58:02.000Z</time><ele>871.2</ele></trkpt><trkpt lat="45.826909" lon="9.434777"><time>2024-03-23T08:58:03.000Z</time><ele>871.2</ele></trkpt><trkpt lat="45.826909" lon="9.434777"><time>2024-03-23T08:58:04.000Z</time><ele>871.4</ele></trkpt><trkpt lat="45.826909" lon="9.434778"><time>2024-03-23T08:58:05.000Z</time><ele>871.6</ele></trkpt><trkpt lat="45.826909" lon="9.434778"><time>2024-03-23T08:58:06.000Z</time><ele>871.8</ele></trkpt><trkpt lat="45.826909" lon="9.434778"><time>2024-03-23T08:58:07.000Z</time><ele>871.8</ele></trkpt><trkpt lat="45.826909" lon="9.434778"><time>2024-03-23T08:58:08.000Z</time><ele>872</ele></trkpt><trkpt lat="45.826909" lon="9.434782"><time>2024-03-23T08:58:09.000Z</time><ele>872</ele></trkpt><trkpt lat="45.826909" lon="9.434783"><time>2024-03-23T08:58:10.000Z</time><ele>872.4</ele></trkpt><trkpt lat="45.826909" lon="9.434783"><time>2024-03-23T08:58:11.000Z</time><ele>872.6</ele></trkpt><trkpt lat="45.826909" lon="9.434784"><time>2024-03-23T08:58:12.000Z</time><ele>872.8</ele></trkpt><trkpt lat="45.826909" lon="9.434798"><time>2024-03-23T08:58:13.000Z</time><ele>872.8</ele></trkpt><trkpt lat="45.826914" lon="9.434817"><time>2024-03-23T08:58:14.000Z</time><ele>873</ele></trkpt><trkpt lat="45.826915" lon="9.434835"><time>2024-03-23T08:58:15.000Z</time><ele>873.2</ele></trkpt><trkpt lat="45.826919" lon="9.434859"><time>2024-03-23T08:58:16.000Z</time><ele>873.4</ele></trkpt><trkpt lat="45.826923" lon="9.434877"><time>2024-03-23T08:58:17.000Z</time><ele>873.6</ele></trkpt><trkpt lat="45.826926" lon="9.4349"><time>2024-03-23T08:58:18.000Z</time><ele>873.8</ele></trkpt><trkpt lat="45.826929" lon="9.434913"><time>2024-03-23T08:58:19.000Z</time><ele>873.8</ele></trkpt><trkpt lat="45.826931" lon="9.434927"><time>2024-03-23T08:58:20.000Z</time><ele>873.8</ele></trkpt><trkpt lat="45.826929" lon="9.434941"><time>2024-03-23T08:58:21.000Z</time><ele>874</ele></trkpt><trkpt lat="45.826928" lon="9.434953"><time>2024-03-23T08:58:22.000Z</time><ele>874.2</ele></trkpt><trkpt lat="45.826927" lon="9.434951"><time>2024-03-23T08:58:23.000Z</time><ele>874.4</ele></trkpt><trkpt lat="45.826928" lon="9.434956"><time>2024-03-23T08:58:24.000Z</time><ele>874.6</ele></trkpt><trkpt lat="45.826929" lon="9.434962"><time>2024-03-23T08:58:25.000Z</time><ele>874.6</ele></trkpt><trkpt lat="45.826935" lon="9.434966"><time>2024-03-23T08:58:26.000Z</time><ele>874.8</ele></trkpt><trkpt lat="45.82694" lon="9.434969"><time>2024-03-23T08:58:27.000Z</time><ele>875</ele></trkpt><trkpt lat="45.826944" lon="9.434969"><time>2024-03-23T08:58:28.000Z</time><ele>875.2</ele></trkpt><trkpt lat="45.826946" lon="9.434973"><time>2024-03-23T08:58:29.000Z</time><ele>875.4</ele></trkpt><trkpt lat="45.826941" lon="9.434975"><time>2024-03-23T08:58:30.000Z</time><ele>875.4</ele></trkpt><trkpt lat="45.826939" lon="9.434977"><time>2024-03-23T08:58:31.000Z</time><ele>875.6</ele></trkpt><trkpt lat="45.826937" lon="9.434978"><time>2024-03-23T08:58:32.000Z</time><ele>876</ele></trkpt><trkpt lat="45.826937" lon="9.434978"><time>2024-03-23T08:58:33.000Z</time><ele>876.2</ele></trkpt><trkpt lat="45.826936" lon="9.434981"><time>2024-03-23T08:58:34.000Z</time><ele>876.4</ele></trkpt><trkpt lat="45.826935" lon="9.434986"><time>2024-03-23T08:58:35.000Z</time><ele>876.4</ele></trkpt><trkpt lat="45.826934" lon="9.43499"><time>2024-03-23T08:58:36.000Z</time><ele>876.4</ele></trkpt><trkpt lat="45.826934" lon="9.43499"><time>2024-03-23T08:58:37.000Z</time><ele>876.6</ele></trkpt><trkpt lat="45.826938" lon="9.434989"><time>2024-03-23T08:58:38.000Z</time><ele>876.8</ele></trkpt><trkpt lat="45.826946" lon="9.434985"><time>2024-03-23T08:58:39.000Z</time><ele>877</ele></trkpt><trkpt lat="45.826953" lon="9.43498"><time>2024-03-23T08:58:40.000Z</time><ele>877.2</ele></trkpt><trkpt lat="45.826962" lon="9.434981"><time>2024-03-23T08:58:41.000Z</time><ele>877.2</ele></trkpt><trkpt lat="45.826963" lon="9.43499"><time>2024-03-23T08:58:42.000Z</time><ele>877.4</ele></trkpt><trkpt lat="45.826966" lon="9.434994"><time>2024-03-23T08:58:43.000Z</time><ele>877.4</ele></trkpt><trkpt lat="45.826968" lon="9.434994"><time>2024-03-23T08:58:44.000Z</time><ele>877.4</ele></trkpt><trkpt lat="45.826969" lon="9.434991"><time>2024-03-23T08:58:45.000Z</time><ele>877.4</ele></trkpt><trkpt lat="45.82697" lon="9.434989"><time>2024-03-23T08:58:46.000Z</time><ele>877.6</ele></trkpt><trkpt lat="45.826969" lon="9.43499"><time>2024-03-23T08:58:47.000Z</time><ele>877.6</ele></trkpt><trkpt lat="45.826969" lon="9.434992"><time>2024-03-23T08:58:48.000Z</time><ele>877.8</ele></trkpt><trkpt lat="45.82697" lon="9.434992"><time>2024-03-23T08:58:49.000Z</time><ele>878</ele></trkpt><trkpt lat="45.82697" lon="9.434997"><time>2024-03-23T08:58:50.000Z</time><ele>878.2</ele></trkpt><trkpt lat="45.826971" lon="9.434998"><time>2024-03-23T08:58:51.000Z</time><ele>878.6</ele></trkpt><trkpt lat="45.826973" lon="9.435002"><time>2024-03-23T08:58:52.000Z</time><ele>878.8</ele></trkpt><trkpt lat="45.826975" lon="9.435004"><time>2024-03-23T08:58:53.000Z</time><ele>879</ele></trkpt><trkpt lat="45.826977" lon="9.435006"><time>2024-03-23T08:58:54.000Z</time><ele>879</ele></trkpt><trkpt lat="45.826983" lon="9.435005"><time>2024-03-23T08:58:55.000Z</time><ele>879.2</ele></trkpt><trkpt lat="45.826985" lon="9.435006"><time>2024-03-23T08:58:56.000Z</time><ele>879.4</ele></trkpt><trkpt lat="45.826986" lon="9.43501"><time>2024-03-23T08:58:57.000Z</time><ele>879.4</ele></trkpt><trkpt lat="45.826988" lon="9.435014"><time>2024-03-23T08:58:58.000Z</time><ele>879.6</ele></trkpt><trkpt lat="45.826991" lon="9.435015"><time>2024-03-23T08:58:59.000Z</time><ele>879.6</ele></trkpt><trkpt lat="45.826993" lon="9.435016"><time>2024-03-23T08:59:00.000Z</time><ele>879.8</ele></trkpt><trkpt lat="45.826993" lon="9.435017"><time>2024-03-23T08:59:01.000Z</time><ele>879.8</ele></trkpt><trkpt lat="45.826995" lon="9.435023"><time>2024-03-23T08:59:02.000Z</time><ele>880</ele></trkpt><trkpt lat="45.826995" lon="9.435027"><time>2024-03-23T08:59:03.000Z</time><ele>880</ele></trkpt><trkpt lat="45.826994" lon="9.435029"><time>2024-03-23T08:59:04.000Z</time><ele>880.2</ele></trkpt><trkpt lat="45.826993" lon="9.43503"><time>2024-03-23T08:59:05.000Z</time><ele>880.4</ele></trkpt><trkpt lat="45.82699" lon="9.435033"><time>2024-03-23T08:59:06.000Z</time><ele>880.4</ele></trkpt><trkpt lat="45.826988" lon="9.435039"><time>2024-03-23T08:59:07.000Z</time><ele>880.6</ele></trkpt><trkpt lat="45.826988" lon="9.435052"><time>2024-03-23T08:59:08.000Z</time><ele>880.6</ele></trkpt><trkpt lat="45.826987" lon="9.435057"><time>2024-03-23T08:59:09.000Z</time><ele>880.8</ele></trkpt><trkpt lat="45.826986" lon="9.435057"><time>2024-03-23T08:59:10.000Z</time><ele>881</ele></trkpt><trkpt lat="45.826983" lon="9.435056"><time>2024-03-23T08:59:11.000Z</time><ele>881.2</ele></trkpt><trkpt lat="45.826978" lon="9.435063"><time>2024-03-23T08:59:12.000Z</time><ele>881.4</ele></trkpt><trkpt lat="45.826973" lon="9.435066"><time>2024-03-23T08:59:13.000Z</time><ele>881.6</ele></trkpt><trkpt lat="45.826969" lon="9.435068"><time>2024-03-23T08:59:14.000Z</time><ele>881.6</ele></trkpt><trkpt lat="45.826967" lon="9.435072"><time>2024-03-23T08:59:15.000Z</time><ele>882</ele></trkpt><trkpt lat="45.826966" lon="9.435073"><time>2024-03-23T08:59:16.000Z</time><ele>882.2</ele></trkpt><trkpt lat="45.826966" lon="9.435074"><time>2024-03-23T08:59:17.000Z</time><ele>882.4</ele></trkpt><trkpt lat="45.826964" lon="9.435077"><time>2024-03-23T08:59:18.000Z</time><ele>882.6</ele></trkpt><trkpt lat="45.826959" lon="9.435082"><time>2024-03-23T08:59:19.000Z</time><ele>882.8</ele></trkpt><trkpt lat="45.826956" lon="9.435081"><time>2024-03-23T08:59:20.000Z</time><ele>882.8</ele></trkpt><trkpt lat="45.826953" lon="9.435079"><time>2024-03-23T08:59:21.000Z</time><ele>883.2</ele></trkpt><trkpt lat="45.826952" lon="9.43508"><time>2024-03-23T08:59:22.000Z</time><ele>883.4</ele></trkpt><trkpt lat="45.826951" lon="9.435081"><time>2024-03-23T08:59:23.000Z</time><ele>883.6</ele></trkpt><trkpt lat="45.826951" lon="9.435081"><time>2024-03-23T08:59:24.000Z</time><ele>883.6</ele></trkpt><trkpt lat="45.826952" lon="9.435078"><time>2024-03-23T08:59:25.000Z</time><ele>883.8</ele></trkpt><trkpt lat="45.82695" lon="9.435076"><time>2024-03-23T08:59:26.000Z</time><ele>884</ele></trkpt><trkpt lat="45.826949" lon="9.435077"><time>2024-03-23T08:59:27.000Z</time><ele>884.2</ele></trkpt><trkpt lat="45.826948" lon="9.435081"><time>2024-03-23T08:59:28.000Z</time><ele>884.2</ele></trkpt><trkpt lat="45.826944" lon="9.435086"><time>2024-03-23T08:59:29.000Z</time><ele>884.4</ele></trkpt><trkpt lat="45.82694" lon="9.435088"><time>2024-03-23T08:59:30.000Z</time><ele>884.6</ele></trkpt><trkpt lat="45.826939" lon="9.435088"><time>2024-03-23T08:59:31.000Z</time><ele>884.8</ele></trkpt><trkpt lat="45.826936" lon="9.435092"><time>2024-03-23T08:59:32.000Z</time><ele>884.8</ele></trkpt><trkpt lat="45.826931" lon="9.435099"><time>2024-03-23T08:59:33.000Z</time><ele>884.8</ele></trkpt><trkpt lat="45.826928" lon="9.435099"><time>2024-03-23T08:59:34.000Z</time><ele>885</ele></trkpt><trkpt lat="45.826929" lon="9.435093"><time>2024-03-23T08:59:35.000Z</time><ele>885.2</ele></trkpt><trkpt lat="45.826925" lon="9.435091"><time>2024-03-23T08:59:36.000Z</time><ele>885.4</ele></trkpt><trkpt lat="45.826925" lon="9.435098"><time>2024-03-23T08:59:37.000Z</time><ele>885.4</ele></trkpt><trkpt lat="45.826923" lon="9.435101"><time>2024-03-23T08:59:38.000Z</time><ele>885.6</ele></trkpt><trkpt lat="45.826924" lon="9.435104"><time>2024-03-23T08:59:39.000Z</time><ele>885.6</ele></trkpt><trkpt lat="45.826926" lon="9.435103"><time>2024-03-23T08:59:40.000Z</time><ele>886</ele></trkpt><trkpt lat="45.826927" lon="9.435103"><time>2024-03-23T08:59:41.000Z</time><ele>886.2</ele></trkpt><trkpt lat="45.826927" lon="9.435104"><time>2024-03-23T08:59:42.000Z</time><ele>886.4</ele></trkpt><trkpt lat="45.826927" lon="9.435104"><time>2024-03-23T08:59:43.000Z</time><ele>886.4</ele></trkpt><trkpt lat="45.826927" lon="9.435104"><time>2024-03-23T08:59:44.000Z</time><ele>886.6</ele></trkpt><trkpt lat="45.826927" lon="9.435104"><time>2024-03-23T08:59:45.000Z</time><ele>886.8</ele></trkpt><trkpt lat="45.826927" lon="9.435104"><time>2024-03-23T08:59:46.000Z</time><ele>886.8</ele></trkpt><trkpt lat="45.826927" lon="9.435104"><time>2024-03-23T08:59:47.000Z</time><ele>887</ele></trkpt><trkpt lat="45.826927" lon="9.435104"><time>2024-03-23T08:59:48.000Z</time><ele>887</ele></trkpt><trkpt lat="45.826927" lon="9.435104"><time>2024-03-23T08:59:49.000Z</time><ele>887.2</ele></trkpt><trkpt lat="45.826927" lon="9.435104"><time>2024-03-23T08:59:50.000Z</time><ele>887.6</ele></trkpt><trkpt lat="45.826927" lon="9.435103"><time>2024-03-23T08:59:51.000Z</time><ele>887.8</ele></trkpt><trkpt lat="45.826924" lon="9.435102"><time>2024-03-23T08:59:52.000Z</time><ele>888</ele></trkpt><trkpt lat="45.826923" lon="9.435105"><time>2024-03-23T08:59:53.000Z</time><ele>888.2</ele></trkpt><trkpt lat="45.826915" lon="9.435112"><time>2024-03-23T08:59:54.000Z</time><ele>888.4</ele></trkpt><trkpt lat="45.826914" lon="9.435115"><time>2024-03-23T08:59:55.000Z</time><ele>888.6</ele></trkpt><trkpt lat="45.826914" lon="9.435118"><time>2024-03-23T08:59:56.000Z</time><ele>888.6</ele></trkpt><trkpt lat="45.826914" lon="9.435118"><time>2024-03-23T08:59:57.000Z</time><ele>888.8</ele></trkpt><trkpt lat="45.826914" lon="9.435118"><time>2024-03-23T08:59:58.000Z</time><ele>889</ele></trkpt><trkpt lat="45.826914" lon="9.435118"><time>2024-03-23T08:59:59.000Z</time><ele>889</ele></trkpt><trkpt lat="45.826914" lon="9.435118"><time>2024-03-23T09:00:00.000Z</time><ele>889</ele></trkpt><trkpt lat="45.826914" lon="9.435118"><time>2024-03-23T09:00:01.000Z</time><ele>889.4</ele></trkpt><trkpt lat="45.826914" lon="9.435118"><time>2024-03-23T09:00:02.000Z</time><ele>889.6</ele></trkpt><trkpt lat="45.826914" lon="9.435118"><time>2024-03-23T09:00:03.000Z</time><ele>889.8</ele></trkpt><trkpt lat="45.826914" lon="9.435118"><time>2024-03-23T09:00:04.000Z</time><ele>890</ele></trkpt><trkpt lat="45.826914" lon="9.435118"><time>2024-03-23T09:00:05.000Z</time><ele>890</ele></trkpt><trkpt lat="45.826914" lon="9.435118"><time>2024-03-23T09:00:06.000Z</time><ele>890.2</ele></trkpt><trkpt lat="45.826914" lon="9.435118"><time>2024-03-23T09:00:07.000Z</time><ele>890.4</ele></trkpt><trkpt lat="45.826914" lon="9.435118"><time>2024-03-23T09:00:08.000Z</time><ele>890.8</ele></trkpt><trkpt lat="45.826914" lon="9.435118"><time>2024-03-23T09:00:09.000Z</time><ele>891</ele></trkpt><trkpt lat="45.826914" lon="9.435118"><time>2024-03-23T09:00:10.000Z</time><ele>891</ele></trkpt><trkpt lat="45.826914" lon="9.435118"><time>2024-03-23T09:00:11.000Z</time><ele>891</ele></trkpt><trkpt lat="45.826912" lon="9.435122"><time>2024-03-23T09:00:12.000Z</time><ele>891.2</ele></trkpt><trkpt lat="45.82691" lon="9.435123"><time>2024-03-23T09:00:13.000Z</time><ele>891.2</ele></trkpt><trkpt lat="45.826909" lon="9.435131"><time>2024-03-23T09:00:14.000Z</time><ele>891.6</ele></trkpt><trkpt lat="45.826909" lon="9.435135"><time>2024-03-23T09:00:15.000Z</time><ele>892</ele></trkpt><trkpt lat="45.826909" lon="9.435141"><time>2024-03-23T09:00:16.000Z</time><ele>892.2</ele></trkpt><trkpt lat="45.826908" lon="9.435143"><time>2024-03-23T09:00:17.000Z</time><ele>892.2</ele></trkpt><trkpt lat="45.826908" lon="9.435147"><time>2024-03-23T09:00:18.000Z</time><ele>892.4</ele></trkpt><trkpt lat="45.826908" lon="9.435149"><time>2024-03-23T09:00:19.000Z</time><ele>892.6</ele></trkpt><trkpt lat="45.826908" lon="9.43516"><time>2024-03-23T09:00:20.000Z</time><ele>892.8</ele></trkpt><trkpt lat="45.826908" lon="9.435165"><time>2024-03-23T09:00:21.000Z</time><ele>893</ele></trkpt><trkpt lat="45.826908" lon="9.435166"><time>2024-03-23T09:00:22.000Z</time><ele>893</ele></trkpt><trkpt lat="45.826908" lon="9.435166"><time>2024-03-23T09:00:23.000Z</time><ele>893.2</ele></trkpt><trkpt lat="45.826908" lon="9.435167"><time>2024-03-23T09:00:24.000Z</time><ele>893.4</ele></trkpt><trkpt lat="45.826908" lon="9.435167"><time>2024-03-23T09:00:25.000Z</time><ele>893.6</ele></trkpt><trkpt lat="45.826908" lon="9.435168"><time>2024-03-23T09:00:26.000Z</time><ele>893.8</ele></trkpt><trkpt lat="45.826908" lon="9.435175"><time>2024-03-23T09:00:27.000Z</time><ele>894</ele></trkpt><trkpt lat="45.826908" lon="9.435189"><time>2024-03-23T09:00:28.000Z</time><ele>894</ele></trkpt><trkpt lat="45.826908" lon="9.435198"><time>2024-03-23T09:00:29.000Z</time><ele>894</ele></trkpt><trkpt lat="45.826908" lon="9.435203"><time>2024-03-23T09:00:30.000Z</time><ele>894.2</ele></trkpt><trkpt lat="45.826908" lon="9.435204"><time>2024-03-23T09:00:31.000Z</time><ele>894.2</ele></trkpt><trkpt lat="45.826908" lon="9.435205"><time>2024-03-23T09:00:32.000Z</time><ele>894.4</ele></trkpt><trkpt lat="45.826908" lon="9.435205"><time>2024-03-23T09:00:33.000Z</time><ele>894.6</ele></trkpt><trkpt lat="45.826908" lon="9.435206"><time>2024-03-23T09:00:34.000Z</time><ele>894.6</ele></trkpt><trkpt lat="45.826908" lon="9.435206"><time>2024-03-23T09:00:35.000Z</time><ele>894.8</ele></trkpt><trkpt lat="45.826908" lon="9.435206"><time>2024-03-23T09:00:36.000Z</time><ele>895.2</ele></trkpt><trkpt lat="45.826908" lon="9.435206"><time>2024-03-23T09:00:37.000Z</time><ele>895.4</ele></trkpt><trkpt lat="45.826908" lon="9.435207"><time>2024-03-23T09:00:38.000Z</time><ele>895.4</ele></trkpt><trkpt lat="45.826909" lon="9.435214"><time>2024-03-23T09:00:39.000Z</time><ele>895.6</ele></trkpt><trkpt lat="45.82691" lon="9.435216"><time>2024-03-23T09:00:40.000Z</time><ele>895.8</ele></trkpt><trkpt lat="45.826911" lon="9.435227"><time>2024-03-23T09:00:41.000Z</time><ele>896</ele></trkpt><trkpt lat="45.826911" lon="9.435231"><time>2024-03-23T09:00:42.000Z</time><ele>896</ele></trkpt><trkpt lat="45.826912" lon="9.435234"><time>2024-03-23T09:00:43.000Z</time><ele>896</ele></trkpt><trkpt lat="45.826912" lon="9.435237"><time>2024-03-23T09:00:44.000Z</time><ele>896</ele></trkpt><trkpt lat="45.826913" lon="9.435238"><time>2024-03-23T09:00:45.000Z</time><ele>896</ele></trkpt><trkpt lat="45.826914" lon="9.435239"><time>2024-03-23T09:00:46.000Z</time><ele>896</ele></trkpt><trkpt lat="45.826914" lon="9.435241"><time>2024-03-23T09:00:47.000Z</time><ele>896</ele></trkpt><trkpt lat="45.826915" lon="9.435243"><time>2024-03-23T09:00:48.000Z</time><ele>896</ele></trkpt><trkpt lat="45.826918" lon="9.435247"><time>2024-03-23T09:00:49.000Z</time><ele>896</ele></trkpt><trkpt lat="45.82692" lon="9.435248"><time>2024-03-23T09:00:50.000Z</time><ele>896.2</ele></trkpt><trkpt lat="45.826922" lon="9.435254"><time>2024-03-23T09:00:51.000Z</time><ele>896.2</ele></trkpt><trkpt lat="45.826923" lon="9.435258"><time>2024-03-23T09:00:52.000Z</time><ele>896.2</ele></trkpt><trkpt lat="45.826924" lon="9.435259"><time>2024-03-23T09:00:53.000Z</time><ele>896.2</ele></trkpt><trkpt lat="45.826925" lon="9.435266"><time>2024-03-23T09:00:54.000Z</time><ele>896.2</ele></trkpt><trkpt lat="45.826926" lon="9.435269"><time>2024-03-23T09:00:55.000Z</time><ele>896.4</ele></trkpt><trkpt lat="45.826926" lon="9.435271"><time>2024-03-23T09:00:56.000Z</time><ele>896.4</ele></trkpt><trkpt lat="45.826927" lon="9.435271"><time>2024-03-23T09:00:57.000Z</time><ele>896.4</ele></trkpt><trkpt lat="45.826927" lon="9.435272"><time>2024-03-23T09:00:58.000Z</time><ele>896.4</ele></trkpt><trkpt lat="45.826929" lon="9.435273"><time>2024-03-23T09:00:59.000Z</time><ele>896.4</ele></trkpt><trkpt lat="45.82693" lon="9.435274"><time>2024-03-23T09:01:00.000Z</time><ele>896.4</ele></trkpt><trkpt lat="45.826932" lon="9.435278"><time>2024-03-23T09:01:01.000Z</time><ele>896.4</ele></trkpt><trkpt lat="45.826933" lon="9.435279"><time>2024-03-23T09:01:02.000Z</time><ele>896.4</ele></trkpt><trkpt lat="45.826936" lon="9.435279"><time>2024-03-23T09:01:03.000Z</time><ele>896.4</ele></trkpt><trkpt lat="45.826936" lon="9.43528"><time>2024-03-23T09:01:04.000Z</time><ele>896.4</ele></trkpt><trkpt lat="45.826937" lon="9.43528"><time>2024-03-23T09:01:05.000Z</time><ele>896.4</ele></trkpt><trkpt lat="45.826937" lon="9.43528"><time>2024-03-23T09:01:06.000Z</time><ele>896.4</ele></trkpt><trkpt lat="45.826938" lon="9.43528"><time>2024-03-23T09:01:07.000Z</time><ele>896.4</ele></trkpt><trkpt lat="45.826939" lon="9.43528"><time>2024-03-23T09:01:08.000Z</time><ele>896.2</ele></trkpt><trkpt lat="45.82694" lon="9.43528"><time>2024-03-23T09:01:09.000Z</time><ele>896.2</ele></trkpt><trkpt lat="45.82694" lon="9.43528"><time>2024-03-23T09:01:10.000Z</time><ele>896.2</ele></trkpt><trkpt lat="45.826941" lon="9.43528"><time>2024-03-23T09:01:11.000Z</time><ele>896.2</ele></trkpt><trkpt lat="45.826942" lon="9.43528"><time>2024-03-23T09:01:12.000Z</time><ele>896.2</ele></trkpt><trkpt lat="45.826942" lon="9.43528"><time>2024-03-23T09:01:13.000Z</time><ele>896.2</ele></trkpt><trkpt lat="45.826942" lon="9.43528"><time>2024-03-23T09:01:14.000Z</time><ele>896.2</ele></trkpt><trkpt lat="45.826942" lon="9.43528"><time>2024-03-23T09:01:15.000Z</time><ele>896.2</ele></trkpt><trkpt lat="45.826942" lon="9.43528"><time>2024-03-23T09:01:16.000Z</time><ele>896.2</ele></trkpt><trkpt lat="45.826942" lon="9.43528"><time>2024-03-23T09:01:17.000Z</time><ele>896.2</ele></trkpt><trkpt lat="45.826942" lon="9.43528"><time>2024-03-23T09:01:18.000Z</time><ele>896.4</ele></trkpt><trkpt lat="45.826942" lon="9.43528"><time>2024-03-23T09:01:19.000Z</time><ele>896.4</ele></trkpt><trkpt lat="45.826942" lon="9.43528"><time>2024-03-23T09:01:20.000Z</time><ele>896.4</ele></trkpt><trkpt lat="45.826942" lon="9.43528"><time>2024-03-23T09:01:21.000Z</time><ele>896.6</ele></trkpt><trkpt lat="45.826942" lon="9.43528"><time>2024-03-23T09:01:22.000Z</time><ele>896.8</ele></trkpt><trkpt lat="45.826942" lon="9.43528"><time>2024-03-23T09:01:23.000Z</time><ele>896.8</ele></trkpt><trkpt lat="45.826942" lon="9.43528"><time>2024-03-23T09:01:24.000Z</time><ele>896.8</ele></trkpt><trkpt lat="45.826942" lon="9.43528"><time>2024-03-23T09:01:25.000Z</time><ele>896.8</ele></trkpt><trkpt lat="45.826942" lon="9.43528"><time>2024-03-23T09:01:26.000Z</time><ele>896.8</ele></trkpt><trkpt lat="45.826941" lon="9.43528"><time>2024-03-23T09:01:27.000Z</time><ele>896.8</ele></trkpt><trkpt lat="45.826941" lon="9.43528"><time>2024-03-23T09:01:28.000Z</time><ele>896.8</ele></trkpt><trkpt lat="45.826941" lon="9.435279"><time>2024-03-23T09:01:29.000Z</time><ele>896.6</ele></trkpt><trkpt lat="45.826941" lon="9.435279"><time>2024-03-23T09:01:30.000Z</time><ele>896.6</ele></trkpt><trkpt lat="45.826941" lon="9.435279"><time>2024-03-23T09:01:31.000Z</time><ele>896.6</ele></trkpt><trkpt lat="45.826941" lon="9.435279"><time>2024-03-23T09:01:32.000Z</time><ele>896.6</ele></trkpt><trkpt lat="45.826941" lon="9.435279"><time>2024-03-23T09:01:33.000Z</time><ele>896.8</ele></trkpt><trkpt lat="45.826941" lon="9.435279"><time>2024-03-23T09:01:34.000Z</time><ele>896.8</ele></trkpt><trkpt lat="45.826941" lon="9.435279"><time>2024-03-23T09:01:35.000Z</time><ele>896.8</ele></trkpt><trkpt lat="45.826941" lon="9.435279"><time>2024-03-23T09:01:36.000Z</time><ele>896.8</ele></trkpt><trkpt lat="45.826941" lon="9.435279"><time>2024-03-23T09:01:37.000Z</time><ele>896.8</ele></trkpt><trkpt lat="45.82694" lon="9.435279"><time>2024-03-23T09:01:38.000Z</time><ele>896.8</ele></trkpt><trkpt lat="45.82694" lon="9.435279"><time>2024-03-23T09:01:39.000Z</time><ele>896.8</ele></trkpt><trkpt lat="45.826939" lon="9.435279"><time>2024-03-23T09:01:40.000Z</time><ele>896.8</ele></trkpt><trkpt lat="45.826939" lon="9.435279"><time>2024-03-23T09:01:41.000Z</time><ele>896.8</ele></trkpt><trkpt lat="45.826938" lon="9.435279"><time>2024-03-23T09:01:42.000Z</time><ele>896.6</ele></trkpt><trkpt lat="45.826938" lon="9.435279"><time>2024-03-23T09:01:43.000Z</time><ele>896.6</ele></trkpt><trkpt lat="45.826938" lon="9.435279"><time>2024-03-23T09:01:44.000Z</time><ele>896.6</ele></trkpt><trkpt lat="45.826938" lon="9.435279"><time>2024-03-23T09:01:45.000Z</time><ele>896.4</ele></trkpt><trkpt lat="45.826937" lon="9.435279"><time>2024-03-23T09:01:46.000Z</time><ele>896.2</ele></trkpt><trkpt lat="45.826937" lon="9.435279"><time>2024-03-23T09:01:47.000Z</time><ele>896.2</ele></trkpt><trkpt lat="45.826937" lon="9.435279"><time>2024-03-23T09:01:48.000Z</time><ele>896.2</ele></trkpt><trkpt lat="45.826937" lon="9.435278"><time>2024-03-23T09:01:49.000Z</time><ele>896.2</ele></trkpt><trkpt lat="45.826937" lon="9.435278"><time>2024-03-23T09:01:50.000Z</time><ele>896.2</ele></trkpt><trkpt lat="45.826938" lon="9.435277"><time>2024-03-23T09:01:51.000Z</time><ele>896.2</ele></trkpt><trkpt lat="45.826938" lon="9.435277"><time>2024-03-23T09:01:52.000Z</time><ele>896.2</ele></trkpt><trkpt lat="45.826938" lon="9.435277"><time>2024-03-23T09:01:53.000Z</time><ele>896.2</ele></trkpt><trkpt lat="45.826938" lon="9.435277"><time>2024-03-23T09:01:54.000Z</time><ele>896.2</ele></trkpt><trkpt lat="45.826938" lon="9.435276"><time>2024-03-23T09:01:55.000Z</time><ele>896.2</ele></trkpt><trkpt lat="45.826938" lon="9.435276"><time>2024-03-23T09:01:56.000Z</time><ele>896.2</ele></trkpt><trkpt lat="45.826938" lon="9.435276"><time>2024-03-23T09:01:57.000Z</time><ele>896.2</ele></trkpt><trkpt lat="45.826938" lon="9.435276"><time>2024-03-23T09:01:58.000Z</time><ele>896.2</ele></trkpt><trkpt lat="45.826938" lon="9.435275"><time>2024-03-23T09:01:59.000Z</time><ele>896.2</ele></trkpt><trkpt lat="45.826938" lon="9.435275"><time>2024-03-23T09:02:00.000Z</time><ele>896.2</ele></trkpt><trkpt lat="45.826938" lon="9.435274"><time>2024-03-23T09:02:01.000Z</time><ele>896.2</ele></trkpt><trkpt lat="45.826938" lon="9.435274"><time>2024-03-23T09:02:02.000Z</time><ele>896.2</ele></trkpt><trkpt lat="45.826939" lon="9.435274"><time>2024-03-23T09:02:03.000Z</time><ele>896.2</ele></trkpt><trkpt lat="45.826939" lon="9.435274"><time>2024-03-23T09:02:04.000Z</time><ele>896.2</ele></trkpt><trkpt lat="45.82694" lon="9.435274"><time>2024-03-23T09:02:05.000Z</time><ele>896.2</ele></trkpt><trkpt lat="45.826941" lon="9.435274"><time>2024-03-23T09:02:06.000Z</time><ele>896.2</ele></trkpt><trkpt lat="45.826941" lon="9.435274"><time>2024-03-23T09:02:07.000Z</time><ele>896.2</ele></trkpt><trkpt lat="45.826941" lon="9.435274"><time>2024-03-23T09:02:08.000Z</time><ele>896.2</ele></trkpt><trkpt lat="45.826941" lon="9.435274"><time>2024-03-23T09:02:09.000Z</time><ele>896.2</ele></trkpt><trkpt lat="45.826941" lon="9.435274"><time>2024-03-23T09:02:10.000Z</time><ele>896.2</ele></trkpt><trkpt lat="45.826941" lon="9.435274"><time>2024-03-23T09:02:11.000Z</time><ele>896.2</ele></trkpt><trkpt lat="45.826941" lon="9.435274"><time>2024-03-23T09:02:12.000Z</time><ele>896.2</ele></trkpt><trkpt lat="45.826941" lon="9.435274"><time>2024-03-23T09:02:13.000Z</time><ele>896.2</ele></trkpt><trkpt lat="45.826941" lon="9.435275"><time>2024-03-23T09:02:14.000Z</time><ele>896.2</ele></trkpt><trkpt lat="45.826941" lon="9.435276"><time>2024-03-23T09:02:15.000Z</time><ele>896.2</ele></trkpt><trkpt lat="45.826941" lon="9.435276"><time>2024-03-23T09:02:16.000Z</time><ele>896.2</ele></trkpt><trkpt lat="45.826941" lon="9.435277"><time>2024-03-23T09:02:17.000Z</time><ele>896.2</ele></trkpt><trkpt lat="45.826941" lon="9.435277"><time>2024-03-23T09:02:18.000Z</time><ele>896.2</ele></trkpt><trkpt lat="45.826941" lon="9.435277"><time>2024-03-23T09:02:19.000Z</time><ele>896.2</ele></trkpt><trkpt lat="45.826941" lon="9.435278"><time>2024-03-23T09:02:20.000Z</time><ele>896.2</ele></trkpt><trkpt lat="45.826941" lon="9.435278"><time>2024-03-23T09:02:21.000Z</time><ele>896.2</ele></trkpt><trkpt lat="45.826941" lon="9.435278"><time>2024-03-23T09:02:22.000Z</time><ele>896.2</ele></trkpt><trkpt lat="45.826941" lon="9.435278"><time>2024-03-23T09:02:23.000Z</time><ele>896.2</ele></trkpt><trkpt lat="45.82694" lon="9.435278"><time>2024-03-23T09:02:24.000Z</time><ele>896.2</ele></trkpt><trkpt lat="45.82694" lon="9.435278"><time>2024-03-23T09:02:25.000Z</time><ele>896.2</ele></trkpt><trkpt lat="45.82694" lon="9.435278"><time>2024-03-23T09:02:26.000Z</time><ele>896.2</ele></trkpt><trkpt lat="45.82694" lon="9.435278"><time>2024-03-23T09:02:27.000Z</time><ele>896.2</ele></trkpt><trkpt lat="45.82694" lon="9.435278"><time>2024-03-23T09:02:28.000Z</time><ele>896.2</ele></trkpt><trkpt lat="45.82694" lon="9.435278"><time>2024-03-23T09:02:29.000Z</time><ele>896.2</ele></trkpt><trkpt lat="45.826939" lon="9.435277"><time>2024-03-23T09:02:30.000Z</time><ele>896.2</ele></trkpt><trkpt lat="45.826939" lon="9.435276"><time>2024-03-23T09:02:31.000Z</time><ele>896.2</ele></trkpt><trkpt lat="45.826939" lon="9.435274"><time>2024-03-23T09:02:32.000Z</time><ele>896.2</ele></trkpt><trkpt lat="45.826939" lon="9.435273"><time>2024-03-23T09:02:33.000Z</time><ele>896.2</ele></trkpt><trkpt lat="45.826939" lon="9.435271"><time>2024-03-23T09:02:34.000Z</time><ele>896.2</ele></trkpt><trkpt lat="45.826939" lon="9.435269"><time>2024-03-23T09:02:35.000Z</time><ele>896.2</ele></trkpt><trkpt lat="45.826939" lon="9.435267"><time>2024-03-23T09:02:36.000Z</time><ele>896.2</ele></trkpt><trkpt lat="45.826939" lon="9.435266"><time>2024-03-23T09:02:37.000Z</time><ele>896.2</ele></trkpt><trkpt lat="45.826939" lon="9.435265"><time>2024-03-23T09:02:38.000Z</time><ele>896.2</ele></trkpt><trkpt lat="45.826939" lon="9.435265"><time>2024-03-23T09:02:39.000Z</time><ele>896.2</ele></trkpt><trkpt lat="45.826938" lon="9.435264"><time>2024-03-23T09:02:40.000Z</time><ele>896.2</ele></trkpt><trkpt lat="45.826938" lon="9.435264"><time>2024-03-23T09:02:41.000Z</time><ele>896.2</ele></trkpt><trkpt lat="45.826938" lon="9.435263"><time>2024-03-23T09:02:42.000Z</time><ele>896.2</ele></trkpt><trkpt lat="45.826939" lon="9.435263"><time>2024-03-23T09:02:43.000Z</time><ele>896.2</ele></trkpt><trkpt lat="45.826939" lon="9.435263"><time>2024-03-23T09:02:44.000Z</time><ele>896.2</ele></trkpt><trkpt lat="45.826939" lon="9.435262"><time>2024-03-23T09:02:45.000Z</time><ele>896.2</ele></trkpt><trkpt lat="45.826939" lon="9.435262"><time>2024-03-23T09:02:46.000Z</time><ele>896.2</ele></trkpt><trkpt lat="45.826939" lon="9.435262"><time>2024-03-23T09:02:47.000Z</time><ele>896.2</ele></trkpt><trkpt lat="45.826939" lon="9.435262"><time>2024-03-23T09:02:48.000Z</time><ele>896.2</ele></trkpt><trkpt lat="45.826939" lon="9.435262"><time>2024-03-23T09:02:49.000Z</time><ele>896.2</ele></trkpt><trkpt lat="45.826939" lon="9.435262"><time>2024-03-23T09:02:50.000Z</time><ele>896.2</ele></trkpt><trkpt lat="45.826939" lon="9.435263"><time>2024-03-23T09:02:51.000Z</time><ele>896.2</ele></trkpt><trkpt lat="45.826939" lon="9.435263"><time>2024-03-23T09:02:52.000Z</time><ele>896.2</ele></trkpt><trkpt lat="45.826939" lon="9.435264"><time>2024-03-23T09:02:53.000Z</time><ele>896.2</ele></trkpt><trkpt lat="45.82694" lon="9.435266"><time>2024-03-23T09:02:54.000Z</time><ele>896.2</ele></trkpt><trkpt lat="45.826941" lon="9.435267"><time>2024-03-23T09:02:55.000Z</time><ele>896.2</ele></trkpt><trkpt lat="45.826942" lon="9.435269"><time>2024-03-23T09:02:56.000Z</time><ele>896.2</ele></trkpt><trkpt lat="45.826942" lon="9.435271"><time>2024-03-23T09:02:57.000Z</time><ele>896.2</ele></trkpt><trkpt lat="45.826943" lon="9.435272"><time>2024-03-23T09:02:58.000Z</time><ele>896.2</ele></trkpt><trkpt lat="45.826944" lon="9.435273"><time>2024-03-23T09:02:59.000Z</time><ele>896.2</ele></trkpt><trkpt lat="45.826944" lon="9.435274"><time>2024-03-23T09:03:00.000Z</time><ele>896.2</ele></trkpt><trkpt lat="45.826945" lon="9.435275"><time>2024-03-23T09:03:01.000Z</time><ele>896.2</ele></trkpt><trkpt lat="45.826945" lon="9.435276"><time>2024-03-23T09:03:02.000Z</time><ele>896.2</ele></trkpt><trkpt lat="45.826945" lon="9.435277"><time>2024-03-23T09:03:03.000Z</time><ele>896.2</ele></trkpt><trkpt lat="45.826946" lon="9.435277"><time>2024-03-23T09:03:04.000Z</time><ele>896.2</ele></trkpt><trkpt lat="45.826946" lon="9.435278"><time>2024-03-23T09:03:05.000Z</time><ele>896.2</ele></trkpt><trkpt lat="45.826946" lon="9.435279"><time>2024-03-23T09:03:06.000Z</time><ele>896.2</ele></trkpt><trkpt lat="45.826947" lon="9.435279"><time>2024-03-23T09:03:07.000Z</time><ele>896.2</ele></trkpt><trkpt lat="45.826947" lon="9.43528"><time>2024-03-23T09:03:08.000Z</time><ele>896.2</ele></trkpt><trkpt lat="45.826947" lon="9.43528"><time>2024-03-23T09:03:09.000Z</time><ele>896.2</ele></trkpt><trkpt lat="45.826947" lon="9.43528"><time>2024-03-23T09:03:10.000Z</time><ele>896.2</ele></trkpt><trkpt lat="45.826948" lon="9.435281"><time>2024-03-23T09:03:11.000Z</time><ele>896.2</ele></trkpt><trkpt lat="45.826948" lon="9.435281"><time>2024-03-23T09:03:12.000Z</time><ele>896.2</ele></trkpt><trkpt lat="45.826948" lon="9.435281"><time>2024-03-23T09:03:13.000Z</time><ele>896.2</ele></trkpt><trkpt lat="45.826948" lon="9.435282"><time>2024-03-23T09:03:14.000Z</time><ele>896.2</ele></trkpt><trkpt lat="45.826948" lon="9.435282"><time>2024-03-23T09:03:15.000Z</time><ele>896.2</ele></trkpt><trkpt lat="45.826948" lon="9.435282"><time>2024-03-23T09:03:16.000Z</time><ele>896.2</ele></trkpt><trkpt lat="45.826949" lon="9.435282"><time>2024-03-23T09:03:17.000Z</time><ele>896.2</ele></trkpt><trkpt lat="45.826949" lon="9.435282"><time>2024-03-23T09:03:18.000Z</time><ele>896.2</ele></trkpt><trkpt lat="45.826949" lon="9.435283"><time>2024-03-23T09:03:19.000Z</time><ele>896.2</ele></trkpt><trkpt lat="45.826949" lon="9.435283"><time>2024-03-23T09:03:20.000Z</time><ele>896.2</ele></trkpt><trkpt lat="45.826949" lon="9.435283"><time>2024-03-23T09:03:21.000Z</time><ele>896.2</ele></trkpt><trkpt lat="45.82695" lon="9.435284"><time>2024-03-23T09:03:22.000Z</time><ele>896.2</ele></trkpt><trkpt lat="45.82695" lon="9.435284"><time>2024-03-23T09:03:23.000Z</time><ele>896.2</ele></trkpt><trkpt lat="45.82695" lon="9.435285"><time>2024-03-23T09:03:24.000Z</time><ele>896.2</ele></trkpt><trkpt lat="45.82695" lon="9.435285"><time>2024-03-23T09:03:25.000Z</time><ele>896.2</ele></trkpt><trkpt lat="45.82695" lon="9.435285"><time>2024-03-23T09:03:26.000Z</time><ele>896.2</ele></trkpt><trkpt lat="45.826951" lon="9.435285"><time>2024-03-23T09:03:27.000Z</time><ele>896.2</ele></trkpt><trkpt lat="45.826951" lon="9.435286"><time>2024-03-23T09:03:28.000Z</time><ele>896.2</ele></trkpt><trkpt lat="45.826951" lon="9.435286"><time>2024-03-23T09:03:29.000Z</time><ele>896.2</ele></trkpt><trkpt lat="45.826952" lon="9.435287"><time>2024-03-23T09:03:30.000Z</time><ele>896.2</ele></trkpt><trkpt lat="45.826952" lon="9.435287"><time>2024-03-23T09:03:31.000Z</time><ele>896.2</ele></trkpt><trkpt lat="45.826952" lon="9.435287"><time>2024-03-23T09:03:32.000Z</time><ele>896.2</ele></trkpt><trkpt lat="45.826952" lon="9.435288"><time>2024-03-23T09:03:33.000Z</time><ele>896.2</ele></trkpt><trkpt lat="45.826953" lon="9.435288"><time>2024-03-23T09:03:34.000Z</time><ele>896.2</ele></trkpt><trkpt lat="45.826953" lon="9.435288"><time>2024-03-23T09:03:35.000Z</time><ele>896.2</ele></trkpt><trkpt lat="45.826953" lon="9.435288"><time>2024-03-23T09:03:36.000Z</time><ele>896.2</ele></trkpt><trkpt lat="45.826953" lon="9.435289"><time>2024-03-23T09:03:37.000Z</time><ele>896.2</ele></trkpt><trkpt lat="45.826953" lon="9.43529"><time>2024-03-23T09:03:38.000Z</time><ele>896.2</ele></trkpt><trkpt lat="45.826954" lon="9.43529"><time>2024-03-23T09:03:39.000Z</time><ele>896.2</ele></trkpt><trkpt lat="45.826954" lon="9.435291"><time>2024-03-23T09:03:40.000Z</time><ele>896.2</ele></trkpt><trkpt lat="45.826954" lon="9.435291"><time>2024-03-23T09:03:41.000Z</time><ele>896.2</ele></trkpt><trkpt lat="45.826954" lon="9.435291"><time>2024-03-23T09:03:42.000Z</time><ele>896.2</ele></trkpt><trkpt lat="45.826954" lon="9.435292"><time>2024-03-23T09:03:43.000Z</time><ele>896.2</ele></trkpt><trkpt lat="45.826955" lon="9.435292"><time>2024-03-23T09:03:44.000Z</time><ele>896.2</ele></trkpt><trkpt lat="45.826955" lon="9.435292"><time>2024-03-23T09:03:45.000Z</time><ele>896.2</ele></trkpt><trkpt lat="45.826955" lon="9.435293"><time>2024-03-23T09:03:46.000Z</time><ele>896.2</ele></trkpt><trkpt lat="45.826955" lon="9.435293"><time>2024-03-23T09:03:47.000Z</time><ele>896.2</ele></trkpt><trkpt lat="45.826967" lon="9.435316"><time>2024-03-23T09:03:48.000Z</time><ele>903.6</ele></trkpt><trkpt lat="45.826982" lon="9.435342"><time>2024-03-23T09:03:49.000Z</time><ele>903.6</ele></trkpt><trkpt lat="45.826998" lon="9.435367"><time>2024-03-23T09:03:50.000Z</time><ele>903.6</ele></trkpt><trkpt lat="45.827013" lon="9.435388"><time>2024-03-23T09:03:51.000Z</time><ele>903.6</ele></trkpt><trkpt lat="45.827026" lon="9.43541"><time>2024-03-23T09:03:52.000Z</time><ele>903.6</ele></trkpt><trkpt lat="45.827041" lon="9.435439"><time>2024-03-23T09:03:53.000Z</time><ele>904</ele></trkpt><trkpt lat="45.827054" lon="9.435473"><time>2024-03-23T09:03:54.000Z</time><ele>904.2</ele></trkpt><trkpt lat="45.827069" lon="9.435497"><time>2024-03-23T09:03:55.000Z</time><ele>904.4</ele></trkpt><trkpt lat="45.827085" lon="9.435519"><time>2024-03-23T09:03:56.000Z</time><ele>904.4</ele></trkpt><trkpt lat="45.827096" lon="9.435544"><time>2024-03-23T09:03:57.000Z</time><ele>904.6</ele></trkpt><trkpt lat="45.827095" lon="9.435546"><time>2024-03-23T09:03:58.000Z</time><ele>904.6</ele></trkpt><trkpt lat="45.827095" lon="9.435549"><time>2024-03-23T09:03:59.000Z</time><ele>905</ele></trkpt><trkpt lat="45.827096" lon="9.435553"><time>2024-03-23T09:04:00.000Z</time><ele>905.4</ele></trkpt><trkpt lat="45.8271" lon="9.435559"><time>2024-03-23T09:04:01.000Z</time><ele>905.6</ele></trkpt><trkpt lat="45.827103" lon="9.435563"><time>2024-03-23T09:04:02.000Z</time><ele>905.8</ele></trkpt><trkpt lat="45.827103" lon="9.43556"><time>2024-03-23T09:04:03.000Z</time><ele>906</ele></trkpt><trkpt lat="45.827102" lon="9.435562"><time>2024-03-23T09:04:04.000Z</time><ele>906.2</ele></trkpt><trkpt lat="45.827104" lon="9.435561"><time>2024-03-23T09:04:05.000Z</time><ele>906.4</ele></trkpt><trkpt lat="45.827105" lon="9.435559"><time>2024-03-23T09:04:06.000Z</time><ele>906.6</ele></trkpt><trkpt lat="45.827106" lon="9.435561"><time>2024-03-23T09:04:07.000Z</time><ele>906.6</ele></trkpt><trkpt lat="45.827107" lon="9.435562"><time>2024-03-23T09:04:08.000Z</time><ele>906.8</ele></trkpt><trkpt lat="45.827109" lon="9.435567"><time>2024-03-23T09:04:09.000Z</time><ele>906.8</ele></trkpt><trkpt lat="45.827109" lon="9.435569"><time>2024-03-23T09:04:10.000Z</time><ele>906.8</ele></trkpt><trkpt lat="45.827111" lon="9.435571"><time>2024-03-23T09:04:11.000Z</time><ele>907.2</ele></trkpt><trkpt lat="45.827114" lon="9.435576"><time>2024-03-23T09:04:12.000Z</time><ele>907.4</ele></trkpt><trkpt lat="45.827117" lon="9.43558"><time>2024-03-23T09:04:13.000Z</time><ele>907.6</ele></trkpt><trkpt lat="45.827117" lon="9.435581"><time>2024-03-23T09:04:14.000Z</time><ele>907.6</ele></trkpt><trkpt lat="45.827116" lon="9.435584"><time>2024-03-23T09:04:15.000Z</time><ele>907.8</ele></trkpt><trkpt lat="45.827116" lon="9.435589"><time>2024-03-23T09:04:16.000Z</time><ele>908</ele></trkpt><trkpt lat="45.827119" lon="9.435592"><time>2024-03-23T09:04:17.000Z</time><ele>908.2</ele></trkpt><trkpt lat="45.827121" lon="9.435595"><time>2024-03-23T09:04:18.000Z</time><ele>908.4</ele></trkpt><trkpt lat="45.827124" lon="9.4356"><time>2024-03-23T09:04:19.000Z</time><ele>908.4</ele></trkpt><trkpt lat="45.827125" lon="9.435601"><time>2024-03-23T09:04:20.000Z</time><ele>908.4</ele></trkpt><trkpt lat="45.827125" lon="9.435603"><time>2024-03-23T09:04:21.000Z</time><ele>908.4</ele></trkpt><trkpt lat="45.827121" lon="9.435609"><time>2024-03-23T09:04:22.000Z</time><ele>908.6</ele></trkpt><trkpt lat="45.827121" lon="9.435609"><time>2024-03-23T09:04:23.000Z</time><ele>908.6</ele></trkpt><trkpt lat="45.827121" lon="9.435612"><time>2024-03-23T09:04:24.000Z</time><ele>908.6</ele></trkpt><trkpt lat="45.82712" lon="9.435611"><time>2024-03-23T09:04:25.000Z</time><ele>908.6</ele></trkpt><trkpt lat="45.82712" lon="9.435611"><time>2024-03-23T09:04:26.000Z</time><ele>908.6</ele></trkpt><trkpt lat="45.82712" lon="9.435611"><time>2024-03-23T09:04:27.000Z</time><ele>908.6</ele></trkpt><trkpt lat="45.82712" lon="9.435611"><time>2024-03-23T09:04:28.000Z</time><ele>908.6</ele></trkpt><trkpt lat="45.82712" lon="9.435611"><time>2024-03-23T09:04:29.000Z</time><ele>908.6</ele></trkpt><trkpt lat="45.82712" lon="9.435611"><time>2024-03-23T09:04:30.000Z</time><ele>908.6</ele></trkpt><trkpt lat="45.82712" lon="9.435611"><time>2024-03-23T09:04:31.000Z</time><ele>908.6</ele></trkpt><trkpt lat="45.82712" lon="9.435611"><time>2024-03-23T09:04:32.000Z</time><ele>909</ele></trkpt><trkpt lat="45.82712" lon="9.435611"><time>2024-03-23T09:04:33.000Z</time><ele>909</ele></trkpt><trkpt lat="45.82712" lon="9.435609"><time>2024-03-23T09:04:34.000Z</time><ele>909</ele></trkpt><trkpt lat="45.82712" lon="9.435609"><time>2024-03-23T09:04:35.000Z</time><ele>909.2</ele></trkpt><trkpt lat="45.82712" lon="9.435606"><time>2024-03-23T09:04:36.000Z</time><ele>909.2</ele></trkpt><trkpt lat="45.82712" lon="9.435604"><time>2024-03-23T09:04:37.000Z</time><ele>909.2</ele></trkpt><trkpt lat="45.82712" lon="9.435603"><time>2024-03-23T09:04:38.000Z</time><ele>909</ele></trkpt><trkpt lat="45.82712" lon="9.435602"><time>2024-03-23T09:04:39.000Z</time><ele>909</ele></trkpt><trkpt lat="45.82712" lon="9.435601"><time>2024-03-23T09:04:40.000Z</time><ele>908.8</ele></trkpt><trkpt lat="45.827119" lon="9.4356"><time>2024-03-23T09:04:41.000Z</time><ele>908.8</ele></trkpt><trkpt lat="45.827119" lon="9.4356"><time>2024-03-23T09:04:42.000Z</time><ele>908.8</ele></trkpt><trkpt lat="45.827119" lon="9.435599"><time>2024-03-23T09:04:43.000Z</time><ele>908.8</ele></trkpt><trkpt lat="45.827119" lon="9.435597"><time>2024-03-23T09:04:44.000Z</time><ele>908.8</ele></trkpt><trkpt lat="45.827118" lon="9.435596"><time>2024-03-23T09:04:45.000Z</time><ele>908.8</ele></trkpt><trkpt lat="45.827118" lon="9.435596"><time>2024-03-23T09:04:46.000Z</time><ele>909</ele></trkpt><trkpt lat="45.827117" lon="9.435596"><time>2024-03-23T09:04:47.000Z</time><ele>909</ele></trkpt><trkpt lat="45.827116" lon="9.435596"><time>2024-03-23T09:04:48.000Z</time><ele>909.2</ele></trkpt><trkpt lat="45.827114" lon="9.435596"><time>2024-03-23T09:04:49.000Z</time><ele>909.2</ele></trkpt><trkpt lat="45.827113" lon="9.435596"><time>2024-03-23T09:04:50.000Z</time><ele>909.6</ele></trkpt><trkpt lat="45.827113" lon="9.435596"><time>2024-03-23T09:04:51.000Z</time><ele>909.8</ele></trkpt><trkpt lat="45.827113" lon="9.435596"><time>2024-03-23T09:04:52.000Z</time><ele>910</ele></trkpt><trkpt lat="45.827111" lon="9.435597"><time>2024-03-23T09:04:53.000Z</time><ele>910</ele></trkpt><trkpt lat="45.827108" lon="9.435601"><time>2024-03-23T09:04:54.000Z</time><ele>910.2</ele></trkpt><trkpt lat="45.82711" lon="9.435607"><time>2024-03-23T09:04:55.000Z</time><ele>910.2</ele></trkpt><trkpt lat="45.827112" lon="9.435611"><time>2024-03-23T09:04:56.000Z</time><ele>910.2</ele></trkpt><trkpt lat="45.827113" lon="9.435627"><time>2024-03-23T09:04:57.000Z</time><ele>910.6</ele></trkpt><trkpt lat="45.827116" lon="9.435633"><time>2024-03-23T09:04:58.000Z</time><ele>910.8</ele></trkpt><trkpt lat="45.827114" lon="9.435633"><time>2024-03-23T09:04:59.000Z</time><ele>911</ele></trkpt><trkpt lat="45.827115" lon="9.43564"><time>2024-03-23T09:05:00.000Z</time><ele>911.4</ele></trkpt><trkpt lat="45.827116" lon="9.435647"><time>2024-03-23T09:05:01.000Z</time><ele>911.6</ele></trkpt><trkpt lat="45.827111" lon="9.435658"><time>2024-03-23T09:05:02.000Z</time><ele>911.8</ele></trkpt><trkpt lat="45.827108" lon="9.435662"><time>2024-03-23T09:05:03.000Z</time><ele>911.8</ele></trkpt><trkpt lat="45.827106" lon="9.435666"><time>2024-03-23T09:05:04.000Z</time><ele>912.2</ele></trkpt><trkpt lat="45.827106" lon="9.435672"><time>2024-03-23T09:05:05.000Z</time><ele>912.2</ele></trkpt><trkpt lat="45.827107" lon="9.435673"><time>2024-03-23T09:05:06.000Z</time><ele>912.4</ele></trkpt><trkpt lat="45.82711" lon="9.435677"><time>2024-03-23T09:05:07.000Z</time><ele>912.4</ele></trkpt><trkpt lat="45.827108" lon="9.435683"><time>2024-03-23T09:05:08.000Z</time><ele>912.6</ele></trkpt><trkpt lat="45.827106" lon="9.435689"><time>2024-03-23T09:05:09.000Z</time><ele>912.8</ele></trkpt><trkpt lat="45.827103" lon="9.435694"><time>2024-03-23T09:05:10.000Z</time><ele>913.2</ele></trkpt><trkpt lat="45.827101" lon="9.435701"><time>2024-03-23T09:05:11.000Z</time><ele>913.2</ele></trkpt><trkpt lat="45.827099" lon="9.43571"><time>2024-03-23T09:05:12.000Z</time><ele>913.4</ele></trkpt><trkpt lat="45.827097" lon="9.435718"><time>2024-03-23T09:05:13.000Z</time><ele>913.6</ele></trkpt><trkpt lat="45.827095" lon="9.435723"><time>2024-03-23T09:05:14.000Z</time><ele>913.8</ele></trkpt><trkpt lat="45.827094" lon="9.435727"><time>2024-03-23T09:05:15.000Z</time><ele>913.8</ele></trkpt><trkpt lat="45.827092" lon="9.435736"><time>2024-03-23T09:05:16.000Z</time><ele>914.2</ele></trkpt><trkpt lat="45.82709" lon="9.435747"><time>2024-03-23T09:05:17.000Z</time><ele>914.4</ele></trkpt><trkpt lat="45.82709" lon="9.435753"><time>2024-03-23T09:05:18.000Z</time><ele>914.6</ele></trkpt><trkpt lat="45.827086" lon="9.435753"><time>2024-03-23T09:05:19.000Z</time><ele>914.6</ele></trkpt><trkpt lat="45.827084" lon="9.435759"><time>2024-03-23T09:05:20.000Z</time><ele>915</ele></trkpt><trkpt lat="45.827078" lon="9.435757"><time>2024-03-23T09:05:21.000Z</time><ele>915.2</ele></trkpt><trkpt lat="45.827075" lon="9.435755"><time>2024-03-23T09:05:22.000Z</time><ele>915.4</ele></trkpt><trkpt lat="45.827073" lon="9.435756"><time>2024-03-23T09:05:23.000Z</time><ele>915.4</ele></trkpt><trkpt lat="45.827072" lon="9.43576"><time>2024-03-23T09:05:24.000Z</time><ele>915.4</ele></trkpt><trkpt lat="45.827074" lon="9.435772"><time>2024-03-23T09:05:25.000Z</time><ele>915.6</ele></trkpt><trkpt lat="45.827073" lon="9.435776"><time>2024-03-23T09:05:26.000Z</time><ele>916</ele></trkpt><trkpt lat="45.827069" lon="9.435782"><time>2024-03-23T09:05:27.000Z</time><ele>916</ele></trkpt><trkpt lat="45.827065" lon="9.435789"><time>2024-03-23T09:05:28.000Z</time><ele>916.4</ele></trkpt><trkpt lat="45.827062" lon="9.435798"><time>2024-03-23T09:05:29.000Z</time><ele>916.6</ele></trkpt><trkpt lat="45.82706" lon="9.43581"><time>2024-03-23T09:05:30.000Z</time><ele>916.8</ele></trkpt><trkpt lat="45.827058" lon="9.435834"><time>2024-03-23T09:05:31.000Z</time><ele>917</ele></trkpt><trkpt lat="45.827058" lon="9.435853"><time>2024-03-23T09:05:32.000Z</time><ele>917.2</ele></trkpt><trkpt lat="45.827056" lon="9.435869"><time>2024-03-23T09:05:33.000Z</time><ele>917.2</ele></trkpt><trkpt lat="45.827053" lon="9.435874"><time>2024-03-23T09:05:34.000Z</time><ele>917.2</ele></trkpt><trkpt lat="45.827051" lon="9.435876"><time>2024-03-23T09:05:35.000Z</time><ele>917.4</ele></trkpt><trkpt lat="45.82705" lon="9.435889"><time>2024-03-23T09:05:36.000Z</time><ele>917.4</ele></trkpt><trkpt lat="45.82705" lon="9.435891"><time>2024-03-23T09:05:37.000Z</time><ele>917.4</ele></trkpt><trkpt lat="45.827049" lon="9.435892"><time>2024-03-23T09:05:38.000Z</time><ele>917.4</ele></trkpt><trkpt lat="45.82705" lon="9.43589"><time>2024-03-23T09:05:39.000Z</time><ele>917.4</ele></trkpt><trkpt lat="45.827049" lon="9.435888"><time>2024-03-23T09:05:40.000Z</time><ele>917.4</ele></trkpt><trkpt lat="45.827048" lon="9.435885"><time>2024-03-23T09:05:41.000Z</time><ele>917.4</ele></trkpt><trkpt lat="45.827046" lon="9.435883"><time>2024-03-23T09:05:42.000Z</time><ele>917.4</ele></trkpt><trkpt lat="45.827045" lon="9.43588"><time>2024-03-23T09:05:43.000Z</time><ele>917.4</ele></trkpt><trkpt lat="45.827045" lon="9.435879"><time>2024-03-23T09:05:44.000Z</time><ele>917.4</ele></trkpt><trkpt lat="45.827045" lon="9.435878"><time>2024-03-23T09:05:45.000Z</time><ele>917.2</ele></trkpt><trkpt lat="45.827046" lon="9.435876"><time>2024-03-23T09:05:46.000Z</time><ele>917.2</ele></trkpt><trkpt lat="45.827045" lon="9.435874"><time>2024-03-23T09:05:47.000Z</time><ele>917.2</ele></trkpt><trkpt lat="45.827045" lon="9.435873"><time>2024-03-23T09:05:48.000Z</time><ele>917.2</ele></trkpt><trkpt lat="45.827045" lon="9.435873"><time>2024-03-23T09:05:49.000Z</time><ele>917</ele></trkpt><trkpt lat="45.827045" lon="9.435873"><time>2024-03-23T09:05:50.000Z</time><ele>917</ele></trkpt><trkpt lat="45.827045" lon="9.435873"><time>2024-03-23T09:05:51.000Z</time><ele>917</ele></trkpt><trkpt lat="45.827045" lon="9.435873"><time>2024-03-23T09:05:52.000Z</time><ele>917.2</ele></trkpt><trkpt lat="45.827045" lon="9.435873"><time>2024-03-23T09:05:53.000Z</time><ele>917.2</ele></trkpt><trkpt lat="45.827045" lon="9.435873"><time>2024-03-23T09:05:54.000Z</time><ele>917.2</ele></trkpt><trkpt lat="45.827045" lon="9.435873"><time>2024-03-23T09:05:55.000Z</time><ele>917.2</ele></trkpt><trkpt lat="45.827045" lon="9.435873"><time>2024-03-23T09:05:56.000Z</time><ele>917.2</ele></trkpt><trkpt lat="45.827045" lon="9.435874"><time>2024-03-23T09:05:57.000Z</time><ele>917.2</ele></trkpt><trkpt lat="45.827045" lon="9.435874"><time>2024-03-23T09:05:58.000Z</time><ele>917.2</ele></trkpt><trkpt lat="45.827045" lon="9.435875"><time>2024-03-23T09:05:59.000Z</time><ele>917.2</ele></trkpt><trkpt lat="45.827045" lon="9.435876"><time>2024-03-23T09:06:00.000Z</time><ele>917.2</ele></trkpt><trkpt lat="45.827045" lon="9.435878"><time>2024-03-23T09:06:01.000Z</time><ele>917.2</ele></trkpt><trkpt lat="45.827046" lon="9.435879"><time>2024-03-23T09:06:02.000Z</time><ele>917.2</ele></trkpt><trkpt lat="45.827046" lon="9.43588"><time>2024-03-23T09:06:03.000Z</time><ele>917.2</ele></trkpt><trkpt lat="45.827046" lon="9.43588"><time>2024-03-23T09:06:04.000Z</time><ele>917.4</ele></trkpt><trkpt lat="45.827046" lon="9.43588"><time>2024-03-23T09:06:05.000Z</time><ele>917.4</ele></trkpt><trkpt lat="45.827046" lon="9.43588"><time>2024-03-23T09:06:06.000Z</time><ele>917.4</ele></trkpt><trkpt lat="45.827046" lon="9.43588"><time>2024-03-23T09:06:07.000Z</time><ele>917.4</ele></trkpt><trkpt lat="45.827046" lon="9.43588"><time>2024-03-23T09:06:08.000Z</time><ele>917.4</ele></trkpt><trkpt lat="45.827046" lon="9.43588"><time>2024-03-23T09:06:09.000Z</time><ele>917.2</ele></trkpt><trkpt lat="45.827046" lon="9.43588"><time>2024-03-23T09:06:10.000Z</time><ele>917.2</ele></trkpt><trkpt lat="45.827046" lon="9.43588"><time>2024-03-23T09:06:11.000Z</time><ele>917.2</ele></trkpt><trkpt lat="45.827045" lon="9.435879"><time>2024-03-23T09:06:12.000Z</time><ele>917.2</ele></trkpt><trkpt lat="45.827045" lon="9.435879"><time>2024-03-23T09:06:13.000Z</time><ele>917.2</ele></trkpt><trkpt lat="45.827045" lon="9.435878"><time>2024-03-23T09:06:14.000Z</time><ele>917.2</ele></trkpt><trkpt lat="45.827045" lon="9.435878"><time>2024-03-23T09:06:15.000Z</time><ele>917</ele></trkpt><trkpt lat="45.827045" lon="9.435878"><time>2024-03-23T09:06:16.000Z</time><ele>917.2</ele></trkpt><trkpt lat="45.827045" lon="9.435878"><time>2024-03-23T09:06:17.000Z</time><ele>917.2</ele></trkpt><trkpt lat="45.827045" lon="9.435878"><time>2024-03-23T09:06:18.000Z</time><ele>917.2</ele></trkpt><trkpt lat="45.827045" lon="9.435878"><time>2024-03-23T09:06:19.000Z</time><ele>917.2</ele></trkpt><trkpt lat="45.827045" lon="9.435878"><time>2024-03-23T09:06:20.000Z</time><ele>917.2</ele></trkpt><trkpt lat="45.827044" lon="9.435878"><time>2024-03-23T09:06:21.000Z</time><ele>917.4</ele></trkpt><trkpt lat="45.827044" lon="9.435878"><time>2024-03-23T09:06:22.000Z</time><ele>917.4</ele></trkpt><trkpt lat="45.827043" lon="9.435877"><time>2024-03-23T09:06:23.000Z</time><ele>917.4</ele></trkpt><trkpt lat="45.827042" lon="9.435877"><time>2024-03-23T09:06:24.000Z</time><ele>917.4</ele></trkpt><trkpt lat="45.827042" lon="9.435876"><time>2024-03-23T09:06:25.000Z</time><ele>917.4</ele></trkpt><trkpt lat="45.827042" lon="9.435876"><time>2024-03-23T09:06:26.000Z</time><ele>917.4</ele></trkpt><trkpt lat="45.827042" lon="9.435875"><time>2024-03-23T09:06:27.000Z</time><ele>917.4</ele></trkpt><trkpt lat="45.827042" lon="9.435875"><time>2024-03-23T09:06:28.000Z</time><ele>917.2</ele></trkpt><trkpt lat="45.827042" lon="9.435875"><time>2024-03-23T09:06:29.000Z</time><ele>917.2</ele></trkpt><trkpt lat="45.827042" lon="9.435875"><time>2024-03-23T09:06:30.000Z</time><ele>917</ele></trkpt><trkpt lat="45.827042" lon="9.435875"><time>2024-03-23T09:06:31.000Z</time><ele>917</ele></trkpt><trkpt lat="45.827042" lon="9.435874"><time>2024-03-23T09:06:32.000Z</time><ele>917</ele></trkpt><trkpt lat="45.827042" lon="9.435874"><time>2024-03-23T09:06:33.000Z</time><ele>917</ele></trkpt><trkpt lat="45.827042" lon="9.435874"><time>2024-03-23T09:06:34.000Z</time><ele>917.4</ele></trkpt><trkpt lat="45.827042" lon="9.435874"><time>2024-03-23T09:06:35.000Z</time><ele>917.4</ele></trkpt><trkpt lat="45.827042" lon="9.435874"><time>2024-03-23T09:06:36.000Z</time><ele>917.4</ele></trkpt><trkpt lat="45.827042" lon="9.435874"><time>2024-03-23T09:06:37.000Z</time><ele>917.6</ele></trkpt><trkpt lat="45.827042" lon="9.435874"><time>2024-03-23T09:06:38.000Z</time><ele>917.6</ele></trkpt><trkpt lat="45.827042" lon="9.435873"><time>2024-03-23T09:06:39.000Z</time><ele>917.8</ele></trkpt><trkpt lat="45.827042" lon="9.435874"><time>2024-03-23T09:06:40.000Z</time><ele>917.8</ele></trkpt><trkpt lat="45.827042" lon="9.435874"><time>2024-03-23T09:06:41.000Z</time><ele>917.8</ele></trkpt><trkpt lat="45.827042" lon="9.435874"><time>2024-03-23T09:06:42.000Z</time><ele>917.8</ele></trkpt><trkpt lat="45.827042" lon="9.435874"><time>2024-03-23T09:06:43.000Z</time><ele>917.8</ele></trkpt><trkpt lat="45.827043" lon="9.435874"><time>2024-03-23T09:06:44.000Z</time><ele>918</ele></trkpt><trkpt lat="45.827044" lon="9.435874"><time>2024-03-23T09:06:45.000Z</time><ele>918.2</ele></trkpt><trkpt lat="45.827046" lon="9.435874"><time>2024-03-23T09:06:46.000Z</time><ele>918.4</ele></trkpt><trkpt lat="45.827046" lon="9.435874"><time>2024-03-23T09:06:47.000Z</time><ele>918.6</ele></trkpt><trkpt lat="45.827047" lon="9.435874"><time>2024-03-23T09:06:48.000Z</time><ele>918.8</ele></trkpt><trkpt lat="45.827047" lon="9.435874"><time>2024-03-23T09:06:49.000Z</time><ele>919</ele></trkpt><trkpt lat="45.827048" lon="9.435874"><time>2024-03-23T09:06:50.000Z</time><ele>919.2</ele></trkpt><trkpt lat="45.827048" lon="9.435874"><time>2024-03-23T09:06:51.000Z</time><ele>919.2</ele></trkpt><trkpt lat="45.827051" lon="9.435876"><time>2024-03-23T09:06:52.000Z</time><ele>919.4</ele></trkpt><trkpt lat="45.827053" lon="9.435877"><time>2024-03-23T09:06:53.000Z</time><ele>919.6</ele></trkpt><trkpt lat="45.827059" lon="9.435881"><time>2024-03-23T09:06:54.000Z</time><ele>919.8</ele></trkpt><trkpt lat="45.827069" lon="9.435884"><time>2024-03-23T09:06:55.000Z</time><ele>920</ele></trkpt><trkpt lat="45.827088" lon="9.435894"><time>2024-03-23T09:06:56.000Z</time><ele>920</ele></trkpt><trkpt lat="45.82711" lon="9.435905"><time>2024-03-23T09:06:57.000Z</time><ele>920.2</ele></trkpt><trkpt lat="45.82713" lon="9.435916"><time>2024-03-23T09:06:58.000Z</time><ele>920.2</ele></trkpt><trkpt lat="45.827151" lon="9.435925"><time>2024-03-23T09:06:59.000Z</time><ele>920.2</ele></trkpt><trkpt lat="45.827171" lon="9.435933"><time>2024-03-23T09:07:00.000Z</time><ele>920.4</ele></trkpt><trkpt lat="45.827191" lon="9.435946"><time>2024-03-23T09:07:01.000Z</time><ele>920.4</ele></trkpt><trkpt lat="45.827209" lon="9.435961"><time>2024-03-23T09:07:02.000Z</time><ele>920.4</ele></trkpt><trkpt lat="45.82723" lon="9.435973"><time>2024-03-23T09:07:03.000Z</time><ele>920.6</ele></trkpt><trkpt lat="45.827247" lon="9.435973"><time>2024-03-23T09:07:04.000Z</time><ele>920.6</ele></trkpt><trkpt lat="45.827253" lon="9.435974"><time>2024-03-23T09:07:05.000Z</time><ele>920.6</ele></trkpt><trkpt lat="45.827259" lon="9.435981"><time>2024-03-23T09:07:06.000Z</time><ele>920.8</ele></trkpt><trkpt lat="45.827265" lon="9.435985"><time>2024-03-23T09:07:07.000Z</time><ele>921</ele></trkpt><trkpt lat="45.827267" lon="9.435986"><time>2024-03-23T09:07:08.000Z</time><ele>921</ele></trkpt><trkpt lat="45.827269" lon="9.435987"><time>2024-03-23T09:07:09.000Z</time><ele>921.2</ele></trkpt><trkpt lat="45.827273" lon="9.435991"><time>2024-03-23T09:07:10.000Z</time><ele>921.4</ele></trkpt><trkpt lat="45.827276" lon="9.435991"><time>2024-03-23T09:07:11.000Z</time><ele>921.4</ele></trkpt><trkpt lat="45.827282" lon="9.436001"><time>2024-03-23T09:07:12.000Z</time><ele>921.4</ele></trkpt><trkpt lat="45.827291" lon="9.436009"><time>2024-03-23T09:07:13.000Z</time><ele>921.6</ele></trkpt><trkpt lat="45.827302" lon="9.436019"><time>2024-03-23T09:07:14.000Z</time><ele>921.8</ele></trkpt><trkpt lat="45.827317" lon="9.436041"><time>2024-03-23T09:07:15.000Z</time><ele>921.8</ele></trkpt><trkpt lat="45.827331" lon="9.436046"><time>2024-03-23T09:07:16.000Z</time><ele>922</ele></trkpt><trkpt lat="45.827343" lon="9.436049"><time>2024-03-23T09:07:17.000Z</time><ele>922</ele></trkpt><trkpt lat="45.827351" lon="9.436055"><time>2024-03-23T09:07:18.000Z</time><ele>922.2</ele></trkpt><trkpt lat="45.827357" lon="9.436059"><time>2024-03-23T09:07:19.000Z</time><ele>922.2</ele></trkpt><trkpt lat="45.827366" lon="9.436067"><time>2024-03-23T09:07:20.000Z</time><ele>922.4</ele></trkpt><trkpt lat="45.827377" lon="9.436073"><time>2024-03-23T09:07:21.000Z</time><ele>922.4</ele></trkpt><trkpt lat="45.82739" lon="9.436076"><time>2024-03-23T09:07:22.000Z</time><ele>922.6</ele></trkpt><trkpt lat="45.827402" lon="9.43608"><time>2024-03-23T09:07:23.000Z</time><ele>922.6</ele></trkpt><trkpt lat="45.827411" lon="9.436081"><time>2024-03-23T09:07:24.000Z</time><ele>922.8</ele></trkpt><trkpt lat="45.827421" lon="9.436081"><time>2024-03-23T09:07:25.000Z</time><ele>923</ele></trkpt><trkpt lat="45.827427" lon="9.436084"><time>2024-03-23T09:07:26.000Z</time><ele>923</ele></trkpt><trkpt lat="45.827434" lon="9.436085"><time>2024-03-23T09:07:27.000Z</time><ele>923.2</ele></trkpt><trkpt lat="45.827442" lon="9.436086"><time>2024-03-23T09:07:28.000Z</time><ele>923.2</ele></trkpt><trkpt lat="45.827446" lon="9.436093"><time>2024-03-23T09:07:29.000Z</time><ele>923.2</ele></trkpt><trkpt lat="45.827448" lon="9.436097"><time>2024-03-23T09:07:30.000Z</time><ele>923.2</ele></trkpt><trkpt lat="45.827452" lon="9.436104"><time>2024-03-23T09:07:31.000Z</time><ele>923.4</ele></trkpt><trkpt lat="45.827458" lon="9.436109"><time>2024-03-23T09:07:32.000Z</time><ele>923.4</ele></trkpt><trkpt lat="45.827463" lon="9.436116"><time>2024-03-23T09:07:33.000Z</time><ele>923.6</ele></trkpt><trkpt lat="45.827473" lon="9.436118"><time>2024-03-23T09:07:34.000Z</time><ele>923.8</ele></trkpt><trkpt lat="45.827483" lon="9.436124"><time>2024-03-23T09:07:35.000Z</time><ele>924</ele></trkpt><trkpt lat="45.827494" lon="9.436132"><time>2024-03-23T09:07:36.000Z</time><ele>924</ele></trkpt><trkpt lat="45.827501" lon="9.436138"><time>2024-03-23T09:07:37.000Z</time><ele>924.2</ele></trkpt><trkpt lat="45.827506" lon="9.436145"><time>2024-03-23T09:07:38.000Z</time><ele>924.4</ele></trkpt><trkpt lat="45.82751" lon="9.436152"><time>2024-03-23T09:07:39.000Z</time><ele>924.4</ele></trkpt><trkpt lat="45.827515" lon="9.436162"><time>2024-03-23T09:07:40.000Z</time><ele>924.6</ele></trkpt><trkpt lat="45.827523" lon="9.436171"><time>2024-03-23T09:07:41.000Z</time><ele>924.6</ele></trkpt><trkpt lat="45.82753" lon="9.436181"><time>2024-03-23T09:07:42.000Z</time><ele>924.6</ele></trkpt><trkpt lat="45.827541" lon="9.436192"><time>2024-03-23T09:07:43.000Z</time><ele>924.6</ele></trkpt><trkpt lat="45.827551" lon="9.436207"><time>2024-03-23T09:07:44.000Z</time><ele>924.6</ele></trkpt><trkpt lat="45.827561" lon="9.436223"><time>2024-03-23T09:07:45.000Z</time><ele>924.6</ele></trkpt><trkpt lat="45.827572" lon="9.436233"><time>2024-03-23T09:07:46.000Z</time><ele>924.8</ele></trkpt><trkpt lat="45.827585" lon="9.436241"><time>2024-03-23T09:07:47.000Z</time><ele>925</ele></trkpt><trkpt lat="45.827591" lon="9.436241"><time>2024-03-23T09:07:48.000Z</time><ele>925.2</ele></trkpt><trkpt lat="45.827598" lon="9.436246"><time>2024-03-23T09:07:49.000Z</time><ele>925.4</ele></trkpt><trkpt lat="45.827604" lon="9.436248"><time>2024-03-23T09:07:50.000Z</time><ele>925.4</ele></trkpt><trkpt lat="45.827609" lon="9.436253"><time>2024-03-23T09:07:51.000Z</time><ele>925.6</ele></trkpt><trkpt lat="45.827617" lon="9.436268"><time>2024-03-23T09:07:52.000Z</time><ele>925.8</ele></trkpt><trkpt lat="45.827623" lon="9.436274"><time>2024-03-23T09:07:53.000Z</time><ele>926</ele></trkpt><trkpt lat="45.827628" lon="9.436277"><time>2024-03-23T09:07:54.000Z</time><ele>926.2</ele></trkpt><trkpt lat="45.827632" lon="9.436284"><time>2024-03-23T09:07:55.000Z</time><ele>926.4</ele></trkpt><trkpt lat="45.827637" lon="9.436293"><time>2024-03-23T09:07:56.000Z</time><ele>926.6</ele></trkpt><trkpt lat="45.827641" lon="9.436301"><time>2024-03-23T09:07:57.000Z</time><ele>927</ele></trkpt><trkpt lat="45.827649" lon="9.436307"><time>2024-03-23T09:07:58.000Z</time><ele>927.2</ele></trkpt><trkpt lat="45.827655" lon="9.436311"><time>2024-03-23T09:07:59.000Z</time><ele>927.2</ele></trkpt><trkpt lat="45.827661" lon="9.43631"><time>2024-03-23T09:08:00.000Z</time><ele>927.4</ele></trkpt><trkpt lat="45.827666" lon="9.436312"><time>2024-03-23T09:08:01.000Z</time><ele>927.6</ele></trkpt><trkpt lat="45.827675" lon="9.436314"><time>2024-03-23T09:08:02.000Z</time><ele>927.6</ele></trkpt><trkpt lat="45.827682" lon="9.436318"><time>2024-03-23T09:08:03.000Z</time><ele>927.8</ele></trkpt><trkpt lat="45.827688" lon="9.436322"><time>2024-03-23T09:08:04.000Z</time><ele>927.8</ele></trkpt><trkpt lat="45.827693" lon="9.436324"><time>2024-03-23T09:08:05.000Z</time><ele>928</ele></trkpt><trkpt lat="45.827698" lon="9.436327"><time>2024-03-23T09:08:06.000Z</time><ele>928.2</ele></trkpt><trkpt lat="45.827703" lon="9.43633"><time>2024-03-23T09:08:07.000Z</time><ele>928.4</ele></trkpt><trkpt lat="45.827707" lon="9.436331"><time>2024-03-23T09:08:08.000Z</time><ele>928.6</ele></trkpt><trkpt lat="45.82771" lon="9.436331"><time>2024-03-23T09:08:09.000Z</time><ele>928.8</ele></trkpt><trkpt lat="45.827712" lon="9.436326"><time>2024-03-23T09:08:10.000Z</time><ele>928.8</ele></trkpt><trkpt lat="45.827714" lon="9.436326"><time>2024-03-23T09:08:11.000Z</time><ele>929.2</ele></trkpt><trkpt lat="45.827718" lon="9.436331"><time>2024-03-23T09:08:12.000Z</time><ele>929.4</ele></trkpt><trkpt lat="45.827721" lon="9.436333"><time>2024-03-23T09:08:13.000Z</time><ele>929.6</ele></trkpt><trkpt lat="45.827722" lon="9.43634"><time>2024-03-23T09:08:14.000Z</time><ele>929.8</ele></trkpt><trkpt lat="45.827725" lon="9.436345"><time>2024-03-23T09:08:15.000Z</time><ele>930</ele></trkpt><trkpt lat="45.827729" lon="9.436348"><time>2024-03-23T09:08:16.000Z</time><ele>930.2</ele></trkpt><trkpt lat="45.827732" lon="9.436351"><time>2024-03-23T09:08:17.000Z</time><ele>930.4</ele></trkpt><trkpt lat="45.827737" lon="9.436353"><time>2024-03-23T09:08:18.000Z</time><ele>930.6</ele></trkpt><trkpt lat="45.827741" lon="9.436351"><time>2024-03-23T09:08:19.000Z</time><ele>930.8</ele></trkpt><trkpt lat="45.827744" lon="9.436349"><time>2024-03-23T09:08:20.000Z</time><ele>930.8</ele></trkpt><trkpt lat="45.827749" lon="9.436351"><time>2024-03-23T09:08:21.000Z</time><ele>931</ele></trkpt><trkpt lat="45.827754" lon="9.436353"><time>2024-03-23T09:08:22.000Z</time><ele>931.2</ele></trkpt><trkpt lat="45.827757" lon="9.436354"><time>2024-03-23T09:08:23.000Z</time><ele>931.4</ele></trkpt><trkpt lat="45.827762" lon="9.436362"><time>2024-03-23T09:08:24.000Z</time><ele>931.6</ele></trkpt><trkpt lat="45.827766" lon="9.436365"><time>2024-03-23T09:08:25.000Z</time><ele>932</ele></trkpt><trkpt lat="45.82777" lon="9.436367"><time>2024-03-23T09:08:26.000Z</time><ele>932.2</ele></trkpt><trkpt lat="45.827769" lon="9.436367"><time>2024-03-23T09:08:27.000Z</time><ele>932.2</ele></trkpt><trkpt lat="45.827772" lon="9.43637"><time>2024-03-23T09:08:28.000Z</time><ele>932.6</ele></trkpt><trkpt lat="45.82778" lon="9.436377"><time>2024-03-23T09:08:29.000Z</time><ele>932.8</ele></trkpt><trkpt lat="45.827783" lon="9.436381"><time>2024-03-23T09:08:30.000Z</time><ele>933</ele></trkpt><trkpt lat="45.827789" lon="9.436385"><time>2024-03-23T09:08:31.000Z</time><ele>933</ele></trkpt><trkpt lat="45.827792" lon="9.43639"><time>2024-03-23T09:08:32.000Z</time><ele>933.2</ele></trkpt><trkpt lat="45.827797" lon="9.436395"><time>2024-03-23T09:08:33.000Z</time><ele>933.6</ele></trkpt><trkpt lat="45.827801" lon="9.436395"><time>2024-03-23T09:08:34.000Z</time><ele>933.6</ele></trkpt><trkpt lat="45.827803" lon="9.436393"><time>2024-03-23T09:08:35.000Z</time><ele>933.8</ele></trkpt><trkpt lat="45.827806" lon="9.43639"><time>2024-03-23T09:08:36.000Z</time><ele>934</ele></trkpt><trkpt lat="45.827813" lon="9.436393"><time>2024-03-23T09:08:37.000Z</time><ele>934</ele></trkpt><trkpt lat="45.827814" lon="9.436391"><time>2024-03-23T09:08:38.000Z</time><ele>934.2</ele></trkpt><trkpt lat="45.827814" lon="9.436387"><time>2024-03-23T09:08:39.000Z</time><ele>934.4</ele></trkpt><trkpt lat="45.827815" lon="9.436386"><time>2024-03-23T09:08:40.000Z</time><ele>934.6</ele></trkpt><trkpt lat="45.827819" lon="9.436392"><time>2024-03-23T09:08:41.000Z</time><ele>934.8</ele></trkpt><trkpt lat="45.827821" lon="9.436399"><time>2024-03-23T09:08:42.000Z</time><ele>934.8</ele></trkpt><trkpt lat="45.827823" lon="9.436404"><time>2024-03-23T09:08:43.000Z</time><ele>935</ele></trkpt><trkpt lat="45.827826" lon="9.436409"><time>2024-03-23T09:08:44.000Z</time><ele>935.2</ele></trkpt><trkpt lat="45.827828" lon="9.436413"><time>2024-03-23T09:08:45.000Z</time><ele>935.4</ele></trkpt><trkpt lat="45.827832" lon="9.436415"><time>2024-03-23T09:08:46.000Z</time><ele>935.6</ele></trkpt><trkpt lat="45.827835" lon="9.436417"><time>2024-03-23T09:08:47.000Z</time><ele>935.6</ele></trkpt><trkpt lat="45.827839" lon="9.436419"><time>2024-03-23T09:08:48.000Z</time><ele>935.8</ele></trkpt><trkpt lat="45.827841" lon="9.436421"><time>2024-03-23T09:08:49.000Z</time><ele>936.2</ele></trkpt><trkpt lat="45.827845" lon="9.436426"><time>2024-03-23T09:08:50.000Z</time><ele>936.4</ele></trkpt><trkpt lat="45.827852" lon="9.436432"><time>2024-03-23T09:08:51.000Z</time><ele>936.6</ele></trkpt><trkpt lat="45.827858" lon="9.436433"><time>2024-03-23T09:08:52.000Z</time><ele>936.6</ele></trkpt><trkpt lat="45.827861" lon="9.436435"><time>2024-03-23T09:08:53.000Z</time><ele>936.8</ele></trkpt><trkpt lat="45.827861" lon="9.436439"><time>2024-03-23T09:08:54.000Z</time><ele>937</ele></trkpt><trkpt lat="45.827865" lon="9.436447"><time>2024-03-23T09:08:55.000Z</time><ele>937.2</ele></trkpt><trkpt lat="45.827867" lon="9.436455"><time>2024-03-23T09:08:56.000Z</time><ele>937.4</ele></trkpt><trkpt lat="45.827869" lon="9.43646"><time>2024-03-23T09:08:57.000Z</time><ele>937.6</ele></trkpt><trkpt lat="45.827871" lon="9.436464"><time>2024-03-23T09:08:58.000Z</time><ele>937.8</ele></trkpt><trkpt lat="45.827872" lon="9.436469"><time>2024-03-23T09:08:59.000Z</time><ele>938</ele></trkpt><trkpt lat="45.827873" lon="9.436472"><time>2024-03-23T09:09:00.000Z</time><ele>938.2</ele></trkpt><trkpt lat="45.827876" lon="9.436478"><time>2024-03-23T09:09:01.000Z</time><ele>938.2</ele></trkpt><trkpt lat="45.827879" lon="9.436483"><time>2024-03-23T09:09:02.000Z</time><ele>938.6</ele></trkpt><trkpt lat="45.827886" lon="9.436488"><time>2024-03-23T09:09:03.000Z</time><ele>938.8</ele></trkpt><trkpt lat="45.827888" lon="9.436492"><time>2024-03-23T09:09:04.000Z</time><ele>939</ele></trkpt><trkpt lat="45.82789" lon="9.436496"><time>2024-03-23T09:09:05.000Z</time><ele>939.2</ele></trkpt><trkpt lat="45.827892" lon="9.436503"><time>2024-03-23T09:09:06.000Z</time><ele>939.4</ele></trkpt><trkpt lat="45.827895" lon="9.436509"><time>2024-03-23T09:09:07.000Z</time><ele>939.4</ele></trkpt><trkpt lat="45.827899" lon="9.436513"><time>2024-03-23T09:09:08.000Z</time><ele>939.4</ele></trkpt><trkpt lat="45.827903" lon="9.436516"><time>2024-03-23T09:09:09.000Z</time><ele>939.6</ele></trkpt><trkpt lat="45.827906" lon="9.436519"><time>2024-03-23T09:09:10.000Z</time><ele>939.8</ele></trkpt><trkpt lat="45.82791" lon="9.436523"><time>2024-03-23T09:09:11.000Z</time><ele>939.8</ele></trkpt><trkpt lat="45.827914" lon="9.43653"><time>2024-03-23T09:09:12.000Z</time><ele>940</ele></trkpt><trkpt lat="45.827919" lon="9.436538"><time>2024-03-23T09:09:13.000Z</time><ele>940.2</ele></trkpt><trkpt lat="45.82792" lon="9.436546"><time>2024-03-23T09:09:14.000Z</time><ele>940.4</ele></trkpt><trkpt lat="45.827923" lon="9.436555"><time>2024-03-23T09:09:15.000Z</time><ele>940.6</ele></trkpt><trkpt lat="45.827927" lon="9.436563"><time>2024-03-23T09:09:16.000Z</time><ele>940.6</ele></trkpt><trkpt lat="45.827931" lon="9.436568"><time>2024-03-23T09:09:17.000Z</time><ele>940.8</ele></trkpt><trkpt lat="45.827931" lon="9.436575"><time>2024-03-23T09:09:18.000Z</time><ele>941</ele></trkpt><trkpt lat="45.827937" lon="9.436582"><time>2024-03-23T09:09:19.000Z</time><ele>941.2</ele></trkpt><trkpt lat="45.827944" lon="9.436587"><time>2024-03-23T09:09:20.000Z</time><ele>941.4</ele></trkpt><trkpt lat="45.827949" lon="9.436592"><time>2024-03-23T09:09:21.000Z</time><ele>941.4</ele></trkpt><trkpt lat="45.827953" lon="9.436598"><time>2024-03-23T09:09:22.000Z</time><ele>941.8</ele></trkpt><trkpt lat="45.827961" lon="9.436601"><time>2024-03-23T09:09:23.000Z</time><ele>942</ele></trkpt><trkpt lat="45.827966" lon="9.436602"><time>2024-03-23T09:09:24.000Z</time><ele>942.2</ele></trkpt><trkpt lat="45.827969" lon="9.436605"><time>2024-03-23T09:09:25.000Z</time><ele>942.2</ele></trkpt><trkpt lat="45.827966" lon="9.436619"><time>2024-03-23T09:09:26.000Z</time><ele>942.4</ele></trkpt><trkpt lat="45.827961" lon="9.436635"><time>2024-03-23T09:09:27.000Z</time><ele>942.4</ele></trkpt><trkpt lat="45.827963" lon="9.43665"><time>2024-03-23T09:09:28.000Z</time><ele>942.6</ele></trkpt><trkpt lat="45.827967" lon="9.436661"><time>2024-03-23T09:09:29.000Z</time><ele>942.8</ele></trkpt><trkpt lat="45.82797" lon="9.436668"><time>2024-03-23T09:09:30.000Z</time><ele>942.8</ele></trkpt><trkpt lat="45.827971" lon="9.436675"><time>2024-03-23T09:09:31.000Z</time><ele>943.2</ele></trkpt><trkpt lat="45.827972" lon="9.436689"><time>2024-03-23T09:09:32.000Z</time><ele>943.2</ele></trkpt><trkpt lat="45.827975" lon="9.4367"><time>2024-03-23T09:09:33.000Z</time><ele>943.4</ele></trkpt><trkpt lat="45.827979" lon="9.43671"><time>2024-03-23T09:09:34.000Z</time><ele>943.4</ele></trkpt><trkpt lat="45.827981" lon="9.436718"><time>2024-03-23T09:09:35.000Z</time><ele>943.6</ele></trkpt><trkpt lat="45.827991" lon="9.436729"><time>2024-03-23T09:09:36.000Z</time><ele>943.8</ele></trkpt><trkpt lat="45.827998" lon="9.436743"><time>2024-03-23T09:09:37.000Z</time><ele>944</ele></trkpt><trkpt lat="45.828003" lon="9.436752"><time>2024-03-23T09:09:38.000Z</time><ele>944.2</ele></trkpt><trkpt lat="45.828009" lon="9.436757"><time>2024-03-23T09:09:39.000Z</time><ele>944.4</ele></trkpt><trkpt lat="45.828014" lon="9.436764"><time>2024-03-23T09:09:40.000Z</time><ele>944.4</ele></trkpt><trkpt lat="45.828018" lon="9.436767"><time>2024-03-23T09:09:41.000Z</time><ele>944.8</ele></trkpt><trkpt lat="45.828022" lon="9.436768"><time>2024-03-23T09:09:42.000Z</time><ele>945</ele></trkpt><trkpt lat="45.828026" lon="9.436771"><time>2024-03-23T09:09:43.000Z</time><ele>945.2</ele></trkpt><trkpt lat="45.828029" lon="9.436773"><time>2024-03-23T09:09:44.000Z</time><ele>945.2</ele></trkpt><trkpt lat="45.828033" lon="9.436781"><time>2024-03-23T09:09:45.000Z</time><ele>945.4</ele></trkpt><trkpt lat="45.828037" lon="9.436789"><time>2024-03-23T09:09:46.000Z</time><ele>945.4</ele></trkpt><trkpt lat="45.82804" lon="9.436797"><time>2024-03-23T09:09:47.000Z</time><ele>945.6</ele></trkpt><trkpt lat="45.828042" lon="9.436804"><time>2024-03-23T09:09:48.000Z</time><ele>945.8</ele></trkpt><trkpt lat="45.828046" lon="9.43681"><time>2024-03-23T09:09:49.000Z</time><ele>945.8</ele></trkpt><trkpt lat="45.828051" lon="9.436816"><time>2024-03-23T09:09:50.000Z</time><ele>946</ele></trkpt><trkpt lat="45.828055" lon="9.436823"><time>2024-03-23T09:09:51.000Z</time><ele>946</ele></trkpt><trkpt lat="45.828059" lon="9.43683"><time>2024-03-23T09:09:52.000Z</time><ele>946.2</ele></trkpt><trkpt lat="45.828057" lon="9.436846"><time>2024-03-23T09:09:53.000Z</time><ele>946.2</ele></trkpt><trkpt lat="45.82806" lon="9.436861"><time>2024-03-23T09:09:54.000Z</time><ele>946.4</ele></trkpt><trkpt lat="45.828059" lon="9.436874"><time>2024-03-23T09:09:55.000Z</time><ele>946.6</ele></trkpt><trkpt lat="45.828062" lon="9.436879"><time>2024-03-23T09:09:56.000Z</time><ele>946.8</ele></trkpt><trkpt lat="45.828064" lon="9.436896"><time>2024-03-23T09:09:57.000Z</time><ele>947</ele></trkpt><trkpt lat="45.828068" lon="9.436901"><time>2024-03-23T09:09:58.000Z</time><ele>947.2</ele></trkpt><trkpt lat="45.828074" lon="9.436905"><time>2024-03-23T09:09:59.000Z</time><ele>947.4</ele></trkpt><trkpt lat="45.828079" lon="9.436909"><time>2024-03-23T09:10:00.000Z</time><ele>947.6</ele></trkpt><trkpt lat="45.828084" lon="9.436915"><time>2024-03-23T09:10:01.000Z</time><ele>947.6</ele></trkpt><trkpt lat="45.828085" lon="9.436921"><time>2024-03-23T09:10:02.000Z</time><ele>947.8</ele></trkpt><trkpt lat="45.828088" lon="9.436928"><time>2024-03-23T09:10:03.000Z</time><ele>948</ele></trkpt><trkpt lat="45.828092" lon="9.436933"><time>2024-03-23T09:10:04.000Z</time><ele>948.2</ele></trkpt><trkpt lat="45.828097" lon="9.436941"><time>2024-03-23T09:10:05.000Z</time><ele>948.4</ele></trkpt><trkpt lat="45.828102" lon="9.436949"><time>2024-03-23T09:10:06.000Z</time><ele>948.4</ele></trkpt><trkpt lat="45.828107" lon="9.436963"><time>2024-03-23T09:10:07.000Z</time><ele>948.6</ele></trkpt><trkpt lat="45.828109" lon="9.436976"><time>2024-03-23T09:10:08.000Z</time><ele>948.8</ele></trkpt><trkpt lat="45.828113" lon="9.436985"><time>2024-03-23T09:10:09.000Z</time><ele>949</ele></trkpt><trkpt lat="45.828116" lon="9.436987"><time>2024-03-23T09:10:10.000Z</time><ele>949</ele></trkpt><trkpt lat="45.828117" lon="9.436987"><time>2024-03-23T09:10:11.000Z</time><ele>949.2</ele></trkpt><trkpt lat="45.828118" lon="9.436994"><time>2024-03-23T09:10:12.000Z</time><ele>949.6</ele></trkpt><trkpt lat="45.82812" lon="9.437003"><time>2024-03-23T09:10:13.000Z</time><ele>949.6</ele></trkpt><trkpt lat="45.82812" lon="9.437015"><time>2024-03-23T09:10:14.000Z</time><ele>949.8</ele></trkpt><trkpt lat="45.828119" lon="9.437027"><time>2024-03-23T09:10:15.000Z</time><ele>950</ele></trkpt><trkpt lat="45.828118" lon="9.437034"><time>2024-03-23T09:10:16.000Z</time><ele>950.2</ele></trkpt><trkpt lat="45.828119" lon="9.437037"><time>2024-03-23T09:10:17.000Z</time><ele>950.2</ele></trkpt><trkpt lat="45.828123" lon="9.437041"><time>2024-03-23T09:10:18.000Z</time><ele>950.4</ele></trkpt><trkpt lat="45.828131" lon="9.437042"><time>2024-03-23T09:10:19.000Z</time><ele>950.6</ele></trkpt><trkpt lat="45.828136" lon="9.437045"><time>2024-03-23T09:10:20.000Z</time><ele>950.6</ele></trkpt><trkpt lat="45.828138" lon="9.437046"><time>2024-03-23T09:10:21.000Z</time><ele>950.8</ele></trkpt><trkpt lat="45.828137" lon="9.437044"><time>2024-03-23T09:10:22.000Z</time><ele>951</ele></trkpt><trkpt lat="45.828136" lon="9.437042"><time>2024-03-23T09:10:23.000Z</time><ele>951.2</ele></trkpt><trkpt lat="45.828136" lon="9.437044"><time>2024-03-23T09:10:24.000Z</time><ele>951.2</ele></trkpt><trkpt lat="45.828135" lon="9.437049"><time>2024-03-23T09:10:25.000Z</time><ele>951.4</ele></trkpt><trkpt lat="45.828135" lon="9.437052"><time>2024-03-23T09:10:26.000Z</time><ele>951.4</ele></trkpt><trkpt lat="45.828136" lon="9.437051"><time>2024-03-23T09:10:27.000Z</time><ele>951.4</ele></trkpt><trkpt lat="45.828137" lon="9.437052"><time>2024-03-23T09:10:28.000Z</time><ele>951.4</ele></trkpt><trkpt lat="45.828137" lon="9.437054"><time>2024-03-23T09:10:29.000Z</time><ele>951.4</ele></trkpt><trkpt lat="45.828137" lon="9.437057"><time>2024-03-23T09:10:30.000Z</time><ele>951.4</ele></trkpt><trkpt lat="45.828137" lon="9.437059"><time>2024-03-23T09:10:31.000Z</time><ele>951.4</ele></trkpt><trkpt lat="45.828138" lon="9.437059"><time>2024-03-23T09:10:32.000Z</time><ele>951.6</ele></trkpt><trkpt lat="45.828139" lon="9.437058"><time>2024-03-23T09:10:33.000Z</time><ele>951.8</ele></trkpt><trkpt lat="45.828139" lon="9.437059"><time>2024-03-23T09:10:34.000Z</time><ele>951.8</ele></trkpt><trkpt lat="45.82814" lon="9.437059"><time>2024-03-23T09:10:35.000Z</time><ele>952</ele></trkpt><trkpt lat="45.828142" lon="9.437057"><time>2024-03-23T09:10:36.000Z</time><ele>952</ele></trkpt><trkpt lat="45.828143" lon="9.437057"><time>2024-03-23T09:10:37.000Z</time><ele>952</ele></trkpt><trkpt lat="45.828144" lon="9.437055"><time>2024-03-23T09:10:38.000Z</time><ele>952</ele></trkpt><trkpt lat="45.828143" lon="9.437055"><time>2024-03-23T09:10:39.000Z</time><ele>952</ele></trkpt><trkpt lat="45.828141" lon="9.437056"><time>2024-03-23T09:10:40.000Z</time><ele>952</ele></trkpt><trkpt lat="45.82814" lon="9.437056"><time>2024-03-23T09:10:41.000Z</time><ele>951.8</ele></trkpt><trkpt lat="45.82814" lon="9.437056"><time>2024-03-23T09:10:42.000Z</time><ele>951.8</ele></trkpt><trkpt lat="45.82814" lon="9.437056"><time>2024-03-23T09:10:43.000Z</time><ele>951.8</ele></trkpt><trkpt lat="45.82814" lon="9.437056"><time>2024-03-23T09:10:44.000Z</time><ele>952</ele></trkpt><trkpt lat="45.82814" lon="9.437056"><time>2024-03-23T09:10:45.000Z</time><ele>952</ele></trkpt><trkpt lat="45.82814" lon="9.437056"><time>2024-03-23T09:10:46.000Z</time><ele>952</ele></trkpt><trkpt lat="45.82814" lon="9.437056"><time>2024-03-23T09:10:47.000Z</time><ele>952</ele></trkpt><trkpt lat="45.82814" lon="9.437056"><time>2024-03-23T09:10:48.000Z</time><ele>952.2</ele></trkpt><trkpt lat="45.82814" lon="9.437056"><time>2024-03-23T09:10:49.000Z</time><ele>952.6</ele></trkpt><trkpt lat="45.82814" lon="9.437056"><time>2024-03-23T09:10:50.000Z</time><ele>953</ele></trkpt><trkpt lat="45.82814" lon="9.437056"><time>2024-03-23T09:10:51.000Z</time><ele>953.2</ele></trkpt><trkpt lat="45.828141" lon="9.437056"><time>2024-03-23T09:10:52.000Z</time><ele>953.4</ele></trkpt><trkpt lat="45.828145" lon="9.437052"><time>2024-03-23T09:10:53.000Z</time><ele>953.4</ele></trkpt><trkpt lat="45.82815" lon="9.437042"><time>2024-03-23T09:10:54.000Z</time><ele>953.6</ele></trkpt><trkpt lat="45.828156" lon="9.437036"><time>2024-03-23T09:10:55.000Z</time><ele>953.8</ele></trkpt><trkpt lat="45.82816" lon="9.437029"><time>2024-03-23T09:10:56.000Z</time><ele>953.8</ele></trkpt><trkpt lat="45.828163" lon="9.437022"><time>2024-03-23T09:10:57.000Z</time><ele>954</ele></trkpt><trkpt lat="45.828168" lon="9.437014"><time>2024-03-23T09:10:58.000Z</time><ele>954.2</ele></trkpt><trkpt lat="45.828175" lon="9.437007"><time>2024-03-23T09:10:59.000Z</time><ele>954.4</ele></trkpt><trkpt lat="45.828178" lon="9.436994"><time>2024-03-23T09:11:00.000Z</time><ele>954.4</ele></trkpt><trkpt lat="45.828185" lon="9.436987"><time>2024-03-23T09:11:01.000Z</time><ele>954.6</ele></trkpt><trkpt lat="45.828189" lon="9.436986"><time>2024-03-23T09:11:02.000Z</time><ele>954.8</ele></trkpt><trkpt lat="45.828193" lon="9.436984"><time>2024-03-23T09:11:03.000Z</time><ele>955</ele></trkpt><trkpt lat="45.828194" lon="9.436983"><time>2024-03-23T09:11:04.000Z</time><ele>955.2</ele></trkpt><trkpt lat="45.828197" lon="9.436983"><time>2024-03-23T09:11:05.000Z</time><ele>955.4</ele></trkpt><trkpt lat="45.8282" lon="9.436983"><time>2024-03-23T09:11:06.000Z</time><ele>955.6</ele></trkpt><trkpt lat="45.828202" lon="9.436985"><time>2024-03-23T09:11:07.000Z</time><ele>955.8</ele></trkpt><trkpt lat="45.828205" lon="9.436984"><time>2024-03-23T09:11:08.000Z</time><ele>956.2</ele></trkpt><trkpt lat="45.828208" lon="9.436986"><time>2024-03-23T09:11:09.000Z</time><ele>956.4</ele></trkpt><trkpt lat="45.828211" lon="9.436985"><time>2024-03-23T09:11:10.000Z</time><ele>956.6</ele></trkpt><trkpt lat="45.828211" lon="9.436986"><time>2024-03-23T09:11:11.000Z</time><ele>956.6</ele></trkpt><trkpt lat="45.828206" lon="9.436986"><time>2024-03-23T09:11:12.000Z</time><ele>957</ele></trkpt><trkpt lat="45.828205" lon="9.436986"><time>2024-03-23T09:11:13.000Z</time><ele>957</ele></trkpt><trkpt lat="45.828207" lon="9.436985"><time>2024-03-23T09:11:14.000Z</time><ele>957.2</ele></trkpt><trkpt lat="45.828209" lon="9.436986"><time>2024-03-23T09:11:15.000Z</time><ele>957.4</ele></trkpt><trkpt lat="45.828211" lon="9.436989"><time>2024-03-23T09:11:16.000Z</time><ele>957.4</ele></trkpt><trkpt lat="45.828212" lon="9.436991"><time>2024-03-23T09:11:17.000Z</time><ele>957.6</ele></trkpt><trkpt lat="45.828213" lon="9.436992"><time>2024-03-23T09:11:18.000Z</time><ele>957.8</ele></trkpt><trkpt lat="45.828212" lon="9.436992"><time>2024-03-23T09:11:19.000Z</time><ele>958</ele></trkpt><trkpt lat="45.828214" lon="9.436993"><time>2024-03-23T09:11:20.000Z</time><ele>958.2</ele></trkpt><trkpt lat="45.82822" lon="9.436982"><time>2024-03-23T09:11:21.000Z</time><ele>958.4</ele></trkpt><trkpt lat="45.828222" lon="9.436971"><time>2024-03-23T09:11:22.000Z</time><ele>958.6</ele></trkpt><trkpt lat="45.828224" lon="9.436959"><time>2024-03-23T09:11:23.000Z</time><ele>958.6</ele></trkpt><trkpt lat="45.828226" lon="9.436956"><time>2024-03-23T09:11:24.000Z</time><ele>959</ele></trkpt><trkpt lat="45.828226" lon="9.436949"><time>2024-03-23T09:11:25.000Z</time><ele>959.4</ele></trkpt><trkpt lat="45.828228" lon="9.436946"><time>2024-03-23T09:11:26.000Z</time><ele>959.6</ele></trkpt><trkpt lat="45.82823" lon="9.436945"><time>2024-03-23T09:11:27.000Z</time><ele>959.6</ele></trkpt><trkpt lat="45.828235" lon="9.436939"><time>2024-03-23T09:11:28.000Z</time><ele>959.8</ele></trkpt><trkpt lat="45.828242" lon="9.436934"><time>2024-03-23T09:11:29.000Z</time><ele>959.8</ele></trkpt><trkpt lat="45.828245" lon="9.436931"><time>2024-03-23T09:11:30.000Z</time><ele>960</ele></trkpt><trkpt lat="45.828245" lon="9.436928"><time>2024-03-23T09:11:31.000Z</time><ele>960</ele></trkpt><trkpt lat="45.828252" lon="9.436924"><time>2024-03-23T09:11:32.000Z</time><ele>960.2</ele></trkpt><trkpt lat="45.828256" lon="9.436921"><time>2024-03-23T09:11:33.000Z</time><ele>960.2</ele></trkpt><trkpt lat="45.828256" lon="9.436916"><time>2024-03-23T09:11:34.000Z</time><ele>960.4</ele></trkpt><trkpt lat="45.828256" lon="9.436913"><time>2024-03-23T09:11:35.000Z</time><ele>960.6</ele></trkpt><trkpt lat="45.828257" lon="9.436909"><time>2024-03-23T09:11:36.000Z</time><ele>960.8</ele></trkpt><trkpt lat="45.828257" lon="9.436904"><time>2024-03-23T09:11:37.000Z</time><ele>960.8</ele></trkpt><trkpt lat="45.828256" lon="9.436901"><time>2024-03-23T09:11:38.000Z</time><ele>961</ele></trkpt><trkpt lat="45.828259" lon="9.436895"><time>2024-03-23T09:11:39.000Z</time><ele>961.2</ele></trkpt><trkpt lat="45.82826" lon="9.436891"><time>2024-03-23T09:11:40.000Z</time><ele>961.4</ele></trkpt><trkpt lat="45.828263" lon="9.436886"><time>2024-03-23T09:11:41.000Z</time><ele>961.6</ele></trkpt><trkpt lat="45.828264" lon="9.436885"><time>2024-03-23T09:11:42.000Z</time><ele>961.8</ele></trkpt><trkpt lat="45.828268" lon="9.436881"><time>2024-03-23T09:11:43.000Z</time><ele>962</ele></trkpt><trkpt lat="45.828271" lon="9.436882"><time>2024-03-23T09:11:44.000Z</time><ele>962.2</ele></trkpt><trkpt lat="45.828275" lon="9.436886"><time>2024-03-23T09:11:45.000Z</time><ele>962.4</ele></trkpt><trkpt lat="45.828279" lon="9.436889"><time>2024-03-23T09:11:46.000Z</time><ele>962.4</ele></trkpt><trkpt lat="45.828278" lon="9.436886"><time>2024-03-23T09:11:47.000Z</time><ele>962.4</ele></trkpt><trkpt lat="45.828279" lon="9.436885"><time>2024-03-23T09:11:48.000Z</time><ele>962.6</ele></trkpt><trkpt lat="45.828278" lon="9.436885"><time>2024-03-23T09:11:49.000Z</time><ele>962.8</ele></trkpt><trkpt lat="45.828279" lon="9.436885"><time>2024-03-23T09:11:50.000Z</time><ele>963</ele></trkpt><trkpt lat="45.828282" lon="9.436884"><time>2024-03-23T09:11:51.000Z</time><ele>963.2</ele></trkpt><trkpt lat="45.828284" lon="9.436879"><time>2024-03-23T09:11:52.000Z</time><ele>963.2</ele></trkpt><trkpt lat="45.828287" lon="9.436874"><time>2024-03-23T09:11:53.000Z</time><ele>963.2</ele></trkpt><trkpt lat="45.828286" lon="9.436871"><time>2024-03-23T09:11:54.000Z</time><ele>963.4</ele></trkpt><trkpt lat="45.828286" lon="9.436867"><time>2024-03-23T09:11:55.000Z</time><ele>963.8</ele></trkpt><trkpt lat="45.828283" lon="9.436869"><time>2024-03-23T09:11:56.000Z</time><ele>964</ele></trkpt><trkpt lat="45.828286" lon="9.436869"><time>2024-03-23T09:11:57.000Z</time><ele>964.2</ele></trkpt><trkpt lat="45.828287" lon="9.436866"><time>2024-03-23T09:11:58.000Z</time><ele>964.2</ele></trkpt><trkpt lat="45.828289" lon="9.436864"><time>2024-03-23T09:11:59.000Z</time><ele>964.4</ele></trkpt><trkpt lat="45.828291" lon="9.436859"><time>2024-03-23T09:12:00.000Z</time><ele>964.6</ele></trkpt><trkpt lat="45.828292" lon="9.436857"><time>2024-03-23T09:12:01.000Z</time><ele>965</ele></trkpt><trkpt lat="45.828293" lon="9.436852"><time>2024-03-23T09:12:02.000Z</time><ele>965.2</ele></trkpt><trkpt lat="45.828294" lon="9.436843"><time>2024-03-23T09:12:03.000Z</time><ele>965.4</ele></trkpt><trkpt lat="45.828293" lon="9.436837"><time>2024-03-23T09:12:04.000Z</time><ele>965.4</ele></trkpt><trkpt lat="45.828294" lon="9.436835"><time>2024-03-23T09:12:05.000Z</time><ele>965.6</ele></trkpt><trkpt lat="45.828293" lon="9.436835"><time>2024-03-23T09:12:06.000Z</time><ele>965.6</ele></trkpt><trkpt lat="45.828294" lon="9.436832"><time>2024-03-23T09:12:07.000Z</time><ele>965.6</ele></trkpt><trkpt lat="45.828294" lon="9.436833"><time>2024-03-23T09:12:08.000Z</time><ele>965.6</ele></trkpt><trkpt lat="45.828295" lon="9.436833"><time>2024-03-23T09:12:09.000Z</time><ele>965.8</ele></trkpt><trkpt lat="45.828297" lon="9.436834"><time>2024-03-23T09:12:10.000Z</time><ele>966</ele></trkpt><trkpt lat="45.8283" lon="9.436829"><time>2024-03-23T09:12:11.000Z</time><ele>966.2</ele></trkpt><trkpt lat="45.828305" lon="9.436828"><time>2024-03-23T09:12:12.000Z</time><ele>966.4</ele></trkpt><trkpt lat="45.828308" lon="9.436826"><time>2024-03-23T09:12:13.000Z</time><ele>966.4</ele></trkpt><trkpt lat="45.828308" lon="9.436826"><time>2024-03-23T09:12:14.000Z</time><ele>966.6</ele></trkpt><trkpt lat="45.828308" lon="9.436826"><time>2024-03-23T09:12:15.000Z</time><ele>967</ele></trkpt><trkpt lat="45.828308" lon="9.436826"><time>2024-03-23T09:12:16.000Z</time><ele>967.2</ele></trkpt><trkpt lat="45.828308" lon="9.436826"><time>2024-03-23T09:12:17.000Z</time><ele>967.2</ele></trkpt><trkpt lat="45.828308" lon="9.436826"><time>2024-03-23T09:12:18.000Z</time><ele>967.4</ele></trkpt><trkpt lat="45.828308" lon="9.436826"><time>2024-03-23T09:12:19.000Z</time><ele>967.4</ele></trkpt><trkpt lat="45.828308" lon="9.436826"><time>2024-03-23T09:12:20.000Z</time><ele>967.6</ele></trkpt><trkpt lat="45.828308" lon="9.436826"><time>2024-03-23T09:12:21.000Z</time><ele>967.8</ele></trkpt><trkpt lat="45.828308" lon="9.436826"><time>2024-03-23T09:12:22.000Z</time><ele>967.8</ele></trkpt><trkpt lat="45.828308" lon="9.436826"><time>2024-03-23T09:12:23.000Z</time><ele>968</ele></trkpt><trkpt lat="45.828308" lon="9.436826"><time>2024-03-23T09:12:24.000Z</time><ele>968.2</ele></trkpt><trkpt lat="45.828308" lon="9.436826"><time>2024-03-23T09:12:25.000Z</time><ele>968.4</ele></trkpt><trkpt lat="45.828308" lon="9.436826"><time>2024-03-23T09:12:26.000Z</time><ele>968.4</ele></trkpt><trkpt lat="45.828308" lon="9.436826"><time>2024-03-23T09:12:27.000Z</time><ele>968.6</ele></trkpt><trkpt lat="45.828308" lon="9.436826"><time>2024-03-23T09:12:28.000Z</time><ele>968.8</ele></trkpt><trkpt lat="45.828308" lon="9.436826"><time>2024-03-23T09:12:29.000Z</time><ele>968.8</ele></trkpt><trkpt lat="45.82831" lon="9.436825"><time>2024-03-23T09:12:30.000Z</time><ele>969</ele></trkpt><trkpt lat="45.828312" lon="9.436825"><time>2024-03-23T09:12:31.000Z</time><ele>969.2</ele></trkpt><trkpt lat="45.828314" lon="9.436825"><time>2024-03-23T09:12:32.000Z</time><ele>969.4</ele></trkpt><trkpt lat="45.828316" lon="9.436824"><time>2024-03-23T09:12:33.000Z</time><ele>969.6</ele></trkpt><trkpt lat="45.828323" lon="9.436823"><time>2024-03-23T09:12:34.000Z</time><ele>970</ele></trkpt><trkpt lat="45.828329" lon="9.436822"><time>2024-03-23T09:12:35.000Z</time><ele>970.2</ele></trkpt><trkpt lat="45.828338" lon="9.436814"><time>2024-03-23T09:12:36.000Z</time><ele>970.4</ele></trkpt><trkpt lat="45.828348" lon="9.43681"><time>2024-03-23T09:12:37.000Z</time><ele>970.6</ele></trkpt><trkpt lat="45.828357" lon="9.436807"><time>2024-03-23T09:12:38.000Z</time><ele>970.6</ele></trkpt><trkpt lat="45.828366" lon="9.436805"><time>2024-03-23T09:12:39.000Z</time><ele>970.8</ele></trkpt><trkpt lat="45.828372" lon="9.436805"><time>2024-03-23T09:12:40.000Z</time><ele>971</ele></trkpt><trkpt lat="45.828383" lon="9.436806"><time>2024-03-23T09:12:41.000Z</time><ele>971</ele></trkpt><trkpt lat="45.828393" lon="9.4368"><time>2024-03-23T09:12:42.000Z</time><ele>971</ele></trkpt><trkpt lat="45.828402" lon="9.436793"><time>2024-03-23T09:12:43.000Z</time><ele>971.2</ele></trkpt><trkpt lat="45.828409" lon="9.436784"><time>2024-03-23T09:12:44.000Z</time><ele>971.2</ele></trkpt><trkpt lat="45.82841" lon="9.43678"><time>2024-03-23T09:12:45.000Z</time><ele>971.2</ele></trkpt><trkpt lat="45.828411" lon="9.436777"><time>2024-03-23T09:12:46.000Z</time><ele>971.4</ele></trkpt><trkpt lat="45.828413" lon="9.436773"><time>2024-03-23T09:12:47.000Z</time><ele>971.6</ele></trkpt><trkpt lat="45.828412" lon="9.436772"><time>2024-03-23T09:12:48.000Z</time><ele>971.8</ele></trkpt><trkpt lat="45.828418" lon="9.436766"><time>2024-03-23T09:12:49.000Z</time><ele>972</ele></trkpt><trkpt lat="45.828421" lon="9.436761"><time>2024-03-23T09:12:50.000Z</time><ele>972.2</ele></trkpt><trkpt lat="45.828423" lon="9.436756"><time>2024-03-23T09:12:51.000Z</time><ele>972.4</ele></trkpt><trkpt lat="45.828425" lon="9.436752"><time>2024-03-23T09:12:52.000Z</time><ele>972.6</ele></trkpt><trkpt lat="45.82843" lon="9.436749"><time>2024-03-23T09:12:53.000Z</time><ele>972.6</ele></trkpt><trkpt lat="45.828437" lon="9.436749"><time>2024-03-23T09:12:54.000Z</time><ele>972.6</ele></trkpt><trkpt lat="45.828444" lon="9.436747"><time>2024-03-23T09:12:55.000Z</time><ele>972.8</ele></trkpt><trkpt lat="45.828446" lon="9.436744"><time>2024-03-23T09:12:56.000Z</time><ele>972.8</ele></trkpt><trkpt lat="45.828448" lon="9.436734"><time>2024-03-23T09:12:57.000Z</time><ele>973</ele></trkpt><trkpt lat="45.828445" lon="9.436726"><time>2024-03-23T09:12:58.000Z</time><ele>973.4</ele></trkpt><trkpt lat="45.828443" lon="9.436721"><time>2024-03-23T09:12:59.000Z</time><ele>973.4</ele></trkpt><trkpt lat="45.828443" lon="9.436715"><time>2024-03-23T09:13:00.000Z</time><ele>973.8</ele></trkpt><trkpt lat="45.828447" lon="9.436708"><time>2024-03-23T09:13:01.000Z</time><ele>974</ele></trkpt><trkpt lat="45.82845" lon="9.436704"><time>2024-03-23T09:13:02.000Z</time><ele>974.2</ele></trkpt><trkpt lat="45.828454" lon="9.436702"><time>2024-03-23T09:13:03.000Z</time><ele>974.2</ele></trkpt><trkpt lat="45.828461" lon="9.436699"><time>2024-03-23T09:13:04.000Z</time><ele>974.2</ele></trkpt><trkpt lat="45.828464" lon="9.436692"><time>2024-03-23T09:13:05.000Z</time><ele>974.2</ele></trkpt><trkpt lat="45.828468" lon="9.436689"><time>2024-03-23T09:13:06.000Z</time><ele>974.4</ele></trkpt><trkpt lat="45.828471" lon="9.436689"><time>2024-03-23T09:13:07.000Z</time><ele>974.6</ele></trkpt><trkpt lat="45.828475" lon="9.43669"><time>2024-03-23T09:13:08.000Z</time><ele>974.6</ele></trkpt><trkpt lat="45.828479" lon="9.436689"><time>2024-03-23T09:13:09.000Z</time><ele>974.8</ele></trkpt><trkpt lat="45.828483" lon="9.436683"><time>2024-03-23T09:13:10.000Z</time><ele>975</ele></trkpt><trkpt lat="45.828485" lon="9.43668"><time>2024-03-23T09:13:11.000Z</time><ele>975</ele></trkpt><trkpt lat="45.828486" lon="9.436677"><time>2024-03-23T09:13:12.000Z</time><ele>975.2</ele></trkpt><trkpt lat="45.828487" lon="9.436675"><time>2024-03-23T09:13:13.000Z</time><ele>975.6</ele></trkpt><trkpt lat="45.828487" lon="9.436674"><time>2024-03-23T09:13:14.000Z</time><ele>975.8</ele></trkpt><trkpt lat="45.82849" lon="9.436673"><time>2024-03-23T09:13:15.000Z</time><ele>976</ele></trkpt><trkpt lat="45.828491" lon="9.43667"><time>2024-03-23T09:13:16.000Z</time><ele>976</ele></trkpt><trkpt lat="45.828489" lon="9.43667"><time>2024-03-23T09:13:17.000Z</time><ele>976.2</ele></trkpt><trkpt lat="45.828489" lon="9.436669"><time>2024-03-23T09:13:18.000Z</time><ele>976.4</ele></trkpt><trkpt lat="45.828489" lon="9.436669"><time>2024-03-23T09:13:19.000Z</time><ele>976.4</ele></trkpt><trkpt lat="45.828489" lon="9.436669"><time>2024-03-23T09:13:20.000Z</time><ele>976.4</ele></trkpt><trkpt lat="45.828489" lon="9.436669"><time>2024-03-23T09:13:21.000Z</time><ele>976.4</ele></trkpt><trkpt lat="45.828489" lon="9.436669"><time>2024-03-23T09:13:22.000Z</time><ele>976.8</ele></trkpt><trkpt lat="45.828489" lon="9.436669"><time>2024-03-23T09:13:23.000Z</time><ele>976.8</ele></trkpt><trkpt lat="45.828489" lon="9.436669"><time>2024-03-23T09:13:24.000Z</time><ele>977</ele></trkpt><trkpt lat="45.828489" lon="9.436669"><time>2024-03-23T09:13:25.000Z</time><ele>977.2</ele></trkpt><trkpt lat="45.828489" lon="9.436669"><time>2024-03-23T09:13:26.000Z</time><ele>977.4</ele></trkpt><trkpt lat="45.828489" lon="9.436669"><time>2024-03-23T09:13:27.000Z</time><ele>977.6</ele></trkpt><trkpt lat="45.828489" lon="9.436669"><time>2024-03-23T09:13:28.000Z</time><ele>978</ele></trkpt><trkpt lat="45.828489" lon="9.436669"><time>2024-03-23T09:13:29.000Z</time><ele>978.2</ele></trkpt><trkpt lat="45.828489" lon="9.436669"><time>2024-03-23T09:13:30.000Z</time><ele>978.2</ele></trkpt><trkpt lat="45.828489" lon="9.436669"><time>2024-03-23T09:13:31.000Z</time><ele>978.4</ele></trkpt><trkpt lat="45.828489" lon="9.436669"><time>2024-03-23T09:13:32.000Z</time><ele>978.4</ele></trkpt><trkpt lat="45.828489" lon="9.436669"><time>2024-03-23T09:13:33.000Z</time><ele>978.4</ele></trkpt><trkpt lat="45.828489" lon="9.436669"><time>2024-03-23T09:13:34.000Z</time><ele>978.6</ele></trkpt><trkpt lat="45.828489" lon="9.436669"><time>2024-03-23T09:13:35.000Z</time><ele>978.8</ele></trkpt><trkpt lat="45.828489" lon="9.436669"><time>2024-03-23T09:13:36.000Z</time><ele>978.8</ele></trkpt><trkpt lat="45.82849" lon="9.436669"><time>2024-03-23T09:13:37.000Z</time><ele>979</ele></trkpt><trkpt lat="45.82849" lon="9.436669"><time>2024-03-23T09:13:38.000Z</time><ele>979</ele></trkpt><trkpt lat="45.82849" lon="9.436666"><time>2024-03-23T09:13:39.000Z</time><ele>979</ele></trkpt><trkpt lat="45.828491" lon="9.436657"><time>2024-03-23T09:13:40.000Z</time><ele>979</ele></trkpt><trkpt lat="45.828491" lon="9.436653"><time>2024-03-23T09:13:41.000Z</time><ele>979.2</ele></trkpt><trkpt lat="45.828491" lon="9.436653"><time>2024-03-23T09:13:42.000Z</time><ele>979.6</ele></trkpt><trkpt lat="45.828491" lon="9.436652"><time>2024-03-23T09:13:43.000Z</time><ele>979.8</ele></trkpt><trkpt lat="45.828492" lon="9.436652"><time>2024-03-23T09:13:44.000Z</time><ele>980</ele></trkpt><trkpt lat="45.828495" lon="9.43665"><time>2024-03-23T09:13:45.000Z</time><ele>980.2</ele></trkpt><trkpt lat="45.828496" lon="9.436646"><time>2024-03-23T09:13:46.000Z</time><ele>980.4</ele></trkpt><trkpt lat="45.828497" lon="9.436642"><time>2024-03-23T09:13:47.000Z</time><ele>980.4</ele></trkpt><trkpt lat="45.828498" lon="9.436637"><time>2024-03-23T09:13:48.000Z</time><ele>980.6</ele></trkpt><trkpt lat="45.828498" lon="9.436635"><time>2024-03-23T09:13:49.000Z</time><ele>980.6</ele></trkpt><trkpt lat="45.828499" lon="9.436634"><time>2024-03-23T09:13:50.000Z</time><ele>980.6</ele></trkpt><trkpt lat="45.828499" lon="9.436632"><time>2024-03-23T09:13:51.000Z</time><ele>980.8</ele></trkpt><trkpt lat="45.828501" lon="9.43663"><time>2024-03-23T09:13:52.000Z</time><ele>980.8</ele></trkpt><trkpt lat="45.828502" lon="9.436622"><time>2024-03-23T09:13:53.000Z</time><ele>981</ele></trkpt><trkpt lat="45.828503" lon="9.436615"><time>2024-03-23T09:13:54.000Z</time><ele>981.2</ele></trkpt><trkpt lat="45.828503" lon="9.436606"><time>2024-03-23T09:13:55.000Z</time><ele>981.4</ele></trkpt><trkpt lat="45.828504" lon="9.436599"><time>2024-03-23T09:13:56.000Z</time><ele>981.4</ele></trkpt><trkpt lat="45.828505" lon="9.436592"><time>2024-03-23T09:13:57.000Z</time><ele>981.4</ele></trkpt><trkpt lat="45.828505" lon="9.436585"><time>2024-03-23T09:13:58.000Z</time><ele>981.8</ele></trkpt><trkpt lat="45.828505" lon="9.436581"><time>2024-03-23T09:13:59.000Z</time><ele>982</ele></trkpt><trkpt lat="45.828506" lon="9.436578"><time>2024-03-23T09:14:00.000Z</time><ele>982.2</ele></trkpt><trkpt lat="45.828506" lon="9.436578"><time>2024-03-23T09:14:01.000Z</time><ele>982.2</ele></trkpt><trkpt lat="45.828507" lon="9.436577"><time>2024-03-23T09:14:02.000Z</time><ele>982.4</ele></trkpt><trkpt lat="45.828507" lon="9.436576"><time>2024-03-23T09:14:03.000Z</time><ele>982.6</ele></trkpt><trkpt lat="45.828508" lon="9.436576"><time>2024-03-23T09:14:04.000Z</time><ele>982.8</ele></trkpt><trkpt lat="45.828511" lon="9.436576"><time>2024-03-23T09:14:05.000Z</time><ele>983</ele></trkpt><trkpt lat="45.828512" lon="9.436576"><time>2024-03-23T09:14:06.000Z</time><ele>983</ele></trkpt><trkpt lat="45.828513" lon="9.436576"><time>2024-03-23T09:14:07.000Z</time><ele>983</ele></trkpt><trkpt lat="45.828513" lon="9.436575"><time>2024-03-23T09:14:08.000Z</time><ele>983.2</ele></trkpt><trkpt lat="45.828514" lon="9.436574"><time>2024-03-23T09:14:09.000Z</time><ele>983.4</ele></trkpt><trkpt lat="45.828514" lon="9.436574"><time>2024-03-23T09:14:10.000Z</time><ele>983.6</ele></trkpt><trkpt lat="45.828515" lon="9.436572"><time>2024-03-23T09:14:11.000Z</time><ele>983.8</ele></trkpt><trkpt lat="45.828515" lon="9.43657"><time>2024-03-23T09:14:12.000Z</time><ele>984</ele></trkpt><trkpt lat="45.828515" lon="9.436569"><time>2024-03-23T09:14:13.000Z</time><ele>984</ele></trkpt><trkpt lat="45.828517" lon="9.436564"><time>2024-03-23T09:14:14.000Z</time><ele>984.2</ele></trkpt><trkpt lat="45.828518" lon="9.436557"><time>2024-03-23T09:14:15.000Z</time><ele>984.4</ele></trkpt><trkpt lat="45.828519" lon="9.436551"><time>2024-03-23T09:14:16.000Z</time><ele>984.4</ele></trkpt><trkpt lat="45.828519" lon="9.436549"><time>2024-03-23T09:14:17.000Z</time><ele>984.6</ele></trkpt><trkpt lat="45.82852" lon="9.436547"><time>2024-03-23T09:14:18.000Z</time><ele>984.8</ele></trkpt><trkpt lat="45.828522" lon="9.436546"><time>2024-03-23T09:14:19.000Z</time><ele>985</ele></trkpt><trkpt lat="45.828524" lon="9.436546"><time>2024-03-23T09:14:20.000Z</time><ele>985</ele></trkpt><trkpt lat="45.828527" lon="9.436546"><time>2024-03-23T09:14:21.000Z</time><ele>985</ele></trkpt><trkpt lat="45.828529" lon="9.436545"><time>2024-03-23T09:14:22.000Z</time><ele>985.2</ele></trkpt><trkpt lat="45.82853" lon="9.436544"><time>2024-03-23T09:14:23.000Z</time><ele>985.4</ele></trkpt><trkpt lat="45.828531" lon="9.436543"><time>2024-03-23T09:14:24.000Z</time><ele>985.4</ele></trkpt><trkpt lat="45.828533" lon="9.436541"><time>2024-03-23T09:14:25.000Z</time><ele>985.6</ele></trkpt><trkpt lat="45.828534" lon="9.43654"><time>2024-03-23T09:14:26.000Z</time><ele>985.6</ele></trkpt><trkpt lat="45.828538" lon="9.436531"><time>2024-03-23T09:14:27.000Z</time><ele>986</ele></trkpt><trkpt lat="45.828539" lon="9.436526"><time>2024-03-23T09:14:28.000Z</time><ele>986.2</ele></trkpt><trkpt lat="45.828541" lon="9.436524"><time>2024-03-23T09:14:29.000Z</time><ele>986.2</ele></trkpt><trkpt lat="45.828546" lon="9.436523"><time>2024-03-23T09:14:30.000Z</time><ele>986.4</ele></trkpt><trkpt lat="45.828548" lon="9.436521"><time>2024-03-23T09:14:31.000Z</time><ele>986.4</ele></trkpt><trkpt lat="45.828549" lon="9.436519"><time>2024-03-23T09:14:32.000Z</time><ele>986.6</ele></trkpt><trkpt lat="45.828553" lon="9.436516"><time>2024-03-23T09:14:33.000Z</time><ele>986.6</ele></trkpt><trkpt lat="45.828558" lon="9.436513"><time>2024-03-23T09:14:34.000Z</time><ele>986.8</ele></trkpt><trkpt lat="45.828565" lon="9.436511"><time>2024-03-23T09:14:35.000Z</time><ele>986.8</ele></trkpt><trkpt lat="45.828569" lon="9.43651"><time>2024-03-23T09:14:36.000Z</time><ele>986.8</ele></trkpt><trkpt lat="45.828573" lon="9.436509"><time>2024-03-23T09:14:37.000Z</time><ele>987</ele></trkpt><trkpt lat="45.828578" lon="9.436506"><time>2024-03-23T09:14:38.000Z</time><ele>987</ele></trkpt><trkpt lat="45.828581" lon="9.436503"><time>2024-03-23T09:14:39.000Z</time><ele>987</ele></trkpt><trkpt lat="45.828585" lon="9.4365"><time>2024-03-23T09:14:40.000Z</time><ele>987.2</ele></trkpt><trkpt lat="45.828588" lon="9.436494"><time>2024-03-23T09:14:41.000Z</time><ele>987.2</ele></trkpt><trkpt lat="45.828591" lon="9.43649"><time>2024-03-23T09:14:42.000Z</time><ele>987.2</ele></trkpt><trkpt lat="45.828596" lon="9.436487"><time>2024-03-23T09:14:43.000Z</time><ele>987.2</ele></trkpt><trkpt lat="45.828601" lon="9.436485"><time>2024-03-23T09:14:44.000Z</time><ele>987.2</ele></trkpt><trkpt lat="45.828607" lon="9.436482"><time>2024-03-23T09:14:45.000Z</time><ele>987.2</ele></trkpt><trkpt lat="45.828612" lon="9.436479"><time>2024-03-23T09:14:46.000Z</time><ele>987.2</ele></trkpt><trkpt lat="45.828616" lon="9.436476"><time>2024-03-23T09:14:47.000Z</time><ele>987.2</ele></trkpt><trkpt lat="45.828619" lon="9.436473"><time>2024-03-23T09:14:48.000Z</time><ele>987.2</ele></trkpt><trkpt lat="45.828622" lon="9.436472"><time>2024-03-23T09:14:49.000Z</time><ele>987.2</ele></trkpt><trkpt lat="45.828624" lon="9.436471"><time>2024-03-23T09:14:50.000Z</time><ele>987.2</ele></trkpt><trkpt lat="45.828625" lon="9.436471"><time>2024-03-23T09:14:51.000Z</time><ele>987.2</ele></trkpt><trkpt lat="45.828626" lon="9.43647"><time>2024-03-23T09:14:52.000Z</time><ele>987</ele></trkpt><trkpt lat="45.828626" lon="9.43647"><time>2024-03-23T09:14:53.000Z</time><ele>987</ele></trkpt><trkpt lat="45.828626" lon="9.43647"><time>2024-03-23T09:14:54.000Z</time><ele>987</ele></trkpt><trkpt lat="45.828627" lon="9.436469"><time>2024-03-23T09:14:55.000Z</time><ele>987</ele></trkpt><trkpt lat="45.828627" lon="9.436469"><time>2024-03-23T09:14:56.000Z</time><ele>987</ele></trkpt><trkpt lat="45.828627" lon="9.436469"><time>2024-03-23T09:14:57.000Z</time><ele>987</ele></trkpt><trkpt lat="45.828627" lon="9.436467"><time>2024-03-23T09:14:58.000Z</time><ele>987</ele></trkpt><trkpt lat="45.828627" lon="9.436466"><time>2024-03-23T09:14:59.000Z</time><ele>987</ele></trkpt><trkpt lat="45.828628" lon="9.436463"><time>2024-03-23T09:15:00.000Z</time><ele>987.2</ele></trkpt><trkpt lat="45.828628" lon="9.436462"><time>2024-03-23T09:15:01.000Z</time><ele>987.2</ele></trkpt><trkpt lat="45.828628" lon="9.436461"><time>2024-03-23T09:15:02.000Z</time><ele>987.4</ele></trkpt><trkpt lat="45.828628" lon="9.436461"><time>2024-03-23T09:15:03.000Z</time><ele>987.4</ele></trkpt><trkpt lat="45.828628" lon="9.43646"><time>2024-03-23T09:15:04.000Z</time><ele>987.6</ele></trkpt><trkpt lat="45.828628" lon="9.43646"><time>2024-03-23T09:15:05.000Z</time><ele>987.8</ele></trkpt><trkpt lat="45.828628" lon="9.436459"><time>2024-03-23T09:15:06.000Z</time><ele>988</ele></trkpt><trkpt lat="45.828628" lon="9.436458"><time>2024-03-23T09:15:07.000Z</time><ele>988.2</ele></trkpt><trkpt lat="45.828628" lon="9.436455"><time>2024-03-23T09:15:08.000Z</time><ele>988.4</ele></trkpt><trkpt lat="45.828628" lon="9.436452"><time>2024-03-23T09:15:09.000Z</time><ele>988.4</ele></trkpt><trkpt lat="45.828628" lon="9.436451"><time>2024-03-23T09:15:10.000Z</time><ele>988.4</ele></trkpt><trkpt lat="45.828628" lon="9.43645"><time>2024-03-23T09:15:11.000Z</time><ele>988.6</ele></trkpt><trkpt lat="45.828628" lon="9.43645"><time>2024-03-23T09:15:12.000Z</time><ele>988.6</ele></trkpt><trkpt lat="45.828628" lon="9.436448"><time>2024-03-23T09:15:13.000Z</time><ele>988.6</ele></trkpt><trkpt lat="45.828628" lon="9.436446"><time>2024-03-23T09:15:14.000Z</time><ele>988.8</ele></trkpt><trkpt lat="45.828629" lon="9.436444"><time>2024-03-23T09:15:15.000Z</time><ele>989</ele></trkpt><trkpt lat="45.828629" lon="9.436442"><time>2024-03-23T09:15:16.000Z</time><ele>989</ele></trkpt><trkpt lat="45.828629" lon="9.436442"><time>2024-03-23T09:15:17.000Z</time><ele>989.4</ele></trkpt><trkpt lat="45.82863" lon="9.436441"><time>2024-03-23T09:15:18.000Z</time><ele>989.6</ele></trkpt><trkpt lat="45.82863" lon="9.436441"><time>2024-03-23T09:15:19.000Z</time><ele>989.6</ele></trkpt><trkpt lat="45.828631" lon="9.436441"><time>2024-03-23T09:15:20.000Z</time><ele>989.8</ele></trkpt><trkpt lat="45.828631" lon="9.436441"><time>2024-03-23T09:15:21.000Z</time><ele>990</ele></trkpt><trkpt lat="45.828631" lon="9.436441"><time>2024-03-23T09:15:22.000Z</time><ele>990.2</ele></trkpt><trkpt lat="45.828634" lon="9.436441"><time>2024-03-23T09:15:23.000Z</time><ele>990.4</ele></trkpt><trkpt lat="45.828635" lon="9.436441"><time>2024-03-23T09:15:24.000Z</time><ele>990.6</ele></trkpt><trkpt lat="45.828638" lon="9.436441"><time>2024-03-23T09:15:25.000Z</time><ele>990.8</ele></trkpt><trkpt lat="45.82864" lon="9.436441"><time>2024-03-23T09:15:26.000Z</time><ele>991.4</ele></trkpt><trkpt lat="45.828643" lon="9.436441"><time>2024-03-23T09:15:27.000Z</time><ele>991.8</ele></trkpt><trkpt lat="45.828645" lon="9.436441"><time>2024-03-23T09:15:28.000Z</time><ele>992</ele></trkpt><trkpt lat="45.828646" lon="9.436441"><time>2024-03-23T09:15:29.000Z</time><ele>992</ele></trkpt><trkpt lat="45.828649" lon="9.436441"><time>2024-03-23T09:15:30.000Z</time><ele>992.2</ele></trkpt><trkpt lat="45.828652" lon="9.436442"><time>2024-03-23T09:15:31.000Z</time><ele>992.2</ele></trkpt><trkpt lat="45.828653" lon="9.436442"><time>2024-03-23T09:15:32.000Z</time><ele>992.2</ele></trkpt><trkpt lat="45.828655" lon="9.436443"><time>2024-03-23T09:15:33.000Z</time><ele>992.4</ele></trkpt><trkpt lat="45.828656" lon="9.436445"><time>2024-03-23T09:15:34.000Z</time><ele>992.4</ele></trkpt><trkpt lat="45.828656" lon="9.436448"><time>2024-03-23T09:15:35.000Z</time><ele>992.8</ele></trkpt><trkpt lat="45.828657" lon="9.436452"><time>2024-03-23T09:15:36.000Z</time><ele>993</ele></trkpt><trkpt lat="45.828658" lon="9.436455"><time>2024-03-23T09:15:37.000Z</time><ele>993</ele></trkpt><trkpt lat="45.828658" lon="9.436458"><time>2024-03-23T09:15:38.000Z</time><ele>993.2</ele></trkpt><trkpt lat="45.82866" lon="9.43646"><time>2024-03-23T09:15:39.000Z</time><ele>993.4</ele></trkpt><trkpt lat="45.828663" lon="9.436462"><time>2024-03-23T09:15:40.000Z</time><ele>993.8</ele></trkpt><trkpt lat="45.828665" lon="9.436464"><time>2024-03-23T09:15:41.000Z</time><ele>994</ele></trkpt><trkpt lat="45.828668" lon="9.436465"><time>2024-03-23T09:15:42.000Z</time><ele>994.2</ele></trkpt><trkpt lat="45.82867" lon="9.436466"><time>2024-03-23T09:15:43.000Z</time><ele>994.4</ele></trkpt><trkpt lat="45.828673" lon="9.436467"><time>2024-03-23T09:15:44.000Z</time><ele>994.4</ele></trkpt><trkpt lat="45.828676" lon="9.436467"><time>2024-03-23T09:15:45.000Z</time><ele>994.6</ele></trkpt><trkpt lat="45.828679" lon="9.436468"><time>2024-03-23T09:15:46.000Z</time><ele>994.6</ele></trkpt><trkpt lat="45.828682" lon="9.436469"><time>2024-03-23T09:15:47.000Z</time><ele>994.6</ele></trkpt><trkpt lat="45.828685" lon="9.436469"><time>2024-03-23T09:15:48.000Z</time><ele>994.8</ele></trkpt><trkpt lat="45.828688" lon="9.43647"><time>2024-03-23T09:15:49.000Z</time><ele>994.8</ele></trkpt><trkpt lat="45.82869" lon="9.43647"><time>2024-03-23T09:15:50.000Z</time><ele>995.2</ele></trkpt><trkpt lat="45.828693" lon="9.43647"><time>2024-03-23T09:15:51.000Z</time><ele>995.4</ele></trkpt><trkpt lat="45.828696" lon="9.43647"><time>2024-03-23T09:15:52.000Z</time><ele>995.6</ele></trkpt><trkpt lat="45.828698" lon="9.436471"><time>2024-03-23T09:15:53.000Z</time><ele>995.6</ele></trkpt><trkpt lat="45.828701" lon="9.436471"><time>2024-03-23T09:15:54.000Z</time><ele>995.8</ele></trkpt><trkpt lat="45.828703" lon="9.436472"><time>2024-03-23T09:15:55.000Z</time><ele>996</ele></trkpt><trkpt lat="45.828704" lon="9.436473"><time>2024-03-23T09:15:56.000Z</time><ele>996.4</ele></trkpt><trkpt lat="45.828706" lon="9.436475"><time>2024-03-23T09:15:57.000Z</time><ele>996.6</ele></trkpt><trkpt lat="45.828707" lon="9.436477"><time>2024-03-23T09:15:58.000Z</time><ele>996.6</ele></trkpt><trkpt lat="45.828708" lon="9.436479"><time>2024-03-23T09:15:59.000Z</time><ele>996.8</ele></trkpt><trkpt lat="45.828709" lon="9.436481"><time>2024-03-23T09:16:00.000Z</time><ele>997</ele></trkpt><trkpt lat="45.82871" lon="9.436483"><time>2024-03-23T09:16:01.000Z</time><ele>997</ele></trkpt><trkpt lat="45.828711" lon="9.436484"><time>2024-03-23T09:16:02.000Z</time><ele>997.2</ele></trkpt><trkpt lat="45.828712" lon="9.436485"><time>2024-03-23T09:16:03.000Z</time><ele>997.4</ele></trkpt><trkpt lat="45.828714" lon="9.436486"><time>2024-03-23T09:16:04.000Z</time><ele>997.6</ele></trkpt><trkpt lat="45.828716" lon="9.436486"><time>2024-03-23T09:16:05.000Z</time><ele>997.6</ele></trkpt><trkpt lat="45.828718" lon="9.436487"><time>2024-03-23T09:16:06.000Z</time><ele>997.8</ele></trkpt><trkpt lat="45.828721" lon="9.436487"><time>2024-03-23T09:16:07.000Z</time><ele>998</ele></trkpt><trkpt lat="45.828724" lon="9.436488"><time>2024-03-23T09:16:08.000Z</time><ele>998</ele></trkpt><trkpt lat="45.828727" lon="9.436488"><time>2024-03-23T09:16:09.000Z</time><ele>998.2</ele></trkpt><trkpt lat="45.828731" lon="9.436488"><time>2024-03-23T09:16:10.000Z</time><ele>998.4</ele></trkpt><trkpt lat="45.828733" lon="9.436488"><time>2024-03-23T09:16:11.000Z</time><ele>998.4</ele></trkpt><trkpt lat="45.828736" lon="9.436489"><time>2024-03-23T09:16:12.000Z</time><ele>998.4</ele></trkpt><trkpt lat="45.828739" lon="9.436489"><time>2024-03-23T09:16:13.000Z</time><ele>998.6</ele></trkpt><trkpt lat="45.828741" lon="9.436489"><time>2024-03-23T09:16:14.000Z</time><ele>998.6</ele></trkpt><trkpt lat="45.828744" lon="9.436489"><time>2024-03-23T09:16:15.000Z</time><ele>998.6</ele></trkpt><trkpt lat="45.828746" lon="9.436488"><time>2024-03-23T09:16:16.000Z</time><ele>998.8</ele></trkpt><trkpt lat="45.828748" lon="9.436487"><time>2024-03-23T09:16:17.000Z</time><ele>999</ele></trkpt><trkpt lat="45.82875" lon="9.436486"><time>2024-03-23T09:16:18.000Z</time><ele>999.4</ele></trkpt><trkpt lat="45.828752" lon="9.436484"><time>2024-03-23T09:16:19.000Z</time><ele>999.8</ele></trkpt><trkpt lat="45.828753" lon="9.436482"><time>2024-03-23T09:16:20.000Z</time><ele>1000</ele></trkpt><trkpt lat="45.828755" lon="9.43648"><time>2024-03-23T09:16:21.000Z</time><ele>1000</ele></trkpt><trkpt lat="45.828756" lon="9.436478"><time>2024-03-23T09:16:22.000Z</time><ele>1000.2</ele></trkpt><trkpt lat="45.828757" lon="9.436476"><time>2024-03-23T09:16:23.000Z</time><ele>1000.2</ele></trkpt><trkpt lat="45.828758" lon="9.436475"><time>2024-03-23T09:16:24.000Z</time><ele>1000.2</ele></trkpt><trkpt lat="45.828759" lon="9.436473"><time>2024-03-23T09:16:25.000Z</time><ele>1000.4</ele></trkpt><trkpt lat="45.82876" lon="9.436472"><time>2024-03-23T09:16:26.000Z</time><ele>1000.4</ele></trkpt><trkpt lat="45.828761" lon="9.436471"><time>2024-03-23T09:16:27.000Z</time><ele>1000.6</ele></trkpt><trkpt lat="45.828762" lon="9.43647"><time>2024-03-23T09:16:28.000Z</time><ele>1000.8</ele></trkpt><trkpt lat="45.828763" lon="9.436469"><time>2024-03-23T09:16:29.000Z</time><ele>1001</ele></trkpt><trkpt lat="45.828764" lon="9.436469"><time>2024-03-23T09:16:30.000Z</time><ele>1001.2</ele></trkpt><trkpt lat="45.828765" lon="9.436468"><time>2024-03-23T09:16:31.000Z</time><ele>1001.4</ele></trkpt><trkpt lat="45.828765" lon="9.436467"><time>2024-03-23T09:16:32.000Z</time><ele>1001.4</ele></trkpt><trkpt lat="45.828766" lon="9.436467"><time>2024-03-23T09:16:33.000Z</time><ele>1001.4</ele></trkpt><trkpt lat="45.828766" lon="9.436466"><time>2024-03-23T09:16:34.000Z</time><ele>1001.4</ele></trkpt><trkpt lat="45.828767" lon="9.436466"><time>2024-03-23T09:16:35.000Z</time><ele>1001.4</ele></trkpt><trkpt lat="45.828767" lon="9.436466"><time>2024-03-23T09:16:36.000Z</time><ele>1001.2</ele></trkpt><trkpt lat="45.828767" lon="9.436466"><time>2024-03-23T09:16:37.000Z</time><ele>1001</ele></trkpt><trkpt lat="45.828768" lon="9.436466"><time>2024-03-23T09:16:38.000Z</time><ele>1001</ele></trkpt><trkpt lat="45.828768" lon="9.436466"><time>2024-03-23T09:16:39.000Z</time><ele>1000.8</ele></trkpt><trkpt lat="45.828768" lon="9.436466"><time>2024-03-23T09:16:40.000Z</time><ele>1000.8</ele></trkpt><trkpt lat="45.828768" lon="9.436466"><time>2024-03-23T09:16:41.000Z</time><ele>1000.8</ele></trkpt><trkpt lat="45.828768" lon="9.436466"><time>2024-03-23T09:16:42.000Z</time><ele>1000.8</ele></trkpt><trkpt lat="45.828768" lon="9.436466"><time>2024-03-23T09:16:43.000Z</time><ele>1000.8</ele></trkpt><trkpt lat="45.828768" lon="9.436465"><time>2024-03-23T09:16:44.000Z</time><ele>1000.8</ele></trkpt><trkpt lat="45.828769" lon="9.436465"><time>2024-03-23T09:16:45.000Z</time><ele>1000.8</ele></trkpt><trkpt lat="45.828769" lon="9.436466"><time>2024-03-23T09:16:46.000Z</time><ele>1001</ele></trkpt><trkpt lat="45.828769" lon="9.436465"><time>2024-03-23T09:16:47.000Z</time><ele>1001.2</ele></trkpt><trkpt lat="45.828769" lon="9.436466"><time>2024-03-23T09:16:48.000Z</time><ele>1001.4</ele></trkpt><trkpt lat="45.828769" lon="9.436466"><time>2024-03-23T09:16:49.000Z</time><ele>1001.4</ele></trkpt><trkpt lat="45.828769" lon="9.436465"><time>2024-03-23T09:16:50.000Z</time><ele>1001.6</ele></trkpt><trkpt lat="45.82877" lon="9.436465"><time>2024-03-23T09:16:51.000Z</time><ele>1001.6</ele></trkpt><trkpt lat="45.82877" lon="9.436465"><time>2024-03-23T09:16:52.000Z</time><ele>1002</ele></trkpt><trkpt lat="45.82877" lon="9.436465"><time>2024-03-23T09:16:53.000Z</time><ele>1002.2</ele></trkpt><trkpt lat="45.82877" lon="9.436465"><time>2024-03-23T09:16:54.000Z</time><ele>1002.4</ele></trkpt><trkpt lat="45.82877" lon="9.436465"><time>2024-03-23T09:16:55.000Z</time><ele>1002.4</ele></trkpt><trkpt lat="45.828771" lon="9.436465"><time>2024-03-23T09:16:56.000Z</time><ele>1002.6</ele></trkpt><trkpt lat="45.828771" lon="9.436465"><time>2024-03-23T09:16:57.000Z</time><ele>1002.8</ele></trkpt><trkpt lat="45.828771" lon="9.436465"><time>2024-03-23T09:16:58.000Z</time><ele>1003</ele></trkpt><trkpt lat="45.828771" lon="9.436465"><time>2024-03-23T09:16:59.000Z</time><ele>1003</ele></trkpt><trkpt lat="45.828771" lon="9.436465"><time>2024-03-23T09:17:00.000Z</time><ele>1003.2</ele></trkpt><trkpt lat="45.828772" lon="9.436465"><time>2024-03-23T09:17:01.000Z</time><ele>1003.4</ele></trkpt><trkpt lat="45.828772" lon="9.436464"><time>2024-03-23T09:17:02.000Z</time><ele>1003.4</ele></trkpt><trkpt lat="45.828772" lon="9.436464"><time>2024-03-23T09:17:03.000Z</time><ele>1003.4</ele></trkpt><trkpt lat="45.828772" lon="9.436464"><time>2024-03-23T09:17:04.000Z</time><ele>1003.4</ele></trkpt><trkpt lat="45.828772" lon="9.436464"><time>2024-03-23T09:17:05.000Z</time><ele>1003.4</ele></trkpt><trkpt lat="45.828772" lon="9.436464"><time>2024-03-23T09:17:06.000Z</time><ele>1003.4</ele></trkpt><trkpt lat="45.828772" lon="9.436464"><time>2024-03-23T09:17:07.000Z</time><ele>1003.4</ele></trkpt><trkpt lat="45.828772" lon="9.436464"><time>2024-03-23T09:17:08.000Z</time><ele>1003.4</ele></trkpt><trkpt lat="45.828772" lon="9.436464"><time>2024-03-23T09:17:09.000Z</time><ele>1003.4</ele></trkpt><trkpt lat="45.828773" lon="9.436464"><time>2024-03-23T09:17:10.000Z</time><ele>1003.4</ele></trkpt><trkpt lat="45.828773" lon="9.436464"><time>2024-03-23T09:17:11.000Z</time><ele>1003.8</ele></trkpt><trkpt lat="45.828773" lon="9.436464"><time>2024-03-23T09:17:12.000Z</time><ele>1004</ele></trkpt><trkpt lat="45.828773" lon="9.436464"><time>2024-03-23T09:17:13.000Z</time><ele>1004</ele></trkpt><trkpt lat="45.828773" lon="9.436464"><time>2024-03-23T09:17:14.000Z</time><ele>1004</ele></trkpt><trkpt lat="45.828773" lon="9.436464"><time>2024-03-23T09:17:15.000Z</time><ele>1004</ele></trkpt><trkpt lat="45.828774" lon="9.436464"><time>2024-03-23T09:17:16.000Z</time><ele>1004</ele></trkpt><trkpt lat="45.828774" lon="9.436464"><time>2024-03-23T09:17:17.000Z</time><ele>1003.8</ele></trkpt><trkpt lat="45.828774" lon="9.436463"><time>2024-03-23T09:17:18.000Z</time><ele>1003.8</ele></trkpt><trkpt lat="45.828774" lon="9.436463"><time>2024-03-23T09:17:19.000Z</time><ele>1003.8</ele></trkpt><trkpt lat="45.828774" lon="9.436463"><time>2024-03-23T09:17:20.000Z</time><ele>1003.8</ele></trkpt><trkpt lat="45.828775" lon="9.436463"><time>2024-03-23T09:17:21.000Z</time><ele>1003.8</ele></trkpt><trkpt lat="45.828775" lon="9.436463"><time>2024-03-23T09:17:22.000Z</time><ele>1003.8</ele></trkpt><trkpt lat="45.828775" lon="9.436463"><time>2024-03-23T09:17:23.000Z</time><ele>1003.8</ele></trkpt><trkpt lat="45.828775" lon="9.436463"><time>2024-03-23T09:17:24.000Z</time><ele>1004</ele></trkpt><trkpt lat="45.828776" lon="9.436463"><time>2024-03-23T09:17:25.000Z</time><ele>1004</ele></trkpt><trkpt lat="45.828776" lon="9.436463"><time>2024-03-23T09:17:26.000Z</time><ele>1004.2</ele></trkpt><trkpt lat="45.828776" lon="9.436463"><time>2024-03-23T09:17:27.000Z</time><ele>1004.4</ele></trkpt><trkpt lat="45.828776" lon="9.436463"><time>2024-03-23T09:17:28.000Z</time><ele>1004.6</ele></trkpt><trkpt lat="45.828776" lon="9.436462"><time>2024-03-23T09:17:29.000Z</time><ele>1004.6</ele></trkpt><trkpt lat="45.828776" lon="9.436462"><time>2024-03-23T09:17:30.000Z</time><ele>1004.6</ele></trkpt><trkpt lat="45.828777" lon="9.436462"><time>2024-03-23T09:17:31.000Z</time><ele>1004.6</ele></trkpt><trkpt lat="45.828777" lon="9.436462"><time>2024-03-23T09:17:32.000Z</time><ele>1004.8</ele></trkpt><trkpt lat="45.828777" lon="9.436462"><time>2024-03-23T09:17:33.000Z</time><ele>1005</ele></trkpt><trkpt lat="45.828788" lon="9.436459"><time>2024-03-23T09:17:34.000Z</time><ele>1005.2</ele></trkpt><trkpt lat="45.828804" lon="9.436461"><time>2024-03-23T09:17:35.000Z</time><ele>1005.4</ele></trkpt><trkpt lat="45.828819" lon="9.43646"><time>2024-03-23T09:17:36.000Z</time><ele>1005.4</ele></trkpt><trkpt lat="45.828834" lon="9.436456"><time>2024-03-23T09:17:37.000Z</time><ele>1005.6</ele></trkpt><trkpt lat="45.828848" lon="9.436453"><time>2024-03-23T09:17:38.000Z</time><ele>1005.8</ele></trkpt><trkpt lat="45.828863" lon="9.436451"><time>2024-03-23T09:17:39.000Z</time><ele>1006</ele></trkpt><trkpt lat="45.828879" lon="9.43645"><time>2024-03-23T09:17:40.000Z</time><ele>1006.2</ele></trkpt><trkpt lat="45.828892" lon="9.436449"><time>2024-03-23T09:17:41.000Z</time><ele>1006.2</ele></trkpt><trkpt lat="45.828906" lon="9.436454"><time>2024-03-23T09:17:42.000Z</time><ele>1006.4</ele></trkpt><trkpt lat="45.828921" lon="9.436457"><time>2024-03-23T09:17:43.000Z</time><ele>1006.6</ele></trkpt><trkpt lat="45.828928" lon="9.436462"><time>2024-03-23T09:17:44.000Z</time><ele>1006.8</ele></trkpt><trkpt lat="45.828933" lon="9.436466"><time>2024-03-23T09:17:45.000Z</time><ele>1007</ele></trkpt><trkpt lat="45.828936" lon="9.436472"><time>2024-03-23T09:17:46.000Z</time><ele>1007</ele></trkpt><trkpt lat="45.82894" lon="9.436476"><time>2024-03-23T09:17:47.000Z</time><ele>1007.2</ele></trkpt><trkpt lat="45.828945" lon="9.436478"><time>2024-03-23T09:17:48.000Z</time><ele>1007.4</ele></trkpt><trkpt lat="45.828947" lon="9.436482"><time>2024-03-23T09:17:49.000Z</time><ele>1007.8</ele></trkpt><trkpt lat="45.828946" lon="9.43649"><time>2024-03-23T09:17:50.000Z</time><ele>1008</ele></trkpt><trkpt lat="45.828947" lon="9.436492"><time>2024-03-23T09:17:51.000Z</time><ele>1008</ele></trkpt><trkpt lat="45.828948" lon="9.436493"><time>2024-03-23T09:17:52.000Z</time><ele>1008.2</ele></trkpt><trkpt lat="45.828949" lon="9.43649"><time>2024-03-23T09:17:53.000Z</time><ele>1008.4</ele></trkpt><trkpt lat="45.82895" lon="9.436494"><time>2024-03-23T09:17:54.000Z</time><ele>1008.4</ele></trkpt><trkpt lat="45.828951" lon="9.436501"><time>2024-03-23T09:17:55.000Z</time><ele>1008.6</ele></trkpt><trkpt lat="45.828952" lon="9.436504"><time>2024-03-23T09:17:56.000Z</time><ele>1008.6</ele></trkpt><trkpt lat="45.828953" lon="9.436509"><time>2024-03-23T09:17:57.000Z</time><ele>1008.8</ele></trkpt><trkpt lat="45.828957" lon="9.43651"><time>2024-03-23T09:17:58.000Z</time><ele>1008.8</ele></trkpt><trkpt lat="45.828959" lon="9.43651"><time>2024-03-23T09:17:59.000Z</time><ele>1009</ele></trkpt><trkpt lat="45.82896" lon="9.436512"><time>2024-03-23T09:18:00.000Z</time><ele>1009.2</ele></trkpt><trkpt lat="45.828962" lon="9.436514"><time>2024-03-23T09:18:01.000Z</time><ele>1009.4</ele></trkpt><trkpt lat="45.828963" lon="9.436514"><time>2024-03-23T09:18:02.000Z</time><ele>1009.8</ele></trkpt><trkpt lat="45.828964" lon="9.436515"><time>2024-03-23T09:18:03.000Z</time><ele>1010</ele></trkpt><trkpt lat="45.828964" lon="9.436515"><time>2024-03-23T09:18:04.000Z</time><ele>1010.2</ele></trkpt><trkpt lat="45.828964" lon="9.436515"><time>2024-03-23T09:18:05.000Z</time><ele>1010.2</ele></trkpt><trkpt lat="45.828964" lon="9.436515"><time>2024-03-23T09:18:06.000Z</time><ele>1010.4</ele></trkpt><trkpt lat="45.828964" lon="9.436515"><time>2024-03-23T09:18:07.000Z</time><ele>1010.4</ele></trkpt><trkpt lat="45.828965" lon="9.436515"><time>2024-03-23T09:18:08.000Z</time><ele>1010.6</ele></trkpt><trkpt lat="45.828971" lon="9.436516"><time>2024-03-23T09:18:09.000Z</time><ele>1010.6</ele></trkpt><trkpt lat="45.828975" lon="9.43652"><time>2024-03-23T09:18:10.000Z</time><ele>1010.8</ele></trkpt><trkpt lat="45.82898" lon="9.436525"><time>2024-03-23T09:18:11.000Z</time><ele>1011.2</ele></trkpt><trkpt lat="45.828987" lon="9.436524"><time>2024-03-23T09:18:12.000Z</time><ele>1011.4</ele></trkpt><trkpt lat="45.828991" lon="9.436523"><time>2024-03-23T09:18:13.000Z</time><ele>1011.6</ele></trkpt><trkpt lat="45.828996" lon="9.436521"><time>2024-03-23T09:18:14.000Z</time><ele>1011.8</ele></trkpt><trkpt lat="45.828996" lon="9.436521"><time>2024-03-23T09:18:15.000Z</time><ele>1012.2</ele></trkpt><trkpt lat="45.828998" lon="9.436521"><time>2024-03-23T09:18:16.000Z</time><ele>1012.4</ele></trkpt><trkpt lat="45.829" lon="9.436523"><time>2024-03-23T09:18:17.000Z</time><ele>1012.6</ele></trkpt><trkpt lat="45.829001" lon="9.436525"><time>2024-03-23T09:18:18.000Z</time><ele>1012.8</ele></trkpt><trkpt lat="45.829003" lon="9.436526"><time>2024-03-23T09:18:19.000Z</time><ele>1012.8</ele></trkpt><trkpt lat="45.829004" lon="9.436529"><time>2024-03-23T09:18:20.000Z</time><ele>1013</ele></trkpt><trkpt lat="45.829006" lon="9.436533"><time>2024-03-23T09:18:21.000Z</time><ele>1013</ele></trkpt><trkpt lat="45.82901" lon="9.436536"><time>2024-03-23T09:18:22.000Z</time><ele>1013.2</ele></trkpt><trkpt lat="45.829011" lon="9.436537"><time>2024-03-23T09:18:23.000Z</time><ele>1013.4</ele></trkpt><trkpt lat="45.829012" lon="9.436538"><time>2024-03-23T09:18:24.000Z</time><ele>1013.6</ele></trkpt><trkpt lat="45.829012" lon="9.43654"><time>2024-03-23T09:18:25.000Z</time><ele>1013.6</ele></trkpt><trkpt lat="45.829013" lon="9.436543"><time>2024-03-23T09:18:26.000Z</time><ele>1013.8</ele></trkpt><trkpt lat="45.829013" lon="9.436546"><time>2024-03-23T09:18:27.000Z</time><ele>1014</ele></trkpt><trkpt lat="45.829013" lon="9.436547"><time>2024-03-23T09:18:28.000Z</time><ele>1014</ele></trkpt><trkpt lat="45.829013" lon="9.436547"><time>2024-03-23T09:18:29.000Z</time><ele>1014</ele></trkpt><trkpt lat="45.829013" lon="9.436547"><time>2024-03-23T09:18:30.000Z</time><ele>1014</ele></trkpt><trkpt lat="45.829013" lon="9.436547"><time>2024-03-23T09:18:31.000Z</time><ele>1014.2</ele></trkpt><trkpt lat="45.829013" lon="9.436547"><time>2024-03-23T09:18:32.000Z</time><ele>1014.2</ele></trkpt><trkpt lat="45.829013" lon="9.436547"><time>2024-03-23T09:18:33.000Z</time><ele>1014.4</ele></trkpt><trkpt lat="45.829013" lon="9.436547"><time>2024-03-23T09:18:34.000Z</time><ele>1014.4</ele></trkpt><trkpt lat="45.829013" lon="9.436547"><time>2024-03-23T09:18:35.000Z</time><ele>1014.6</ele></trkpt><trkpt lat="45.829013" lon="9.436547"><time>2024-03-23T09:18:36.000Z</time><ele>1014.6</ele></trkpt><trkpt lat="45.829013" lon="9.436547"><time>2024-03-23T09:18:37.000Z</time><ele>1014.8</ele></trkpt><trkpt lat="45.829013" lon="9.436547"><time>2024-03-23T09:18:38.000Z</time><ele>1014.8</ele></trkpt><trkpt lat="45.829013" lon="9.436547"><time>2024-03-23T09:18:39.000Z</time><ele>1015</ele></trkpt><trkpt lat="45.829013" lon="9.436547"><time>2024-03-23T09:18:40.000Z</time><ele>1015.2</ele></trkpt><trkpt lat="45.829013" lon="9.436547"><time>2024-03-23T09:18:41.000Z</time><ele>1015.4</ele></trkpt><trkpt lat="45.829013" lon="9.436547"><time>2024-03-23T09:18:42.000Z</time><ele>1015.6</ele></trkpt><trkpt lat="45.829013" lon="9.436547"><time>2024-03-23T09:18:43.000Z</time><ele>1016</ele></trkpt><trkpt lat="45.829014" lon="9.436547"><time>2024-03-23T09:18:44.000Z</time><ele>1016</ele></trkpt><trkpt lat="45.829015" lon="9.436547"><time>2024-03-23T09:18:45.000Z</time><ele>1016</ele></trkpt><trkpt lat="45.829016" lon="9.436547"><time>2024-03-23T09:18:46.000Z</time><ele>1016.2</ele></trkpt><trkpt lat="45.829016" lon="9.436547"><time>2024-03-23T09:18:47.000Z</time><ele>1016.2</ele></trkpt><trkpt lat="45.829017" lon="9.436547"><time>2024-03-23T09:18:48.000Z</time><ele>1016.2</ele></trkpt><trkpt lat="45.829018" lon="9.43655"><time>2024-03-23T09:18:49.000Z</time><ele>1016.4</ele></trkpt><trkpt lat="45.829018" lon="9.436554"><time>2024-03-23T09:18:50.000Z</time><ele>1016.4</ele></trkpt><trkpt lat="45.829019" lon="9.436556"><time>2024-03-23T09:18:51.000Z</time><ele>1016.6</ele></trkpt><trkpt lat="45.829019" lon="9.436557"><time>2024-03-23T09:18:52.000Z</time><ele>1016.8</ele></trkpt><trkpt lat="45.829019" lon="9.436558"><time>2024-03-23T09:18:53.000Z</time><ele>1016.8</ele></trkpt><trkpt lat="45.829021" lon="9.436558"><time>2024-03-23T09:18:54.000Z</time><ele>1017</ele></trkpt><trkpt lat="45.829021" lon="9.436559"><time>2024-03-23T09:18:55.000Z</time><ele>1017</ele></trkpt><trkpt lat="45.829022" lon="9.43656"><time>2024-03-23T09:18:56.000Z</time><ele>1017.4</ele></trkpt><trkpt lat="45.829022" lon="9.436562"><time>2024-03-23T09:18:57.000Z</time><ele>1017.6</ele></trkpt><trkpt lat="45.829022" lon="9.436562"><time>2024-03-23T09:18:58.000Z</time><ele>1017.6</ele></trkpt><trkpt lat="45.829022" lon="9.436562"><time>2024-03-23T09:18:59.000Z</time><ele>1017.6</ele></trkpt><trkpt lat="45.829023" lon="9.436563"><time>2024-03-23T09:19:00.000Z</time><ele>1017.8</ele></trkpt><trkpt lat="45.829023" lon="9.436567"><time>2024-03-23T09:19:01.000Z</time><ele>1018</ele></trkpt><trkpt lat="45.829024" lon="9.436571"><time>2024-03-23T09:19:02.000Z</time><ele>1018.2</ele></trkpt><trkpt lat="45.829025" lon="9.436571"><time>2024-03-23T09:19:03.000Z</time><ele>1018.4</ele></trkpt><trkpt lat="45.829025" lon="9.436571"><time>2024-03-23T09:19:04.000Z</time><ele>1018.6</ele></trkpt><trkpt lat="45.82903" lon="9.436571"><time>2024-03-23T09:19:05.000Z</time><ele>1018.8</ele></trkpt><trkpt lat="45.82903" lon="9.436571"><time>2024-03-23T09:19:06.000Z</time><ele>1018.8</ele></trkpt><trkpt lat="45.829034" lon="9.436571"><time>2024-03-23T09:19:07.000Z</time><ele>1019</ele></trkpt><trkpt lat="45.829036" lon="9.436571"><time>2024-03-23T09:19:08.000Z</time><ele>1019.2</ele></trkpt><trkpt lat="45.829037" lon="9.436571"><time>2024-03-23T09:19:09.000Z</time><ele>1019.4</ele></trkpt><trkpt lat="45.82904" lon="9.436571"><time>2024-03-23T09:19:10.000Z</time><ele>1019.4</ele></trkpt><trkpt lat="45.829043" lon="9.436571"><time>2024-03-23T09:19:11.000Z</time><ele>1019.6</ele></trkpt><trkpt lat="45.829043" lon="9.436571"><time>2024-03-23T09:19:12.000Z</time><ele>1019.8</ele></trkpt><trkpt lat="45.829044" lon="9.436571"><time>2024-03-23T09:19:13.000Z</time><ele>1020</ele></trkpt><trkpt lat="45.829045" lon="9.436571"><time>2024-03-23T09:19:14.000Z</time><ele>1020.2</ele></trkpt><trkpt lat="45.829048" lon="9.436571"><time>2024-03-23T09:19:15.000Z</time><ele>1020.4</ele></trkpt><trkpt lat="45.829051" lon="9.436571"><time>2024-03-23T09:19:16.000Z</time><ele>1020.4</ele></trkpt><trkpt lat="45.829053" lon="9.43657"><time>2024-03-23T09:19:17.000Z</time><ele>1020.6</ele></trkpt><trkpt lat="45.829055" lon="9.436567"><time>2024-03-23T09:19:18.000Z</time><ele>1020.6</ele></trkpt><trkpt lat="45.829057" lon="9.436565"><time>2024-03-23T09:19:19.000Z</time><ele>1020.8</ele></trkpt><trkpt lat="45.829059" lon="9.436563"><time>2024-03-23T09:19:20.000Z</time><ele>1020.8</ele></trkpt><trkpt lat="45.82906" lon="9.436561"><time>2024-03-23T09:19:21.000Z</time><ele>1021</ele></trkpt><trkpt lat="45.82906" lon="9.43656"><time>2024-03-23T09:19:22.000Z</time><ele>1021</ele></trkpt><trkpt lat="45.829061" lon="9.43656"><time>2024-03-23T09:19:23.000Z</time><ele>1021.2</ele></trkpt><trkpt lat="45.829061" lon="9.436559"><time>2024-03-23T09:19:24.000Z</time><ele>1021.4</ele></trkpt><trkpt lat="45.829061" lon="9.436557"><time>2024-03-23T09:19:25.000Z</time><ele>1021.4</ele></trkpt><trkpt lat="45.829062" lon="9.436555"><time>2024-03-23T09:19:26.000Z</time><ele>1021.6</ele></trkpt><trkpt lat="45.829063" lon="9.436552"><time>2024-03-23T09:19:27.000Z</time><ele>1021.6</ele></trkpt><trkpt lat="45.829064" lon="9.436551"><time>2024-03-23T09:19:28.000Z</time><ele>1021.8</ele></trkpt><trkpt lat="45.829064" lon="9.43655"><time>2024-03-23T09:19:29.000Z</time><ele>1021.8</ele></trkpt><trkpt lat="45.829065" lon="9.436549"><time>2024-03-23T09:19:30.000Z</time><ele>1022</ele></trkpt><trkpt lat="45.829066" lon="9.436549"><time>2024-03-23T09:19:31.000Z</time><ele>1022.2</ele></trkpt><trkpt lat="45.829066" lon="9.436548"><time>2024-03-23T09:19:32.000Z</time><ele>1022.2</ele></trkpt><trkpt lat="45.829068" lon="9.436548"><time>2024-03-23T09:19:33.000Z</time><ele>1022.4</ele></trkpt><trkpt lat="45.829069" lon="9.436548"><time>2024-03-23T09:19:34.000Z</time><ele>1022.6</ele></trkpt><trkpt lat="45.829073" lon="9.436548"><time>2024-03-23T09:19:35.000Z</time><ele>1022.8</ele></trkpt><trkpt lat="45.829078" lon="9.436548"><time>2024-03-23T09:19:36.000Z</time><ele>1023</ele></trkpt><trkpt lat="45.829082" lon="9.436548"><time>2024-03-23T09:19:37.000Z</time><ele>1023.4</ele></trkpt><trkpt lat="45.829085" lon="9.436548"><time>2024-03-23T09:19:38.000Z</time><ele>1023.6</ele></trkpt><trkpt lat="45.829087" lon="9.436548"><time>2024-03-23T09:19:39.000Z</time><ele>1023.6</ele></trkpt><trkpt lat="45.829088" lon="9.436548"><time>2024-03-23T09:19:40.000Z</time><ele>1023.8</ele></trkpt><trkpt lat="45.829091" lon="9.436548"><time>2024-03-23T09:19:41.000Z</time><ele>1023.8</ele></trkpt><trkpt lat="45.829094" lon="9.436548"><time>2024-03-23T09:19:42.000Z</time><ele>1023.8</ele></trkpt><trkpt lat="45.829098" lon="9.436548"><time>2024-03-23T09:19:43.000Z</time><ele>1023.8</ele></trkpt><trkpt lat="45.8291" lon="9.436548"><time>2024-03-23T09:19:44.000Z</time><ele>1023.8</ele></trkpt><trkpt lat="45.829101" lon="9.436548"><time>2024-03-23T09:19:45.000Z</time><ele>1023.8</ele></trkpt><trkpt lat="45.829103" lon="9.436548"><time>2024-03-23T09:19:46.000Z</time><ele>1023.6</ele></trkpt><trkpt lat="45.829105" lon="9.436549"><time>2024-03-23T09:19:47.000Z</time><ele>1023.6</ele></trkpt><trkpt lat="45.829108" lon="9.43655"><time>2024-03-23T09:19:48.000Z</time><ele>1023.6</ele></trkpt><trkpt lat="45.82911" lon="9.436553"><time>2024-03-23T09:19:49.000Z</time><ele>1023.8</ele></trkpt><trkpt lat="45.829112" lon="9.436557"><time>2024-03-23T09:19:50.000Z</time><ele>1023.6</ele></trkpt><trkpt lat="45.829114" lon="9.436559"><time>2024-03-23T09:19:51.000Z</time><ele>1023.6</ele></trkpt><trkpt lat="45.829116" lon="9.436561"><time>2024-03-23T09:19:52.000Z</time><ele>1023.6</ele></trkpt><trkpt lat="45.829118" lon="9.436562"><time>2024-03-23T09:19:53.000Z</time><ele>1023.6</ele></trkpt><trkpt lat="45.82912" lon="9.436562"><time>2024-03-23T09:19:54.000Z</time><ele>1023.6</ele></trkpt><trkpt lat="45.829122" lon="9.436562"><time>2024-03-23T09:19:55.000Z</time><ele>1023.6</ele></trkpt><trkpt lat="45.829123" lon="9.436562"><time>2024-03-23T09:19:56.000Z</time><ele>1023.6</ele></trkpt><trkpt lat="45.829123" lon="9.436563"><time>2024-03-23T09:19:57.000Z</time><ele>1023.6</ele></trkpt><trkpt lat="45.829123" lon="9.436563"><time>2024-03-23T09:19:58.000Z</time><ele>1023.6</ele></trkpt><trkpt lat="45.829124" lon="9.436563"><time>2024-03-23T09:19:59.000Z</time><ele>1023.6</ele></trkpt><trkpt lat="45.829124" lon="9.436563"><time>2024-03-23T09:20:00.000Z</time><ele>1023.6</ele></trkpt><trkpt lat="45.829124" lon="9.436563"><time>2024-03-23T09:20:01.000Z</time><ele>1023.6</ele></trkpt><trkpt lat="45.829124" lon="9.436563"><time>2024-03-23T09:20:02.000Z</time><ele>1023.8</ele></trkpt><trkpt lat="45.829125" lon="9.436563"><time>2024-03-23T09:20:03.000Z</time><ele>1024</ele></trkpt><trkpt lat="45.829125" lon="9.436563"><time>2024-03-23T09:20:04.000Z</time><ele>1024.2</ele></trkpt><trkpt lat="45.829125" lon="9.436563"><time>2024-03-23T09:20:05.000Z</time><ele>1024.4</ele></trkpt><trkpt lat="45.829125" lon="9.436563"><time>2024-03-23T09:20:06.000Z</time><ele>1024.4</ele></trkpt><trkpt lat="45.829125" lon="9.436563"><time>2024-03-23T09:20:07.000Z</time><ele>1024.6</ele></trkpt><trkpt lat="45.829126" lon="9.436563"><time>2024-03-23T09:20:08.000Z</time><ele>1024.6</ele></trkpt><trkpt lat="45.829126" lon="9.436563"><time>2024-03-23T09:20:09.000Z</time><ele>1024.8</ele></trkpt><trkpt lat="45.829126" lon="9.436562"><time>2024-03-23T09:20:10.000Z</time><ele>1024.8</ele></trkpt><trkpt lat="45.829126" lon="9.436562"><time>2024-03-23T09:20:11.000Z</time><ele>1025.2</ele></trkpt><trkpt lat="45.829126" lon="9.436562"><time>2024-03-23T09:20:12.000Z</time><ele>1025.6</ele></trkpt><trkpt lat="45.829127" lon="9.436561"><time>2024-03-23T09:20:13.000Z</time><ele>1025.8</ele></trkpt><trkpt lat="45.829127" lon="9.43656"><time>2024-03-23T09:20:14.000Z</time><ele>1026</ele></trkpt><trkpt lat="45.829127" lon="9.43656"><time>2024-03-23T09:20:15.000Z</time><ele>1026.2</ele></trkpt><trkpt lat="45.829128" lon="9.436559"><time>2024-03-23T09:20:16.000Z</time><ele>1026.4</ele></trkpt><trkpt lat="45.829129" lon="9.436559"><time>2024-03-23T09:20:17.000Z</time><ele>1026.6</ele></trkpt><trkpt lat="45.82913" lon="9.436556"><time>2024-03-23T09:20:18.000Z</time><ele>1026.6</ele></trkpt><trkpt lat="45.829132" lon="9.436552"><time>2024-03-23T09:20:19.000Z</time><ele>1026.8</ele></trkpt><trkpt lat="45.829135" lon="9.436549"><time>2024-03-23T09:20:20.000Z</time><ele>1027.2</ele></trkpt><trkpt lat="45.829137" lon="9.436547"><time>2024-03-23T09:20:21.000Z</time><ele>1027.2</ele></trkpt><trkpt lat="45.82914" lon="9.436546"><time>2024-03-23T09:20:22.000Z</time><ele>1027.4</ele></trkpt><trkpt lat="45.829142" lon="9.436545"><time>2024-03-23T09:20:23.000Z</time><ele>1027.6</ele></trkpt><trkpt lat="45.829144" lon="9.436544"><time>2024-03-23T09:20:24.000Z</time><ele>1027.6</ele></trkpt><trkpt lat="45.829146" lon="9.436544"><time>2024-03-23T09:20:25.000Z</time><ele>1027.8</ele></trkpt><trkpt lat="45.829148" lon="9.436544"><time>2024-03-23T09:20:26.000Z</time><ele>1027.8</ele></trkpt><trkpt lat="45.82915" lon="9.436544"><time>2024-03-23T09:20:27.000Z</time><ele>1028</ele></trkpt><trkpt lat="45.829151" lon="9.436543"><time>2024-03-23T09:20:28.000Z</time><ele>1028.2</ele></trkpt><trkpt lat="45.829154" lon="9.436543"><time>2024-03-23T09:20:29.000Z</time><ele>1028.4</ele></trkpt><trkpt lat="45.829157" lon="9.436542"><time>2024-03-23T09:20:30.000Z</time><ele>1028.6</ele></trkpt><trkpt lat="45.829159" lon="9.436541"><time>2024-03-23T09:20:31.000Z</time><ele>1028.6</ele></trkpt><trkpt lat="45.829161" lon="9.436541"><time>2024-03-23T09:20:32.000Z</time><ele>1029</ele></trkpt><trkpt lat="45.829164" lon="9.43654"><time>2024-03-23T09:20:33.000Z</time><ele>1029.2</ele></trkpt><trkpt lat="45.829166" lon="9.43654"><time>2024-03-23T09:20:34.000Z</time><ele>1029.4</ele></trkpt><trkpt lat="45.829167" lon="9.436539"><time>2024-03-23T09:20:35.000Z</time><ele>1029.4</ele></trkpt><trkpt lat="45.829171" lon="9.436539"><time>2024-03-23T09:20:36.000Z</time><ele>1029.6</ele></trkpt><trkpt lat="45.829174" lon="9.436538"><time>2024-03-23T09:20:37.000Z</time><ele>1029.6</ele></trkpt><trkpt lat="45.829178" lon="9.436538"><time>2024-03-23T09:20:38.000Z</time><ele>1029.6</ele></trkpt><trkpt lat="45.829181" lon="9.436536"><time>2024-03-23T09:20:39.000Z</time><ele>1029.6</ele></trkpt><trkpt lat="45.829184" lon="9.436534"><time>2024-03-23T09:20:40.000Z</time><ele>1029.6</ele></trkpt><trkpt lat="45.829186" lon="9.436531"><time>2024-03-23T09:20:41.000Z</time><ele>1029.8</ele></trkpt><trkpt lat="45.82919" lon="9.436529"><time>2024-03-23T09:20:42.000Z</time><ele>1029.8</ele></trkpt><trkpt lat="45.829193" lon="9.436526"><time>2024-03-23T09:20:43.000Z</time><ele>1029.8</ele></trkpt><trkpt lat="45.829197" lon="9.436524"><time>2024-03-23T09:20:44.000Z</time><ele>1029.8</ele></trkpt><trkpt lat="45.8292" lon="9.436521"><time>2024-03-23T09:20:45.000Z</time><ele>1029.8</ele></trkpt><trkpt lat="45.829203" lon="9.436519"><time>2024-03-23T09:20:46.000Z</time><ele>1029.8</ele></trkpt><trkpt lat="45.829205" lon="9.436517"><time>2024-03-23T09:20:47.000Z</time><ele>1029.8</ele></trkpt><trkpt lat="45.829207" lon="9.436515"><time>2024-03-23T09:20:48.000Z</time><ele>1030</ele></trkpt><trkpt lat="45.829209" lon="9.436513"><time>2024-03-23T09:20:49.000Z</time><ele>1030</ele></trkpt><trkpt lat="45.829213" lon="9.436511"><time>2024-03-23T09:20:50.000Z</time><ele>1029.8</ele></trkpt><trkpt lat="45.829215" lon="9.436509"><time>2024-03-23T09:20:51.000Z</time><ele>1030</ele></trkpt><trkpt lat="45.829217" lon="9.436508"><time>2024-03-23T09:20:52.000Z</time><ele>1030</ele></trkpt><trkpt lat="45.829219" lon="9.436507"><time>2024-03-23T09:20:53.000Z</time><ele>1030</ele></trkpt><trkpt lat="45.82922" lon="9.436507"><time>2024-03-23T09:20:54.000Z</time><ele>1030</ele></trkpt><trkpt lat="45.829221" lon="9.436506"><time>2024-03-23T09:20:55.000Z</time><ele>1030</ele></trkpt><trkpt lat="45.829221" lon="9.436506"><time>2024-03-23T09:20:56.000Z</time><ele>1030</ele></trkpt><trkpt lat="45.829222" lon="9.436505"><time>2024-03-23T09:20:57.000Z</time><ele>1030</ele></trkpt><trkpt lat="45.829223" lon="9.436505"><time>2024-03-23T09:20:58.000Z</time><ele>1030</ele></trkpt><trkpt lat="45.829223" lon="9.436505"><time>2024-03-23T09:20:59.000Z</time><ele>1030.2</ele></trkpt><trkpt lat="45.829224" lon="9.436505"><time>2024-03-23T09:21:00.000Z</time><ele>1030.4</ele></trkpt><trkpt lat="45.829224" lon="9.436504"><time>2024-03-23T09:21:01.000Z</time><ele>1030.4</ele></trkpt><trkpt lat="45.829224" lon="9.436504"><time>2024-03-23T09:21:02.000Z</time><ele>1030.6</ele></trkpt><trkpt lat="45.829224" lon="9.436503"><time>2024-03-23T09:21:03.000Z</time><ele>1030.8</ele></trkpt><trkpt lat="45.829225" lon="9.436503"><time>2024-03-23T09:21:04.000Z</time><ele>1031</ele></trkpt><trkpt lat="45.829225" lon="9.436503"><time>2024-03-23T09:21:05.000Z</time><ele>1031</ele></trkpt><trkpt lat="45.829225" lon="9.436503"><time>2024-03-23T09:21:06.000Z</time><ele>1031.4</ele></trkpt><trkpt lat="45.829225" lon="9.436502"><time>2024-03-23T09:21:07.000Z</time><ele>1031.4</ele></trkpt><trkpt lat="45.829226" lon="9.436502"><time>2024-03-23T09:21:08.000Z</time><ele>1031.6</ele></trkpt><trkpt lat="45.829226" lon="9.436502"><time>2024-03-23T09:21:09.000Z</time><ele>1031.8</ele></trkpt><trkpt lat="45.829226" lon="9.436501"><time>2024-03-23T09:21:10.000Z</time><ele>1032</ele></trkpt><trkpt lat="45.829226" lon="9.436501"><time>2024-03-23T09:21:11.000Z</time><ele>1032.4</ele></trkpt><trkpt lat="45.829226" lon="9.4365"><time>2024-03-23T09:21:12.000Z</time><ele>1032.4</ele></trkpt><trkpt lat="45.829227" lon="9.4365"><time>2024-03-23T09:21:13.000Z</time><ele>1032.6</ele></trkpt><trkpt lat="45.829227" lon="9.436498"><time>2024-03-23T09:21:14.000Z</time><ele>1032.6</ele></trkpt><trkpt lat="45.829228" lon="9.436497"><time>2024-03-23T09:21:15.000Z</time><ele>1032.8</ele></trkpt><trkpt lat="45.82923" lon="9.436495"><time>2024-03-23T09:21:16.000Z</time><ele>1032.8</ele></trkpt><trkpt lat="45.829232" lon="9.436493"><time>2024-03-23T09:21:17.000Z</time><ele>1032.8</ele></trkpt><trkpt lat="45.829234" lon="9.43649"><time>2024-03-23T09:21:18.000Z</time><ele>1033</ele></trkpt><trkpt lat="45.829235" lon="9.436487"><time>2024-03-23T09:21:19.000Z</time><ele>1033</ele></trkpt><trkpt lat="45.829237" lon="9.436483"><time>2024-03-23T09:21:20.000Z</time><ele>1033.4</ele></trkpt><trkpt lat="45.829238" lon="9.43648"><time>2024-03-23T09:21:21.000Z</time><ele>1033.4</ele></trkpt><trkpt lat="45.829239" lon="9.436477"><time>2024-03-23T09:21:22.000Z</time><ele>1033.6</ele></trkpt><trkpt lat="45.82924" lon="9.436473"><time>2024-03-23T09:21:23.000Z</time><ele>1033.8</ele></trkpt><trkpt lat="45.82924" lon="9.43647"><time>2024-03-23T09:21:24.000Z</time><ele>1033.8</ele></trkpt><trkpt lat="45.829241" lon="9.436467"><time>2024-03-23T09:21:25.000Z</time><ele>1034</ele></trkpt><trkpt lat="45.829242" lon="9.436464"><time>2024-03-23T09:21:26.000Z</time><ele>1034.2</ele></trkpt><trkpt lat="45.829242" lon="9.436461"><time>2024-03-23T09:21:27.000Z</time><ele>1034.4</ele></trkpt><trkpt lat="45.829243" lon="9.436457"><time>2024-03-23T09:21:28.000Z</time><ele>1034.6</ele></trkpt><trkpt lat="45.829245" lon="9.436454"><time>2024-03-23T09:21:29.000Z</time><ele>1034.6</ele></trkpt><trkpt lat="45.829246" lon="9.43645"><time>2024-03-23T09:21:30.000Z</time><ele>1034.6</ele></trkpt><trkpt lat="45.829247" lon="9.436446"><time>2024-03-23T09:21:31.000Z</time><ele>1034.8</ele></trkpt><trkpt lat="45.829248" lon="9.436442"><time>2024-03-23T09:21:32.000Z</time><ele>1034.8</ele></trkpt><trkpt lat="45.829249" lon="9.436438"><time>2024-03-23T09:21:33.000Z</time><ele>1035</ele></trkpt><trkpt lat="45.82925" lon="9.436435"><time>2024-03-23T09:21:34.000Z</time><ele>1035.2</ele></trkpt><trkpt lat="45.829251" lon="9.436431"><time>2024-03-23T09:21:35.000Z</time><ele>1035.2</ele></trkpt><trkpt lat="45.829252" lon="9.436428"><time>2024-03-23T09:21:36.000Z</time><ele>1035.4</ele></trkpt><trkpt lat="45.829253" lon="9.436425"><time>2024-03-23T09:21:37.000Z</time><ele>1035.6</ele></trkpt><trkpt lat="45.829254" lon="9.436422"><time>2024-03-23T09:21:38.000Z</time><ele>1035.8</ele></trkpt><trkpt lat="45.829255" lon="9.436419"><time>2024-03-23T09:21:39.000Z</time><ele>1036</ele></trkpt><trkpt lat="45.829256" lon="9.436417"><time>2024-03-23T09:21:40.000Z</time><ele>1036</ele></trkpt><trkpt lat="45.829257" lon="9.436414"><time>2024-03-23T09:21:41.000Z</time><ele>1036.2</ele></trkpt><trkpt lat="45.829257" lon="9.436412"><time>2024-03-23T09:21:42.000Z</time><ele>1036.2</ele></trkpt><trkpt lat="45.829258" lon="9.43641"><time>2024-03-23T09:21:43.000Z</time><ele>1036.2</ele></trkpt><trkpt lat="45.829258" lon="9.436408"><time>2024-03-23T09:21:44.000Z</time><ele>1036.2</ele></trkpt><trkpt lat="45.829259" lon="9.436406"><time>2024-03-23T09:21:45.000Z</time><ele>1036.4</ele></trkpt><trkpt lat="45.829259" lon="9.436405"><time>2024-03-23T09:21:46.000Z</time><ele>1036.4</ele></trkpt><trkpt lat="45.82926" lon="9.436404"><time>2024-03-23T09:21:47.000Z</time><ele>1036.6</ele></trkpt><trkpt lat="45.82926" lon="9.436404"><time>2024-03-23T09:21:48.000Z</time><ele>1036.6</ele></trkpt><trkpt lat="45.82926" lon="9.436403"><time>2024-03-23T09:21:49.000Z</time><ele>1036.8</ele></trkpt><trkpt lat="45.82926" lon="9.436403"><time>2024-03-23T09:21:50.000Z</time><ele>1037</ele></trkpt><trkpt lat="45.82926" lon="9.436403"><time>2024-03-23T09:21:51.000Z</time><ele>1037.2</ele></trkpt><trkpt lat="45.82926" lon="9.436403"><time>2024-03-23T09:21:52.000Z</time><ele>1037.4</ele></trkpt><trkpt lat="45.82926" lon="9.436402"><time>2024-03-23T09:21:53.000Z</time><ele>1037.4</ele></trkpt><trkpt lat="45.82926" lon="9.436402"><time>2024-03-23T09:21:54.000Z</time><ele>1037.6</ele></trkpt><trkpt lat="45.82926" lon="9.436402"><time>2024-03-23T09:21:55.000Z</time><ele>1037.8</ele></trkpt><trkpt lat="45.82926" lon="9.436402"><time>2024-03-23T09:21:56.000Z</time><ele>1037.8</ele></trkpt><trkpt lat="45.829261" lon="9.436401"><time>2024-03-23T09:21:57.000Z</time><ele>1038</ele></trkpt><trkpt lat="45.829261" lon="9.436401"><time>2024-03-23T09:21:58.000Z</time><ele>1038</ele></trkpt><trkpt lat="45.829261" lon="9.436401"><time>2024-03-23T09:21:59.000Z</time><ele>1038.2</ele></trkpt><trkpt lat="45.829261" lon="9.4364"><time>2024-03-23T09:22:00.000Z</time><ele>1038.6</ele></trkpt><trkpt lat="45.829261" lon="9.4364"><time>2024-03-23T09:22:01.000Z</time><ele>1038.6</ele></trkpt><trkpt lat="45.829261" lon="9.4364"><time>2024-03-23T09:22:02.000Z</time><ele>1038.8</ele></trkpt><trkpt lat="45.829261" lon="9.4364"><time>2024-03-23T09:22:03.000Z</time><ele>1039</ele></trkpt><trkpt lat="45.829261" lon="9.436399"><time>2024-03-23T09:22:04.000Z</time><ele>1039</ele></trkpt><trkpt lat="45.829262" lon="9.436399"><time>2024-03-23T09:22:05.000Z</time><ele>1039.2</ele></trkpt><trkpt lat="45.829262" lon="9.436399"><time>2024-03-23T09:22:06.000Z</time><ele>1039.4</ele></trkpt><trkpt lat="45.829262" lon="9.436398"><time>2024-03-23T09:22:07.000Z</time><ele>1039.4</ele></trkpt><trkpt lat="45.829262" lon="9.436398"><time>2024-03-23T09:22:08.000Z</time><ele>1039.6</ele></trkpt><trkpt lat="45.829262" lon="9.436398"><time>2024-03-23T09:22:09.000Z</time><ele>1039.6</ele></trkpt><trkpt lat="45.829263" lon="9.436398"><time>2024-03-23T09:22:10.000Z</time><ele>1039.6</ele></trkpt><trkpt lat="45.829263" lon="9.436397"><time>2024-03-23T09:22:11.000Z</time><ele>1040</ele></trkpt><trkpt lat="45.829263" lon="9.436397"><time>2024-03-23T09:22:12.000Z</time><ele>1040.2</ele></trkpt><trkpt lat="45.829263" lon="9.436396"><time>2024-03-23T09:22:13.000Z</time><ele>1040.4</ele></trkpt><trkpt lat="45.829263" lon="9.436396"><time>2024-03-23T09:22:14.000Z</time><ele>1040.4</ele></trkpt><trkpt lat="45.829263" lon="9.436396"><time>2024-03-23T09:22:15.000Z</time><ele>1040.4</ele></trkpt><trkpt lat="45.829263" lon="9.436395"><time>2024-03-23T09:22:16.000Z</time><ele>1040.4</ele></trkpt><trkpt lat="45.829264" lon="9.436395"><time>2024-03-23T09:22:17.000Z</time><ele>1040.4</ele></trkpt><trkpt lat="45.829264" lon="9.436395"><time>2024-03-23T09:22:18.000Z</time><ele>1040.6</ele></trkpt><trkpt lat="45.829264" lon="9.436395"><time>2024-03-23T09:22:19.000Z</time><ele>1040.6</ele></trkpt><trkpt lat="45.829264" lon="9.436394"><time>2024-03-23T09:22:20.000Z</time><ele>1040.6</ele></trkpt><trkpt lat="45.829264" lon="9.436394"><time>2024-03-23T09:22:21.000Z</time><ele>1040.6</ele></trkpt><trkpt lat="45.829265" lon="9.436394"><time>2024-03-23T09:22:22.000Z</time><ele>1040.6</ele></trkpt><trkpt lat="45.829265" lon="9.436393"><time>2024-03-23T09:22:23.000Z</time><ele>1040.6</ele></trkpt><trkpt lat="45.829265" lon="9.436393"><time>2024-03-23T09:22:24.000Z</time><ele>1040.6</ele></trkpt><trkpt lat="45.829266" lon="9.436393"><time>2024-03-23T09:22:25.000Z</time><ele>1040.8</ele></trkpt><trkpt lat="45.829266" lon="9.436393"><time>2024-03-23T09:22:26.000Z</time><ele>1040.8</ele></trkpt><trkpt lat="45.829266" lon="9.436392"><time>2024-03-23T09:22:27.000Z</time><ele>1040.8</ele></trkpt><trkpt lat="45.829266" lon="9.436392"><time>2024-03-23T09:22:28.000Z</time><ele>1040.8</ele></trkpt><trkpt lat="45.829266" lon="9.436392"><time>2024-03-23T09:22:29.000Z</time><ele>1040.6</ele></trkpt><trkpt lat="45.829266" lon="9.436392"><time>2024-03-23T09:22:30.000Z</time><ele>1040.6</ele></trkpt><trkpt lat="45.829266" lon="9.436391"><time>2024-03-23T09:22:31.000Z</time><ele>1040.6</ele></trkpt><trkpt lat="45.829267" lon="9.436391"><time>2024-03-23T09:22:32.000Z</time><ele>1040.6</ele></trkpt><trkpt lat="45.829267" lon="9.436391"><time>2024-03-23T09:22:33.000Z</time><ele>1040.6</ele></trkpt><trkpt lat="45.829267" lon="9.43639"><time>2024-03-23T09:22:34.000Z</time><ele>1040.6</ele></trkpt><trkpt lat="45.829267" lon="9.43639"><time>2024-03-23T09:22:35.000Z</time><ele>1040.6</ele></trkpt><trkpt lat="45.829267" lon="9.43639"><time>2024-03-23T09:22:36.000Z</time><ele>1040.6</ele></trkpt><trkpt lat="45.829267" lon="9.436389"><time>2024-03-23T09:22:37.000Z</time><ele>1040.8</ele></trkpt><trkpt lat="45.829267" lon="9.436389"><time>2024-03-23T09:22:38.000Z</time><ele>1040.8</ele></trkpt><trkpt lat="45.829268" lon="9.436389"><time>2024-03-23T09:22:39.000Z</time><ele>1041</ele></trkpt><trkpt lat="45.829268" lon="9.436388"><time>2024-03-23T09:22:40.000Z</time><ele>1041</ele></trkpt><trkpt lat="45.829268" lon="9.436388"><time>2024-03-23T09:22:41.000Z</time><ele>1041</ele></trkpt><trkpt lat="45.829268" lon="9.436388"><time>2024-03-23T09:22:42.000Z</time><ele>1041</ele></trkpt><trkpt lat="45.829268" lon="9.436388"><time>2024-03-23T09:22:43.000Z</time><ele>1041</ele></trkpt><trkpt lat="45.829268" lon="9.436387"><time>2024-03-23T09:22:44.000Z</time><ele>1041</ele></trkpt><trkpt lat="45.829268" lon="9.436387"><time>2024-03-23T09:22:45.000Z</time><ele>1040.8</ele></trkpt><trkpt lat="45.829269" lon="9.436387"><time>2024-03-23T09:22:46.000Z</time><ele>1040.8</ele></trkpt><trkpt lat="45.829269" lon="9.436386"><time>2024-03-23T09:22:47.000Z</time><ele>1040.8</ele></trkpt><trkpt lat="45.829269" lon="9.436386"><time>2024-03-23T09:22:48.000Z</time><ele>1040.8</ele></trkpt><trkpt lat="45.829269" lon="9.436386"><time>2024-03-23T09:22:49.000Z</time><ele>1040.8</ele></trkpt><trkpt lat="45.829269" lon="9.436386"><time>2024-03-23T09:22:50.000Z</time><ele>1040.8</ele></trkpt><trkpt lat="45.829269" lon="9.436385"><time>2024-03-23T09:22:51.000Z</time><ele>1040.8</ele></trkpt><trkpt lat="45.829269" lon="9.436385"><time>2024-03-23T09:22:52.000Z</time><ele>1040.8</ele></trkpt><trkpt lat="45.82927" lon="9.436385"><time>2024-03-23T09:22:53.000Z</time><ele>1040.8</ele></trkpt><trkpt lat="45.82927" lon="9.436384"><time>2024-03-23T09:22:54.000Z</time><ele>1041</ele></trkpt><trkpt lat="45.82927" lon="9.436384"><time>2024-03-23T09:22:55.000Z</time><ele>1041</ele></trkpt><trkpt lat="45.82927" lon="9.436384"><time>2024-03-23T09:22:56.000Z</time><ele>1041</ele></trkpt><trkpt lat="45.82927" lon="9.436384"><time>2024-03-23T09:22:57.000Z</time><ele>1041</ele></trkpt><trkpt lat="45.82927" lon="9.436383"><time>2024-03-23T09:22:58.000Z</time><ele>1041</ele></trkpt><trkpt lat="45.829271" lon="9.436383"><time>2024-03-23T09:22:59.000Z</time><ele>1041</ele></trkpt><trkpt lat="45.829271" lon="9.436383"><time>2024-03-23T09:23:00.000Z</time><ele>1041</ele></trkpt><trkpt lat="45.829271" lon="9.436383"><time>2024-03-23T09:23:01.000Z</time><ele>1041</ele></trkpt><trkpt lat="45.829271" lon="9.436382"><time>2024-03-23T09:23:02.000Z</time><ele>1041</ele></trkpt><trkpt lat="45.829271" lon="9.436382"><time>2024-03-23T09:23:03.000Z</time><ele>1041</ele></trkpt><trkpt lat="45.829272" lon="9.436382"><time>2024-03-23T09:23:04.000Z</time><ele>1041</ele></trkpt><trkpt lat="45.829272" lon="9.436381"><time>2024-03-23T09:23:05.000Z</time><ele>1041</ele></trkpt><trkpt lat="45.829272" lon="9.436381"><time>2024-03-23T09:23:06.000Z</time><ele>1040.8</ele></trkpt><trkpt lat="45.829272" lon="9.436381"><time>2024-03-23T09:23:07.000Z</time><ele>1040.8</ele></trkpt><trkpt lat="45.829272" lon="9.436381"><time>2024-03-23T09:23:08.000Z</time><ele>1040.8</ele></trkpt><trkpt lat="45.829272" lon="9.43638"><time>2024-03-23T09:23:09.000Z</time><ele>1040.8</ele></trkpt><trkpt lat="45.829272" lon="9.43638"><time>2024-03-23T09:23:10.000Z</time><ele>1040.8</ele></trkpt><trkpt lat="45.829273" lon="9.43638"><time>2024-03-23T09:23:11.000Z</time><ele>1040.8</ele></trkpt><trkpt lat="45.829273" lon="9.43638"><time>2024-03-23T09:23:12.000Z</time><ele>1040.8</ele></trkpt><trkpt lat="45.829273" lon="9.436379"><time>2024-03-23T09:23:13.000Z</time><ele>1040.8</ele></trkpt><trkpt lat="45.829273" lon="9.436379"><time>2024-03-23T09:23:14.000Z</time><ele>1041</ele></trkpt><trkpt lat="45.829273" lon="9.436379"><time>2024-03-23T09:23:15.000Z</time><ele>1041</ele></trkpt><trkpt lat="45.829273" lon="9.436379"><time>2024-03-23T09:23:16.000Z</time><ele>1041.2</ele></trkpt><trkpt lat="45.829273" lon="9.436378"><time>2024-03-23T09:23:17.000Z</time><ele>1041.2</ele></trkpt><trkpt lat="45.829274" lon="9.436378"><time>2024-03-23T09:23:18.000Z</time><ele>1041.2</ele></trkpt><trkpt lat="45.829274" lon="9.436378"><time>2024-03-23T09:23:19.000Z</time><ele>1041.4</ele></trkpt><trkpt lat="45.829274" lon="9.436378"><time>2024-03-23T09:23:20.000Z</time><ele>1041.4</ele></trkpt><trkpt lat="45.829274" lon="9.436377"><time>2024-03-23T09:23:21.000Z</time><ele>1041.6</ele></trkpt><trkpt lat="45.829274" lon="9.436377"><time>2024-03-23T09:23:22.000Z</time><ele>1041.6</ele></trkpt><trkpt lat="45.829274" lon="9.436377"><time>2024-03-23T09:23:23.000Z</time><ele>1041.8</ele></trkpt><trkpt lat="45.829275" lon="9.436377"><time>2024-03-23T09:23:24.000Z</time><ele>1041.8</ele></trkpt><trkpt lat="45.829275" lon="9.436376"><time>2024-03-23T09:23:25.000Z</time><ele>1042</ele></trkpt><trkpt lat="45.829275" lon="9.436376"><time>2024-03-23T09:23:26.000Z</time><ele>1042</ele></trkpt><trkpt lat="45.829275" lon="9.436376"><time>2024-03-23T09:23:27.000Z</time><ele>1042</ele></trkpt><trkpt lat="45.829275" lon="9.436376"><time>2024-03-23T09:23:28.000Z</time><ele>1042.2</ele></trkpt><trkpt lat="45.829276" lon="9.436376"><time>2024-03-23T09:23:29.000Z</time><ele>1042.2</ele></trkpt><trkpt lat="45.829276" lon="9.436376"><time>2024-03-23T09:23:30.000Z</time><ele>1042.2</ele></trkpt><trkpt lat="45.829276" lon="9.436375"><time>2024-03-23T09:23:31.000Z</time><ele>1042.4</ele></trkpt><trkpt lat="45.829276" lon="9.436375"><time>2024-03-23T09:23:32.000Z</time><ele>1042.4</ele></trkpt><trkpt lat="45.829277" lon="9.436375"><time>2024-03-23T09:23:33.000Z</time><ele>1042.4</ele></trkpt><trkpt lat="45.829277" lon="9.436375"><time>2024-03-23T09:23:34.000Z</time><ele>1042.4</ele></trkpt><trkpt lat="45.829277" lon="9.436375"><time>2024-03-23T09:23:35.000Z</time><ele>1042.6</ele></trkpt><trkpt lat="45.829277" lon="9.436375"><time>2024-03-23T09:23:36.000Z</time><ele>1042.6</ele></trkpt><trkpt lat="45.829278" lon="9.436374"><time>2024-03-23T09:23:37.000Z</time><ele>1042.6</ele></trkpt><trkpt lat="45.829278" lon="9.436374"><time>2024-03-23T09:23:38.000Z</time><ele>1042.6</ele></trkpt><trkpt lat="45.829278" lon="9.436374"><time>2024-03-23T09:23:39.000Z</time><ele>1042.6</ele></trkpt><trkpt lat="45.829279" lon="9.436374"><time>2024-03-23T09:23:40.000Z</time><ele>1042.6</ele></trkpt><trkpt lat="45.829302" lon="9.436362"><time>2024-03-23T09:23:41.000Z</time><ele>1042.8</ele></trkpt><trkpt lat="45.829331" lon="9.436347"><time>2024-03-23T09:23:42.000Z</time><ele>1042.8</ele></trkpt><trkpt lat="45.82936" lon="9.436334"><time>2024-03-23T09:23:43.000Z</time><ele>1042.8</ele></trkpt><trkpt lat="45.829389" lon="9.43632"><time>2024-03-23T09:23:44.000Z</time><ele>1042.8</ele></trkpt><trkpt lat="45.829419" lon="9.436306"><time>2024-03-23T09:23:45.000Z</time><ele>1042.8</ele></trkpt><trkpt lat="45.829448" lon="9.436292"><time>2024-03-23T09:23:46.000Z</time><ele>1042.8</ele></trkpt><trkpt lat="45.829477" lon="9.436278"><time>2024-03-23T09:23:47.000Z</time><ele>1042.8</ele></trkpt><trkpt lat="45.829503" lon="9.436265"><time>2024-03-23T09:23:48.000Z</time><ele>1042.8</ele></trkpt><trkpt lat="45.829532" lon="9.43625"><time>2024-03-23T09:23:49.000Z</time><ele>1042.8</ele></trkpt><trkpt lat="45.829562" lon="9.436234"><time>2024-03-23T09:23:50.000Z</time><ele>1042.8</ele></trkpt><trkpt lat="45.829569" lon="9.436231"><time>2024-03-23T09:23:51.000Z</time><ele>1042.8</ele></trkpt><trkpt lat="45.829572" lon="9.436226"><time>2024-03-23T09:23:52.000Z</time><ele>1042.8</ele></trkpt><trkpt lat="45.829578" lon="9.436218"><time>2024-03-23T09:23:53.000Z</time><ele>1042.8</ele></trkpt><trkpt lat="45.82958" lon="9.436214"><time>2024-03-23T09:23:54.000Z</time><ele>1042.8</ele></trkpt><trkpt lat="45.82958" lon="9.436212"><time>2024-03-23T09:23:55.000Z</time><ele>1042.8</ele></trkpt><trkpt lat="45.829579" lon="9.436212"><time>2024-03-23T09:23:56.000Z</time><ele>1042.8</ele></trkpt><trkpt lat="45.829579" lon="9.436212"><time>2024-03-23T09:23:57.000Z</time><ele>1042.8</ele></trkpt><trkpt lat="45.829578" lon="9.436214"><time>2024-03-23T09:23:58.000Z</time><ele>1042.8</ele></trkpt><trkpt lat="45.829577" lon="9.436214"><time>2024-03-23T09:23:59.000Z</time><ele>1042.8</ele></trkpt><trkpt lat="45.829575" lon="9.436215"><time>2024-03-23T09:24:00.000Z</time><ele>1042.6</ele></trkpt><trkpt lat="45.829575" lon="9.436214"><time>2024-03-23T09:24:01.000Z</time><ele>1042.6</ele></trkpt><trkpt lat="45.829575" lon="9.436213"><time>2024-03-23T09:24:02.000Z</time><ele>1042.6</ele></trkpt><trkpt lat="45.829575" lon="9.436213"><time>2024-03-23T09:24:03.000Z</time><ele>1042.6</ele></trkpt><trkpt lat="45.829575" lon="9.436213"><time>2024-03-23T09:24:04.000Z</time><ele>1042.6</ele></trkpt><trkpt lat="45.829575" lon="9.436213"><time>2024-03-23T09:24:05.000Z</time><ele>1042.8</ele></trkpt><trkpt lat="45.829575" lon="9.436213"><time>2024-03-23T09:24:06.000Z</time><ele>1042.8</ele></trkpt><trkpt lat="45.829575" lon="9.436213"><time>2024-03-23T09:24:07.000Z</time><ele>1043</ele></trkpt><trkpt lat="45.829575" lon="9.436213"><time>2024-03-23T09:24:08.000Z</time><ele>1043</ele></trkpt><trkpt lat="45.829575" lon="9.436213"><time>2024-03-23T09:24:09.000Z</time><ele>1043</ele></trkpt><trkpt lat="45.829575" lon="9.436213"><time>2024-03-23T09:24:10.000Z</time><ele>1043.2</ele></trkpt><trkpt lat="45.829575" lon="9.436213"><time>2024-03-23T09:24:11.000Z</time><ele>1043.2</ele></trkpt><trkpt lat="45.829575" lon="9.436213"><time>2024-03-23T09:24:12.000Z</time><ele>1043.2</ele></trkpt><trkpt lat="45.829575" lon="9.436213"><time>2024-03-23T09:24:13.000Z</time><ele>1043.2</ele></trkpt><trkpt lat="45.829575" lon="9.436213"><time>2024-03-23T09:24:14.000Z</time><ele>1043.2</ele></trkpt><trkpt lat="45.829575" lon="9.436213"><time>2024-03-23T09:24:15.000Z</time><ele>1043.2</ele></trkpt><trkpt lat="45.829575" lon="9.436213"><time>2024-03-23T09:24:16.000Z</time><ele>1043.2</ele></trkpt><trkpt lat="45.829575" lon="9.436214"><time>2024-03-23T09:24:17.000Z</time><ele>1043.2</ele></trkpt><trkpt lat="45.829575" lon="9.436214"><time>2024-03-23T09:24:18.000Z</time><ele>1043.4</ele></trkpt><trkpt lat="45.829575" lon="9.436214"><time>2024-03-23T09:24:19.000Z</time><ele>1043.4</ele></trkpt><trkpt lat="45.829575" lon="9.436214"><time>2024-03-23T09:24:20.000Z</time><ele>1043.4</ele></trkpt><trkpt lat="45.829575" lon="9.436215"><time>2024-03-23T09:24:21.000Z</time><ele>1043.4</ele></trkpt><trkpt lat="45.829575" lon="9.436216"><time>2024-03-23T09:24:22.000Z</time><ele>1043.4</ele></trkpt><trkpt lat="45.829575" lon="9.43622"><time>2024-03-23T09:24:23.000Z</time><ele>1043.4</ele></trkpt><trkpt lat="45.829573" lon="9.436222"><time>2024-03-23T09:24:24.000Z</time><ele>1043.2</ele></trkpt><trkpt lat="45.829571" lon="9.436224"><time>2024-03-23T09:24:25.000Z</time><ele>1043.2</ele></trkpt><trkpt lat="45.82957" lon="9.436228"><time>2024-03-23T09:24:26.000Z</time><ele>1043.2</ele></trkpt><trkpt lat="45.829569" lon="9.436232"><time>2024-03-23T09:24:27.000Z</time><ele>1043</ele></trkpt><trkpt lat="45.829568" lon="9.436233"><time>2024-03-23T09:24:28.000Z</time><ele>1043</ele></trkpt><trkpt lat="45.829567" lon="9.436234"><time>2024-03-23T09:24:29.000Z</time><ele>1043</ele></trkpt><trkpt lat="45.829566" lon="9.436235"><time>2024-03-23T09:24:30.000Z</time><ele>1043</ele></trkpt><trkpt lat="45.829566" lon="9.436235"><time>2024-03-23T09:24:31.000Z</time><ele>1043</ele></trkpt><trkpt lat="45.829565" lon="9.436235"><time>2024-03-23T09:24:32.000Z</time><ele>1043</ele></trkpt><trkpt lat="45.829564" lon="9.436235"><time>2024-03-23T09:24:33.000Z</time><ele>1043</ele></trkpt><trkpt lat="45.829564" lon="9.436236"><time>2024-03-23T09:24:34.000Z</time><ele>1043</ele></trkpt><trkpt lat="45.829563" lon="9.436236"><time>2024-03-23T09:24:35.000Z</time><ele>1043</ele></trkpt><trkpt lat="45.829563" lon="9.436237"><time>2024-03-23T09:24:36.000Z</time><ele>1043</ele></trkpt><trkpt lat="45.829563" lon="9.436237"><time>2024-03-23T09:24:37.000Z</time><ele>1043</ele></trkpt><trkpt lat="45.829562" lon="9.436238"><time>2024-03-23T09:24:38.000Z</time><ele>1043</ele></trkpt><trkpt lat="45.829562" lon="9.436238"><time>2024-03-23T09:24:39.000Z</time><ele>1043.2</ele></trkpt><trkpt lat="45.829562" lon="9.436238"><time>2024-03-23T09:24:40.000Z</time><ele>1043.2</ele></trkpt><trkpt lat="45.829562" lon="9.436238"><time>2024-03-23T09:24:41.000Z</time><ele>1043.2</ele></trkpt><trkpt lat="45.829561" lon="9.436238"><time>2024-03-23T09:24:42.000Z</time><ele>1043.2</ele></trkpt><trkpt lat="45.829561" lon="9.436238"><time>2024-03-23T09:24:43.000Z</time><ele>1043.2</ele></trkpt><trkpt lat="45.829561" lon="9.436238"><time>2024-03-23T09:24:44.000Z</time><ele>1043.2</ele></trkpt><trkpt lat="45.829561" lon="9.436238"><time>2024-03-23T09:24:45.000Z</time><ele>1043</ele></trkpt><trkpt lat="45.829561" lon="9.436238"><time>2024-03-23T09:24:46.000Z</time><ele>1043</ele></trkpt><trkpt lat="45.829561" lon="9.436238"><time>2024-03-23T09:24:47.000Z</time><ele>1043</ele></trkpt><trkpt lat="45.829561" lon="9.436238"><time>2024-03-23T09:24:48.000Z</time><ele>1042.6</ele></trkpt><trkpt lat="45.829561" lon="9.436238"><time>2024-03-23T09:24:49.000Z</time><ele>1042.4</ele></trkpt><trkpt lat="45.829561" lon="9.436238"><time>2024-03-23T09:24:50.000Z</time><ele>1042.4</ele></trkpt><trkpt lat="45.829561" lon="9.436238"><time>2024-03-23T09:24:51.000Z</time><ele>1042.2</ele></trkpt><trkpt lat="45.829562" lon="9.436238"><time>2024-03-23T09:24:52.000Z</time><ele>1042.2</ele></trkpt><trkpt lat="45.829562" lon="9.436238"><time>2024-03-23T09:24:53.000Z</time><ele>1042</ele></trkpt><trkpt lat="45.829562" lon="9.436234"><time>2024-03-23T09:24:54.000Z</time><ele>1041.8</ele></trkpt><trkpt lat="45.829563" lon="9.436231"><time>2024-03-23T09:24:55.000Z</time><ele>1041.8</ele></trkpt><trkpt lat="45.829564" lon="9.436229"><time>2024-03-23T09:24:56.000Z</time><ele>1041.4</ele></trkpt><trkpt lat="45.829564" lon="9.436227"><time>2024-03-23T09:24:57.000Z</time><ele>1041.2</ele></trkpt><trkpt lat="45.829568" lon="9.436226"><time>2024-03-23T09:24:58.000Z</time><ele>1041</ele></trkpt><trkpt lat="45.829578" lon="9.436227"><time>2024-03-23T09:24:59.000Z</time><ele>1040.8</ele></trkpt><trkpt lat="45.829595" lon="9.436227"><time>2024-03-23T09:25:00.000Z</time><ele>1040.8</ele></trkpt><trkpt lat="45.82961" lon="9.436227"><time>2024-03-23T09:25:01.000Z</time><ele>1040.6</ele></trkpt><trkpt lat="45.829627" lon="9.436226"><time>2024-03-23T09:25:02.000Z</time><ele>1040.6</ele></trkpt><trkpt lat="45.829641" lon="9.436229"><time>2024-03-23T09:25:03.000Z</time><ele>1040.6</ele></trkpt><trkpt lat="45.829659" lon="9.436234"><time>2024-03-23T09:25:04.000Z</time><ele>1040.4</ele></trkpt><trkpt lat="45.829677" lon="9.436237"><time>2024-03-23T09:25:05.000Z</time><ele>1040.2</ele></trkpt><trkpt lat="45.829695" lon="9.436238"><time>2024-03-23T09:25:06.000Z</time><ele>1039.8</ele></trkpt><trkpt lat="45.829713" lon="9.436236"><time>2024-03-23T09:25:07.000Z</time><ele>1039.6</ele></trkpt><trkpt lat="45.82973" lon="9.436238"><time>2024-03-23T09:25:08.000Z</time><ele>1039.4</ele></trkpt><trkpt lat="45.829736" lon="9.436239"><time>2024-03-23T09:25:09.000Z</time><ele>1039.4</ele></trkpt><trkpt lat="45.829742" lon="9.436242"><time>2024-03-23T09:25:10.000Z</time><ele>1039.2</ele></trkpt><trkpt lat="45.829746" lon="9.43624"><time>2024-03-23T09:25:11.000Z</time><ele>1038.8</ele></trkpt><trkpt lat="45.829752" lon="9.436236"><time>2024-03-23T09:25:12.000Z</time><ele>1038.6</ele></trkpt><trkpt lat="45.82976" lon="9.436234"><time>2024-03-23T09:25:13.000Z</time><ele>1038.4</ele></trkpt><trkpt lat="45.829769" lon="9.436235"><time>2024-03-23T09:25:14.000Z</time><ele>1038.2</ele></trkpt><trkpt lat="45.829772" lon="9.436233"><time>2024-03-23T09:25:15.000Z</time><ele>1038</ele></trkpt><trkpt lat="45.829773" lon="9.436232"><time>2024-03-23T09:25:16.000Z</time><ele>1037.8</ele></trkpt><trkpt lat="45.829773" lon="9.436233"><time>2024-03-23T09:25:17.000Z</time><ele>1037.8</ele></trkpt><trkpt lat="45.829773" lon="9.436232"><time>2024-03-23T09:25:18.000Z</time><ele>1037.6</ele></trkpt><trkpt lat="45.829773" lon="9.436229"><time>2024-03-23T09:25:19.000Z</time><ele>1037.6</ele></trkpt><trkpt lat="45.829772" lon="9.436228"><time>2024-03-23T09:25:20.000Z</time><ele>1037.6</ele></trkpt><trkpt lat="45.829771" lon="9.436228"><time>2024-03-23T09:25:21.000Z</time><ele>1037.6</ele></trkpt><trkpt lat="45.82977" lon="9.436227"><time>2024-03-23T09:25:22.000Z</time><ele>1037.4</ele></trkpt><trkpt lat="45.829771" lon="9.436228"><time>2024-03-23T09:25:23.000Z</time><ele>1037.4</ele></trkpt><trkpt lat="45.829771" lon="9.436229"><time>2024-03-23T09:25:24.000Z</time><ele>1037.4</ele></trkpt><trkpt lat="45.829771" lon="9.436229"><time>2024-03-23T09:25:25.000Z</time><ele>1037.6</ele></trkpt><trkpt lat="45.829771" lon="9.436229"><time>2024-03-23T09:25:26.000Z</time><ele>1037.6</ele></trkpt><trkpt lat="45.829771" lon="9.436229"><time>2024-03-23T09:25:27.000Z</time><ele>1037.8</ele></trkpt><trkpt lat="45.829771" lon="9.436229"><time>2024-03-23T09:25:28.000Z</time><ele>1038</ele></trkpt><trkpt lat="45.829771" lon="9.436229"><time>2024-03-23T09:25:29.000Z</time><ele>1038</ele></trkpt><trkpt lat="45.829771" lon="9.436229"><time>2024-03-23T09:25:30.000Z</time><ele>1038</ele></trkpt><trkpt lat="45.829771" lon="9.436229"><time>2024-03-23T09:25:31.000Z</time><ele>1038</ele></trkpt><trkpt lat="45.829771" lon="9.436229"><time>2024-03-23T09:25:32.000Z</time><ele>1038</ele></trkpt><trkpt lat="45.829771" lon="9.436229"><time>2024-03-23T09:25:33.000Z</time><ele>1038</ele></trkpt><trkpt lat="45.829771" lon="9.436229"><time>2024-03-23T09:25:34.000Z</time><ele>1038</ele></trkpt><trkpt lat="45.829771" lon="9.436229"><time>2024-03-23T09:25:35.000Z</time><ele>1038</ele></trkpt><trkpt lat="45.829771" lon="9.436229"><time>2024-03-23T09:25:36.000Z</time><ele>1037.8</ele></trkpt><trkpt lat="45.829771" lon="9.43623"><time>2024-03-23T09:25:37.000Z</time><ele>1037.8</ele></trkpt><trkpt lat="45.829772" lon="9.436231"><time>2024-03-23T09:25:38.000Z</time><ele>1037.8</ele></trkpt><trkpt lat="45.829772" lon="9.436231"><time>2024-03-23T09:25:39.000Z</time><ele>1037.8</ele></trkpt><trkpt lat="45.829772" lon="9.436231"><time>2024-03-23T09:25:40.000Z</time><ele>1037.8</ele></trkpt><trkpt lat="45.829772" lon="9.436231"><time>2024-03-23T09:25:41.000Z</time><ele>1037.8</ele></trkpt><trkpt lat="45.829772" lon="9.436231"><time>2024-03-23T09:25:42.000Z</time><ele>1037.8</ele></trkpt><trkpt lat="45.829773" lon="9.436231"><time>2024-03-23T09:25:43.000Z</time><ele>1037.6</ele></trkpt><trkpt lat="45.829773" lon="9.436231"><time>2024-03-23T09:25:44.000Z</time><ele>1037.6</ele></trkpt><trkpt lat="45.829773" lon="9.436231"><time>2024-03-23T09:25:45.000Z</time><ele>1037.6</ele></trkpt><trkpt lat="45.829774" lon="9.436231"><time>2024-03-23T09:25:46.000Z</time><ele>1037.6</ele></trkpt><trkpt lat="45.829774" lon="9.43623"><time>2024-03-23T09:25:47.000Z</time><ele>1037.8</ele></trkpt><trkpt lat="45.829774" lon="9.436229"><time>2024-03-23T09:25:48.000Z</time><ele>1037.8</ele></trkpt><trkpt lat="45.829774" lon="9.436229"><time>2024-03-23T09:25:49.000Z</time><ele>1037.8</ele></trkpt><trkpt lat="45.829774" lon="9.43623"><time>2024-03-23T09:25:50.000Z</time><ele>1038</ele></trkpt><trkpt lat="45.829775" lon="9.43623"><time>2024-03-23T09:25:51.000Z</time><ele>1038</ele></trkpt><trkpt lat="45.829775" lon="9.436231"><time>2024-03-23T09:25:52.000Z</time><ele>1038</ele></trkpt><trkpt lat="45.829775" lon="9.436231"><time>2024-03-23T09:25:53.000Z</time><ele>1038</ele></trkpt><trkpt lat="45.829775" lon="9.436231"><time>2024-03-23T09:25:54.000Z</time><ele>1037.8</ele></trkpt><trkpt lat="45.829775" lon="9.436231"><time>2024-03-23T09:25:55.000Z</time><ele>1037.8</ele></trkpt><trkpt lat="45.829775" lon="9.436231"><time>2024-03-23T09:25:56.000Z</time><ele>1037.6</ele></trkpt><trkpt lat="45.829775" lon="9.43623"><time>2024-03-23T09:25:57.000Z</time><ele>1037.6</ele></trkpt><trkpt lat="45.82978" lon="9.436231"><time>2024-03-23T09:25:58.000Z</time><ele>1037.6</ele></trkpt><trkpt lat="45.829792" lon="9.43623"><time>2024-03-23T09:25:59.000Z</time><ele>1037.4</ele></trkpt><trkpt lat="45.829802" lon="9.436233"><time>2024-03-23T09:26:00.000Z</time><ele>1037.2</ele></trkpt><trkpt lat="45.829814" lon="9.43624"><time>2024-03-23T09:26:01.000Z</time><ele>1037</ele></trkpt><trkpt lat="45.829825" lon="9.436248"><time>2024-03-23T09:26:02.000Z</time><ele>1037</ele></trkpt><trkpt lat="45.829839" lon="9.436254"><time>2024-03-23T09:26:03.000Z</time><ele>1037</ele></trkpt><trkpt lat="45.829852" lon="9.436254"><time>2024-03-23T09:26:04.000Z</time><ele>1036.8</ele></trkpt><trkpt lat="45.829866" lon="9.436253"><time>2024-03-23T09:26:05.000Z</time><ele>1036.8</ele></trkpt><trkpt lat="45.829882" lon="9.436251"><time>2024-03-23T09:26:06.000Z</time><ele>1036.8</ele></trkpt><trkpt lat="45.829893" lon="9.43625"><time>2024-03-23T09:26:07.000Z</time><ele>1036.8</ele></trkpt><trkpt lat="45.829903" lon="9.436247"><time>2024-03-23T09:26:08.000Z</time><ele>1036.6</ele></trkpt><trkpt lat="45.829913" lon="9.436244"><time>2024-03-23T09:26:09.000Z</time><ele>1036.8</ele></trkpt><trkpt lat="45.829923" lon="9.436239"><time>2024-03-23T09:26:10.000Z</time><ele>1036.8</ele></trkpt><trkpt lat="45.829933" lon="9.436236"><time>2024-03-23T09:26:11.000Z</time><ele>1036.8</ele></trkpt><trkpt lat="45.829938" lon="9.436232"><time>2024-03-23T09:26:12.000Z</time><ele>1036.8</ele></trkpt><trkpt lat="45.829944" lon="9.43623"><time>2024-03-23T09:26:13.000Z</time><ele>1036.8</ele></trkpt><trkpt lat="45.829952" lon="9.436227"><time>2024-03-23T09:26:14.000Z</time><ele>1037</ele></trkpt><trkpt lat="45.829958" lon="9.436224"><time>2024-03-23T09:26:15.000Z</time><ele>1037</ele></trkpt><trkpt lat="45.829966" lon="9.436217"><time>2024-03-23T09:26:16.000Z</time><ele>1037.2</ele></trkpt><trkpt lat="45.82997" lon="9.436211"><time>2024-03-23T09:26:17.000Z</time><ele>1037.2</ele></trkpt><trkpt lat="45.829974" lon="9.43621"><time>2024-03-23T09:26:18.000Z</time><ele>1037.4</ele></trkpt><trkpt lat="45.829985" lon="9.436209"><time>2024-03-23T09:26:19.000Z</time><ele>1037.6</ele></trkpt><trkpt lat="45.829996" lon="9.436211"><time>2024-03-23T09:26:20.000Z</time><ele>1037.6</ele></trkpt><trkpt lat="45.830005" lon="9.436214"><time>2024-03-23T09:26:21.000Z</time><ele>1037.8</ele></trkpt><trkpt lat="45.830016" lon="9.436213"><time>2024-03-23T09:26:22.000Z</time><ele>1037.8</ele></trkpt><trkpt lat="45.830026" lon="9.436216"><time>2024-03-23T09:26:23.000Z</time><ele>1037.8</ele></trkpt><trkpt lat="45.830037" lon="9.436219"><time>2024-03-23T09:26:24.000Z</time><ele>1037.8</ele></trkpt><trkpt lat="45.830045" lon="9.436222"><time>2024-03-23T09:26:25.000Z</time><ele>1037.8</ele></trkpt><trkpt lat="45.830049" lon="9.436219"><time>2024-03-23T09:26:26.000Z</time><ele>1038</ele></trkpt><trkpt lat="45.830056" lon="9.436216"><time>2024-03-23T09:26:27.000Z</time><ele>1038</ele></trkpt><trkpt lat="45.830064" lon="9.436213"><time>2024-03-23T09:26:28.000Z</time><ele>1038.2</ele></trkpt><trkpt lat="45.830071" lon="9.436211"><time>2024-03-23T09:26:29.000Z</time><ele>1038.2</ele></trkpt><trkpt lat="45.830075" lon="9.436206"><time>2024-03-23T09:26:30.000Z</time><ele>1038.2</ele></trkpt><trkpt lat="45.830078" lon="9.436202"><time>2024-03-23T09:26:31.000Z</time><ele>1038.2</ele></trkpt><trkpt lat="45.830082" lon="9.436195"><time>2024-03-23T09:26:32.000Z</time><ele>1038.4</ele></trkpt><trkpt lat="45.830083" lon="9.43619"><time>2024-03-23T09:26:33.000Z</time><ele>1038.6</ele></trkpt><trkpt lat="45.830086" lon="9.436186"><time>2024-03-23T09:26:34.000Z</time><ele>1038.8</ele></trkpt><trkpt lat="45.83009" lon="9.436186"><time>2024-03-23T09:26:35.000Z</time><ele>1038.8</ele></trkpt><trkpt lat="45.83009" lon="9.436189"><time>2024-03-23T09:26:36.000Z</time><ele>1039</ele></trkpt><trkpt lat="45.830091" lon="9.43619"><time>2024-03-23T09:26:37.000Z</time><ele>1039.2</ele></trkpt><trkpt lat="45.830093" lon="9.43619"><time>2024-03-23T09:26:38.000Z</time><ele>1039.2</ele></trkpt><trkpt lat="45.830096" lon="9.436194"><time>2024-03-23T09:26:39.000Z</time><ele>1039.4</ele></trkpt><trkpt lat="45.830099" lon="9.436194"><time>2024-03-23T09:26:40.000Z</time><ele>1039.6</ele></trkpt><trkpt lat="45.830104" lon="9.436193"><time>2024-03-23T09:26:41.000Z</time><ele>1039.8</ele></trkpt><trkpt lat="45.830106" lon="9.436193"><time>2024-03-23T09:26:42.000Z</time><ele>1040</ele></trkpt><trkpt lat="45.830111" lon="9.436191"><time>2024-03-23T09:26:43.000Z</time><ele>1040.2</ele></trkpt><trkpt lat="45.830113" lon="9.436189"><time>2024-03-23T09:26:44.000Z</time><ele>1040.4</ele></trkpt><trkpt lat="45.830116" lon="9.436189"><time>2024-03-23T09:26:45.000Z</time><ele>1040.6</ele></trkpt><trkpt lat="45.830119" lon="9.436189"><time>2024-03-23T09:26:46.000Z</time><ele>1040.8</ele></trkpt><trkpt lat="45.830122" lon="9.436189"><time>2024-03-23T09:26:47.000Z</time><ele>1041</ele></trkpt><trkpt lat="45.830126" lon="9.436186"><time>2024-03-23T09:26:48.000Z</time><ele>1041</ele></trkpt><trkpt lat="45.830132" lon="9.436189"><time>2024-03-23T09:26:49.000Z</time><ele>1041.2</ele></trkpt><trkpt lat="45.830134" lon="9.436192"><time>2024-03-23T09:26:50.000Z</time><ele>1041.4</ele></trkpt><trkpt lat="45.83014" lon="9.436199"><time>2024-03-23T09:26:51.000Z</time><ele>1041.6</ele></trkpt><trkpt lat="45.830146" lon="9.436201"><time>2024-03-23T09:26:52.000Z</time><ele>1041.8</ele></trkpt><trkpt lat="45.830154" lon="9.436201"><time>2024-03-23T09:26:53.000Z</time><ele>1042</ele></trkpt><trkpt lat="45.830157" lon="9.4362"><time>2024-03-23T09:26:54.000Z</time><ele>1042.2</ele></trkpt><trkpt lat="45.830163" lon="9.436199"><time>2024-03-23T09:26:55.000Z</time><ele>1042.4</ele></trkpt><trkpt lat="45.830168" lon="9.436198"><time>2024-03-23T09:26:56.000Z</time><ele>1042.6</ele></trkpt><trkpt lat="45.830174" lon="9.436197"><time>2024-03-23T09:26:57.000Z</time><ele>1042.6</ele></trkpt><trkpt lat="45.830183" lon="9.436198"><time>2024-03-23T09:26:58.000Z</time><ele>1042.8</ele></trkpt><trkpt lat="45.830191" lon="9.436197"><time>2024-03-23T09:26:59.000Z</time><ele>1042.8</ele></trkpt><trkpt lat="45.830201" lon="9.436196"><time>2024-03-23T09:27:00.000Z</time><ele>1043</ele></trkpt><trkpt lat="45.830208" lon="9.436195"><time>2024-03-23T09:27:01.000Z</time><ele>1043</ele></trkpt><trkpt lat="45.830216" lon="9.436192"><time>2024-03-23T09:27:02.000Z</time><ele>1043</ele></trkpt><trkpt lat="45.830221" lon="9.436189"><time>2024-03-23T09:27:03.000Z</time><ele>1043</ele></trkpt><trkpt lat="45.830224" lon="9.436184"><time>2024-03-23T09:27:04.000Z</time><ele>1043.2</ele></trkpt><trkpt lat="45.830227" lon="9.436179"><time>2024-03-23T09:27:05.000Z</time><ele>1043.4</ele></trkpt><trkpt lat="45.830229" lon="9.436175"><time>2024-03-23T09:27:06.000Z</time><ele>1043.6</ele></trkpt><trkpt lat="45.830232" lon="9.436171"><time>2024-03-23T09:27:07.000Z</time><ele>1044</ele></trkpt><trkpt lat="45.830237" lon="9.436169"><time>2024-03-23T09:27:08.000Z</time><ele>1044</ele></trkpt><trkpt lat="45.83024" lon="9.436161"><time>2024-03-23T09:27:09.000Z</time><ele>1044.2</ele></trkpt><trkpt lat="45.830244" lon="9.436157"><time>2024-03-23T09:27:10.000Z</time><ele>1044.2</ele></trkpt><trkpt lat="45.830249" lon="9.43615"><time>2024-03-23T09:27:11.000Z</time><ele>1044.2</ele></trkpt><trkpt lat="45.830253" lon="9.436146"><time>2024-03-23T09:27:12.000Z</time><ele>1044</ele></trkpt><trkpt lat="45.830256" lon="9.436143"><time>2024-03-23T09:27:13.000Z</time><ele>1044</ele></trkpt><trkpt lat="45.83026" lon="9.436141"><time>2024-03-23T09:27:14.000Z</time><ele>1044</ele></trkpt><trkpt lat="45.830268" lon="9.436142"><time>2024-03-23T09:27:15.000Z</time><ele>1043.8</ele></trkpt><trkpt lat="45.830274" lon="9.436148"><time>2024-03-23T09:27:16.000Z</time><ele>1043.6</ele></trkpt><trkpt lat="45.83028" lon="9.436156"><time>2024-03-23T09:27:17.000Z</time><ele>1043.4</ele></trkpt><trkpt lat="45.830286" lon="9.436163"><time>2024-03-23T09:27:18.000Z</time><ele>1043.4</ele></trkpt><trkpt lat="45.830294" lon="9.436172"><time>2024-03-23T09:27:19.000Z</time><ele>1043.2</ele></trkpt><trkpt lat="45.8303" lon="9.436178"><time>2024-03-23T09:27:20.000Z</time><ele>1043</ele></trkpt><trkpt lat="45.830304" lon="9.436184"><time>2024-03-23T09:27:21.000Z</time><ele>1043</ele></trkpt><trkpt lat="45.830311" lon="9.436187"><time>2024-03-23T09:27:22.000Z</time><ele>1042.8</ele></trkpt><trkpt lat="45.830319" lon="9.436189"><time>2024-03-23T09:27:23.000Z</time><ele>1042.8</ele></trkpt><trkpt lat="45.830329" lon="9.436192"><time>2024-03-23T09:27:24.000Z</time><ele>1042.6</ele></trkpt><trkpt lat="45.830342" lon="9.436196"><time>2024-03-23T09:27:25.000Z</time><ele>1042.6</ele></trkpt><trkpt lat="45.830357" lon="9.436198"><time>2024-03-23T09:27:26.000Z</time><ele>1042.4</ele></trkpt><trkpt lat="45.830365" lon="9.436197"><time>2024-03-23T09:27:27.000Z</time><ele>1042.4</ele></trkpt><trkpt lat="45.830374" lon="9.436197"><time>2024-03-23T09:27:28.000Z</time><ele>1042.4</ele></trkpt><trkpt lat="45.830385" lon="9.436198"><time>2024-03-23T09:27:29.000Z</time><ele>1042.2</ele></trkpt><trkpt lat="45.830394" lon="9.4362"><time>2024-03-23T09:27:30.000Z</time><ele>1042.2</ele></trkpt><trkpt lat="45.830406" lon="9.436203"><time>2024-03-23T09:27:31.000Z</time><ele>1042.2</ele></trkpt><trkpt lat="45.830418" lon="9.436209"><time>2024-03-23T09:27:32.000Z</time><ele>1042</ele></trkpt><trkpt lat="45.830427" lon="9.436216"><time>2024-03-23T09:27:33.000Z</time><ele>1042</ele></trkpt><trkpt lat="45.830437" lon="9.436218"><time>2024-03-23T09:27:34.000Z</time><ele>1042</ele></trkpt><trkpt lat="45.830446" lon="9.436222"><time>2024-03-23T09:27:35.000Z</time><ele>1041.8</ele></trkpt><trkpt lat="45.830454" lon="9.436224"><time>2024-03-23T09:27:36.000Z</time><ele>1041.8</ele></trkpt><trkpt lat="45.83046" lon="9.436224"><time>2024-03-23T09:27:37.000Z</time><ele>1041.8</ele></trkpt><trkpt lat="45.830467" lon="9.436228"><time>2024-03-23T09:27:38.000Z</time><ele>1041.6</ele></trkpt><trkpt lat="45.830474" lon="9.436235"><time>2024-03-23T09:27:39.000Z</time><ele>1041.6</ele></trkpt><trkpt lat="45.830481" lon="9.436243"><time>2024-03-23T09:27:40.000Z</time><ele>1041.4</ele></trkpt><trkpt lat="45.830486" lon="9.436247"><time>2024-03-23T09:27:41.000Z</time><ele>1041.4</ele></trkpt><trkpt lat="45.830491" lon="9.436251"><time>2024-03-23T09:27:42.000Z</time><ele>1041.2</ele></trkpt><trkpt lat="45.830499" lon="9.436258"><time>2024-03-23T09:27:43.000Z</time><ele>1041</ele></trkpt><trkpt lat="45.830509" lon="9.436265"><time>2024-03-23T09:27:44.000Z</time><ele>1040.8</ele></trkpt><trkpt lat="45.830519" lon="9.436271"><time>2024-03-23T09:27:45.000Z</time><ele>1040.8</ele></trkpt><trkpt lat="45.83053" lon="9.436274"><time>2024-03-23T09:27:46.000Z</time><ele>1040.6</ele></trkpt><trkpt lat="45.83054" lon="9.436278"><time>2024-03-23T09:27:47.000Z</time><ele>1040.4</ele></trkpt><trkpt lat="45.830551" lon="9.436282"><time>2024-03-23T09:27:48.000Z</time><ele>1040.4</ele></trkpt><trkpt lat="45.830561" lon="9.436281"><time>2024-03-23T09:27:49.000Z</time><ele>1040.2</ele></trkpt><trkpt lat="45.830572" lon="9.436277"><time>2024-03-23T09:27:50.000Z</time><ele>1040.2</ele></trkpt><trkpt lat="45.830581" lon="9.436277"><time>2024-03-23T09:27:51.000Z</time><ele>1040.2</ele></trkpt><trkpt lat="45.830589" lon="9.436275"><time>2024-03-23T09:27:52.000Z</time><ele>1040.2</ele></trkpt><trkpt lat="45.830597" lon="9.436273"><time>2024-03-23T09:27:53.000Z</time><ele>1040.2</ele></trkpt><trkpt lat="45.830604" lon="9.436269"><time>2024-03-23T09:27:54.000Z</time><ele>1040.2</ele></trkpt><trkpt lat="45.830611" lon="9.436268"><time>2024-03-23T09:27:55.000Z</time><ele>1040.2</ele></trkpt><trkpt lat="45.83062" lon="9.436265"><time>2024-03-23T09:27:56.000Z</time><ele>1040.4</ele></trkpt><trkpt lat="45.83063" lon="9.436266"><time>2024-03-23T09:27:57.000Z</time><ele>1040.4</ele></trkpt><trkpt lat="45.830635" lon="9.436266"><time>2024-03-23T09:27:58.000Z</time><ele>1040.4</ele></trkpt><trkpt lat="45.83064" lon="9.436265"><time>2024-03-23T09:27:59.000Z</time><ele>1040.6</ele></trkpt><trkpt lat="45.830643" lon="9.436263"><time>2024-03-23T09:28:00.000Z</time><ele>1040.6</ele></trkpt><trkpt lat="45.830645" lon="9.436261"><time>2024-03-23T09:28:01.000Z</time><ele>1040.8</ele></trkpt><trkpt lat="45.830649" lon="9.43626"><time>2024-03-23T09:28:02.000Z</time><ele>1041</ele></trkpt><trkpt lat="45.830651" lon="9.436259"><time>2024-03-23T09:28:03.000Z</time><ele>1041</ele></trkpt><trkpt lat="45.830655" lon="9.436258"><time>2024-03-23T09:28:04.000Z</time><ele>1041.2</ele></trkpt><trkpt lat="45.830659" lon="9.436257"><time>2024-03-23T09:28:05.000Z</time><ele>1041.4</ele></trkpt><trkpt lat="45.830662" lon="9.436257"><time>2024-03-23T09:28:06.000Z</time><ele>1041.6</ele></trkpt><trkpt lat="45.830664" lon="9.436256"><time>2024-03-23T09:28:07.000Z</time><ele>1041.8</ele></trkpt><trkpt lat="45.830668" lon="9.436255"><time>2024-03-23T09:28:08.000Z</time><ele>1042</ele></trkpt><trkpt lat="45.830673" lon="9.436256"><time>2024-03-23T09:28:09.000Z</time><ele>1042.2</ele></trkpt><trkpt lat="45.83068" lon="9.436263"><time>2024-03-23T09:28:10.000Z</time><ele>1042.2</ele></trkpt><trkpt lat="45.830681" lon="9.436268"><time>2024-03-23T09:28:11.000Z</time><ele>1042.4</ele></trkpt><trkpt lat="45.830682" lon="9.436269"><time>2024-03-23T09:28:12.000Z</time><ele>1042.4</ele></trkpt><trkpt lat="45.830682" lon="9.436269"><time>2024-03-23T09:28:13.000Z</time><ele>1042.4</ele></trkpt><trkpt lat="45.830682" lon="9.436269"><time>2024-03-23T09:28:14.000Z</time><ele>1042.4</ele></trkpt><trkpt lat="45.830682" lon="9.436269"><time>2024-03-23T09:28:15.000Z</time><ele>1042.4</ele></trkpt><trkpt lat="45.830682" lon="9.436269"><time>2024-03-23T09:28:16.000Z</time><ele>1042.4</ele></trkpt><trkpt lat="45.830682" lon="9.436269"><time>2024-03-23T09:28:17.000Z</time><ele>1042.4</ele></trkpt><trkpt lat="45.830682" lon="9.436269"><time>2024-03-23T09:28:18.000Z</time><ele>1042.4</ele></trkpt><trkpt lat="45.830682" lon="9.436269"><time>2024-03-23T09:28:19.000Z</time><ele>1042.4</ele></trkpt><trkpt lat="45.830682" lon="9.436269"><time>2024-03-23T09:28:20.000Z</time><ele>1042.4</ele></trkpt><trkpt lat="45.830682" lon="9.436269"><time>2024-03-23T09:28:21.000Z</time><ele>1042.4</ele></trkpt><trkpt lat="45.830682" lon="9.436269"><time>2024-03-23T09:28:22.000Z</time><ele>1042.4</ele></trkpt><trkpt lat="45.830682" lon="9.436269"><time>2024-03-23T09:28:23.000Z</time><ele>1042.4</ele></trkpt><trkpt lat="45.830682" lon="9.436269"><time>2024-03-23T09:28:24.000Z</time><ele>1042.4</ele></trkpt><trkpt lat="45.830682" lon="9.436269"><time>2024-03-23T09:28:25.000Z</time><ele>1042.4</ele></trkpt><trkpt lat="45.830682" lon="9.436269"><time>2024-03-23T09:28:26.000Z</time><ele>1042.4</ele></trkpt><trkpt lat="45.830682" lon="9.436269"><time>2024-03-23T09:28:27.000Z</time><ele>1042.4</ele></trkpt><trkpt lat="45.830682" lon="9.436269"><time>2024-03-23T09:28:28.000Z</time><ele>1042.4</ele></trkpt><trkpt lat="45.830683" lon="9.436269"><time>2024-03-23T09:28:29.000Z</time><ele>1042.4</ele></trkpt><trkpt lat="45.830685" lon="9.43627"><time>2024-03-23T09:28:30.000Z</time><ele>1042.4</ele></trkpt><trkpt lat="45.830687" lon="9.43627"><time>2024-03-23T09:28:31.000Z</time><ele>1042.4</ele></trkpt><trkpt lat="45.830687" lon="9.436271"><time>2024-03-23T09:28:32.000Z</time><ele>1042.4</ele></trkpt><trkpt lat="45.830687" lon="9.436273"><time>2024-03-23T09:28:33.000Z</time><ele>1042.4</ele></trkpt><trkpt lat="45.830687" lon="9.436274"><time>2024-03-23T09:28:34.000Z</time><ele>1042.4</ele></trkpt><trkpt lat="45.830687" lon="9.436275"><time>2024-03-23T09:28:35.000Z</time><ele>1042.4</ele></trkpt><trkpt lat="45.830688" lon="9.436276"><time>2024-03-23T09:28:36.000Z</time><ele>1042.4</ele></trkpt><trkpt lat="45.830688" lon="9.436276"><time>2024-03-23T09:28:37.000Z</time><ele>1042.6</ele></trkpt><trkpt lat="45.830688" lon="9.436277"><time>2024-03-23T09:28:38.000Z</time><ele>1042.6</ele></trkpt><trkpt lat="45.830688" lon="9.436277"><time>2024-03-23T09:28:39.000Z</time><ele>1042.6</ele></trkpt><trkpt lat="45.830688" lon="9.436277"><time>2024-03-23T09:28:40.000Z</time><ele>1042.6</ele></trkpt><trkpt lat="45.830688" lon="9.436277"><time>2024-03-23T09:28:41.000Z</time><ele>1042.6</ele></trkpt><trkpt lat="45.830688" lon="9.436278"><time>2024-03-23T09:28:42.000Z</time><ele>1042.6</ele></trkpt><trkpt lat="45.830688" lon="9.436279"><time>2024-03-23T09:28:43.000Z</time><ele>1042.6</ele></trkpt><trkpt lat="45.830688" lon="9.436281"><time>2024-03-23T09:28:44.000Z</time><ele>1042.8</ele></trkpt><trkpt lat="45.830688" lon="9.436283"><time>2024-03-23T09:28:45.000Z</time><ele>1042.8</ele></trkpt><trkpt lat="45.830688" lon="9.436284"><time>2024-03-23T09:28:46.000Z</time><ele>1042.8</ele></trkpt><trkpt lat="45.830688" lon="9.436284"><time>2024-03-23T09:28:47.000Z</time><ele>1042.8</ele></trkpt><trkpt lat="45.830689" lon="9.436284"><time>2024-03-23T09:28:48.000Z</time><ele>1042.8</ele></trkpt><trkpt lat="45.830689" lon="9.436285"><time>2024-03-23T09:28:49.000Z</time><ele>1042.8</ele></trkpt><trkpt lat="45.830689" lon="9.436285"><time>2024-03-23T09:28:50.000Z</time><ele>1042.8</ele></trkpt><trkpt lat="45.830689" lon="9.436287"><time>2024-03-23T09:28:51.000Z</time><ele>1042.8</ele></trkpt><trkpt lat="45.830689" lon="9.436287"><time>2024-03-23T09:28:52.000Z</time><ele>1042.8</ele></trkpt><trkpt lat="45.83069" lon="9.436288"><time>2024-03-23T09:28:53.000Z</time><ele>1042.8</ele></trkpt><trkpt lat="45.83069" lon="9.436289"><time>2024-03-23T09:28:54.000Z</time><ele>1042.8</ele></trkpt><trkpt lat="45.83069" lon="9.43629"><time>2024-03-23T09:28:55.000Z</time><ele>1042.8</ele></trkpt><trkpt lat="45.83069" lon="9.43629"><time>2024-03-23T09:28:56.000Z</time><ele>1042.8</ele></trkpt><trkpt lat="45.83069" lon="9.43629"><time>2024-03-23T09:28:57.000Z</time><ele>1042.8</ele></trkpt><trkpt lat="45.83069" lon="9.436291"><time>2024-03-23T09:28:58.000Z</time><ele>1042.8</ele></trkpt><trkpt lat="45.83069" lon="9.436291"><time>2024-03-23T09:28:59.000Z</time><ele>1042.6</ele></trkpt><trkpt lat="45.83069" lon="9.436291"><time>2024-03-23T09:29:00.000Z</time><ele>1042.6</ele></trkpt><trkpt lat="45.83069" lon="9.436291"><time>2024-03-23T09:29:01.000Z</time><ele>1042.8</ele></trkpt><trkpt lat="45.83069" lon="9.436291"><time>2024-03-23T09:29:02.000Z</time><ele>1042.8</ele></trkpt><trkpt lat="45.83069" lon="9.436291"><time>2024-03-23T09:29:03.000Z</time><ele>1042.8</ele></trkpt><trkpt lat="45.83069" lon="9.436291"><time>2024-03-23T09:29:04.000Z</time><ele>1042.8</ele></trkpt><trkpt lat="45.83069" lon="9.436291"><time>2024-03-23T09:29:05.000Z</time><ele>1042.8</ele></trkpt><trkpt lat="45.830689" lon="9.436291"><time>2024-03-23T09:29:06.000Z</time><ele>1042.8</ele></trkpt><trkpt lat="45.830689" lon="9.436291"><time>2024-03-23T09:29:07.000Z</time><ele>1042.8</ele></trkpt><trkpt lat="45.830689" lon="9.436291"><time>2024-03-23T09:29:08.000Z</time><ele>1042.8</ele></trkpt><trkpt lat="45.830689" lon="9.436291"><time>2024-03-23T09:29:09.000Z</time><ele>1042.8</ele></trkpt><trkpt lat="45.830689" lon="9.436291"><time>2024-03-23T09:29:10.000Z</time><ele>1042.8</ele></trkpt><trkpt lat="45.830689" lon="9.436291"><time>2024-03-23T09:29:11.000Z</time><ele>1042.8</ele></trkpt><trkpt lat="45.830689" lon="9.436291"><time>2024-03-23T09:29:12.000Z</time><ele>1042.8</ele></trkpt><trkpt lat="45.830689" lon="9.436291"><time>2024-03-23T09:29:13.000Z</time><ele>1042.8</ele></trkpt><trkpt lat="45.830689" lon="9.436291"><time>2024-03-23T09:29:14.000Z</time><ele>1042.8</ele></trkpt><trkpt lat="45.830689" lon="9.436291"><time>2024-03-23T09:29:15.000Z</time><ele>1042.8</ele></trkpt><trkpt lat="45.830688" lon="9.436291"><time>2024-03-23T09:29:16.000Z</time><ele>1043</ele></trkpt><trkpt lat="45.830688" lon="9.436291"><time>2024-03-23T09:29:17.000Z</time><ele>1043</ele></trkpt><trkpt lat="45.830688" lon="9.436291"><time>2024-03-23T09:29:18.000Z</time><ele>1043</ele></trkpt><trkpt lat="45.830687" lon="9.436291"><time>2024-03-23T09:29:19.000Z</time><ele>1043.2</ele></trkpt><trkpt lat="45.830686" lon="9.436291"><time>2024-03-23T09:29:20.000Z</time><ele>1043.4</ele></trkpt><trkpt lat="45.830686" lon="9.436292"><time>2024-03-23T09:29:21.000Z</time><ele>1043.4</ele></trkpt><trkpt lat="45.830685" lon="9.436292"><time>2024-03-23T09:29:22.000Z</time><ele>1043.4</ele></trkpt><trkpt lat="45.830685" lon="9.436292"><time>2024-03-23T09:29:23.000Z</time><ele>1043.4</ele></trkpt><trkpt lat="45.830685" lon="9.436292"><time>2024-03-23T09:29:24.000Z</time><ele>1043.4</ele></trkpt><trkpt lat="45.830685" lon="9.436292"><time>2024-03-23T09:29:25.000Z</time><ele>1043.2</ele></trkpt><trkpt lat="45.830684" lon="9.436292"><time>2024-03-23T09:29:26.000Z</time><ele>1043.2</ele></trkpt><trkpt lat="45.830684" lon="9.436292"><time>2024-03-23T09:29:27.000Z</time><ele>1043.2</ele></trkpt><trkpt lat="45.830684" lon="9.436292"><time>2024-03-23T09:29:28.000Z</time><ele>1043.2</ele></trkpt><trkpt lat="45.830684" lon="9.436292"><time>2024-03-23T09:29:29.000Z</time><ele>1043.2</ele></trkpt><trkpt lat="45.830683" lon="9.436292"><time>2024-03-23T09:29:30.000Z</time><ele>1043.2</ele></trkpt><trkpt lat="45.830683" lon="9.436292"><time>2024-03-23T09:29:31.000Z</time><ele>1043.2</ele></trkpt><trkpt lat="45.830683" lon="9.436292"><time>2024-03-23T09:29:32.000Z</time><ele>1043.2</ele></trkpt><trkpt lat="45.830683" lon="9.436292"><time>2024-03-23T09:29:33.000Z</time><ele>1043.2</ele></trkpt><trkpt lat="45.830682" lon="9.436292"><time>2024-03-23T09:29:34.000Z</time><ele>1043.2</ele></trkpt><trkpt lat="45.830682" lon="9.436292"><time>2024-03-23T09:29:35.000Z</time><ele>1043.2</ele></trkpt><trkpt lat="45.830682" lon="9.436292"><time>2024-03-23T09:29:36.000Z</time><ele>1043.2</ele></trkpt><trkpt lat="45.830682" lon="9.436292"><time>2024-03-23T09:29:37.000Z</time><ele>1043.2</ele></trkpt><trkpt lat="45.830682" lon="9.436292"><time>2024-03-23T09:29:38.000Z</time><ele>1043.2</ele></trkpt><trkpt lat="45.830682" lon="9.436292"><time>2024-03-23T09:29:39.000Z</time><ele>1043.2</ele></trkpt><trkpt lat="45.830682" lon="9.436292"><time>2024-03-23T09:29:40.000Z</time><ele>1043</ele></trkpt><trkpt lat="45.830682" lon="9.436291"><time>2024-03-23T09:29:41.000Z</time><ele>1043</ele></trkpt><trkpt lat="45.830682" lon="9.436291"><time>2024-03-23T09:29:42.000Z</time><ele>1043</ele></trkpt><trkpt lat="45.830682" lon="9.43629"><time>2024-03-23T09:29:43.000Z</time><ele>1043</ele></trkpt><trkpt lat="45.830682" lon="9.436289"><time>2024-03-23T09:29:44.000Z</time><ele>1043</ele></trkpt><trkpt lat="45.830682" lon="9.436289"><time>2024-03-23T09:29:45.000Z</time><ele>1043</ele></trkpt><trkpt lat="45.830682" lon="9.436288"><time>2024-03-23T09:29:46.000Z</time><ele>1043</ele></trkpt><trkpt lat="45.830682" lon="9.436287"><time>2024-03-23T09:29:47.000Z</time><ele>1043</ele></trkpt><trkpt lat="45.830682" lon="9.436287"><time>2024-03-23T09:29:48.000Z</time><ele>1043</ele></trkpt><trkpt lat="45.830682" lon="9.436287"><time>2024-03-23T09:29:49.000Z</time><ele>1043.2</ele></trkpt><trkpt lat="45.830682" lon="9.436287"><time>2024-03-23T09:29:50.000Z</time><ele>1043.2</ele></trkpt><trkpt lat="45.830682" lon="9.436286"><time>2024-03-23T09:29:51.000Z</time><ele>1043.2</ele></trkpt><trkpt lat="45.830682" lon="9.436286"><time>2024-03-23T09:29:52.000Z</time><ele>1043.2</ele></trkpt><trkpt lat="45.830682" lon="9.436286"><time>2024-03-23T09:29:53.000Z</time><ele>1043.2</ele></trkpt><trkpt lat="45.830682" lon="9.436286"><time>2024-03-23T09:29:54.000Z</time><ele>1043.2</ele></trkpt><trkpt lat="45.830682" lon="9.436286"><time>2024-03-23T09:29:55.000Z</time><ele>1043.4</ele></trkpt><trkpt lat="45.830682" lon="9.436286"><time>2024-03-23T09:29:56.000Z</time><ele>1043.4</ele></trkpt><trkpt lat="45.830682" lon="9.436286"><time>2024-03-23T09:29:57.000Z</time><ele>1043.6</ele></trkpt><trkpt lat="45.830682" lon="9.436286"><time>2024-03-23T09:29:58.000Z</time><ele>1043.6</ele></trkpt><trkpt lat="45.830682" lon="9.436286"><time>2024-03-23T09:29:59.000Z</time><ele>1043.6</ele></trkpt><trkpt lat="45.830682" lon="9.436285"><time>2024-03-23T09:30:00.000Z</time><ele>1043.8</ele></trkpt><trkpt lat="45.830682" lon="9.436285"><time>2024-03-23T09:30:01.000Z</time><ele>1043.8</ele></trkpt><trkpt lat="45.830682" lon="9.436285"><time>2024-03-23T09:30:02.000Z</time><ele>1043.8</ele></trkpt><trkpt lat="45.830682" lon="9.436285"><time>2024-03-23T09:30:03.000Z</time><ele>1043.8</ele></trkpt><trkpt lat="45.830682" lon="9.436285"><time>2024-03-23T09:30:04.000Z</time><ele>1043.8</ele></trkpt><trkpt lat="45.830682" lon="9.436285"><time>2024-03-23T09:30:05.000Z</time><ele>1043.8</ele></trkpt><trkpt lat="45.830682" lon="9.436285"><time>2024-03-23T09:30:06.000Z</time><ele>1043.8</ele></trkpt><trkpt lat="45.830682" lon="9.436285"><time>2024-03-23T09:30:07.000Z</time><ele>1043.8</ele></trkpt><trkpt lat="45.830682" lon="9.436285"><time>2024-03-23T09:30:08.000Z</time><ele>1043.8</ele></trkpt><trkpt lat="45.830682" lon="9.436285"><time>2024-03-23T09:30:09.000Z</time><ele>1043.8</ele></trkpt><trkpt lat="45.830682" lon="9.436285"><time>2024-03-23T09:30:10.000Z</time><ele>1043.8</ele></trkpt><trkpt lat="45.830682" lon="9.436285"><time>2024-03-23T09:30:11.000Z</time><ele>1043.8</ele></trkpt><trkpt lat="45.830683" lon="9.436285"><time>2024-03-23T09:30:12.000Z</time><ele>1043.8</ele></trkpt><trkpt lat="45.830684" lon="9.436284"><time>2024-03-23T09:30:13.000Z</time><ele>1043.8</ele></trkpt><trkpt lat="45.830684" lon="9.436284"><time>2024-03-23T09:30:14.000Z</time><ele>1043.8</ele></trkpt><trkpt lat="45.830685" lon="9.436283"><time>2024-03-23T09:30:15.000Z</time><ele>1043.8</ele></trkpt><trkpt lat="45.830686" lon="9.436283"><time>2024-03-23T09:30:16.000Z</time><ele>1043.8</ele></trkpt><trkpt lat="45.830687" lon="9.436282"><time>2024-03-23T09:30:17.000Z</time><ele>1043.6</ele></trkpt><trkpt lat="45.830688" lon="9.436282"><time>2024-03-23T09:30:18.000Z</time><ele>1043.6</ele></trkpt><trkpt lat="45.830688" lon="9.436281"><time>2024-03-23T09:30:19.000Z</time><ele>1043.4</ele></trkpt><trkpt lat="45.830689" lon="9.43628"><time>2024-03-23T09:30:20.000Z</time><ele>1043.4</ele></trkpt><trkpt lat="45.83069" lon="9.436279"><time>2024-03-23T09:30:21.000Z</time><ele>1043.4</ele></trkpt><trkpt lat="45.83069" lon="9.436278"><time>2024-03-23T09:30:22.000Z</time><ele>1043.4</ele></trkpt><trkpt lat="45.83069" lon="9.436277"><time>2024-03-23T09:30:23.000Z</time><ele>1043.4</ele></trkpt><trkpt lat="45.830691" lon="9.436276"><time>2024-03-23T09:30:24.000Z</time><ele>1043.4</ele></trkpt><trkpt lat="45.830692" lon="9.436275"><time>2024-03-23T09:30:25.000Z</time><ele>1043.4</ele></trkpt><trkpt lat="45.830693" lon="9.436274"><time>2024-03-23T09:30:26.000Z</time><ele>1043.4</ele></trkpt><trkpt lat="45.830693" lon="9.436273"><time>2024-03-23T09:30:27.000Z</time><ele>1043.4</ele></trkpt><trkpt lat="45.830694" lon="9.436273"><time>2024-03-23T09:30:28.000Z</time><ele>1043.4</ele></trkpt><trkpt lat="45.830694" lon="9.436273"><time>2024-03-23T09:30:29.000Z</time><ele>1043.4</ele></trkpt><trkpt lat="45.830694" lon="9.436272"><time>2024-03-23T09:30:30.000Z</time><ele>1043.4</ele></trkpt><trkpt lat="45.830694" lon="9.436272"><time>2024-03-23T09:30:31.000Z</time><ele>1043.4</ele></trkpt><trkpt lat="45.830694" lon="9.436271"><time>2024-03-23T09:30:32.000Z</time><ele>1043.4</ele></trkpt><trkpt lat="45.830694" lon="9.436271"><time>2024-03-23T09:30:33.000Z</time><ele>1043.4</ele></trkpt><trkpt lat="45.830694" lon="9.43627"><time>2024-03-23T09:30:34.000Z</time><ele>1043.4</ele></trkpt><trkpt lat="45.830694" lon="9.436269"><time>2024-03-23T09:30:35.000Z</time><ele>1043.4</ele></trkpt><trkpt lat="45.830695" lon="9.436268"><time>2024-03-23T09:30:36.000Z</time><ele>1043.4</ele></trkpt><trkpt lat="45.830695" lon="9.436267"><time>2024-03-23T09:30:37.000Z</time><ele>1043.4</ele></trkpt><trkpt lat="45.830695" lon="9.436267"><time>2024-03-23T09:30:38.000Z</time><ele>1043.4</ele></trkpt><trkpt lat="45.830695" lon="9.436267"><time>2024-03-23T09:30:39.000Z</time><ele>1043.4</ele></trkpt><trkpt lat="45.830695" lon="9.436266"><time>2024-03-23T09:30:40.000Z</time><ele>1043.4</ele></trkpt><trkpt lat="45.830695" lon="9.436266"><time>2024-03-23T09:30:41.000Z</time><ele>1043.4</ele></trkpt><trkpt lat="45.830695" lon="9.436266"><time>2024-03-23T09:30:42.000Z</time><ele>1043.4</ele></trkpt><trkpt lat="45.830695" lon="9.436264"><time>2024-03-23T09:30:43.000Z</time><ele>1043.4</ele></trkpt><trkpt lat="45.830695" lon="9.436263"><time>2024-03-23T09:30:44.000Z</time><ele>1043.4</ele></trkpt><trkpt lat="45.830695" lon="9.436263"><time>2024-03-23T09:30:45.000Z</time><ele>1043.4</ele></trkpt><trkpt lat="45.830695" lon="9.436262"><time>2024-03-23T09:30:46.000Z</time><ele>1043.4</ele></trkpt><trkpt lat="45.830695" lon="9.436262"><time>2024-03-23T09:30:47.000Z</time><ele>1043.4</ele></trkpt><trkpt lat="45.830696" lon="9.436261"><time>2024-03-23T09:30:48.000Z</time><ele>1043.4</ele></trkpt><trkpt lat="45.830696" lon="9.436261"><time>2024-03-23T09:30:49.000Z</time><ele>1043.4</ele></trkpt><trkpt lat="45.830696" lon="9.436261"><time>2024-03-23T09:30:50.000Z</time><ele>1043.4</ele></trkpt><trkpt lat="45.830696" lon="9.436261"><time>2024-03-23T09:30:51.000Z</time><ele>1043.4</ele></trkpt><trkpt lat="45.830696" lon="9.43626"><time>2024-03-23T09:30:52.000Z</time><ele>1043.4</ele></trkpt><trkpt lat="45.830697" lon="9.43626"><time>2024-03-23T09:30:53.000Z</time><ele>1043.4</ele></trkpt><trkpt lat="45.830698" lon="9.43626"><time>2024-03-23T09:30:54.000Z</time><ele>1043.4</ele></trkpt><trkpt lat="45.830699" lon="9.43626"><time>2024-03-23T09:30:55.000Z</time><ele>1043.4</ele></trkpt><trkpt lat="45.8307" lon="9.43626"><time>2024-03-23T09:30:56.000Z</time><ele>1043.4</ele></trkpt><trkpt lat="45.8307" lon="9.43626"><time>2024-03-23T09:30:57.000Z</time><ele>1043.4</ele></trkpt><trkpt lat="45.830701" lon="9.43626"><time>2024-03-23T09:30:58.000Z</time><ele>1043.4</ele></trkpt><trkpt lat="45.830701" lon="9.43626"><time>2024-03-23T09:30:59.000Z</time><ele>1043.4</ele></trkpt><trkpt lat="45.830702" lon="9.43626"><time>2024-03-23T09:31:00.000Z</time><ele>1043.4</ele></trkpt><trkpt lat="45.830702" lon="9.436261"><time>2024-03-23T09:31:01.000Z</time><ele>1043.4</ele></trkpt><trkpt lat="45.830702" lon="9.436261"><time>2024-03-23T09:31:02.000Z</time><ele>1043.4</ele></trkpt><trkpt lat="45.830702" lon="9.436261"><time>2024-03-23T09:31:03.000Z</time><ele>1043.4</ele></trkpt><trkpt lat="45.830703" lon="9.436262"><time>2024-03-23T09:31:04.000Z</time><ele>1043.4</ele></trkpt><trkpt lat="45.830703" lon="9.436262"><time>2024-03-23T09:31:05.000Z</time><ele>1043.4</ele></trkpt><trkpt lat="45.830703" lon="9.436262"><time>2024-03-23T09:31:06.000Z</time><ele>1043.4</ele></trkpt><trkpt lat="45.830703" lon="9.436263"><time>2024-03-23T09:31:07.000Z</time><ele>1043.4</ele></trkpt><trkpt lat="45.830703" lon="9.436263"><time>2024-03-23T09:31:08.000Z</time><ele>1043.4</ele></trkpt><trkpt lat="45.830703" lon="9.436263"><time>2024-03-23T09:31:09.000Z</time><ele>1043.4</ele></trkpt><trkpt lat="45.830703" lon="9.436263"><time>2024-03-23T09:31:10.000Z</time><ele>1043.4</ele></trkpt><trkpt lat="45.830703" lon="9.436264"><time>2024-03-23T09:31:11.000Z</time><ele>1043.4</ele></trkpt><trkpt lat="45.830703" lon="9.436264"><time>2024-03-23T09:31:12.000Z</time><ele>1043.4</ele></trkpt><trkpt lat="45.830703" lon="9.436264"><time>2024-03-23T09:31:13.000Z</time><ele>1043.4</ele></trkpt><trkpt lat="45.830702" lon="9.436264"><time>2024-03-23T09:31:14.000Z</time><ele>1043.4</ele></trkpt><trkpt lat="45.830702" lon="9.436264"><time>2024-03-23T09:31:15.000Z</time><ele>1043.4</ele></trkpt><trkpt lat="45.830702" lon="9.436264"><time>2024-03-23T09:31:16.000Z</time><ele>1043.4</ele></trkpt><trkpt lat="45.830702" lon="9.436265"><time>2024-03-23T09:31:17.000Z</time><ele>1043.4</ele></trkpt><trkpt lat="45.830701" lon="9.436265"><time>2024-03-23T09:31:18.000Z</time><ele>1043.4</ele></trkpt><trkpt lat="45.830701" lon="9.436265"><time>2024-03-23T09:31:19.000Z</time><ele>1043.4</ele></trkpt><trkpt lat="45.830701" lon="9.436265"><time>2024-03-23T09:31:20.000Z</time><ele>1043.4</ele></trkpt><trkpt lat="45.830701" lon="9.436265"><time>2024-03-23T09:31:21.000Z</time><ele>1043.4</ele></trkpt><trkpt lat="45.830701" lon="9.436265"><time>2024-03-23T09:31:22.000Z</time><ele>1043.4</ele></trkpt><trkpt lat="45.8307" lon="9.436265"><time>2024-03-23T09:31:23.000Z</time><ele>1043.4</ele></trkpt><trkpt lat="45.8307" lon="9.436265"><time>2024-03-23T09:31:24.000Z</time><ele>1043.4</ele></trkpt><trkpt lat="45.8307" lon="9.436265"><time>2024-03-23T09:31:25.000Z</time><ele>1043.4</ele></trkpt><trkpt lat="45.8307" lon="9.436265"><time>2024-03-23T09:31:26.000Z</time><ele>1043.4</ele></trkpt><trkpt lat="45.8307" lon="9.436265"><time>2024-03-23T09:31:27.000Z</time><ele>1043.4</ele></trkpt><trkpt lat="45.8307" lon="9.436265"><time>2024-03-23T09:31:28.000Z</time><ele>1043.4</ele></trkpt><trkpt lat="45.8307" lon="9.436265"><time>2024-03-23T09:31:29.000Z</time><ele>1043.4</ele></trkpt><trkpt lat="45.8307" lon="9.436265"><time>2024-03-23T09:31:30.000Z</time><ele>1043.4</ele></trkpt><trkpt lat="45.8307" lon="9.436265"><time>2024-03-23T09:31:31.000Z</time><ele>1043.4</ele></trkpt><trkpt lat="45.8307" lon="9.436265"><time>2024-03-23T09:31:32.000Z</time><ele>1043.4</ele></trkpt><trkpt lat="45.8307" lon="9.436265"><time>2024-03-23T09:31:33.000Z</time><ele>1043.4</ele></trkpt><trkpt lat="45.8307" lon="9.436265"><time>2024-03-23T09:31:34.000Z</time><ele>1043.4</ele></trkpt><trkpt lat="45.8307" lon="9.436265"><time>2024-03-23T09:31:35.000Z</time><ele>1043.4</ele></trkpt><trkpt lat="45.8307" lon="9.436265"><time>2024-03-23T09:31:36.000Z</time><ele>1043.4</ele></trkpt><trkpt lat="45.8307" lon="9.436265"><time>2024-03-23T09:31:37.000Z</time><ele>1043.4</ele></trkpt><trkpt lat="45.8307" lon="9.436265"><time>2024-03-23T09:31:38.000Z</time><ele>1043.4</ele></trkpt><trkpt lat="45.8307" lon="9.436265"><time>2024-03-23T09:31:39.000Z</time><ele>1043.4</ele></trkpt><trkpt lat="45.8307" lon="9.436265"><time>2024-03-23T09:31:40.000Z</time><ele>1043.4</ele></trkpt><trkpt lat="45.8307" lon="9.436265"><time>2024-03-23T09:31:41.000Z</time><ele>1043.4</ele></trkpt><trkpt lat="45.8307" lon="9.436265"><time>2024-03-23T09:31:42.000Z</time><ele>1043.4</ele></trkpt><trkpt lat="45.8307" lon="9.436265"><time>2024-03-23T09:31:43.000Z</time><ele>1043.4</ele></trkpt><trkpt lat="45.830704" lon="9.436266"><time>2024-03-23T09:31:44.000Z</time><ele>1043.4</ele></trkpt><trkpt lat="45.830719" lon="9.436273"><time>2024-03-23T09:31:45.000Z</time><ele>1043.4</ele></trkpt><trkpt lat="45.830734" lon="9.436278"><time>2024-03-23T09:31:46.000Z</time><ele>1043.4</ele></trkpt><trkpt lat="45.830749" lon="9.436283"><time>2024-03-23T09:31:47.000Z</time><ele>1043.4</ele></trkpt><trkpt lat="45.830759" lon="9.436285"><time>2024-03-23T09:31:48.000Z</time><ele>1043.4</ele></trkpt><trkpt lat="45.83077" lon="9.436289"><time>2024-03-23T09:31:49.000Z</time><ele>1043.4</ele></trkpt><trkpt lat="45.830781" lon="9.436295"><time>2024-03-23T09:31:50.000Z</time><ele>1043.4</ele></trkpt><trkpt lat="45.830792" lon="9.4363"><time>2024-03-23T09:31:51.000Z</time><ele>1043.4</ele></trkpt><trkpt lat="45.830799" lon="9.4363"><time>2024-03-23T09:31:52.000Z</time><ele>1043.4</ele></trkpt><trkpt lat="45.830809" lon="9.436303"><time>2024-03-23T09:31:53.000Z</time><ele>1043.4</ele></trkpt><trkpt lat="45.830819" lon="9.436306"><time>2024-03-23T09:31:54.000Z</time><ele>1043.4</ele></trkpt><trkpt lat="45.830829" lon="9.43631"><time>2024-03-23T09:31:55.000Z</time><ele>1043.4</ele></trkpt><trkpt lat="45.830838" lon="9.436313"><time>2024-03-23T09:31:56.000Z</time><ele>1043.8</ele></trkpt><trkpt lat="45.830847" lon="9.436312"><time>2024-03-23T09:31:57.000Z</time><ele>1044</ele></trkpt><trkpt lat="45.830858" lon="9.436313"><time>2024-03-23T09:31:58.000Z</time><ele>1044</ele></trkpt><trkpt lat="45.830869" lon="9.436316"><time>2024-03-23T09:31:59.000Z</time><ele>1044.2</ele></trkpt><trkpt lat="45.830879" lon="9.436319"><time>2024-03-23T09:32:00.000Z</time><ele>1044.2</ele></trkpt><trkpt lat="45.830889" lon="9.436324"><time>2024-03-23T09:32:01.000Z</time><ele>1044.4</ele></trkpt><trkpt lat="45.830896" lon="9.43633"><time>2024-03-23T09:32:02.000Z</time><ele>1044.4</ele></trkpt><trkpt lat="45.830904" lon="9.436338"><time>2024-03-23T09:32:03.000Z</time><ele>1044.4</ele></trkpt><trkpt lat="45.830909" lon="9.436348"><time>2024-03-23T09:32:04.000Z</time><ele>1044.6</ele></trkpt><trkpt lat="45.830915" lon="9.436355"><time>2024-03-23T09:32:05.000Z</time><ele>1044.8</ele></trkpt><trkpt lat="45.830922" lon="9.436363"><time>2024-03-23T09:32:06.000Z</time><ele>1044.8</ele></trkpt><trkpt lat="45.830929" lon="9.436371"><time>2024-03-23T09:32:07.000Z</time><ele>1045</ele></trkpt><trkpt lat="45.830938" lon="9.43638"><time>2024-03-23T09:32:08.000Z</time><ele>1045</ele></trkpt><trkpt lat="45.830948" lon="9.43639"><time>2024-03-23T09:32:09.000Z</time><ele>1045</ele></trkpt><trkpt lat="45.830957" lon="9.436399"><time>2024-03-23T09:32:10.000Z</time><ele>1045</ele></trkpt><trkpt lat="45.830966" lon="9.436404"><time>2024-03-23T09:32:11.000Z</time><ele>1044.8</ele></trkpt><trkpt lat="45.83097" lon="9.436409"><time>2024-03-23T09:32:12.000Z</time><ele>1044.8</ele></trkpt><trkpt lat="45.830976" lon="9.436416"><time>2024-03-23T09:32:13.000Z</time><ele>1044.8</ele></trkpt><trkpt lat="45.830981" lon="9.436421"><time>2024-03-23T09:32:14.000Z</time><ele>1044.8</ele></trkpt><trkpt lat="45.830989" lon="9.436427"><time>2024-03-23T09:32:15.000Z</time><ele>1044.8</ele></trkpt><trkpt lat="45.830995" lon="9.436433"><time>2024-03-23T09:32:16.000Z</time><ele>1044.8</ele></trkpt><trkpt lat="45.831003" lon="9.436441"><time>2024-03-23T09:32:17.000Z</time><ele>1045</ele></trkpt><trkpt lat="45.83101" lon="9.436452"><time>2024-03-23T09:32:18.000Z</time><ele>1045</ele></trkpt><trkpt lat="45.831017" lon="9.436463"><time>2024-03-23T09:32:19.000Z</time><ele>1045</ele></trkpt><trkpt lat="45.831025" lon="9.436473"><time>2024-03-23T09:32:20.000Z</time><ele>1045.2</ele></trkpt><trkpt lat="45.83103" lon="9.436487"><time>2024-03-23T09:32:21.000Z</time><ele>1045.4</ele></trkpt><trkpt lat="45.831034" lon="9.4365"><time>2024-03-23T09:32:22.000Z</time><ele>1045.6</ele></trkpt><trkpt lat="45.83104" lon="9.436513"><time>2024-03-23T09:32:23.000Z</time><ele>1045.6</ele></trkpt><trkpt lat="45.831046" lon="9.436522"><time>2024-03-23T09:32:24.000Z</time><ele>1045.8</ele></trkpt><trkpt lat="45.831051" lon="9.436531"><time>2024-03-23T09:32:25.000Z</time><ele>1045.8</ele></trkpt><trkpt lat="45.831059" lon="9.43654"><time>2024-03-23T09:32:26.000Z</time><ele>1046</ele></trkpt><trkpt lat="45.831067" lon="9.436544"><time>2024-03-23T09:32:27.000Z</time><ele>1046.2</ele></trkpt><trkpt lat="45.831074" lon="9.436551"><time>2024-03-23T09:32:28.000Z</time><ele>1046.4</ele></trkpt><trkpt lat="45.831077" lon="9.436559"><time>2024-03-23T09:32:29.000Z</time><ele>1046.6</ele></trkpt><trkpt lat="45.831084" lon="9.436563"><time>2024-03-23T09:32:30.000Z</time><ele>1046.6</ele></trkpt><trkpt lat="45.831089" lon="9.436563"><time>2024-03-23T09:32:31.000Z</time><ele>1047</ele></trkpt><trkpt lat="45.831095" lon="9.436566"><time>2024-03-23T09:32:32.000Z</time><ele>1047</ele></trkpt><trkpt lat="45.831101" lon="9.436568"><time>2024-03-23T09:32:33.000Z</time><ele>1047.2</ele></trkpt><trkpt lat="45.831108" lon="9.436568"><time>2024-03-23T09:32:34.000Z</time><ele>1047.2</ele></trkpt><trkpt lat="45.831118" lon="9.436569"><time>2024-03-23T09:32:35.000Z</time><ele>1047.6</ele></trkpt><trkpt lat="45.831123" lon="9.436568"><time>2024-03-23T09:32:36.000Z</time><ele>1047.8</ele></trkpt><trkpt lat="45.831127" lon="9.436565"><time>2024-03-23T09:32:37.000Z</time><ele>1048</ele></trkpt><trkpt lat="45.831129" lon="9.436563"><time>2024-03-23T09:32:38.000Z</time><ele>1048</ele></trkpt><trkpt lat="45.831133" lon="9.436561"><time>2024-03-23T09:32:39.000Z</time><ele>1048.4</ele></trkpt><trkpt lat="45.831136" lon="9.436559"><time>2024-03-23T09:32:40.000Z</time><ele>1048.6</ele></trkpt><trkpt lat="45.831142" lon="9.436554"><time>2024-03-23T09:32:41.000Z</time><ele>1048.6</ele></trkpt><trkpt lat="45.831146" lon="9.436546"><time>2024-03-23T09:32:42.000Z</time><ele>1048.8</ele></trkpt><trkpt lat="45.831151" lon="9.436541"><time>2024-03-23T09:32:43.000Z</time><ele>1049</ele></trkpt><trkpt lat="45.831157" lon="9.436535"><time>2024-03-23T09:32:44.000Z</time><ele>1049.2</ele></trkpt><trkpt lat="45.831164" lon="9.43653"><time>2024-03-23T09:32:45.000Z</time><ele>1049.4</ele></trkpt><trkpt lat="45.831168" lon="9.436527"><time>2024-03-23T09:32:46.000Z</time><ele>1049.8</ele></trkpt><trkpt lat="45.831174" lon="9.436523"><time>2024-03-23T09:32:47.000Z</time><ele>1050</ele></trkpt><trkpt lat="45.831182" lon="9.436517"><time>2024-03-23T09:32:48.000Z</time><ele>1050.2</ele></trkpt><trkpt lat="45.831191" lon="9.43651"><time>2024-03-23T09:32:49.000Z</time><ele>1050.2</ele></trkpt><trkpt lat="45.831202" lon="9.436504"><time>2024-03-23T09:32:50.000Z</time><ele>1050.2</ele></trkpt><trkpt lat="45.831211" lon="9.436501"><time>2024-03-23T09:32:51.000Z</time><ele>1050.2</ele></trkpt><trkpt lat="45.83122" lon="9.436492"><time>2024-03-23T09:32:52.000Z</time><ele>1050.4</ele></trkpt><trkpt lat="45.831233" lon="9.436483"><time>2024-03-23T09:32:53.000Z</time><ele>1050.4</ele></trkpt><trkpt lat="45.831246" lon="9.43648"><time>2024-03-23T09:32:54.000Z</time><ele>1050.4</ele></trkpt><trkpt lat="45.831251" lon="9.436476"><time>2024-03-23T09:32:55.000Z</time><ele>1050.4</ele></trkpt><trkpt lat="45.831254" lon="9.436479"><time>2024-03-23T09:32:56.000Z</time><ele>1050.6</ele></trkpt><trkpt lat="45.831257" lon="9.436479"><time>2024-03-23T09:32:57.000Z</time><ele>1050.8</ele></trkpt><trkpt lat="45.831265" lon="9.436476"><time>2024-03-23T09:32:58.000Z</time><ele>1050.8</ele></trkpt><trkpt lat="45.831268" lon="9.436475"><time>2024-03-23T09:32:59.000Z</time><ele>1051</ele></trkpt><trkpt lat="45.831271" lon="9.436476"><time>2024-03-23T09:33:00.000Z</time><ele>1051.2</ele></trkpt><trkpt lat="45.831276" lon="9.436476"><time>2024-03-23T09:33:01.000Z</time><ele>1051.4</ele></trkpt><trkpt lat="45.83128" lon="9.436484"><time>2024-03-23T09:33:02.000Z</time><ele>1051.6</ele></trkpt><trkpt lat="45.831281" lon="9.43649"><time>2024-03-23T09:33:03.000Z</time><ele>1051.6</ele></trkpt><trkpt lat="45.831281" lon="9.436495"><time>2024-03-23T09:33:04.000Z</time><ele>1051.8</ele></trkpt><trkpt lat="45.831282" lon="9.436497"><time>2024-03-23T09:33:05.000Z</time><ele>1052</ele></trkpt><trkpt lat="45.831286" lon="9.436498"><time>2024-03-23T09:33:06.000Z</time><ele>1052.2</ele></trkpt><trkpt lat="45.831293" lon="9.436498"><time>2024-03-23T09:33:07.000Z</time><ele>1052.4</ele></trkpt><trkpt lat="45.831296" lon="9.4365"><time>2024-03-23T09:33:08.000Z</time><ele>1052.6</ele></trkpt><trkpt lat="45.831297" lon="9.436501"><time>2024-03-23T09:33:09.000Z</time><ele>1052.8</ele></trkpt><trkpt lat="45.831297" lon="9.436501"><time>2024-03-23T09:33:10.000Z</time><ele>1053</ele></trkpt><trkpt lat="45.831297" lon="9.436501"><time>2024-03-23T09:33:11.000Z</time><ele>1053.2</ele></trkpt><trkpt lat="45.831297" lon="9.436501"><time>2024-03-23T09:33:12.000Z</time><ele>1053.6</ele></trkpt><trkpt lat="45.831297" lon="9.436501"><time>2024-03-23T09:33:13.000Z</time><ele>1053.6</ele></trkpt><trkpt lat="45.831297" lon="9.436501"><time>2024-03-23T09:33:14.000Z</time><ele>1053.8</ele></trkpt><trkpt lat="45.831297" lon="9.436501"><time>2024-03-23T09:33:15.000Z</time><ele>1053.8</ele></trkpt><trkpt lat="45.831297" lon="9.436501"><time>2024-03-23T09:33:16.000Z</time><ele>1053.8</ele></trkpt><trkpt lat="45.831297" lon="9.436501"><time>2024-03-23T09:33:17.000Z</time><ele>1054</ele></trkpt><trkpt lat="45.831297" lon="9.436501"><time>2024-03-23T09:33:18.000Z</time><ele>1054</ele></trkpt><trkpt lat="45.831297" lon="9.436501"><time>2024-03-23T09:33:19.000Z</time><ele>1054.2</ele></trkpt><trkpt lat="45.831297" lon="9.436501"><time>2024-03-23T09:33:20.000Z</time><ele>1054.4</ele></trkpt><trkpt lat="45.831297" lon="9.436501"><time>2024-03-23T09:33:21.000Z</time><ele>1055</ele></trkpt><trkpt lat="45.831297" lon="9.436501"><time>2024-03-23T09:33:22.000Z</time><ele>1055.2</ele></trkpt><trkpt lat="45.831297" lon="9.436501"><time>2024-03-23T09:33:23.000Z</time><ele>1055.4</ele></trkpt><trkpt lat="45.831297" lon="9.436501"><time>2024-03-23T09:33:24.000Z</time><ele>1055.6</ele></trkpt><trkpt lat="45.8313" lon="9.436501"><time>2024-03-23T09:33:25.000Z</time><ele>1055.6</ele></trkpt><trkpt lat="45.831302" lon="9.4365"><time>2024-03-23T09:33:26.000Z</time><ele>1055.6</ele></trkpt><trkpt lat="45.831304" lon="9.436499"><time>2024-03-23T09:33:27.000Z</time><ele>1055.4</ele></trkpt><trkpt lat="45.831305" lon="9.436499"><time>2024-03-23T09:33:28.000Z</time><ele>1055.4</ele></trkpt><trkpt lat="45.831314" lon="9.436499"><time>2024-03-23T09:33:29.000Z</time><ele>1055.4</ele></trkpt><trkpt lat="45.83133" lon="9.436504"><time>2024-03-23T09:33:30.000Z</time><ele>1055.4</ele></trkpt><trkpt lat="45.83135" lon="9.436505"><time>2024-03-23T09:33:31.000Z</time><ele>1055.4</ele></trkpt><trkpt lat="45.831369" lon="9.436507"><time>2024-03-23T09:33:32.000Z</time><ele>1055.4</ele></trkpt><trkpt lat="45.831388" lon="9.436511"><time>2024-03-23T09:33:33.000Z</time><ele>1055.4</ele></trkpt><trkpt lat="45.831407" lon="9.436515"><time>2024-03-23T09:33:34.000Z</time><ele>1055.4</ele></trkpt><trkpt lat="45.831425" lon="9.436521"><time>2024-03-23T09:33:35.000Z</time><ele>1055.4</ele></trkpt><trkpt lat="45.831445" lon="9.436526"><time>2024-03-23T09:33:36.000Z</time><ele>1055.4</ele></trkpt><trkpt lat="45.831467" lon="9.436525"><time>2024-03-23T09:33:37.000Z</time><ele>1055.2</ele></trkpt><trkpt lat="45.831488" lon="9.436521"><time>2024-03-23T09:33:38.000Z</time><ele>1055.2</ele></trkpt><trkpt lat="45.831498" lon="9.436516"><time>2024-03-23T09:33:39.000Z</time><ele>1055.2</ele></trkpt><trkpt lat="45.831507" lon="9.436512"><time>2024-03-23T09:33:40.000Z</time><ele>1055</ele></trkpt><trkpt lat="45.831516" lon="9.436509"><time>2024-03-23T09:33:41.000Z</time><ele>1055</ele></trkpt><trkpt lat="45.831526" lon="9.436506"><time>2024-03-23T09:33:42.000Z</time><ele>1055</ele></trkpt><trkpt lat="45.831537" lon="9.436503"><time>2024-03-23T09:33:43.000Z</time><ele>1055</ele></trkpt><trkpt lat="45.831545" lon="9.436497"><time>2024-03-23T09:33:44.000Z</time><ele>1055</ele></trkpt><trkpt lat="45.831555" lon="9.436491"><time>2024-03-23T09:33:45.000Z</time><ele>1055</ele></trkpt><trkpt lat="45.831565" lon="9.436489"><time>2024-03-23T09:33:46.000Z</time><ele>1055</ele></trkpt><trkpt lat="45.831573" lon="9.436487"><time>2024-03-23T09:33:47.000Z</time><ele>1055</ele></trkpt><trkpt lat="45.831582" lon="9.436485"><time>2024-03-23T09:33:48.000Z</time><ele>1055</ele></trkpt><trkpt lat="45.831586" lon="9.436482"><time>2024-03-23T09:33:49.000Z</time><ele>1054.8</ele></trkpt><trkpt lat="45.831588" lon="9.436481"><time>2024-03-23T09:33:50.000Z</time><ele>1054.8</ele></trkpt><trkpt lat="45.831589" lon="9.436481"><time>2024-03-23T09:33:51.000Z</time><ele>1054.8</ele></trkpt><trkpt lat="45.831589" lon="9.43648"><time>2024-03-23T09:33:52.000Z</time><ele>1054.8</ele></trkpt><trkpt lat="45.831588" lon="9.43648"><time>2024-03-23T09:33:53.000Z</time><ele>1054.8</ele></trkpt><trkpt lat="45.831588" lon="9.436479"><time>2024-03-23T09:33:54.000Z</time><ele>1055</ele></trkpt><trkpt lat="45.831588" lon="9.436478"><time>2024-03-23T09:33:55.000Z</time><ele>1055</ele></trkpt><trkpt lat="45.831588" lon="9.436477"><time>2024-03-23T09:33:56.000Z</time><ele>1055.2</ele></trkpt><trkpt lat="45.831588" lon="9.436478"><time>2024-03-23T09:33:57.000Z</time><ele>1055.2</ele></trkpt><trkpt lat="45.831594" lon="9.436478"><time>2024-03-23T09:33:58.000Z</time><ele>1055.2</ele></trkpt><trkpt lat="45.831601" lon="9.436476"><time>2024-03-23T09:33:59.000Z</time><ele>1055</ele></trkpt><trkpt lat="45.831609" lon="9.436472"><time>2024-03-23T09:34:00.000Z</time><ele>1055</ele></trkpt><trkpt lat="45.831618" lon="9.43647"><time>2024-03-23T09:34:01.000Z</time><ele>1055</ele></trkpt><trkpt lat="45.831627" lon="9.436468"><time>2024-03-23T09:34:02.000Z</time><ele>1055</ele></trkpt><trkpt lat="45.831635" lon="9.436466"><time>2024-03-23T09:34:03.000Z</time><ele>1054.8</ele></trkpt><trkpt lat="45.831644" lon="9.436466"><time>2024-03-23T09:34:04.000Z</time><ele>1054.8</ele></trkpt><trkpt lat="45.831656" lon="9.436468"><time>2024-03-23T09:34:05.000Z</time><ele>1054.8</ele></trkpt><trkpt lat="45.831668" lon="9.436469"><time>2024-03-23T09:34:06.000Z</time><ele>1054.6</ele></trkpt><trkpt lat="45.831677" lon="9.436471"><time>2024-03-23T09:34:07.000Z</time><ele>1054.2</ele></trkpt><trkpt lat="45.831683" lon="9.436471"><time>2024-03-23T09:34:08.000Z</time><ele>1054</ele></trkpt><trkpt lat="45.83169" lon="9.436469"><time>2024-03-23T09:34:09.000Z</time><ele>1053.8</ele></trkpt><trkpt lat="45.831699" lon="9.436469"><time>2024-03-23T09:34:10.000Z</time><ele>1053.8</ele></trkpt><trkpt lat="45.831706" lon="9.436462"><time>2024-03-23T09:34:11.000Z</time><ele>1053.8</ele></trkpt><trkpt lat="45.831708" lon="9.436452"><time>2024-03-23T09:34:12.000Z</time><ele>1053.6</ele></trkpt><trkpt lat="45.831711" lon="9.436445"><time>2024-03-23T09:34:13.000Z</time><ele>1053.4</ele></trkpt><trkpt lat="45.831713" lon="9.436439"><time>2024-03-23T09:34:14.000Z</time><ele>1053.2</ele></trkpt><trkpt lat="45.83172" lon="9.436437"><time>2024-03-23T09:34:15.000Z</time><ele>1053.2</ele></trkpt><trkpt lat="45.831728" lon="9.436432"><time>2024-03-23T09:34:16.000Z</time><ele>1053</ele></trkpt><trkpt lat="45.831738" lon="9.436432"><time>2024-03-23T09:34:17.000Z</time><ele>1053</ele></trkpt><trkpt lat="45.831749" lon="9.436434"><time>2024-03-23T09:34:18.000Z</time><ele>1052.8</ele></trkpt><trkpt lat="45.831759" lon="9.436432"><time>2024-03-23T09:34:19.000Z</time><ele>1052.6</ele></trkpt><trkpt lat="45.831771" lon="9.436432"><time>2024-03-23T09:34:20.000Z</time><ele>1052.4</ele></trkpt><trkpt lat="45.831782" lon="9.43643"><time>2024-03-23T09:34:21.000Z</time><ele>1052.4</ele></trkpt><trkpt lat="45.831795" lon="9.436433"><time>2024-03-23T09:34:22.000Z</time><ele>1052.4</ele></trkpt><trkpt lat="45.831804" lon="9.436435"><time>2024-03-23T09:34:23.000Z</time><ele>1052.2</ele></trkpt><trkpt lat="45.831813" lon="9.436435"><time>2024-03-23T09:34:24.000Z</time><ele>1052.2</ele></trkpt><trkpt lat="45.831822" lon="9.436436"><time>2024-03-23T09:34:25.000Z</time><ele>1052</ele></trkpt><trkpt lat="45.831834" lon="9.436436"><time>2024-03-23T09:34:26.000Z</time><ele>1051.8</ele></trkpt><trkpt lat="45.831842" lon="9.436436"><time>2024-03-23T09:34:27.000Z</time><ele>1051.6</ele></trkpt><trkpt lat="45.831853" lon="9.436436"><time>2024-03-23T09:34:28.000Z</time><ele>1051.6</ele></trkpt><trkpt lat="45.831867" lon="9.436434"><time>2024-03-23T09:34:29.000Z</time><ele>1051.4</ele></trkpt><trkpt lat="45.831879" lon="9.43643"><time>2024-03-23T09:34:30.000Z</time><ele>1051.2</ele></trkpt><trkpt lat="45.831893" lon="9.436428"><time>2024-03-23T09:34:31.000Z</time><ele>1051</ele></trkpt><trkpt lat="45.831909" lon="9.436421"><time>2024-03-23T09:34:32.000Z</time><ele>1051</ele></trkpt><trkpt lat="45.831921" lon="9.436412"><time>2024-03-23T09:34:33.000Z</time><ele>1051</ele></trkpt><trkpt lat="45.831935" lon="9.436404"><time>2024-03-23T09:34:34.000Z</time><ele>1051</ele></trkpt><trkpt lat="45.831943" lon="9.4364"><time>2024-03-23T09:34:35.000Z</time><ele>1051</ele></trkpt><trkpt lat="45.83195" lon="9.436397"><time>2024-03-23T09:34:36.000Z</time><ele>1050.8</ele></trkpt><trkpt lat="45.83196" lon="9.436391"><time>2024-03-23T09:34:37.000Z</time><ele>1050.6</ele></trkpt><trkpt lat="45.831972" lon="9.436388"><time>2024-03-23T09:34:38.000Z</time><ele>1050.6</ele></trkpt><trkpt lat="45.831985" lon="9.436385"><time>2024-03-23T09:34:39.000Z</time><ele>1050.4</ele></trkpt><trkpt lat="45.831996" lon="9.436379"><time>2024-03-23T09:34:40.000Z</time><ele>1050.2</ele></trkpt><trkpt lat="45.832006" lon="9.436373"><time>2024-03-23T09:34:41.000Z</time><ele>1050</ele></trkpt><trkpt lat="45.832014" lon="9.436367"><time>2024-03-23T09:34:42.000Z</time><ele>1049.8</ele></trkpt><trkpt lat="45.832027" lon="9.436367"><time>2024-03-23T09:34:43.000Z</time><ele>1049.6</ele></trkpt><trkpt lat="45.832038" lon="9.436369"><time>2024-03-23T09:34:44.000Z</time><ele>1049.4</ele></trkpt><trkpt lat="45.832047" lon="9.436369"><time>2024-03-23T09:34:45.000Z</time><ele>1049.2</ele></trkpt><trkpt lat="45.832061" lon="9.436369"><time>2024-03-23T09:34:46.000Z</time><ele>1049</ele></trkpt><trkpt lat="45.832073" lon="9.43637"><time>2024-03-23T09:34:47.000Z</time><ele>1048.8</ele></trkpt><trkpt lat="45.832085" lon="9.436372"><time>2024-03-23T09:34:48.000Z</time><ele>1048.8</ele></trkpt><trkpt lat="45.832096" lon="9.436373"><time>2024-03-23T09:34:49.000Z</time><ele>1048.8</ele></trkpt><trkpt lat="45.832107" lon="9.436374"><time>2024-03-23T09:34:50.000Z</time><ele>1048.6</ele></trkpt><trkpt lat="45.832118" lon="9.436377"><time>2024-03-23T09:34:51.000Z</time><ele>1048.6</ele></trkpt><trkpt lat="45.832131" lon="9.436377"><time>2024-03-23T09:34:52.000Z</time><ele>1048.4</ele></trkpt><trkpt lat="45.832142" lon="9.436374"><time>2024-03-23T09:34:53.000Z</time><ele>1048.2</ele></trkpt><trkpt lat="45.832156" lon="9.436369"><time>2024-03-23T09:34:54.000Z</time><ele>1048</ele></trkpt><trkpt lat="45.832171" lon="9.436365"><time>2024-03-23T09:34:55.000Z</time><ele>1048</ele></trkpt><trkpt lat="45.832185" lon="9.436363"><time>2024-03-23T09:34:56.000Z</time><ele>1047.8</ele></trkpt><trkpt lat="45.832196" lon="9.436365"><time>2024-03-23T09:34:57.000Z</time><ele>1047.8</ele></trkpt><trkpt lat="45.832205" lon="9.436365"><time>2024-03-23T09:34:58.000Z</time><ele>1047.8</ele></trkpt><trkpt lat="45.832211" lon="9.436364"><time>2024-03-23T09:34:59.000Z</time><ele>1047.8</ele></trkpt><trkpt lat="45.832219" lon="9.436362"><time>2024-03-23T09:35:00.000Z</time><ele>1047.8</ele></trkpt><trkpt lat="45.83223" lon="9.43636"><time>2024-03-23T09:35:01.000Z</time><ele>1047.6</ele></trkpt><trkpt lat="45.832239" lon="9.436355"><time>2024-03-23T09:35:02.000Z</time><ele>1047.6</ele></trkpt><trkpt lat="45.832251" lon="9.436353"><time>2024-03-23T09:35:03.000Z</time><ele>1047.4</ele></trkpt><trkpt lat="45.832265" lon="9.436353"><time>2024-03-23T09:35:04.000Z</time><ele>1047.4</ele></trkpt><trkpt lat="45.832278" lon="9.436348"><time>2024-03-23T09:35:05.000Z</time><ele>1047.2</ele></trkpt><trkpt lat="45.83229" lon="9.436344"><time>2024-03-23T09:35:06.000Z</time><ele>1047.2</ele></trkpt><trkpt lat="45.832301" lon="9.436342"><time>2024-03-23T09:35:07.000Z</time><ele>1047</ele></trkpt><trkpt lat="45.832313" lon="9.436341"><time>2024-03-23T09:35:08.000Z</time><ele>1047</ele></trkpt><trkpt lat="45.832324" lon="9.436341"><time>2024-03-23T09:35:09.000Z</time><ele>1046.6</ele></trkpt><trkpt lat="45.832336" lon="9.436338"><time>2024-03-23T09:35:10.000Z</time><ele>1046.4</ele></trkpt><trkpt lat="45.832344" lon="9.436338"><time>2024-03-23T09:35:11.000Z</time><ele>1046.2</ele></trkpt><trkpt lat="45.832357" lon="9.436339"><time>2024-03-23T09:35:12.000Z</time><ele>1046.2</ele></trkpt><trkpt lat="45.83237" lon="9.436338"><time>2024-03-23T09:35:13.000Z</time><ele>1045.8</ele></trkpt><trkpt lat="45.832382" lon="9.436336"><time>2024-03-23T09:35:14.000Z</time><ele>1045.6</ele></trkpt><trkpt lat="45.832394" lon="9.436338"><time>2024-03-23T09:35:15.000Z</time><ele>1045.6</ele></trkpt><trkpt lat="45.832403" lon="9.436343"><time>2024-03-23T09:35:16.000Z</time><ele>1045.4</ele></trkpt><trkpt lat="45.832415" lon="9.436344"><time>2024-03-23T09:35:17.000Z</time><ele>1045.2</ele></trkpt><trkpt lat="45.832428" lon="9.436342"><time>2024-03-23T09:35:18.000Z</time><ele>1045.2</ele></trkpt><trkpt lat="45.83244" lon="9.436341"><time>2024-03-23T09:35:19.000Z</time><ele>1045</ele></trkpt><trkpt lat="45.832451" lon="9.436337"><time>2024-03-23T09:35:20.000Z</time><ele>1044.8</ele></trkpt><trkpt lat="45.832461" lon="9.436331"><time>2024-03-23T09:35:21.000Z</time><ele>1044.6</ele></trkpt><trkpt lat="45.832478" lon="9.436323"><time>2024-03-23T09:35:22.000Z</time><ele>1044.4</ele></trkpt><trkpt lat="45.832493" lon="9.436314"><time>2024-03-23T09:35:23.000Z</time><ele>1044.4</ele></trkpt><trkpt lat="45.832506" lon="9.436304"><time>2024-03-23T09:35:24.000Z</time><ele>1044.4</ele></trkpt><trkpt lat="45.832516" lon="9.436296"><time>2024-03-23T09:35:25.000Z</time><ele>1044.4</ele></trkpt><trkpt lat="45.832532" lon="9.436286"><time>2024-03-23T09:35:26.000Z</time><ele>1044.4</ele></trkpt><trkpt lat="45.832538" lon="9.436284"><time>2024-03-23T09:35:27.000Z</time><ele>1044.4</ele></trkpt><trkpt lat="45.832546" lon="9.436281"><time>2024-03-23T09:35:28.000Z</time><ele>1044.6</ele></trkpt><trkpt lat="45.83255" lon="9.436277"><time>2024-03-23T09:35:29.000Z</time><ele>1044.6</ele></trkpt><trkpt lat="45.832553" lon="9.436274"><time>2024-03-23T09:35:30.000Z</time><ele>1044.8</ele></trkpt><trkpt lat="45.832556" lon="9.436272"><time>2024-03-23T09:35:31.000Z</time><ele>1045</ele></trkpt><trkpt lat="45.832561" lon="9.436268"><time>2024-03-23T09:35:32.000Z</time><ele>1045</ele></trkpt><trkpt lat="45.832575" lon="9.436266"><time>2024-03-23T09:35:33.000Z</time><ele>1045</ele></trkpt><trkpt lat="45.832587" lon="9.436265"><time>2024-03-23T09:35:34.000Z</time><ele>1045</ele></trkpt><trkpt lat="45.832598" lon="9.436266"><time>2024-03-23T09:35:35.000Z</time><ele>1045</ele></trkpt><trkpt lat="45.832615" lon="9.436265"><time>2024-03-23T09:35:36.000Z</time><ele>1045</ele></trkpt><trkpt lat="45.832628" lon="9.436266"><time>2024-03-23T09:35:37.000Z</time><ele>1045</ele></trkpt><trkpt lat="45.832634" lon="9.436265"><time>2024-03-23T09:35:38.000Z</time><ele>1045</ele></trkpt><trkpt lat="45.832644" lon="9.436263"><time>2024-03-23T09:35:39.000Z</time><ele>1045</ele></trkpt><trkpt lat="45.832646" lon="9.436259"><time>2024-03-23T09:35:40.000Z</time><ele>1045</ele></trkpt><trkpt lat="45.832656" lon="9.436255"><time>2024-03-23T09:35:41.000Z</time><ele>1045</ele></trkpt><trkpt lat="45.832667" lon="9.436252"><time>2024-03-23T09:35:42.000Z</time><ele>1045</ele></trkpt><trkpt lat="45.83268" lon="9.436242"><time>2024-03-23T09:35:43.000Z</time><ele>1045</ele></trkpt><trkpt lat="45.832684" lon="9.436236"><time>2024-03-23T09:35:44.000Z</time><ele>1045</ele></trkpt><trkpt lat="45.832687" lon="9.436231"><time>2024-03-23T09:35:45.000Z</time><ele>1045.2</ele></trkpt><trkpt lat="45.832689" lon="9.436226"><time>2024-03-23T09:35:46.000Z</time><ele>1045.6</ele></trkpt><trkpt lat="45.832691" lon="9.436221"><time>2024-03-23T09:35:47.000Z</time><ele>1045.6</ele></trkpt><trkpt lat="45.832698" lon="9.436214"><time>2024-03-23T09:35:48.000Z</time><ele>1045.8</ele></trkpt><trkpt lat="45.832708" lon="9.436206"><time>2024-03-23T09:35:49.000Z</time><ele>1046</ele></trkpt><trkpt lat="45.832717" lon="9.436202"><time>2024-03-23T09:35:50.000Z</time><ele>1046.4</ele></trkpt><trkpt lat="45.832723" lon="9.436199"><time>2024-03-23T09:35:51.000Z</time><ele>1046.4</ele></trkpt><trkpt lat="45.832726" lon="9.4362"><time>2024-03-23T09:35:52.000Z</time><ele>1046.6</ele></trkpt><trkpt lat="45.832727" lon="9.436198"><time>2024-03-23T09:35:53.000Z</time><ele>1047.2</ele></trkpt><trkpt lat="45.832728" lon="9.436196"><time>2024-03-23T09:35:54.000Z</time><ele>1047.4</ele></trkpt><trkpt lat="45.832728" lon="9.436185"><time>2024-03-23T09:35:55.000Z</time><ele>1047.6</ele></trkpt><trkpt lat="45.832728" lon="9.436175"><time>2024-03-23T09:35:56.000Z</time><ele>1047.8</ele></trkpt><trkpt lat="45.83273" lon="9.436163"><time>2024-03-23T09:35:57.000Z</time><ele>1047.8</ele></trkpt><trkpt lat="45.83273" lon="9.436159"><time>2024-03-23T09:35:58.000Z</time><ele>1048</ele></trkpt><trkpt lat="45.832732" lon="9.436155"><time>2024-03-23T09:35:59.000Z</time><ele>1048</ele></trkpt><trkpt lat="45.832733" lon="9.436153"><time>2024-03-23T09:36:00.000Z</time><ele>1048.2</ele></trkpt><trkpt lat="45.832734" lon="9.436149"><time>2024-03-23T09:36:01.000Z</time><ele>1048.6</ele></trkpt><trkpt lat="45.832734" lon="9.436146"><time>2024-03-23T09:36:02.000Z</time><ele>1048.8</ele></trkpt><trkpt lat="45.832735" lon="9.436143"><time>2024-03-23T09:36:03.000Z</time><ele>1049</ele></trkpt><trkpt lat="45.832738" lon="9.436139"><time>2024-03-23T09:36:04.000Z</time><ele>1049.2</ele></trkpt><trkpt lat="45.832744" lon="9.436134"><time>2024-03-23T09:36:05.000Z</time><ele>1049.2</ele></trkpt><trkpt lat="45.83275" lon="9.436128"><time>2024-03-23T09:36:06.000Z</time><ele>1049.4</ele></trkpt><trkpt lat="45.832755" lon="9.436122"><time>2024-03-23T09:36:07.000Z</time><ele>1049.4</ele></trkpt><trkpt lat="45.832761" lon="9.43611"><time>2024-03-23T09:36:08.000Z</time><ele>1049.6</ele></trkpt><trkpt lat="45.832763" lon="9.436106"><time>2024-03-23T09:36:09.000Z</time><ele>1050</ele></trkpt><trkpt lat="45.832764" lon="9.436104"><time>2024-03-23T09:36:10.000Z</time><ele>1050.2</ele></trkpt><trkpt lat="45.832765" lon="9.436094"><time>2024-03-23T09:36:11.000Z</time><ele>1050.4</ele></trkpt><trkpt lat="45.832769" lon="9.436089"><time>2024-03-23T09:36:12.000Z</time><ele>1050.6</ele></trkpt><trkpt lat="45.832775" lon="9.436084"><time>2024-03-23T09:36:13.000Z</time><ele>1050.6</ele></trkpt><trkpt lat="45.832784" lon="9.436081"><time>2024-03-23T09:36:14.000Z</time><ele>1050.6</ele></trkpt><trkpt lat="45.832791" lon="9.436077"><time>2024-03-23T09:36:15.000Z</time><ele>1050.8</ele></trkpt><trkpt lat="45.8328" lon="9.436069"><time>2024-03-23T09:36:16.000Z</time><ele>1050.8</ele></trkpt><trkpt lat="45.832811" lon="9.436059"><time>2024-03-23T09:36:17.000Z</time><ele>1050.6</ele></trkpt><trkpt lat="45.83282" lon="9.436055"><time>2024-03-23T09:36:18.000Z</time><ele>1050.6</ele></trkpt><trkpt lat="45.832831" lon="9.436049"><time>2024-03-23T09:36:19.000Z</time><ele>1050.6</ele></trkpt><trkpt lat="45.83284" lon="9.436046"><time>2024-03-23T09:36:20.000Z</time><ele>1050.6</ele></trkpt><trkpt lat="45.832847" lon="9.436044"><time>2024-03-23T09:36:21.000Z</time><ele>1050.4</ele></trkpt><trkpt lat="45.832854" lon="9.436038"><time>2024-03-23T09:36:22.000Z</time><ele>1050.4</ele></trkpt><trkpt lat="45.832863" lon="9.436032"><time>2024-03-23T09:36:23.000Z</time><ele>1050.2</ele></trkpt><trkpt lat="45.832871" lon="9.436026"><time>2024-03-23T09:36:24.000Z</time><ele>1050.2</ele></trkpt><trkpt lat="45.83288" lon="9.436017"><time>2024-03-23T09:36:25.000Z</time><ele>1050</ele></trkpt><trkpt lat="45.83289" lon="9.436008"><time>2024-03-23T09:36:26.000Z</time><ele>1050</ele></trkpt><trkpt lat="45.832897" lon="9.436"><time>2024-03-23T09:36:27.000Z</time><ele>1050</ele></trkpt><trkpt lat="45.832902" lon="9.435996"><time>2024-03-23T09:36:28.000Z</time><ele>1050</ele></trkpt><trkpt lat="45.832909" lon="9.435993"><time>2024-03-23T09:36:29.000Z</time><ele>1050</ele></trkpt><trkpt lat="45.832917" lon="9.43599"><time>2024-03-23T09:36:30.000Z</time><ele>1050</ele></trkpt><trkpt lat="45.832924" lon="9.435988"><time>2024-03-23T09:36:31.000Z</time><ele>1050.2</ele></trkpt><trkpt lat="45.832932" lon="9.435987"><time>2024-03-23T09:36:32.000Z</time><ele>1050.2</ele></trkpt><trkpt lat="45.832941" lon="9.435991"><time>2024-03-23T09:36:33.000Z</time><ele>1050.2</ele></trkpt><trkpt lat="45.832952" lon="9.435993"><time>2024-03-23T09:36:34.000Z</time><ele>1050</ele></trkpt><trkpt lat="45.832963" lon="9.435993"><time>2024-03-23T09:36:35.000Z</time><ele>1050</ele></trkpt><trkpt lat="45.832979" lon="9.435989"><time>2024-03-23T09:36:36.000Z</time><ele>1050</ele></trkpt><trkpt lat="45.832993" lon="9.435985"><time>2024-03-23T09:36:37.000Z</time><ele>1049.8</ele></trkpt><trkpt lat="45.833006" lon="9.435979"><time>2024-03-23T09:36:38.000Z</time><ele>1049.6</ele></trkpt><trkpt lat="45.833014" lon="9.435972"><time>2024-03-23T09:36:39.000Z</time><ele>1049.6</ele></trkpt><trkpt lat="45.833017" lon="9.435969"><time>2024-03-23T09:36:40.000Z</time><ele>1049.6</ele></trkpt><trkpt lat="45.833021" lon="9.435965"><time>2024-03-23T09:36:41.000Z</time><ele>1049.6</ele></trkpt><trkpt lat="45.833022" lon="9.435961"><time>2024-03-23T09:36:42.000Z</time><ele>1049.6</ele></trkpt><trkpt lat="45.833028" lon="9.435956"><time>2024-03-23T09:36:43.000Z</time><ele>1049.6</ele></trkpt><trkpt lat="45.833035" lon="9.435951"><time>2024-03-23T09:36:44.000Z</time><ele>1049.6</ele></trkpt><trkpt lat="45.833041" lon="9.435945"><time>2024-03-23T09:36:45.000Z</time><ele>1049.6</ele></trkpt><trkpt lat="45.83305" lon="9.435941"><time>2024-03-23T09:36:46.000Z</time><ele>1049.6</ele></trkpt><trkpt lat="45.83306" lon="9.435938"><time>2024-03-23T09:36:47.000Z</time><ele>1049.6</ele></trkpt><trkpt lat="45.833073" lon="9.435935"><time>2024-03-23T09:36:48.000Z</time><ele>1049.6</ele></trkpt><trkpt lat="45.833085" lon="9.435934"><time>2024-03-23T09:36:49.000Z</time><ele>1049.6</ele></trkpt><trkpt lat="45.833096" lon="9.435933"><time>2024-03-23T09:36:50.000Z</time><ele>1049.4</ele></trkpt><trkpt lat="45.833107" lon="9.435931"><time>2024-03-23T09:36:51.000Z</time><ele>1049.4</ele></trkpt><trkpt lat="45.83312" lon="9.43593"><time>2024-03-23T09:36:52.000Z</time><ele>1049.2</ele></trkpt><trkpt lat="45.833135" lon="9.435928"><time>2024-03-23T09:36:53.000Z</time><ele>1049.2</ele></trkpt><trkpt lat="45.833147" lon="9.435926"><time>2024-03-23T09:36:54.000Z</time><ele>1049.2</ele></trkpt><trkpt lat="45.833156" lon="9.435922"><time>2024-03-23T09:36:55.000Z</time><ele>1049.2</ele></trkpt><trkpt lat="45.833164" lon="9.435918"><time>2024-03-23T09:36:56.000Z</time><ele>1049.2</ele></trkpt><trkpt lat="45.833174" lon="9.435913"><time>2024-03-23T09:36:57.000Z</time><ele>1049.2</ele></trkpt><trkpt lat="45.83318" lon="9.435913"><time>2024-03-23T09:36:58.000Z</time><ele>1049.2</ele></trkpt><trkpt lat="45.833184" lon="9.435912"><time>2024-03-23T09:36:59.000Z</time><ele>1049.2</ele></trkpt><trkpt lat="45.833189" lon="9.435911"><time>2024-03-23T09:37:00.000Z</time><ele>1049.2</ele></trkpt><trkpt lat="45.833194" lon="9.435915"><time>2024-03-23T09:37:01.000Z</time><ele>1049.2</ele></trkpt><trkpt lat="45.833198" lon="9.435916"><time>2024-03-23T09:37:02.000Z</time><ele>1049.2</ele></trkpt><trkpt lat="45.833208" lon="9.435919"><time>2024-03-23T09:37:03.000Z</time><ele>1049.2</ele></trkpt><trkpt lat="45.833218" lon="9.43592"><time>2024-03-23T09:37:04.000Z</time><ele>1049.2</ele></trkpt><trkpt lat="45.833228" lon="9.435919"><time>2024-03-23T09:37:05.000Z</time><ele>1049.2</ele></trkpt><trkpt lat="45.833239" lon="9.435915"><time>2024-03-23T09:37:06.000Z</time><ele>1049.2</ele></trkpt><trkpt lat="45.833251" lon="9.435911"><time>2024-03-23T09:37:07.000Z</time><ele>1049</ele></trkpt><trkpt lat="45.833262" lon="9.435907"><time>2024-03-23T09:37:08.000Z</time><ele>1049</ele></trkpt><trkpt lat="45.833281" lon="9.435908"><time>2024-03-23T09:37:09.000Z</time><ele>1049</ele></trkpt><trkpt lat="45.833299" lon="9.435903"><time>2024-03-23T09:37:10.000Z</time><ele>1048.8</ele></trkpt><trkpt lat="45.833315" lon="9.435906"><time>2024-03-23T09:37:11.000Z</time><ele>1049</ele></trkpt><trkpt lat="45.833327" lon="9.435904"><time>2024-03-23T09:37:12.000Z</time><ele>1049</ele></trkpt><trkpt lat="45.833335" lon="9.435897"><time>2024-03-23T09:37:13.000Z</time><ele>1049</ele></trkpt><trkpt lat="45.833345" lon="9.435892"><time>2024-03-23T09:37:14.000Z</time><ele>1049.2</ele></trkpt><trkpt lat="45.833356" lon="9.435888"><time>2024-03-23T09:37:15.000Z</time><ele>1049.2</ele></trkpt><trkpt lat="45.833369" lon="9.435887"><time>2024-03-23T09:37:16.000Z</time><ele>1049.2</ele></trkpt><trkpt lat="45.833381" lon="9.435884"><time>2024-03-23T09:37:17.000Z</time><ele>1049.2</ele></trkpt><trkpt lat="45.83339" lon="9.435878"><time>2024-03-23T09:37:18.000Z</time><ele>1049.2</ele></trkpt><trkpt lat="45.833399" lon="9.435878"><time>2024-03-23T09:37:19.000Z</time><ele>1049.2</ele></trkpt><trkpt lat="45.833407" lon="9.435874"><time>2024-03-23T09:37:20.000Z</time><ele>1049.2</ele></trkpt><trkpt lat="45.833414" lon="9.435874"><time>2024-03-23T09:37:21.000Z</time><ele>1049.2</ele></trkpt><trkpt lat="45.833423" lon="9.435876"><time>2024-03-23T09:37:22.000Z</time><ele>1049.2</ele></trkpt><trkpt lat="45.833431" lon="9.435878"><time>2024-03-23T09:37:23.000Z</time><ele>1049</ele></trkpt><trkpt lat="45.833439" lon="9.435876"><time>2024-03-23T09:37:24.000Z</time><ele>1049</ele></trkpt><trkpt lat="45.833449" lon="9.435874"><time>2024-03-23T09:37:25.000Z</time><ele>1048.8</ele></trkpt><trkpt lat="45.83346" lon="9.435871"><time>2024-03-23T09:37:26.000Z</time><ele>1048.8</ele></trkpt><trkpt lat="45.833473" lon="9.435868"><time>2024-03-23T09:37:27.000Z</time><ele>1048.8</ele></trkpt><trkpt lat="45.833483" lon="9.435864"><time>2024-03-23T09:37:28.000Z</time><ele>1048.8</ele></trkpt><trkpt lat="45.833491" lon="9.435864"><time>2024-03-23T09:37:29.000Z</time><ele>1049</ele></trkpt><trkpt lat="45.833503" lon="9.435867"><time>2024-03-23T09:37:30.000Z</time><ele>1049</ele></trkpt><trkpt lat="45.833516" lon="9.435868"><time>2024-03-23T09:37:31.000Z</time><ele>1049</ele></trkpt><trkpt lat="45.833528" lon="9.435867"><time>2024-03-23T09:37:32.000Z</time><ele>1049</ele></trkpt><trkpt lat="45.833538" lon="9.435866"><time>2024-03-23T09:37:33.000Z</time><ele>1049</ele></trkpt><trkpt lat="45.83355" lon="9.435863"><time>2024-03-23T09:37:34.000Z</time><ele>1049</ele></trkpt><trkpt lat="45.833561" lon="9.435858"><time>2024-03-23T09:37:35.000Z</time><ele>1049</ele></trkpt><trkpt lat="45.83357" lon="9.435854"><time>2024-03-23T09:37:36.000Z</time><ele>1049</ele></trkpt><trkpt lat="45.833575" lon="9.435849"><time>2024-03-23T09:37:37.000Z</time><ele>1049</ele></trkpt><trkpt lat="45.833579" lon="9.435848"><time>2024-03-23T09:37:38.000Z</time><ele>1049</ele></trkpt><trkpt lat="45.833582" lon="9.43585"><time>2024-03-23T09:37:39.000Z</time><ele>1049.2</ele></trkpt><trkpt lat="45.833589" lon="9.435854"><time>2024-03-23T09:37:40.000Z</time><ele>1049.2</ele></trkpt><trkpt lat="45.833597" lon="9.435858"><time>2024-03-23T09:37:41.000Z</time><ele>1049</ele></trkpt><trkpt lat="45.833607" lon="9.435853"><time>2024-03-23T09:37:42.000Z</time><ele>1049</ele></trkpt><trkpt lat="45.833616" lon="9.435848"><time>2024-03-23T09:37:43.000Z</time><ele>1048.8</ele></trkpt><trkpt lat="45.833628" lon="9.435846"><time>2024-03-23T09:37:44.000Z</time><ele>1048.6</ele></trkpt><trkpt lat="45.83364" lon="9.435844"><time>2024-03-23T09:37:45.000Z</time><ele>1048.4</ele></trkpt><trkpt lat="45.83365" lon="9.435838"><time>2024-03-23T09:37:46.000Z</time><ele>1048.2</ele></trkpt><trkpt lat="45.833658" lon="9.435838"><time>2024-03-23T09:37:47.000Z</time><ele>1048.2</ele></trkpt><trkpt lat="45.833669" lon="9.435838"><time>2024-03-23T09:37:48.000Z</time><ele>1048.2</ele></trkpt><trkpt lat="45.833682" lon="9.435837"><time>2024-03-23T09:37:49.000Z</time><ele>1048.2</ele></trkpt><trkpt lat="45.833693" lon="9.435834"><time>2024-03-23T09:37:50.000Z</time><ele>1048</ele></trkpt><trkpt lat="45.833703" lon="9.435832"><time>2024-03-23T09:37:51.000Z</time><ele>1048</ele></trkpt><trkpt lat="45.833711" lon="9.435834"><time>2024-03-23T09:37:52.000Z</time><ele>1048</ele></trkpt><trkpt lat="45.83372" lon="9.435838"><time>2024-03-23T09:37:53.000Z</time><ele>1048</ele></trkpt><trkpt lat="45.833731" lon="9.43584"><time>2024-03-23T09:37:54.000Z</time><ele>1048</ele></trkpt><trkpt lat="45.833745" lon="9.435841"><time>2024-03-23T09:37:55.000Z</time><ele>1048</ele></trkpt><trkpt lat="45.833761" lon="9.435836"><time>2024-03-23T09:37:56.000Z</time><ele>1048</ele></trkpt><trkpt lat="45.83377" lon="9.435832"><time>2024-03-23T09:37:57.000Z</time><ele>1047.8</ele></trkpt><trkpt lat="45.833779" lon="9.435828"><time>2024-03-23T09:37:58.000Z</time><ele>1047.8</ele></trkpt><trkpt lat="45.833789" lon="9.435824"><time>2024-03-23T09:37:59.000Z</time><ele>1047.8</ele></trkpt><trkpt lat="45.833796" lon="9.435817"><time>2024-03-23T09:38:00.000Z</time><ele>1047.8</ele></trkpt><trkpt lat="45.833801" lon="9.435809"><time>2024-03-23T09:38:01.000Z</time><ele>1047.8</ele></trkpt><trkpt lat="45.833806" lon="9.435807"><time>2024-03-23T09:38:02.000Z</time><ele>1048</ele></trkpt><trkpt lat="45.833814" lon="9.435806"><time>2024-03-23T09:38:03.000Z</time><ele>1048</ele></trkpt><trkpt lat="45.833823" lon="9.435805"><time>2024-03-23T09:38:04.000Z</time><ele>1048.2</ele></trkpt><trkpt lat="45.833838" lon="9.4358"><time>2024-03-23T09:38:05.000Z</time><ele>1048.2</ele></trkpt><trkpt lat="45.833847" lon="9.4358"><time>2024-03-23T09:38:06.000Z</time><ele>1048.2</ele></trkpt><trkpt lat="45.833857" lon="9.435798"><time>2024-03-23T09:38:07.000Z</time><ele>1048.2</ele></trkpt><trkpt lat="45.833866" lon="9.435797"><time>2024-03-23T09:38:08.000Z</time><ele>1048.2</ele></trkpt><trkpt lat="45.833873" lon="9.435797"><time>2024-03-23T09:38:09.000Z</time><ele>1048.2</ele></trkpt><trkpt lat="45.833874" lon="9.435798"><time>2024-03-23T09:38:10.000Z</time><ele>1048</ele></trkpt><trkpt lat="45.833874" lon="9.435798"><time>2024-03-23T09:38:11.000Z</time><ele>1048</ele></trkpt><trkpt lat="45.833873" lon="9.435797"><time>2024-03-23T09:38:12.000Z</time><ele>1047.8</ele></trkpt><trkpt lat="45.833872" lon="9.435793"><time>2024-03-23T09:38:13.000Z</time><ele>1047.8</ele></trkpt><trkpt lat="45.833871" lon="9.435793"><time>2024-03-23T09:38:14.000Z</time><ele>1047.6</ele></trkpt><trkpt lat="45.833871" lon="9.435794"><time>2024-03-23T09:38:15.000Z</time><ele>1047.6</ele></trkpt><trkpt lat="45.833872" lon="9.435793"><time>2024-03-23T09:38:16.000Z</time><ele>1047.6</ele></trkpt><trkpt lat="45.833871" lon="9.435794"><time>2024-03-23T09:38:17.000Z</time><ele>1047.6</ele></trkpt><trkpt lat="45.83387" lon="9.435794"><time>2024-03-23T09:38:18.000Z</time><ele>1047.6</ele></trkpt><trkpt lat="45.833869" lon="9.435794"><time>2024-03-23T09:38:19.000Z</time><ele>1047.6</ele></trkpt><trkpt lat="45.83387" lon="9.435793"><time>2024-03-23T09:38:20.000Z</time><ele>1047.6</ele></trkpt><trkpt lat="45.833871" lon="9.435792"><time>2024-03-23T09:38:21.000Z</time><ele>1047.6</ele></trkpt><trkpt lat="45.83387" lon="9.435793"><time>2024-03-23T09:38:22.000Z</time><ele>1047.6</ele></trkpt><trkpt lat="45.833869" lon="9.435794"><time>2024-03-23T09:38:23.000Z</time><ele>1047.6</ele></trkpt><trkpt lat="45.833868" lon="9.435794"><time>2024-03-23T09:38:24.000Z</time><ele>1047.6</ele></trkpt><trkpt lat="45.833867" lon="9.435794"><time>2024-03-23T09:38:25.000Z</time><ele>1047.6</ele></trkpt><trkpt lat="45.833866" lon="9.435795"><time>2024-03-23T09:38:26.000Z</time><ele>1047.6</ele></trkpt><trkpt lat="45.833867" lon="9.435795"><time>2024-03-23T09:38:27.000Z</time><ele>1047.4</ele></trkpt><trkpt lat="45.833867" lon="9.435795"><time>2024-03-23T09:38:28.000Z</time><ele>1047.4</ele></trkpt><trkpt lat="45.833867" lon="9.435795"><time>2024-03-23T09:38:29.000Z</time><ele>1047.4</ele></trkpt><trkpt lat="45.833867" lon="9.435795"><time>2024-03-23T09:38:30.000Z</time><ele>1047.4</ele></trkpt><trkpt lat="45.833867" lon="9.435795"><time>2024-03-23T09:38:31.000Z</time><ele>1047.4</ele></trkpt><trkpt lat="45.833867" lon="9.435795"><time>2024-03-23T09:38:32.000Z</time><ele>1047.4</ele></trkpt><trkpt lat="45.833867" lon="9.435795"><time>2024-03-23T09:38:33.000Z</time><ele>1047.2</ele></trkpt><trkpt lat="45.833867" lon="9.435795"><time>2024-03-23T09:38:34.000Z</time><ele>1047.2</ele></trkpt><trkpt lat="45.833867" lon="9.435795"><time>2024-03-23T09:38:35.000Z</time><ele>1047.2</ele></trkpt><trkpt lat="45.833867" lon="9.435795"><time>2024-03-23T09:38:36.000Z</time><ele>1047</ele></trkpt><trkpt lat="45.833867" lon="9.435795"><time>2024-03-23T09:38:37.000Z</time><ele>1046.8</ele></trkpt><trkpt lat="45.833867" lon="9.435795"><time>2024-03-23T09:38:38.000Z</time><ele>1046.6</ele></trkpt><trkpt lat="45.833867" lon="9.435795"><time>2024-03-23T09:38:39.000Z</time><ele>1046.4</ele></trkpt><trkpt lat="45.833867" lon="9.435795"><time>2024-03-23T09:38:40.000Z</time><ele>1046.4</ele></trkpt><trkpt lat="45.833867" lon="9.435795"><time>2024-03-23T09:38:41.000Z</time><ele>1046.4</ele></trkpt><trkpt lat="45.833867" lon="9.435795"><time>2024-03-23T09:38:42.000Z</time><ele>1046.4</ele></trkpt><trkpt lat="45.833867" lon="9.435795"><time>2024-03-23T09:38:43.000Z</time><ele>1046.4</ele></trkpt><trkpt lat="45.833867" lon="9.435795"><time>2024-03-23T09:38:44.000Z</time><ele>1046.6</ele></trkpt><trkpt lat="45.833867" lon="9.435795"><time>2024-03-23T09:38:45.000Z</time><ele>1046.6</ele></trkpt><trkpt lat="45.833867" lon="9.435795"><time>2024-03-23T09:38:46.000Z</time><ele>1046.8</ele></trkpt><trkpt lat="45.833868" lon="9.435795"><time>2024-03-23T09:38:47.000Z</time><ele>1047.2</ele></trkpt><trkpt lat="45.833868" lon="9.435797"><time>2024-03-23T09:38:48.000Z</time><ele>1047.4</ele></trkpt><trkpt lat="45.833868" lon="9.435799"><time>2024-03-23T09:38:49.000Z</time><ele>1047.4</ele></trkpt><trkpt lat="45.833868" lon="9.435799"><time>2024-03-23T09:38:50.000Z</time><ele>1047.4</ele></trkpt><trkpt lat="45.833868" lon="9.4358"><time>2024-03-23T09:38:51.000Z</time><ele>1047.4</ele></trkpt><trkpt lat="45.833868" lon="9.4358"><time>2024-03-23T09:38:52.000Z</time><ele>1047.4</ele></trkpt><trkpt lat="45.833868" lon="9.4358"><time>2024-03-23T09:38:53.000Z</time><ele>1047.6</ele></trkpt><trkpt lat="45.833868" lon="9.4358"><time>2024-03-23T09:38:54.000Z</time><ele>1047.6</ele></trkpt><trkpt lat="45.833873" lon="9.435799"><time>2024-03-23T09:38:55.000Z</time><ele>1047.4</ele></trkpt><trkpt lat="45.833886" lon="9.435795"><time>2024-03-23T09:38:56.000Z</time><ele>1047.4</ele></trkpt><trkpt lat="45.8339" lon="9.435793"><time>2024-03-23T09:38:57.000Z</time><ele>1047.4</ele></trkpt><trkpt lat="45.833913" lon="9.43579"><time>2024-03-23T09:38:58.000Z</time><ele>1047.4</ele></trkpt><trkpt lat="45.833921" lon="9.435785"><time>2024-03-23T09:38:59.000Z</time><ele>1047.4</ele></trkpt><trkpt lat="45.833927" lon="9.435782"><time>2024-03-23T09:39:00.000Z</time><ele>1047.4</ele></trkpt><trkpt lat="45.833932" lon="9.435781"><time>2024-03-23T09:39:01.000Z</time><ele>1047.2</ele></trkpt><trkpt lat="45.833936" lon="9.435781"><time>2024-03-23T09:39:02.000Z</time><ele>1047.2</ele></trkpt><trkpt lat="45.833941" lon="9.435781"><time>2024-03-23T09:39:03.000Z</time><ele>1047.2</ele></trkpt><trkpt lat="45.833945" lon="9.43578"><time>2024-03-23T09:39:04.000Z</time><ele>1047.2</ele></trkpt><trkpt lat="45.833945" lon="9.435781"><time>2024-03-23T09:39:05.000Z</time><ele>1047.2</ele></trkpt><trkpt lat="45.833945" lon="9.435781"><time>2024-03-23T09:39:06.000Z</time><ele>1047.2</ele></trkpt><trkpt lat="45.833946" lon="9.435781"><time>2024-03-23T09:39:07.000Z</time><ele>1047.2</ele></trkpt><trkpt lat="45.833951" lon="9.435784"><time>2024-03-23T09:39:08.000Z</time><ele>1047.2</ele></trkpt><trkpt lat="45.833963" lon="9.435782"><time>2024-03-23T09:39:09.000Z</time><ele>1047.2</ele></trkpt><trkpt lat="45.833976" lon="9.435778"><time>2024-03-23T09:39:10.000Z</time><ele>1047.2</ele></trkpt><trkpt lat="45.833988" lon="9.435777"><time>2024-03-23T09:39:11.000Z</time><ele>1047.2</ele></trkpt><trkpt lat="45.834" lon="9.435776"><time>2024-03-23T09:39:12.000Z</time><ele>1047</ele></trkpt><trkpt lat="45.834011" lon="9.435771"><time>2024-03-23T09:39:13.000Z</time><ele>1047</ele></trkpt><trkpt lat="45.834021" lon="9.435766"><time>2024-03-23T09:39:14.000Z</time><ele>1047</ele></trkpt><trkpt lat="45.83403" lon="9.435761"><time>2024-03-23T09:39:15.000Z</time><ele>1046.8</ele></trkpt><trkpt lat="45.834042" lon="9.435758"><time>2024-03-23T09:39:16.000Z</time><ele>1046.8</ele></trkpt><trkpt lat="45.834052" lon="9.43576"><time>2024-03-23T09:39:17.000Z</time><ele>1046.8</ele></trkpt><trkpt lat="45.834066" lon="9.435765"><time>2024-03-23T09:39:18.000Z</time><ele>1046.8</ele></trkpt><trkpt lat="45.834082" lon="9.435766"><time>2024-03-23T09:39:19.000Z</time><ele>1047</ele></trkpt><trkpt lat="45.834096" lon="9.435767"><time>2024-03-23T09:39:20.000Z</time><ele>1047</ele></trkpt><trkpt lat="45.834108" lon="9.43577"><time>2024-03-23T09:39:21.000Z</time><ele>1047</ele></trkpt><trkpt lat="45.834121" lon="9.435769"><time>2024-03-23T09:39:22.000Z</time><ele>1047</ele></trkpt><trkpt lat="45.834133" lon="9.435767"><time>2024-03-23T09:39:23.000Z</time><ele>1047.2</ele></trkpt><trkpt lat="45.834145" lon="9.435765"><time>2024-03-23T09:39:24.000Z</time><ele>1047.2</ele></trkpt><trkpt lat="45.834154" lon="9.435767"><time>2024-03-23T09:39:25.000Z</time><ele>1047.4</ele></trkpt><trkpt lat="45.834166" lon="9.435769"><time>2024-03-23T09:39:26.000Z</time><ele>1047.4</ele></trkpt><trkpt lat="45.834179" lon="9.43577"><time>2024-03-23T09:39:27.000Z</time><ele>1047.4</ele></trkpt><trkpt lat="45.83419" lon="9.435776"><time>2024-03-23T09:39:28.000Z</time><ele>1047.4</ele></trkpt><trkpt lat="45.834202" lon="9.43578"><time>2024-03-23T09:39:29.000Z</time><ele>1047.4</ele></trkpt><trkpt lat="45.834215" lon="9.435783"><time>2024-03-23T09:39:30.000Z</time><ele>1047.2</ele></trkpt><trkpt lat="45.834228" lon="9.435786"><time>2024-03-23T09:39:31.000Z</time><ele>1047</ele></trkpt><trkpt lat="45.83424" lon="9.435789"><time>2024-03-23T09:39:32.000Z</time><ele>1047</ele></trkpt><trkpt lat="45.834255" lon="9.435793"><time>2024-03-23T09:39:33.000Z</time><ele>1047</ele></trkpt><trkpt lat="45.834267" lon="9.435796"><time>2024-03-23T09:39:34.000Z</time><ele>1047</ele></trkpt><trkpt lat="45.834279" lon="9.435795"><time>2024-03-23T09:39:35.000Z</time><ele>1047</ele></trkpt><trkpt lat="45.83429" lon="9.435794"><time>2024-03-23T09:39:36.000Z</time><ele>1047</ele></trkpt><trkpt lat="45.834298" lon="9.435794"><time>2024-03-23T09:39:37.000Z</time><ele>1047.2</ele></trkpt><trkpt lat="45.834307" lon="9.435797"><time>2024-03-23T09:39:38.000Z</time><ele>1047.4</ele></trkpt><trkpt lat="45.834318" lon="9.435801"><time>2024-03-23T09:39:39.000Z</time><ele>1047.4</ele></trkpt><trkpt lat="45.834328" lon="9.435805"><time>2024-03-23T09:39:40.000Z</time><ele>1047.6</ele></trkpt><trkpt lat="45.83434" lon="9.435809"><time>2024-03-23T09:39:41.000Z</time><ele>1047.6</ele></trkpt><trkpt lat="45.834352" lon="9.43581"><time>2024-03-23T09:39:42.000Z</time><ele>1047.6</ele></trkpt><trkpt lat="45.834362" lon="9.435807"><time>2024-03-23T09:39:43.000Z</time><ele>1047.6</ele></trkpt><trkpt lat="45.834373" lon="9.435803"><time>2024-03-23T09:39:44.000Z</time><ele>1047.8</ele></trkpt><trkpt lat="45.83438" lon="9.435798"><time>2024-03-23T09:39:45.000Z</time><ele>1048</ele></trkpt><trkpt lat="45.834386" lon="9.435795"><time>2024-03-23T09:39:46.000Z</time><ele>1048</ele></trkpt><trkpt lat="45.834391" lon="9.435795"><time>2024-03-23T09:39:47.000Z</time><ele>1048</ele></trkpt><trkpt lat="45.834396" lon="9.435801"><time>2024-03-23T09:39:48.000Z</time><ele>1048.2</ele></trkpt><trkpt lat="45.834402" lon="9.435809"><time>2024-03-23T09:39:49.000Z</time><ele>1048.4</ele></trkpt><trkpt lat="45.834409" lon="9.435816"><time>2024-03-23T09:39:50.000Z</time><ele>1048.6</ele></trkpt><trkpt lat="45.834421" lon="9.435821"><time>2024-03-23T09:39:51.000Z</time><ele>1048.6</ele></trkpt><trkpt lat="45.834433" lon="9.435823"><time>2024-03-23T09:39:52.000Z</time><ele>1048.6</ele></trkpt><trkpt lat="45.834442" lon="9.435825"><time>2024-03-23T09:39:53.000Z</time><ele>1048.8</ele></trkpt><trkpt lat="45.834446" lon="9.435823"><time>2024-03-23T09:39:54.000Z</time><ele>1048.8</ele></trkpt><trkpt lat="45.834449" lon="9.435824"><time>2024-03-23T09:39:55.000Z</time><ele>1049</ele></trkpt><trkpt lat="45.834453" lon="9.43583"><time>2024-03-23T09:39:56.000Z</time><ele>1049</ele></trkpt><trkpt lat="45.834461" lon="9.435839"><time>2024-03-23T09:39:57.000Z</time><ele>1049.2</ele></trkpt><trkpt lat="45.83447" lon="9.435852"><time>2024-03-23T09:39:58.000Z</time><ele>1049.2</ele></trkpt><trkpt lat="45.83448" lon="9.435861"><time>2024-03-23T09:39:59.000Z</time><ele>1049.4</ele></trkpt><trkpt lat="45.834489" lon="9.435866"><time>2024-03-23T09:40:00.000Z</time><ele>1049.4</ele></trkpt><trkpt lat="45.834495" lon="9.435871"><time>2024-03-23T09:40:01.000Z</time><ele>1049.4</ele></trkpt><trkpt lat="45.834502" lon="9.435876"><time>2024-03-23T09:40:02.000Z</time><ele>1049.4</ele></trkpt><trkpt lat="45.834513" lon="9.43588"><time>2024-03-23T09:40:03.000Z</time><ele>1049.4</ele></trkpt><trkpt lat="45.834525" lon="9.435886"><time>2024-03-23T09:40:04.000Z</time><ele>1049.4</ele></trkpt><trkpt lat="45.834536" lon="9.435893"><time>2024-03-23T09:40:05.000Z</time><ele>1049.4</ele></trkpt><trkpt lat="45.834548" lon="9.435896"><time>2024-03-23T09:40:06.000Z</time><ele>1049.6</ele></trkpt><trkpt lat="45.834565" lon="9.435895"><time>2024-03-23T09:40:07.000Z</time><ele>1049.6</ele></trkpt><trkpt lat="45.834576" lon="9.435903"><time>2024-03-23T09:40:08.000Z</time><ele>1049.6</ele></trkpt><trkpt lat="45.834582" lon="9.435912"><time>2024-03-23T09:40:09.000Z</time><ele>1049.8</ele></trkpt><trkpt lat="45.834594" lon="9.435917"><time>2024-03-23T09:40:10.000Z</time><ele>1049.8</ele></trkpt><trkpt lat="45.834604" lon="9.435913"><time>2024-03-23T09:40:11.000Z</time><ele>1049.8</ele></trkpt><trkpt lat="45.834618" lon="9.435914"><time>2024-03-23T09:40:12.000Z</time><ele>1050</ele></trkpt><trkpt lat="45.834623" lon="9.435915"><time>2024-03-23T09:40:13.000Z</time><ele>1050.2</ele></trkpt><trkpt lat="45.834629" lon="9.435922"><time>2024-03-23T09:40:14.000Z</time><ele>1050.2</ele></trkpt><trkpt lat="45.834641" lon="9.435933"><time>2024-03-23T09:40:15.000Z</time><ele>1050.2</ele></trkpt><trkpt lat="45.834653" lon="9.43594"><time>2024-03-23T09:40:16.000Z</time><ele>1050.2</ele></trkpt><trkpt lat="45.834663" lon="9.435948"><time>2024-03-23T09:40:17.000Z</time><ele>1050.2</ele></trkpt><trkpt lat="45.834673" lon="9.435953"><time>2024-03-23T09:40:18.000Z</time><ele>1050.2</ele></trkpt><trkpt lat="45.834683" lon="9.435953"><time>2024-03-23T09:40:19.000Z</time><ele>1050.2</ele></trkpt><trkpt lat="45.834694" lon="9.435954"><time>2024-03-23T09:40:20.000Z</time><ele>1050.2</ele></trkpt><trkpt lat="45.834705" lon="9.435952"><time>2024-03-23T09:40:21.000Z</time><ele>1050.4</ele></trkpt><trkpt lat="45.834714" lon="9.435955"><time>2024-03-23T09:40:22.000Z</time><ele>1050.4</ele></trkpt><trkpt lat="45.834725" lon="9.435958"><time>2024-03-23T09:40:23.000Z</time><ele>1050.4</ele></trkpt><trkpt lat="45.834736" lon="9.435963"><time>2024-03-23T09:40:24.000Z</time><ele>1050.4</ele></trkpt><trkpt lat="45.834748" lon="9.435964"><time>2024-03-23T09:40:25.000Z</time><ele>1050.4</ele></trkpt><trkpt lat="45.83476" lon="9.435962"><time>2024-03-23T09:40:26.000Z</time><ele>1050.4</ele></trkpt><trkpt lat="45.834772" lon="9.435961"><time>2024-03-23T09:40:27.000Z</time><ele>1050.4</ele></trkpt><trkpt lat="45.834782" lon="9.435961"><time>2024-03-23T09:40:28.000Z</time><ele>1050.4</ele></trkpt><trkpt lat="45.834789" lon="9.435961"><time>2024-03-23T09:40:29.000Z</time><ele>1050.4</ele></trkpt><trkpt lat="45.8348" lon="9.435962"><time>2024-03-23T09:40:30.000Z</time><ele>1050.6</ele></trkpt><trkpt lat="45.834811" lon="9.435963"><time>2024-03-23T09:40:31.000Z</time><ele>1050.6</ele></trkpt><trkpt lat="45.834821" lon="9.435968"><time>2024-03-23T09:40:32.000Z</time><ele>1050.6</ele></trkpt><trkpt lat="45.834835" lon="9.435973"><time>2024-03-23T09:40:33.000Z</time><ele>1050.6</ele></trkpt><trkpt lat="45.834844" lon="9.435974"><time>2024-03-23T09:40:34.000Z</time><ele>1050.6</ele></trkpt><trkpt lat="45.834857" lon="9.435988"><time>2024-03-23T09:40:35.000Z</time><ele>1050.6</ele></trkpt><trkpt lat="45.834867" lon="9.435986"><time>2024-03-23T09:40:36.000Z</time><ele>1050.8</ele></trkpt><trkpt lat="45.834878" lon="9.435985"><time>2024-03-23T09:40:37.000Z</time><ele>1051</ele></trkpt><trkpt lat="45.83489" lon="9.435986"><time>2024-03-23T09:40:38.000Z</time><ele>1051</ele></trkpt><trkpt lat="45.834898" lon="9.435987"><time>2024-03-23T09:40:39.000Z</time><ele>1051.2</ele></trkpt><trkpt lat="45.834909" lon="9.435987"><time>2024-03-23T09:40:40.000Z</time><ele>1051.2</ele></trkpt><trkpt lat="45.834921" lon="9.435987"><time>2024-03-23T09:40:41.000Z</time><ele>1051.2</ele></trkpt><trkpt lat="45.834927" lon="9.435988"><time>2024-03-23T09:40:42.000Z</time><ele>1051.4</ele></trkpt><trkpt lat="45.834937" lon="9.435984"><time>2024-03-23T09:40:43.000Z</time><ele>1051.4</ele></trkpt><trkpt lat="45.834948" lon="9.435979"><time>2024-03-23T09:40:44.000Z</time><ele>1051.4</ele></trkpt><trkpt lat="45.834957" lon="9.435969"><time>2024-03-23T09:40:45.000Z</time><ele>1051.4</ele></trkpt><trkpt lat="45.834965" lon="9.435958"><time>2024-03-23T09:40:46.000Z</time><ele>1051.4</ele></trkpt><trkpt lat="45.834972" lon="9.435949"><time>2024-03-23T09:40:47.000Z</time><ele>1051.4</ele></trkpt><trkpt lat="45.834981" lon="9.435942"><time>2024-03-23T09:40:48.000Z</time><ele>1051.4</ele></trkpt><trkpt lat="45.834987" lon="9.435939"><time>2024-03-23T09:40:49.000Z</time><ele>1051.8</ele></trkpt><trkpt lat="45.834995" lon="9.43594"><time>2024-03-23T09:40:50.000Z</time><ele>1052</ele></trkpt><trkpt lat="45.835004" lon="9.435939"><time>2024-03-23T09:40:51.000Z</time><ele>1052.2</ele></trkpt><trkpt lat="45.835012" lon="9.435933"><time>2024-03-23T09:40:52.000Z</time><ele>1052.2</ele></trkpt><trkpt lat="45.835025" lon="9.435919"><time>2024-03-23T09:40:53.000Z</time><ele>1052.4</ele></trkpt><trkpt lat="45.835037" lon="9.435914"><time>2024-03-23T09:40:54.000Z</time><ele>1052.6</ele></trkpt><trkpt lat="45.835051" lon="9.43591"><time>2024-03-23T09:40:55.000Z</time><ele>1052.8</ele></trkpt><trkpt lat="45.835057" lon="9.435903"><time>2024-03-23T09:40:56.000Z</time><ele>1052.8</ele></trkpt><trkpt lat="45.83506" lon="9.435898"><time>2024-03-23T09:40:57.000Z</time><ele>1053</ele></trkpt><trkpt lat="45.835064" lon="9.435894"><time>2024-03-23T09:40:58.000Z</time><ele>1053</ele></trkpt><trkpt lat="45.835068" lon="9.435893"><time>2024-03-23T09:40:59.000Z</time><ele>1053.2</ele></trkpt><trkpt lat="45.835074" lon="9.435887"><time>2024-03-23T09:41:00.000Z</time><ele>1053.4</ele></trkpt><trkpt lat="45.835079" lon="9.435879"><time>2024-03-23T09:41:01.000Z</time><ele>1053.4</ele></trkpt><trkpt lat="45.835084" lon="9.435871"><time>2024-03-23T09:41:02.000Z</time><ele>1053.6</ele></trkpt><trkpt lat="45.835087" lon="9.435866"><time>2024-03-23T09:41:03.000Z</time><ele>1053.8</ele></trkpt><trkpt lat="45.835096" lon="9.435861"><time>2024-03-23T09:41:04.000Z</time><ele>1053.8</ele></trkpt><trkpt lat="45.835105" lon="9.435861"><time>2024-03-23T09:41:05.000Z</time><ele>1054</ele></trkpt><trkpt lat="45.835113" lon="9.435856"><time>2024-03-23T09:41:06.000Z</time><ele>1054.2</ele></trkpt><trkpt lat="45.835121" lon="9.435853"><time>2024-03-23T09:41:07.000Z</time><ele>1054.2</ele></trkpt><trkpt lat="45.835126" lon="9.435847"><time>2024-03-23T09:41:08.000Z</time><ele>1054.2</ele></trkpt><trkpt lat="45.835135" lon="9.435844"><time>2024-03-23T09:41:09.000Z</time><ele>1054.4</ele></trkpt><trkpt lat="45.835146" lon="9.435843"><time>2024-03-23T09:41:10.000Z</time><ele>1054.6</ele></trkpt><trkpt lat="45.835152" lon="9.435845"><time>2024-03-23T09:41:11.000Z</time><ele>1054.8</ele></trkpt><trkpt lat="45.835155" lon="9.435847"><time>2024-03-23T09:41:12.000Z</time><ele>1055</ele></trkpt><trkpt lat="45.835163" lon="9.435842"><time>2024-03-23T09:41:13.000Z</time><ele>1055.2</ele></trkpt><trkpt lat="45.835166" lon="9.43584"><time>2024-03-23T09:41:14.000Z</time><ele>1055.4</ele></trkpt><trkpt lat="45.835169" lon="9.435839"><time>2024-03-23T09:41:15.000Z</time><ele>1055.6</ele></trkpt><trkpt lat="45.83517" lon="9.435838"><time>2024-03-23T09:41:16.000Z</time><ele>1055.8</ele></trkpt><trkpt lat="45.835171" lon="9.435839"><time>2024-03-23T09:41:17.000Z</time><ele>1055.8</ele></trkpt><trkpt lat="45.83517" lon="9.435839"><time>2024-03-23T09:41:18.000Z</time><ele>1056</ele></trkpt><trkpt lat="45.83517" lon="9.435838"><time>2024-03-23T09:41:19.000Z</time><ele>1056</ele></trkpt><trkpt lat="45.83517" lon="9.435837"><time>2024-03-23T09:41:20.000Z</time><ele>1056</ele></trkpt><trkpt lat="45.835169" lon="9.435837"><time>2024-03-23T09:41:21.000Z</time><ele>1056.2</ele></trkpt><trkpt lat="45.835169" lon="9.435837"><time>2024-03-23T09:41:22.000Z</time><ele>1056.2</ele></trkpt><trkpt lat="45.835168" lon="9.435836"><time>2024-03-23T09:41:23.000Z</time><ele>1056.2</ele></trkpt><trkpt lat="45.835168" lon="9.435836"><time>2024-03-23T09:41:24.000Z</time><ele>1056.2</ele></trkpt><trkpt lat="45.835168" lon="9.435836"><time>2024-03-23T09:41:25.000Z</time><ele>1056.4</ele></trkpt><trkpt lat="45.835168" lon="9.435836"><time>2024-03-23T09:41:26.000Z</time><ele>1056.6</ele></trkpt><trkpt lat="45.835168" lon="9.435836"><time>2024-03-23T09:41:27.000Z</time><ele>1056.8</ele></trkpt><trkpt lat="45.835168" lon="9.435836"><time>2024-03-23T09:41:28.000Z</time><ele>1056.8</ele></trkpt><trkpt lat="45.835168" lon="9.435836"><time>2024-03-23T09:41:29.000Z</time><ele>1056.8</ele></trkpt><trkpt lat="45.835168" lon="9.435836"><time>2024-03-23T09:41:30.000Z</time><ele>1056.8</ele></trkpt><trkpt lat="45.835168" lon="9.435836"><time>2024-03-23T09:41:31.000Z</time><ele>1056.8</ele></trkpt><trkpt lat="45.835168" lon="9.435836"><time>2024-03-23T09:41:32.000Z</time><ele>1056.8</ele></trkpt><trkpt lat="45.835168" lon="9.435836"><time>2024-03-23T09:41:33.000Z</time><ele>1056.4</ele></trkpt><trkpt lat="45.835168" lon="9.435836"><time>2024-03-23T09:41:34.000Z</time><ele>1056.4</ele></trkpt><trkpt lat="45.835168" lon="9.435836"><time>2024-03-23T09:41:35.000Z</time><ele>1056.4</ele></trkpt><trkpt lat="45.835168" lon="9.435836"><time>2024-03-23T09:41:36.000Z</time><ele>1056.2</ele></trkpt><trkpt lat="45.835168" lon="9.435836"><time>2024-03-23T09:41:37.000Z</time><ele>1056.2</ele></trkpt><trkpt lat="45.835168" lon="9.435836"><time>2024-03-23T09:41:38.000Z</time><ele>1056.4</ele></trkpt><trkpt lat="45.835168" lon="9.435836"><time>2024-03-23T09:41:39.000Z</time><ele>1056.4</ele></trkpt><trkpt lat="45.835168" lon="9.435836"><time>2024-03-23T09:41:40.000Z</time><ele>1056.6</ele></trkpt><trkpt lat="45.835168" lon="9.435836"><time>2024-03-23T09:41:41.000Z</time><ele>1056.8</ele></trkpt><trkpt lat="45.835168" lon="9.435836"><time>2024-03-23T09:41:42.000Z</time><ele>1057</ele></trkpt><trkpt lat="45.835169" lon="9.435836"><time>2024-03-23T09:41:43.000Z</time><ele>1057</ele></trkpt><trkpt lat="45.835169" lon="9.435836"><time>2024-03-23T09:41:44.000Z</time><ele>1057.2</ele></trkpt><trkpt lat="45.835169" lon="9.435836"><time>2024-03-23T09:41:45.000Z</time><ele>1057.4</ele></trkpt><trkpt lat="45.835169" lon="9.435836"><time>2024-03-23T09:41:46.000Z</time><ele>1057.6</ele></trkpt><trkpt lat="45.835169" lon="9.435836"><time>2024-03-23T09:41:47.000Z</time><ele>1058</ele></trkpt><trkpt lat="45.835169" lon="9.435835"><time>2024-03-23T09:41:48.000Z</time><ele>1058.2</ele></trkpt><trkpt lat="45.835169" lon="9.435835"><time>2024-03-23T09:41:49.000Z</time><ele>1058.2</ele></trkpt><trkpt lat="45.835169" lon="9.435835"><time>2024-03-23T09:41:50.000Z</time><ele>1058.4</ele></trkpt><trkpt lat="45.835174" lon="9.435835"><time>2024-03-23T09:41:51.000Z</time><ele>1058.4</ele></trkpt><trkpt lat="45.835178" lon="9.435833"><time>2024-03-23T09:41:52.000Z</time><ele>1058.4</ele></trkpt><trkpt lat="45.83518" lon="9.435831"><time>2024-03-23T09:41:53.000Z</time><ele>1058.4</ele></trkpt><trkpt lat="45.835184" lon="9.435829"><time>2024-03-23T09:41:54.000Z</time><ele>1058.4</ele></trkpt><trkpt lat="45.835188" lon="9.435827"><time>2024-03-23T09:41:55.000Z</time><ele>1058.4</ele></trkpt><trkpt lat="45.83519" lon="9.435826"><time>2024-03-23T09:41:56.000Z</time><ele>1058.4</ele></trkpt><trkpt lat="45.835195" lon="9.435824"><time>2024-03-23T09:41:57.000Z</time><ele>1058.4</ele></trkpt><trkpt lat="45.835197" lon="9.435821"><time>2024-03-23T09:41:58.000Z</time><ele>1058.4</ele></trkpt><trkpt lat="45.835201" lon="9.435815"><time>2024-03-23T09:41:59.000Z</time><ele>1058.4</ele></trkpt><trkpt lat="45.835204" lon="9.435809"><time>2024-03-23T09:42:00.000Z</time><ele>1058.4</ele></trkpt><trkpt lat="45.835205" lon="9.435804"><time>2024-03-23T09:42:01.000Z</time><ele>1058.4</ele></trkpt><trkpt lat="45.835207" lon="9.435795"><time>2024-03-23T09:42:02.000Z</time><ele>1058.4</ele></trkpt><trkpt lat="45.835211" lon="9.435786"><time>2024-03-23T09:42:03.000Z</time><ele>1058.2</ele></trkpt><trkpt lat="45.835216" lon="9.435779"><time>2024-03-23T09:42:04.000Z</time><ele>1058.2</ele></trkpt><trkpt lat="45.835221" lon="9.435777"><time>2024-03-23T09:42:05.000Z</time><ele>1058.4</ele></trkpt><trkpt lat="45.835226" lon="9.435776"><time>2024-03-23T09:42:06.000Z</time><ele>1058.4</ele></trkpt><trkpt lat="45.835229" lon="9.435775"><time>2024-03-23T09:42:07.000Z</time><ele>1058.4</ele></trkpt><trkpt lat="45.835231" lon="9.435775"><time>2024-03-23T09:42:08.000Z</time><ele>1058.4</ele></trkpt><trkpt lat="45.835232" lon="9.435775"><time>2024-03-23T09:42:09.000Z</time><ele>1058.4</ele></trkpt><trkpt lat="45.835232" lon="9.435775"><time>2024-03-23T09:42:10.000Z</time><ele>1058.4</ele></trkpt><trkpt lat="45.835232" lon="9.435774"><time>2024-03-23T09:42:11.000Z</time><ele>1058.6</ele></trkpt><trkpt lat="45.835233" lon="9.435774"><time>2024-03-23T09:42:12.000Z</time><ele>1058.6</ele></trkpt><trkpt lat="45.835233" lon="9.435774"><time>2024-03-23T09:42:13.000Z</time><ele>1058.8</ele></trkpt><trkpt lat="45.835233" lon="9.435774"><time>2024-03-23T09:42:14.000Z</time><ele>1058.8</ele></trkpt><trkpt lat="45.835233" lon="9.435773"><time>2024-03-23T09:42:15.000Z</time><ele>1058.8</ele></trkpt><trkpt lat="45.835233" lon="9.435773"><time>2024-03-23T09:42:16.000Z</time><ele>1058.8</ele></trkpt><trkpt lat="45.835233" lon="9.435773"><time>2024-03-23T09:42:17.000Z</time><ele>1058.8</ele></trkpt><trkpt lat="45.835233" lon="9.435773"><time>2024-03-23T09:42:18.000Z</time><ele>1058.6</ele></trkpt><trkpt lat="45.835233" lon="9.435773"><time>2024-03-23T09:42:19.000Z</time><ele>1058.6</ele></trkpt><trkpt lat="45.835233" lon="9.435773"><time>2024-03-23T09:42:20.000Z</time><ele>1058.4</ele></trkpt><trkpt lat="45.835233" lon="9.435773"><time>2024-03-23T09:42:21.000Z</time><ele>1058.4</ele></trkpt><trkpt lat="45.835233" lon="9.435773"><time>2024-03-23T09:42:22.000Z</time><ele>1058.4</ele></trkpt><trkpt lat="45.835233" lon="9.435773"><time>2024-03-23T09:42:23.000Z</time><ele>1058.4</ele></trkpt><trkpt lat="45.835233" lon="9.435773"><time>2024-03-23T09:42:24.000Z</time><ele>1058.4</ele></trkpt><trkpt lat="45.835233" lon="9.435773"><time>2024-03-23T09:42:25.000Z</time><ele>1058.4</ele></trkpt><trkpt lat="45.835233" lon="9.435773"><time>2024-03-23T09:42:26.000Z</time><ele>1058.4</ele></trkpt><trkpt lat="45.835233" lon="9.435773"><time>2024-03-23T09:42:27.000Z</time><ele>1058.4</ele></trkpt><trkpt lat="45.835233" lon="9.435773"><time>2024-03-23T09:42:28.000Z</time><ele>1058.4</ele></trkpt><trkpt lat="45.835233" lon="9.435773"><time>2024-03-23T09:42:29.000Z</time><ele>1058.4</ele></trkpt><trkpt lat="45.835233" lon="9.435773"><time>2024-03-23T09:42:30.000Z</time><ele>1058.4</ele></trkpt><trkpt lat="45.835233" lon="9.435773"><time>2024-03-23T09:42:31.000Z</time><ele>1058.4</ele></trkpt><trkpt lat="45.835238" lon="9.435771"><time>2024-03-23T09:42:32.000Z</time><ele>1058.4</ele></trkpt><trkpt lat="45.835253" lon="9.435768"><time>2024-03-23T09:42:33.000Z</time><ele>1058.4</ele></trkpt><trkpt lat="45.83527" lon="9.435764"><time>2024-03-23T09:42:34.000Z</time><ele>1058.4</ele></trkpt><trkpt lat="45.835283" lon="9.435765"><time>2024-03-23T09:42:35.000Z</time><ele>1058.4</ele></trkpt><trkpt lat="45.835292" lon="9.435766"><time>2024-03-23T09:42:36.000Z</time><ele>1058.4</ele></trkpt><trkpt lat="45.835299" lon="9.435764"><time>2024-03-23T09:42:37.000Z</time><ele>1058.2</ele></trkpt><trkpt lat="45.835305" lon="9.435762"><time>2024-03-23T09:42:38.000Z</time><ele>1058.2</ele></trkpt><trkpt lat="45.835311" lon="9.435761"><time>2024-03-23T09:42:39.000Z</time><ele>1058.2</ele></trkpt><trkpt lat="45.835316" lon="9.43576"><time>2024-03-23T09:42:40.000Z</time><ele>1058</ele></trkpt><trkpt lat="45.835321" lon="9.435759"><time>2024-03-23T09:42:41.000Z</time><ele>1058</ele></trkpt><trkpt lat="45.83532" lon="9.435761"><time>2024-03-23T09:42:42.000Z</time><ele>1057.8</ele></trkpt><trkpt lat="45.835319" lon="9.435761"><time>2024-03-23T09:42:43.000Z</time><ele>1057.8</ele></trkpt><trkpt lat="45.83532" lon="9.435761"><time>2024-03-23T09:42:44.000Z</time><ele>1057.8</ele></trkpt><trkpt lat="45.835321" lon="9.435761"><time>2024-03-23T09:42:45.000Z</time><ele>1057.8</ele></trkpt><trkpt lat="45.835321" lon="9.435761"><time>2024-03-23T09:42:46.000Z</time><ele>1057.8</ele></trkpt><trkpt lat="45.835321" lon="9.435761"><time>2024-03-23T09:42:47.000Z</time><ele>1057.8</ele></trkpt><trkpt lat="45.835323" lon="9.435763"><time>2024-03-23T09:42:48.000Z</time><ele>1057.8</ele></trkpt><trkpt lat="45.835324" lon="9.435766"><time>2024-03-23T09:42:49.000Z</time><ele>1057.8</ele></trkpt><trkpt lat="45.835327" lon="9.435769"><time>2024-03-23T09:42:50.000Z</time><ele>1057.8</ele></trkpt><trkpt lat="45.835334" lon="9.435771"><time>2024-03-23T09:42:51.000Z</time><ele>1057.8</ele></trkpt><trkpt lat="45.835341" lon="9.435772"><time>2024-03-23T09:42:52.000Z</time><ele>1057.6</ele></trkpt><trkpt lat="45.835349" lon="9.435775"><time>2024-03-23T09:42:53.000Z</time><ele>1057.6</ele></trkpt><trkpt lat="45.835353" lon="9.435777"><time>2024-03-23T09:42:54.000Z</time><ele>1057.6</ele></trkpt><trkpt lat="45.835364" lon="9.435781"><time>2024-03-23T09:42:55.000Z</time><ele>1057.6</ele></trkpt><trkpt lat="45.835371" lon="9.43578"><time>2024-03-23T09:42:56.000Z</time><ele>1057.4</ele></trkpt><trkpt lat="45.835375" lon="9.43578"><time>2024-03-23T09:42:57.000Z</time><ele>1057.4</ele></trkpt><trkpt lat="45.835378" lon="9.435779"><time>2024-03-23T09:42:58.000Z</time><ele>1057.2</ele></trkpt><trkpt lat="45.83538" lon="9.43578"><time>2024-03-23T09:42:59.000Z</time><ele>1056.8</ele></trkpt><trkpt lat="45.835389" lon="9.435787"><time>2024-03-23T09:43:00.000Z</time><ele>1056.6</ele></trkpt><trkpt lat="45.835402" lon="9.435795"><time>2024-03-23T09:43:01.000Z</time><ele>1056.4</ele></trkpt><trkpt lat="45.835411" lon="9.435802"><time>2024-03-23T09:43:02.000Z</time><ele>1056.2</ele></trkpt><trkpt lat="45.835421" lon="9.435807"><time>2024-03-23T09:43:03.000Z</time><ele>1056</ele></trkpt><trkpt lat="45.835433" lon="9.435807"><time>2024-03-23T09:43:04.000Z</time><ele>1055.8</ele></trkpt><trkpt lat="45.835446" lon="9.435808"><time>2024-03-23T09:43:05.000Z</time><ele>1055.8</ele></trkpt><trkpt lat="45.835459" lon="9.43581"><time>2024-03-23T09:43:06.000Z</time><ele>1055.6</ele></trkpt><trkpt lat="45.835471" lon="9.435807"><time>2024-03-23T09:43:07.000Z</time><ele>1055.4</ele></trkpt><trkpt lat="45.835479" lon="9.435803"><time>2024-03-23T09:43:08.000Z</time><ele>1055.4</ele></trkpt><trkpt lat="45.835489" lon="9.435803"><time>2024-03-23T09:43:09.000Z</time><ele>1055.2</ele></trkpt><trkpt lat="45.835495" lon="9.435801"><time>2024-03-23T09:43:10.000Z</time><ele>1055.2</ele></trkpt><trkpt lat="45.835502" lon="9.4358"><time>2024-03-23T09:43:11.000Z</time><ele>1055</ele></trkpt><trkpt lat="45.835508" lon="9.435799"><time>2024-03-23T09:43:12.000Z</time><ele>1055</ele></trkpt><trkpt lat="45.835515" lon="9.435799"><time>2024-03-23T09:43:13.000Z</time><ele>1055</ele></trkpt><trkpt lat="45.835525" lon="9.435797"><time>2024-03-23T09:43:14.000Z</time><ele>1055</ele></trkpt><trkpt lat="45.835533" lon="9.435797"><time>2024-03-23T09:43:15.000Z</time><ele>1054.8</ele></trkpt><trkpt lat="45.83554" lon="9.435799"><time>2024-03-23T09:43:16.000Z</time><ele>1054.6</ele></trkpt><trkpt lat="45.835549" lon="9.435799"><time>2024-03-23T09:43:17.000Z</time><ele>1054.4</ele></trkpt><trkpt lat="45.835554" lon="9.435796"><time>2024-03-23T09:43:18.000Z</time><ele>1054.2</ele></trkpt><trkpt lat="45.835563" lon="9.435793"><time>2024-03-23T09:43:19.000Z</time><ele>1054.2</ele></trkpt><trkpt lat="45.835569" lon="9.435788"><time>2024-03-23T09:43:20.000Z</time><ele>1054</ele></trkpt><trkpt lat="45.835574" lon="9.435785"><time>2024-03-23T09:43:21.000Z</time><ele>1053.8</ele></trkpt><trkpt lat="45.835584" lon="9.435786"><time>2024-03-23T09:43:22.000Z</time><ele>1053.8</ele></trkpt><trkpt lat="45.835594" lon="9.435785"><time>2024-03-23T09:43:23.000Z</time><ele>1053.6</ele></trkpt><trkpt lat="45.835606" lon="9.435788"><time>2024-03-23T09:43:24.000Z</time><ele>1053.6</ele></trkpt><trkpt lat="45.835616" lon="9.435793"><time>2024-03-23T09:43:25.000Z</time><ele>1053.4</ele></trkpt><trkpt lat="45.835628" lon="9.435798"><time>2024-03-23T09:43:26.000Z</time><ele>1053.4</ele></trkpt><trkpt lat="45.835641" lon="9.435797"><time>2024-03-23T09:43:27.000Z</time><ele>1053.2</ele></trkpt><trkpt lat="45.835647" lon="9.435794"><time>2024-03-23T09:43:28.000Z</time><ele>1053.2</ele></trkpt><trkpt lat="45.835654" lon="9.435792"><time>2024-03-23T09:43:29.000Z</time><ele>1053.2</ele></trkpt><trkpt lat="45.835661" lon="9.435789"><time>2024-03-23T09:43:30.000Z</time><ele>1053.2</ele></trkpt><trkpt lat="45.835673" lon="9.435786"><time>2024-03-23T09:43:31.000Z</time><ele>1053.2</ele></trkpt><trkpt lat="45.835686" lon="9.435783"><time>2024-03-23T09:43:32.000Z</time><ele>1053</ele></trkpt><trkpt lat="45.835698" lon="9.435781"><time>2024-03-23T09:43:33.000Z</time><ele>1053</ele></trkpt><trkpt lat="45.835709" lon="9.435778"><time>2024-03-23T09:43:34.000Z</time><ele>1053</ele></trkpt><trkpt lat="45.835716" lon="9.435778"><time>2024-03-23T09:43:35.000Z</time><ele>1053</ele></trkpt><trkpt lat="45.835723" lon="9.435781"><time>2024-03-23T09:43:36.000Z</time><ele>1053</ele></trkpt><trkpt lat="45.835727" lon="9.435787"><time>2024-03-23T09:43:37.000Z</time><ele>1053</ele></trkpt><trkpt lat="45.835731" lon="9.435789"><time>2024-03-23T09:43:38.000Z</time><ele>1053</ele></trkpt><trkpt lat="45.835739" lon="9.43579"><time>2024-03-23T09:43:39.000Z</time><ele>1053</ele></trkpt><trkpt lat="45.835748" lon="9.43579"><time>2024-03-23T09:43:40.000Z</time><ele>1053</ele></trkpt><trkpt lat="45.835755" lon="9.435789"><time>2024-03-23T09:43:41.000Z</time><ele>1053</ele></trkpt><trkpt lat="45.835766" lon="9.435789"><time>2024-03-23T09:43:42.000Z</time><ele>1052.8</ele></trkpt><trkpt lat="45.835771" lon="9.435789"><time>2024-03-23T09:43:43.000Z</time><ele>1052.8</ele></trkpt><trkpt lat="45.835778" lon="9.435791"><time>2024-03-23T09:43:44.000Z</time><ele>1052.8</ele></trkpt><trkpt lat="45.835784" lon="9.435791"><time>2024-03-23T09:43:45.000Z</time><ele>1052.8</ele></trkpt><trkpt lat="45.835788" lon="9.435789"><time>2024-03-23T09:43:46.000Z</time><ele>1052.8</ele></trkpt><trkpt lat="45.835797" lon="9.435785"><time>2024-03-23T09:43:47.000Z</time><ele>1052.8</ele></trkpt><trkpt lat="45.835803" lon="9.435783"><time>2024-03-23T09:43:48.000Z</time><ele>1052.6</ele></trkpt><trkpt lat="45.835809" lon="9.435779"><time>2024-03-23T09:43:49.000Z</time><ele>1052.6</ele></trkpt><trkpt lat="45.835813" lon="9.435777"><time>2024-03-23T09:43:50.000Z</time><ele>1052.4</ele></trkpt><trkpt lat="45.835816" lon="9.435776"><time>2024-03-23T09:43:51.000Z</time><ele>1052.2</ele></trkpt><trkpt lat="45.835818" lon="9.435776"><time>2024-03-23T09:43:52.000Z</time><ele>1052</ele></trkpt><trkpt lat="45.835819" lon="9.435778"><time>2024-03-23T09:43:53.000Z</time><ele>1052</ele></trkpt><trkpt lat="45.835821" lon="9.435782"><time>2024-03-23T09:43:54.000Z</time><ele>1051.8</ele></trkpt><trkpt lat="45.835827" lon="9.435786"><time>2024-03-23T09:43:55.000Z</time><ele>1051.8</ele></trkpt><trkpt lat="45.835834" lon="9.435788"><time>2024-03-23T09:43:56.000Z</time><ele>1051.8</ele></trkpt><trkpt lat="45.835841" lon="9.435791"><time>2024-03-23T09:43:57.000Z</time><ele>1051.6</ele></trkpt><trkpt lat="45.835847" lon="9.435792"><time>2024-03-23T09:43:58.000Z</time><ele>1051.4</ele></trkpt><trkpt lat="45.835854" lon="9.435793"><time>2024-03-23T09:43:59.000Z</time><ele>1051.2</ele></trkpt><trkpt lat="45.83586" lon="9.435795"><time>2024-03-23T09:44:00.000Z</time><ele>1051</ele></trkpt><trkpt lat="45.835869" lon="9.435797"><time>2024-03-23T09:44:01.000Z</time><ele>1050.8</ele></trkpt><trkpt lat="45.835874" lon="9.435795"><time>2024-03-23T09:44:02.000Z</time><ele>1050.8</ele></trkpt><trkpt lat="45.835877" lon="9.435795"><time>2024-03-23T09:44:03.000Z</time><ele>1050.6</ele></trkpt><trkpt lat="45.835878" lon="9.435795"><time>2024-03-23T09:44:04.000Z</time><ele>1050.6</ele></trkpt><trkpt lat="45.835887" lon="9.435792"><time>2024-03-23T09:44:05.000Z</time><ele>1050.4</ele></trkpt><trkpt lat="45.835889" lon="9.43579"><time>2024-03-23T09:44:06.000Z</time><ele>1050.4</ele></trkpt><trkpt lat="45.835891" lon="9.435788"><time>2024-03-23T09:44:07.000Z</time><ele>1050.4</ele></trkpt><trkpt lat="45.835891" lon="9.435786"><time>2024-03-23T09:44:08.000Z</time><ele>1050.4</ele></trkpt><trkpt lat="45.835892" lon="9.435785"><time>2024-03-23T09:44:09.000Z</time><ele>1050.4</ele></trkpt><trkpt lat="45.835891" lon="9.435785"><time>2024-03-23T09:44:10.000Z</time><ele>1050.6</ele></trkpt><trkpt lat="45.835891" lon="9.435786"><time>2024-03-23T09:44:11.000Z</time><ele>1050.8</ele></trkpt><trkpt lat="45.835891" lon="9.435785"><time>2024-03-23T09:44:12.000Z</time><ele>1050.8</ele></trkpt><trkpt lat="45.835891" lon="9.435785"><time>2024-03-23T09:44:13.000Z</time><ele>1050.8</ele></trkpt><trkpt lat="45.835892" lon="9.435785"><time>2024-03-23T09:44:14.000Z</time><ele>1051</ele></trkpt><trkpt lat="45.835892" lon="9.435785"><time>2024-03-23T09:44:15.000Z</time><ele>1051</ele></trkpt><trkpt lat="45.835892" lon="9.435785"><time>2024-03-23T09:44:16.000Z</time><ele>1051</ele></trkpt><trkpt lat="45.835892" lon="9.435785"><time>2024-03-23T09:44:17.000Z</time><ele>1050.8</ele></trkpt><trkpt lat="45.835892" lon="9.435785"><time>2024-03-23T09:44:18.000Z</time><ele>1050.8</ele></trkpt><trkpt lat="45.835892" lon="9.435785"><time>2024-03-23T09:44:19.000Z</time><ele>1050.8</ele></trkpt><trkpt lat="45.835892" lon="9.435785"><time>2024-03-23T09:44:20.000Z</time><ele>1050.8</ele></trkpt><trkpt lat="45.835892" lon="9.435785"><time>2024-03-23T09:44:21.000Z</time><ele>1050.8</ele></trkpt><trkpt lat="45.835892" lon="9.435785"><time>2024-03-23T09:44:22.000Z</time><ele>1050.8</ele></trkpt><trkpt lat="45.835892" lon="9.435785"><time>2024-03-23T09:44:23.000Z</time><ele>1050.8</ele></trkpt><trkpt lat="45.835892" lon="9.435785"><time>2024-03-23T09:44:24.000Z</time><ele>1051</ele></trkpt><trkpt lat="45.835892" lon="9.435785"><time>2024-03-23T09:44:25.000Z</time><ele>1051</ele></trkpt><trkpt lat="45.835892" lon="9.435785"><time>2024-03-23T09:44:26.000Z</time><ele>1051</ele></trkpt><trkpt lat="45.835892" lon="9.435785"><time>2024-03-23T09:44:27.000Z</time><ele>1051.2</ele></trkpt><trkpt lat="45.835892" lon="9.435786"><time>2024-03-23T09:44:28.000Z</time><ele>1051.2</ele></trkpt><trkpt lat="45.835892" lon="9.435786"><time>2024-03-23T09:44:29.000Z</time><ele>1051.2</ele></trkpt><trkpt lat="45.835892" lon="9.435786"><time>2024-03-23T09:44:30.000Z</time><ele>1051.2</ele></trkpt><trkpt lat="45.835892" lon="9.435786"><time>2024-03-23T09:44:31.000Z</time><ele>1051.2</ele></trkpt><trkpt lat="45.835892" lon="9.435786"><time>2024-03-23T09:44:32.000Z</time><ele>1051.2</ele></trkpt><trkpt lat="45.835892" lon="9.435787"><time>2024-03-23T09:44:33.000Z</time><ele>1051.2</ele></trkpt><trkpt lat="45.835892" lon="9.435787"><time>2024-03-23T09:44:34.000Z</time><ele>1051.2</ele></trkpt><trkpt lat="45.835892" lon="9.435787"><time>2024-03-23T09:44:35.000Z</time><ele>1051.2</ele></trkpt><trkpt lat="45.835893" lon="9.435787"><time>2024-03-23T09:44:36.000Z</time><ele>1051.2</ele></trkpt><trkpt lat="45.835893" lon="9.435787"><time>2024-03-23T09:44:37.000Z</time><ele>1051.2</ele></trkpt><trkpt lat="45.835894" lon="9.435787"><time>2024-03-23T09:44:38.000Z</time><ele>1051</ele></trkpt><trkpt lat="45.835894" lon="9.435787"><time>2024-03-23T09:44:39.000Z</time><ele>1050.8</ele></trkpt><trkpt lat="45.835899" lon="9.435789"><time>2024-03-23T09:44:40.000Z</time><ele>1050.8</ele></trkpt><trkpt lat="45.835914" lon="9.435792"><time>2024-03-23T09:44:41.000Z</time><ele>1050.8</ele></trkpt><trkpt lat="45.83593" lon="9.435797"><time>2024-03-23T09:44:42.000Z</time><ele>1050.6</ele></trkpt><trkpt lat="45.835944" lon="9.435799"><time>2024-03-23T09:44:43.000Z</time><ele>1050.6</ele></trkpt><trkpt lat="45.835959" lon="9.435798"><time>2024-03-23T09:44:44.000Z</time><ele>1050.6</ele></trkpt><trkpt lat="45.835972" lon="9.435798"><time>2024-03-23T09:44:45.000Z</time><ele>1050.6</ele></trkpt><trkpt lat="45.835986" lon="9.435798"><time>2024-03-23T09:44:46.000Z</time><ele>1050.4</ele></trkpt><trkpt lat="45.836002" lon="9.435799"><time>2024-03-23T09:44:47.000Z</time><ele>1050.4</ele></trkpt><trkpt lat="45.836018" lon="9.435797"><time>2024-03-23T09:44:48.000Z</time><ele>1050.4</ele></trkpt><trkpt lat="45.836034" lon="9.435794"><time>2024-03-23T09:44:49.000Z</time><ele>1050.4</ele></trkpt><trkpt lat="45.836045" lon="9.435788"><time>2024-03-23T09:44:50.000Z</time><ele>1050.4</ele></trkpt><trkpt lat="45.836054" lon="9.435784"><time>2024-03-23T09:44:51.000Z</time><ele>1050.4</ele></trkpt><trkpt lat="45.836065" lon="9.43578"><time>2024-03-23T09:44:52.000Z</time><ele>1050.4</ele></trkpt><trkpt lat="45.836075" lon="9.435778"><time>2024-03-23T09:44:53.000Z</time><ele>1050.4</ele></trkpt><trkpt lat="45.83608" lon="9.435776"><time>2024-03-23T09:44:54.000Z</time><ele>1050.4</ele></trkpt><trkpt lat="45.836091" lon="9.435775"><time>2024-03-23T09:44:55.000Z</time><ele>1050.4</ele></trkpt><trkpt lat="45.836101" lon="9.435774"><time>2024-03-23T09:44:56.000Z</time><ele>1050.4</ele></trkpt><trkpt lat="45.836109" lon="9.435776"><time>2024-03-23T09:44:57.000Z</time><ele>1050.4</ele></trkpt><trkpt lat="45.836118" lon="9.435782"><time>2024-03-23T09:44:58.000Z</time><ele>1050.4</ele></trkpt><trkpt lat="45.836128" lon="9.435787"><time>2024-03-23T09:44:59.000Z</time><ele>1050.4</ele></trkpt><trkpt lat="45.83614" lon="9.435793"><time>2024-03-23T09:45:00.000Z</time><ele>1050.4</ele></trkpt><trkpt lat="45.836151" lon="9.435798"><time>2024-03-23T09:45:01.000Z</time><ele>1050.2</ele></trkpt><trkpt lat="45.836166" lon="9.435804"><time>2024-03-23T09:45:02.000Z</time><ele>1050.2</ele></trkpt><trkpt lat="45.836181" lon="9.435812"><time>2024-03-23T09:45:03.000Z</time><ele>1050.2</ele></trkpt><trkpt lat="45.836192" lon="9.435817"><time>2024-03-23T09:45:04.000Z</time><ele>1050.2</ele></trkpt><trkpt lat="45.836206" lon="9.435817"><time>2024-03-23T09:45:05.000Z</time><ele>1050.4</ele></trkpt><trkpt lat="45.836217" lon="9.435816"><time>2024-03-23T09:45:06.000Z</time><ele>1050.4</ele></trkpt><trkpt lat="45.836226" lon="9.435813"><time>2024-03-23T09:45:07.000Z</time><ele>1050.4</ele></trkpt><trkpt lat="45.836227" lon="9.435812"><time>2024-03-23T09:45:08.000Z</time><ele>1050.6</ele></trkpt><trkpt lat="45.83623" lon="9.435812"><time>2024-03-23T09:45:09.000Z</time><ele>1050.8</ele></trkpt><trkpt lat="45.836233" lon="9.43581"><time>2024-03-23T09:45:10.000Z</time><ele>1050.8</ele></trkpt><trkpt lat="45.83625" lon="9.435814"><time>2024-03-23T09:45:11.000Z</time><ele>1050.8</ele></trkpt><trkpt lat="45.836255" lon="9.435812"><time>2024-03-23T09:45:12.000Z</time><ele>1050.8</ele></trkpt><trkpt lat="45.83627" lon="9.435811"><time>2024-03-23T09:45:13.000Z</time><ele>1050.8</ele></trkpt><trkpt lat="45.836274" lon="9.435809"><time>2024-03-23T09:45:14.000Z</time><ele>1050.8</ele></trkpt><trkpt lat="45.836276" lon="9.435808"><time>2024-03-23T09:45:15.000Z</time><ele>1050.8</ele></trkpt><trkpt lat="45.836289" lon="9.435807"><time>2024-03-23T09:45:16.000Z</time><ele>1050.8</ele></trkpt><trkpt lat="45.836292" lon="9.435804"><time>2024-03-23T09:45:17.000Z</time><ele>1050.8</ele></trkpt><trkpt lat="45.836313" lon="9.435804"><time>2024-03-23T09:45:18.000Z</time><ele>1050.8</ele></trkpt><trkpt lat="45.836331" lon="9.435797"><time>2024-03-23T09:45:19.000Z</time><ele>1051</ele></trkpt><trkpt lat="45.836348" lon="9.435791"><time>2024-03-23T09:45:20.000Z</time><ele>1051</ele></trkpt><trkpt lat="45.836359" lon="9.435789"><time>2024-03-23T09:45:21.000Z</time><ele>1051</ele></trkpt><trkpt lat="45.836368" lon="9.435787"><time>2024-03-23T09:45:22.000Z</time><ele>1051</ele></trkpt><trkpt lat="45.836381" lon="9.435786"><time>2024-03-23T09:45:23.000Z</time><ele>1051</ele></trkpt><trkpt lat="45.83639" lon="9.435787"><time>2024-03-23T09:45:24.000Z</time><ele>1051</ele></trkpt><trkpt lat="45.836401" lon="9.435786"><time>2024-03-23T09:45:25.000Z</time><ele>1051.2</ele></trkpt><trkpt lat="45.83641" lon="9.435782"><time>2024-03-23T09:45:26.000Z</time><ele>1051.2</ele></trkpt><trkpt lat="45.836421" lon="9.435782"><time>2024-03-23T09:45:27.000Z</time><ele>1051.2</ele></trkpt><trkpt lat="45.836431" lon="9.435781"><time>2024-03-23T09:45:28.000Z</time><ele>1051.4</ele></trkpt><trkpt lat="45.836442" lon="9.435778"><time>2024-03-23T09:45:29.000Z</time><ele>1051.4</ele></trkpt><trkpt lat="45.836453" lon="9.435775"><time>2024-03-23T09:45:30.000Z</time><ele>1051.4</ele></trkpt><trkpt lat="45.836465" lon="9.435775"><time>2024-03-23T09:45:31.000Z</time><ele>1051.4</ele></trkpt><trkpt lat="45.836476" lon="9.435774"><time>2024-03-23T09:45:32.000Z</time><ele>1051.4</ele></trkpt><trkpt lat="45.836489" lon="9.435773"><time>2024-03-23T09:45:33.000Z</time><ele>1051.6</ele></trkpt><trkpt lat="45.836504" lon="9.435771"><time>2024-03-23T09:45:34.000Z</time><ele>1051.6</ele></trkpt><trkpt lat="45.836515" lon="9.435773"><time>2024-03-23T09:45:35.000Z</time><ele>1051.6</ele></trkpt><trkpt lat="45.836527" lon="9.435773"><time>2024-03-23T09:45:36.000Z</time><ele>1051.8</ele></trkpt><trkpt lat="45.836539" lon="9.43577"><time>2024-03-23T09:45:37.000Z</time><ele>1051.8</ele></trkpt><trkpt lat="45.83655" lon="9.435766"><time>2024-03-23T09:45:38.000Z</time><ele>1052</ele></trkpt><trkpt lat="45.836562" lon="9.43576"><time>2024-03-23T09:45:39.000Z</time><ele>1052</ele></trkpt><trkpt lat="45.836578" lon="9.435756"><time>2024-03-23T09:45:40.000Z</time><ele>1052.2</ele></trkpt><trkpt lat="45.836593" lon="9.435749"><time>2024-03-23T09:45:41.000Z</time><ele>1052.2</ele></trkpt><trkpt lat="45.8366" lon="9.435747"><time>2024-03-23T09:45:42.000Z</time><ele>1052.2</ele></trkpt><trkpt lat="45.836604" lon="9.435745"><time>2024-03-23T09:45:43.000Z</time><ele>1052.2</ele></trkpt><trkpt lat="45.836608" lon="9.435745"><time>2024-03-23T09:45:44.000Z</time><ele>1052.4</ele></trkpt><trkpt lat="45.83661" lon="9.435745"><time>2024-03-23T09:45:45.000Z</time><ele>1052.6</ele></trkpt><trkpt lat="45.83662" lon="9.435751"><time>2024-03-23T09:45:46.000Z</time><ele>1052.8</ele></trkpt><trkpt lat="45.83663" lon="9.435754"><time>2024-03-23T09:45:47.000Z</time><ele>1052.8</ele></trkpt><trkpt lat="45.836641" lon="9.435757"><time>2024-03-23T09:45:48.000Z</time><ele>1052.8</ele></trkpt><trkpt lat="45.836651" lon="9.435758"><time>2024-03-23T09:45:49.000Z</time><ele>1053</ele></trkpt><trkpt lat="45.836661" lon="9.435759"><time>2024-03-23T09:45:50.000Z</time><ele>1053</ele></trkpt><trkpt lat="45.836673" lon="9.435757"><time>2024-03-23T09:45:51.000Z</time><ele>1053</ele></trkpt><trkpt lat="45.836684" lon="9.435754"><time>2024-03-23T09:45:52.000Z</time><ele>1053.2</ele></trkpt><trkpt lat="45.836694" lon="9.435751"><time>2024-03-23T09:45:53.000Z</time><ele>1053.2</ele></trkpt><trkpt lat="45.836706" lon="9.435753"><time>2024-03-23T09:45:54.000Z</time><ele>1053.2</ele></trkpt><trkpt lat="45.836718" lon="9.43576"><time>2024-03-23T09:45:55.000Z</time><ele>1053.4</ele></trkpt><trkpt lat="45.836731" lon="9.435767"><time>2024-03-23T09:45:56.000Z</time><ele>1053.4</ele></trkpt><trkpt lat="45.836745" lon="9.435773"><time>2024-03-23T09:45:57.000Z</time><ele>1053.6</ele></trkpt><trkpt lat="45.836762" lon="9.435772"><time>2024-03-23T09:45:58.000Z</time><ele>1053.8</ele></trkpt><trkpt lat="45.836777" lon="9.435775"><time>2024-03-23T09:45:59.000Z</time><ele>1053.8</ele></trkpt><trkpt lat="45.836787" lon="9.435779"><time>2024-03-23T09:46:00.000Z</time><ele>1054</ele></trkpt><trkpt lat="45.836798" lon="9.43579"><time>2024-03-23T09:46:01.000Z</time><ele>1054.2</ele></trkpt><trkpt lat="45.836808" lon="9.435794"><time>2024-03-23T09:46:02.000Z</time><ele>1054.2</ele></trkpt><trkpt lat="45.836815" lon="9.435797"><time>2024-03-23T09:46:03.000Z</time><ele>1054.4</ele></trkpt><trkpt lat="45.836823" lon="9.435804"><time>2024-03-23T09:46:04.000Z</time><ele>1054.4</ele></trkpt><trkpt lat="45.836829" lon="9.435808"><time>2024-03-23T09:46:05.000Z</time><ele>1054.6</ele></trkpt><trkpt lat="45.836839" lon="9.435812"><time>2024-03-23T09:46:06.000Z</time><ele>1054.6</ele></trkpt><trkpt lat="45.836847" lon="9.435816"><time>2024-03-23T09:46:07.000Z</time><ele>1054.8</ele></trkpt><trkpt lat="45.836864" lon="9.435815"><time>2024-03-23T09:46:08.000Z</time><ele>1054.8</ele></trkpt><trkpt lat="45.83687" lon="9.435813"><time>2024-03-23T09:46:09.000Z</time><ele>1055</ele></trkpt><trkpt lat="45.836884" lon="9.435815"><time>2024-03-23T09:46:10.000Z</time><ele>1055</ele></trkpt><trkpt lat="45.836889" lon="9.435814"><time>2024-03-23T09:46:11.000Z</time><ele>1055.2</ele></trkpt><trkpt lat="45.836903" lon="9.435816"><time>2024-03-23T09:46:12.000Z</time><ele>1055.4</ele></trkpt><trkpt lat="45.836919" lon="9.435807"><time>2024-03-23T09:46:13.000Z</time><ele>1055.6</ele></trkpt><trkpt lat="45.836933" lon="9.435797"><time>2024-03-23T09:46:14.000Z</time><ele>1055.8</ele></trkpt><trkpt lat="45.836937" lon="9.435793"><time>2024-03-23T09:46:15.000Z</time><ele>1056</ele></trkpt><trkpt lat="45.836945" lon="9.435798"><time>2024-03-23T09:46:16.000Z</time><ele>1056.2</ele></trkpt><trkpt lat="45.836951" lon="9.435801"><time>2024-03-23T09:46:17.000Z</time><ele>1056.2</ele></trkpt><trkpt lat="45.836959" lon="9.435806"><time>2024-03-23T09:46:18.000Z</time><ele>1056.4</ele></trkpt><trkpt lat="45.836966" lon="9.43581"><time>2024-03-23T09:46:19.000Z</time><ele>1056.6</ele></trkpt><trkpt lat="45.836972" lon="9.435816"><time>2024-03-23T09:46:20.000Z</time><ele>1056.8</ele></trkpt><trkpt lat="45.836977" lon="9.435822"><time>2024-03-23T09:46:21.000Z</time><ele>1057</ele></trkpt><trkpt lat="45.836984" lon="9.435827"><time>2024-03-23T09:46:22.000Z</time><ele>1057.2</ele></trkpt><trkpt lat="45.83699" lon="9.435826"><time>2024-03-23T09:46:23.000Z</time><ele>1057.4</ele></trkpt><trkpt lat="45.836998" lon="9.435828"><time>2024-03-23T09:46:24.000Z</time><ele>1057.4</ele></trkpt><trkpt lat="45.837006" lon="9.435831"><time>2024-03-23T09:46:25.000Z</time><ele>1057.6</ele></trkpt><trkpt lat="45.837015" lon="9.435833"><time>2024-03-23T09:46:26.000Z</time><ele>1057.6</ele></trkpt><trkpt lat="45.837026" lon="9.435831"><time>2024-03-23T09:46:27.000Z</time><ele>1057.8</ele></trkpt><trkpt lat="45.837036" lon="9.435833"><time>2024-03-23T09:46:28.000Z</time><ele>1058.2</ele></trkpt><trkpt lat="45.837039" lon="9.435834"><time>2024-03-23T09:46:29.000Z</time><ele>1058.2</ele></trkpt><trkpt lat="45.837041" lon="9.435835"><time>2024-03-23T09:46:30.000Z</time><ele>1058.4</ele></trkpt><trkpt lat="45.837041" lon="9.435836"><time>2024-03-23T09:46:31.000Z</time><ele>1058.4</ele></trkpt><trkpt lat="45.837042" lon="9.435833"><time>2024-03-23T09:46:32.000Z</time><ele>1058.4</ele></trkpt><trkpt lat="45.837038" lon="9.435828"><time>2024-03-23T09:46:33.000Z</time><ele>1058.6</ele></trkpt><trkpt lat="45.83703" lon="9.435826"><time>2024-03-23T09:46:34.000Z</time><ele>1058.4</ele></trkpt><trkpt lat="45.837026" lon="9.435825"><time>2024-03-23T09:46:35.000Z</time><ele>1058.4</ele></trkpt><trkpt lat="45.837025" lon="9.435825"><time>2024-03-23T09:46:36.000Z</time><ele>1058.4</ele></trkpt><trkpt lat="45.837027" lon="9.435825"><time>2024-03-23T09:46:37.000Z</time><ele>1058.2</ele></trkpt><trkpt lat="45.837028" lon="9.435824"><time>2024-03-23T09:46:38.000Z</time><ele>1058.2</ele></trkpt><trkpt lat="45.83703" lon="9.43583"><time>2024-03-23T09:46:39.000Z</time><ele>1058.2</ele></trkpt><trkpt lat="45.83703" lon="9.435831"><time>2024-03-23T09:46:40.000Z</time><ele>1058.2</ele></trkpt><trkpt lat="45.83703" lon="9.435831"><time>2024-03-23T09:46:41.000Z</time><ele>1058.2</ele></trkpt><trkpt lat="45.83703" lon="9.435831"><time>2024-03-23T09:46:42.000Z</time><ele>1058.2</ele></trkpt><trkpt lat="45.83703" lon="9.435831"><time>2024-03-23T09:46:43.000Z</time><ele>1058.2</ele></trkpt><trkpt lat="45.83703" lon="9.435831"><time>2024-03-23T09:46:44.000Z</time><ele>1058.4</ele></trkpt><trkpt lat="45.83703" lon="9.435831"><time>2024-03-23T09:46:45.000Z</time><ele>1058.4</ele></trkpt><trkpt lat="45.83703" lon="9.435831"><time>2024-03-23T09:46:46.000Z</time><ele>1058.4</ele></trkpt><trkpt lat="45.83703" lon="9.435831"><time>2024-03-23T09:46:47.000Z</time><ele>1058.6</ele></trkpt><trkpt lat="45.83703" lon="9.435831"><time>2024-03-23T09:46:48.000Z</time><ele>1058.6</ele></trkpt><trkpt lat="45.83703" lon="9.435831"><time>2024-03-23T09:46:49.000Z</time><ele>1058.6</ele></trkpt><trkpt lat="45.83703" lon="9.435831"><time>2024-03-23T09:46:50.000Z</time><ele>1058.6</ele></trkpt><trkpt lat="45.83703" lon="9.435831"><time>2024-03-23T09:46:51.000Z</time><ele>1058.6</ele></trkpt><trkpt lat="45.83703" lon="9.435831"><time>2024-03-23T09:46:52.000Z</time><ele>1058.6</ele></trkpt><trkpt lat="45.83703" lon="9.435831"><time>2024-03-23T09:46:53.000Z</time><ele>1058.6</ele></trkpt><trkpt lat="45.83703" lon="9.435831"><time>2024-03-23T09:46:54.000Z</time><ele>1058.6</ele></trkpt><trkpt lat="45.837035" lon="9.435832"><time>2024-03-23T09:46:55.000Z</time><ele>1058.8</ele></trkpt><trkpt lat="45.837047" lon="9.435836"><time>2024-03-23T09:46:56.000Z</time><ele>1059</ele></trkpt><trkpt lat="45.837056" lon="9.43584"><time>2024-03-23T09:46:57.000Z</time><ele>1059</ele></trkpt><trkpt lat="45.837066" lon="9.435845"><time>2024-03-23T09:46:58.000Z</time><ele>1059.2</ele></trkpt><trkpt lat="45.837077" lon="9.435845"><time>2024-03-23T09:46:59.000Z</time><ele>1059.4</ele></trkpt><trkpt lat="45.837086" lon="9.435845"><time>2024-03-23T09:47:00.000Z</time><ele>1059.6</ele></trkpt><trkpt lat="45.837096" lon="9.435846"><time>2024-03-23T09:47:01.000Z</time><ele>1059.8</ele></trkpt><trkpt lat="45.837106" lon="9.435849"><time>2024-03-23T09:47:02.000Z</time><ele>1059.8</ele></trkpt><trkpt lat="45.837113" lon="9.43585"><time>2024-03-23T09:47:03.000Z</time><ele>1059.8</ele></trkpt><trkpt lat="45.837119" lon="9.435851"><time>2024-03-23T09:47:04.000Z</time><ele>1060.2</ele></trkpt><trkpt lat="45.837121" lon="9.435851"><time>2024-03-23T09:47:05.000Z</time><ele>1060.4</ele></trkpt><trkpt lat="45.837128" lon="9.435852"><time>2024-03-23T09:47:06.000Z</time><ele>1060.6</ele></trkpt><trkpt lat="45.837134" lon="9.435852"><time>2024-03-23T09:47:07.000Z</time><ele>1060.8</ele></trkpt><trkpt lat="45.837137" lon="9.435853"><time>2024-03-23T09:47:08.000Z</time><ele>1061</ele></trkpt><trkpt lat="45.837142" lon="9.435857"><time>2024-03-23T09:47:09.000Z</time><ele>1061</ele></trkpt><trkpt lat="45.837147" lon="9.435863"><time>2024-03-23T09:47:10.000Z</time><ele>1061.2</ele></trkpt><trkpt lat="45.837155" lon="9.435869"><time>2024-03-23T09:47:11.000Z</time><ele>1061.4</ele></trkpt><trkpt lat="45.837163" lon="9.435872"><time>2024-03-23T09:47:12.000Z</time><ele>1061.4</ele></trkpt><trkpt lat="45.837163" lon="9.435875"><time>2024-03-23T09:47:13.000Z</time><ele>1061.4</ele></trkpt><trkpt lat="45.837164" lon="9.435888"><time>2024-03-23T09:47:14.000Z</time><ele>1061.6</ele></trkpt><trkpt lat="45.837169" lon="9.4359"><time>2024-03-23T09:47:15.000Z</time><ele>1061.8</ele></trkpt><trkpt lat="45.837174" lon="9.43591"><time>2024-03-23T09:47:16.000Z</time><ele>1061.8</ele></trkpt><trkpt lat="45.837179" lon="9.435917"><time>2024-03-23T09:47:17.000Z</time><ele>1062</ele></trkpt><trkpt lat="45.837188" lon="9.435922"><time>2024-03-23T09:47:18.000Z</time><ele>1062.2</ele></trkpt><trkpt lat="45.8372" lon="9.435922"><time>2024-03-23T09:47:19.000Z</time><ele>1062.2</ele></trkpt><trkpt lat="45.83721" lon="9.435917"><time>2024-03-23T09:47:20.000Z</time><ele>1062.4</ele></trkpt><trkpt lat="45.837219" lon="9.435912"><time>2024-03-23T09:47:21.000Z</time><ele>1062.8</ele></trkpt><trkpt lat="45.837227" lon="9.435907"><time>2024-03-23T09:47:22.000Z</time><ele>1063.2</ele></trkpt><trkpt lat="45.83723" lon="9.435904"><time>2024-03-23T09:47:23.000Z</time><ele>1063.2</ele></trkpt><trkpt lat="45.837235" lon="9.435901"><time>2024-03-23T09:47:24.000Z</time><ele>1063.6</ele></trkpt><trkpt lat="45.837241" lon="9.435899"><time>2024-03-23T09:47:25.000Z</time><ele>1063.6</ele></trkpt><trkpt lat="45.837246" lon="9.435896"><time>2024-03-23T09:47:26.000Z</time><ele>1064</ele></trkpt><trkpt lat="45.837252" lon="9.435895"><time>2024-03-23T09:47:27.000Z</time><ele>1064</ele></trkpt><trkpt lat="45.837255" lon="9.435895"><time>2024-03-23T09:47:28.000Z</time><ele>1064.2</ele></trkpt><trkpt lat="45.83726" lon="9.435895"><time>2024-03-23T09:47:29.000Z</time><ele>1064.2</ele></trkpt><trkpt lat="45.837263" lon="9.435897"><time>2024-03-23T09:47:30.000Z</time><ele>1064.6</ele></trkpt><trkpt lat="45.83727" lon="9.435902"><time>2024-03-23T09:47:31.000Z</time><ele>1064.8</ele></trkpt><trkpt lat="45.837272" lon="9.435904"><time>2024-03-23T09:47:32.000Z</time><ele>1065</ele></trkpt><trkpt lat="45.837278" lon="9.435906"><time>2024-03-23T09:47:33.000Z</time><ele>1065</ele></trkpt><trkpt lat="45.837283" lon="9.435906"><time>2024-03-23T09:47:34.000Z</time><ele>1065</ele></trkpt><trkpt lat="45.837287" lon="9.435905"><time>2024-03-23T09:47:35.000Z</time><ele>1065.2</ele></trkpt><trkpt lat="45.837292" lon="9.435904"><time>2024-03-23T09:47:36.000Z</time><ele>1065.6</ele></trkpt><trkpt lat="45.837296" lon="9.435905"><time>2024-03-23T09:47:37.000Z</time><ele>1065.6</ele></trkpt><trkpt lat="45.8373" lon="9.435908"><time>2024-03-23T09:47:38.000Z</time><ele>1065.8</ele></trkpt><trkpt lat="45.837304" lon="9.435911"><time>2024-03-23T09:47:39.000Z</time><ele>1066</ele></trkpt><trkpt lat="45.837306" lon="9.435912"><time>2024-03-23T09:47:40.000Z</time><ele>1066.2</ele></trkpt><trkpt lat="45.837308" lon="9.435914"><time>2024-03-23T09:47:41.000Z</time><ele>1066.4</ele></trkpt><trkpt lat="45.837311" lon="9.435918"><time>2024-03-23T09:47:42.000Z</time><ele>1066.6</ele></trkpt><trkpt lat="45.83732" lon="9.435924"><time>2024-03-23T09:47:43.000Z</time><ele>1067</ele></trkpt><trkpt lat="45.837328" lon="9.435926"><time>2024-03-23T09:47:44.000Z</time><ele>1067</ele></trkpt><trkpt lat="45.837337" lon="9.435927"><time>2024-03-23T09:47:45.000Z</time><ele>1067.2</ele></trkpt><trkpt lat="45.837346" lon="9.435925"><time>2024-03-23T09:47:46.000Z</time><ele>1067.6</ele></trkpt><trkpt lat="45.83735" lon="9.435923"><time>2024-03-23T09:47:47.000Z</time><ele>1067.8</ele></trkpt><trkpt lat="45.837352" lon="9.435922"><time>2024-03-23T09:47:48.000Z</time><ele>1067.8</ele></trkpt><trkpt lat="45.837358" lon="9.435919"><time>2024-03-23T09:47:49.000Z</time><ele>1068.2</ele></trkpt><trkpt lat="45.837364" lon="9.435915"><time>2024-03-23T09:47:50.000Z</time><ele>1068.2</ele></trkpt><trkpt lat="45.837368" lon="9.435913"><time>2024-03-23T09:47:51.000Z</time><ele>1068.4</ele></trkpt><trkpt lat="45.837374" lon="9.43591"><time>2024-03-23T09:47:52.000Z</time><ele>1068.6</ele></trkpt><trkpt lat="45.837382" lon="9.435911"><time>2024-03-23T09:47:53.000Z</time><ele>1068.8</ele></trkpt><trkpt lat="45.837387" lon="9.435922"><time>2024-03-23T09:47:54.000Z</time><ele>1069</ele></trkpt><trkpt lat="45.837391" lon="9.435925"><time>2024-03-23T09:47:55.000Z</time><ele>1069.2</ele></trkpt><trkpt lat="45.837394" lon="9.435925"><time>2024-03-23T09:47:56.000Z</time><ele>1069.4</ele></trkpt><trkpt lat="45.837393" lon="9.435925"><time>2024-03-23T09:47:57.000Z</time><ele>1069.6</ele></trkpt><trkpt lat="45.837397" lon="9.435926"><time>2024-03-23T09:47:58.000Z</time><ele>1069.8</ele></trkpt><trkpt lat="45.837403" lon="9.435929"><time>2024-03-23T09:47:59.000Z</time><ele>1069.8</ele></trkpt><trkpt lat="45.837406" lon="9.435931"><time>2024-03-23T09:48:00.000Z</time><ele>1070</ele></trkpt><trkpt lat="45.83741" lon="9.435935"><time>2024-03-23T09:48:01.000Z</time><ele>1070</ele></trkpt><trkpt lat="45.837413" lon="9.435939"><time>2024-03-23T09:48:02.000Z</time><ele>1070</ele></trkpt><trkpt lat="45.837417" lon="9.435942"><time>2024-03-23T09:48:03.000Z</time><ele>1070.2</ele></trkpt><trkpt lat="45.83742" lon="9.435941"><time>2024-03-23T09:48:04.000Z</time><ele>1070.4</ele></trkpt><trkpt lat="45.837423" lon="9.435939"><time>2024-03-23T09:48:05.000Z</time><ele>1070.6</ele></trkpt><trkpt lat="45.837431" lon="9.435942"><time>2024-03-23T09:48:06.000Z</time><ele>1070.8</ele></trkpt><trkpt lat="45.837434" lon="9.435945"><time>2024-03-23T09:48:07.000Z</time><ele>1071</ele></trkpt><trkpt lat="45.837438" lon="9.435947"><time>2024-03-23T09:48:08.000Z</time><ele>1071.2</ele></trkpt><trkpt lat="45.837446" lon="9.435948"><time>2024-03-23T09:48:09.000Z</time><ele>1071.4</ele></trkpt><trkpt lat="45.837452" lon="9.43595"><time>2024-03-23T09:48:10.000Z</time><ele>1071.6</ele></trkpt><trkpt lat="45.837457" lon="9.435954"><time>2024-03-23T09:48:11.000Z</time><ele>1071.6</ele></trkpt><trkpt lat="45.837463" lon="9.435957"><time>2024-03-23T09:48:12.000Z</time><ele>1071.8</ele></trkpt><trkpt lat="45.837466" lon="9.435963"><time>2024-03-23T09:48:13.000Z</time><ele>1072</ele></trkpt><trkpt lat="45.837472" lon="9.43597"><time>2024-03-23T09:48:14.000Z</time><ele>1072.2</ele></trkpt><trkpt lat="45.837477" lon="9.435979"><time>2024-03-23T09:48:15.000Z</time><ele>1072.4</ele></trkpt><trkpt lat="45.83748" lon="9.435983"><time>2024-03-23T09:48:16.000Z</time><ele>1072.6</ele></trkpt><trkpt lat="45.837484" lon="9.435988"><time>2024-03-23T09:48:17.000Z</time><ele>1072.8</ele></trkpt><trkpt lat="45.837488" lon="9.435993"><time>2024-03-23T09:48:18.000Z</time><ele>1072.8</ele></trkpt><trkpt lat="45.837494" lon="9.435996"><time>2024-03-23T09:48:19.000Z</time><ele>1072.8</ele></trkpt><trkpt lat="45.837501" lon="9.435997"><time>2024-03-23T09:48:20.000Z</time><ele>1073</ele></trkpt><trkpt lat="45.837506" lon="9.435998"><time>2024-03-23T09:48:21.000Z</time><ele>1073</ele></trkpt><trkpt lat="45.837506" lon="9.436"><time>2024-03-23T09:48:22.000Z</time><ele>1073</ele></trkpt><trkpt lat="45.837509" lon="9.436"><time>2024-03-23T09:48:23.000Z</time><ele>1073.2</ele></trkpt><trkpt lat="45.837513" lon="9.436001"><time>2024-03-23T09:48:24.000Z</time><ele>1073.4</ele></trkpt><trkpt lat="45.837518" lon="9.436002"><time>2024-03-23T09:48:25.000Z</time><ele>1073.6</ele></trkpt><trkpt lat="45.837521" lon="9.436004"><time>2024-03-23T09:48:26.000Z</time><ele>1073.8</ele></trkpt><trkpt lat="45.837523" lon="9.43601"><time>2024-03-23T09:48:27.000Z</time><ele>1074</ele></trkpt><trkpt lat="45.837525" lon="9.436014"><time>2024-03-23T09:48:28.000Z</time><ele>1074.2</ele></trkpt><trkpt lat="45.837527" lon="9.436019"><time>2024-03-23T09:48:29.000Z</time><ele>1074.4</ele></trkpt><trkpt lat="45.837533" lon="9.436021"><time>2024-03-23T09:48:30.000Z</time><ele>1074.8</ele></trkpt><trkpt lat="45.837537" lon="9.436024"><time>2024-03-23T09:48:31.000Z</time><ele>1074.8</ele></trkpt><trkpt lat="45.837541" lon="9.436025"><time>2024-03-23T09:48:32.000Z</time><ele>1075</ele></trkpt><trkpt lat="45.837544" lon="9.436029"><time>2024-03-23T09:48:33.000Z</time><ele>1075</ele></trkpt><trkpt lat="45.837549" lon="9.436033"><time>2024-03-23T09:48:34.000Z</time><ele>1075.2</ele></trkpt><trkpt lat="45.837553" lon="9.436034"><time>2024-03-23T09:48:35.000Z</time><ele>1075.2</ele></trkpt><trkpt lat="45.837558" lon="9.436035"><time>2024-03-23T09:48:36.000Z</time><ele>1075.4</ele></trkpt><trkpt lat="45.837564" lon="9.436038"><time>2024-03-23T09:48:37.000Z</time><ele>1075.6</ele></trkpt><trkpt lat="45.837566" lon="9.436039"><time>2024-03-23T09:48:38.000Z</time><ele>1075.8</ele></trkpt><trkpt lat="45.837569" lon="9.436044"><time>2024-03-23T09:48:39.000Z</time><ele>1076</ele></trkpt><trkpt lat="45.837572" lon="9.436046"><time>2024-03-23T09:48:40.000Z</time><ele>1076.2</ele></trkpt><trkpt lat="45.837574" lon="9.436045"><time>2024-03-23T09:48:41.000Z</time><ele>1076.6</ele></trkpt><trkpt lat="45.837577" lon="9.436047"><time>2024-03-23T09:48:42.000Z</time><ele>1076.6</ele></trkpt><trkpt lat="45.837582" lon="9.436044"><time>2024-03-23T09:48:43.000Z</time><ele>1076.8</ele></trkpt><trkpt lat="45.83759" lon="9.43604"><time>2024-03-23T09:48:44.000Z</time><ele>1076.8</ele></trkpt><trkpt lat="45.837592" lon="9.436038"><time>2024-03-23T09:48:45.000Z</time><ele>1076.8</ele></trkpt><trkpt lat="45.837598" lon="9.436036"><time>2024-03-23T09:48:46.000Z</time><ele>1077.2</ele></trkpt><trkpt lat="45.837604" lon="9.436032"><time>2024-03-23T09:48:47.000Z</time><ele>1077.2</ele></trkpt><trkpt lat="45.837609" lon="9.436036"><time>2024-03-23T09:48:48.000Z</time><ele>1077.6</ele></trkpt><trkpt lat="45.837615" lon="9.436036"><time>2024-03-23T09:48:49.000Z</time><ele>1077.8</ele></trkpt><trkpt lat="45.837619" lon="9.43604"><time>2024-03-23T09:48:50.000Z</time><ele>1077.8</ele></trkpt><trkpt lat="45.837627" lon="9.436046"><time>2024-03-23T09:48:51.000Z</time><ele>1078</ele></trkpt><trkpt lat="45.83763" lon="9.436052"><time>2024-03-23T09:48:52.000Z</time><ele>1078.2</ele></trkpt><trkpt lat="45.837634" lon="9.436057"><time>2024-03-23T09:48:53.000Z</time><ele>1078.2</ele></trkpt><trkpt lat="45.837637" lon="9.436063"><time>2024-03-23T09:48:54.000Z</time><ele>1078.4</ele></trkpt><trkpt lat="45.837641" lon="9.436066"><time>2024-03-23T09:48:55.000Z</time><ele>1078.6</ele></trkpt><trkpt lat="45.837642" lon="9.436067"><time>2024-03-23T09:48:56.000Z</time><ele>1078.6</ele></trkpt><trkpt lat="45.837643" lon="9.436068"><time>2024-03-23T09:48:57.000Z</time><ele>1078.6</ele></trkpt><trkpt lat="45.837643" lon="9.436068"><time>2024-03-23T09:48:58.000Z</time><ele>1078.8</ele></trkpt><trkpt lat="45.837642" lon="9.436069"><time>2024-03-23T09:48:59.000Z</time><ele>1078.8</ele></trkpt><trkpt lat="45.837642" lon="9.436068"><time>2024-03-23T09:49:00.000Z</time><ele>1079</ele></trkpt><trkpt lat="45.837642" lon="9.436068"><time>2024-03-23T09:49:01.000Z</time><ele>1079</ele></trkpt><trkpt lat="45.837642" lon="9.436068"><time>2024-03-23T09:49:02.000Z</time><ele>1079</ele></trkpt><trkpt lat="45.837644" lon="9.436068"><time>2024-03-23T09:49:03.000Z</time><ele>1079</ele></trkpt><trkpt lat="45.837649" lon="9.436069"><time>2024-03-23T09:49:04.000Z</time><ele>1079</ele></trkpt><trkpt lat="45.837652" lon="9.43607"><time>2024-03-23T09:49:05.000Z</time><ele>1079</ele></trkpt><trkpt lat="45.837655" lon="9.43607"><time>2024-03-23T09:49:06.000Z</time><ele>1079</ele></trkpt><trkpt lat="45.837655" lon="9.43607"><time>2024-03-23T09:49:07.000Z</time><ele>1079</ele></trkpt><trkpt lat="45.837655" lon="9.43607"><time>2024-03-23T09:49:08.000Z</time><ele>1079.2</ele></trkpt><trkpt lat="45.837655" lon="9.43607"><time>2024-03-23T09:49:09.000Z</time><ele>1079.2</ele></trkpt><trkpt lat="45.837655" lon="9.43607"><time>2024-03-23T09:49:10.000Z</time><ele>1079.4</ele></trkpt><trkpt lat="45.837655" lon="9.43607"><time>2024-03-23T09:49:11.000Z</time><ele>1079.4</ele></trkpt><trkpt lat="45.837655" lon="9.43607"><time>2024-03-23T09:49:12.000Z</time><ele>1079.4</ele></trkpt><trkpt lat="45.837655" lon="9.43607"><time>2024-03-23T09:49:13.000Z</time><ele>1079.4</ele></trkpt><trkpt lat="45.837655" lon="9.43607"><time>2024-03-23T09:49:14.000Z</time><ele>1079.6</ele></trkpt><trkpt lat="45.837655" lon="9.43607"><time>2024-03-23T09:49:15.000Z</time><ele>1079.6</ele></trkpt><trkpt lat="45.837655" lon="9.43607"><time>2024-03-23T09:49:16.000Z</time><ele>1079.6</ele></trkpt><trkpt lat="45.837655" lon="9.43607"><time>2024-03-23T09:49:17.000Z</time><ele>1079.6</ele></trkpt><trkpt lat="45.837655" lon="9.43607"><time>2024-03-23T09:49:18.000Z</time><ele>1079.8</ele></trkpt><trkpt lat="45.837655" lon="9.436069"><time>2024-03-23T09:49:19.000Z</time><ele>1079.8</ele></trkpt><trkpt lat="45.837655" lon="9.436069"><time>2024-03-23T09:49:20.000Z</time><ele>1080</ele></trkpt><trkpt lat="45.837655" lon="9.436069"><time>2024-03-23T09:49:21.000Z</time><ele>1080</ele></trkpt><trkpt lat="45.837655" lon="9.436069"><time>2024-03-23T09:49:22.000Z</time><ele>1080</ele></trkpt><trkpt lat="45.837655" lon="9.436069"><time>2024-03-23T09:49:23.000Z</time><ele>1080</ele></trkpt><trkpt lat="45.837655" lon="9.436069"><time>2024-03-23T09:49:24.000Z</time><ele>1080</ele></trkpt><trkpt lat="45.837655" lon="9.436069"><time>2024-03-23T09:49:25.000Z</time><ele>1080</ele></trkpt><trkpt lat="45.837655" lon="9.436069"><time>2024-03-23T09:49:26.000Z</time><ele>1080</ele></trkpt><trkpt lat="45.837655" lon="9.436069"><time>2024-03-23T09:49:27.000Z</time><ele>1080</ele></trkpt><trkpt lat="45.837655" lon="9.436069"><time>2024-03-23T09:49:28.000Z</time><ele>1080</ele></trkpt><trkpt lat="45.837655" lon="9.43607"><time>2024-03-23T09:49:29.000Z</time><ele>1080.2</ele></trkpt><trkpt lat="45.837655" lon="9.43607"><time>2024-03-23T09:49:30.000Z</time><ele>1080.2</ele></trkpt><trkpt lat="45.837655" lon="9.43607"><time>2024-03-23T09:49:31.000Z</time><ele>1080.4</ele></trkpt><trkpt lat="45.837655" lon="9.43607"><time>2024-03-23T09:49:32.000Z</time><ele>1080.6</ele></trkpt><trkpt lat="45.837655" lon="9.436071"><time>2024-03-23T09:49:33.000Z</time><ele>1080.8</ele></trkpt><trkpt lat="45.837657" lon="9.436071"><time>2024-03-23T09:49:34.000Z</time><ele>1081</ele></trkpt><trkpt lat="45.837659" lon="9.436074"><time>2024-03-23T09:49:35.000Z</time><ele>1081.2</ele></trkpt><trkpt lat="45.837661" lon="9.436081"><time>2024-03-23T09:49:36.000Z</time><ele>1081.2</ele></trkpt><trkpt lat="45.837663" lon="9.43609"><time>2024-03-23T09:49:37.000Z</time><ele>1081.4</ele></trkpt><trkpt lat="45.837663" lon="9.436098"><time>2024-03-23T09:49:38.000Z</time><ele>1081.6</ele></trkpt><trkpt lat="45.837666" lon="9.436103"><time>2024-03-23T09:49:39.000Z</time><ele>1081.6</ele></trkpt><trkpt lat="45.83767" lon="9.43611"><time>2024-03-23T09:49:40.000Z</time><ele>1081.8</ele></trkpt><trkpt lat="45.837674" lon="9.436117"><time>2024-03-23T09:49:41.000Z</time><ele>1082</ele></trkpt><trkpt lat="45.83768" lon="9.436121"><time>2024-03-23T09:49:42.000Z</time><ele>1082.2</ele></trkpt><trkpt lat="45.837685" lon="9.436125"><time>2024-03-23T09:49:43.000Z</time><ele>1082.4</ele></trkpt><trkpt lat="45.83769" lon="9.436129"><time>2024-03-23T09:49:44.000Z</time><ele>1082.6</ele></trkpt><trkpt lat="45.837691" lon="9.436133"><time>2024-03-23T09:49:45.000Z</time><ele>1082.6</ele></trkpt><trkpt lat="45.837691" lon="9.436139"><time>2024-03-23T09:49:46.000Z</time><ele>1082.6</ele></trkpt><trkpt lat="45.837691" lon="9.436143"><time>2024-03-23T09:49:47.000Z</time><ele>1082.6</ele></trkpt><trkpt lat="45.837691" lon="9.436145"><time>2024-03-23T09:49:48.000Z</time><ele>1082.6</ele></trkpt><trkpt lat="45.837691" lon="9.436149"><time>2024-03-23T09:49:49.000Z</time><ele>1083</ele></trkpt><trkpt lat="45.837691" lon="9.436153"><time>2024-03-23T09:49:50.000Z</time><ele>1083</ele></trkpt><trkpt lat="45.837691" lon="9.436158"><time>2024-03-23T09:49:51.000Z</time><ele>1083.4</ele></trkpt><trkpt lat="45.837691" lon="9.436163"><time>2024-03-23T09:49:52.000Z</time><ele>1084</ele></trkpt><trkpt lat="45.837692" lon="9.436168"><time>2024-03-23T09:49:53.000Z</time><ele>1084.4</ele></trkpt><trkpt lat="45.837694" lon="9.436173"><time>2024-03-23T09:49:54.000Z</time><ele>1084.6</ele></trkpt><trkpt lat="45.837694" lon="9.436177"><time>2024-03-23T09:49:55.000Z</time><ele>1084.8</ele></trkpt><trkpt lat="45.837696" lon="9.436181"><time>2024-03-23T09:49:56.000Z</time><ele>1085</ele></trkpt><trkpt lat="45.837698" lon="9.436187"><time>2024-03-23T09:49:57.000Z</time><ele>1085</ele></trkpt><trkpt lat="45.837699" lon="9.436193"><time>2024-03-23T09:49:58.000Z</time><ele>1085.2</ele></trkpt><trkpt lat="45.8377" lon="9.436201"><time>2024-03-23T09:49:59.000Z</time><ele>1085.2</ele></trkpt><trkpt lat="45.837702" lon="9.436209"><time>2024-03-23T09:50:00.000Z</time><ele>1085.4</ele></trkpt><trkpt lat="45.837702" lon="9.436218"><time>2024-03-23T09:50:01.000Z</time><ele>1085.6</ele></trkpt><trkpt lat="45.837702" lon="9.436228"><time>2024-03-23T09:50:02.000Z</time><ele>1085.6</ele></trkpt><trkpt lat="45.837702" lon="9.436233"><time>2024-03-23T09:50:03.000Z</time><ele>1085.8</ele></trkpt><trkpt lat="45.837702" lon="9.436237"><time>2024-03-23T09:50:04.000Z</time><ele>1086.2</ele></trkpt><trkpt lat="45.837702" lon="9.436241"><time>2024-03-23T09:50:05.000Z</time><ele>1086.4</ele></trkpt><trkpt lat="45.837702" lon="9.436247"><time>2024-03-23T09:50:06.000Z</time><ele>1086.6</ele></trkpt><trkpt lat="45.837702" lon="9.436249"><time>2024-03-23T09:50:07.000Z</time><ele>1086.8</ele></trkpt><trkpt lat="45.837702" lon="9.436253"><time>2024-03-23T09:50:08.000Z</time><ele>1087</ele></trkpt><trkpt lat="45.837702" lon="9.436261"><time>2024-03-23T09:50:09.000Z</time><ele>1087.2</ele></trkpt><trkpt lat="45.837703" lon="9.436266"><time>2024-03-23T09:50:10.000Z</time><ele>1087.6</ele></trkpt><trkpt lat="45.837704" lon="9.436272"><time>2024-03-23T09:50:11.000Z</time><ele>1087.8</ele></trkpt><trkpt lat="45.837705" lon="9.436279"><time>2024-03-23T09:50:12.000Z</time><ele>1087.8</ele></trkpt><trkpt lat="45.837706" lon="9.436286"><time>2024-03-23T09:50:13.000Z</time><ele>1088</ele></trkpt><trkpt lat="45.837706" lon="9.436292"><time>2024-03-23T09:50:14.000Z</time><ele>1088.2</ele></trkpt><trkpt lat="45.837706" lon="9.436296"><time>2024-03-23T09:50:15.000Z</time><ele>1088.4</ele></trkpt><trkpt lat="45.837707" lon="9.436301"><time>2024-03-23T09:50:16.000Z</time><ele>1088.6</ele></trkpt><trkpt lat="45.83771" lon="9.436307"><time>2024-03-23T09:50:17.000Z</time><ele>1088.8</ele></trkpt><trkpt lat="45.837711" lon="9.436311"><time>2024-03-23T09:50:18.000Z</time><ele>1089</ele></trkpt><trkpt lat="45.837711" lon="9.436315"><time>2024-03-23T09:50:19.000Z</time><ele>1089.2</ele></trkpt><trkpt lat="45.837711" lon="9.43632"><time>2024-03-23T09:50:20.000Z</time><ele>1089.4</ele></trkpt><trkpt lat="45.837711" lon="9.436324"><time>2024-03-23T09:50:21.000Z</time><ele>1089.6</ele></trkpt><trkpt lat="45.837711" lon="9.436329"><time>2024-03-23T09:50:22.000Z</time><ele>1089.8</ele></trkpt><trkpt lat="45.837711" lon="9.436331"><time>2024-03-23T09:50:23.000Z</time><ele>1089.8</ele></trkpt><trkpt lat="45.837711" lon="9.436335"><time>2024-03-23T09:50:24.000Z</time><ele>1090</ele></trkpt><trkpt lat="45.837711" lon="9.436341"><time>2024-03-23T09:50:25.000Z</time><ele>1090</ele></trkpt><trkpt lat="45.837711" lon="9.436348"><time>2024-03-23T09:50:26.000Z</time><ele>1090.4</ele></trkpt><trkpt lat="45.837711" lon="9.436351"><time>2024-03-23T09:50:27.000Z</time><ele>1090.8</ele></trkpt><trkpt lat="45.837711" lon="9.436355"><time>2024-03-23T09:50:28.000Z</time><ele>1091.2</ele></trkpt><trkpt lat="45.837712" lon="9.436358"><time>2024-03-23T09:50:29.000Z</time><ele>1091.4</ele></trkpt><trkpt lat="45.837712" lon="9.436361"><time>2024-03-23T09:50:30.000Z</time><ele>1091.4</ele></trkpt><trkpt lat="45.837713" lon="9.436363"><time>2024-03-23T09:50:31.000Z</time><ele>1091.6</ele></trkpt><trkpt lat="45.837713" lon="9.436366"><time>2024-03-23T09:50:32.000Z</time><ele>1092</ele></trkpt><trkpt lat="45.837714" lon="9.436369"><time>2024-03-23T09:50:33.000Z</time><ele>1092.2</ele></trkpt><trkpt lat="45.837716" lon="9.436374"><time>2024-03-23T09:50:34.000Z</time><ele>1092.6</ele></trkpt><trkpt lat="45.837717" lon="9.43638"><time>2024-03-23T09:50:35.000Z</time><ele>1092.8</ele></trkpt><trkpt lat="45.837717" lon="9.436385"><time>2024-03-23T09:50:36.000Z</time><ele>1092.8</ele></trkpt><trkpt lat="45.837717" lon="9.43639"><time>2024-03-23T09:50:37.000Z</time><ele>1092.8</ele></trkpt><trkpt lat="45.837717" lon="9.436397"><time>2024-03-23T09:50:38.000Z</time><ele>1093</ele></trkpt><trkpt lat="45.837718" lon="9.436404"><time>2024-03-23T09:50:39.000Z</time><ele>1093</ele></trkpt><trkpt lat="45.837718" lon="9.43641"><time>2024-03-23T09:50:40.000Z</time><ele>1093.4</ele></trkpt><trkpt lat="45.837718" lon="9.436418"><time>2024-03-23T09:50:41.000Z</time><ele>1093.4</ele></trkpt><trkpt lat="45.837718" lon="9.436424"><time>2024-03-23T09:50:42.000Z</time><ele>1093.4</ele></trkpt><trkpt lat="45.837718" lon="9.43643"><time>2024-03-23T09:50:43.000Z</time><ele>1093.6</ele></trkpt><trkpt lat="45.837718" lon="9.436435"><time>2024-03-23T09:50:44.000Z</time><ele>1093.6</ele></trkpt><trkpt lat="45.837718" lon="9.43644"><time>2024-03-23T09:50:45.000Z</time><ele>1093.6</ele></trkpt><trkpt lat="45.837719" lon="9.436444"><time>2024-03-23T09:50:46.000Z</time><ele>1093.8</ele></trkpt><trkpt lat="45.83772" lon="9.436447"><time>2024-03-23T09:50:47.000Z</time><ele>1093.8</ele></trkpt><trkpt lat="45.837722" lon="9.436451"><time>2024-03-23T09:50:48.000Z</time><ele>1094</ele></trkpt><trkpt lat="45.837726" lon="9.436454"><time>2024-03-23T09:50:49.000Z</time><ele>1094.2</ele></trkpt><trkpt lat="45.837729" lon="9.436457"><time>2024-03-23T09:50:50.000Z</time><ele>1094.6</ele></trkpt><trkpt lat="45.83773" lon="9.43646"><time>2024-03-23T09:50:51.000Z</time><ele>1094.8</ele></trkpt><trkpt lat="45.837732" lon="9.436463"><time>2024-03-23T09:50:52.000Z</time><ele>1095</ele></trkpt><trkpt lat="45.837736" lon="9.436466"><time>2024-03-23T09:50:53.000Z</time><ele>1095</ele></trkpt><trkpt lat="45.837739" lon="9.43647"><time>2024-03-23T09:50:54.000Z</time><ele>1095.2</ele></trkpt><trkpt lat="45.837741" lon="9.436473"><time>2024-03-23T09:50:55.000Z</time><ele>1095.2</ele></trkpt><trkpt lat="45.837744" lon="9.436476"><time>2024-03-23T09:50:56.000Z</time><ele>1095.4</ele></trkpt><trkpt lat="45.837749" lon="9.436481"><time>2024-03-23T09:50:57.000Z</time><ele>1095.6</ele></trkpt><trkpt lat="45.837754" lon="9.436485"><time>2024-03-23T09:50:58.000Z</time><ele>1095.6</ele></trkpt><trkpt lat="45.837759" lon="9.436488"><time>2024-03-23T09:50:59.000Z</time><ele>1095.8</ele></trkpt><trkpt lat="45.837763" lon="9.436492"><time>2024-03-23T09:51:00.000Z</time><ele>1096</ele></trkpt><trkpt lat="45.837765" lon="9.436496"><time>2024-03-23T09:51:01.000Z</time><ele>1096.2</ele></trkpt><trkpt lat="45.837766" lon="9.436501"><time>2024-03-23T09:51:02.000Z</time><ele>1096.2</ele></trkpt><trkpt lat="45.837766" lon="9.436507"><time>2024-03-23T09:51:03.000Z</time><ele>1096.4</ele></trkpt><trkpt lat="45.837767" lon="9.436511"><time>2024-03-23T09:51:04.000Z</time><ele>1096.6</ele></trkpt><trkpt lat="45.837767" lon="9.436516"><time>2024-03-23T09:51:05.000Z</time><ele>1096.6</ele></trkpt><trkpt lat="45.837767" lon="9.436522"><time>2024-03-23T09:51:06.000Z</time><ele>1096.6</ele></trkpt><trkpt lat="45.837767" lon="9.436527"><time>2024-03-23T09:51:07.000Z</time><ele>1097</ele></trkpt><trkpt lat="45.837767" lon="9.436532"><time>2024-03-23T09:51:08.000Z</time><ele>1097</ele></trkpt><trkpt lat="45.837767" lon="9.436536"><time>2024-03-23T09:51:09.000Z</time><ele>1097.2</ele></trkpt><trkpt lat="45.837767" lon="9.436539"><time>2024-03-23T09:51:10.000Z</time><ele>1097.2</ele></trkpt><trkpt lat="45.837767" lon="9.436542"><time>2024-03-23T09:51:11.000Z</time><ele>1097.2</ele></trkpt><trkpt lat="45.837767" lon="9.436543"><time>2024-03-23T09:51:12.000Z</time><ele>1097.4</ele></trkpt><trkpt lat="45.837767" lon="9.436545"><time>2024-03-23T09:51:13.000Z</time><ele>1097.4</ele></trkpt><trkpt lat="45.837767" lon="9.436545"><time>2024-03-23T09:51:14.000Z</time><ele>1097.6</ele></trkpt><trkpt lat="45.837766" lon="9.436546"><time>2024-03-23T09:51:15.000Z</time><ele>1097.6</ele></trkpt><trkpt lat="45.837764" lon="9.436546"><time>2024-03-23T09:51:16.000Z</time><ele>1097.8</ele></trkpt><trkpt lat="45.837761" lon="9.436548"><time>2024-03-23T09:51:17.000Z</time><ele>1098.2</ele></trkpt><trkpt lat="45.837757" lon="9.43655"><time>2024-03-23T09:51:18.000Z</time><ele>1098.4</ele></trkpt><trkpt lat="45.837755" lon="9.436553"><time>2024-03-23T09:51:19.000Z</time><ele>1098.6</ele></trkpt><trkpt lat="45.837753" lon="9.436558"><time>2024-03-23T09:51:20.000Z</time><ele>1098.8</ele></trkpt><trkpt lat="45.837752" lon="9.436563"><time>2024-03-23T09:51:21.000Z</time><ele>1099</ele></trkpt><trkpt lat="45.837751" lon="9.43657"><time>2024-03-23T09:51:22.000Z</time><ele>1099</ele></trkpt><trkpt lat="45.83775" lon="9.436577"><time>2024-03-23T09:51:23.000Z</time><ele>1099.2</ele></trkpt><trkpt lat="45.837749" lon="9.436582"><time>2024-03-23T09:51:24.000Z</time><ele>1099.2</ele></trkpt><trkpt lat="45.837748" lon="9.436587"><time>2024-03-23T09:51:25.000Z</time><ele>1099.4</ele></trkpt><trkpt lat="45.837747" lon="9.436591"><time>2024-03-23T09:51:26.000Z</time><ele>1099.4</ele></trkpt><trkpt lat="45.837746" lon="9.436596"><time>2024-03-23T09:51:27.000Z</time><ele>1099.4</ele></trkpt><trkpt lat="45.837745" lon="9.436601"><time>2024-03-23T09:51:28.000Z</time><ele>1099.6</ele></trkpt><trkpt lat="45.837745" lon="9.436606"><time>2024-03-23T09:51:29.000Z</time><ele>1100</ele></trkpt><trkpt lat="45.837744" lon="9.43661"><time>2024-03-23T09:51:30.000Z</time><ele>1100.4</ele></trkpt><trkpt lat="45.837742" lon="9.436614"><time>2024-03-23T09:51:31.000Z</time><ele>1100.8</ele></trkpt><trkpt lat="45.837741" lon="9.436618"><time>2024-03-23T09:51:32.000Z</time><ele>1100.8</ele></trkpt><trkpt lat="45.837739" lon="9.436623"><time>2024-03-23T09:51:33.000Z</time><ele>1101</ele></trkpt><trkpt lat="45.837738" lon="9.436628"><time>2024-03-23T09:51:34.000Z</time><ele>1101</ele></trkpt><trkpt lat="45.837737" lon="9.436634"><time>2024-03-23T09:51:35.000Z</time><ele>1101.2</ele></trkpt><trkpt lat="45.837737" lon="9.436639"><time>2024-03-23T09:51:36.000Z</time><ele>1101.2</ele></trkpt><trkpt lat="45.837736" lon="9.436644"><time>2024-03-23T09:51:37.000Z</time><ele>1101.4</ele></trkpt><trkpt lat="45.837736" lon="9.436648"><time>2024-03-23T09:51:38.000Z</time><ele>1101.4</ele></trkpt><trkpt lat="45.837736" lon="9.436653"><time>2024-03-23T09:51:39.000Z</time><ele>1101.6</ele></trkpt><trkpt lat="45.837735" lon="9.436658"><time>2024-03-23T09:51:40.000Z</time><ele>1101.8</ele></trkpt><trkpt lat="45.837735" lon="9.436665"><time>2024-03-23T09:51:41.000Z</time><ele>1101.8</ele></trkpt><trkpt lat="45.837735" lon="9.43667"><time>2024-03-23T09:51:42.000Z</time><ele>1102</ele></trkpt><trkpt lat="45.837735" lon="9.436675"><time>2024-03-23T09:51:43.000Z</time><ele>1102</ele></trkpt><trkpt lat="45.837735" lon="9.43668"><time>2024-03-23T09:51:44.000Z</time><ele>1102.2</ele></trkpt><trkpt lat="45.837735" lon="9.436685"><time>2024-03-23T09:51:45.000Z</time><ele>1102.4</ele></trkpt><trkpt lat="45.837735" lon="9.436689"><time>2024-03-23T09:51:46.000Z</time><ele>1102.6</ele></trkpt><trkpt lat="45.837735" lon="9.436694"><time>2024-03-23T09:51:47.000Z</time><ele>1102.8</ele></trkpt><trkpt lat="45.837735" lon="9.436698"><time>2024-03-23T09:51:48.000Z</time><ele>1102.8</ele></trkpt><trkpt lat="45.837735" lon="9.436703"><time>2024-03-23T09:51:49.000Z</time><ele>1103</ele></trkpt><trkpt lat="45.837735" lon="9.436707"><time>2024-03-23T09:51:50.000Z</time><ele>1103.2</ele></trkpt><trkpt lat="45.837735" lon="9.436712"><time>2024-03-23T09:51:51.000Z</time><ele>1103.4</ele></trkpt><trkpt lat="45.837735" lon="9.436716"><time>2024-03-23T09:51:52.000Z</time><ele>1103.4</ele></trkpt><trkpt lat="45.837735" lon="9.436722"><time>2024-03-23T09:51:53.000Z</time><ele>1103.8</ele></trkpt><trkpt lat="45.837735" lon="9.436726"><time>2024-03-23T09:51:54.000Z</time><ele>1103.8</ele></trkpt><trkpt lat="45.837735" lon="9.436731"><time>2024-03-23T09:51:55.000Z</time><ele>1103.8</ele></trkpt><trkpt lat="45.837735" lon="9.436734"><time>2024-03-23T09:51:56.000Z</time><ele>1104</ele></trkpt><trkpt lat="45.837735" lon="9.436738"><time>2024-03-23T09:51:57.000Z</time><ele>1104.2</ele></trkpt><trkpt lat="45.837735" lon="9.43674"><time>2024-03-23T09:51:58.000Z</time><ele>1104.4</ele></trkpt><trkpt lat="45.837736" lon="9.436744"><time>2024-03-23T09:51:59.000Z</time><ele>1104.6</ele></trkpt><trkpt lat="45.837736" lon="9.436747"><time>2024-03-23T09:52:00.000Z</time><ele>1104.6</ele></trkpt><trkpt lat="45.837736" lon="9.43675"><time>2024-03-23T09:52:01.000Z</time><ele>1104.6</ele></trkpt><trkpt lat="45.837736" lon="9.436753"><time>2024-03-23T09:52:02.000Z</time><ele>1104.8</ele></trkpt><trkpt lat="45.837736" lon="9.436756"><time>2024-03-23T09:52:03.000Z</time><ele>1105</ele></trkpt><trkpt lat="45.837736" lon="9.43676"><time>2024-03-23T09:52:04.000Z</time><ele>1105.2</ele></trkpt><trkpt lat="45.837736" lon="9.436764"><time>2024-03-23T09:52:05.000Z</time><ele>1105.4</ele></trkpt><trkpt lat="45.837736" lon="9.436768"><time>2024-03-23T09:52:06.000Z</time><ele>1105.8</ele></trkpt><trkpt lat="45.837736" lon="9.436772"><time>2024-03-23T09:52:07.000Z</time><ele>1106</ele></trkpt><trkpt lat="45.837736" lon="9.436775"><time>2024-03-23T09:52:08.000Z</time><ele>1106.2</ele></trkpt><trkpt lat="45.837736" lon="9.436779"><time>2024-03-23T09:52:09.000Z</time><ele>1106.2</ele></trkpt><trkpt lat="45.837736" lon="9.436783"><time>2024-03-23T09:52:10.000Z</time><ele>1106.6</ele></trkpt><trkpt lat="45.837736" lon="9.436787"><time>2024-03-23T09:52:11.000Z</time><ele>1106.8</ele></trkpt><trkpt lat="45.837736" lon="9.436791"><time>2024-03-23T09:52:12.000Z</time><ele>1106.8</ele></trkpt><trkpt lat="45.837736" lon="9.436795"><time>2024-03-23T09:52:13.000Z</time><ele>1106.8</ele></trkpt><trkpt lat="45.837736" lon="9.436799"><time>2024-03-23T09:52:14.000Z</time><ele>1106.8</ele></trkpt><trkpt lat="45.837736" lon="9.436803"><time>2024-03-23T09:52:15.000Z</time><ele>1106.8</ele></trkpt><trkpt lat="45.837736" lon="9.436806"><time>2024-03-23T09:52:16.000Z</time><ele>1107</ele></trkpt><trkpt lat="45.837737" lon="9.436809"><time>2024-03-23T09:52:17.000Z</time><ele>1107</ele></trkpt><trkpt lat="45.837737" lon="9.436811"><time>2024-03-23T09:52:18.000Z</time><ele>1107.4</ele></trkpt><trkpt lat="45.837738" lon="9.436814"><time>2024-03-23T09:52:19.000Z</time><ele>1107.6</ele></trkpt><trkpt lat="45.837739" lon="9.436816"><time>2024-03-23T09:52:20.000Z</time><ele>1107.6</ele></trkpt><trkpt lat="45.83774" lon="9.436818"><time>2024-03-23T09:52:21.000Z</time><ele>1107.8</ele></trkpt><trkpt lat="45.83774" lon="9.436819"><time>2024-03-23T09:52:22.000Z</time><ele>1108</ele></trkpt><trkpt lat="45.837741" lon="9.436821"><time>2024-03-23T09:52:23.000Z</time><ele>1108.2</ele></trkpt><trkpt lat="45.837741" lon="9.436823"><time>2024-03-23T09:52:24.000Z</time><ele>1108.2</ele></trkpt><trkpt lat="45.837741" lon="9.436824"><time>2024-03-23T09:52:25.000Z</time><ele>1108.4</ele></trkpt><trkpt lat="45.837742" lon="9.436825"><time>2024-03-23T09:52:26.000Z</time><ele>1108.6</ele></trkpt><trkpt lat="45.837742" lon="9.436825"><time>2024-03-23T09:52:27.000Z</time><ele>1108.6</ele></trkpt><trkpt lat="45.837742" lon="9.436825"><time>2024-03-23T09:52:28.000Z</time><ele>1108.8</ele></trkpt><trkpt lat="45.837742" lon="9.436826"><time>2024-03-23T09:52:29.000Z</time><ele>1108.8</ele></trkpt><trkpt lat="45.837742" lon="9.436826"><time>2024-03-23T09:52:30.000Z</time><ele>1109</ele></trkpt><trkpt lat="45.837742" lon="9.436826"><time>2024-03-23T09:52:31.000Z</time><ele>1109</ele></trkpt><trkpt lat="45.837742" lon="9.436827"><time>2024-03-23T09:52:32.000Z</time><ele>1109.2</ele></trkpt><trkpt lat="45.837742" lon="9.436827"><time>2024-03-23T09:52:33.000Z</time><ele>1109.6</ele></trkpt><trkpt lat="45.837742" lon="9.436827"><time>2024-03-23T09:52:34.000Z</time><ele>1109.8</ele></trkpt><trkpt lat="45.837742" lon="9.436828"><time>2024-03-23T09:52:35.000Z</time><ele>1110</ele></trkpt><trkpt lat="45.837742" lon="9.436828"><time>2024-03-23T09:52:36.000Z</time><ele>1110.2</ele></trkpt><trkpt lat="45.837742" lon="9.436829"><time>2024-03-23T09:52:37.000Z</time><ele>1110.4</ele></trkpt><trkpt lat="45.837742" lon="9.436829"><time>2024-03-23T09:52:38.000Z</time><ele>1110.6</ele></trkpt><trkpt lat="45.837742" lon="9.436829"><time>2024-03-23T09:52:39.000Z</time><ele>1110.6</ele></trkpt><trkpt lat="45.837742" lon="9.43683"><time>2024-03-23T09:52:40.000Z</time><ele>1111</ele></trkpt><trkpt lat="45.837742" lon="9.43683"><time>2024-03-23T09:52:41.000Z</time><ele>1111.2</ele></trkpt><trkpt lat="45.837742" lon="9.436831"><time>2024-03-23T09:52:42.000Z</time><ele>1111.4</ele></trkpt><trkpt lat="45.837742" lon="9.436831"><time>2024-03-23T09:52:43.000Z</time><ele>1111.6</ele></trkpt><trkpt lat="45.837742" lon="9.436831"><time>2024-03-23T09:52:44.000Z</time><ele>1111.8</ele></trkpt><trkpt lat="45.837742" lon="9.436832"><time>2024-03-23T09:52:45.000Z</time><ele>1112</ele></trkpt><trkpt lat="45.837742" lon="9.436832"><time>2024-03-23T09:52:46.000Z</time><ele>1112.2</ele></trkpt><trkpt lat="45.837742" lon="9.436833"><time>2024-03-23T09:52:47.000Z</time><ele>1112.2</ele></trkpt><trkpt lat="45.837742" lon="9.436833"><time>2024-03-23T09:52:48.000Z</time><ele>1112.4</ele></trkpt><trkpt lat="45.837742" lon="9.436834"><time>2024-03-23T09:52:49.000Z</time><ele>1112.6</ele></trkpt><trkpt lat="45.837742" lon="9.436834"><time>2024-03-23T09:52:50.000Z</time><ele>1112.8</ele></trkpt><trkpt lat="45.837742" lon="9.436835"><time>2024-03-23T09:52:51.000Z</time><ele>1112.8</ele></trkpt><trkpt lat="45.837742" lon="9.436835"><time>2024-03-23T09:52:52.000Z</time><ele>1113</ele></trkpt><trkpt lat="45.837742" lon="9.436836"><time>2024-03-23T09:52:53.000Z</time><ele>1113</ele></trkpt><trkpt lat="45.837742" lon="9.436836"><time>2024-03-23T09:52:54.000Z</time><ele>1113.2</ele></trkpt><trkpt lat="45.837742" lon="9.436837"><time>2024-03-23T09:52:55.000Z</time><ele>1113.2</ele></trkpt><trkpt lat="45.837742" lon="9.436837"><time>2024-03-23T09:52:56.000Z</time><ele>1113.4</ele></trkpt><trkpt lat="45.837742" lon="9.436838"><time>2024-03-23T09:52:57.000Z</time><ele>1113.8</ele></trkpt><trkpt lat="45.837742" lon="9.436838"><time>2024-03-23T09:52:58.000Z</time><ele>1114</ele></trkpt><trkpt lat="45.837742" lon="9.436839"><time>2024-03-23T09:52:59.000Z</time><ele>1114.2</ele></trkpt><trkpt lat="45.837742" lon="9.436839"><time>2024-03-23T09:53:00.000Z</time><ele>1114.2</ele></trkpt><trkpt lat="45.837742" lon="9.43684"><time>2024-03-23T09:53:01.000Z</time><ele>1114.6</ele></trkpt><trkpt lat="45.837742" lon="9.43684"><time>2024-03-23T09:53:02.000Z</time><ele>1114.6</ele></trkpt><trkpt lat="45.837743" lon="9.436841"><time>2024-03-23T09:53:03.000Z</time><ele>1114.8</ele></trkpt><trkpt lat="45.837743" lon="9.436841"><time>2024-03-23T09:53:04.000Z</time><ele>1115.2</ele></trkpt><trkpt lat="45.837743" lon="9.436842"><time>2024-03-23T09:53:05.000Z</time><ele>1115.2</ele></trkpt><trkpt lat="45.837743" lon="9.436842"><time>2024-03-23T09:53:06.000Z</time><ele>1115.4</ele></trkpt><trkpt lat="45.837743" lon="9.436843"><time>2024-03-23T09:53:07.000Z</time><ele>1115.6</ele></trkpt><trkpt lat="45.837743" lon="9.436843"><time>2024-03-23T09:53:08.000Z</time><ele>1115.6</ele></trkpt><trkpt lat="45.837743" lon="9.436844"><time>2024-03-23T09:53:09.000Z</time><ele>1115.6</ele></trkpt><trkpt lat="45.837743" lon="9.436844"><time>2024-03-23T09:53:10.000Z</time><ele>1115.8</ele></trkpt><trkpt lat="45.837743" lon="9.436845"><time>2024-03-23T09:53:11.000Z</time><ele>1116</ele></trkpt><trkpt lat="45.837743" lon="9.436846"><time>2024-03-23T09:53:12.000Z</time><ele>1116.2</ele></trkpt><trkpt lat="45.837743" lon="9.436846"><time>2024-03-23T09:53:13.000Z</time><ele>1116.6</ele></trkpt><trkpt lat="45.837743" lon="9.436847"><time>2024-03-23T09:53:14.000Z</time><ele>1116.8</ele></trkpt><trkpt lat="45.837743" lon="9.436847"><time>2024-03-23T09:53:15.000Z</time><ele>1117</ele></trkpt><trkpt lat="45.837743" lon="9.436848"><time>2024-03-23T09:53:16.000Z</time><ele>1117</ele></trkpt><trkpt lat="45.837743" lon="9.436849"><time>2024-03-23T09:53:17.000Z</time><ele>1117</ele></trkpt><trkpt lat="45.837743" lon="9.436849"><time>2024-03-23T09:53:18.000Z</time><ele>1117</ele></trkpt><trkpt lat="45.837743" lon="9.43685"><time>2024-03-23T09:53:19.000Z</time><ele>1117</ele></trkpt><trkpt lat="45.837743" lon="9.43685"><time>2024-03-23T09:53:20.000Z</time><ele>1117.4</ele></trkpt><trkpt lat="45.837744" lon="9.436851"><time>2024-03-23T09:53:21.000Z</time><ele>1117.4</ele></trkpt><trkpt lat="45.837744" lon="9.436851"><time>2024-03-23T09:53:22.000Z</time><ele>1117.6</ele></trkpt><trkpt lat="45.837744" lon="9.436852"><time>2024-03-23T09:53:23.000Z</time><ele>1118</ele></trkpt><trkpt lat="45.837744" lon="9.436852"><time>2024-03-23T09:53:24.000Z</time><ele>1118.2</ele></trkpt><trkpt lat="45.837744" lon="9.436853"><time>2024-03-23T09:53:25.000Z</time><ele>1118.4</ele></trkpt><trkpt lat="45.837744" lon="9.436853"><time>2024-03-23T09:53:26.000Z</time><ele>1118.4</ele></trkpt><trkpt lat="45.837744" lon="9.436854"><time>2024-03-23T09:53:27.000Z</time><ele>1118.6</ele></trkpt><trkpt lat="45.837745" lon="9.436854"><time>2024-03-23T09:53:28.000Z</time><ele>1118.8</ele></trkpt><trkpt lat="45.837745" lon="9.436855"><time>2024-03-23T09:53:29.000Z</time><ele>1118.8</ele></trkpt><trkpt lat="45.837745" lon="9.436855"><time>2024-03-23T09:53:30.000Z</time><ele>1119</ele></trkpt><trkpt lat="45.837745" lon="9.436856"><time>2024-03-23T09:53:31.000Z</time><ele>1119</ele></trkpt><trkpt lat="45.837745" lon="9.436857"><time>2024-03-23T09:53:32.000Z</time><ele>1119</ele></trkpt><trkpt lat="45.837745" lon="9.436857"><time>2024-03-23T09:53:33.000Z</time><ele>1119</ele></trkpt><trkpt lat="45.837745" lon="9.436858"><time>2024-03-23T09:53:34.000Z</time><ele>1119.2</ele></trkpt><trkpt lat="45.837745" lon="9.436859"><time>2024-03-23T09:53:35.000Z</time><ele>1119.4</ele></trkpt><trkpt lat="45.837745" lon="9.436859"><time>2024-03-23T09:53:36.000Z</time><ele>1119.6</ele></trkpt><trkpt lat="45.837746" lon="9.43686"><time>2024-03-23T09:53:37.000Z</time><ele>1119.6</ele></trkpt><trkpt lat="45.837746" lon="9.43686"><time>2024-03-23T09:53:38.000Z</time><ele>1119.8</ele></trkpt><trkpt lat="45.837746" lon="9.436861"><time>2024-03-23T09:53:39.000Z</time><ele>1119.8</ele></trkpt><trkpt lat="45.837746" lon="9.436861"><time>2024-03-23T09:53:40.000Z</time><ele>1119.8</ele></trkpt><trkpt lat="45.837746" lon="9.436862"><time>2024-03-23T09:53:41.000Z</time><ele>1119.8</ele></trkpt><trkpt lat="45.837746" lon="9.436863"><time>2024-03-23T09:53:42.000Z</time><ele>1120</ele></trkpt><trkpt lat="45.837746" lon="9.436863"><time>2024-03-23T09:53:43.000Z</time><ele>1120</ele></trkpt><trkpt lat="45.837746" lon="9.436864"><time>2024-03-23T09:53:44.000Z</time><ele>1120.2</ele></trkpt><trkpt lat="45.837747" lon="9.436865"><time>2024-03-23T09:53:45.000Z</time><ele>1120.2</ele></trkpt><trkpt lat="45.837747" lon="9.436865"><time>2024-03-23T09:53:46.000Z</time><ele>1120.4</ele></trkpt><trkpt lat="45.837747" lon="9.436866"><time>2024-03-23T09:53:47.000Z</time><ele>1120.6</ele></trkpt><trkpt lat="45.837747" lon="9.436866"><time>2024-03-23T09:53:48.000Z</time><ele>1120.8</ele></trkpt><trkpt lat="45.837747" lon="9.436867"><time>2024-03-23T09:53:49.000Z</time><ele>1121</ele></trkpt><trkpt lat="45.837747" lon="9.436867"><time>2024-03-23T09:53:50.000Z</time><ele>1121.2</ele></trkpt><trkpt lat="45.837748" lon="9.436868"><time>2024-03-23T09:53:51.000Z</time><ele>1121.2</ele></trkpt><trkpt lat="45.837748" lon="9.436869"><time>2024-03-23T09:53:52.000Z</time><ele>1121.2</ele></trkpt><trkpt lat="45.837748" lon="9.436869"><time>2024-03-23T09:53:53.000Z</time><ele>1121.2</ele></trkpt><trkpt lat="45.837748" lon="9.43687"><time>2024-03-23T09:53:54.000Z</time><ele>1121.4</ele></trkpt><trkpt lat="45.837748" lon="9.43687"><time>2024-03-23T09:53:55.000Z</time><ele>1121.4</ele></trkpt><trkpt lat="45.837749" lon="9.436871"><time>2024-03-23T09:53:56.000Z</time><ele>1121.6</ele></trkpt><trkpt lat="45.837749" lon="9.436872"><time>2024-03-23T09:53:57.000Z</time><ele>1121.6</ele></trkpt><trkpt lat="45.837749" lon="9.436873"><time>2024-03-23T09:53:58.000Z</time><ele>1122</ele></trkpt><trkpt lat="45.837749" lon="9.436873"><time>2024-03-23T09:53:59.000Z</time><ele>1122</ele></trkpt><trkpt lat="45.837749" lon="9.436874"><time>2024-03-23T09:54:00.000Z</time><ele>1122.2</ele></trkpt><trkpt lat="45.837749" lon="9.436875"><time>2024-03-23T09:54:01.000Z</time><ele>1122.4</ele></trkpt><trkpt lat="45.837749" lon="9.436875"><time>2024-03-23T09:54:02.000Z</time><ele>1122.4</ele></trkpt><trkpt lat="45.837749" lon="9.436876"><time>2024-03-23T09:54:03.000Z</time><ele>1122.6</ele></trkpt><trkpt lat="45.837749" lon="9.436877"><time>2024-03-23T09:54:04.000Z</time><ele>1122.6</ele></trkpt><trkpt lat="45.83775" lon="9.436877"><time>2024-03-23T09:54:05.000Z</time><ele>1122.8</ele></trkpt><trkpt lat="45.83775" lon="9.436878"><time>2024-03-23T09:54:06.000Z</time><ele>1123</ele></trkpt><trkpt lat="45.83775" lon="9.436879"><time>2024-03-23T09:54:07.000Z</time><ele>1123</ele></trkpt><trkpt lat="45.83775" lon="9.436879"><time>2024-03-23T09:54:08.000Z</time><ele>1123.2</ele></trkpt><trkpt lat="45.837751" lon="9.43688"><time>2024-03-23T09:54:09.000Z</time><ele>1123.2</ele></trkpt><trkpt lat="45.837751" lon="9.436881"><time>2024-03-23T09:54:10.000Z</time><ele>1123.4</ele></trkpt><trkpt lat="45.837751" lon="9.436881"><time>2024-03-23T09:54:11.000Z</time><ele>1123.6</ele></trkpt><trkpt lat="45.837751" lon="9.436882"><time>2024-03-23T09:54:12.000Z</time><ele>1123.8</ele></trkpt><trkpt lat="45.837751" lon="9.436883"><time>2024-03-23T09:54:13.000Z</time><ele>1124</ele></trkpt><trkpt lat="45.837751" lon="9.436883"><time>2024-03-23T09:54:14.000Z</time><ele>1124</ele></trkpt><trkpt lat="45.837752" lon="9.436884"><time>2024-03-23T09:54:15.000Z</time><ele>1124.2</ele></trkpt><trkpt lat="45.837752" lon="9.436885"><time>2024-03-23T09:54:16.000Z</time><ele>1124.4</ele></trkpt><trkpt lat="45.837752" lon="9.436886"><time>2024-03-23T09:54:17.000Z</time><ele>1124.4</ele></trkpt><trkpt lat="45.837752" lon="9.436887"><time>2024-03-23T09:54:18.000Z</time><ele>1124.6</ele></trkpt><trkpt lat="45.837752" lon="9.436887"><time>2024-03-23T09:54:19.000Z</time><ele>1124.6</ele></trkpt><trkpt lat="45.837753" lon="9.436888"><time>2024-03-23T09:54:20.000Z</time><ele>1124.8</ele></trkpt><trkpt lat="45.837753" lon="9.436889"><time>2024-03-23T09:54:21.000Z</time><ele>1124.8</ele></trkpt><trkpt lat="45.837753" lon="9.43689"><time>2024-03-23T09:54:22.000Z</time><ele>1125</ele></trkpt><trkpt lat="45.837753" lon="9.436891"><time>2024-03-23T09:54:23.000Z</time><ele>1125.4</ele></trkpt><trkpt lat="45.837753" lon="9.436891"><time>2024-03-23T09:54:24.000Z</time><ele>1125.6</ele></trkpt><trkpt lat="45.837754" lon="9.436892"><time>2024-03-23T09:54:25.000Z</time><ele>1125.8</ele></trkpt><trkpt lat="45.837754" lon="9.436893"><time>2024-03-23T09:54:26.000Z</time><ele>1125.8</ele></trkpt><trkpt lat="45.837754" lon="9.436894"><time>2024-03-23T09:54:27.000Z</time><ele>1125.8</ele></trkpt><trkpt lat="45.837754" lon="9.436895"><time>2024-03-23T09:54:28.000Z</time><ele>1126</ele></trkpt><trkpt lat="45.837754" lon="9.436895"><time>2024-03-23T09:54:29.000Z</time><ele>1126.2</ele></trkpt><trkpt lat="45.837755" lon="9.436896"><time>2024-03-23T09:54:30.000Z</time><ele>1126.2</ele></trkpt><trkpt lat="45.837755" lon="9.436897"><time>2024-03-23T09:54:31.000Z</time><ele>1126.6</ele></trkpt><trkpt lat="45.837755" lon="9.436898"><time>2024-03-23T09:54:32.000Z</time><ele>1126.6</ele></trkpt><trkpt lat="45.837755" lon="9.436899"><time>2024-03-23T09:54:33.000Z</time><ele>1126.8</ele></trkpt><trkpt lat="45.837755" lon="9.4369"><time>2024-03-23T09:54:34.000Z</time><ele>1127</ele></trkpt><trkpt lat="45.837756" lon="9.4369"><time>2024-03-23T09:54:35.000Z</time><ele>1127.2</ele></trkpt><trkpt lat="45.837756" lon="9.436901"><time>2024-03-23T09:54:36.000Z</time><ele>1127.4</ele></trkpt><trkpt lat="45.837756" lon="9.436902"><time>2024-03-23T09:54:37.000Z</time><ele>1127.4</ele></trkpt><trkpt lat="45.837756" lon="9.436903"><time>2024-03-23T09:54:38.000Z</time><ele>1127.6</ele></trkpt><trkpt lat="45.837756" lon="9.436904"><time>2024-03-23T09:54:39.000Z</time><ele>1127.6</ele></trkpt><trkpt lat="45.837757" lon="9.436905"><time>2024-03-23T09:54:40.000Z</time><ele>1127.8</ele></trkpt><trkpt lat="45.837757" lon="9.436905"><time>2024-03-23T09:54:41.000Z</time><ele>1127.8</ele></trkpt><trkpt lat="45.837757" lon="9.436906"><time>2024-03-23T09:54:42.000Z</time><ele>1128.2</ele></trkpt><trkpt lat="45.837757" lon="9.436907"><time>2024-03-23T09:54:43.000Z</time><ele>1128.2</ele></trkpt><trkpt lat="45.837757" lon="9.436908"><time>2024-03-23T09:54:44.000Z</time><ele>1128.4</ele></trkpt><trkpt lat="45.837758" lon="9.436909"><time>2024-03-23T09:54:45.000Z</time><ele>1128.4</ele></trkpt><trkpt lat="45.837758" lon="9.43691"><time>2024-03-23T09:54:46.000Z</time><ele>1128.4</ele></trkpt><trkpt lat="45.837758" lon="9.436911"><time>2024-03-23T09:54:47.000Z</time><ele>1128.6</ele></trkpt><trkpt lat="45.837758" lon="9.436911"><time>2024-03-23T09:54:48.000Z</time><ele>1128.6</ele></trkpt><trkpt lat="45.837759" lon="9.436912"><time>2024-03-23T09:54:49.000Z</time><ele>1128.8</ele></trkpt><trkpt lat="45.837759" lon="9.436913"><time>2024-03-23T09:54:50.000Z</time><ele>1129</ele></trkpt><trkpt lat="45.837759" lon="9.436914"><time>2024-03-23T09:54:51.000Z</time><ele>1129.4</ele></trkpt><trkpt lat="45.837759" lon="9.436915"><time>2024-03-23T09:54:52.000Z</time><ele>1129.4</ele></trkpt><trkpt lat="45.83776" lon="9.436916"><time>2024-03-23T09:54:53.000Z</time><ele>1129.4</ele></trkpt><trkpt lat="45.83776" lon="9.436917"><time>2024-03-23T09:54:54.000Z</time><ele>1129.6</ele></trkpt><trkpt lat="45.83776" lon="9.436917"><time>2024-03-23T09:54:55.000Z</time><ele>1129.6</ele></trkpt><trkpt lat="45.83776" lon="9.436918"><time>2024-03-23T09:54:56.000Z</time><ele>1129.8</ele></trkpt><trkpt lat="45.837761" lon="9.436919"><time>2024-03-23T09:54:57.000Z</time><ele>1129.8</ele></trkpt><trkpt lat="45.837761" lon="9.43692"><time>2024-03-23T09:54:58.000Z</time><ele>1130.2</ele></trkpt><trkpt lat="45.837761" lon="9.436921"><time>2024-03-23T09:54:59.000Z</time><ele>1130.4</ele></trkpt><trkpt lat="45.837761" lon="9.436922"><time>2024-03-23T09:55:00.000Z</time><ele>1130.6</ele></trkpt><trkpt lat="45.837762" lon="9.436923"><time>2024-03-23T09:55:01.000Z</time><ele>1130.6</ele></trkpt><trkpt lat="45.837762" lon="9.436924"><time>2024-03-23T09:55:02.000Z</time><ele>1130.6</ele></trkpt><trkpt lat="45.837762" lon="9.436924"><time>2024-03-23T09:55:03.000Z</time><ele>1130.6</ele></trkpt><trkpt lat="45.837762" lon="9.436925"><time>2024-03-23T09:55:04.000Z</time><ele>1130.6</ele></trkpt><trkpt lat="45.837762" lon="9.436926"><time>2024-03-23T09:55:05.000Z</time><ele>1130.6</ele></trkpt><trkpt lat="45.837763" lon="9.436927"><time>2024-03-23T09:55:06.000Z</time><ele>1130.6</ele></trkpt><trkpt lat="45.837763" lon="9.436928"><time>2024-03-23T09:55:07.000Z</time><ele>1130.6</ele></trkpt><trkpt lat="45.837763" lon="9.436929"><time>2024-03-23T09:55:08.000Z</time><ele>1130.6</ele></trkpt><trkpt lat="45.837763" lon="9.43693"><time>2024-03-23T09:55:09.000Z</time><ele>1130.6</ele></trkpt><trkpt lat="45.837763" lon="9.43693"><time>2024-03-23T09:55:10.000Z</time><ele>1130.6</ele></trkpt><trkpt lat="45.837764" lon="9.436931"><time>2024-03-23T09:55:11.000Z</time><ele>1130.6</ele></trkpt><trkpt lat="45.837764" lon="9.436932"><time>2024-03-23T09:55:12.000Z</time><ele>1130.6</ele></trkpt><trkpt lat="45.837765" lon="9.436933"><time>2024-03-23T09:55:13.000Z</time><ele>1130.6</ele></trkpt><trkpt lat="45.837765" lon="9.436934"><time>2024-03-23T09:55:14.000Z</time><ele>1130.8</ele></trkpt><trkpt lat="45.837765" lon="9.436935"><time>2024-03-23T09:55:15.000Z</time><ele>1130.8</ele></trkpt><trkpt lat="45.837765" lon="9.436936"><time>2024-03-23T09:55:16.000Z</time><ele>1130.8</ele></trkpt><trkpt lat="45.837766" lon="9.436936"><time>2024-03-23T09:55:17.000Z</time><ele>1130.8</ele></trkpt><trkpt lat="45.837766" lon="9.436937"><time>2024-03-23T09:55:18.000Z</time><ele>1130.8</ele></trkpt><trkpt lat="45.837766" lon="9.436938"><time>2024-03-23T09:55:19.000Z</time><ele>1131</ele></trkpt><trkpt lat="45.837766" lon="9.436939"><time>2024-03-23T09:55:20.000Z</time><ele>1131</ele></trkpt><trkpt lat="45.837766" lon="9.43694"><time>2024-03-23T09:55:21.000Z</time><ele>1131</ele></trkpt><trkpt lat="45.837766" lon="9.436941"><time>2024-03-23T09:55:22.000Z</time><ele>1131</ele></trkpt><trkpt lat="45.837767" lon="9.436942"><time>2024-03-23T09:55:23.000Z</time><ele>1131</ele></trkpt><trkpt lat="45.837767" lon="9.436943"><time>2024-03-23T09:55:24.000Z</time><ele>1131.2</ele></trkpt><trkpt lat="45.837767" lon="9.436944"><time>2024-03-23T09:55:25.000Z</time><ele>1131.2</ele></trkpt><trkpt lat="45.837767" lon="9.436945"><time>2024-03-23T09:55:26.000Z</time><ele>1131.4</ele></trkpt><trkpt lat="45.837768" lon="9.436946"><time>2024-03-23T09:55:27.000Z</time><ele>1131.4</ele></trkpt><trkpt lat="45.837768" lon="9.436947"><time>2024-03-23T09:55:28.000Z</time><ele>1131.8</ele></trkpt><trkpt lat="45.837768" lon="9.436948"><time>2024-03-23T09:55:29.000Z</time><ele>1132.4</ele></trkpt><trkpt lat="45.837768" lon="9.436949"><time>2024-03-23T09:55:30.000Z</time><ele>1132.6</ele></trkpt><trkpt lat="45.837768" lon="9.43695"><time>2024-03-23T09:55:31.000Z</time><ele>1132.8</ele></trkpt><trkpt lat="45.837769" lon="9.43695"><time>2024-03-23T09:55:32.000Z</time><ele>1133</ele></trkpt><trkpt lat="45.837769" lon="9.436951"><time>2024-03-23T09:55:33.000Z</time><ele>1133</ele></trkpt><trkpt lat="45.837769" lon="9.436952"><time>2024-03-23T09:55:34.000Z</time><ele>1133.2</ele></trkpt><trkpt lat="45.837769" lon="9.436953"><time>2024-03-23T09:55:35.000Z</time><ele>1133.4</ele></trkpt><trkpt lat="45.83777" lon="9.436954"><time>2024-03-23T09:55:36.000Z</time><ele>1133.4</ele></trkpt><trkpt lat="45.83777" lon="9.436955"><time>2024-03-23T09:55:37.000Z</time><ele>1133.4</ele></trkpt><trkpt lat="45.83777" lon="9.436956"><time>2024-03-23T09:55:38.000Z</time><ele>1133.6</ele></trkpt><trkpt lat="45.83777" lon="9.436957"><time>2024-03-23T09:55:39.000Z</time><ele>1133.6</ele></trkpt><trkpt lat="45.837771" lon="9.436958"><time>2024-03-23T09:55:40.000Z</time><ele>1134</ele></trkpt><trkpt lat="45.837771" lon="9.436959"><time>2024-03-23T09:55:41.000Z</time><ele>1134.2</ele></trkpt><trkpt lat="45.837771" lon="9.43696"><time>2024-03-23T09:55:42.000Z</time><ele>1134.2</ele></trkpt><trkpt lat="45.837772" lon="9.436961"><time>2024-03-23T09:55:43.000Z</time><ele>1134.4</ele></trkpt><trkpt lat="45.837772" lon="9.436962"><time>2024-03-23T09:55:44.000Z</time><ele>1134.6</ele></trkpt><trkpt lat="45.837772" lon="9.436963"><time>2024-03-23T09:55:45.000Z</time><ele>1134.6</ele></trkpt><trkpt lat="45.837772" lon="9.436964"><time>2024-03-23T09:55:46.000Z</time><ele>1134.6</ele></trkpt><trkpt lat="45.837773" lon="9.436965"><time>2024-03-23T09:55:47.000Z</time><ele>1134.6</ele></trkpt><trkpt lat="45.837773" lon="9.436966"><time>2024-03-23T09:55:48.000Z</time><ele>1134.8</ele></trkpt><trkpt lat="45.837773" lon="9.436967"><time>2024-03-23T09:55:49.000Z</time><ele>1135</ele></trkpt><trkpt lat="45.837773" lon="9.436968"><time>2024-03-23T09:55:50.000Z</time><ele>1135.4</ele></trkpt><trkpt lat="45.837774" lon="9.436969"><time>2024-03-23T09:55:51.000Z</time><ele>1135.6</ele></trkpt><trkpt lat="45.837774" lon="9.43697"><time>2024-03-23T09:55:52.000Z</time><ele>1135.8</ele></trkpt><trkpt lat="45.837774" lon="9.436971"><time>2024-03-23T09:55:53.000Z</time><ele>1135.8</ele></trkpt><trkpt lat="45.837774" lon="9.436972"><time>2024-03-23T09:55:54.000Z</time><ele>1136</ele></trkpt><trkpt lat="45.837775" lon="9.436973"><time>2024-03-23T09:55:55.000Z</time><ele>1136.2</ele></trkpt><trkpt lat="45.837775" lon="9.436974"><time>2024-03-23T09:55:56.000Z</time><ele>1136.6</ele></trkpt><trkpt lat="45.837775" lon="9.436975"><time>2024-03-23T09:55:57.000Z</time><ele>1136.8</ele></trkpt><trkpt lat="45.837776" lon="9.436976"><time>2024-03-23T09:55:58.000Z</time><ele>1137</ele></trkpt><trkpt lat="45.837776" lon="9.436977"><time>2024-03-23T09:55:59.000Z</time><ele>1137</ele></trkpt><trkpt lat="45.837776" lon="9.436978"><time>2024-03-23T09:56:00.000Z</time><ele>1137.2</ele></trkpt><trkpt lat="45.837776" lon="9.436979"><time>2024-03-23T09:56:01.000Z</time><ele>1137.4</ele></trkpt><trkpt lat="45.837777" lon="9.43698"><time>2024-03-23T09:56:02.000Z</time><ele>1137.6</ele></trkpt><trkpt lat="45.837777" lon="9.43698"><time>2024-03-23T09:56:03.000Z</time><ele>1137.6</ele></trkpt><trkpt lat="45.837778" lon="9.436981"><time>2024-03-23T09:56:04.000Z</time><ele>1137.8</ele></trkpt><trkpt lat="45.837778" lon="9.436982"><time>2024-03-23T09:56:05.000Z</time><ele>1138</ele></trkpt><trkpt lat="45.837778" lon="9.436983"><time>2024-03-23T09:56:06.000Z</time><ele>1138.2</ele></trkpt><trkpt lat="45.837778" lon="9.436984"><time>2024-03-23T09:56:07.000Z</time><ele>1138.4</ele></trkpt><trkpt lat="45.837779" lon="9.436985"><time>2024-03-23T09:56:08.000Z</time><ele>1138.6</ele></trkpt><trkpt lat="45.837779" lon="9.436986"><time>2024-03-23T09:56:09.000Z</time><ele>1138.6</ele></trkpt><trkpt lat="45.837779" lon="9.436987"><time>2024-03-23T09:56:10.000Z</time><ele>1138.6</ele></trkpt><trkpt lat="45.837779" lon="9.436988"><time>2024-03-23T09:56:11.000Z</time><ele>1138.8</ele></trkpt><trkpt lat="45.83778" lon="9.436989"><time>2024-03-23T09:56:12.000Z</time><ele>1139</ele></trkpt><trkpt lat="45.83778" lon="9.43699"><time>2024-03-23T09:56:13.000Z</time><ele>1139.2</ele></trkpt><trkpt lat="45.83778" lon="9.436991"><time>2024-03-23T09:56:14.000Z</time><ele>1139.4</ele></trkpt><trkpt lat="45.83778" lon="9.436992"><time>2024-03-23T09:56:15.000Z</time><ele>1139.4</ele></trkpt><trkpt lat="45.837781" lon="9.436994"><time>2024-03-23T09:56:16.000Z</time><ele>1139.6</ele></trkpt><trkpt lat="45.837781" lon="9.436995"><time>2024-03-23T09:56:17.000Z</time><ele>1139.6</ele></trkpt><trkpt lat="45.837781" lon="9.436996"><time>2024-03-23T09:56:18.000Z</time><ele>1139.6</ele></trkpt><trkpt lat="45.837782" lon="9.436997"><time>2024-03-23T09:56:19.000Z</time><ele>1139.8</ele></trkpt><trkpt lat="45.837807" lon="9.437086"><time>2024-03-23T09:56:20.000Z</time><ele>1140</ele></trkpt><trkpt lat="45.837834" lon="9.437181"><time>2024-03-23T09:56:21.000Z</time><ele>1140.2</ele></trkpt><trkpt lat="45.837862" lon="9.437273"><time>2024-03-23T09:56:22.000Z</time><ele>1140.4</ele></trkpt><trkpt lat="45.837892" lon="9.437368"><time>2024-03-23T09:56:23.000Z</time><ele>1140.6</ele></trkpt><trkpt lat="45.837922" lon="9.437461"><time>2024-03-23T09:56:24.000Z</time><ele>1140.6</ele></trkpt><trkpt lat="45.837951" lon="9.437551"><time>2024-03-23T09:56:25.000Z</time><ele>1141</ele></trkpt><trkpt lat="45.83798" lon="9.43764"><time>2024-03-23T09:56:26.000Z</time><ele>1141.2</ele></trkpt><trkpt lat="45.838009" lon="9.437729"><time>2024-03-23T09:56:27.000Z</time><ele>1141.4</ele></trkpt><trkpt lat="45.838037" lon="9.437819"><time>2024-03-23T09:56:28.000Z</time><ele>1141.6</ele></trkpt><trkpt lat="45.838065" lon="9.437909"><time>2024-03-23T09:56:29.000Z</time><ele>1141.8</ele></trkpt><trkpt lat="45.838068" lon="9.437908"><time>2024-03-23T09:56:30.000Z</time><ele>1142</ele></trkpt><trkpt lat="45.838072" lon="9.437908"><time>2024-03-23T09:56:31.000Z</time><ele>1142.2</ele></trkpt><trkpt lat="45.838074" lon="9.437909"><time>2024-03-23T09:56:32.000Z</time><ele>1142.2</ele></trkpt><trkpt lat="45.838075" lon="9.43791"><time>2024-03-23T09:56:33.000Z</time><ele>1142.6</ele></trkpt><trkpt lat="45.838075" lon="9.437914"><time>2024-03-23T09:56:34.000Z</time><ele>1142.8</ele></trkpt><trkpt lat="45.838075" lon="9.437918"><time>2024-03-23T09:56:35.000Z</time><ele>1143</ele></trkpt><trkpt lat="45.838073" lon="9.43792"><time>2024-03-23T09:56:36.000Z</time><ele>1143</ele></trkpt><trkpt lat="45.838074" lon="9.437924"><time>2024-03-23T09:56:37.000Z</time><ele>1143.2</ele></trkpt><trkpt lat="45.838074" lon="9.437933"><time>2024-03-23T09:56:38.000Z</time><ele>1143.2</ele></trkpt><trkpt lat="45.838074" lon="9.437939"><time>2024-03-23T09:56:39.000Z</time><ele>1143.2</ele></trkpt><trkpt lat="45.838073" lon="9.437944"><time>2024-03-23T09:56:40.000Z</time><ele>1143.4</ele></trkpt><trkpt lat="45.838074" lon="9.43795"><time>2024-03-23T09:56:41.000Z</time><ele>1143.8</ele></trkpt><trkpt lat="45.838073" lon="9.437959"><time>2024-03-23T09:56:42.000Z</time><ele>1143.8</ele></trkpt><trkpt lat="45.838076" lon="9.437968"><time>2024-03-23T09:56:43.000Z</time><ele>1144</ele></trkpt><trkpt lat="45.838077" lon="9.437977"><time>2024-03-23T09:56:44.000Z</time><ele>1144</ele></trkpt><trkpt lat="45.838075" lon="9.437985"><time>2024-03-23T09:56:45.000Z</time><ele>1144</ele></trkpt><trkpt lat="45.838073" lon="9.437992"><time>2024-03-23T09:56:46.000Z</time><ele>1144.2</ele></trkpt><trkpt lat="45.838071" lon="9.438001"><time>2024-03-23T09:56:47.000Z</time><ele>1144.2</ele></trkpt><trkpt lat="45.838069" lon="9.438012"><time>2024-03-23T09:56:48.000Z</time><ele>1144.2</ele></trkpt><trkpt lat="45.838067" lon="9.438022"><time>2024-03-23T09:56:49.000Z</time><ele>1144.4</ele></trkpt><trkpt lat="45.838066" lon="9.438032"><time>2024-03-23T09:56:50.000Z</time><ele>1144.4</ele></trkpt><trkpt lat="45.838066" lon="9.438045"><time>2024-03-23T09:56:51.000Z</time><ele>1144.6</ele></trkpt><trkpt lat="45.838067" lon="9.438052"><time>2024-03-23T09:56:52.000Z</time><ele>1144.6</ele></trkpt><trkpt lat="45.83807" lon="9.438058"><time>2024-03-23T09:56:53.000Z</time><ele>1145</ele></trkpt><trkpt lat="45.838073" lon="9.438061"><time>2024-03-23T09:56:54.000Z</time><ele>1145.2</ele></trkpt><trkpt lat="45.838074" lon="9.438066"><time>2024-03-23T09:56:55.000Z</time><ele>1145.4</ele></trkpt><trkpt lat="45.838076" lon="9.438072"><time>2024-03-23T09:56:56.000Z</time><ele>1145.6</ele></trkpt><trkpt lat="45.838076" lon="9.438076"><time>2024-03-23T09:56:57.000Z</time><ele>1145.6</ele></trkpt><trkpt lat="45.838076" lon="9.438082"><time>2024-03-23T09:56:58.000Z</time><ele>1145.8</ele></trkpt><trkpt lat="45.838078" lon="9.438089"><time>2024-03-23T09:56:59.000Z</time><ele>1146</ele></trkpt><trkpt lat="45.83808" lon="9.438096"><time>2024-03-23T09:57:00.000Z</time><ele>1146</ele></trkpt><trkpt lat="45.838085" lon="9.438103"><time>2024-03-23T09:57:01.000Z</time><ele>1146</ele></trkpt><trkpt lat="45.838089" lon="9.438106"><time>2024-03-23T09:57:02.000Z</time><ele>1146.2</ele></trkpt><trkpt lat="45.838091" lon="9.438108"><time>2024-03-23T09:57:03.000Z</time><ele>1146.4</ele></trkpt><trkpt lat="45.838093" lon="9.438109"><time>2024-03-23T09:57:04.000Z</time><ele>1146.8</ele></trkpt><trkpt lat="45.838095" lon="9.438112"><time>2024-03-23T09:57:05.000Z</time><ele>1147</ele></trkpt><trkpt lat="45.838094" lon="9.438119"><time>2024-03-23T09:57:06.000Z</time><ele>1147.4</ele></trkpt><trkpt lat="45.838094" lon="9.438128"><time>2024-03-23T09:57:07.000Z</time><ele>1147.4</ele></trkpt><trkpt lat="45.838095" lon="9.438135"><time>2024-03-23T09:57:08.000Z</time><ele>1147.6</ele></trkpt><trkpt lat="45.838096" lon="9.438141"><time>2024-03-23T09:57:09.000Z</time><ele>1147.8</ele></trkpt><trkpt lat="45.838098" lon="9.438145"><time>2024-03-23T09:57:10.000Z</time><ele>1148</ele></trkpt><trkpt lat="45.8381" lon="9.438149"><time>2024-03-23T09:57:11.000Z</time><ele>1148.2</ele></trkpt><trkpt lat="45.8381" lon="9.43815"><time>2024-03-23T09:57:12.000Z</time><ele>1148.2</ele></trkpt><trkpt lat="45.838105" lon="9.438152"><time>2024-03-23T09:57:13.000Z</time><ele>1148.4</ele></trkpt><trkpt lat="45.838108" lon="9.438153"><time>2024-03-23T09:57:14.000Z</time><ele>1148.6</ele></trkpt><trkpt lat="45.838109" lon="9.438156"><time>2024-03-23T09:57:15.000Z</time><ele>1148.8</ele></trkpt><trkpt lat="45.838114" lon="9.438163"><time>2024-03-23T09:57:16.000Z</time><ele>1149</ele></trkpt><trkpt lat="45.838116" lon="9.438167"><time>2024-03-23T09:57:17.000Z</time><ele>1149.2</ele></trkpt><trkpt lat="45.838119" lon="9.43817"><time>2024-03-23T09:57:18.000Z</time><ele>1149.4</ele></trkpt><trkpt lat="45.838119" lon="9.438175"><time>2024-03-23T09:57:19.000Z</time><ele>1149.6</ele></trkpt><trkpt lat="45.838118" lon="9.438183"><time>2024-03-23T09:57:20.000Z</time><ele>1149.8</ele></trkpt><trkpt lat="45.838116" lon="9.438191"><time>2024-03-23T09:57:21.000Z</time><ele>1149.8</ele></trkpt><trkpt lat="45.838112" lon="9.4382"><time>2024-03-23T09:57:22.000Z</time><ele>1150</ele></trkpt><trkpt lat="45.838112" lon="9.438204"><time>2024-03-23T09:57:23.000Z</time><ele>1150.2</ele></trkpt><trkpt lat="45.838112" lon="9.43821"><time>2024-03-23T09:57:24.000Z</time><ele>1150.4</ele></trkpt><trkpt lat="45.838111" lon="9.438216"><time>2024-03-23T09:57:25.000Z</time><ele>1150.4</ele></trkpt><trkpt lat="45.838111" lon="9.438224"><time>2024-03-23T09:57:26.000Z</time><ele>1150.6</ele></trkpt><trkpt lat="45.838111" lon="9.438234"><time>2024-03-23T09:57:27.000Z</time><ele>1150.6</ele></trkpt><trkpt lat="45.838113" lon="9.438241"><time>2024-03-23T09:57:28.000Z</time><ele>1150.8</ele></trkpt><trkpt lat="45.838115" lon="9.438245"><time>2024-03-23T09:57:29.000Z</time><ele>1150.8</ele></trkpt><trkpt lat="45.838117" lon="9.438245"><time>2024-03-23T09:57:30.000Z</time><ele>1151</ele></trkpt><trkpt lat="45.838123" lon="9.438242"><time>2024-03-23T09:57:31.000Z</time><ele>1151.2</ele></trkpt><trkpt lat="45.838124" lon="9.438246"><time>2024-03-23T09:57:32.000Z</time><ele>1151.4</ele></trkpt><trkpt lat="45.838125" lon="9.438249"><time>2024-03-23T09:57:33.000Z</time><ele>1151.4</ele></trkpt><trkpt lat="45.838128" lon="9.438252"><time>2024-03-23T09:57:34.000Z</time><ele>1151.6</ele></trkpt><trkpt lat="45.838129" lon="9.438253"><time>2024-03-23T09:57:35.000Z</time><ele>1151.8</ele></trkpt><trkpt lat="45.838129" lon="9.438255"><time>2024-03-23T09:57:36.000Z</time><ele>1152</ele></trkpt><trkpt lat="45.838131" lon="9.438259"><time>2024-03-23T09:57:37.000Z</time><ele>1152.2</ele></trkpt><trkpt lat="45.838134" lon="9.438262"><time>2024-03-23T09:57:38.000Z</time><ele>1152.2</ele></trkpt><trkpt lat="45.838135" lon="9.438264"><time>2024-03-23T09:57:39.000Z</time><ele>1152.6</ele></trkpt><trkpt lat="45.838137" lon="9.438263"><time>2024-03-23T09:57:40.000Z</time><ele>1152.8</ele></trkpt><trkpt lat="45.83814" lon="9.438263"><time>2024-03-23T09:57:41.000Z</time><ele>1153</ele></trkpt><trkpt lat="45.838141" lon="9.438264"><time>2024-03-23T09:57:42.000Z</time><ele>1153</ele></trkpt><trkpt lat="45.838143" lon="9.438266"><time>2024-03-23T09:57:43.000Z</time><ele>1153.2</ele></trkpt><trkpt lat="45.838147" lon="9.438265"><time>2024-03-23T09:57:44.000Z</time><ele>1153.4</ele></trkpt><trkpt lat="45.83815" lon="9.438266"><time>2024-03-23T09:57:45.000Z</time><ele>1153.4</ele></trkpt><trkpt lat="45.838153" lon="9.43827"><time>2024-03-23T09:57:46.000Z</time><ele>1153.6</ele></trkpt><trkpt lat="45.838156" lon="9.438275"><time>2024-03-23T09:57:47.000Z</time><ele>1153.6</ele></trkpt><trkpt lat="45.838157" lon="9.438279"><time>2024-03-23T09:57:48.000Z</time><ele>1153.6</ele></trkpt><trkpt lat="45.838158" lon="9.438282"><time>2024-03-23T09:57:49.000Z</time><ele>1153.8</ele></trkpt><trkpt lat="45.838159" lon="9.438286"><time>2024-03-23T09:57:50.000Z</time><ele>1154</ele></trkpt><trkpt lat="45.83816" lon="9.438291"><time>2024-03-23T09:57:51.000Z</time><ele>1154.2</ele></trkpt><trkpt lat="45.83816" lon="9.438295"><time>2024-03-23T09:57:52.000Z</time><ele>1154.4</ele></trkpt><trkpt lat="45.83816" lon="9.438299"><time>2024-03-23T09:57:53.000Z</time><ele>1154.6</ele></trkpt><trkpt lat="45.838161" lon="9.438302"><time>2024-03-23T09:57:54.000Z</time><ele>1154.8</ele></trkpt><trkpt lat="45.838163" lon="9.438308"><time>2024-03-23T09:57:55.000Z</time><ele>1155</ele></trkpt><trkpt lat="45.838163" lon="9.438315"><time>2024-03-23T09:57:56.000Z</time><ele>1155.2</ele></trkpt><trkpt lat="45.838165" lon="9.438321"><time>2024-03-23T09:57:57.000Z</time><ele>1155.2</ele></trkpt><trkpt lat="45.838166" lon="9.438325"><time>2024-03-23T09:57:58.000Z</time><ele>1155.4</ele></trkpt><trkpt lat="45.838167" lon="9.43833"><time>2024-03-23T09:57:59.000Z</time><ele>1155.6</ele></trkpt><trkpt lat="45.838169" lon="9.438333"><time>2024-03-23T09:58:00.000Z</time><ele>1155.6</ele></trkpt><trkpt lat="45.838169" lon="9.438337"><time>2024-03-23T09:58:01.000Z</time><ele>1155.8</ele></trkpt><trkpt lat="45.838172" lon="9.438341"><time>2024-03-23T09:58:02.000Z</time><ele>1155.8</ele></trkpt><trkpt lat="45.838173" lon="9.438343"><time>2024-03-23T09:58:03.000Z</time><ele>1156</ele></trkpt><trkpt lat="45.838175" lon="9.438344"><time>2024-03-23T09:58:04.000Z</time><ele>1156.2</ele></trkpt><trkpt lat="45.838176" lon="9.438349"><time>2024-03-23T09:58:05.000Z</time><ele>1156.2</ele></trkpt><trkpt lat="45.838176" lon="9.438356"><time>2024-03-23T09:58:06.000Z</time><ele>1156.4</ele></trkpt><trkpt lat="45.838177" lon="9.438365"><time>2024-03-23T09:58:07.000Z</time><ele>1156.4</ele></trkpt><trkpt lat="45.838177" lon="9.43837"><time>2024-03-23T09:58:08.000Z</time><ele>1156.6</ele></trkpt><trkpt lat="45.838177" lon="9.438373"><time>2024-03-23T09:58:09.000Z</time><ele>1156.8</ele></trkpt><trkpt lat="45.838179" lon="9.438378"><time>2024-03-23T09:58:10.000Z</time><ele>1157</ele></trkpt><trkpt lat="45.83818" lon="9.438384"><time>2024-03-23T09:58:11.000Z</time><ele>1157.4</ele></trkpt><trkpt lat="45.838178" lon="9.438392"><time>2024-03-23T09:58:12.000Z</time><ele>1157.6</ele></trkpt><trkpt lat="45.838178" lon="9.438399"><time>2024-03-23T09:58:13.000Z</time><ele>1157.8</ele></trkpt><trkpt lat="45.838179" lon="9.438406"><time>2024-03-23T09:58:14.000Z</time><ele>1158</ele></trkpt><trkpt lat="45.838182" lon="9.438413"><time>2024-03-23T09:58:15.000Z</time><ele>1158.2</ele></trkpt><trkpt lat="45.838185" lon="9.438417"><time>2024-03-23T09:58:16.000Z</time><ele>1158.2</ele></trkpt><trkpt lat="45.838185" lon="9.43842"><time>2024-03-23T09:58:17.000Z</time><ele>1158.4</ele></trkpt><trkpt lat="45.838187" lon="9.438424"><time>2024-03-23T09:58:18.000Z</time><ele>1158.4</ele></trkpt><trkpt lat="45.83819" lon="9.438427"><time>2024-03-23T09:58:19.000Z</time><ele>1158.6</ele></trkpt><trkpt lat="45.838195" lon="9.438433"><time>2024-03-23T09:58:20.000Z</time><ele>1158.6</ele></trkpt><trkpt lat="45.8382" lon="9.438439"><time>2024-03-23T09:58:21.000Z</time><ele>1158.6</ele></trkpt><trkpt lat="45.838203" lon="9.438445"><time>2024-03-23T09:58:22.000Z</time><ele>1158.8</ele></trkpt><trkpt lat="45.838201" lon="9.438453"><time>2024-03-23T09:58:23.000Z</time><ele>1158.8</ele></trkpt><trkpt lat="45.838203" lon="9.438459"><time>2024-03-23T09:58:24.000Z</time><ele>1158.8</ele></trkpt><trkpt lat="45.838204" lon="9.438464"><time>2024-03-23T09:58:25.000Z</time><ele>1159</ele></trkpt><trkpt lat="45.838203" lon="9.438465"><time>2024-03-23T09:58:26.000Z</time><ele>1159</ele></trkpt><trkpt lat="45.838205" lon="9.438465"><time>2024-03-23T09:58:27.000Z</time><ele>1159.2</ele></trkpt><trkpt lat="45.838206" lon="9.438464"><time>2024-03-23T09:58:28.000Z</time><ele>1159.2</ele></trkpt><trkpt lat="45.838207" lon="9.438463"><time>2024-03-23T09:58:29.000Z</time><ele>1159.2</ele></trkpt><trkpt lat="45.838207" lon="9.438464"><time>2024-03-23T09:58:30.000Z</time><ele>1159.2</ele></trkpt><trkpt lat="45.838209" lon="9.438464"><time>2024-03-23T09:58:31.000Z</time><ele>1159.2</ele></trkpt><trkpt lat="45.83821" lon="9.438464"><time>2024-03-23T09:58:32.000Z</time><ele>1159.4</ele></trkpt><trkpt lat="45.838211" lon="9.438466"><time>2024-03-23T09:58:33.000Z</time><ele>1159.4</ele></trkpt><trkpt lat="45.838213" lon="9.438467"><time>2024-03-23T09:58:34.000Z</time><ele>1159.4</ele></trkpt><trkpt lat="45.838213" lon="9.438468"><time>2024-03-23T09:58:35.000Z</time><ele>1159.6</ele></trkpt><trkpt lat="45.838213" lon="9.438468"><time>2024-03-23T09:58:36.000Z</time><ele>1159.6</ele></trkpt><trkpt lat="45.838213" lon="9.438468"><time>2024-03-23T09:58:37.000Z</time><ele>1159.6</ele></trkpt><trkpt lat="45.838213" lon="9.438468"><time>2024-03-23T09:58:38.000Z</time><ele>1159.8</ele></trkpt><trkpt lat="45.838213" lon="9.438468"><time>2024-03-23T09:58:39.000Z</time><ele>1159.8</ele></trkpt><trkpt lat="45.838213" lon="9.438468"><time>2024-03-23T09:58:40.000Z</time><ele>1159.8</ele></trkpt><trkpt lat="45.838213" lon="9.438468"><time>2024-03-23T09:58:41.000Z</time><ele>1159.8</ele></trkpt><trkpt lat="45.838213" lon="9.438468"><time>2024-03-23T09:58:42.000Z</time><ele>1159.6</ele></trkpt><trkpt lat="45.838213" lon="9.438468"><time>2024-03-23T09:58:43.000Z</time><ele>1159.6</ele></trkpt><trkpt lat="45.838211" lon="9.438468"><time>2024-03-23T09:58:44.000Z</time><ele>1159.6</ele></trkpt><trkpt lat="45.838211" lon="9.438468"><time>2024-03-23T09:58:45.000Z</time><ele>1159.6</ele></trkpt><trkpt lat="45.838211" lon="9.438468"><time>2024-03-23T09:58:46.000Z</time><ele>1159.6</ele></trkpt><trkpt lat="45.83821" lon="9.438468"><time>2024-03-23T09:58:47.000Z</time><ele>1159.6</ele></trkpt><trkpt lat="45.83821" lon="9.438468"><time>2024-03-23T09:58:48.000Z</time><ele>1159.8</ele></trkpt><trkpt lat="45.838209" lon="9.438468"><time>2024-03-23T09:58:49.000Z</time><ele>1159.8</ele></trkpt><trkpt lat="45.838209" lon="9.438468"><time>2024-03-23T09:58:50.000Z</time><ele>1159.8</ele></trkpt><trkpt lat="45.838209" lon="9.438468"><time>2024-03-23T09:58:51.000Z</time><ele>1159.6</ele></trkpt><trkpt lat="45.838208" lon="9.438468"><time>2024-03-23T09:58:52.000Z</time><ele>1159.6</ele></trkpt><trkpt lat="45.838208" lon="9.438468"><time>2024-03-23T09:58:53.000Z</time><ele>1159.6</ele></trkpt><trkpt lat="45.838207" lon="9.438468"><time>2024-03-23T09:58:54.000Z</time><ele>1159.6</ele></trkpt><trkpt lat="45.838207" lon="9.438468"><time>2024-03-23T09:58:55.000Z</time><ele>1159.6</ele></trkpt><trkpt lat="45.838207" lon="9.438468"><time>2024-03-23T09:58:56.000Z</time><ele>1159.6</ele></trkpt><trkpt lat="45.838207" lon="9.438468"><time>2024-03-23T09:58:57.000Z</time><ele>1159.4</ele></trkpt><trkpt lat="45.838207" lon="9.438468"><time>2024-03-23T09:58:58.000Z</time><ele>1159.4</ele></trkpt><trkpt lat="45.838207" lon="9.438468"><time>2024-03-23T09:58:59.000Z</time><ele>1159.6</ele></trkpt><trkpt lat="45.838207" lon="9.438469"><time>2024-03-23T09:59:00.000Z</time><ele>1159.8</ele></trkpt><trkpt lat="45.838206" lon="9.43847"><time>2024-03-23T09:59:01.000Z</time><ele>1159.8</ele></trkpt><trkpt lat="45.838205" lon="9.43847"><time>2024-03-23T09:59:02.000Z</time><ele>1159.8</ele></trkpt><trkpt lat="45.838203" lon="9.43847"><time>2024-03-23T09:59:03.000Z</time><ele>1160</ele></trkpt><trkpt lat="45.838201" lon="9.43847"><time>2024-03-23T09:59:04.000Z</time><ele>1160.2</ele></trkpt><trkpt lat="45.8382" lon="9.438471"><time>2024-03-23T09:59:05.000Z</time><ele>1160.4</ele></trkpt><trkpt lat="45.8382" lon="9.438471"><time>2024-03-23T09:59:06.000Z</time><ele>1160.6</ele></trkpt><trkpt lat="45.8382" lon="9.438471"><time>2024-03-23T09:59:07.000Z</time><ele>1160.6</ele></trkpt><trkpt lat="45.838199" lon="9.438471"><time>2024-03-23T09:59:08.000Z</time><ele>1160.8</ele></trkpt><trkpt lat="45.838199" lon="9.438471"><time>2024-03-23T09:59:09.000Z</time><ele>1161</ele></trkpt><trkpt lat="45.838199" lon="9.438471"><time>2024-03-23T09:59:10.000Z</time><ele>1161</ele></trkpt><trkpt lat="45.838198" lon="9.438472"><time>2024-03-23T09:59:11.000Z</time><ele>1161</ele></trkpt><trkpt lat="45.838192" lon="9.438477"><time>2024-03-23T09:59:12.000Z</time><ele>1161.2</ele></trkpt><trkpt lat="45.83818" lon="9.438492"><time>2024-03-23T09:59:13.000Z</time><ele>1161.2</ele></trkpt><trkpt lat="45.83817" lon="9.438507"><time>2024-03-23T09:59:14.000Z</time><ele>1161.4</ele></trkpt><trkpt lat="45.838158" lon="9.438525"><time>2024-03-23T09:59:15.000Z</time><ele>1161.4</ele></trkpt><trkpt lat="45.838147" lon="9.438539"><time>2024-03-23T09:59:16.000Z</time><ele>1161.6</ele></trkpt><trkpt lat="45.838138" lon="9.438554"><time>2024-03-23T09:59:17.000Z</time><ele>1161.6</ele></trkpt><trkpt lat="45.838132" lon="9.438568"><time>2024-03-23T09:59:18.000Z</time><ele>1161.8</ele></trkpt><trkpt lat="45.838125" lon="9.438583"><time>2024-03-23T09:59:19.000Z</time><ele>1161.8</ele></trkpt><trkpt lat="45.838117" lon="9.438598"><time>2024-03-23T09:59:20.000Z</time><ele>1162</ele></trkpt><trkpt lat="45.838115" lon="9.43861"><time>2024-03-23T09:59:21.000Z</time><ele>1162.2</ele></trkpt><trkpt lat="45.838118" lon="9.438614"><time>2024-03-23T09:59:22.000Z</time><ele>1162.4</ele></trkpt><trkpt lat="45.838121" lon="9.438614"><time>2024-03-23T09:59:23.000Z</time><ele>1162.6</ele></trkpt><trkpt lat="45.838128" lon="9.438616"><time>2024-03-23T09:59:24.000Z</time><ele>1162.8</ele></trkpt><trkpt lat="45.838132" lon="9.438618"><time>2024-03-23T09:59:25.000Z</time><ele>1163</ele></trkpt><trkpt lat="45.838135" lon="9.438618"><time>2024-03-23T09:59:26.000Z</time><ele>1163.2</ele></trkpt><trkpt lat="45.838139" lon="9.43862"><time>2024-03-23T09:59:27.000Z</time><ele>1163.2</ele></trkpt><trkpt lat="45.838144" lon="9.438624"><time>2024-03-23T09:59:28.000Z</time><ele>1163.4</ele></trkpt><trkpt lat="45.838149" lon="9.438632"><time>2024-03-23T09:59:29.000Z</time><ele>1163.6</ele></trkpt><trkpt lat="45.838153" lon="9.438637"><time>2024-03-23T09:59:30.000Z</time><ele>1163.6</ele></trkpt><trkpt lat="45.838158" lon="9.43864"><time>2024-03-23T09:59:31.000Z</time><ele>1163.8</ele></trkpt><trkpt lat="45.838162" lon="9.438642"><time>2024-03-23T09:59:32.000Z</time><ele>1163.8</ele></trkpt><trkpt lat="45.838163" lon="9.43865"><time>2024-03-23T09:59:33.000Z</time><ele>1163.8</ele></trkpt><trkpt lat="45.838168" lon="9.43866"><time>2024-03-23T09:59:34.000Z</time><ele>1163.6</ele></trkpt><trkpt lat="45.838169" lon="9.438673"><time>2024-03-23T09:59:35.000Z</time><ele>1163.6</ele></trkpt><trkpt lat="45.838172" lon="9.438685"><time>2024-03-23T09:59:36.000Z</time><ele>1163.6</ele></trkpt><trkpt lat="45.838175" lon="9.438695"><time>2024-03-23T09:59:37.000Z</time><ele>1163.6</ele></trkpt><trkpt lat="45.838175" lon="9.438706"><time>2024-03-23T09:59:38.000Z</time><ele>1163.4</ele></trkpt><trkpt lat="45.838175" lon="9.438712"><time>2024-03-23T09:59:39.000Z</time><ele>1163.4</ele></trkpt><trkpt lat="45.838175" lon="9.438715"><time>2024-03-23T09:59:40.000Z</time><ele>1163.4</ele></trkpt><trkpt lat="45.838171" lon="9.438721"><time>2024-03-23T09:59:41.000Z</time><ele>1163.4</ele></trkpt><trkpt lat="45.838172" lon="9.438731"><time>2024-03-23T09:59:42.000Z</time><ele>1163.4</ele></trkpt><trkpt lat="45.838178" lon="9.438738"><time>2024-03-23T09:59:43.000Z</time><ele>1163.2</ele></trkpt><trkpt lat="45.838186" lon="9.438743"><time>2024-03-23T09:59:44.000Z</time><ele>1163</ele></trkpt><trkpt lat="45.838197" lon="9.438748"><time>2024-03-23T09:59:45.000Z</time><ele>1162.8</ele></trkpt><trkpt lat="45.838209" lon="9.438754"><time>2024-03-23T09:59:46.000Z</time><ele>1162.6</ele></trkpt><trkpt lat="45.838223" lon="9.438759"><time>2024-03-23T09:59:47.000Z</time><ele>1162.4</ele></trkpt><trkpt lat="45.838236" lon="9.438769"><time>2024-03-23T09:59:48.000Z</time><ele>1162.2</ele></trkpt><trkpt lat="45.838242" lon="9.438783"><time>2024-03-23T09:59:49.000Z</time><ele>1162</ele></trkpt><trkpt lat="45.838245" lon="9.438797"><time>2024-03-23T09:59:50.000Z</time><ele>1162</ele></trkpt><trkpt lat="45.83825" lon="9.438807"><time>2024-03-23T09:59:51.000Z</time><ele>1162</ele></trkpt><trkpt lat="45.838254" lon="9.438815"><time>2024-03-23T09:59:52.000Z</time><ele>1162</ele></trkpt><trkpt lat="45.838259" lon="9.438822"><time>2024-03-23T09:59:53.000Z</time><ele>1161.8</ele></trkpt><trkpt lat="45.838264" lon="9.438829"><time>2024-03-23T09:59:54.000Z</time><ele>1162</ele></trkpt><trkpt lat="45.838267" lon="9.438837"><time>2024-03-23T09:59:55.000Z</time><ele>1162</ele></trkpt><trkpt lat="45.838266" lon="9.438846"><time>2024-03-23T09:59:56.000Z</time><ele>1162</ele></trkpt><trkpt lat="45.838266" lon="9.438857"><time>2024-03-23T09:59:57.000Z</time><ele>1162.2</ele></trkpt><trkpt lat="45.838268" lon="9.438868"><time>2024-03-23T09:59:58.000Z</time><ele>1162.4</ele></trkpt><trkpt lat="45.838271" lon="9.438873"><time>2024-03-23T09:59:59.000Z</time><ele>1162.8</ele></trkpt><trkpt lat="45.838273" lon="9.438875"><time>2024-03-23T10:00:00.000Z</time><ele>1163</ele></trkpt><trkpt lat="45.838275" lon="9.438876"><time>2024-03-23T10:00:01.000Z</time><ele>1163</ele></trkpt><trkpt lat="45.838273" lon="9.438879"><time>2024-03-23T10:00:02.000Z</time><ele>1163.2</ele></trkpt><trkpt lat="45.838268" lon="9.438889"><time>2024-03-23T10:00:03.000Z</time><ele>1163.2</ele></trkpt><trkpt lat="45.838265" lon="9.438901"><time>2024-03-23T10:00:04.000Z</time><ele>1163.2</ele></trkpt><trkpt lat="45.838262" lon="9.438913"><time>2024-03-23T10:00:05.000Z</time><ele>1163.2</ele></trkpt><trkpt lat="45.838262" lon="9.438919"><time>2024-03-23T10:00:06.000Z</time><ele>1163.2</ele></trkpt><trkpt lat="45.838261" lon="9.438921"><time>2024-03-23T10:00:07.000Z</time><ele>1163.2</ele></trkpt><trkpt lat="45.83826" lon="9.438919"><time>2024-03-23T10:00:08.000Z</time><ele>1163.2</ele></trkpt><trkpt lat="45.838261" lon="9.438917"><time>2024-03-23T10:00:09.000Z</time><ele>1163.2</ele></trkpt><trkpt lat="45.838262" lon="9.438915"><time>2024-03-23T10:00:10.000Z</time><ele>1163.2</ele></trkpt><trkpt lat="45.838263" lon="9.438917"><time>2024-03-23T10:00:11.000Z</time><ele>1163.2</ele></trkpt><trkpt lat="45.838266" lon="9.438919"><time>2024-03-23T10:00:12.000Z</time><ele>1163.4</ele></trkpt><trkpt lat="45.838269" lon="9.43892"><time>2024-03-23T10:00:13.000Z</time><ele>1163.4</ele></trkpt><trkpt lat="45.83827" lon="9.438919"><time>2024-03-23T10:00:14.000Z</time><ele>1163.4</ele></trkpt><trkpt lat="45.838272" lon="9.438925"><time>2024-03-23T10:00:15.000Z</time><ele>1163.4</ele></trkpt><trkpt lat="45.838273" lon="9.438938"><time>2024-03-23T10:00:16.000Z</time><ele>1163.4</ele></trkpt><trkpt lat="45.838272" lon="9.438952"><time>2024-03-23T10:00:17.000Z</time><ele>1163.2</ele></trkpt><trkpt lat="45.838275" lon="9.438964"><time>2024-03-23T10:00:18.000Z</time><ele>1162.8</ele></trkpt><trkpt lat="45.838282" lon="9.43898"><time>2024-03-23T10:00:19.000Z</time><ele>1162.6</ele></trkpt><trkpt lat="45.838289" lon="9.438998"><time>2024-03-23T10:00:20.000Z</time><ele>1162.4</ele></trkpt><trkpt lat="45.838295" lon="9.43901"><time>2024-03-23T10:00:21.000Z</time><ele>1162.4</ele></trkpt><trkpt lat="45.8383" lon="9.439022"><time>2024-03-23T10:00:22.000Z</time><ele>1162.4</ele></trkpt><trkpt lat="45.838308" lon="9.439031"><time>2024-03-23T10:00:23.000Z</time><ele>1162.4</ele></trkpt><trkpt lat="45.838316" lon="9.439038"><time>2024-03-23T10:00:24.000Z</time><ele>1162.4</ele></trkpt><trkpt lat="45.838322" lon="9.439047"><time>2024-03-23T10:00:25.000Z</time><ele>1162.4</ele></trkpt><trkpt lat="45.838328" lon="9.439057"><time>2024-03-23T10:00:26.000Z</time><ele>1162.6</ele></trkpt><trkpt lat="45.838336" lon="9.439066"><time>2024-03-23T10:00:27.000Z</time><ele>1162.6</ele></trkpt><trkpt lat="45.838342" lon="9.439078"><time>2024-03-23T10:00:28.000Z</time><ele>1162.6</ele></trkpt><trkpt lat="45.838346" lon="9.439088"><time>2024-03-23T10:00:29.000Z</time><ele>1162.8</ele></trkpt><trkpt lat="45.838347" lon="9.439099"><time>2024-03-23T10:00:30.000Z</time><ele>1163</ele></trkpt><trkpt lat="45.838352" lon="9.439109"><time>2024-03-23T10:00:31.000Z</time><ele>1163</ele></trkpt><trkpt lat="45.838354" lon="9.439121"><time>2024-03-23T10:00:32.000Z</time><ele>1163</ele></trkpt><trkpt lat="45.838356" lon="9.439132"><time>2024-03-23T10:00:33.000Z</time><ele>1163.2</ele></trkpt><trkpt lat="45.838359" lon="9.439143"><time>2024-03-23T10:00:34.000Z</time><ele>1163.4</ele></trkpt><trkpt lat="45.838363" lon="9.439155"><time>2024-03-23T10:00:35.000Z</time><ele>1163.4</ele></trkpt><trkpt lat="45.838365" lon="9.439168"><time>2024-03-23T10:00:36.000Z</time><ele>1163.6</ele></trkpt><trkpt lat="45.838368" lon="9.439183"><time>2024-03-23T10:00:37.000Z</time><ele>1163.6</ele></trkpt><trkpt lat="45.838379" lon="9.439199"><time>2024-03-23T10:00:38.000Z</time><ele>1163.8</ele></trkpt><trkpt lat="45.838384" lon="9.43921"><time>2024-03-23T10:00:39.000Z</time><ele>1163.8</ele></trkpt><trkpt lat="45.83839" lon="9.439226"><time>2024-03-23T10:00:40.000Z</time><ele>1163.8</ele></trkpt><trkpt lat="45.838393" lon="9.439237"><time>2024-03-23T10:00:41.000Z</time><ele>1163.8</ele></trkpt><trkpt lat="45.838397" lon="9.43925"><time>2024-03-23T10:00:42.000Z</time><ele>1164</ele></trkpt><trkpt lat="45.838402" lon="9.439262"><time>2024-03-23T10:00:43.000Z</time><ele>1164</ele></trkpt><trkpt lat="45.838406" lon="9.439275"><time>2024-03-23T10:00:44.000Z</time><ele>1164</ele></trkpt><trkpt lat="45.838409" lon="9.439286"><time>2024-03-23T10:00:45.000Z</time><ele>1164</ele></trkpt><trkpt lat="45.838411" lon="9.439304"><time>2024-03-23T10:00:46.000Z</time><ele>1164</ele></trkpt><trkpt lat="45.838408" lon="9.439321"><time>2024-03-23T10:00:47.000Z</time><ele>1164.2</ele></trkpt><trkpt lat="45.838408" lon="9.439334"><time>2024-03-23T10:00:48.000Z</time><ele>1164.2</ele></trkpt><trkpt lat="45.838408" lon="9.439351"><time>2024-03-23T10:00:49.000Z</time><ele>1164.2</ele></trkpt><trkpt lat="45.838407" lon="9.439367"><time>2024-03-23T10:00:50.000Z</time><ele>1164.2</ele></trkpt><trkpt lat="45.838405" lon="9.439383"><time>2024-03-23T10:00:51.000Z</time><ele>1164.2</ele></trkpt><trkpt lat="45.838404" lon="9.439398"><time>2024-03-23T10:00:52.000Z</time><ele>1164.2</ele></trkpt><trkpt lat="45.838401" lon="9.439414"><time>2024-03-23T10:00:53.000Z</time><ele>1164.4</ele></trkpt><trkpt lat="45.838404" lon="9.439429"><time>2024-03-23T10:00:54.000Z</time><ele>1164.4</ele></trkpt><trkpt lat="45.838408" lon="9.439442"><time>2024-03-23T10:00:55.000Z</time><ele>1164.6</ele></trkpt><trkpt lat="45.83841" lon="9.439456"><time>2024-03-23T10:00:56.000Z</time><ele>1164.6</ele></trkpt><trkpt lat="45.838412" lon="9.439468"><time>2024-03-23T10:00:57.000Z</time><ele>1164.8</ele></trkpt><trkpt lat="45.838416" lon="9.439481"><time>2024-03-23T10:00:58.000Z</time><ele>1165</ele></trkpt><trkpt lat="45.838418" lon="9.439495"><time>2024-03-23T10:00:59.000Z</time><ele>1165.2</ele></trkpt><trkpt lat="45.838422" lon="9.439507"><time>2024-03-23T10:01:00.000Z</time><ele>1165.4</ele></trkpt><trkpt lat="45.838427" lon="9.439516"><time>2024-03-23T10:01:01.000Z</time><ele>1165.4</ele></trkpt><trkpt lat="45.838433" lon="9.439526"><time>2024-03-23T10:01:02.000Z</time><ele>1165.6</ele></trkpt><trkpt lat="45.838436" lon="9.43954"><time>2024-03-23T10:01:03.000Z</time><ele>1165.8</ele></trkpt><trkpt lat="45.838439" lon="9.439555"><time>2024-03-23T10:01:04.000Z</time><ele>1165.8</ele></trkpt><trkpt lat="45.83844" lon="9.43957"><time>2024-03-23T10:01:05.000Z</time><ele>1165.8</ele></trkpt><trkpt lat="45.838441" lon="9.439584"><time>2024-03-23T10:01:06.000Z</time><ele>1165.8</ele></trkpt><trkpt lat="45.838441" lon="9.439599"><time>2024-03-23T10:01:07.000Z</time><ele>1166</ele></trkpt><trkpt lat="45.838443" lon="9.439615"><time>2024-03-23T10:01:08.000Z</time><ele>1166</ele></trkpt><trkpt lat="45.838446" lon="9.439631"><time>2024-03-23T10:01:09.000Z</time><ele>1166.2</ele></trkpt><trkpt lat="45.838446" lon="9.439645"><time>2024-03-23T10:01:10.000Z</time><ele>1166.2</ele></trkpt><trkpt lat="45.838448" lon="9.439658"><time>2024-03-23T10:01:11.000Z</time><ele>1166.4</ele></trkpt><trkpt lat="45.838448" lon="9.439673"><time>2024-03-23T10:01:12.000Z</time><ele>1166.4</ele></trkpt><trkpt lat="45.838446" lon="9.439688"><time>2024-03-23T10:01:13.000Z</time><ele>1166.6</ele></trkpt><trkpt lat="45.838447" lon="9.439702"><time>2024-03-23T10:01:14.000Z</time><ele>1166.6</ele></trkpt><trkpt lat="45.838446" lon="9.439716"><time>2024-03-23T10:01:15.000Z</time><ele>1166.8</ele></trkpt><trkpt lat="45.838448" lon="9.439729"><time>2024-03-23T10:01:16.000Z</time><ele>1166.8</ele></trkpt><trkpt lat="45.838448" lon="9.439742"><time>2024-03-23T10:01:17.000Z</time><ele>1167</ele></trkpt><trkpt lat="45.838447" lon="9.439753"><time>2024-03-23T10:01:18.000Z</time><ele>1167</ele></trkpt><trkpt lat="45.838449" lon="9.439768"><time>2024-03-23T10:01:19.000Z</time><ele>1167.2</ele></trkpt><trkpt lat="45.838449" lon="9.439778"><time>2024-03-23T10:01:20.000Z</time><ele>1167.4</ele></trkpt><trkpt lat="45.838451" lon="9.439789"><time>2024-03-23T10:01:21.000Z</time><ele>1167.8</ele></trkpt><trkpt lat="45.838453" lon="9.439795"><time>2024-03-23T10:01:22.000Z</time><ele>1167.8</ele></trkpt><trkpt lat="45.838455" lon="9.4398"><time>2024-03-23T10:01:23.000Z</time><ele>1168</ele></trkpt><trkpt lat="45.838455" lon="9.439809"><time>2024-03-23T10:01:24.000Z</time><ele>1168.2</ele></trkpt><trkpt lat="45.838454" lon="9.439822"><time>2024-03-23T10:01:25.000Z</time><ele>1168.2</ele></trkpt><trkpt lat="45.838455" lon="9.439833"><time>2024-03-23T10:01:26.000Z</time><ele>1168.4</ele></trkpt><trkpt lat="45.838457" lon="9.439848"><time>2024-03-23T10:01:27.000Z</time><ele>1168.6</ele></trkpt><trkpt lat="45.838458" lon="9.43986"><time>2024-03-23T10:01:28.000Z</time><ele>1168.8</ele></trkpt><trkpt lat="45.838459" lon="9.43987"><time>2024-03-23T10:01:29.000Z</time><ele>1168.8</ele></trkpt><trkpt lat="45.838457" lon="9.439881"><time>2024-03-23T10:01:30.000Z</time><ele>1169</ele></trkpt><trkpt lat="45.838452" lon="9.439896"><time>2024-03-23T10:01:31.000Z</time><ele>1169.2</ele></trkpt><trkpt lat="45.838447" lon="9.43991"><time>2024-03-23T10:01:32.000Z</time><ele>1169.2</ele></trkpt><trkpt lat="45.838442" lon="9.439924"><time>2024-03-23T10:01:33.000Z</time><ele>1169.2</ele></trkpt><trkpt lat="45.838438" lon="9.439937"><time>2024-03-23T10:01:34.000Z</time><ele>1169.4</ele></trkpt><trkpt lat="45.838433" lon="9.439947"><time>2024-03-23T10:01:35.000Z</time><ele>1169.4</ele></trkpt><trkpt lat="45.838427" lon="9.439961"><time>2024-03-23T10:01:36.000Z</time><ele>1169.6</ele></trkpt><trkpt lat="45.83842" lon="9.439973"><time>2024-03-23T10:01:37.000Z</time><ele>1169.8</ele></trkpt><trkpt lat="45.838416" lon="9.439985"><time>2024-03-23T10:01:38.000Z</time><ele>1169.8</ele></trkpt><trkpt lat="45.838414" lon="9.439997"><time>2024-03-23T10:01:39.000Z</time><ele>1170</ele></trkpt><trkpt lat="45.83841" lon="9.440007"><time>2024-03-23T10:01:40.000Z</time><ele>1170</ele></trkpt><trkpt lat="45.838406" lon="9.440019"><time>2024-03-23T10:01:41.000Z</time><ele>1170.2</ele></trkpt><trkpt lat="45.838401" lon="9.440032"><time>2024-03-23T10:01:42.000Z</time><ele>1170.4</ele></trkpt><trkpt lat="45.838398" lon="9.440047"><time>2024-03-23T10:01:43.000Z</time><ele>1170.6</ele></trkpt><trkpt lat="45.838395" lon="9.44006"><time>2024-03-23T10:01:44.000Z</time><ele>1170.6</ele></trkpt><trkpt lat="45.838391" lon="9.440071"><time>2024-03-23T10:01:45.000Z</time><ele>1170.8</ele></trkpt><trkpt lat="45.838387" lon="9.440085"><time>2024-03-23T10:01:46.000Z</time><ele>1170.8</ele></trkpt><trkpt lat="45.838382" lon="9.440097"><time>2024-03-23T10:01:47.000Z</time><ele>1170.8</ele></trkpt><trkpt lat="45.838377" lon="9.440109"><time>2024-03-23T10:01:48.000Z</time><ele>1170.8</ele></trkpt><trkpt lat="45.838372" lon="9.44012"><time>2024-03-23T10:01:49.000Z</time><ele>1170.8</ele></trkpt><trkpt lat="45.838367" lon="9.440132"><time>2024-03-23T10:01:50.000Z</time><ele>1171</ele></trkpt><trkpt lat="45.838362" lon="9.440146"><time>2024-03-23T10:01:51.000Z</time><ele>1171</ele></trkpt><trkpt lat="45.838358" lon="9.440164"><time>2024-03-23T10:01:52.000Z</time><ele>1171</ele></trkpt><trkpt lat="45.838355" lon="9.44018"><time>2024-03-23T10:01:53.000Z</time><ele>1171.2</ele></trkpt><trkpt lat="45.838355" lon="9.440195"><time>2024-03-23T10:01:54.000Z</time><ele>1171.4</ele></trkpt><trkpt lat="45.838355" lon="9.440208"><time>2024-03-23T10:01:55.000Z</time><ele>1171.6</ele></trkpt><trkpt lat="45.838353" lon="9.440224"><time>2024-03-23T10:01:56.000Z</time><ele>1171.8</ele></trkpt><trkpt lat="45.838351" lon="9.440239"><time>2024-03-23T10:01:57.000Z</time><ele>1171.8</ele></trkpt><trkpt lat="45.838351" lon="9.440251"><time>2024-03-23T10:01:58.000Z</time><ele>1172</ele></trkpt><trkpt lat="45.83835" lon="9.440266"><time>2024-03-23T10:01:59.000Z</time><ele>1172.2</ele></trkpt><trkpt lat="45.838347" lon="9.440281"><time>2024-03-23T10:02:00.000Z</time><ele>1172.2</ele></trkpt><trkpt lat="45.838345" lon="9.440294"><time>2024-03-23T10:02:01.000Z</time><ele>1172.4</ele></trkpt><trkpt lat="45.838343" lon="9.440306"><time>2024-03-23T10:02:02.000Z</time><ele>1172.6</ele></trkpt><trkpt lat="45.83834" lon="9.440319"><time>2024-03-23T10:02:03.000Z</time><ele>1172.8</ele></trkpt><trkpt lat="45.838338" lon="9.440331"><time>2024-03-23T10:02:04.000Z</time><ele>1173</ele></trkpt><trkpt lat="45.838339" lon="9.440343"><time>2024-03-23T10:02:05.000Z</time><ele>1173.2</ele></trkpt><trkpt lat="45.838336" lon="9.440356"><time>2024-03-23T10:02:06.000Z</time><ele>1173.4</ele></trkpt><trkpt lat="45.838333" lon="9.440367"><time>2024-03-23T10:02:07.000Z</time><ele>1173.4</ele></trkpt><trkpt lat="45.838328" lon="9.440379"><time>2024-03-23T10:02:08.000Z</time><ele>1173.4</ele></trkpt><trkpt lat="45.838321" lon="9.44039"><time>2024-03-23T10:02:09.000Z</time><ele>1173.6</ele></trkpt><trkpt lat="45.838315" lon="9.440401"><time>2024-03-23T10:02:10.000Z</time><ele>1173.6</ele></trkpt><trkpt lat="45.838311" lon="9.440409"><time>2024-03-23T10:02:11.000Z</time><ele>1173.8</ele></trkpt><trkpt lat="45.838307" lon="9.440418"><time>2024-03-23T10:02:12.000Z</time><ele>1173.8</ele></trkpt><trkpt lat="45.838304" lon="9.440424"><time>2024-03-23T10:02:13.000Z</time><ele>1174</ele></trkpt><trkpt lat="45.838298" lon="9.440432"><time>2024-03-23T10:02:14.000Z</time><ele>1174.2</ele></trkpt><trkpt lat="45.838294" lon="9.44044"><time>2024-03-23T10:02:15.000Z</time><ele>1174.6</ele></trkpt><trkpt lat="45.83829" lon="9.440446"><time>2024-03-23T10:02:16.000Z</time><ele>1174.8</ele></trkpt><trkpt lat="45.838286" lon="9.440452"><time>2024-03-23T10:02:17.000Z</time><ele>1174.8</ele></trkpt><trkpt lat="45.838284" lon="9.440458"><time>2024-03-23T10:02:18.000Z</time><ele>1175</ele></trkpt><trkpt lat="45.838282" lon="9.440464"><time>2024-03-23T10:02:19.000Z</time><ele>1175</ele></trkpt><trkpt lat="45.83828" lon="9.440474"><time>2024-03-23T10:02:20.000Z</time><ele>1175.2</ele></trkpt><trkpt lat="45.838279" lon="9.440483"><time>2024-03-23T10:02:21.000Z</time><ele>1175.4</ele></trkpt><trkpt lat="45.838278" lon="9.440488"><time>2024-03-23T10:02:22.000Z</time><ele>1175.4</ele></trkpt><trkpt lat="45.838278" lon="9.440492"><time>2024-03-23T10:02:23.000Z</time><ele>1175.6</ele></trkpt><trkpt lat="45.838277" lon="9.440493"><time>2024-03-23T10:02:24.000Z</time><ele>1175.8</ele></trkpt><trkpt lat="45.838277" lon="9.440494"><time>2024-03-23T10:02:25.000Z</time><ele>1175.8</ele></trkpt><trkpt lat="45.838278" lon="9.440493"><time>2024-03-23T10:02:26.000Z</time><ele>1175.8</ele></trkpt><trkpt lat="45.838279" lon="9.440492"><time>2024-03-23T10:02:27.000Z</time><ele>1176</ele></trkpt><trkpt lat="45.838279" lon="9.440495"><time>2024-03-23T10:02:28.000Z</time><ele>1176</ele></trkpt><trkpt lat="45.83828" lon="9.440505"><time>2024-03-23T10:02:29.000Z</time><ele>1176</ele></trkpt><trkpt lat="45.838282" lon="9.440509"><time>2024-03-23T10:02:30.000Z</time><ele>1176.2</ele></trkpt><trkpt lat="45.838289" lon="9.440511"><time>2024-03-23T10:02:31.000Z</time><ele>1176.2</ele></trkpt><trkpt lat="45.838292" lon="9.440511"><time>2024-03-23T10:02:32.000Z</time><ele>1176.4</ele></trkpt><trkpt lat="45.838294" lon="9.440511"><time>2024-03-23T10:02:33.000Z</time><ele>1176.4</ele></trkpt><trkpt lat="45.838294" lon="9.440511"><time>2024-03-23T10:02:34.000Z</time><ele>1176.6</ele></trkpt><trkpt lat="45.838294" lon="9.440511"><time>2024-03-23T10:02:35.000Z</time><ele>1176.6</ele></trkpt><trkpt lat="45.838294" lon="9.440511"><time>2024-03-23T10:02:36.000Z</time><ele>1176.8</ele></trkpt><trkpt lat="45.838294" lon="9.440511"><time>2024-03-23T10:02:37.000Z</time><ele>1176.8</ele></trkpt><trkpt lat="45.838294" lon="9.440511"><time>2024-03-23T10:02:38.000Z</time><ele>1176.8</ele></trkpt><trkpt lat="45.838294" lon="9.440511"><time>2024-03-23T10:02:39.000Z</time><ele>1176.8</ele></trkpt><trkpt lat="45.838294" lon="9.440511"><time>2024-03-23T10:02:40.000Z</time><ele>1176.8</ele></trkpt><trkpt lat="45.838294" lon="9.440511"><time>2024-03-23T10:02:41.000Z</time><ele>1176.8</ele></trkpt><trkpt lat="45.838294" lon="9.440511"><time>2024-03-23T10:02:42.000Z</time><ele>1176.8</ele></trkpt><trkpt lat="45.838294" lon="9.440511"><time>2024-03-23T10:02:43.000Z</time><ele>1176.8</ele></trkpt><trkpt lat="45.838294" lon="9.440511"><time>2024-03-23T10:02:44.000Z</time><ele>1176.8</ele></trkpt><trkpt lat="45.838294" lon="9.440511"><time>2024-03-23T10:02:45.000Z</time><ele>1176.8</ele></trkpt><trkpt lat="45.838294" lon="9.440511"><time>2024-03-23T10:02:46.000Z</time><ele>1176.8</ele></trkpt><trkpt lat="45.838294" lon="9.440511"><time>2024-03-23T10:02:47.000Z</time><ele>1176.8</ele></trkpt><trkpt lat="45.838294" lon="9.440509"><time>2024-03-23T10:02:48.000Z</time><ele>1176.8</ele></trkpt><trkpt lat="45.838294" lon="9.440507"><time>2024-03-23T10:02:49.000Z</time><ele>1176.8</ele></trkpt><trkpt lat="45.838294" lon="9.440506"><time>2024-03-23T10:02:50.000Z</time><ele>1176.8</ele></trkpt><trkpt lat="45.838294" lon="9.440506"><time>2024-03-23T10:02:51.000Z</time><ele>1176.8</ele></trkpt><trkpt lat="45.838295" lon="9.440505"><time>2024-03-23T10:02:52.000Z</time><ele>1176.8</ele></trkpt><trkpt lat="45.838296" lon="9.440504"><time>2024-03-23T10:02:53.000Z</time><ele>1176.8</ele></trkpt><trkpt lat="45.838297" lon="9.440504"><time>2024-03-23T10:02:54.000Z</time><ele>1176.8</ele></trkpt><trkpt lat="45.838298" lon="9.440504"><time>2024-03-23T10:02:55.000Z</time><ele>1176.8</ele></trkpt><trkpt lat="45.838299" lon="9.440504"><time>2024-03-23T10:02:56.000Z</time><ele>1177</ele></trkpt><trkpt lat="45.838301" lon="9.440505"><time>2024-03-23T10:02:57.000Z</time><ele>1176.8</ele></trkpt><trkpt lat="45.838303" lon="9.440506"><time>2024-03-23T10:02:58.000Z</time><ele>1177</ele></trkpt><trkpt lat="45.838304" lon="9.440506"><time>2024-03-23T10:02:59.000Z</time><ele>1177</ele></trkpt><trkpt lat="45.838304" lon="9.440506"><time>2024-03-23T10:03:00.000Z</time><ele>1177</ele></trkpt><trkpt lat="45.838305" lon="9.440506"><time>2024-03-23T10:03:01.000Z</time><ele>1177</ele></trkpt><trkpt lat="45.838306" lon="9.440506"><time>2024-03-23T10:03:02.000Z</time><ele>1177.2</ele></trkpt><trkpt lat="45.838306" lon="9.440506"><time>2024-03-23T10:03:03.000Z</time><ele>1177.4</ele></trkpt><trkpt lat="45.838307" lon="9.440506"><time>2024-03-23T10:03:04.000Z</time><ele>1177.6</ele></trkpt><trkpt lat="45.838308" lon="9.440506"><time>2024-03-23T10:03:05.000Z</time><ele>1177.8</ele></trkpt><trkpt lat="45.838309" lon="9.440506"><time>2024-03-23T10:03:06.000Z</time><ele>1178</ele></trkpt><trkpt lat="45.838309" lon="9.440506"><time>2024-03-23T10:03:07.000Z</time><ele>1178.2</ele></trkpt><trkpt lat="45.83831" lon="9.440506"><time>2024-03-23T10:03:08.000Z</time><ele>1178.4</ele></trkpt><trkpt lat="45.83831" lon="9.440508"><time>2024-03-23T10:03:09.000Z</time><ele>1178.4</ele></trkpt><trkpt lat="45.838311" lon="9.440516"><time>2024-03-23T10:03:10.000Z</time><ele>1178.6</ele></trkpt><trkpt lat="45.838311" lon="9.440524"><time>2024-03-23T10:03:11.000Z</time><ele>1178.8</ele></trkpt><trkpt lat="45.838311" lon="9.440533"><time>2024-03-23T10:03:12.000Z</time><ele>1179.4</ele></trkpt><trkpt lat="45.838312" lon="9.440534"><time>2024-03-23T10:03:13.000Z</time><ele>1179.8</ele></trkpt><trkpt lat="45.838316" lon="9.440535"><time>2024-03-23T10:03:14.000Z</time><ele>1180</ele></trkpt><trkpt lat="45.838321" lon="9.440535"><time>2024-03-23T10:03:15.000Z</time><ele>1180.2</ele></trkpt><trkpt lat="45.838326" lon="9.440535"><time>2024-03-23T10:03:16.000Z</time><ele>1180.2</ele></trkpt><trkpt lat="45.838331" lon="9.440535"><time>2024-03-23T10:03:17.000Z</time><ele>1180.4</ele></trkpt><trkpt lat="45.838338" lon="9.440535"><time>2024-03-23T10:03:18.000Z</time><ele>1180.6</ele></trkpt><trkpt lat="45.838343" lon="9.440535"><time>2024-03-23T10:03:19.000Z</time><ele>1180.6</ele></trkpt><trkpt lat="45.838346" lon="9.440535"><time>2024-03-23T10:03:20.000Z</time><ele>1180.8</ele></trkpt><trkpt lat="45.838348" lon="9.440535"><time>2024-03-23T10:03:21.000Z</time><ele>1180.8</ele></trkpt><trkpt lat="45.83835" lon="9.440535"><time>2024-03-23T10:03:22.000Z</time><ele>1181</ele></trkpt><trkpt lat="45.838353" lon="9.440535"><time>2024-03-23T10:03:23.000Z</time><ele>1181</ele></trkpt><trkpt lat="45.838357" lon="9.440538"><time>2024-03-23T10:03:24.000Z</time><ele>1181</ele></trkpt><trkpt lat="45.838363" lon="9.440539"><time>2024-03-23T10:03:25.000Z</time><ele>1181.2</ele></trkpt><trkpt lat="45.838368" lon="9.440541"><time>2024-03-23T10:03:26.000Z</time><ele>1181.4</ele></trkpt><trkpt lat="45.83837" lon="9.440543"><time>2024-03-23T10:03:27.000Z</time><ele>1181.6</ele></trkpt><trkpt lat="45.838374" lon="9.440544"><time>2024-03-23T10:03:28.000Z</time><ele>1181.8</ele></trkpt><trkpt lat="45.838375" lon="9.440544"><time>2024-03-23T10:03:29.000Z</time><ele>1182</ele></trkpt><trkpt lat="45.838376" lon="9.440543"><time>2024-03-23T10:03:30.000Z</time><ele>1182.2</ele></trkpt><trkpt lat="45.838378" lon="9.440543"><time>2024-03-23T10:03:31.000Z</time><ele>1182.4</ele></trkpt><trkpt lat="45.83838" lon="9.440542"><time>2024-03-23T10:03:32.000Z</time><ele>1182.4</ele></trkpt><trkpt lat="45.838382" lon="9.440542"><time>2024-03-23T10:03:33.000Z</time><ele>1182.4</ele></trkpt><trkpt lat="45.838384" lon="9.440542"><time>2024-03-23T10:03:34.000Z</time><ele>1182.6</ele></trkpt><trkpt lat="45.838387" lon="9.440542"><time>2024-03-23T10:03:35.000Z</time><ele>1182.6</ele></trkpt><trkpt lat="45.838391" lon="9.440542"><time>2024-03-23T10:03:36.000Z</time><ele>1182.8</ele></trkpt><trkpt lat="45.838394" lon="9.440542"><time>2024-03-23T10:03:37.000Z</time><ele>1182.8</ele></trkpt><trkpt lat="45.838397" lon="9.440542"><time>2024-03-23T10:03:38.000Z</time><ele>1183.2</ele></trkpt><trkpt lat="45.838401" lon="9.440542"><time>2024-03-23T10:03:39.000Z</time><ele>1183.2</ele></trkpt><trkpt lat="45.838404" lon="9.440542"><time>2024-03-23T10:03:40.000Z</time><ele>1183.6</ele></trkpt><trkpt lat="45.838409" lon="9.440542"><time>2024-03-23T10:03:41.000Z</time><ele>1183.8</ele></trkpt><trkpt lat="45.838413" lon="9.440543"><time>2024-03-23T10:03:42.000Z</time><ele>1183.8</ele></trkpt><trkpt lat="45.838416" lon="9.440543"><time>2024-03-23T10:03:43.000Z</time><ele>1184</ele></trkpt><trkpt lat="45.838419" lon="9.440543"><time>2024-03-23T10:03:44.000Z</time><ele>1184</ele></trkpt><trkpt lat="45.838423" lon="9.440544"><time>2024-03-23T10:03:45.000Z</time><ele>1184.2</ele></trkpt><trkpt lat="45.838427" lon="9.440544"><time>2024-03-23T10:03:46.000Z</time><ele>1184.4</ele></trkpt><trkpt lat="45.838431" lon="9.440544"><time>2024-03-23T10:03:47.000Z</time><ele>1184.6</ele></trkpt><trkpt lat="45.838435" lon="9.440545"><time>2024-03-23T10:03:48.000Z</time><ele>1184.8</ele></trkpt><trkpt lat="45.838439" lon="9.440545"><time>2024-03-23T10:03:49.000Z</time><ele>1185.2</ele></trkpt><trkpt lat="45.838441" lon="9.440546"><time>2024-03-23T10:03:50.000Z</time><ele>1185.4</ele></trkpt><trkpt lat="45.838445" lon="9.440549"><time>2024-03-23T10:03:51.000Z</time><ele>1185.6</ele></trkpt><trkpt lat="45.838447" lon="9.44055"><time>2024-03-23T10:03:52.000Z</time><ele>1185.6</ele></trkpt><trkpt lat="45.838449" lon="9.440551"><time>2024-03-23T10:03:53.000Z</time><ele>1185.8</ele></trkpt><trkpt lat="45.838452" lon="9.440552"><time>2024-03-23T10:03:54.000Z</time><ele>1185.8</ele></trkpt><trkpt lat="45.838457" lon="9.440553"><time>2024-03-23T10:03:55.000Z</time><ele>1186</ele></trkpt><trkpt lat="45.838461" lon="9.440553"><time>2024-03-23T10:03:56.000Z</time><ele>1186</ele></trkpt><trkpt lat="45.838465" lon="9.440554"><time>2024-03-23T10:03:57.000Z</time><ele>1186.2</ele></trkpt><trkpt lat="45.838469" lon="9.440554"><time>2024-03-23T10:03:58.000Z</time><ele>1186.6</ele></trkpt><trkpt lat="45.838471" lon="9.440555"><time>2024-03-23T10:03:59.000Z</time><ele>1186.6</ele></trkpt><trkpt lat="45.838473" lon="9.440555"><time>2024-03-23T10:04:00.000Z</time><ele>1186.8</ele></trkpt><trkpt lat="45.838478" lon="9.440555"><time>2024-03-23T10:04:01.000Z</time><ele>1187</ele></trkpt><trkpt lat="45.838481" lon="9.440556"><time>2024-03-23T10:04:02.000Z</time><ele>1187</ele></trkpt><trkpt lat="45.838483" lon="9.440556"><time>2024-03-23T10:04:03.000Z</time><ele>1187.2</ele></trkpt><trkpt lat="45.838484" lon="9.440556"><time>2024-03-23T10:04:04.000Z</time><ele>1187.2</ele></trkpt><trkpt lat="45.838487" lon="9.440557"><time>2024-03-23T10:04:05.000Z</time><ele>1187.6</ele></trkpt><trkpt lat="45.83849" lon="9.440557"><time>2024-03-23T10:04:06.000Z</time><ele>1187.8</ele></trkpt><trkpt lat="45.838493" lon="9.440557"><time>2024-03-23T10:04:07.000Z</time><ele>1188</ele></trkpt><trkpt lat="45.838495" lon="9.440558"><time>2024-03-23T10:04:08.000Z</time><ele>1188.2</ele></trkpt><trkpt lat="45.838498" lon="9.440559"><time>2024-03-23T10:04:09.000Z</time><ele>1188.2</ele></trkpt><trkpt lat="45.838501" lon="9.440559"><time>2024-03-23T10:04:10.000Z</time><ele>1188.4</ele></trkpt><trkpt lat="45.838503" lon="9.440559"><time>2024-03-23T10:04:11.000Z</time><ele>1188.4</ele></trkpt><trkpt lat="45.838505" lon="9.44056"><time>2024-03-23T10:04:12.000Z</time><ele>1188.4</ele></trkpt><trkpt lat="45.838508" lon="9.440561"><time>2024-03-23T10:04:13.000Z</time><ele>1188.6</ele></trkpt><trkpt lat="45.838512" lon="9.440562"><time>2024-03-23T10:04:14.000Z</time><ele>1188.8</ele></trkpt><trkpt lat="45.838515" lon="9.440564"><time>2024-03-23T10:04:15.000Z</time><ele>1189</ele></trkpt><trkpt lat="45.838519" lon="9.440569"><time>2024-03-23T10:04:16.000Z</time><ele>1189.2</ele></trkpt><trkpt lat="45.838524" lon="9.440573"><time>2024-03-23T10:04:17.000Z</time><ele>1189.2</ele></trkpt><trkpt lat="45.838529" lon="9.440577"><time>2024-03-23T10:04:18.000Z</time><ele>1189.2</ele></trkpt><trkpt lat="45.838534" lon="9.440579"><time>2024-03-23T10:04:19.000Z</time><ele>1189.4</ele></trkpt><trkpt lat="45.838537" lon="9.440581"><time>2024-03-23T10:04:20.000Z</time><ele>1189.4</ele></trkpt><trkpt lat="45.838546" lon="9.440585"><time>2024-03-23T10:04:21.000Z</time><ele>1189.6</ele></trkpt><trkpt lat="45.838562" lon="9.440593"><time>2024-03-23T10:04:22.000Z</time><ele>1189.4</ele></trkpt><trkpt lat="45.838577" lon="9.4406"><time>2024-03-23T10:04:23.000Z</time><ele>1189.4</ele></trkpt><trkpt lat="45.838591" lon="9.440607"><time>2024-03-23T10:04:24.000Z</time><ele>1189.6</ele></trkpt><trkpt lat="45.838605" lon="9.440617"><time>2024-03-23T10:04:25.000Z</time><ele>1189.6</ele></trkpt><trkpt lat="45.838621" lon="9.440626"><time>2024-03-23T10:04:26.000Z</time><ele>1189.8</ele></trkpt><trkpt lat="45.83864" lon="9.440636"><time>2024-03-23T10:04:27.000Z</time><ele>1190</ele></trkpt><trkpt lat="45.838655" lon="9.440649"><time>2024-03-23T10:04:28.000Z</time><ele>1190</ele></trkpt><trkpt lat="45.838672" lon="9.44066"><time>2024-03-23T10:04:29.000Z</time><ele>1190.2</ele></trkpt><trkpt lat="45.838693" lon="9.440672"><time>2024-03-23T10:04:30.000Z</time><ele>1190.6</ele></trkpt><trkpt lat="45.838698" lon="9.440681"><time>2024-03-23T10:04:31.000Z</time><ele>1190.8</ele></trkpt><trkpt lat="45.838702" lon="9.440685"><time>2024-03-23T10:04:32.000Z</time><ele>1191</ele></trkpt><trkpt lat="45.838707" lon="9.440689"><time>2024-03-23T10:04:33.000Z</time><ele>1191.2</ele></trkpt><trkpt lat="45.838714" lon="9.440688"><time>2024-03-23T10:04:34.000Z</time><ele>1191.4</ele></trkpt><trkpt lat="45.838716" lon="9.440691"><time>2024-03-23T10:04:35.000Z</time><ele>1191.4</ele></trkpt><trkpt lat="45.838718" lon="9.440692"><time>2024-03-23T10:04:36.000Z</time><ele>1191.4</ele></trkpt><trkpt lat="45.83872" lon="9.440695"><time>2024-03-23T10:04:37.000Z</time><ele>1191.6</ele></trkpt><trkpt lat="45.838727" lon="9.440696"><time>2024-03-23T10:04:38.000Z</time><ele>1191.6</ele></trkpt><trkpt lat="45.838731" lon="9.440695"><time>2024-03-23T10:04:39.000Z</time><ele>1191.6</ele></trkpt><trkpt lat="45.838733" lon="9.440693"><time>2024-03-23T10:04:40.000Z</time><ele>1192</ele></trkpt><trkpt lat="45.838741" lon="9.440687"><time>2024-03-23T10:04:41.000Z</time><ele>1192.2</ele></trkpt><trkpt lat="45.83875" lon="9.44068"><time>2024-03-23T10:04:42.000Z</time><ele>1192.4</ele></trkpt><trkpt lat="45.838755" lon="9.440674"><time>2024-03-23T10:04:43.000Z</time><ele>1192.6</ele></trkpt><trkpt lat="45.838757" lon="9.440672"><time>2024-03-23T10:04:44.000Z</time><ele>1192.8</ele></trkpt><trkpt lat="45.838757" lon="9.440671"><time>2024-03-23T10:04:45.000Z</time><ele>1193.2</ele></trkpt><trkpt lat="45.838756" lon="9.44067"><time>2024-03-23T10:04:46.000Z</time><ele>1193.4</ele></trkpt><trkpt lat="45.838757" lon="9.440667"><time>2024-03-23T10:04:47.000Z</time><ele>1193.6</ele></trkpt><trkpt lat="45.838758" lon="9.440664"><time>2024-03-23T10:04:48.000Z</time><ele>1193.8</ele></trkpt><trkpt lat="45.83876" lon="9.440664"><time>2024-03-23T10:04:49.000Z</time><ele>1193.8</ele></trkpt><trkpt lat="45.838761" lon="9.44066"><time>2024-03-23T10:04:50.000Z</time><ele>1194</ele></trkpt><trkpt lat="45.838767" lon="9.440663"><time>2024-03-23T10:04:51.000Z</time><ele>1194.2</ele></trkpt><trkpt lat="45.838778" lon="9.440659"><time>2024-03-23T10:04:52.000Z</time><ele>1194.4</ele></trkpt><trkpt lat="45.838782" lon="9.440653"><time>2024-03-23T10:04:53.000Z</time><ele>1194.4</ele></trkpt><trkpt lat="45.838782" lon="9.440649"><time>2024-03-23T10:04:54.000Z</time><ele>1194.6</ele></trkpt><trkpt lat="45.838781" lon="9.440646"><time>2024-03-23T10:04:55.000Z</time><ele>1194.8</ele></trkpt><trkpt lat="45.838777" lon="9.440645"><time>2024-03-23T10:04:56.000Z</time><ele>1194.8</ele></trkpt><trkpt lat="45.838778" lon="9.440643"><time>2024-03-23T10:04:57.000Z</time><ele>1195</ele></trkpt><trkpt lat="45.83878" lon="9.440642"><time>2024-03-23T10:04:58.000Z</time><ele>1195.2</ele></trkpt><trkpt lat="45.83878" lon="9.440639"><time>2024-03-23T10:04:59.000Z</time><ele>1195.4</ele></trkpt><trkpt lat="45.838781" lon="9.440636"><time>2024-03-23T10:05:00.000Z</time><ele>1195.6</ele></trkpt><trkpt lat="45.83878" lon="9.440636"><time>2024-03-23T10:05:01.000Z</time><ele>1195.8</ele></trkpt><trkpt lat="45.83878" lon="9.440632"><time>2024-03-23T10:05:02.000Z</time><ele>1196</ele></trkpt><trkpt lat="45.838782" lon="9.440627"><time>2024-03-23T10:05:03.000Z</time><ele>1196.2</ele></trkpt><trkpt lat="45.838787" lon="9.440623"><time>2024-03-23T10:05:04.000Z</time><ele>1196.4</ele></trkpt><trkpt lat="45.83879" lon="9.440625"><time>2024-03-23T10:05:05.000Z</time><ele>1196.6</ele></trkpt><trkpt lat="45.838793" lon="9.440625"><time>2024-03-23T10:05:06.000Z</time><ele>1196.8</ele></trkpt><trkpt lat="45.838795" lon="9.440626"><time>2024-03-23T10:05:07.000Z</time><ele>1196.8</ele></trkpt><trkpt lat="45.838798" lon="9.440626"><time>2024-03-23T10:05:08.000Z</time><ele>1197.2</ele></trkpt><trkpt lat="45.838799" lon="9.440627"><time>2024-03-23T10:05:09.000Z</time><ele>1197.6</ele></trkpt><trkpt lat="45.838802" lon="9.440627"><time>2024-03-23T10:05:10.000Z</time><ele>1197.6</ele></trkpt><trkpt lat="45.838805" lon="9.440624"><time>2024-03-23T10:05:11.000Z</time><ele>1197.8</ele></trkpt><trkpt lat="45.838808" lon="9.440624"><time>2024-03-23T10:05:12.000Z</time><ele>1198</ele></trkpt><trkpt lat="45.838809" lon="9.44062"><time>2024-03-23T10:05:13.000Z</time><ele>1198</ele></trkpt><trkpt lat="45.838812" lon="9.440619"><time>2024-03-23T10:05:14.000Z</time><ele>1198</ele></trkpt><trkpt lat="45.83882" lon="9.440609"><time>2024-03-23T10:05:15.000Z</time><ele>1198</ele></trkpt><trkpt lat="45.838821" lon="9.440604"><time>2024-03-23T10:05:16.000Z</time><ele>1198.2</ele></trkpt><trkpt lat="45.838821" lon="9.440602"><time>2024-03-23T10:05:17.000Z</time><ele>1198.4</ele></trkpt><trkpt lat="45.83882" lon="9.440599"><time>2024-03-23T10:05:18.000Z</time><ele>1198.6</ele></trkpt><trkpt lat="45.838827" lon="9.440596"><time>2024-03-23T10:05:19.000Z</time><ele>1198.6</ele></trkpt><trkpt lat="45.838824" lon="9.440596"><time>2024-03-23T10:05:20.000Z</time><ele>1198.6</ele></trkpt><trkpt lat="45.838823" lon="9.440594"><time>2024-03-23T10:05:21.000Z</time><ele>1198.8</ele></trkpt><trkpt lat="45.838823" lon="9.440593"><time>2024-03-23T10:05:22.000Z</time><ele>1199</ele></trkpt><trkpt lat="45.838823" lon="9.44059"><time>2024-03-23T10:05:23.000Z</time><ele>1199</ele></trkpt><trkpt lat="45.838824" lon="9.440586"><time>2024-03-23T10:05:24.000Z</time><ele>1199</ele></trkpt><trkpt lat="45.838825" lon="9.440583"><time>2024-03-23T10:05:25.000Z</time><ele>1199</ele></trkpt><trkpt lat="45.838824" lon="9.440581"><time>2024-03-23T10:05:26.000Z</time><ele>1199.2</ele></trkpt><trkpt lat="45.838821" lon="9.440585"><time>2024-03-23T10:05:27.000Z</time><ele>1199.6</ele></trkpt><trkpt lat="45.838821" lon="9.440585"><time>2024-03-23T10:05:28.000Z</time><ele>1200</ele></trkpt><trkpt lat="45.838823" lon="9.440583"><time>2024-03-23T10:05:29.000Z</time><ele>1200</ele></trkpt><trkpt lat="45.838822" lon="9.440582"><time>2024-03-23T10:05:30.000Z</time><ele>1200.2</ele></trkpt><trkpt lat="45.838821" lon="9.44058"><time>2024-03-23T10:05:31.000Z</time><ele>1200.2</ele></trkpt><trkpt lat="45.83882" lon="9.440578"><time>2024-03-23T10:05:32.000Z</time><ele>1200.2</ele></trkpt><trkpt lat="45.838817" lon="9.440576"><time>2024-03-23T10:05:33.000Z</time><ele>1200.4</ele></trkpt><trkpt lat="45.838815" lon="9.440574"><time>2024-03-23T10:05:34.000Z</time><ele>1200.6</ele></trkpt><trkpt lat="45.838814" lon="9.44057"><time>2024-03-23T10:05:35.000Z</time><ele>1200.6</ele></trkpt><trkpt lat="45.838813" lon="9.440567"><time>2024-03-23T10:05:36.000Z</time><ele>1201.2</ele></trkpt><trkpt lat="45.83881" lon="9.440565"><time>2024-03-23T10:05:37.000Z</time><ele>1201.4</ele></trkpt><trkpt lat="45.838809" lon="9.44056"><time>2024-03-23T10:05:38.000Z</time><ele>1201.6</ele></trkpt><trkpt lat="45.83881" lon="9.440553"><time>2024-03-23T10:05:39.000Z</time><ele>1201.6</ele></trkpt><trkpt lat="45.838812" lon="9.44055"><time>2024-03-23T10:05:40.000Z</time><ele>1201.6</ele></trkpt><trkpt lat="45.83881" lon="9.440547"><time>2024-03-23T10:05:41.000Z</time><ele>1201.8</ele></trkpt><trkpt lat="45.838809" lon="9.440545"><time>2024-03-23T10:05:42.000Z</time><ele>1202</ele></trkpt><trkpt lat="45.838808" lon="9.440542"><time>2024-03-23T10:05:43.000Z</time><ele>1202</ele></trkpt><trkpt lat="45.838806" lon="9.440538"><time>2024-03-23T10:05:44.000Z</time><ele>1202.2</ele></trkpt><trkpt lat="45.838803" lon="9.440536"><time>2024-03-23T10:05:45.000Z</time><ele>1202.2</ele></trkpt><trkpt lat="45.838799" lon="9.440535"><time>2024-03-23T10:05:46.000Z</time><ele>1202.4</ele></trkpt><trkpt lat="45.838796" lon="9.440533"><time>2024-03-23T10:05:47.000Z</time><ele>1202.6</ele></trkpt><trkpt lat="45.838805" lon="9.440528"><time>2024-03-23T10:05:48.000Z</time><ele>1203</ele></trkpt><trkpt lat="45.838809" lon="9.440524"><time>2024-03-23T10:05:49.000Z</time><ele>1203</ele></trkpt><trkpt lat="45.83881" lon="9.440522"><time>2024-03-23T10:05:50.000Z</time><ele>1203.2</ele></trkpt><trkpt lat="45.838812" lon="9.44052"><time>2024-03-23T10:05:51.000Z</time><ele>1203.2</ele></trkpt><trkpt lat="45.838817" lon="9.440519"><time>2024-03-23T10:05:52.000Z</time><ele>1203.4</ele></trkpt><trkpt lat="45.838825" lon="9.440515"><time>2024-03-23T10:05:53.000Z</time><ele>1203.6</ele></trkpt><trkpt lat="45.838828" lon="9.440512"><time>2024-03-23T10:05:54.000Z</time><ele>1203.6</ele></trkpt><trkpt lat="45.838829" lon="9.440509"><time>2024-03-23T10:05:55.000Z</time><ele>1203.8</ele></trkpt><trkpt lat="45.838827" lon="9.440507"><time>2024-03-23T10:05:56.000Z</time><ele>1204.2</ele></trkpt><trkpt lat="45.838821" lon="9.440503"><time>2024-03-23T10:05:57.000Z</time><ele>1204.2</ele></trkpt><trkpt lat="45.838817" lon="9.440496"><time>2024-03-23T10:05:58.000Z</time><ele>1204.4</ele></trkpt><trkpt lat="45.838815" lon="9.440492"><time>2024-03-23T10:05:59.000Z</time><ele>1204.6</ele></trkpt><trkpt lat="45.838814" lon="9.44049"><time>2024-03-23T10:06:00.000Z</time><ele>1205</ele></trkpt><trkpt lat="45.838814" lon="9.44049"><time>2024-03-23T10:06:01.000Z</time><ele>1205.2</ele></trkpt><trkpt lat="45.838814" lon="9.44049"><time>2024-03-23T10:06:02.000Z</time><ele>1205.4</ele></trkpt><trkpt lat="45.838814" lon="9.44049"><time>2024-03-23T10:06:03.000Z</time><ele>1205.6</ele></trkpt><trkpt lat="45.838814" lon="9.44049"><time>2024-03-23T10:06:04.000Z</time><ele>1205.6</ele></trkpt><trkpt lat="45.838814" lon="9.44049"><time>2024-03-23T10:06:05.000Z</time><ele>1205.8</ele></trkpt><trkpt lat="45.838814" lon="9.44049"><time>2024-03-23T10:06:06.000Z</time><ele>1205.8</ele></trkpt><trkpt lat="45.838814" lon="9.44049"><time>2024-03-23T10:06:07.000Z</time><ele>1205.8</ele></trkpt><trkpt lat="45.838814" lon="9.44049"><time>2024-03-23T10:06:08.000Z</time><ele>1206</ele></trkpt><trkpt lat="45.838814" lon="9.44049"><time>2024-03-23T10:06:09.000Z</time><ele>1206.2</ele></trkpt><trkpt lat="45.838814" lon="9.44049"><time>2024-03-23T10:06:10.000Z</time><ele>1206.4</ele></trkpt><trkpt lat="45.838814" lon="9.44049"><time>2024-03-23T10:06:11.000Z</time><ele>1206.6</ele></trkpt><trkpt lat="45.838814" lon="9.44049"><time>2024-03-23T10:06:12.000Z</time><ele>1206.6</ele></trkpt><trkpt lat="45.838815" lon="9.44049"><time>2024-03-23T10:06:13.000Z</time><ele>1207</ele></trkpt><trkpt lat="45.838817" lon="9.44049"><time>2024-03-23T10:06:14.000Z</time><ele>1207.2</ele></trkpt><trkpt lat="45.838817" lon="9.44049"><time>2024-03-23T10:06:15.000Z</time><ele>1207.4</ele></trkpt><trkpt lat="45.838818" lon="9.440489"><time>2024-03-23T10:06:16.000Z</time><ele>1207.6</ele></trkpt><trkpt lat="45.838818" lon="9.440483"><time>2024-03-23T10:06:17.000Z</time><ele>1207.8</ele></trkpt><trkpt lat="45.838819" lon="9.440479"><time>2024-03-23T10:06:18.000Z</time><ele>1207.8</ele></trkpt><trkpt lat="45.83882" lon="9.440476"><time>2024-03-23T10:06:19.000Z</time><ele>1207.8</ele></trkpt><trkpt lat="45.83882" lon="9.440475"><time>2024-03-23T10:06:20.000Z</time><ele>1208.2</ele></trkpt><trkpt lat="45.83882" lon="9.440468"><time>2024-03-23T10:06:21.000Z</time><ele>1208.4</ele></trkpt><trkpt lat="45.83882" lon="9.440466"><time>2024-03-23T10:06:22.000Z</time><ele>1208.6</ele></trkpt><trkpt lat="45.838819" lon="9.440463"><time>2024-03-23T10:06:23.000Z</time><ele>1208.6</ele></trkpt><trkpt lat="45.838818" lon="9.440462"><time>2024-03-23T10:06:24.000Z</time><ele>1208.8</ele></trkpt><trkpt lat="45.838818" lon="9.440462"><time>2024-03-23T10:06:25.000Z</time><ele>1208.8</ele></trkpt><trkpt lat="45.838818" lon="9.440461"><time>2024-03-23T10:06:26.000Z</time><ele>1209</ele></trkpt><trkpt lat="45.838818" lon="9.440459"><time>2024-03-23T10:06:27.000Z</time><ele>1209.4</ele></trkpt><trkpt lat="45.838815" lon="9.440456"><time>2024-03-23T10:06:28.000Z</time><ele>1209.6</ele></trkpt><trkpt lat="45.838815" lon="9.440452"><time>2024-03-23T10:06:29.000Z</time><ele>1209.6</ele></trkpt><trkpt lat="45.838814" lon="9.440448"><time>2024-03-23T10:06:30.000Z</time><ele>1209.8</ele></trkpt><trkpt lat="45.838814" lon="9.440443"><time>2024-03-23T10:06:31.000Z</time><ele>1209.8</ele></trkpt><trkpt lat="45.838814" lon="9.440441"><time>2024-03-23T10:06:32.000Z</time><ele>1209.8</ele></trkpt><trkpt lat="45.838814" lon="9.44044"><time>2024-03-23T10:06:33.000Z</time><ele>1210</ele></trkpt><trkpt lat="45.838814" lon="9.44044"><time>2024-03-23T10:06:34.000Z</time><ele>1210.2</ele></trkpt><trkpt lat="45.838815" lon="9.440438"><time>2024-03-23T10:06:35.000Z</time><ele>1210.4</ele></trkpt><trkpt lat="45.838815" lon="9.440436"><time>2024-03-23T10:06:36.000Z</time><ele>1210.4</ele></trkpt><trkpt lat="45.838815" lon="9.440435"><time>2024-03-23T10:06:37.000Z</time><ele>1210.6</ele></trkpt><trkpt lat="45.838815" lon="9.440434"><time>2024-03-23T10:06:38.000Z</time><ele>1210.6</ele></trkpt><trkpt lat="45.838815" lon="9.440431"><time>2024-03-23T10:06:39.000Z</time><ele>1210.8</ele></trkpt><trkpt lat="45.838815" lon="9.440428"><time>2024-03-23T10:06:40.000Z</time><ele>1210.8</ele></trkpt><trkpt lat="45.838815" lon="9.440426"><time>2024-03-23T10:06:41.000Z</time><ele>1211</ele></trkpt><trkpt lat="45.838815" lon="9.440421"><time>2024-03-23T10:06:42.000Z</time><ele>1211.2</ele></trkpt><trkpt lat="45.838815" lon="9.440416"><time>2024-03-23T10:06:43.000Z</time><ele>1211.4</ele></trkpt><trkpt lat="45.838815" lon="9.440415"><time>2024-03-23T10:06:44.000Z</time><ele>1211.6</ele></trkpt><trkpt lat="45.838815" lon="9.440415"><time>2024-03-23T10:06:45.000Z</time><ele>1211.8</ele></trkpt><trkpt lat="45.838815" lon="9.440415"><time>2024-03-23T10:06:46.000Z</time><ele>1211.8</ele></trkpt><trkpt lat="45.838815" lon="9.440415"><time>2024-03-23T10:06:47.000Z</time><ele>1212</ele></trkpt><trkpt lat="45.838815" lon="9.440415"><time>2024-03-23T10:06:48.000Z</time><ele>1212</ele></trkpt><trkpt lat="45.838815" lon="9.440415"><time>2024-03-23T10:06:49.000Z</time><ele>1212.2</ele></trkpt><trkpt lat="45.838817" lon="9.440415"><time>2024-03-23T10:06:50.000Z</time><ele>1212.4</ele></trkpt><trkpt lat="45.83882" lon="9.440415"><time>2024-03-23T10:06:51.000Z</time><ele>1212.6</ele></trkpt><trkpt lat="45.838824" lon="9.440415"><time>2024-03-23T10:06:52.000Z</time><ele>1212.6</ele></trkpt><trkpt lat="45.838831" lon="9.440415"><time>2024-03-23T10:06:53.000Z</time><ele>1212.8</ele></trkpt><trkpt lat="45.838838" lon="9.440415"><time>2024-03-23T10:06:54.000Z</time><ele>1212.8</ele></trkpt><trkpt lat="45.838843" lon="9.440415"><time>2024-03-23T10:06:55.000Z</time><ele>1212.8</ele></trkpt><trkpt lat="45.83885" lon="9.440415"><time>2024-03-23T10:06:56.000Z</time><ele>1212.8</ele></trkpt><trkpt lat="45.838857" lon="9.440415"><time>2024-03-23T10:06:57.000Z</time><ele>1212.8</ele></trkpt><trkpt lat="45.838861" lon="9.440417"><time>2024-03-23T10:06:58.000Z</time><ele>1212.8</ele></trkpt><trkpt lat="45.838868" lon="9.440418"><time>2024-03-23T10:06:59.000Z</time><ele>1212.8</ele></trkpt><trkpt lat="45.838875" lon="9.44042"><time>2024-03-23T10:07:00.000Z</time><ele>1212.8</ele></trkpt><trkpt lat="45.83888" lon="9.440421"><time>2024-03-23T10:07:01.000Z</time><ele>1212.6</ele></trkpt><trkpt lat="45.838882" lon="9.440421"><time>2024-03-23T10:07:02.000Z</time><ele>1212.6</ele></trkpt><trkpt lat="45.838883" lon="9.440422"><time>2024-03-23T10:07:03.000Z</time><ele>1212.6</ele></trkpt><trkpt lat="45.838884" lon="9.440423"><time>2024-03-23T10:07:04.000Z</time><ele>1212.6</ele></trkpt><trkpt lat="45.838884" lon="9.440424"><time>2024-03-23T10:07:05.000Z</time><ele>1212.6</ele></trkpt><trkpt lat="45.838886" lon="9.440424"><time>2024-03-23T10:07:06.000Z</time><ele>1212.6</ele></trkpt><trkpt lat="45.838886" lon="9.440425"><time>2024-03-23T10:07:07.000Z</time><ele>1212.6</ele></trkpt><trkpt lat="45.838886" lon="9.440425"><time>2024-03-23T10:07:08.000Z</time><ele>1212.4</ele></trkpt><trkpt lat="45.838888" lon="9.440425"><time>2024-03-23T10:07:09.000Z</time><ele>1212.4</ele></trkpt><trkpt lat="45.83889" lon="9.440425"><time>2024-03-23T10:07:10.000Z</time><ele>1212.6</ele></trkpt><trkpt lat="45.838891" lon="9.440425"><time>2024-03-23T10:07:11.000Z</time><ele>1212.6</ele></trkpt><trkpt lat="45.838891" lon="9.440425"><time>2024-03-23T10:07:12.000Z</time><ele>1212.6</ele></trkpt><trkpt lat="45.838892" lon="9.440425"><time>2024-03-23T10:07:13.000Z</time><ele>1212.6</ele></trkpt><trkpt lat="45.838893" lon="9.440425"><time>2024-03-23T10:07:14.000Z</time><ele>1212.6</ele></trkpt><trkpt lat="45.838894" lon="9.440425"><time>2024-03-23T10:07:15.000Z</time><ele>1212.6</ele></trkpt><trkpt lat="45.838895" lon="9.440425"><time>2024-03-23T10:07:16.000Z</time><ele>1212.8</ele></trkpt><trkpt lat="45.838895" lon="9.440424"><time>2024-03-23T10:07:17.000Z</time><ele>1212.8</ele></trkpt><trkpt lat="45.838895" lon="9.440424"><time>2024-03-23T10:07:18.000Z</time><ele>1212.8</ele></trkpt><trkpt lat="45.838895" lon="9.440424"><time>2024-03-23T10:07:19.000Z</time><ele>1212.8</ele></trkpt><trkpt lat="45.838895" lon="9.440424"><time>2024-03-23T10:07:20.000Z</time><ele>1212.8</ele></trkpt><trkpt lat="45.838896" lon="9.440424"><time>2024-03-23T10:07:21.000Z</time><ele>1212.8</ele></trkpt><trkpt lat="45.838896" lon="9.440423"><time>2024-03-23T10:07:22.000Z</time><ele>1212.8</ele></trkpt><trkpt lat="45.838896" lon="9.440423"><time>2024-03-23T10:07:23.000Z</time><ele>1213</ele></trkpt><trkpt lat="45.838896" lon="9.440423"><time>2024-03-23T10:07:24.000Z</time><ele>1213</ele></trkpt><trkpt lat="45.838895" lon="9.440423"><time>2024-03-23T10:07:25.000Z</time><ele>1213.2</ele></trkpt><trkpt lat="45.838895" lon="9.440422"><time>2024-03-23T10:07:26.000Z</time><ele>1213.6</ele></trkpt><trkpt lat="45.838895" lon="9.440422"><time>2024-03-23T10:07:27.000Z</time><ele>1214</ele></trkpt><trkpt lat="45.838895" lon="9.440421"><time>2024-03-23T10:07:28.000Z</time><ele>1214.4</ele></trkpt><trkpt lat="45.838895" lon="9.44042"><time>2024-03-23T10:07:29.000Z</time><ele>1214.6</ele></trkpt><trkpt lat="45.838895" lon="9.440418"><time>2024-03-23T10:07:30.000Z</time><ele>1214.8</ele></trkpt><trkpt lat="45.838895" lon="9.440418"><time>2024-03-23T10:07:31.000Z</time><ele>1215</ele></trkpt><trkpt lat="45.838895" lon="9.440416"><time>2024-03-23T10:07:32.000Z</time><ele>1215.2</ele></trkpt><trkpt lat="45.838895" lon="9.440416"><time>2024-03-23T10:07:33.000Z</time><ele>1215.4</ele></trkpt><trkpt lat="45.838895" lon="9.440415"><time>2024-03-23T10:07:34.000Z</time><ele>1215.6</ele></trkpt><trkpt lat="45.838896" lon="9.440415"><time>2024-03-23T10:07:35.000Z</time><ele>1215.6</ele></trkpt><trkpt lat="45.838896" lon="9.440414"><time>2024-03-23T10:07:36.000Z</time><ele>1215.8</ele></trkpt><trkpt lat="45.838897" lon="9.440412"><time>2024-03-23T10:07:37.000Z</time><ele>1216</ele></trkpt><trkpt lat="45.838897" lon="9.44041"><time>2024-03-23T10:07:38.000Z</time><ele>1216</ele></trkpt><trkpt lat="45.838897" lon="9.440408"><time>2024-03-23T10:07:39.000Z</time><ele>1216</ele></trkpt><trkpt lat="45.838898" lon="9.440405"><time>2024-03-23T10:07:40.000Z</time><ele>1216.2</ele></trkpt><trkpt lat="45.838898" lon="9.440402"><time>2024-03-23T10:07:41.000Z</time><ele>1216.2</ele></trkpt><trkpt lat="45.838898" lon="9.440399"><time>2024-03-23T10:07:42.000Z</time><ele>1216.2</ele></trkpt><trkpt lat="45.838898" lon="9.440397"><time>2024-03-23T10:07:43.000Z</time><ele>1216.4</ele></trkpt><trkpt lat="45.838898" lon="9.440396"><time>2024-03-23T10:07:44.000Z</time><ele>1216.6</ele></trkpt><trkpt lat="45.838897" lon="9.440394"><time>2024-03-23T10:07:45.000Z</time><ele>1216.8</ele></trkpt><trkpt lat="45.838897" lon="9.440391"><time>2024-03-23T10:07:46.000Z</time><ele>1217.2</ele></trkpt><trkpt lat="45.838897" lon="9.440387"><time>2024-03-23T10:07:47.000Z</time><ele>1217.4</ele></trkpt><trkpt lat="45.838897" lon="9.440384"><time>2024-03-23T10:07:48.000Z</time><ele>1217.8</ele></trkpt><trkpt lat="45.838897" lon="9.440382"><time>2024-03-23T10:07:49.000Z</time><ele>1217.8</ele></trkpt><trkpt lat="45.838897" lon="9.440381"><time>2024-03-23T10:07:50.000Z</time><ele>1218</ele></trkpt><trkpt lat="45.838897" lon="9.440379"><time>2024-03-23T10:07:51.000Z</time><ele>1218</ele></trkpt><trkpt lat="45.838896" lon="9.440379"><time>2024-03-23T10:07:52.000Z</time><ele>1218</ele></trkpt><trkpt lat="45.838896" lon="9.440378"><time>2024-03-23T10:07:53.000Z</time><ele>1218</ele></trkpt><trkpt lat="45.838896" lon="9.440376"><time>2024-03-23T10:07:54.000Z</time><ele>1218</ele></trkpt><trkpt lat="45.838896" lon="9.440371"><time>2024-03-23T10:07:55.000Z</time><ele>1218.2</ele></trkpt><trkpt lat="45.838896" lon="9.440368"><time>2024-03-23T10:07:56.000Z</time><ele>1218.4</ele></trkpt><trkpt lat="45.838896" lon="9.440365"><time>2024-03-23T10:07:57.000Z</time><ele>1218.4</ele></trkpt><trkpt lat="45.838897" lon="9.440363"><time>2024-03-23T10:07:58.000Z</time><ele>1218.6</ele></trkpt><trkpt lat="45.838897" lon="9.44036"><time>2024-03-23T10:07:59.000Z</time><ele>1218.6</ele></trkpt><trkpt lat="45.838898" lon="9.440358"><time>2024-03-23T10:08:00.000Z</time><ele>1218.8</ele></trkpt><trkpt lat="45.838898" lon="9.440357"><time>2024-03-23T10:08:01.000Z</time><ele>1218.8</ele></trkpt><trkpt lat="45.838898" lon="9.440355"><time>2024-03-23T10:08:02.000Z</time><ele>1219</ele></trkpt><trkpt lat="45.838898" lon="9.440354"><time>2024-03-23T10:08:03.000Z</time><ele>1219.4</ele></trkpt><trkpt lat="45.838898" lon="9.440352"><time>2024-03-23T10:08:04.000Z</time><ele>1219.6</ele></trkpt><trkpt lat="45.838898" lon="9.440351"><time>2024-03-23T10:08:05.000Z</time><ele>1219.8</ele></trkpt><trkpt lat="45.838898" lon="9.44035"><time>2024-03-23T10:08:06.000Z</time><ele>1220</ele></trkpt><trkpt lat="45.838898" lon="9.440349"><time>2024-03-23T10:08:07.000Z</time><ele>1220</ele></trkpt><trkpt lat="45.838898" lon="9.440347"><time>2024-03-23T10:08:08.000Z</time><ele>1220.4</ele></trkpt><trkpt lat="45.838898" lon="9.440346"><time>2024-03-23T10:08:09.000Z</time><ele>1220.6</ele></trkpt><trkpt lat="45.838898" lon="9.440344"><time>2024-03-23T10:08:10.000Z</time><ele>1220.8</ele></trkpt><trkpt lat="45.838898" lon="9.440342"><time>2024-03-23T10:08:11.000Z</time><ele>1221</ele></trkpt><trkpt lat="45.838899" lon="9.440338"><time>2024-03-23T10:08:12.000Z</time><ele>1221.2</ele></trkpt><trkpt lat="45.838899" lon="9.440335"><time>2024-03-23T10:08:13.000Z</time><ele>1221.2</ele></trkpt><trkpt lat="45.8389" lon="9.440332"><time>2024-03-23T10:08:14.000Z</time><ele>1221.4</ele></trkpt><trkpt lat="45.838903" lon="9.440328"><time>2024-03-23T10:08:15.000Z</time><ele>1221.6</ele></trkpt><trkpt lat="45.838907" lon="9.440324"><time>2024-03-23T10:08:16.000Z</time><ele>1222</ele></trkpt><trkpt lat="45.838911" lon="9.44032"><time>2024-03-23T10:08:17.000Z</time><ele>1222.4</ele></trkpt><trkpt lat="45.838915" lon="9.440316"><time>2024-03-23T10:08:18.000Z</time><ele>1222.6</ele></trkpt><trkpt lat="45.838918" lon="9.440312"><time>2024-03-23T10:08:19.000Z</time><ele>1222.8</ele></trkpt><trkpt lat="45.838921" lon="9.440306"><time>2024-03-23T10:08:20.000Z</time><ele>1222.8</ele></trkpt><trkpt lat="45.838923" lon="9.4403"><time>2024-03-23T10:08:21.000Z</time><ele>1222.8</ele></trkpt><trkpt lat="45.838924" lon="9.440294"><time>2024-03-23T10:08:22.000Z</time><ele>1223</ele></trkpt><trkpt lat="45.838926" lon="9.440289"><time>2024-03-23T10:08:23.000Z</time><ele>1223</ele></trkpt><trkpt lat="45.838927" lon="9.440284"><time>2024-03-23T10:08:24.000Z</time><ele>1223</ele></trkpt><trkpt lat="45.838929" lon="9.440281"><time>2024-03-23T10:08:25.000Z</time><ele>1223.2</ele></trkpt><trkpt lat="45.83893" lon="9.440279"><time>2024-03-23T10:08:26.000Z</time><ele>1223.4</ele></trkpt><trkpt lat="45.838932" lon="9.440277"><time>2024-03-23T10:08:27.000Z</time><ele>1223.4</ele></trkpt><trkpt lat="45.838935" lon="9.440275"><time>2024-03-23T10:08:28.000Z</time><ele>1223.6</ele></trkpt><trkpt lat="45.838938" lon="9.440273"><time>2024-03-23T10:08:29.000Z</time><ele>1223.8</ele></trkpt><trkpt lat="45.838941" lon="9.44027"><time>2024-03-23T10:08:30.000Z</time><ele>1224</ele></trkpt><trkpt lat="45.838943" lon="9.440268"><time>2024-03-23T10:08:31.000Z</time><ele>1224.2</ele></trkpt><trkpt lat="45.838945" lon="9.440267"><time>2024-03-23T10:08:32.000Z</time><ele>1224.2</ele></trkpt><trkpt lat="45.838947" lon="9.440266"><time>2024-03-23T10:08:33.000Z</time><ele>1224.4</ele></trkpt><trkpt lat="45.838949" lon="9.440265"><time>2024-03-23T10:08:34.000Z</time><ele>1224.4</ele></trkpt><trkpt lat="45.83895" lon="9.440265"><time>2024-03-23T10:08:35.000Z</time><ele>1224.6</ele></trkpt><trkpt lat="45.838952" lon="9.440264"><time>2024-03-23T10:08:36.000Z</time><ele>1224.8</ele></trkpt><trkpt lat="45.838953" lon="9.440264"><time>2024-03-23T10:08:37.000Z</time><ele>1225</ele></trkpt><trkpt lat="45.838954" lon="9.440264"><time>2024-03-23T10:08:38.000Z</time><ele>1225.4</ele></trkpt><trkpt lat="45.838956" lon="9.440264"><time>2024-03-23T10:08:39.000Z</time><ele>1225.6</ele></trkpt><trkpt lat="45.838957" lon="9.440264"><time>2024-03-23T10:08:40.000Z</time><ele>1225.8</ele></trkpt><trkpt lat="45.838958" lon="9.440263"><time>2024-03-23T10:08:41.000Z</time><ele>1226</ele></trkpt><trkpt lat="45.838959" lon="9.440263"><time>2024-03-23T10:08:42.000Z</time><ele>1226</ele></trkpt><trkpt lat="45.83896" lon="9.440263"><time>2024-03-23T10:08:43.000Z</time><ele>1226.2</ele></trkpt><trkpt lat="45.838962" lon="9.440263"><time>2024-03-23T10:08:44.000Z</time><ele>1226.4</ele></trkpt><trkpt lat="45.838964" lon="9.440264"><time>2024-03-23T10:08:45.000Z</time><ele>1226.4</ele></trkpt><trkpt lat="45.838966" lon="9.440264"><time>2024-03-23T10:08:46.000Z</time><ele>1226.6</ele></trkpt><trkpt lat="45.838968" lon="9.440265"><time>2024-03-23T10:08:47.000Z</time><ele>1227</ele></trkpt><trkpt lat="45.83897" lon="9.440266"><time>2024-03-23T10:08:48.000Z</time><ele>1227.4</ele></trkpt><trkpt lat="45.838972" lon="9.440266"><time>2024-03-23T10:08:49.000Z</time><ele>1227.6</ele></trkpt><trkpt lat="45.838974" lon="9.440266"><time>2024-03-23T10:08:50.000Z</time><ele>1227.6</ele></trkpt><trkpt lat="45.838976" lon="9.440267"><time>2024-03-23T10:08:51.000Z</time><ele>1227.8</ele></trkpt><trkpt lat="45.838978" lon="9.440267"><time>2024-03-23T10:08:52.000Z</time><ele>1228</ele></trkpt><trkpt lat="45.838979" lon="9.440267"><time>2024-03-23T10:08:53.000Z</time><ele>1228.2</ele></trkpt><trkpt lat="45.838981" lon="9.440267"><time>2024-03-23T10:08:54.000Z</time><ele>1228.4</ele></trkpt><trkpt lat="45.838983" lon="9.440267"><time>2024-03-23T10:08:55.000Z</time><ele>1228.6</ele></trkpt><trkpt lat="45.838985" lon="9.440267"><time>2024-03-23T10:08:56.000Z</time><ele>1228.8</ele></trkpt><trkpt lat="45.838988" lon="9.440267"><time>2024-03-23T10:08:57.000Z</time><ele>1229</ele></trkpt><trkpt lat="45.838991" lon="9.440268"><time>2024-03-23T10:08:58.000Z</time><ele>1229.2</ele></trkpt><trkpt lat="45.838993" lon="9.440268"><time>2024-03-23T10:08:59.000Z</time><ele>1229.2</ele></trkpt><trkpt lat="45.838996" lon="9.440268"><time>2024-03-23T10:09:00.000Z</time><ele>1229.4</ele></trkpt><trkpt lat="45.838999" lon="9.440269"><time>2024-03-23T10:09:01.000Z</time><ele>1229.6</ele></trkpt><trkpt lat="45.839002" lon="9.440269"><time>2024-03-23T10:09:02.000Z</time><ele>1229.8</ele></trkpt><trkpt lat="45.839004" lon="9.440269"><time>2024-03-23T10:09:03.000Z</time><ele>1229.8</ele></trkpt><trkpt lat="45.839006" lon="9.440269"><time>2024-03-23T10:09:04.000Z</time><ele>1230</ele></trkpt><trkpt lat="45.839008" lon="9.440269"><time>2024-03-23T10:09:05.000Z</time><ele>1230</ele></trkpt><trkpt lat="45.83901" lon="9.440269"><time>2024-03-23T10:09:06.000Z</time><ele>1230.2</ele></trkpt><trkpt lat="45.839012" lon="9.440269"><time>2024-03-23T10:09:07.000Z</time><ele>1230.2</ele></trkpt><trkpt lat="45.839018" lon="9.440264"><time>2024-03-23T10:09:08.000Z</time><ele>1230.2</ele></trkpt><trkpt lat="45.839023" lon="9.440252"><time>2024-03-23T10:09:09.000Z</time><ele>1230.6</ele></trkpt><trkpt lat="45.839029" lon="9.440238"><time>2024-03-23T10:09:10.000Z</time><ele>1230.8</ele></trkpt><trkpt lat="45.839034" lon="9.440227"><time>2024-03-23T10:09:11.000Z</time><ele>1231</ele></trkpt><trkpt lat="45.839038" lon="9.440219"><time>2024-03-23T10:09:12.000Z</time><ele>1231</ele></trkpt><trkpt lat="45.839045" lon="9.44021"><time>2024-03-23T10:09:13.000Z</time><ele>1231.4</ele></trkpt><trkpt lat="45.839054" lon="9.440203"><time>2024-03-23T10:09:14.000Z</time><ele>1231.4</ele></trkpt><trkpt lat="45.839064" lon="9.440197"><time>2024-03-23T10:09:15.000Z</time><ele>1231.8</ele></trkpt><trkpt lat="45.839073" lon="9.440192"><time>2024-03-23T10:09:16.000Z</time><ele>1232</ele></trkpt><trkpt lat="45.839082" lon="9.440189"><time>2024-03-23T10:09:17.000Z</time><ele>1232</ele></trkpt><trkpt lat="45.839085" lon="9.440195"><time>2024-03-23T10:09:18.000Z</time><ele>1232.2</ele></trkpt><trkpt lat="45.839089" lon="9.440203"><time>2024-03-23T10:09:19.000Z</time><ele>1232.2</ele></trkpt><trkpt lat="45.839094" lon="9.440208"><time>2024-03-23T10:09:20.000Z</time><ele>1232.4</ele></trkpt><trkpt lat="45.839099" lon="9.44021"><time>2024-03-23T10:09:21.000Z</time><ele>1232.4</ele></trkpt><trkpt lat="45.839103" lon="9.440211"><time>2024-03-23T10:09:22.000Z</time><ele>1232.6</ele></trkpt><trkpt lat="45.839106" lon="9.440213"><time>2024-03-23T10:09:23.000Z</time><ele>1233</ele></trkpt><trkpt lat="45.83911" lon="9.440214"><time>2024-03-23T10:09:24.000Z</time><ele>1233.2</ele></trkpt><trkpt lat="45.839115" lon="9.440214"><time>2024-03-23T10:09:25.000Z</time><ele>1233.4</ele></trkpt><trkpt lat="45.839119" lon="9.440212"><time>2024-03-23T10:09:26.000Z</time><ele>1233.4</ele></trkpt><trkpt lat="45.839125" lon="9.440208"><time>2024-03-23T10:09:27.000Z</time><ele>1233.4</ele></trkpt><trkpt lat="45.83913" lon="9.440206"><time>2024-03-23T10:09:28.000Z</time><ele>1233.6</ele></trkpt><trkpt lat="45.839133" lon="9.440204"><time>2024-03-23T10:09:29.000Z</time><ele>1233.8</ele></trkpt><trkpt lat="45.839135" lon="9.440201"><time>2024-03-23T10:09:30.000Z</time><ele>1234</ele></trkpt><trkpt lat="45.839137" lon="9.440198"><time>2024-03-23T10:09:31.000Z</time><ele>1234.4</ele></trkpt><trkpt lat="45.83914" lon="9.440192"><time>2024-03-23T10:09:32.000Z</time><ele>1234.6</ele></trkpt><trkpt lat="45.839144" lon="9.440183"><time>2024-03-23T10:09:33.000Z</time><ele>1234.6</ele></trkpt><trkpt lat="45.839147" lon="9.440174"><time>2024-03-23T10:09:34.000Z</time><ele>1234.8</ele></trkpt><trkpt lat="45.83915" lon="9.440167"><time>2024-03-23T10:09:35.000Z</time><ele>1235</ele></trkpt><trkpt lat="45.83915" lon="9.440161"><time>2024-03-23T10:09:36.000Z</time><ele>1235.2</ele></trkpt><trkpt lat="45.839152" lon="9.440155"><time>2024-03-23T10:09:37.000Z</time><ele>1235.4</ele></trkpt><trkpt lat="45.839153" lon="9.440151"><time>2024-03-23T10:09:38.000Z</time><ele>1235.8</ele></trkpt><trkpt lat="45.839156" lon="9.440149"><time>2024-03-23T10:09:39.000Z</time><ele>1236</ele></trkpt><trkpt lat="45.839158" lon="9.44015"><time>2024-03-23T10:09:40.000Z</time><ele>1236</ele></trkpt><trkpt lat="45.83916" lon="9.44015"><time>2024-03-23T10:09:41.000Z</time><ele>1236.2</ele></trkpt><trkpt lat="45.839163" lon="9.440149"><time>2024-03-23T10:09:42.000Z</time><ele>1236.2</ele></trkpt><trkpt lat="45.839172" lon="9.440148"><time>2024-03-23T10:09:43.000Z</time><ele>1236.4</ele></trkpt><trkpt lat="45.83918" lon="9.440146"><time>2024-03-23T10:09:44.000Z</time><ele>1236.6</ele></trkpt><trkpt lat="45.839185" lon="9.440143"><time>2024-03-23T10:09:45.000Z</time><ele>1236.8</ele></trkpt><trkpt lat="45.839189" lon="9.44014"><time>2024-03-23T10:09:46.000Z</time><ele>1237</ele></trkpt><trkpt lat="45.839191" lon="9.440135"><time>2024-03-23T10:09:47.000Z</time><ele>1237.4</ele></trkpt><trkpt lat="45.839196" lon="9.44013"><time>2024-03-23T10:09:48.000Z</time><ele>1237.6</ele></trkpt><trkpt lat="45.839198" lon="9.440125"><time>2024-03-23T10:09:49.000Z</time><ele>1237.8</ele></trkpt><trkpt lat="45.839202" lon="9.440119"><time>2024-03-23T10:09:50.000Z</time><ele>1237.8</ele></trkpt><trkpt lat="45.839204" lon="9.440115"><time>2024-03-23T10:09:51.000Z</time><ele>1238</ele></trkpt><trkpt lat="45.839207" lon="9.440109"><time>2024-03-23T10:09:52.000Z</time><ele>1238</ele></trkpt><trkpt lat="45.839212" lon="9.440106"><time>2024-03-23T10:09:53.000Z</time><ele>1238</ele></trkpt><trkpt lat="45.839217" lon="9.440102"><time>2024-03-23T10:09:54.000Z</time><ele>1238</ele></trkpt><trkpt lat="45.839222" lon="9.440098"><time>2024-03-23T10:09:55.000Z</time><ele>1238.2</ele></trkpt><trkpt lat="45.839227" lon="9.440093"><time>2024-03-23T10:09:56.000Z</time><ele>1238.2</ele></trkpt><trkpt lat="45.839229" lon="9.440089"><time>2024-03-23T10:09:57.000Z</time><ele>1238.4</ele></trkpt><trkpt lat="45.83923" lon="9.440082"><time>2024-03-23T10:09:58.000Z</time><ele>1238.6</ele></trkpt><trkpt lat="45.839232" lon="9.440074"><time>2024-03-23T10:09:59.000Z</time><ele>1238.8</ele></trkpt><trkpt lat="45.839236" lon="9.440066"><time>2024-03-23T10:10:00.000Z</time><ele>1238.8</ele></trkpt><trkpt lat="45.839239" lon="9.440058"><time>2024-03-23T10:10:01.000Z</time><ele>1239</ele></trkpt><trkpt lat="45.839244" lon="9.440051"><time>2024-03-23T10:10:02.000Z</time><ele>1239</ele></trkpt><trkpt lat="45.839247" lon="9.440047"><time>2024-03-23T10:10:03.000Z</time><ele>1239.4</ele></trkpt><trkpt lat="45.839252" lon="9.440043"><time>2024-03-23T10:10:04.000Z</time><ele>1239.6</ele></trkpt><trkpt lat="45.839257" lon="9.440039"><time>2024-03-23T10:10:05.000Z</time><ele>1240</ele></trkpt><trkpt lat="45.839259" lon="9.440036"><time>2024-03-23T10:10:06.000Z</time><ele>1240.2</ele></trkpt><trkpt lat="45.839261" lon="9.440034"><time>2024-03-23T10:10:07.000Z</time><ele>1240.2</ele></trkpt><trkpt lat="45.839263" lon="9.440032"><time>2024-03-23T10:10:08.000Z</time><ele>1240.4</ele></trkpt><trkpt lat="45.839264" lon="9.440031"><time>2024-03-23T10:10:09.000Z</time><ele>1240.2</ele></trkpt><trkpt lat="45.839264" lon="9.44003"><time>2024-03-23T10:10:10.000Z</time><ele>1240.2</ele></trkpt><trkpt lat="45.839264" lon="9.44003"><time>2024-03-23T10:10:11.000Z</time><ele>1240</ele></trkpt><trkpt lat="45.839264" lon="9.44003"><time>2024-03-23T10:10:12.000Z</time><ele>1240</ele></trkpt><trkpt lat="45.839265" lon="9.440029"><time>2024-03-23T10:10:13.000Z</time><ele>1240</ele></trkpt><trkpt lat="45.839266" lon="9.440028"><time>2024-03-23T10:10:14.000Z</time><ele>1240</ele></trkpt><trkpt lat="45.839267" lon="9.440028"><time>2024-03-23T10:10:15.000Z</time><ele>1240</ele></trkpt><trkpt lat="45.839267" lon="9.440028"><time>2024-03-23T10:10:16.000Z</time><ele>1240</ele></trkpt><trkpt lat="45.839267" lon="9.440028"><time>2024-03-23T10:10:17.000Z</time><ele>1240</ele></trkpt><trkpt lat="45.839267" lon="9.440028"><time>2024-03-23T10:10:18.000Z</time><ele>1240</ele></trkpt><trkpt lat="45.839267" lon="9.440028"><time>2024-03-23T10:10:19.000Z</time><ele>1240</ele></trkpt><trkpt lat="45.839267" lon="9.440028"><time>2024-03-23T10:10:20.000Z</time><ele>1240</ele></trkpt><trkpt lat="45.839267" lon="9.440028"><time>2024-03-23T10:10:21.000Z</time><ele>1240</ele></trkpt><trkpt lat="45.839267" lon="9.440028"><time>2024-03-23T10:10:22.000Z</time><ele>1240</ele></trkpt><trkpt lat="45.839267" lon="9.440028"><time>2024-03-23T10:10:23.000Z</time><ele>1240</ele></trkpt><trkpt lat="45.839267" lon="9.440028"><time>2024-03-23T10:10:24.000Z</time><ele>1240</ele></trkpt><trkpt lat="45.839267" lon="9.440028"><time>2024-03-23T10:10:25.000Z</time><ele>1240</ele></trkpt><trkpt lat="45.839267" lon="9.440028"><time>2024-03-23T10:10:26.000Z</time><ele>1240</ele></trkpt><trkpt lat="45.839267" lon="9.440028"><time>2024-03-23T10:10:27.000Z</time><ele>1240</ele></trkpt><trkpt lat="45.839267" lon="9.440028"><time>2024-03-23T10:10:28.000Z</time><ele>1240</ele></trkpt><trkpt lat="45.839267" lon="9.440028"><time>2024-03-23T10:10:29.000Z</time><ele>1240</ele></trkpt><trkpt lat="45.839267" lon="9.440029"><time>2024-03-23T10:10:30.000Z</time><ele>1240</ele></trkpt><trkpt lat="45.839267" lon="9.440029"><time>2024-03-23T10:10:31.000Z</time><ele>1240</ele></trkpt><trkpt lat="45.839267" lon="9.44003"><time>2024-03-23T10:10:32.000Z</time><ele>1240</ele></trkpt><trkpt lat="45.839267" lon="9.44003"><time>2024-03-23T10:10:33.000Z</time><ele>1240</ele></trkpt><trkpt lat="45.839267" lon="9.44003"><time>2024-03-23T10:10:34.000Z</time><ele>1240</ele></trkpt><trkpt lat="45.839267" lon="9.44003"><time>2024-03-23T10:10:35.000Z</time><ele>1240.2</ele></trkpt><trkpt lat="45.839267" lon="9.44003"><time>2024-03-23T10:10:36.000Z</time><ele>1240.2</ele></trkpt><trkpt lat="45.839267" lon="9.44003"><time>2024-03-23T10:10:37.000Z</time><ele>1240.4</ele></trkpt><trkpt lat="45.839268" lon="9.44003"><time>2024-03-23T10:10:38.000Z</time><ele>1240.6</ele></trkpt><trkpt lat="45.839269" lon="9.44003"><time>2024-03-23T10:10:39.000Z</time><ele>1241</ele></trkpt><trkpt lat="45.83927" lon="9.44003"><time>2024-03-23T10:10:40.000Z</time><ele>1241.2</ele></trkpt><trkpt lat="45.83927" lon="9.44003"><time>2024-03-23T10:10:41.000Z</time><ele>1241.2</ele></trkpt><trkpt lat="45.839271" lon="9.440031"><time>2024-03-23T10:10:42.000Z</time><ele>1241.4</ele></trkpt><trkpt lat="45.839272" lon="9.440031"><time>2024-03-23T10:10:43.000Z</time><ele>1241.4</ele></trkpt><trkpt lat="45.839274" lon="9.440031"><time>2024-03-23T10:10:44.000Z</time><ele>1241.4</ele></trkpt><trkpt lat="45.839276" lon="9.440032"><time>2024-03-23T10:10:45.000Z</time><ele>1241.4</ele></trkpt><trkpt lat="45.839277" lon="9.440032"><time>2024-03-23T10:10:46.000Z</time><ele>1241.2</ele></trkpt><trkpt lat="45.839277" lon="9.440033"><time>2024-03-23T10:10:47.000Z</time><ele>1241.2</ele></trkpt><trkpt lat="45.839278" lon="9.440036"><time>2024-03-23T10:10:48.000Z</time><ele>1241.2</ele></trkpt><trkpt lat="45.839279" lon="9.440041"><time>2024-03-23T10:10:49.000Z</time><ele>1241.2</ele></trkpt><trkpt lat="45.83928" lon="9.440046"><time>2024-03-23T10:10:50.000Z</time><ele>1241</ele></trkpt><trkpt lat="45.839281" lon="9.440047"><time>2024-03-23T10:10:51.000Z</time><ele>1240.8</ele></trkpt><trkpt lat="45.839281" lon="9.440047"><time>2024-03-23T10:10:52.000Z</time><ele>1240.8</ele></trkpt><trkpt lat="45.839282" lon="9.440047"><time>2024-03-23T10:10:53.000Z</time><ele>1240.8</ele></trkpt><trkpt lat="45.839282" lon="9.440047"><time>2024-03-23T10:10:54.000Z</time><ele>1240.8</ele></trkpt><trkpt lat="45.839282" lon="9.440047"><time>2024-03-23T10:10:55.000Z</time><ele>1240.8</ele></trkpt><trkpt lat="45.839282" lon="9.440047"><time>2024-03-23T10:10:56.000Z</time><ele>1240.6</ele></trkpt><trkpt lat="45.839282" lon="9.440047"><time>2024-03-23T10:10:57.000Z</time><ele>1240.4</ele></trkpt><trkpt lat="45.839282" lon="9.440047"><time>2024-03-23T10:10:58.000Z</time><ele>1240.4</ele></trkpt><trkpt lat="45.839282" lon="9.440047"><time>2024-03-23T10:10:59.000Z</time><ele>1240.4</ele></trkpt><trkpt lat="45.839282" lon="9.440047"><time>2024-03-23T10:11:00.000Z</time><ele>1240.4</ele></trkpt><trkpt lat="45.839282" lon="9.440047"><time>2024-03-23T10:11:01.000Z</time><ele>1240.6</ele></trkpt><trkpt lat="45.839282" lon="9.440047"><time>2024-03-23T10:11:02.000Z</time><ele>1240.6</ele></trkpt><trkpt lat="45.839282" lon="9.440047"><time>2024-03-23T10:11:03.000Z</time><ele>1240.6</ele></trkpt><trkpt lat="45.839282" lon="9.440047"><time>2024-03-23T10:11:04.000Z</time><ele>1240.6</ele></trkpt><trkpt lat="45.839282" lon="9.440044"><time>2024-03-23T10:11:05.000Z</time><ele>1240.6</ele></trkpt><trkpt lat="45.839281" lon="9.440042"><time>2024-03-23T10:11:06.000Z</time><ele>1240.8</ele></trkpt><trkpt lat="45.83928" lon="9.44004"><time>2024-03-23T10:11:07.000Z</time><ele>1240.8</ele></trkpt><trkpt lat="45.839279" lon="9.440039"><time>2024-03-23T10:11:08.000Z</time><ele>1240.6</ele></trkpt><trkpt lat="45.839279" lon="9.440037"><time>2024-03-23T10:11:09.000Z</time><ele>1240.6</ele></trkpt><trkpt lat="45.839279" lon="9.440037"><time>2024-03-23T10:11:10.000Z</time><ele>1240.4</ele></trkpt><trkpt lat="45.839279" lon="9.440036"><time>2024-03-23T10:11:11.000Z</time><ele>1240.4</ele></trkpt><trkpt lat="45.839278" lon="9.440036"><time>2024-03-23T10:11:12.000Z</time><ele>1240.4</ele></trkpt><trkpt lat="45.839278" lon="9.440036"><time>2024-03-23T10:11:13.000Z</time><ele>1240.4</ele></trkpt><trkpt lat="45.839278" lon="9.440036"><time>2024-03-23T10:11:14.000Z</time><ele>1240.4</ele></trkpt><trkpt lat="45.839277" lon="9.440036"><time>2024-03-23T10:11:15.000Z</time><ele>1240.6</ele></trkpt><trkpt lat="45.839277" lon="9.440035"><time>2024-03-23T10:11:16.000Z</time><ele>1240.6</ele></trkpt><trkpt lat="45.839277" lon="9.440033"><time>2024-03-23T10:11:17.000Z</time><ele>1240.8</ele></trkpt><trkpt lat="45.839273" lon="9.44003"><time>2024-03-23T10:11:18.000Z</time><ele>1240.8</ele></trkpt><trkpt lat="45.83927" lon="9.440027"><time>2024-03-23T10:11:19.000Z</time><ele>1240.8</ele></trkpt><trkpt lat="45.839268" lon="9.440027"><time>2024-03-23T10:11:20.000Z</time><ele>1240.8</ele></trkpt><trkpt lat="45.839267" lon="9.440026"><time>2024-03-23T10:11:21.000Z</time><ele>1240.8</ele></trkpt><trkpt lat="45.839266" lon="9.440026"><time>2024-03-23T10:11:22.000Z</time><ele>1240.8</ele></trkpt><trkpt lat="45.839265" lon="9.440025"><time>2024-03-23T10:11:23.000Z</time><ele>1240.6</ele></trkpt><trkpt lat="45.839265" lon="9.440024"><time>2024-03-23T10:11:24.000Z</time><ele>1240.6</ele></trkpt><trkpt lat="45.839265" lon="9.440023"><time>2024-03-23T10:11:25.000Z</time><ele>1240.6</ele></trkpt><trkpt lat="45.839265" lon="9.440022"><time>2024-03-23T10:11:26.000Z</time><ele>1240.4</ele></trkpt><trkpt lat="45.839264" lon="9.44002"><time>2024-03-23T10:11:27.000Z</time><ele>1240.4</ele></trkpt><trkpt lat="45.839264" lon="9.440019"><time>2024-03-23T10:11:28.000Z</time><ele>1240.4</ele></trkpt><trkpt lat="45.839264" lon="9.440019"><time>2024-03-23T10:11:29.000Z</time><ele>1240.4</ele></trkpt><trkpt lat="45.839264" lon="9.440019"><time>2024-03-23T10:11:30.000Z</time><ele>1240.4</ele></trkpt><trkpt lat="45.839264" lon="9.440018"><time>2024-03-23T10:11:31.000Z</time><ele>1240.6</ele></trkpt><trkpt lat="45.839264" lon="9.440018"><time>2024-03-23T10:11:32.000Z</time><ele>1240.6</ele></trkpt><trkpt lat="45.839264" lon="9.440018"><time>2024-03-23T10:11:33.000Z</time><ele>1240.6</ele></trkpt><trkpt lat="45.839264" lon="9.440018"><time>2024-03-23T10:11:34.000Z</time><ele>1240.6</ele></trkpt><trkpt lat="45.839264" lon="9.440018"><time>2024-03-23T10:11:35.000Z</time><ele>1240.6</ele></trkpt><trkpt lat="45.839264" lon="9.440017"><time>2024-03-23T10:11:36.000Z</time><ele>1240.6</ele></trkpt><trkpt lat="45.839264" lon="9.440017"><time>2024-03-23T10:11:37.000Z</time><ele>1240.6</ele></trkpt><trkpt lat="45.839264" lon="9.440017"><time>2024-03-23T10:11:38.000Z</time><ele>1240.6</ele></trkpt><trkpt lat="45.839264" lon="9.440017"><time>2024-03-23T10:11:39.000Z</time><ele>1240.6</ele></trkpt><trkpt lat="45.839264" lon="9.440015"><time>2024-03-23T10:11:40.000Z</time><ele>1240.4</ele></trkpt><trkpt lat="45.839264" lon="9.440015"><time>2024-03-23T10:11:41.000Z</time><ele>1240.4</ele></trkpt><trkpt lat="45.839264" lon="9.440015"><time>2024-03-23T10:11:42.000Z</time><ele>1240.4</ele></trkpt><trkpt lat="45.839264" lon="9.440015"><time>2024-03-23T10:11:43.000Z</time><ele>1240.4</ele></trkpt><trkpt lat="45.839264" lon="9.440015"><time>2024-03-23T10:11:44.000Z</time><ele>1240.6</ele></trkpt><trkpt lat="45.839264" lon="9.440015"><time>2024-03-23T10:11:45.000Z</time><ele>1240.6</ele></trkpt><trkpt lat="45.839264" lon="9.440015"><time>2024-03-23T10:11:46.000Z</time><ele>1240.6</ele></trkpt><trkpt lat="45.839264" lon="9.440016"><time>2024-03-23T10:11:47.000Z</time><ele>1240.6</ele></trkpt><trkpt lat="45.839265" lon="9.440016"><time>2024-03-23T10:11:48.000Z</time><ele>1240.6</ele></trkpt><trkpt lat="45.839265" lon="9.440016"><time>2024-03-23T10:11:49.000Z</time><ele>1240.6</ele></trkpt><trkpt lat="45.839265" lon="9.440015"><time>2024-03-23T10:11:50.000Z</time><ele>1240.4</ele></trkpt><trkpt lat="45.839265" lon="9.440015"><time>2024-03-23T10:11:51.000Z</time><ele>1240.4</ele></trkpt><trkpt lat="45.839265" lon="9.440015"><time>2024-03-23T10:11:52.000Z</time><ele>1240.4</ele></trkpt><trkpt lat="45.839265" lon="9.440014"><time>2024-03-23T10:11:53.000Z</time><ele>1240.4</ele></trkpt><trkpt lat="45.839265" lon="9.440014"><time>2024-03-23T10:11:54.000Z</time><ele>1240.4</ele></trkpt><trkpt lat="45.839266" lon="9.440014"><time>2024-03-23T10:11:55.000Z</time><ele>1240.4</ele></trkpt><trkpt lat="45.839266" lon="9.440013"><time>2024-03-23T10:11:56.000Z</time><ele>1240.4</ele></trkpt><trkpt lat="45.839267" lon="9.440012"><time>2024-03-23T10:11:57.000Z</time><ele>1240.2</ele></trkpt><trkpt lat="45.839267" lon="9.440011"><time>2024-03-23T10:11:58.000Z</time><ele>1240.2</ele></trkpt><trkpt lat="45.839267" lon="9.440011"><time>2024-03-23T10:11:59.000Z</time><ele>1240.2</ele></trkpt><trkpt lat="45.839267" lon="9.44001"><time>2024-03-23T10:12:00.000Z</time><ele>1240.2</ele></trkpt><trkpt lat="45.839268" lon="9.440009"><time>2024-03-23T10:12:01.000Z</time><ele>1240.2</ele></trkpt><trkpt lat="45.839268" lon="9.440009"><time>2024-03-23T10:12:02.000Z</time><ele>1240</ele></trkpt><trkpt lat="45.83927" lon="9.440009"><time>2024-03-23T10:12:03.000Z</time><ele>1240</ele></trkpt><trkpt lat="45.839272" lon="9.440008"><time>2024-03-23T10:12:04.000Z</time><ele>1240</ele></trkpt><trkpt lat="45.839275" lon="9.440006"><time>2024-03-23T10:12:05.000Z</time><ele>1240.2</ele></trkpt><trkpt lat="45.839278" lon="9.440003"><time>2024-03-23T10:12:06.000Z</time><ele>1240.2</ele></trkpt><trkpt lat="45.83928" lon="9.440001"><time>2024-03-23T10:12:07.000Z</time><ele>1240.2</ele></trkpt><trkpt lat="45.839281" lon="9.439999"><time>2024-03-23T10:12:08.000Z</time><ele>1240.2</ele></trkpt><trkpt lat="45.839282" lon="9.439999"><time>2024-03-23T10:12:09.000Z</time><ele>1240.2</ele></trkpt><trkpt lat="45.839283" lon="9.439998"><time>2024-03-23T10:12:10.000Z</time><ele>1240.4</ele></trkpt><trkpt lat="45.839283" lon="9.439998"><time>2024-03-23T10:12:11.000Z</time><ele>1240.4</ele></trkpt><trkpt lat="45.839284" lon="9.439998"><time>2024-03-23T10:12:12.000Z</time><ele>1240.4</ele></trkpt><trkpt lat="45.839286" lon="9.439998"><time>2024-03-23T10:12:13.000Z</time><ele>1240.4</ele></trkpt><trkpt lat="45.839288" lon="9.439998"><time>2024-03-23T10:12:14.000Z</time><ele>1240.4</ele></trkpt><trkpt lat="45.839289" lon="9.439998"><time>2024-03-23T10:12:15.000Z</time><ele>1240.6</ele></trkpt><trkpt lat="45.83929" lon="9.439998"><time>2024-03-23T10:12:16.000Z</time><ele>1240.8</ele></trkpt><trkpt lat="45.839291" lon="9.439998"><time>2024-03-23T10:12:17.000Z</time><ele>1241</ele></trkpt><trkpt lat="45.839292" lon="9.439998"><time>2024-03-23T10:12:18.000Z</time><ele>1241.2</ele></trkpt><trkpt lat="45.839292" lon="9.439998"><time>2024-03-23T10:12:19.000Z</time><ele>1241.4</ele></trkpt><trkpt lat="45.839292" lon="9.439998"><time>2024-03-23T10:12:20.000Z</time><ele>1241.4</ele></trkpt><trkpt lat="45.839294" lon="9.439998"><time>2024-03-23T10:12:21.000Z</time><ele>1241.6</ele></trkpt><trkpt lat="45.839297" lon="9.440009"><time>2024-03-23T10:12:22.000Z</time><ele>1241.8</ele></trkpt><trkpt lat="45.839303" lon="9.44003"><time>2024-03-23T10:12:23.000Z</time><ele>1242</ele></trkpt><trkpt lat="45.839307" lon="9.440047"><time>2024-03-23T10:12:24.000Z</time><ele>1242.2</ele></trkpt><trkpt lat="45.839312" lon="9.440062"><time>2024-03-23T10:12:25.000Z</time><ele>1242.2</ele></trkpt><trkpt lat="45.839317" lon="9.440076"><time>2024-03-23T10:12:26.000Z</time><ele>1242.6</ele></trkpt><trkpt lat="45.839324" lon="9.440088"><time>2024-03-23T10:12:27.000Z</time><ele>1242.8</ele></trkpt><trkpt lat="45.839328" lon="9.440107"><time>2024-03-23T10:12:28.000Z</time><ele>1242.8</ele></trkpt><trkpt lat="45.839334" lon="9.440124"><time>2024-03-23T10:12:29.000Z</time><ele>1243</ele></trkpt><trkpt lat="45.839336" lon="9.440145"><time>2024-03-23T10:12:30.000Z</time><ele>1243.2</ele></trkpt><trkpt lat="45.839339" lon="9.440161"><time>2024-03-23T10:12:31.000Z</time><ele>1243.2</ele></trkpt><trkpt lat="45.839335" lon="9.440171"><time>2024-03-23T10:12:32.000Z</time><ele>1243.4</ele></trkpt><trkpt lat="45.839335" lon="9.440183"><time>2024-03-23T10:12:33.000Z</time><ele>1243.4</ele></trkpt><trkpt lat="45.839335" lon="9.440194"><time>2024-03-23T10:12:34.000Z</time><ele>1243.4</ele></trkpt><trkpt lat="45.839335" lon="9.440204"><time>2024-03-23T10:12:35.000Z</time><ele>1243.6</ele></trkpt><trkpt lat="45.839338" lon="9.44021"><time>2024-03-23T10:12:36.000Z</time><ele>1243.6</ele></trkpt><trkpt lat="45.839334" lon="9.440221"><time>2024-03-23T10:12:37.000Z</time><ele>1243.8</ele></trkpt><trkpt lat="45.839336" lon="9.440228"><time>2024-03-23T10:12:38.000Z</time><ele>1244</ele></trkpt><trkpt lat="45.839335" lon="9.440239"><time>2024-03-23T10:12:39.000Z</time><ele>1244.2</ele></trkpt><trkpt lat="45.839332" lon="9.440253"><time>2024-03-23T10:12:40.000Z</time><ele>1244.2</ele></trkpt><trkpt lat="45.83933" lon="9.440267"><time>2024-03-23T10:12:41.000Z</time><ele>1244.4</ele></trkpt><trkpt lat="45.839336" lon="9.440276"><time>2024-03-23T10:12:42.000Z</time><ele>1244.4</ele></trkpt><trkpt lat="45.839343" lon="9.440286"><time>2024-03-23T10:12:43.000Z</time><ele>1244.6</ele></trkpt><trkpt lat="45.839346" lon="9.44029"><time>2024-03-23T10:12:44.000Z</time><ele>1244.6</ele></trkpt><trkpt lat="45.839358" lon="9.440296"><time>2024-03-23T10:12:45.000Z</time><ele>1244.8</ele></trkpt><trkpt lat="45.839368" lon="9.440306"><time>2024-03-23T10:12:46.000Z</time><ele>1244.8</ele></trkpt><trkpt lat="45.839382" lon="9.44031"><time>2024-03-23T10:12:47.000Z</time><ele>1245</ele></trkpt><trkpt lat="45.839389" lon="9.440344"><time>2024-03-23T10:12:48.000Z</time><ele>1245</ele></trkpt><trkpt lat="45.839392" lon="9.440347"><time>2024-03-23T10:12:49.000Z</time><ele>1245</ele></trkpt><trkpt lat="45.839394" lon="9.440348"><time>2024-03-23T10:12:50.000Z</time><ele>1245.2</ele></trkpt><trkpt lat="45.839395" lon="9.440348"><time>2024-03-23T10:12:51.000Z</time><ele>1245.6</ele></trkpt><trkpt lat="45.839395" lon="9.44035"><time>2024-03-23T10:12:52.000Z</time><ele>1245.8</ele></trkpt><trkpt lat="45.839395" lon="9.44035"><time>2024-03-23T10:12:53.000Z</time><ele>1245.8</ele></trkpt><trkpt lat="45.839393" lon="9.440351"><time>2024-03-23T10:12:54.000Z</time><ele>1245.8</ele></trkpt><trkpt lat="45.839393" lon="9.440352"><time>2024-03-23T10:12:55.000Z</time><ele>1245.8</ele></trkpt><trkpt lat="45.839393" lon="9.440351"><time>2024-03-23T10:12:56.000Z</time><ele>1245.8</ele></trkpt><trkpt lat="45.839393" lon="9.44035"><time>2024-03-23T10:12:57.000Z</time><ele>1245.8</ele></trkpt><trkpt lat="45.839393" lon="9.440351"><time>2024-03-23T10:12:58.000Z</time><ele>1245.8</ele></trkpt><trkpt lat="45.839393" lon="9.440351"><time>2024-03-23T10:12:59.000Z</time><ele>1245.8</ele></trkpt><trkpt lat="45.839394" lon="9.440352"><time>2024-03-23T10:13:00.000Z</time><ele>1245.8</ele></trkpt><trkpt lat="45.839394" lon="9.440353"><time>2024-03-23T10:13:01.000Z</time><ele>1245.8</ele></trkpt><trkpt lat="45.839394" lon="9.440353"><time>2024-03-23T10:13:02.000Z</time><ele>1245.8</ele></trkpt><trkpt lat="45.839394" lon="9.440353"><time>2024-03-23T10:13:03.000Z</time><ele>1245.8</ele></trkpt><trkpt lat="45.839394" lon="9.440353"><time>2024-03-23T10:13:04.000Z</time><ele>1246</ele></trkpt><trkpt lat="45.839394" lon="9.440353"><time>2024-03-23T10:13:05.000Z</time><ele>1245.8</ele></trkpt><trkpt lat="45.839394" lon="9.440353"><time>2024-03-23T10:13:06.000Z</time><ele>1245.8</ele></trkpt><trkpt lat="45.839394" lon="9.440353"><time>2024-03-23T10:13:07.000Z</time><ele>1245.6</ele></trkpt><trkpt lat="45.839394" lon="9.440353"><time>2024-03-23T10:13:08.000Z</time><ele>1245.6</ele></trkpt><trkpt lat="45.839394" lon="9.440353"><time>2024-03-23T10:13:09.000Z</time><ele>1245.6</ele></trkpt><trkpt lat="45.839394" lon="9.440353"><time>2024-03-23T10:13:10.000Z</time><ele>1245.4</ele></trkpt><trkpt lat="45.839394" lon="9.440353"><time>2024-03-23T10:13:11.000Z</time><ele>1245.4</ele></trkpt><trkpt lat="45.839394" lon="9.440353"><time>2024-03-23T10:13:12.000Z</time><ele>1245.4</ele></trkpt><trkpt lat="45.839394" lon="9.440353"><time>2024-03-23T10:13:13.000Z</time><ele>1245.4</ele></trkpt><trkpt lat="45.839394" lon="9.440353"><time>2024-03-23T10:13:14.000Z</time><ele>1245.4</ele></trkpt><trkpt lat="45.839394" lon="9.440353"><time>2024-03-23T10:13:15.000Z</time><ele>1245.4</ele></trkpt><trkpt lat="45.839395" lon="9.440353"><time>2024-03-23T10:13:16.000Z</time><ele>1245.2</ele></trkpt><trkpt lat="45.839396" lon="9.440354"><time>2024-03-23T10:13:17.000Z</time><ele>1245.2</ele></trkpt><trkpt lat="45.839401" lon="9.440356"><time>2024-03-23T10:13:18.000Z</time><ele>1245.2</ele></trkpt><trkpt lat="45.83941" lon="9.440361"><time>2024-03-23T10:13:19.000Z</time><ele>1245</ele></trkpt><trkpt lat="45.839412" lon="9.440365"><time>2024-03-23T10:13:20.000Z</time><ele>1245</ele></trkpt><trkpt lat="45.839414" lon="9.44037"><time>2024-03-23T10:13:21.000Z</time><ele>1245</ele></trkpt><trkpt lat="45.839417" lon="9.440371"><time>2024-03-23T10:13:22.000Z</time><ele>1245</ele></trkpt><trkpt lat="45.839417" lon="9.440372"><time>2024-03-23T10:13:23.000Z</time><ele>1245</ele></trkpt><trkpt lat="45.839417" lon="9.440372"><time>2024-03-23T10:13:24.000Z</time><ele>1245</ele></trkpt><trkpt lat="45.839417" lon="9.440372"><time>2024-03-23T10:13:25.000Z</time><ele>1245</ele></trkpt><trkpt lat="45.839417" lon="9.440373"><time>2024-03-23T10:13:26.000Z</time><ele>1245</ele></trkpt><trkpt lat="45.839417" lon="9.440373"><time>2024-03-23T10:13:27.000Z</time><ele>1245</ele></trkpt><trkpt lat="45.839417" lon="9.440373"><time>2024-03-23T10:13:28.000Z</time><ele>1245</ele></trkpt><trkpt lat="45.839418" lon="9.440373"><time>2024-03-23T10:13:29.000Z</time><ele>1245</ele></trkpt><trkpt lat="45.839419" lon="9.440373"><time>2024-03-23T10:13:30.000Z</time><ele>1245</ele></trkpt><trkpt lat="45.839419" lon="9.440373"><time>2024-03-23T10:13:31.000Z</time><ele>1244.8</ele></trkpt><trkpt lat="45.839419" lon="9.440373"><time>2024-03-23T10:13:32.000Z</time><ele>1244.8</ele></trkpt><trkpt lat="45.839419" lon="9.440373"><time>2024-03-23T10:13:33.000Z</time><ele>1244.8</ele></trkpt><trkpt lat="45.839419" lon="9.440373"><time>2024-03-23T10:13:34.000Z</time><ele>1244.8</ele></trkpt><trkpt lat="45.839419" lon="9.440373"><time>2024-03-23T10:13:35.000Z</time><ele>1244.6</ele></trkpt><trkpt lat="45.839419" lon="9.440373"><time>2024-03-23T10:13:36.000Z</time><ele>1244.6</ele></trkpt><trkpt lat="45.839419" lon="9.440373"><time>2024-03-23T10:13:37.000Z</time><ele>1244.6</ele></trkpt><trkpt lat="45.839418" lon="9.440372"><time>2024-03-23T10:13:38.000Z</time><ele>1244.8</ele></trkpt><trkpt lat="45.839417" lon="9.440372"><time>2024-03-23T10:13:39.000Z</time><ele>1244.8</ele></trkpt><trkpt lat="45.839417" lon="9.440372"><time>2024-03-23T10:13:40.000Z</time><ele>1244.8</ele></trkpt><trkpt lat="45.839417" lon="9.440372"><time>2024-03-23T10:13:41.000Z</time><ele>1244.8</ele></trkpt><trkpt lat="45.839417" lon="9.440372"><time>2024-03-23T10:13:42.000Z</time><ele>1244.8</ele></trkpt><trkpt lat="45.839417" lon="9.440371"><time>2024-03-23T10:13:43.000Z</time><ele>1244.8</ele></trkpt><trkpt lat="45.839417" lon="9.440371"><time>2024-03-23T10:13:44.000Z</time><ele>1244.8</ele></trkpt><trkpt lat="45.839417" lon="9.440371"><time>2024-03-23T10:13:45.000Z</time><ele>1244.8</ele></trkpt><trkpt lat="45.839417" lon="9.440371"><time>2024-03-23T10:13:46.000Z</time><ele>1244.8</ele></trkpt><trkpt lat="45.839416" lon="9.440371"><time>2024-03-23T10:13:47.000Z</time><ele>1245</ele></trkpt><trkpt lat="45.839416" lon="9.440371"><time>2024-03-23T10:13:48.000Z</time><ele>1245</ele></trkpt><trkpt lat="45.839416" lon="9.440371"><time>2024-03-23T10:13:49.000Z</time><ele>1245</ele></trkpt><trkpt lat="45.839416" lon="9.440371"><time>2024-03-23T10:13:50.000Z</time><ele>1245</ele></trkpt><trkpt lat="45.839415" lon="9.440371"><time>2024-03-23T10:13:51.000Z</time><ele>1245</ele></trkpt><trkpt lat="45.839415" lon="9.440371"><time>2024-03-23T10:13:52.000Z</time><ele>1245</ele></trkpt><trkpt lat="45.839415" lon="9.440371"><time>2024-03-23T10:13:53.000Z</time><ele>1245</ele></trkpt><trkpt lat="45.839414" lon="9.440371"><time>2024-03-23T10:13:54.000Z</time><ele>1245</ele></trkpt><trkpt lat="45.839414" lon="9.440371"><time>2024-03-23T10:13:55.000Z</time><ele>1245</ele></trkpt><trkpt lat="45.839414" lon="9.440371"><time>2024-03-23T10:13:56.000Z</time><ele>1245.8</ele></trkpt><trkpt lat="45.839414" lon="9.440371"><time>2024-03-23T10:13:57.000Z</time><ele>1245.8</ele></trkpt><trkpt lat="45.839414" lon="9.440371"><time>2024-03-23T10:13:58.000Z</time><ele>1245.8</ele></trkpt><trkpt lat="45.839414" lon="9.440371"><time>2024-03-23T10:13:59.000Z</time><ele>1245.8</ele></trkpt><trkpt lat="45.839414" lon="9.440371"><time>2024-03-23T10:14:00.000Z</time><ele>1245.8</ele></trkpt><trkpt lat="45.839414" lon="9.440371"><time>2024-03-23T10:14:01.000Z</time><ele>1245.8</ele></trkpt><trkpt lat="45.839414" lon="9.440371"><time>2024-03-23T10:14:02.000Z</time><ele>1245.8</ele></trkpt><trkpt lat="45.839414" lon="9.440371"><time>2024-03-23T10:14:03.000Z</time><ele>1245.8</ele></trkpt><trkpt lat="45.839415" lon="9.440371"><time>2024-03-23T10:14:04.000Z</time><ele>1245.8</ele></trkpt><trkpt lat="45.839416" lon="9.440371"><time>2024-03-23T10:14:05.000Z</time><ele>1245.8</ele></trkpt><trkpt lat="45.839416" lon="9.440369"><time>2024-03-23T10:14:06.000Z</time><ele>1245.8</ele></trkpt><trkpt lat="45.839417" lon="9.440368"><time>2024-03-23T10:14:07.000Z</time><ele>1245.8</ele></trkpt><trkpt lat="45.839417" lon="9.440368"><time>2024-03-23T10:14:08.000Z</time><ele>1245.8</ele></trkpt><trkpt lat="45.839417" lon="9.440368"><time>2024-03-23T10:14:09.000Z</time><ele>1245.8</ele></trkpt><trkpt lat="45.839417" lon="9.440368"><time>2024-03-23T10:14:10.000Z</time><ele>1245.8</ele></trkpt><trkpt lat="45.839417" lon="9.440368"><time>2024-03-23T10:14:11.000Z</time><ele>1245.8</ele></trkpt><trkpt lat="45.839417" lon="9.440368"><time>2024-03-23T10:14:12.000Z</time><ele>1245.8</ele></trkpt><trkpt lat="45.839417" lon="9.440366"><time>2024-03-23T10:14:13.000Z</time><ele>1245.8</ele></trkpt><trkpt lat="45.839418" lon="9.440365"><time>2024-03-23T10:14:14.000Z</time><ele>1245.8</ele></trkpt><trkpt lat="45.839419" lon="9.440365"><time>2024-03-23T10:14:15.000Z</time><ele>1245.8</ele></trkpt><trkpt lat="45.839419" lon="9.440364"><time>2024-03-23T10:14:16.000Z</time><ele>1245.8</ele></trkpt><trkpt lat="45.83942" lon="9.440363"><time>2024-03-23T10:14:17.000Z</time><ele>1245.8</ele></trkpt><trkpt lat="45.83942" lon="9.440362"><time>2024-03-23T10:14:18.000Z</time><ele>1245.8</ele></trkpt><trkpt lat="45.839421" lon="9.440362"><time>2024-03-23T10:14:19.000Z</time><ele>1245.8</ele></trkpt><trkpt lat="45.839421" lon="9.440362"><time>2024-03-23T10:14:20.000Z</time><ele>1245.8</ele></trkpt><trkpt lat="45.839422" lon="9.440361"><time>2024-03-23T10:14:21.000Z</time><ele>1245.8</ele></trkpt><trkpt lat="45.839422" lon="9.440361"><time>2024-03-23T10:14:22.000Z</time><ele>1245.8</ele></trkpt><trkpt lat="45.839422" lon="9.440361"><time>2024-03-23T10:14:23.000Z</time><ele>1245.8</ele></trkpt><trkpt lat="45.839423" lon="9.44036"><time>2024-03-23T10:14:24.000Z</time><ele>1245.8</ele></trkpt><trkpt lat="45.839423" lon="9.44036"><time>2024-03-23T10:14:25.000Z</time><ele>1245.8</ele></trkpt><trkpt lat="45.839424" lon="9.440358"><time>2024-03-23T10:14:26.000Z</time><ele>1245.8</ele></trkpt><trkpt lat="45.839424" lon="9.440357"><time>2024-03-23T10:14:27.000Z</time><ele>1245.8</ele></trkpt><trkpt lat="45.839424" lon="9.440356"><time>2024-03-23T10:14:28.000Z</time><ele>1245.8</ele></trkpt><trkpt lat="45.839425" lon="9.440353"><time>2024-03-23T10:14:29.000Z</time><ele>1245.8</ele></trkpt><trkpt lat="45.839427" lon="9.44035"><time>2024-03-23T10:14:30.000Z</time><ele>1245.8</ele></trkpt><trkpt lat="45.83943" lon="9.440347"><time>2024-03-23T10:14:31.000Z</time><ele>1245.8</ele></trkpt><trkpt lat="45.839433" lon="9.440344"><time>2024-03-23T10:14:32.000Z</time><ele>1245.8</ele></trkpt><trkpt lat="45.839435" lon="9.440343"><time>2024-03-23T10:14:33.000Z</time><ele>1245.8</ele></trkpt><trkpt lat="45.839436" lon="9.440342"><time>2024-03-23T10:14:34.000Z</time><ele>1245.8</ele></trkpt><trkpt lat="45.839436" lon="9.440341"><time>2024-03-23T10:14:35.000Z</time><ele>1245.8</ele></trkpt><trkpt lat="45.839437" lon="9.440341"><time>2024-03-23T10:14:36.000Z</time><ele>1245.8</ele></trkpt><trkpt lat="45.839437" lon="9.440341"><time>2024-03-23T10:14:37.000Z</time><ele>1245.8</ele></trkpt><trkpt lat="45.839437" lon="9.44034"><time>2024-03-23T10:14:38.000Z</time><ele>1245.8</ele></trkpt><trkpt lat="45.839438" lon="9.44034"><time>2024-03-23T10:14:39.000Z</time><ele>1245.8</ele></trkpt><trkpt lat="45.839438" lon="9.44034"><time>2024-03-23T10:14:40.000Z</time><ele>1245.8</ele></trkpt><trkpt lat="45.839439" lon="9.440339"><time>2024-03-23T10:14:41.000Z</time><ele>1245.8</ele></trkpt><trkpt lat="45.839439" lon="9.440339"><time>2024-03-23T10:14:42.000Z</time><ele>1245.8</ele></trkpt><trkpt lat="45.839439" lon="9.440339"><time>2024-03-23T10:14:43.000Z</time><ele>1245.8</ele></trkpt><trkpt lat="45.83944" lon="9.440339"><time>2024-03-23T10:14:44.000Z</time><ele>1245.8</ele></trkpt><trkpt lat="45.83944" lon="9.440338"><time>2024-03-23T10:14:45.000Z</time><ele>1245.8</ele></trkpt><trkpt lat="45.83944" lon="9.440338"><time>2024-03-23T10:14:46.000Z</time><ele>1245.8</ele></trkpt><trkpt lat="45.83944" lon="9.440338"><time>2024-03-23T10:14:47.000Z</time><ele>1245.8</ele></trkpt><trkpt lat="45.83944" lon="9.440338"><time>2024-03-23T10:14:48.000Z</time><ele>1245.8</ele></trkpt><trkpt lat="45.83944" lon="9.440338"><time>2024-03-23T10:14:49.000Z</time><ele>1245.8</ele></trkpt><trkpt lat="45.83944" lon="9.440337"><time>2024-03-23T10:14:50.000Z</time><ele>1245.8</ele></trkpt><trkpt lat="45.83944" lon="9.440337"><time>2024-03-23T10:14:51.000Z</time><ele>1245.8</ele></trkpt><trkpt lat="45.83944" lon="9.440336"><time>2024-03-23T10:14:52.000Z</time><ele>1245.8</ele></trkpt><trkpt lat="45.83944" lon="9.440336"><time>2024-03-23T10:14:53.000Z</time><ele>1245.8</ele></trkpt><trkpt lat="45.83944" lon="9.440335"><time>2024-03-23T10:14:54.000Z</time><ele>1245.8</ele></trkpt><trkpt lat="45.83944" lon="9.440335"><time>2024-03-23T10:14:55.000Z</time><ele>1245.8</ele></trkpt><trkpt lat="45.839441" lon="9.440334"><time>2024-03-23T10:14:56.000Z</time><ele>1245.8</ele></trkpt><trkpt lat="45.839441" lon="9.440334"><time>2024-03-23T10:14:57.000Z</time><ele>1245.8</ele></trkpt><trkpt lat="45.839441" lon="9.440334"><time>2024-03-23T10:14:58.000Z</time><ele>1245.8</ele></trkpt><trkpt lat="45.839441" lon="9.440334"><time>2024-03-23T10:14:59.000Z</time><ele>1245.8</ele></trkpt><trkpt lat="45.839441" lon="9.440333"><time>2024-03-23T10:15:00.000Z</time><ele>1245.8</ele></trkpt><trkpt lat="45.839441" lon="9.440333"><time>2024-03-23T10:15:01.000Z</time><ele>1245.8</ele></trkpt><trkpt lat="45.839441" lon="9.440332"><time>2024-03-23T10:15:02.000Z</time><ele>1245.8</ele></trkpt><trkpt lat="45.839442" lon="9.440331"><time>2024-03-23T10:15:03.000Z</time><ele>1245.8</ele></trkpt><trkpt lat="45.839442" lon="9.44033"><time>2024-03-23T10:15:04.000Z</time><ele>1245.8</ele></trkpt><trkpt lat="45.839441" lon="9.44033"><time>2024-03-23T10:15:05.000Z</time><ele>1245.8</ele></trkpt><trkpt lat="45.839441" lon="9.440329"><time>2024-03-23T10:15:06.000Z</time><ele>1245.8</ele></trkpt><trkpt lat="45.839441" lon="9.440329"><time>2024-03-23T10:15:07.000Z</time><ele>1245.8</ele></trkpt><trkpt lat="45.839441" lon="9.440329"><time>2024-03-23T10:15:08.000Z</time><ele>1245.8</ele></trkpt><trkpt lat="45.839441" lon="9.440329"><time>2024-03-23T10:15:09.000Z</time><ele>1245.8</ele></trkpt><trkpt lat="45.839441" lon="9.440329"><time>2024-03-23T10:15:10.000Z</time><ele>1245.8</ele></trkpt><trkpt lat="45.839441" lon="9.440329"><time>2024-03-23T10:15:11.000Z</time><ele>1245.8</ele></trkpt><trkpt lat="45.839441" lon="9.440328"><time>2024-03-23T10:15:12.000Z</time><ele>1245.8</ele></trkpt><trkpt lat="45.839442" lon="9.440328"><time>2024-03-23T10:15:13.000Z</time><ele>1245.8</ele></trkpt><trkpt lat="45.839442" lon="9.440328"><time>2024-03-23T10:15:14.000Z</time><ele>1245.8</ele></trkpt><trkpt lat="45.839442" lon="9.440328"><time>2024-03-23T10:15:15.000Z</time><ele>1245.8</ele></trkpt><trkpt lat="45.839443" lon="9.440328"><time>2024-03-23T10:15:16.000Z</time><ele>1245.8</ele></trkpt><trkpt lat="45.839443" lon="9.440327"><time>2024-03-23T10:15:17.000Z</time><ele>1245.8</ele></trkpt><trkpt lat="45.839443" lon="9.440327"><time>2024-03-23T10:15:18.000Z</time><ele>1245.8</ele></trkpt><trkpt lat="45.839443" lon="9.440327"><time>2024-03-23T10:15:19.000Z</time><ele>1245.8</ele></trkpt><trkpt lat="45.839444" lon="9.440326"><time>2024-03-23T10:15:20.000Z</time><ele>1245.8</ele></trkpt><trkpt lat="45.839444" lon="9.440326"><time>2024-03-23T10:15:21.000Z</time><ele>1245.8</ele></trkpt><trkpt lat="45.839444" lon="9.440326"><time>2024-03-23T10:15:22.000Z</time><ele>1245.8</ele></trkpt><trkpt lat="45.839444" lon="9.440326"><time>2024-03-23T10:15:23.000Z</time><ele>1245.8</ele></trkpt><trkpt lat="45.839445" lon="9.440326"><time>2024-03-23T10:15:24.000Z</time><ele>1245.8</ele></trkpt><trkpt lat="45.839445" lon="9.440326"><time>2024-03-23T10:15:25.000Z</time><ele>1245.8</ele></trkpt><trkpt lat="45.839445" lon="9.440326"><time>2024-03-23T10:15:26.000Z</time><ele>1245.8</ele></trkpt><trkpt lat="45.839445" lon="9.440326"><time>2024-03-23T10:15:27.000Z</time><ele>1245.8</ele></trkpt><trkpt lat="45.839445" lon="9.440326"><time>2024-03-23T10:15:28.000Z</time><ele>1245.8</ele></trkpt><trkpt lat="45.839445" lon="9.440326"><time>2024-03-23T10:15:29.000Z</time><ele>1245.8</ele></trkpt><trkpt lat="45.839446" lon="9.440326"><time>2024-03-23T10:15:30.000Z</time><ele>1245.8</ele></trkpt><trkpt lat="45.839446" lon="9.440326"><time>2024-03-23T10:15:31.000Z</time><ele>1245.8</ele></trkpt><trkpt lat="45.839446" lon="9.440326"><time>2024-03-23T10:15:32.000Z</time><ele>1245.8</ele></trkpt><trkpt lat="45.839447" lon="9.440326"><time>2024-03-23T10:15:33.000Z</time><ele>1245.8</ele></trkpt><trkpt lat="45.839447" lon="9.440326"><time>2024-03-23T10:15:34.000Z</time><ele>1245.8</ele></trkpt><trkpt lat="45.839447" lon="9.440326"><time>2024-03-23T10:15:35.000Z</time><ele>1245.8</ele></trkpt><trkpt lat="45.839448" lon="9.440326"><time>2024-03-23T10:15:36.000Z</time><ele>1245.8</ele></trkpt><trkpt lat="45.839448" lon="9.440326"><time>2024-03-23T10:15:37.000Z</time><ele>1245.8</ele></trkpt><trkpt lat="45.839448" lon="9.440326"><time>2024-03-23T10:15:38.000Z</time><ele>1245.8</ele></trkpt><trkpt lat="45.839449" lon="9.440326"><time>2024-03-23T10:15:39.000Z</time><ele>1245.8</ele></trkpt><trkpt lat="45.839449" lon="9.440326"><time>2024-03-23T10:15:40.000Z</time><ele>1245.8</ele></trkpt><trkpt lat="45.839449" lon="9.440326"><time>2024-03-23T10:15:41.000Z</time><ele>1245.8</ele></trkpt><trkpt lat="45.839449" lon="9.440326"><time>2024-03-23T10:15:42.000Z</time><ele>1245.8</ele></trkpt><trkpt lat="45.839449" lon="9.440326"><time>2024-03-23T10:15:43.000Z</time><ele>1245.8</ele></trkpt><trkpt lat="45.839449" lon="9.440326"><time>2024-03-23T10:15:44.000Z</time><ele>1245.8</ele></trkpt><trkpt lat="45.839449" lon="9.440326"><time>2024-03-23T10:15:45.000Z</time><ele>1245.8</ele></trkpt><trkpt lat="45.839448" lon="9.440326"><time>2024-03-23T10:15:46.000Z</time><ele>1245.8</ele></trkpt><trkpt lat="45.839448" lon="9.440325"><time>2024-03-23T10:15:47.000Z</time><ele>1245.8</ele></trkpt><trkpt lat="45.839448" lon="9.440325"><time>2024-03-23T10:15:48.000Z</time><ele>1245.8</ele></trkpt><trkpt lat="45.839447" lon="9.440325"><time>2024-03-23T10:15:49.000Z</time><ele>1245.8</ele></trkpt><trkpt lat="45.839447" lon="9.440325"><time>2024-03-23T10:15:50.000Z</time><ele>1245.8</ele></trkpt><trkpt lat="45.839447" lon="9.440325"><time>2024-03-23T10:15:51.000Z</time><ele>1245.8</ele></trkpt><trkpt lat="45.839446" lon="9.440325"><time>2024-03-23T10:15:52.000Z</time><ele>1245.8</ele></trkpt><trkpt lat="45.839446" lon="9.440325"><time>2024-03-23T10:15:53.000Z</time><ele>1245.8</ele></trkpt><trkpt lat="45.839445" lon="9.440325"><time>2024-03-23T10:15:54.000Z</time><ele>1245.8</ele></trkpt><trkpt lat="45.839443" lon="9.440324"><time>2024-03-23T10:15:55.000Z</time><ele>1245.8</ele></trkpt><trkpt lat="45.839443" lon="9.440324"><time>2024-03-23T10:15:56.000Z</time><ele>1245.8</ele></trkpt><trkpt lat="45.839442" lon="9.440324"><time>2024-03-23T10:15:57.000Z</time><ele>1245.8</ele></trkpt><trkpt lat="45.839441" lon="9.440323"><time>2024-03-23T10:15:58.000Z</time><ele>1245.8</ele></trkpt><trkpt lat="45.83944" lon="9.440323"><time>2024-03-23T10:15:59.000Z</time><ele>1245.8</ele></trkpt><trkpt lat="45.83944" lon="9.440323"><time>2024-03-23T10:16:00.000Z</time><ele>1245.8</ele></trkpt><trkpt lat="45.839439" lon="9.440323"><time>2024-03-23T10:16:01.000Z</time><ele>1245.8</ele></trkpt><trkpt lat="45.839439" lon="9.440322"><time>2024-03-23T10:16:02.000Z</time><ele>1245.8</ele></trkpt><trkpt lat="45.839438" lon="9.440322"><time>2024-03-23T10:16:03.000Z</time><ele>1245.8</ele></trkpt><trkpt lat="45.839438" lon="9.440322"><time>2024-03-23T10:16:04.000Z</time><ele>1245.8</ele></trkpt><trkpt lat="45.839438" lon="9.440322"><time>2024-03-23T10:16:05.000Z</time><ele>1245.8</ele></trkpt><trkpt lat="45.839438" lon="9.440322"><time>2024-03-23T10:16:06.000Z</time><ele>1245.8</ele></trkpt><trkpt lat="45.839437" lon="9.440321"><time>2024-03-23T10:16:07.000Z</time><ele>1245.8</ele></trkpt><trkpt lat="45.839437" lon="9.440321"><time>2024-03-23T10:16:08.000Z</time><ele>1245.8</ele></trkpt><trkpt lat="45.839437" lon="9.440321"><time>2024-03-23T10:16:09.000Z</time><ele>1245.8</ele></trkpt><trkpt lat="45.839437" lon="9.440321"><time>2024-03-23T10:16:10.000Z</time><ele>1245.8</ele></trkpt><trkpt lat="45.839437" lon="9.440321"><time>2024-03-23T10:16:11.000Z</time><ele>1245.8</ele></trkpt><trkpt lat="45.839436" lon="9.44032"><time>2024-03-23T10:16:12.000Z</time><ele>1245.8</ele></trkpt><trkpt lat="45.839436" lon="9.44032"><time>2024-03-23T10:16:13.000Z</time><ele>1245.8</ele></trkpt><trkpt lat="45.839436" lon="9.44032"><time>2024-03-23T10:16:14.000Z</time><ele>1245.8</ele></trkpt><trkpt lat="45.839436" lon="9.44032"><time>2024-03-23T10:16:15.000Z</time><ele>1245.8</ele></trkpt><trkpt lat="45.839436" lon="9.44032"><time>2024-03-23T10:16:16.000Z</time><ele>1245.8</ele></trkpt><trkpt lat="45.839436" lon="9.44032"><time>2024-03-23T10:16:17.000Z</time><ele>1245.8</ele></trkpt><trkpt lat="45.839436" lon="9.44032"><time>2024-03-23T10:16:18.000Z</time><ele>1245.8</ele></trkpt><trkpt lat="45.839436" lon="9.44032"><time>2024-03-23T10:16:19.000Z</time><ele>1245.8</ele></trkpt><trkpt lat="45.839436" lon="9.44032"><time>2024-03-23T10:16:20.000Z</time><ele>1245.8</ele></trkpt><trkpt lat="45.839436" lon="9.44032"><time>2024-03-23T10:16:21.000Z</time><ele>1245.8</ele></trkpt><trkpt lat="45.839436" lon="9.44032"><time>2024-03-23T10:16:22.000Z</time><ele>1245.8</ele></trkpt><trkpt lat="45.839436" lon="9.44032"><time>2024-03-23T10:16:23.000Z</time><ele>1245.8</ele></trkpt><trkpt lat="45.839435" lon="9.44032"><time>2024-03-23T10:16:24.000Z</time><ele>1245.8</ele></trkpt><trkpt lat="45.839435" lon="9.44032"><time>2024-03-23T10:16:25.000Z</time><ele>1245.8</ele></trkpt><trkpt lat="45.839435" lon="9.44032"><time>2024-03-23T10:16:26.000Z</time><ele>1245.8</ele></trkpt><trkpt lat="45.839435" lon="9.44032"><time>2024-03-23T10:16:27.000Z</time><ele>1245.8</ele></trkpt><trkpt lat="45.839435" lon="9.44032"><time>2024-03-23T10:16:28.000Z</time><ele>1245.8</ele></trkpt><trkpt lat="45.839435" lon="9.44032"><time>2024-03-23T10:16:29.000Z</time><ele>1245.8</ele></trkpt><trkpt lat="45.839435" lon="9.440321"><time>2024-03-23T10:16:30.000Z</time><ele>1245.8</ele></trkpt><trkpt lat="45.839435" lon="9.440321"><time>2024-03-23T10:16:31.000Z</time><ele>1245.8</ele></trkpt><trkpt lat="45.839435" lon="9.440321"><time>2024-03-23T10:16:32.000Z</time><ele>1245.8</ele></trkpt><trkpt lat="45.839435" lon="9.440321"><time>2024-03-23T10:16:33.000Z</time><ele>1245.8</ele></trkpt><trkpt lat="45.839434" lon="9.440321"><time>2024-03-23T10:16:34.000Z</time><ele>1245.8</ele></trkpt><trkpt lat="45.839434" lon="9.440321"><time>2024-03-23T10:16:35.000Z</time><ele>1245.8</ele></trkpt><trkpt lat="45.839434" lon="9.440321"><time>2024-03-23T10:16:36.000Z</time><ele>1245.8</ele></trkpt><trkpt lat="45.839434" lon="9.440321"><time>2024-03-23T10:16:37.000Z</time><ele>1245.8</ele></trkpt><trkpt lat="45.839434" lon="9.440321"><time>2024-03-23T10:16:38.000Z</time><ele>1245.8</ele></trkpt><trkpt lat="45.839434" lon="9.440321"><time>2024-03-23T10:16:39.000Z</time><ele>1245.8</ele></trkpt><trkpt lat="45.839434" lon="9.440321"><time>2024-03-23T10:16:40.000Z</time><ele>1245.8</ele></trkpt><trkpt lat="45.839434" lon="9.440321"><time>2024-03-23T10:16:41.000Z</time><ele>1245.8</ele></trkpt><trkpt lat="45.839434" lon="9.440321"><time>2024-03-23T10:16:42.000Z</time><ele>1245.8</ele></trkpt><trkpt lat="45.839433" lon="9.440322"><time>2024-03-23T10:16:43.000Z</time><ele>1245.8</ele></trkpt><trkpt lat="45.839433" lon="9.440322"><time>2024-03-23T10:16:44.000Z</time><ele>1245.8</ele></trkpt><trkpt lat="45.839433" lon="9.440321"><time>2024-03-23T10:16:45.000Z</time><ele>1245.8</ele></trkpt><trkpt lat="45.839433" lon="9.440321"><time>2024-03-23T10:16:46.000Z</time><ele>1245.8</ele></trkpt><trkpt lat="45.839433" lon="9.440321"><time>2024-03-23T10:16:47.000Z</time><ele>1245.8</ele></trkpt><trkpt lat="45.839433" lon="9.440321"><time>2024-03-23T10:16:48.000Z</time><ele>1245.8</ele></trkpt><trkpt lat="45.839433" lon="9.440321"><time>2024-03-23T10:16:49.000Z</time><ele>1245.8</ele></trkpt><trkpt lat="45.839433" lon="9.440321"><time>2024-03-23T10:16:50.000Z</time><ele>1245.8</ele></trkpt><trkpt lat="45.839433" lon="9.440321"><time>2024-03-23T10:16:51.000Z</time><ele>1245.8</ele></trkpt><trkpt lat="45.839433" lon="9.440321"><time>2024-03-23T10:16:52.000Z</time><ele>1245.8</ele></trkpt><trkpt lat="45.839433" lon="9.440321"><time>2024-03-23T10:16:53.000Z</time><ele>1245.8</ele></trkpt><trkpt lat="45.839433" lon="9.440321"><time>2024-03-23T10:16:54.000Z</time><ele>1245.8</ele></trkpt><trkpt lat="45.839433" lon="9.440321"><time>2024-03-23T10:16:55.000Z</time><ele>1245.8</ele></trkpt><trkpt lat="45.839433" lon="9.440321"><time>2024-03-23T10:16:56.000Z</time><ele>1245.8</ele></trkpt><trkpt lat="45.839433" lon="9.440321"><time>2024-03-23T10:16:57.000Z</time><ele>1245.8</ele></trkpt><trkpt lat="45.839433" lon="9.440321"><time>2024-03-23T10:16:58.000Z</time><ele>1245.8</ele></trkpt><trkpt lat="45.839433" lon="9.440321"><time>2024-03-23T10:16:59.000Z</time><ele>1245.8</ele></trkpt><trkpt lat="45.839433" lon="9.440321"><time>2024-03-23T10:17:00.000Z</time><ele>1245.8</ele></trkpt><trkpt lat="45.839433" lon="9.440321"><time>2024-03-23T10:17:01.000Z</time><ele>1245.8</ele></trkpt><trkpt lat="45.839433" lon="9.440321"><time>2024-03-23T10:17:02.000Z</time><ele>1245.8</ele></trkpt><trkpt lat="45.839433" lon="9.440322"><time>2024-03-23T10:17:03.000Z</time><ele>1245.8</ele></trkpt><trkpt lat="45.839433" lon="9.440321"><time>2024-03-23T10:17:04.000Z</time><ele>1245.8</ele></trkpt><trkpt lat="45.839433" lon="9.440321"><time>2024-03-23T10:17:05.000Z</time><ele>1245.8</ele></trkpt><trkpt lat="45.839433" lon="9.440321"><time>2024-03-23T10:17:06.000Z</time><ele>1245.8</ele></trkpt><trkpt lat="45.839433" lon="9.440321"><time>2024-03-23T10:17:07.000Z</time><ele>1245.8</ele></trkpt><trkpt lat="45.839433" lon="9.440321"><time>2024-03-23T10:17:08.000Z</time><ele>1245.8</ele></trkpt><trkpt lat="45.839433" lon="9.440321"><time>2024-03-23T10:17:09.000Z</time><ele>1245.8</ele></trkpt><trkpt lat="45.839433" lon="9.440321"><time>2024-03-23T10:17:10.000Z</time><ele>1245.8</ele></trkpt><trkpt lat="45.839433" lon="9.440321"><time>2024-03-23T10:17:11.000Z</time><ele>1245.8</ele></trkpt><trkpt lat="45.839433" lon="9.440321"><time>2024-03-23T10:17:12.000Z</time><ele>1245.8</ele></trkpt><trkpt lat="45.839432" lon="9.440322"><time>2024-03-23T10:17:13.000Z</time><ele>1245.8</ele></trkpt><trkpt lat="45.839432" lon="9.440322"><time>2024-03-23T10:17:14.000Z</time><ele>1245.8</ele></trkpt><trkpt lat="45.839432" lon="9.440322"><time>2024-03-23T10:17:15.000Z</time><ele>1245.8</ele></trkpt><trkpt lat="45.839432" lon="9.440322"><time>2024-03-23T10:17:16.000Z</time><ele>1245.8</ele></trkpt><trkpt lat="45.839432" lon="9.440322"><time>2024-03-23T10:17:17.000Z</time><ele>1245.8</ele></trkpt><trkpt lat="45.839432" lon="9.440322"><time>2024-03-23T10:17:18.000Z</time><ele>1245.8</ele></trkpt><trkpt lat="45.839431" lon="9.440322"><time>2024-03-23T10:17:19.000Z</time><ele>1245.8</ele></trkpt><trkpt lat="45.839431" lon="9.440322"><time>2024-03-23T10:17:20.000Z</time><ele>1245.8</ele></trkpt><trkpt lat="45.839431" lon="9.440323"><time>2024-03-23T10:17:21.000Z</time><ele>1245.8</ele></trkpt><trkpt lat="45.839431" lon="9.440323"><time>2024-03-23T10:17:22.000Z</time><ele>1245.8</ele></trkpt><trkpt lat="45.839431" lon="9.440323"><time>2024-03-23T10:17:23.000Z</time><ele>1245.8</ele></trkpt><trkpt lat="45.83943" lon="9.440323"><time>2024-03-23T10:17:24.000Z</time><ele>1245.8</ele></trkpt><trkpt lat="45.83943" lon="9.440323"><time>2024-03-23T10:17:25.000Z</time><ele>1245.8</ele></trkpt><trkpt lat="45.83943" lon="9.440323"><time>2024-03-23T10:17:26.000Z</time><ele>1245.8</ele></trkpt><trkpt lat="45.83943" lon="9.440323"><time>2024-03-23T10:17:27.000Z</time><ele>1245.8</ele></trkpt><trkpt lat="45.83943" lon="9.440323"><time>2024-03-23T10:17:28.000Z</time><ele>1245.8</ele></trkpt><trkpt lat="45.83943" lon="9.440323"><time>2024-03-23T10:17:29.000Z</time><ele>1245.8</ele></trkpt><trkpt lat="45.83943" lon="9.440323"><time>2024-03-23T10:17:30.000Z</time><ele>1245.8</ele></trkpt><trkpt lat="45.83943" lon="9.440323"><time>2024-03-23T10:17:31.000Z</time><ele>1245.8</ele></trkpt><trkpt lat="45.83943" lon="9.440323"><time>2024-03-23T10:17:32.000Z</time><ele>1245.8</ele></trkpt><trkpt lat="45.83943" lon="9.440323"><time>2024-03-23T10:17:33.000Z</time><ele>1245.8</ele></trkpt><trkpt lat="45.83943" lon="9.440323"><time>2024-03-23T10:17:34.000Z</time><ele>1245.8</ele></trkpt><trkpt lat="45.83943" lon="9.440323"><time>2024-03-23T10:17:35.000Z</time><ele>1245.8</ele></trkpt><trkpt lat="45.83943" lon="9.440323"><time>2024-03-23T10:17:36.000Z</time><ele>1245.8</ele></trkpt><trkpt lat="45.83943" lon="9.440323"><time>2024-03-23T10:17:37.000Z</time><ele>1245.8</ele></trkpt><trkpt lat="45.83943" lon="9.440323"><time>2024-03-23T10:17:38.000Z</time><ele>1245.8</ele></trkpt><trkpt lat="45.83943" lon="9.440323"><time>2024-03-23T10:17:39.000Z</time><ele>1245.8</ele></trkpt><trkpt lat="45.83943" lon="9.440323"><time>2024-03-23T10:17:40.000Z</time><ele>1245.8</ele></trkpt><trkpt lat="45.83943" lon="9.440323"><time>2024-03-23T10:17:41.000Z</time><ele>1245.8</ele></trkpt><trkpt lat="45.839429" lon="9.440323"><time>2024-03-23T10:17:42.000Z</time><ele>1245.8</ele></trkpt><trkpt lat="45.839429" lon="9.440323"><time>2024-03-23T10:17:43.000Z</time><ele>1245.8</ele></trkpt><trkpt lat="45.839429" lon="9.440324"><time>2024-03-23T10:17:44.000Z</time><ele>1245.8</ele></trkpt><trkpt lat="45.839429" lon="9.440324"><time>2024-03-23T10:17:45.000Z</time><ele>1245.8</ele></trkpt><trkpt lat="45.839429" lon="9.440324"><time>2024-03-23T10:17:46.000Z</time><ele>1245.8</ele></trkpt><trkpt lat="45.839429" lon="9.440324"><time>2024-03-23T10:17:47.000Z</time><ele>1245.8</ele></trkpt><trkpt lat="45.839429" lon="9.440324"><time>2024-03-23T10:17:48.000Z</time><ele>1245.8</ele></trkpt><trkpt lat="45.839429" lon="9.440324"><time>2024-03-23T10:17:49.000Z</time><ele>1245.8</ele></trkpt><trkpt lat="45.839428" lon="9.440324"><time>2024-03-23T10:17:50.000Z</time><ele>1245.8</ele></trkpt><trkpt lat="45.839428" lon="9.440324"><time>2024-03-23T10:17:51.000Z</time><ele>1245.8</ele></trkpt><trkpt lat="45.839428" lon="9.440324"><time>2024-03-23T10:17:52.000Z</time><ele>1245.8</ele></trkpt><trkpt lat="45.839428" lon="9.440324"><time>2024-03-23T10:17:53.000Z</time><ele>1245.8</ele></trkpt><trkpt lat="45.839428" lon="9.440324"><time>2024-03-23T10:17:54.000Z</time><ele>1245.8</ele></trkpt><trkpt lat="45.839428" lon="9.440324"><time>2024-03-23T10:17:55.000Z</time><ele>1245.8</ele></trkpt><trkpt lat="45.839427" lon="9.440324"><time>2024-03-23T10:17:56.000Z</time><ele>1245.8</ele></trkpt><trkpt lat="45.839427" lon="9.440324"><time>2024-03-23T10:17:57.000Z</time><ele>1245.8</ele></trkpt><trkpt lat="45.839427" lon="9.440324"><time>2024-03-23T10:17:58.000Z</time><ele>1245.8</ele></trkpt><trkpt lat="45.839427" lon="9.440324"><time>2024-03-23T10:17:59.000Z</time><ele>1245.8</ele></trkpt><trkpt lat="45.839427" lon="9.440324"><time>2024-03-23T10:18:00.000Z</time><ele>1245.8</ele></trkpt><trkpt lat="45.839427" lon="9.440324"><time>2024-03-23T10:18:01.000Z</time><ele>1245.8</ele></trkpt><trkpt lat="45.839427" lon="9.440325"><time>2024-03-23T10:18:02.000Z</time><ele>1245.8</ele></trkpt><trkpt lat="45.839427" lon="9.440325"><time>2024-03-23T10:18:03.000Z</time><ele>1245.8</ele></trkpt><trkpt lat="45.839427" lon="9.440325"><time>2024-03-23T10:18:04.000Z</time><ele>1245.8</ele></trkpt><trkpt lat="45.839427" lon="9.440325"><time>2024-03-23T10:18:05.000Z</time><ele>1245.8</ele></trkpt><trkpt lat="45.839427" lon="9.440325"><time>2024-03-23T10:18:06.000Z</time><ele>1245.8</ele></trkpt><trkpt lat="45.839427" lon="9.440325"><time>2024-03-23T10:18:07.000Z</time><ele>1245.8</ele></trkpt><trkpt lat="45.839427" lon="9.440325"><time>2024-03-23T10:18:08.000Z</time><ele>1245.8</ele></trkpt><trkpt lat="45.839426" lon="9.440325"><time>2024-03-23T10:18:09.000Z</time><ele>1245.8</ele></trkpt><trkpt lat="45.839426" lon="9.440325"><time>2024-03-23T10:18:10.000Z</time><ele>1245.8</ele></trkpt><trkpt lat="45.839426" lon="9.440325"><time>2024-03-23T10:18:11.000Z</time><ele>1245.8</ele></trkpt><trkpt lat="45.839426" lon="9.440325"><time>2024-03-23T10:18:12.000Z</time><ele>1245.8</ele></trkpt><trkpt lat="45.839426" lon="9.440325"><time>2024-03-23T10:18:13.000Z</time><ele>1245.8</ele></trkpt><trkpt lat="45.839426" lon="9.440325"><time>2024-03-23T10:18:14.000Z</time><ele>1245.8</ele></trkpt><trkpt lat="45.839426" lon="9.440325"><time>2024-03-23T10:18:15.000Z</time><ele>1245.8</ele></trkpt><trkpt lat="45.839426" lon="9.440325"><time>2024-03-23T10:18:16.000Z</time><ele>1245.8</ele></trkpt><trkpt lat="45.839426" lon="9.440325"><time>2024-03-23T10:18:17.000Z</time><ele>1245.8</ele></trkpt><trkpt lat="45.839426" lon="9.440325"><time>2024-03-23T10:18:18.000Z</time><ele>1245.8</ele></trkpt><trkpt lat="45.839425" lon="9.440325"><time>2024-03-23T10:18:19.000Z</time><ele>1245.8</ele></trkpt><trkpt lat="45.839425" lon="9.440325"><time>2024-03-23T10:18:20.000Z</time><ele>1245.8</ele></trkpt><trkpt lat="45.839425" lon="9.440325"><time>2024-03-23T10:18:21.000Z</time><ele>1245.8</ele></trkpt><trkpt lat="45.839425" lon="9.440325"><time>2024-03-23T10:18:22.000Z</time><ele>1245.8</ele></trkpt><trkpt lat="45.839425" lon="9.440325"><time>2024-03-23T10:18:23.000Z</time><ele>1245.8</ele></trkpt><trkpt lat="45.839425" lon="9.440325"><time>2024-03-23T10:18:24.000Z</time><ele>1245.8</ele></trkpt><trkpt lat="45.839425" lon="9.440325"><time>2024-03-23T10:18:25.000Z</time><ele>1245.8</ele></trkpt><trkpt lat="45.839425" lon="9.440325"><time>2024-03-23T10:18:26.000Z</time><ele>1245.8</ele></trkpt><trkpt lat="45.839425" lon="9.440325"><time>2024-03-23T10:18:27.000Z</time><ele>1245.8</ele></trkpt><trkpt lat="45.839425" lon="9.440325"><time>2024-03-23T10:18:28.000Z</time><ele>1245.8</ele></trkpt><trkpt lat="45.839425" lon="9.440325"><time>2024-03-23T10:18:29.000Z</time><ele>1245.8</ele></trkpt><trkpt lat="45.839425" lon="9.440325"><time>2024-03-23T10:18:30.000Z</time><ele>1245.8</ele></trkpt><trkpt lat="45.839425" lon="9.440325"><time>2024-03-23T10:18:31.000Z</time><ele>1245.8</ele></trkpt><trkpt lat="45.839425" lon="9.440325"><time>2024-03-23T10:18:32.000Z</time><ele>1245.8</ele></trkpt><trkpt lat="45.839425" lon="9.440325"><time>2024-03-23T10:18:33.000Z</time><ele>1245.8</ele></trkpt><trkpt lat="45.839425" lon="9.440325"><time>2024-03-23T10:18:34.000Z</time><ele>1245.8</ele></trkpt><trkpt lat="45.839425" lon="9.440325"><time>2024-03-23T10:18:35.000Z</time><ele>1245.8</ele></trkpt><trkpt lat="45.839425" lon="9.440325"><time>2024-03-23T10:18:36.000Z</time><ele>1245.8</ele></trkpt><trkpt lat="45.839425" lon="9.440325"><time>2024-03-23T10:18:37.000Z</time><ele>1245.8</ele></trkpt><trkpt lat="45.839425" lon="9.440325"><time>2024-03-23T10:18:38.000Z</time><ele>1245.8</ele></trkpt><trkpt lat="45.839424" lon="9.440325"><time>2024-03-23T10:18:39.000Z</time><ele>1245.8</ele></trkpt><trkpt lat="45.839424" lon="9.440325"><time>2024-03-23T10:18:40.000Z</time><ele>1245.8</ele></trkpt><trkpt lat="45.839424" lon="9.440325"><time>2024-03-23T10:18:41.000Z</time><ele>1245.8</ele></trkpt><trkpt lat="45.839424" lon="9.440325"><time>2024-03-23T10:18:42.000Z</time><ele>1245.8</ele></trkpt><trkpt lat="45.839424" lon="9.440325"><time>2024-03-23T10:18:43.000Z</time><ele>1245.8</ele></trkpt><trkpt lat="45.839424" lon="9.440325"><time>2024-03-23T10:18:44.000Z</time><ele>1245.8</ele></trkpt><trkpt lat="45.839424" lon="9.440325"><time>2024-03-23T10:18:45.000Z</time><ele>1245.8</ele></trkpt><trkpt lat="45.839424" lon="9.440325"><time>2024-03-23T10:18:46.000Z</time><ele>1245.8</ele></trkpt><trkpt lat="45.839424" lon="9.440325"><time>2024-03-23T10:18:47.000Z</time><ele>1245.8</ele></trkpt><trkpt lat="45.839424" lon="9.440325"><time>2024-03-23T10:18:48.000Z</time><ele>1245.8</ele></trkpt><trkpt lat="45.839424" lon="9.440325"><time>2024-03-23T10:18:49.000Z</time><ele>1245.8</ele></trkpt><trkpt lat="45.839424" lon="9.440325"><time>2024-03-23T10:18:50.000Z</time><ele>1245.8</ele></trkpt><trkpt lat="45.839424" lon="9.440325"><time>2024-03-23T10:18:51.000Z</time><ele>1245.8</ele></trkpt><trkpt lat="45.839424" lon="9.440325"><time>2024-03-23T10:18:52.000Z</time><ele>1245.8</ele></trkpt><trkpt lat="45.839424" lon="9.440325"><time>2024-03-23T10:18:53.000Z</time><ele>1245.8</ele></trkpt><trkpt lat="45.839424" lon="9.440325"><time>2024-03-23T10:18:54.000Z</time><ele>1245.8</ele></trkpt><trkpt lat="45.839424" lon="9.440325"><time>2024-03-23T10:18:55.000Z</time><ele>1245.8</ele></trkpt><trkpt lat="45.839423" lon="9.440325"><time>2024-03-23T10:18:56.000Z</time><ele>1245.8</ele></trkpt><trkpt lat="45.839423" lon="9.440325"><time>2024-03-23T10:18:57.000Z</time><ele>1245.8</ele></trkpt><trkpt lat="45.839423" lon="9.440325"><time>2024-03-23T10:18:58.000Z</time><ele>1245.8</ele></trkpt><trkpt lat="45.839423" lon="9.440325"><time>2024-03-23T10:18:59.000Z</time><ele>1245.8</ele></trkpt><trkpt lat="45.839423" lon="9.440325"><time>2024-03-23T10:19:00.000Z</time><ele>1245.8</ele></trkpt><trkpt lat="45.839423" lon="9.440325"><time>2024-03-23T10:19:01.000Z</time><ele>1245.8</ele></trkpt><trkpt lat="45.839423" lon="9.440325"><time>2024-03-23T10:19:02.000Z</time><ele>1245.8</ele></trkpt><trkpt lat="45.839423" lon="9.440325"><time>2024-03-23T10:19:03.000Z</time><ele>1245.8</ele></trkpt><trkpt lat="45.839423" lon="9.440325"><time>2024-03-23T10:19:04.000Z</time><ele>1245.8</ele></trkpt><trkpt lat="45.839423" lon="9.440325"><time>2024-03-23T10:19:05.000Z</time><ele>1245.8</ele></trkpt><trkpt lat="45.839423" lon="9.440325"><time>2024-03-23T10:19:06.000Z</time><ele>1245.8</ele></trkpt><trkpt lat="45.839423" lon="9.440325"><time>2024-03-23T10:19:07.000Z</time><ele>1245.8</ele></trkpt><trkpt lat="45.839423" lon="9.440325"><time>2024-03-23T10:19:08.000Z</time><ele>1245.8</ele></trkpt><trkpt lat="45.839423" lon="9.440325"><time>2024-03-23T10:19:09.000Z</time><ele>1245.8</ele></trkpt><trkpt lat="45.839423" lon="9.440325"><time>2024-03-23T10:19:10.000Z</time><ele>1245.8</ele></trkpt><trkpt lat="45.839423" lon="9.440325"><time>2024-03-23T10:19:11.000Z</time><ele>1245.8</ele></trkpt><trkpt lat="45.839422" lon="9.440325"><time>2024-03-23T10:19:12.000Z</time><ele>1245.8</ele></trkpt><trkpt lat="45.839422" lon="9.440325"><time>2024-03-23T10:19:13.000Z</time><ele>1245.8</ele></trkpt><trkpt lat="45.839422" lon="9.440325"><time>2024-03-23T10:19:14.000Z</time><ele>1245.8</ele></trkpt><trkpt lat="45.839422" lon="9.440324"><time>2024-03-23T10:19:15.000Z</time><ele>1245.8</ele></trkpt><trkpt lat="45.839422" lon="9.440324"><time>2024-03-23T10:19:16.000Z</time><ele>1245.8</ele></trkpt><trkpt lat="45.839422" lon="9.440324"><time>2024-03-23T10:19:17.000Z</time><ele>1245.8</ele></trkpt><trkpt lat="45.839422" lon="9.440324"><time>2024-03-23T10:19:18.000Z</time><ele>1245.8</ele></trkpt><trkpt lat="45.839422" lon="9.440324"><time>2024-03-23T10:19:19.000Z</time><ele>1245.8</ele></trkpt><trkpt lat="45.839422" lon="9.440324"><time>2024-03-23T10:19:20.000Z</time><ele>1245.8</ele></trkpt><trkpt lat="45.839422" lon="9.440324"><time>2024-03-23T10:19:21.000Z</time><ele>1245.8</ele></trkpt><trkpt lat="45.839422" lon="9.440324"><time>2024-03-23T10:19:22.000Z</time><ele>1245.8</ele></trkpt><trkpt lat="45.839422" lon="9.440324"><time>2024-03-23T10:19:23.000Z</time><ele>1245.8</ele></trkpt><trkpt lat="45.839422" lon="9.440324"><time>2024-03-23T10:19:24.000Z</time><ele>1245.8</ele></trkpt><trkpt lat="45.839422" lon="9.440324"><time>2024-03-23T10:19:25.000Z</time><ele>1245.8</ele></trkpt><trkpt lat="45.839422" lon="9.440324"><time>2024-03-23T10:19:26.000Z</time><ele>1245.8</ele></trkpt><trkpt lat="45.839422" lon="9.440323"><time>2024-03-23T10:19:27.000Z</time><ele>1245.8</ele></trkpt><trkpt lat="45.839422" lon="9.440323"><time>2024-03-23T10:19:28.000Z</time><ele>1245.8</ele></trkpt><trkpt lat="45.839422" lon="9.440323"><time>2024-03-23T10:19:29.000Z</time><ele>1245.8</ele></trkpt><trkpt lat="45.839422" lon="9.440323"><time>2024-03-23T10:19:30.000Z</time><ele>1245.8</ele></trkpt><trkpt lat="45.839422" lon="9.440323"><time>2024-03-23T10:19:31.000Z</time><ele>1245.8</ele></trkpt><trkpt lat="45.839422" lon="9.440323"><time>2024-03-23T10:19:32.000Z</time><ele>1245.8</ele></trkpt><trkpt lat="45.839422" lon="9.440324"><time>2024-03-23T10:19:33.000Z</time><ele>1245.8</ele></trkpt><trkpt lat="45.839421" lon="9.440324"><time>2024-03-23T10:19:34.000Z</time><ele>1245.8</ele></trkpt><trkpt lat="45.839421" lon="9.440324"><time>2024-03-23T10:19:35.000Z</time><ele>1245.8</ele></trkpt><trkpt lat="45.839421" lon="9.440323"><time>2024-03-23T10:19:36.000Z</time><ele>1245.8</ele></trkpt><trkpt lat="45.839421" lon="9.440323"><time>2024-03-23T10:19:37.000Z</time><ele>1245.8</ele></trkpt><trkpt lat="45.839421" lon="9.440323"><time>2024-03-23T10:19:38.000Z</time><ele>1245.8</ele></trkpt><trkpt lat="45.839421" lon="9.440323"><time>2024-03-23T10:19:39.000Z</time><ele>1245.8</ele></trkpt><trkpt lat="45.839421" lon="9.440323"><time>2024-03-23T10:19:40.000Z</time><ele>1245.8</ele></trkpt><trkpt lat="45.839421" lon="9.440324"><time>2024-03-23T10:19:41.000Z</time><ele>1245.8</ele></trkpt><trkpt lat="45.839421" lon="9.440324"><time>2024-03-23T10:19:42.000Z</time><ele>1245.8</ele></trkpt><trkpt lat="45.839421" lon="9.440324"><time>2024-03-23T10:19:43.000Z</time><ele>1245.8</ele></trkpt><trkpt lat="45.839421" lon="9.440324"><time>2024-03-23T10:19:44.000Z</time><ele>1245.8</ele></trkpt><trkpt lat="45.839421" lon="9.440324"><time>2024-03-23T10:19:45.000Z</time><ele>1245.8</ele></trkpt><trkpt lat="45.839421" lon="9.440324"><time>2024-03-23T10:19:46.000Z</time><ele>1245.8</ele></trkpt><trkpt lat="45.839421" lon="9.440324"><time>2024-03-23T10:19:47.000Z</time><ele>1245.8</ele></trkpt><trkpt lat="45.839421" lon="9.440324"><time>2024-03-23T10:19:48.000Z</time><ele>1245.8</ele></trkpt><trkpt lat="45.83942" lon="9.440324"><time>2024-03-23T10:19:49.000Z</time><ele>1245.8</ele></trkpt><trkpt lat="45.83942" lon="9.440324"><time>2024-03-23T10:19:50.000Z</time><ele>1245.8</ele></trkpt><trkpt lat="45.83942" lon="9.440324"><time>2024-03-23T10:19:51.000Z</time><ele>1245.8</ele></trkpt><trkpt lat="45.83942" lon="9.440324"><time>2024-03-23T10:19:52.000Z</time><ele>1245.8</ele></trkpt><trkpt lat="45.83942" lon="9.440324"><time>2024-03-23T10:19:53.000Z</time><ele>1245.8</ele></trkpt><trkpt lat="45.83942" lon="9.440324"><time>2024-03-23T10:19:54.000Z</time><ele>1245.8</ele></trkpt><trkpt lat="45.83942" lon="9.440324"><time>2024-03-23T10:19:55.000Z</time><ele>1245.8</ele></trkpt><trkpt lat="45.83942" lon="9.440324"><time>2024-03-23T10:19:56.000Z</time><ele>1245.8</ele></trkpt><trkpt lat="45.83942" lon="9.440324"><time>2024-03-23T10:19:57.000Z</time><ele>1245.8</ele></trkpt><trkpt lat="45.83942" lon="9.440324"><time>2024-03-23T10:19:58.000Z</time><ele>1245.8</ele></trkpt><trkpt lat="45.83942" lon="9.440324"><time>2024-03-23T10:19:59.000Z</time><ele>1245.8</ele></trkpt><trkpt lat="45.83942" lon="9.440324"><time>2024-03-23T10:20:00.000Z</time><ele>1245.8</ele></trkpt><trkpt lat="45.839419" lon="9.440324"><time>2024-03-23T10:20:01.000Z</time><ele>1245.8</ele></trkpt><trkpt lat="45.839419" lon="9.440325"><time>2024-03-23T10:20:02.000Z</time><ele>1245.8</ele></trkpt><trkpt lat="45.839419" lon="9.440325"><time>2024-03-23T10:20:03.000Z</time><ele>1245.8</ele></trkpt><trkpt lat="45.839419" lon="9.440325"><time>2024-03-23T10:20:04.000Z</time><ele>1245.8</ele></trkpt><trkpt lat="45.839419" lon="9.440325"><time>2024-03-23T10:20:05.000Z</time><ele>1245.8</ele></trkpt><trkpt lat="45.839419" lon="9.440325"><time>2024-03-23T10:20:06.000Z</time><ele>1245.8</ele></trkpt><trkpt lat="45.839419" lon="9.440325"><time>2024-03-23T10:20:07.000Z</time><ele>1245.8</ele></trkpt><trkpt lat="45.839418" lon="9.440325"><time>2024-03-23T10:20:08.000Z</time><ele>1245.8</ele></trkpt><trkpt lat="45.839419" lon="9.440325"><time>2024-03-23T10:20:09.000Z</time><ele>1245.8</ele></trkpt><trkpt lat="45.839419" lon="9.440325"><time>2024-03-23T10:20:10.000Z</time><ele>1245.8</ele></trkpt><trkpt lat="45.839418" lon="9.440325"><time>2024-03-23T10:20:11.000Z</time><ele>1245.8</ele></trkpt><trkpt lat="45.839418" lon="9.440325"><time>2024-03-23T10:20:12.000Z</time><ele>1245.8</ele></trkpt><trkpt lat="45.839418" lon="9.440325"><time>2024-03-23T10:20:13.000Z</time><ele>1245.8</ele></trkpt><trkpt lat="45.839418" lon="9.440325"><time>2024-03-23T10:20:14.000Z</time><ele>1245.8</ele></trkpt><trkpt lat="45.839418" lon="9.440325"><time>2024-03-23T10:20:15.000Z</time><ele>1245.8</ele></trkpt><trkpt lat="45.839418" lon="9.440325"><time>2024-03-23T10:20:16.000Z</time><ele>1245.8</ele></trkpt><trkpt lat="45.839418" lon="9.440325"><time>2024-03-23T10:20:17.000Z</time><ele>1245.8</ele></trkpt><trkpt lat="45.839418" lon="9.440325"><time>2024-03-23T10:20:18.000Z</time><ele>1245.8</ele></trkpt><trkpt lat="45.839419" lon="9.440325"><time>2024-03-23T10:20:19.000Z</time><ele>1245.8</ele></trkpt><trkpt lat="45.839419" lon="9.440325"><time>2024-03-23T10:20:20.000Z</time><ele>1245.8</ele></trkpt><trkpt lat="45.839419" lon="9.440325"><time>2024-03-23T10:20:21.000Z</time><ele>1245.8</ele></trkpt><trkpt lat="45.839419" lon="9.440325"><time>2024-03-23T10:20:22.000Z</time><ele>1245.8</ele></trkpt><trkpt lat="45.839418" lon="9.440325"><time>2024-03-23T10:20:23.000Z</time><ele>1245.8</ele></trkpt><trkpt lat="45.839418" lon="9.440325"><time>2024-03-23T10:20:24.000Z</time><ele>1245.8</ele></trkpt><trkpt lat="45.839418" lon="9.440325"><time>2024-03-23T10:20:25.000Z</time><ele>1245.8</ele></trkpt><trkpt lat="45.839418" lon="9.440325"><time>2024-03-23T10:20:26.000Z</time><ele>1245.8</ele></trkpt><trkpt lat="45.839418" lon="9.440325"><time>2024-03-23T10:20:27.000Z</time><ele>1245.8</ele></trkpt><trkpt lat="45.839418" lon="9.440325"><time>2024-03-23T10:20:28.000Z</time><ele>1245.8</ele></trkpt><trkpt lat="45.839418" lon="9.440325"><time>2024-03-23T10:20:29.000Z</time><ele>1245.8</ele></trkpt><trkpt lat="45.839418" lon="9.440325"><time>2024-03-23T10:20:30.000Z</time><ele>1245.8</ele></trkpt><trkpt lat="45.839418" lon="9.440325"><time>2024-03-23T10:20:31.000Z</time><ele>1245.8</ele></trkpt><trkpt lat="45.839418" lon="9.440325"><time>2024-03-23T10:20:32.000Z</time><ele>1245.8</ele></trkpt><trkpt lat="45.839418" lon="9.440325"><time>2024-03-23T10:20:33.000Z</time><ele>1245.8</ele></trkpt><trkpt lat="45.839418" lon="9.440325"><time>2024-03-23T10:20:34.000Z</time><ele>1245.8</ele></trkpt><trkpt lat="45.839418" lon="9.440325"><time>2024-03-23T10:20:35.000Z</time><ele>1245.8</ele></trkpt><trkpt lat="45.839418" lon="9.440325"><time>2024-03-23T10:20:36.000Z</time><ele>1245.8</ele></trkpt><trkpt lat="45.839418" lon="9.440325"><time>2024-03-23T10:20:37.000Z</time><ele>1245.8</ele></trkpt><trkpt lat="45.839418" lon="9.440325"><time>2024-03-23T10:20:38.000Z</time><ele>1245.8</ele></trkpt><trkpt lat="45.839418" lon="9.440325"><time>2024-03-23T10:20:39.000Z</time><ele>1245.8</ele></trkpt><trkpt lat="45.839418" lon="9.440325"><time>2024-03-23T10:20:40.000Z</time><ele>1245.8</ele></trkpt><trkpt lat="45.839418" lon="9.440325"><time>2024-03-23T10:20:41.000Z</time><ele>1245.8</ele></trkpt><trkpt lat="45.839418" lon="9.440325"><time>2024-03-23T10:20:42.000Z</time><ele>1245.8</ele></trkpt><trkpt lat="45.839418" lon="9.440325"><time>2024-03-23T10:20:43.000Z</time><ele>1245.8</ele></trkpt><trkpt lat="45.839418" lon="9.440325"><time>2024-03-23T10:20:44.000Z</time><ele>1245.8</ele></trkpt><trkpt lat="45.839418" lon="9.440325"><time>2024-03-23T10:20:45.000Z</time><ele>1245.8</ele></trkpt><trkpt lat="45.839418" lon="9.440325"><time>2024-03-23T10:20:46.000Z</time><ele>1245.8</ele></trkpt><trkpt lat="45.839418" lon="9.440325"><time>2024-03-23T10:20:47.000Z</time><ele>1245.8</ele></trkpt><trkpt lat="45.839418" lon="9.440325"><time>2024-03-23T10:20:48.000Z</time><ele>1245.8</ele></trkpt><trkpt lat="45.839418" lon="9.440324"><time>2024-03-23T10:20:49.000Z</time><ele>1245.8</ele></trkpt><trkpt lat="45.839418" lon="9.440324"><time>2024-03-23T10:20:50.000Z</time><ele>1245.8</ele></trkpt><trkpt lat="45.839418" lon="9.440324"><time>2024-03-23T10:20:51.000Z</time><ele>1245.8</ele></trkpt><trkpt lat="45.839418" lon="9.440324"><time>2024-03-23T10:20:52.000Z</time><ele>1245.8</ele></trkpt><trkpt lat="45.839418" lon="9.440324"><time>2024-03-23T10:20:53.000Z</time><ele>1245.8</ele></trkpt><trkpt lat="45.839418" lon="9.440325"><time>2024-03-23T10:20:54.000Z</time><ele>1245.8</ele></trkpt><trkpt lat="45.839418" lon="9.440325"><time>2024-03-23T10:20:55.000Z</time><ele>1245.8</ele></trkpt><trkpt lat="45.839418" lon="9.440325"><time>2024-03-23T10:20:56.000Z</time><ele>1245.8</ele></trkpt><trkpt lat="45.839418" lon="9.440325"><time>2024-03-23T10:20:57.000Z</time><ele>1245.8</ele></trkpt><trkpt lat="45.839418" lon="9.440325"><time>2024-03-23T10:20:58.000Z</time><ele>1245.8</ele></trkpt><trkpt lat="45.839418" lon="9.440325"><time>2024-03-23T10:20:59.000Z</time><ele>1245.8</ele></trkpt><trkpt lat="45.839418" lon="9.440325"><time>2024-03-23T10:21:00.000Z</time><ele>1245.8</ele></trkpt><trkpt lat="45.839418" lon="9.440324"><time>2024-03-23T10:21:01.000Z</time><ele>1245.8</ele></trkpt><trkpt lat="45.839418" lon="9.440324"><time>2024-03-23T10:21:02.000Z</time><ele>1245.8</ele></trkpt><trkpt lat="45.839418" lon="9.440325"><time>2024-03-23T10:21:03.000Z</time><ele>1245.8</ele></trkpt><trkpt lat="45.839418" lon="9.440325"><time>2024-03-23T10:21:04.000Z</time><ele>1245.8</ele></trkpt><trkpt lat="45.839417" lon="9.440325"><time>2024-03-23T10:21:05.000Z</time><ele>1245.8</ele></trkpt><trkpt lat="45.839417" lon="9.440325"><time>2024-03-23T10:21:06.000Z</time><ele>1245.8</ele></trkpt><trkpt lat="45.839417" lon="9.440325"><time>2024-03-23T10:21:07.000Z</time><ele>1245.8</ele></trkpt><trkpt lat="45.839417" lon="9.440325"><time>2024-03-23T10:21:08.000Z</time><ele>1245.8</ele></trkpt><trkpt lat="45.839417" lon="9.440325"><time>2024-03-23T10:21:09.000Z</time><ele>1245.8</ele></trkpt><trkpt lat="45.839417" lon="9.440325"><time>2024-03-23T10:21:10.000Z</time><ele>1245.8</ele></trkpt><trkpt lat="45.839417" lon="9.440325"><time>2024-03-23T10:21:11.000Z</time><ele>1245.8</ele></trkpt><trkpt lat="45.839417" lon="9.440325"><time>2024-03-23T10:21:12.000Z</time><ele>1245.8</ele></trkpt><trkpt lat="45.839417" lon="9.440325"><time>2024-03-23T10:21:13.000Z</time><ele>1245.8</ele></trkpt><trkpt lat="45.839417" lon="9.440325"><time>2024-03-23T10:21:14.000Z</time><ele>1245.8</ele></trkpt><trkpt lat="45.839417" lon="9.440325"><time>2024-03-23T10:21:15.000Z</time><ele>1245.8</ele></trkpt><trkpt lat="45.839417" lon="9.440325"><time>2024-03-23T10:21:16.000Z</time><ele>1245.8</ele></trkpt><trkpt lat="45.839417" lon="9.440325"><time>2024-03-23T10:21:17.000Z</time><ele>1245.8</ele></trkpt><trkpt lat="45.839417" lon="9.440325"><time>2024-03-23T10:21:18.000Z</time><ele>1245.8</ele></trkpt><trkpt lat="45.839417" lon="9.440325"><time>2024-03-23T10:21:19.000Z</time><ele>1245.8</ele></trkpt><trkpt lat="45.839417" lon="9.440325"><time>2024-03-23T10:21:20.000Z</time><ele>1245.8</ele></trkpt><trkpt lat="45.839417" lon="9.440325"><time>2024-03-23T10:21:21.000Z</time><ele>1245.8</ele></trkpt><trkpt lat="45.839417" lon="9.440325"><time>2024-03-23T10:21:22.000Z</time><ele>1245.8</ele></trkpt><trkpt lat="45.839416" lon="9.440325"><time>2024-03-23T10:21:23.000Z</time><ele>1245.8</ele></trkpt><trkpt lat="45.839416" lon="9.440325"><time>2024-03-23T10:21:24.000Z</time><ele>1245.8</ele></trkpt><trkpt lat="45.839416" lon="9.440325"><time>2024-03-23T10:21:25.000Z</time><ele>1245.8</ele></trkpt><trkpt lat="45.839416" lon="9.440325"><time>2024-03-23T10:21:26.000Z</time><ele>1245.8</ele></trkpt><trkpt lat="45.839416" lon="9.440325"><time>2024-03-23T10:21:27.000Z</time><ele>1245.8</ele></trkpt><trkpt lat="45.839416" lon="9.440325"><time>2024-03-23T10:21:28.000Z</time><ele>1245.8</ele></trkpt><trkpt lat="45.839416" lon="9.440325"><time>2024-03-23T10:21:29.000Z</time><ele>1245.8</ele></trkpt><trkpt lat="45.839416" lon="9.440325"><time>2024-03-23T10:21:30.000Z</time><ele>1245.8</ele></trkpt><trkpt lat="45.839416" lon="9.440325"><time>2024-03-23T10:21:31.000Z</time><ele>1245.8</ele></trkpt><trkpt lat="45.839416" lon="9.440325"><time>2024-03-23T10:21:32.000Z</time><ele>1245.8</ele></trkpt><trkpt lat="45.839416" lon="9.440325"><time>2024-03-23T10:21:33.000Z</time><ele>1245.8</ele></trkpt><trkpt lat="45.839416" lon="9.440325"><time>2024-03-23T10:21:34.000Z</time><ele>1245.8</ele></trkpt><trkpt lat="45.839416" lon="9.440325"><time>2024-03-23T10:21:35.000Z</time><ele>1245.8</ele></trkpt><trkpt lat="45.839416" lon="9.440325"><time>2024-03-23T10:21:36.000Z</time><ele>1245.8</ele></trkpt><trkpt lat="45.839416" lon="9.440325"><time>2024-03-23T10:21:37.000Z</time><ele>1245.8</ele></trkpt><trkpt lat="45.839416" lon="9.440325"><time>2024-03-23T10:21:38.000Z</time><ele>1245.8</ele></trkpt><trkpt lat="45.839416" lon="9.440325"><time>2024-03-23T10:21:39.000Z</time><ele>1245.8</ele></trkpt><trkpt lat="45.839416" lon="9.440326"><time>2024-03-23T10:21:40.000Z</time><ele>1245.8</ele></trkpt><trkpt lat="45.839416" lon="9.440326"><time>2024-03-23T10:21:41.000Z</time><ele>1245.8</ele></trkpt><trkpt lat="45.839416" lon="9.440326"><time>2024-03-23T10:21:42.000Z</time><ele>1245.8</ele></trkpt><trkpt lat="45.839416" lon="9.440326"><time>2024-03-23T10:21:43.000Z</time><ele>1245.8</ele></trkpt><trkpt lat="45.839416" lon="9.440326"><time>2024-03-23T10:21:44.000Z</time><ele>1245.8</ele></trkpt><trkpt lat="45.839416" lon="9.440326"><time>2024-03-23T10:21:45.000Z</time><ele>1245.8</ele></trkpt><trkpt lat="45.839415" lon="9.440326"><time>2024-03-23T10:21:46.000Z</time><ele>1245.8</ele></trkpt><trkpt lat="45.839415" lon="9.440326"><time>2024-03-23T10:21:47.000Z</time><ele>1245.8</ele></trkpt><trkpt lat="45.839415" lon="9.440326"><time>2024-03-23T10:21:48.000Z</time><ele>1245.8</ele></trkpt><trkpt lat="45.839415" lon="9.440326"><time>2024-03-23T10:21:49.000Z</time><ele>1245.8</ele></trkpt><trkpt lat="45.839415" lon="9.440326"><time>2024-03-23T10:21:50.000Z</time><ele>1245.8</ele></trkpt><trkpt lat="45.839415" lon="9.440326"><time>2024-03-23T10:21:51.000Z</time><ele>1245.8</ele></trkpt><trkpt lat="45.839415" lon="9.440326"><time>2024-03-23T10:21:52.000Z</time><ele>1245.8</ele></trkpt><trkpt lat="45.839415" lon="9.440326"><time>2024-03-23T10:21:53.000Z</time><ele>1245.8</ele></trkpt><trkpt lat="45.839415" lon="9.440326"><time>2024-03-23T10:21:54.000Z</time><ele>1245.8</ele></trkpt><trkpt lat="45.839415" lon="9.440326"><time>2024-03-23T10:21:55.000Z</time><ele>1245.8</ele></trkpt><trkpt lat="45.839415" lon="9.440327"><time>2024-03-23T10:21:56.000Z</time><ele>1245.8</ele></trkpt><trkpt lat="45.839415" lon="9.440327"><time>2024-03-23T10:21:57.000Z</time><ele>1245.8</ele></trkpt><trkpt lat="45.839415" lon="9.440327"><time>2024-03-23T10:21:58.000Z</time><ele>1245.8</ele></trkpt><trkpt lat="45.839415" lon="9.440327"><time>2024-03-23T10:21:59.000Z</time><ele>1245.8</ele></trkpt><trkpt lat="45.839415" lon="9.440327"><time>2024-03-23T10:22:00.000Z</time><ele>1245.8</ele></trkpt><trkpt lat="45.839415" lon="9.440327"><time>2024-03-23T10:22:01.000Z</time><ele>1245.8</ele></trkpt><trkpt lat="45.839415" lon="9.440327"><time>2024-03-23T10:22:02.000Z</time><ele>1245.8</ele></trkpt><trkpt lat="45.839415" lon="9.440327"><time>2024-03-23T10:22:03.000Z</time><ele>1245.8</ele></trkpt><trkpt lat="45.839415" lon="9.440327"><time>2024-03-23T10:22:04.000Z</time><ele>1245.8</ele></trkpt><trkpt lat="45.839415" lon="9.440327"><time>2024-03-23T10:22:05.000Z</time><ele>1245.8</ele></trkpt><trkpt lat="45.839415" lon="9.440327"><time>2024-03-23T10:22:06.000Z</time><ele>1245.8</ele></trkpt><trkpt lat="45.839415" lon="9.440327"><time>2024-03-23T10:22:07.000Z</time><ele>1245.8</ele></trkpt><trkpt lat="45.839415" lon="9.440327"><time>2024-03-23T10:22:08.000Z</time><ele>1245.8</ele></trkpt><trkpt lat="45.839415" lon="9.440327"><time>2024-03-23T10:22:09.000Z</time><ele>1245.8</ele></trkpt><trkpt lat="45.839415" lon="9.440327"><time>2024-03-23T10:22:10.000Z</time><ele>1245.8</ele></trkpt><trkpt lat="45.839415" lon="9.440328"><time>2024-03-23T10:22:11.000Z</time><ele>1245.8</ele></trkpt><trkpt lat="45.839415" lon="9.440328"><time>2024-03-23T10:22:12.000Z</time><ele>1245.8</ele></trkpt><trkpt lat="45.839415" lon="9.440328"><time>2024-03-23T10:22:13.000Z</time><ele>1245.8</ele></trkpt><trkpt lat="45.839414" lon="9.440328"><time>2024-03-23T10:22:14.000Z</time><ele>1245.8</ele></trkpt><trkpt lat="45.839414" lon="9.440328"><time>2024-03-23T10:22:15.000Z</time><ele>1245.8</ele></trkpt><trkpt lat="45.839414" lon="9.440328"><time>2024-03-23T10:22:16.000Z</time><ele>1245.8</ele></trkpt><trkpt lat="45.839414" lon="9.440328"><time>2024-03-23T10:22:17.000Z</time><ele>1245.8</ele></trkpt><trkpt lat="45.839414" lon="9.440328"><time>2024-03-23T10:22:18.000Z</time><ele>1245.8</ele></trkpt><trkpt lat="45.839414" lon="9.440328"><time>2024-03-23T10:22:19.000Z</time><ele>1245.8</ele></trkpt><trkpt lat="45.839414" lon="9.440328"><time>2024-03-23T10:22:20.000Z</time><ele>1245.8</ele></trkpt><trkpt lat="45.839414" lon="9.440328"><time>2024-03-23T10:22:21.000Z</time><ele>1245.8</ele></trkpt><trkpt lat="45.839413" lon="9.440328"><time>2024-03-23T10:22:22.000Z</time><ele>1245.8</ele></trkpt><trkpt lat="45.839413" lon="9.440328"><time>2024-03-23T10:22:23.000Z</time><ele>1245.8</ele></trkpt><trkpt lat="45.839413" lon="9.440328"><time>2024-03-23T10:22:24.000Z</time><ele>1245.8</ele></trkpt><trkpt lat="45.839413" lon="9.440329"><time>2024-03-23T10:22:25.000Z</time><ele>1245.8</ele></trkpt><trkpt lat="45.839413" lon="9.440329"><time>2024-03-23T10:22:26.000Z</time><ele>1245.8</ele></trkpt><trkpt lat="45.839413" lon="9.440329"><time>2024-03-23T10:22:27.000Z</time><ele>1245.8</ele></trkpt><trkpt lat="45.839413" lon="9.440329"><time>2024-03-23T10:22:28.000Z</time><ele>1245.8</ele></trkpt><trkpt lat="45.839413" lon="9.440329"><time>2024-03-23T10:22:29.000Z</time><ele>1245.8</ele></trkpt><trkpt lat="45.839413" lon="9.440328"><time>2024-03-23T10:22:30.000Z</time><ele>1245.8</ele></trkpt><trkpt lat="45.839413" lon="9.440328"><time>2024-03-23T10:22:31.000Z</time><ele>1245.8</ele></trkpt><trkpt lat="45.839413" lon="9.440329"><time>2024-03-23T10:22:32.000Z</time><ele>1245.8</ele></trkpt><trkpt lat="45.839413" lon="9.440329"><time>2024-03-23T10:22:33.000Z</time><ele>1245.8</ele></trkpt><trkpt lat="45.839413" lon="9.440329"><time>2024-03-23T10:22:34.000Z</time><ele>1245.8</ele></trkpt><trkpt lat="45.839413" lon="9.440329"><time>2024-03-23T10:22:35.000Z</time><ele>1245.8</ele></trkpt><trkpt lat="45.839413" lon="9.440329"><time>2024-03-23T10:22:36.000Z</time><ele>1245.8</ele></trkpt><trkpt lat="45.839413" lon="9.440329"><time>2024-03-23T10:22:37.000Z</time><ele>1245.8</ele></trkpt><trkpt lat="45.839413" lon="9.440329"><time>2024-03-23T10:22:38.000Z</time><ele>1245.8</ele></trkpt><trkpt lat="45.839413" lon="9.44033"><time>2024-03-23T10:22:39.000Z</time><ele>1245.8</ele></trkpt><trkpt lat="45.839413" lon="9.44033"><time>2024-03-23T10:22:40.000Z</time><ele>1245.8</ele></trkpt><trkpt lat="45.839413" lon="9.44033"><time>2024-03-23T10:22:41.000Z</time><ele>1245.8</ele></trkpt><trkpt lat="45.839413" lon="9.44033"><time>2024-03-23T10:22:42.000Z</time><ele>1245.8</ele></trkpt><trkpt lat="45.839413" lon="9.44033"><time>2024-03-23T10:22:43.000Z</time><ele>1245.8</ele></trkpt><trkpt lat="45.839413" lon="9.44033"><time>2024-03-23T10:22:44.000Z</time><ele>1245.8</ele></trkpt><trkpt lat="45.839413" lon="9.44033"><time>2024-03-23T10:22:45.000Z</time><ele>1245.8</ele></trkpt><trkpt lat="45.839413" lon="9.44033"><time>2024-03-23T10:22:46.000Z</time><ele>1245.8</ele></trkpt><trkpt lat="45.839413" lon="9.44033"><time>2024-03-23T10:22:47.000Z</time><ele>1245.8</ele></trkpt><trkpt lat="45.839413" lon="9.44033"><time>2024-03-23T10:22:48.000Z</time><ele>1245.8</ele></trkpt><trkpt lat="45.839413" lon="9.44033"><time>2024-03-23T10:22:49.000Z</time><ele>1245.8</ele></trkpt><trkpt lat="45.839413" lon="9.44033"><time>2024-03-23T10:22:50.000Z</time><ele>1245.8</ele></trkpt><trkpt lat="45.839413" lon="9.44033"><time>2024-03-23T10:22:51.000Z</time><ele>1245.8</ele></trkpt><trkpt lat="45.839413" lon="9.44033"><time>2024-03-23T10:22:52.000Z</time><ele>1245.8</ele></trkpt><trkpt lat="45.839413" lon="9.44033"><time>2024-03-23T10:22:53.000Z</time><ele>1245.8</ele></trkpt><trkpt lat="45.839413" lon="9.440331"><time>2024-03-23T10:22:54.000Z</time><ele>1245.8</ele></trkpt><trkpt lat="45.839413" lon="9.44033"><time>2024-03-23T10:22:55.000Z</time><ele>1245.8</ele></trkpt><trkpt lat="45.839413" lon="9.44033"><time>2024-03-23T10:22:56.000Z</time><ele>1245.8</ele></trkpt><trkpt lat="45.839413" lon="9.44033"><time>2024-03-23T10:22:57.000Z</time><ele>1245.8</ele></trkpt><trkpt lat="45.839413" lon="9.44033"><time>2024-03-23T10:22:58.000Z</time><ele>1245.8</ele></trkpt><trkpt lat="45.839413" lon="9.44033"><time>2024-03-23T10:22:59.000Z</time><ele>1245.8</ele></trkpt><trkpt lat="45.839413" lon="9.44033"><time>2024-03-23T10:23:00.000Z</time><ele>1245.8</ele></trkpt><trkpt lat="45.839413" lon="9.44033"><time>2024-03-23T10:23:01.000Z</time><ele>1245.8</ele></trkpt><trkpt lat="45.839413" lon="9.44033"><time>2024-03-23T10:23:02.000Z</time><ele>1245.8</ele></trkpt><trkpt lat="45.839413" lon="9.44033"><time>2024-03-23T10:23:03.000Z</time><ele>1245.8</ele></trkpt><trkpt lat="45.839413" lon="9.44033"><time>2024-03-23T10:23:04.000Z</time><ele>1245.8</ele></trkpt><trkpt lat="45.839413" lon="9.44033"><time>2024-03-23T10:23:05.000Z</time><ele>1245.8</ele></trkpt><trkpt lat="45.839413" lon="9.44033"><time>2024-03-23T10:23:06.000Z</time><ele>1245.8</ele></trkpt><trkpt lat="45.839413" lon="9.44033"><time>2024-03-23T10:23:07.000Z</time><ele>1245.8</ele></trkpt><trkpt lat="45.839413" lon="9.44033"><time>2024-03-23T10:23:08.000Z</time><ele>1245.8</ele></trkpt><trkpt lat="45.839413" lon="9.44033"><time>2024-03-23T10:23:09.000Z</time><ele>1245.8</ele></trkpt><trkpt lat="45.839413" lon="9.44033"><time>2024-03-23T10:23:10.000Z</time><ele>1245.8</ele></trkpt><trkpt lat="45.839412" lon="9.440331"><time>2024-03-23T10:23:11.000Z</time><ele>1245.8</ele></trkpt><trkpt lat="45.839412" lon="9.440331"><time>2024-03-23T10:23:12.000Z</time><ele>1245.8</ele></trkpt><trkpt lat="45.839412" lon="9.440331"><time>2024-03-23T10:23:13.000Z</time><ele>1245.8</ele></trkpt><trkpt lat="45.839412" lon="9.440331"><time>2024-03-23T10:23:14.000Z</time><ele>1245.8</ele></trkpt><trkpt lat="45.839412" lon="9.440331"><time>2024-03-23T10:23:15.000Z</time><ele>1245.8</ele></trkpt><trkpt lat="45.839412" lon="9.440331"><time>2024-03-23T10:23:16.000Z</time><ele>1245.8</ele></trkpt><trkpt lat="45.839412" lon="9.440331"><time>2024-03-23T10:23:17.000Z</time><ele>1245.8</ele></trkpt><trkpt lat="45.839412" lon="9.440331"><time>2024-03-23T10:23:18.000Z</time><ele>1245.8</ele></trkpt><trkpt lat="45.839412" lon="9.440331"><time>2024-03-23T10:23:19.000Z</time><ele>1245.8</ele></trkpt><trkpt lat="45.839413" lon="9.440331"><time>2024-03-23T10:23:20.000Z</time><ele>1245.8</ele></trkpt><trkpt lat="45.839412" lon="9.440331"><time>2024-03-23T10:23:21.000Z</time><ele>1245.8</ele></trkpt><trkpt lat="45.839413" lon="9.440331"><time>2024-03-23T10:23:22.000Z</time><ele>1245.8</ele></trkpt><trkpt lat="45.839412" lon="9.440331"><time>2024-03-23T10:23:23.000Z</time><ele>1245.8</ele></trkpt><trkpt lat="45.839412" lon="9.440331"><time>2024-03-23T10:23:24.000Z</time><ele>1245.8</ele></trkpt><trkpt lat="45.839412" lon="9.440331"><time>2024-03-23T10:23:25.000Z</time><ele>1245.8</ele></trkpt><trkpt lat="45.839412" lon="9.440331"><time>2024-03-23T10:23:26.000Z</time><ele>1245.8</ele></trkpt><trkpt lat="45.839412" lon="9.440331"><time>2024-03-23T10:23:27.000Z</time><ele>1245.8</ele></trkpt><trkpt lat="45.839412" lon="9.440331"><time>2024-03-23T10:23:28.000Z</time><ele>1245.8</ele></trkpt><trkpt lat="45.839412" lon="9.440331"><time>2024-03-23T10:23:29.000Z</time><ele>1245.8</ele></trkpt><trkpt lat="45.839412" lon="9.440331"><time>2024-03-23T10:23:30.000Z</time><ele>1245.8</ele></trkpt><trkpt lat="45.839412" lon="9.440331"><time>2024-03-23T10:23:31.000Z</time><ele>1245.8</ele></trkpt><trkpt lat="45.839412" lon="9.440332"><time>2024-03-23T10:23:32.000Z</time><ele>1245.8</ele></trkpt><trkpt lat="45.839412" lon="9.440332"><time>2024-03-23T10:23:33.000Z</time><ele>1245.8</ele></trkpt><trkpt lat="45.839412" lon="9.440332"><time>2024-03-23T10:23:34.000Z</time><ele>1245.8</ele></trkpt><trkpt lat="45.839412" lon="9.440332"><time>2024-03-23T10:23:35.000Z</time><ele>1245.8</ele></trkpt><trkpt lat="45.839412" lon="9.440332"><time>2024-03-23T10:23:36.000Z</time><ele>1245.8</ele></trkpt><trkpt lat="45.839412" lon="9.440332"><time>2024-03-23T10:23:37.000Z</time><ele>1245.8</ele></trkpt><trkpt lat="45.839412" lon="9.440332"><time>2024-03-23T10:23:38.000Z</time><ele>1245.8</ele></trkpt><trkpt lat="45.839412" lon="9.440332"><time>2024-03-23T10:23:39.000Z</time><ele>1245.8</ele></trkpt><trkpt lat="45.839412" lon="9.440332"><time>2024-03-23T10:23:40.000Z</time><ele>1245.8</ele></trkpt><trkpt lat="45.839412" lon="9.440332"><time>2024-03-23T10:23:41.000Z</time><ele>1245.8</ele></trkpt><trkpt lat="45.839412" lon="9.440332"><time>2024-03-23T10:23:42.000Z</time><ele>1245.8</ele></trkpt><trkpt lat="45.839412" lon="9.440332"><time>2024-03-23T10:23:43.000Z</time><ele>1245.8</ele></trkpt><trkpt lat="45.839412" lon="9.440332"><time>2024-03-23T10:23:44.000Z</time><ele>1245.8</ele></trkpt><trkpt lat="45.839412" lon="9.440332"><time>2024-03-23T10:23:45.000Z</time><ele>1245.8</ele></trkpt><trkpt lat="45.839412" lon="9.440332"><time>2024-03-23T10:23:46.000Z</time><ele>1245.8</ele></trkpt><trkpt lat="45.839411" lon="9.440332"><time>2024-03-23T10:23:47.000Z</time><ele>1245.8</ele></trkpt><trkpt lat="45.839411" lon="9.440333"><time>2024-03-23T10:23:48.000Z</time><ele>1245.8</ele></trkpt><trkpt lat="45.839411" lon="9.440332"><time>2024-03-23T10:23:49.000Z</time><ele>1245.8</ele></trkpt><trkpt lat="45.839411" lon="9.440333"><time>2024-03-23T10:23:50.000Z</time><ele>1245.8</ele></trkpt><trkpt lat="45.839411" lon="9.440333"><time>2024-03-23T10:23:51.000Z</time><ele>1245.8</ele></trkpt><trkpt lat="45.839411" lon="9.440333"><time>2024-03-23T10:23:52.000Z</time><ele>1245.8</ele></trkpt><trkpt lat="45.839411" lon="9.440333"><time>2024-03-23T10:23:53.000Z</time><ele>1245.8</ele></trkpt><trkpt lat="45.839411" lon="9.440333"><time>2024-03-23T10:23:54.000Z</time><ele>1245.8</ele></trkpt><trkpt lat="45.839411" lon="9.440333"><time>2024-03-23T10:23:55.000Z</time><ele>1245.8</ele></trkpt><trkpt lat="45.839411" lon="9.440333"><time>2024-03-23T10:23:56.000Z</time><ele>1245.8</ele></trkpt><trkpt lat="45.839411" lon="9.440332"><time>2024-03-23T10:23:57.000Z</time><ele>1245.8</ele></trkpt><trkpt lat="45.839411" lon="9.440332"><time>2024-03-23T10:23:58.000Z</time><ele>1245.8</ele></trkpt><trkpt lat="45.839411" lon="9.440333"><time>2024-03-23T10:23:59.000Z</time><ele>1245.8</ele></trkpt><trkpt lat="45.839411" lon="9.440333"><time>2024-03-23T10:24:00.000Z</time><ele>1245.8</ele></trkpt><trkpt lat="45.839411" lon="9.440333"><time>2024-03-23T10:24:01.000Z</time><ele>1245.8</ele></trkpt><trkpt lat="45.839411" lon="9.440333"><time>2024-03-23T10:24:02.000Z</time><ele>1245.8</ele></trkpt><trkpt lat="45.83941" lon="9.440333"><time>2024-03-23T10:24:03.000Z</time><ele>1245.8</ele></trkpt><trkpt lat="45.83941" lon="9.440333"><time>2024-03-23T10:24:04.000Z</time><ele>1245.8</ele></trkpt><trkpt lat="45.83941" lon="9.440333"><time>2024-03-23T10:24:05.000Z</time><ele>1245.8</ele></trkpt><trkpt lat="45.83941" lon="9.440333"><time>2024-03-23T10:24:06.000Z</time><ele>1245.8</ele></trkpt><trkpt lat="45.83941" lon="9.440333"><time>2024-03-23T10:24:07.000Z</time><ele>1245.8</ele></trkpt><trkpt lat="45.83941" lon="9.440333"><time>2024-03-23T10:24:08.000Z</time><ele>1245.8</ele></trkpt><trkpt lat="45.83941" lon="9.440333"><time>2024-03-23T10:24:09.000Z</time><ele>1245.8</ele></trkpt><trkpt lat="45.83941" lon="9.440333"><time>2024-03-23T10:24:10.000Z</time><ele>1245.8</ele></trkpt><trkpt lat="45.839411" lon="9.440333"><time>2024-03-23T10:24:11.000Z</time><ele>1245.8</ele></trkpt><trkpt lat="45.839411" lon="9.440333"><time>2024-03-23T10:24:12.000Z</time><ele>1245.8</ele></trkpt><trkpt lat="45.83941" lon="9.440333"><time>2024-03-23T10:24:13.000Z</time><ele>1245.8</ele></trkpt><trkpt lat="45.83941" lon="9.440333"><time>2024-03-23T10:24:14.000Z</time><ele>1245.8</ele></trkpt><trkpt lat="45.83941" lon="9.440333"><time>2024-03-23T10:24:15.000Z</time><ele>1245.8</ele></trkpt><trkpt lat="45.83941" lon="9.440333"><time>2024-03-23T10:24:16.000Z</time><ele>1245.8</ele></trkpt><trkpt lat="45.83941" lon="9.440333"><time>2024-03-23T10:24:17.000Z</time><ele>1245.8</ele></trkpt><trkpt lat="45.83941" lon="9.440333"><time>2024-03-23T10:24:18.000Z</time><ele>1245.8</ele></trkpt><trkpt lat="45.83941" lon="9.440333"><time>2024-03-23T10:24:19.000Z</time><ele>1245.8</ele></trkpt><trkpt lat="45.83941" lon="9.440333"><time>2024-03-23T10:24:20.000Z</time><ele>1245.8</ele></trkpt><trkpt lat="45.83941" lon="9.440333"><time>2024-03-23T10:24:21.000Z</time><ele>1245.8</ele></trkpt><trkpt lat="45.83941" lon="9.440333"><time>2024-03-23T10:24:22.000Z</time><ele>1245.8</ele></trkpt><trkpt lat="45.83941" lon="9.440333"><time>2024-03-23T10:24:23.000Z</time><ele>1245.8</ele></trkpt><trkpt lat="45.83941" lon="9.440333"><time>2024-03-23T10:24:24.000Z</time><ele>1245.8</ele></trkpt><trkpt lat="45.83941" lon="9.440333"><time>2024-03-23T10:24:25.000Z</time><ele>1245.8</ele></trkpt><trkpt lat="45.83941" lon="9.440333"><time>2024-03-23T10:24:26.000Z</time><ele>1245.8</ele></trkpt><trkpt lat="45.83941" lon="9.440333"><time>2024-03-23T10:24:27.000Z</time><ele>1245.8</ele></trkpt><trkpt lat="45.83941" lon="9.440333"><time>2024-03-23T10:24:28.000Z</time><ele>1245.8</ele></trkpt><trkpt lat="45.83941" lon="9.440333"><time>2024-03-23T10:24:29.000Z</time><ele>1245.8</ele></trkpt><trkpt lat="45.83941" lon="9.440333"><time>2024-03-23T10:24:30.000Z</time><ele>1245.8</ele></trkpt><trkpt lat="45.83941" lon="9.440333"><time>2024-03-23T10:24:31.000Z</time><ele>1245.8</ele></trkpt><trkpt lat="45.83941" lon="9.440333"><time>2024-03-23T10:24:32.000Z</time><ele>1245.8</ele></trkpt><trkpt lat="45.83941" lon="9.440333"><time>2024-03-23T10:24:33.000Z</time><ele>1245.8</ele></trkpt><trkpt lat="45.839409" lon="9.440333"><time>2024-03-23T10:24:34.000Z</time><ele>1245.8</ele></trkpt><trkpt lat="45.839409" lon="9.440333"><time>2024-03-23T10:24:35.000Z</time><ele>1245.8</ele></trkpt><trkpt lat="45.839409" lon="9.440333"><time>2024-03-23T10:24:36.000Z</time><ele>1245.8</ele></trkpt><trkpt lat="45.83941" lon="9.440343"><time>2024-03-23T10:24:37.000Z</time><ele>1245.8</ele></trkpt><trkpt lat="45.839411" lon="9.440355"><time>2024-03-23T10:24:38.000Z</time><ele>1245.8</ele></trkpt><trkpt lat="45.839412" lon="9.440366"><time>2024-03-23T10:24:39.000Z</time><ele>1245.8</ele></trkpt><trkpt lat="45.839414" lon="9.440377"><time>2024-03-23T10:24:40.000Z</time><ele>1245.8</ele></trkpt><trkpt lat="45.839415" lon="9.440388"><time>2024-03-23T10:24:41.000Z</time><ele>1245.8</ele></trkpt><trkpt lat="45.839418" lon="9.440397"><time>2024-03-23T10:24:42.000Z</time><ele>1245.8</ele></trkpt><trkpt lat="45.839419" lon="9.440408"><time>2024-03-23T10:24:43.000Z</time><ele>1245.8</ele></trkpt><trkpt lat="45.839419" lon="9.440419"><time>2024-03-23T10:24:44.000Z</time><ele>1245.8</ele></trkpt><trkpt lat="45.839423" lon="9.440423"><time>2024-03-23T10:24:45.000Z</time><ele>1245.8</ele></trkpt><trkpt lat="45.839427" lon="9.440431"><time>2024-03-23T10:24:46.000Z</time><ele>1245.8</ele></trkpt><trkpt lat="45.839427" lon="9.440431"><time>2024-03-23T10:24:47.000Z</time><ele>1245.8</ele></trkpt><trkpt lat="45.839427" lon="9.440431"><time>2024-03-23T10:24:48.000Z</time><ele>1245.8</ele></trkpt><trkpt lat="45.839427" lon="9.440431"><time>2024-03-23T10:24:49.000Z</time><ele>1245.8</ele></trkpt><trkpt lat="45.839427" lon="9.440431"><time>2024-03-23T10:24:50.000Z</time><ele>1245.8</ele></trkpt><trkpt lat="45.839427" lon="9.440431"><time>2024-03-23T10:24:51.000Z</time><ele>1245.8</ele></trkpt><trkpt lat="45.839427" lon="9.440431"><time>2024-03-23T10:24:52.000Z</time><ele>1245.8</ele></trkpt><trkpt lat="45.839427" lon="9.440431"><time>2024-03-23T10:24:53.000Z</time><ele>1245.8</ele></trkpt><trkpt lat="45.839427" lon="9.440431"><time>2024-03-23T10:24:54.000Z</time><ele>1245.8</ele></trkpt><trkpt lat="45.839427" lon="9.440431"><time>2024-03-23T10:24:55.000Z</time><ele>1245.8</ele></trkpt><trkpt lat="45.839427" lon="9.440431"><time>2024-03-23T10:24:56.000Z</time><ele>1245.8</ele></trkpt><trkpt lat="45.839427" lon="9.440431"><time>2024-03-23T10:24:57.000Z</time><ele>1245.8</ele></trkpt><trkpt lat="45.839427" lon="9.440431"><time>2024-03-23T10:24:58.000Z</time><ele>1245.8</ele></trkpt><trkpt lat="45.839427" lon="9.440431"><time>2024-03-23T10:24:59.000Z</time><ele>1245.8</ele></trkpt><trkpt lat="45.839427" lon="9.440431"><time>2024-03-23T10:25:00.000Z</time><ele>1245.8</ele></trkpt><trkpt lat="45.839427" lon="9.440431"><time>2024-03-23T10:25:01.000Z</time><ele>1245.8</ele></trkpt><trkpt lat="45.839427" lon="9.440431"><time>2024-03-23T10:25:02.000Z</time><ele>1245.8</ele></trkpt><trkpt lat="45.839427" lon="9.44043"><time>2024-03-23T10:25:03.000Z</time><ele>1245.8</ele></trkpt><trkpt lat="45.839427" lon="9.44043"><time>2024-03-23T10:25:04.000Z</time><ele>1245.8</ele></trkpt><trkpt lat="45.839427" lon="9.440428"><time>2024-03-23T10:25:05.000Z</time><ele>1245.8</ele></trkpt><trkpt lat="45.839427" lon="9.440426"><time>2024-03-23T10:25:06.000Z</time><ele>1245.8</ele></trkpt><trkpt lat="45.839425" lon="9.440425"><time>2024-03-23T10:25:07.000Z</time><ele>1245.8</ele></trkpt><trkpt lat="45.839425" lon="9.440425"><time>2024-03-23T10:25:08.000Z</time><ele>1245.8</ele></trkpt><trkpt lat="45.839425" lon="9.440425"><time>2024-03-23T10:25:09.000Z</time><ele>1245.8</ele></trkpt><trkpt lat="45.839426" lon="9.440425"><time>2024-03-23T10:25:10.000Z</time><ele>1245.8</ele></trkpt><trkpt lat="45.839426" lon="9.440424"><time>2024-03-23T10:25:11.000Z</time><ele>1245.8</ele></trkpt><trkpt lat="45.839427" lon="9.440424"><time>2024-03-23T10:25:12.000Z</time><ele>1245.8</ele></trkpt><trkpt lat="45.839427" lon="9.440424"><time>2024-03-23T10:25:13.000Z</time><ele>1245.8</ele></trkpt><trkpt lat="45.839427" lon="9.440424"><time>2024-03-23T10:25:14.000Z</time><ele>1245.8</ele></trkpt><trkpt lat="45.839427" lon="9.440424"><time>2024-03-23T10:25:15.000Z</time><ele>1245.8</ele></trkpt><trkpt lat="45.839427" lon="9.440423"><time>2024-03-23T10:25:16.000Z</time><ele>1245.8</ele></trkpt><trkpt lat="45.839428" lon="9.440423"><time>2024-03-23T10:25:17.000Z</time><ele>1245.8</ele></trkpt><trkpt lat="45.839428" lon="9.440423"><time>2024-03-23T10:25:18.000Z</time><ele>1245.8</ele></trkpt><trkpt lat="45.839428" lon="9.440423"><time>2024-03-23T10:25:19.000Z</time><ele>1245.8</ele></trkpt><trkpt lat="45.839428" lon="9.440423"><time>2024-03-23T10:25:20.000Z</time><ele>1245.8</ele></trkpt><trkpt lat="45.839428" lon="9.440423"><time>2024-03-23T10:25:21.000Z</time><ele>1245.8</ele></trkpt><trkpt lat="45.839428" lon="9.440423"><time>2024-03-23T10:25:22.000Z</time><ele>1245.8</ele></trkpt><trkpt lat="45.839428" lon="9.440423"><time>2024-03-23T10:25:23.000Z</time><ele>1245.8</ele></trkpt><trkpt lat="45.839428" lon="9.440423"><time>2024-03-23T10:25:24.000Z</time><ele>1245.8</ele></trkpt><trkpt lat="45.839428" lon="9.440423"><time>2024-03-23T10:25:25.000Z</time><ele>1245.8</ele></trkpt><trkpt lat="45.839428" lon="9.440423"><time>2024-03-23T10:25:26.000Z</time><ele>1245.8</ele></trkpt><trkpt lat="45.839428" lon="9.440423"><time>2024-03-23T10:25:27.000Z</time><ele>1245.8</ele></trkpt><trkpt lat="45.839428" lon="9.440423"><time>2024-03-23T10:25:28.000Z</time><ele>1245.8</ele></trkpt><trkpt lat="45.839428" lon="9.440423"><time>2024-03-23T10:25:29.000Z</time><ele>1245.8</ele></trkpt><trkpt lat="45.839428" lon="9.440422"><time>2024-03-23T10:25:30.000Z</time><ele>1245.8</ele></trkpt><trkpt lat="45.839428" lon="9.440422"><time>2024-03-23T10:25:31.000Z</time><ele>1245.8</ele></trkpt><trkpt lat="45.839428" lon="9.440421"><time>2024-03-23T10:25:32.000Z</time><ele>1245.8</ele></trkpt><trkpt lat="45.839428" lon="9.440421"><time>2024-03-23T10:25:33.000Z</time><ele>1245.8</ele></trkpt><trkpt lat="45.839428" lon="9.440421"><time>2024-03-23T10:25:34.000Z</time><ele>1245.8</ele></trkpt><trkpt lat="45.839428" lon="9.44042"><time>2024-03-23T10:25:35.000Z</time><ele>1245.8</ele></trkpt><trkpt lat="45.839428" lon="9.44042"><time>2024-03-23T10:25:36.000Z</time><ele>1245.8</ele></trkpt><trkpt lat="45.839428" lon="9.44042"><time>2024-03-23T10:25:37.000Z</time><ele>1245.8</ele></trkpt><trkpt lat="45.839428" lon="9.44042"><time>2024-03-23T10:25:38.000Z</time><ele>1245.8</ele></trkpt><trkpt lat="45.839428" lon="9.44042"><time>2024-03-23T10:25:39.000Z</time><ele>1245.8</ele></trkpt><trkpt lat="45.839428" lon="9.44042"><time>2024-03-23T10:25:40.000Z</time><ele>1245.8</ele></trkpt><trkpt lat="45.839428" lon="9.440418"><time>2024-03-23T10:25:41.000Z</time><ele>1245.8</ele></trkpt><trkpt lat="45.839428" lon="9.440416"><time>2024-03-23T10:25:42.000Z</time><ele>1245.8</ele></trkpt><trkpt lat="45.839428" lon="9.440415"><time>2024-03-23T10:25:43.000Z</time><ele>1245.8</ele></trkpt><trkpt lat="45.839428" lon="9.440412"><time>2024-03-23T10:25:44.000Z</time><ele>1245.8</ele></trkpt><trkpt lat="45.839428" lon="9.440406"><time>2024-03-23T10:25:45.000Z</time><ele>1245.8</ele></trkpt><trkpt lat="45.839428" lon="9.440402"><time>2024-03-23T10:25:46.000Z</time><ele>1245.8</ele></trkpt><trkpt lat="45.839428" lon="9.440399"><time>2024-03-23T10:25:47.000Z</time><ele>1245.8</ele></trkpt><trkpt lat="45.839424" lon="9.440394"><time>2024-03-23T10:25:48.000Z</time><ele>1245.8</ele></trkpt><trkpt lat="45.839419" lon="9.440389"><time>2024-03-23T10:25:49.000Z</time><ele>1245.8</ele></trkpt><trkpt lat="45.839415" lon="9.440384"><time>2024-03-23T10:25:50.000Z</time><ele>1245.8</ele></trkpt><trkpt lat="45.83941" lon="9.440383"><time>2024-03-23T10:25:51.000Z</time><ele>1245.8</ele></trkpt><trkpt lat="45.839406" lon="9.440382"><time>2024-03-23T10:25:52.000Z</time><ele>1245.8</ele></trkpt><trkpt lat="45.839402" lon="9.440382"><time>2024-03-23T10:25:53.000Z</time><ele>1245.8</ele></trkpt><trkpt lat="45.839399" lon="9.440381"><time>2024-03-23T10:25:54.000Z</time><ele>1245.8</ele></trkpt><trkpt lat="45.839398" lon="9.440381"><time>2024-03-23T10:25:55.000Z</time><ele>1245.8</ele></trkpt><trkpt lat="45.839397" lon="9.44038"><time>2024-03-23T10:25:56.000Z</time><ele>1245.8</ele></trkpt><trkpt lat="45.839397" lon="9.44038"><time>2024-03-23T10:25:57.000Z</time><ele>1245.8</ele></trkpt><trkpt lat="45.839397" lon="9.44038"><time>2024-03-23T10:25:58.000Z</time><ele>1245.8</ele></trkpt><trkpt lat="45.839397" lon="9.44038"><time>2024-03-23T10:25:59.000Z</time><ele>1245.8</ele></trkpt><trkpt lat="45.839397" lon="9.44038"><time>2024-03-23T10:26:00.000Z</time><ele>1245.8</ele></trkpt><trkpt lat="45.839397" lon="9.44038"><time>2024-03-23T10:26:01.000Z</time><ele>1245.8</ele></trkpt><trkpt lat="45.839397" lon="9.440379"><time>2024-03-23T10:26:02.000Z</time><ele>1245.8</ele></trkpt><trkpt lat="45.839397" lon="9.440379"><time>2024-03-23T10:26:03.000Z</time><ele>1245.8</ele></trkpt><trkpt lat="45.839397" lon="9.440379"><time>2024-03-23T10:26:04.000Z</time><ele>1245.8</ele></trkpt><trkpt lat="45.839397" lon="9.440379"><time>2024-03-23T10:26:05.000Z</time><ele>1245.8</ele></trkpt><trkpt lat="45.839397" lon="9.440379"><time>2024-03-23T10:26:06.000Z</time><ele>1245.8</ele></trkpt><trkpt lat="45.839397" lon="9.440379"><time>2024-03-23T10:26:07.000Z</time><ele>1245.8</ele></trkpt><trkpt lat="45.839397" lon="9.440379"><time>2024-03-23T10:26:08.000Z</time><ele>1245.8</ele></trkpt><trkpt lat="45.839397" lon="9.440378"><time>2024-03-23T10:26:09.000Z</time><ele>1245.8</ele></trkpt><trkpt lat="45.839397" lon="9.440378"><time>2024-03-23T10:26:10.000Z</time><ele>1245.8</ele></trkpt><trkpt lat="45.839397" lon="9.440378"><time>2024-03-23T10:26:11.000Z</time><ele>1245.8</ele></trkpt><trkpt lat="45.839398" lon="9.440377"><time>2024-03-23T10:26:12.000Z</time><ele>1245.8</ele></trkpt><trkpt lat="45.839399" lon="9.440376"><time>2024-03-23T10:26:13.000Z</time><ele>1245.8</ele></trkpt><trkpt lat="45.839399" lon="9.440375"><time>2024-03-23T10:26:14.000Z</time><ele>1245.8</ele></trkpt><trkpt lat="45.839401" lon="9.440374"><time>2024-03-23T10:26:15.000Z</time><ele>1245.8</ele></trkpt><trkpt lat="45.839402" lon="9.440373"><time>2024-03-23T10:26:16.000Z</time><ele>1245.8</ele></trkpt><trkpt lat="45.839402" lon="9.440373"><time>2024-03-23T10:26:17.000Z</time><ele>1245.8</ele></trkpt><trkpt lat="45.839403" lon="9.440373"><time>2024-03-23T10:26:18.000Z</time><ele>1245.8</ele></trkpt><trkpt lat="45.839403" lon="9.440372"><time>2024-03-23T10:26:19.000Z</time><ele>1245.8</ele></trkpt><trkpt lat="45.839403" lon="9.440372"><time>2024-03-23T10:26:20.000Z</time><ele>1245.8</ele></trkpt><trkpt lat="45.839404" lon="9.440372"><time>2024-03-23T10:26:21.000Z</time><ele>1245.8</ele></trkpt><trkpt lat="45.839404" lon="9.440372"><time>2024-03-23T10:26:22.000Z</time><ele>1245.8</ele></trkpt><trkpt lat="45.839404" lon="9.440372"><time>2024-03-23T10:26:23.000Z</time><ele>1245.8</ele></trkpt><trkpt lat="45.839404" lon="9.440371"><time>2024-03-23T10:26:24.000Z</time><ele>1245.8</ele></trkpt><trkpt lat="45.839405" lon="9.440371"><time>2024-03-23T10:26:25.000Z</time><ele>1245.8</ele></trkpt><trkpt lat="45.839405" lon="9.440371"><time>2024-03-23T10:26:26.000Z</time><ele>1245.8</ele></trkpt><trkpt lat="45.839405" lon="9.44037"><time>2024-03-23T10:26:27.000Z</time><ele>1245.8</ele></trkpt><trkpt lat="45.839406" lon="9.44037"><time>2024-03-23T10:26:28.000Z</time><ele>1245.8</ele></trkpt><trkpt lat="45.839407" lon="9.44037"><time>2024-03-23T10:26:29.000Z</time><ele>1245.8</ele></trkpt><trkpt lat="45.839408" lon="9.44037"><time>2024-03-23T10:26:30.000Z</time><ele>1245.8</ele></trkpt><trkpt lat="45.839408" lon="9.44037"><time>2024-03-23T10:26:31.000Z</time><ele>1245.8</ele></trkpt><trkpt lat="45.839409" lon="9.44037"><time>2024-03-23T10:26:32.000Z</time><ele>1245.8</ele></trkpt><trkpt lat="45.839411" lon="9.440369"><time>2024-03-23T10:26:33.000Z</time><ele>1245.8</ele></trkpt><trkpt lat="45.839412" lon="9.440369"><time>2024-03-23T10:26:34.000Z</time><ele>1245.8</ele></trkpt><trkpt lat="45.839414" lon="9.440369"><time>2024-03-23T10:26:35.000Z</time><ele>1245.8</ele></trkpt><trkpt lat="45.839415" lon="9.440369"><time>2024-03-23T10:26:36.000Z</time><ele>1245.8</ele></trkpt><trkpt lat="45.839417" lon="9.440368"><time>2024-03-23T10:26:37.000Z</time><ele>1245.8</ele></trkpt><trkpt lat="45.839417" lon="9.440368"><time>2024-03-23T10:26:38.000Z</time><ele>1245.8</ele></trkpt><trkpt lat="45.839418" lon="9.440368"><time>2024-03-23T10:26:39.000Z</time><ele>1245.8</ele></trkpt><trkpt lat="45.839418" lon="9.440368"><time>2024-03-23T10:26:40.000Z</time><ele>1245.8</ele></trkpt><trkpt lat="45.839419" lon="9.440368"><time>2024-03-23T10:26:41.000Z</time><ele>1245.8</ele></trkpt><trkpt lat="45.83942" lon="9.440368"><time>2024-03-23T10:26:42.000Z</time><ele>1245.8</ele></trkpt><trkpt lat="45.83942" lon="9.440367"><time>2024-03-23T10:26:43.000Z</time><ele>1245.8</ele></trkpt><trkpt lat="45.839421" lon="9.440367"><time>2024-03-23T10:26:44.000Z</time><ele>1245.8</ele></trkpt><trkpt lat="45.839421" lon="9.440366"><time>2024-03-23T10:26:45.000Z</time><ele>1245.8</ele></trkpt><trkpt lat="45.839421" lon="9.440366"><time>2024-03-23T10:26:46.000Z</time><ele>1245.8</ele></trkpt><trkpt lat="45.839421" lon="9.440366"><time>2024-03-23T10:26:47.000Z</time><ele>1245.8</ele></trkpt><trkpt lat="45.839421" lon="9.440366"><time>2024-03-23T10:26:48.000Z</time><ele>1245.8</ele></trkpt><trkpt lat="45.839422" lon="9.440366"><time>2024-03-23T10:26:49.000Z</time><ele>1245.8</ele></trkpt><trkpt lat="45.839422" lon="9.440365"><time>2024-03-23T10:26:50.000Z</time><ele>1245.8</ele></trkpt><trkpt lat="45.839422" lon="9.440365"><time>2024-03-23T10:26:51.000Z</time><ele>1245.8</ele></trkpt><trkpt lat="45.839422" lon="9.440365"><time>2024-03-23T10:26:52.000Z</time><ele>1245.8</ele></trkpt><trkpt lat="45.839422" lon="9.440365"><time>2024-03-23T10:26:53.000Z</time><ele>1245.8</ele></trkpt><trkpt lat="45.839422" lon="9.440365"><time>2024-03-23T10:26:54.000Z</time><ele>1245.8</ele></trkpt><trkpt lat="45.839422" lon="9.440365"><time>2024-03-23T10:26:55.000Z</time><ele>1245.8</ele></trkpt><trkpt lat="45.839422" lon="9.440365"><time>2024-03-23T10:26:56.000Z</time><ele>1245.8</ele></trkpt><trkpt lat="45.839422" lon="9.440365"><time>2024-03-23T10:26:57.000Z</time><ele>1245.8</ele></trkpt><trkpt lat="45.839422" lon="9.440365"><time>2024-03-23T10:26:58.000Z</time><ele>1245.8</ele></trkpt><trkpt lat="45.839422" lon="9.440365"><time>2024-03-23T10:26:59.000Z</time><ele>1245.8</ele></trkpt><trkpt lat="45.839422" lon="9.440365"><time>2024-03-23T10:27:00.000Z</time><ele>1245.8</ele></trkpt><trkpt lat="45.839422" lon="9.440365"><time>2024-03-23T10:27:01.000Z</time><ele>1245.8</ele></trkpt><trkpt lat="45.839422" lon="9.440365"><time>2024-03-23T10:27:02.000Z</time><ele>1245.8</ele></trkpt><trkpt lat="45.839422" lon="9.440365"><time>2024-03-23T10:27:03.000Z</time><ele>1245.8</ele></trkpt><trkpt lat="45.839422" lon="9.440365"><time>2024-03-23T10:27:04.000Z</time><ele>1245.8</ele></trkpt><trkpt lat="45.839422" lon="9.440365"><time>2024-03-23T10:27:05.000Z</time><ele>1245.8</ele></trkpt><trkpt lat="45.839422" lon="9.440366"><time>2024-03-23T10:27:06.000Z</time><ele>1245.8</ele></trkpt><trkpt lat="45.839422" lon="9.440366"><time>2024-03-23T10:27:07.000Z</time><ele>1245.8</ele></trkpt><trkpt lat="45.839422" lon="9.440366"><time>2024-03-23T10:27:08.000Z</time><ele>1245.8</ele></trkpt><trkpt lat="45.839422" lon="9.440366"><time>2024-03-23T10:27:09.000Z</time><ele>1245.8</ele></trkpt><trkpt lat="45.839423" lon="9.440366"><time>2024-03-23T10:27:10.000Z</time><ele>1245.8</ele></trkpt><trkpt lat="45.839423" lon="9.440367"><time>2024-03-23T10:27:11.000Z</time><ele>1245.8</ele></trkpt><trkpt lat="45.839423" lon="9.440367"><time>2024-03-23T10:27:12.000Z</time><ele>1245.8</ele></trkpt><trkpt lat="45.839423" lon="9.440367"><time>2024-03-23T10:27:13.000Z</time><ele>1245.8</ele></trkpt><trkpt lat="45.839423" lon="9.440367"><time>2024-03-23T10:27:14.000Z</time><ele>1245.8</ele></trkpt><trkpt lat="45.839423" lon="9.440368"><time>2024-03-23T10:27:15.000Z</time><ele>1245.8</ele></trkpt><trkpt lat="45.839423" lon="9.440368"><time>2024-03-23T10:27:16.000Z</time><ele>1245.8</ele></trkpt><trkpt lat="45.839423" lon="9.440368"><time>2024-03-23T10:27:17.000Z</time><ele>1245.8</ele></trkpt><trkpt lat="45.839423" lon="9.440369"><time>2024-03-23T10:27:18.000Z</time><ele>1245.8</ele></trkpt><trkpt lat="45.839423" lon="9.440369"><time>2024-03-23T10:27:19.000Z</time><ele>1245.8</ele></trkpt><trkpt lat="45.839423" lon="9.44037"><time>2024-03-23T10:27:20.000Z</time><ele>1245.8</ele></trkpt><trkpt lat="45.839424" lon="9.440371"><time>2024-03-23T10:27:21.000Z</time><ele>1245.8</ele></trkpt><trkpt lat="45.839424" lon="9.440373"><time>2024-03-23T10:27:22.000Z</time><ele>1245.8</ele></trkpt><trkpt lat="45.839424" lon="9.440374"><time>2024-03-23T10:27:23.000Z</time><ele>1245.8</ele></trkpt><trkpt lat="45.839425" lon="9.440376"><time>2024-03-23T10:27:24.000Z</time><ele>1245.8</ele></trkpt><trkpt lat="45.839426" lon="9.440377"><time>2024-03-23T10:27:25.000Z</time><ele>1245.8</ele></trkpt><trkpt lat="45.839427" lon="9.440379"><time>2024-03-23T10:27:26.000Z</time><ele>1245.8</ele></trkpt><trkpt lat="45.839431" lon="9.440388"><time>2024-03-23T10:27:27.000Z</time><ele>1245.8</ele></trkpt><trkpt lat="45.839443" lon="9.440403"><time>2024-03-23T10:27:28.000Z</time><ele>1245.8</ele></trkpt><trkpt lat="45.839456" lon="9.440417"><time>2024-03-23T10:27:29.000Z</time><ele>1245.8</ele></trkpt><trkpt lat="45.839476" lon="9.440432"><time>2024-03-23T10:27:30.000Z</time><ele>1245.8</ele></trkpt><trkpt lat="45.839492" lon="9.440446"><time>2024-03-23T10:27:31.000Z</time><ele>1245.8</ele></trkpt><trkpt lat="45.8395" lon="9.44046"><time>2024-03-23T10:27:32.000Z</time><ele>1245.8</ele></trkpt><trkpt lat="45.839507" lon="9.440472"><time>2024-03-23T10:27:33.000Z</time><ele>1245.8</ele></trkpt><trkpt lat="45.839512" lon="9.440481"><time>2024-03-23T10:27:34.000Z</time><ele>1245.8</ele></trkpt><trkpt lat="45.839516" lon="9.44049"><time>2024-03-23T10:27:35.000Z</time><ele>1245.8</ele></trkpt><trkpt lat="45.83952" lon="9.4405"><time>2024-03-23T10:27:36.000Z</time><ele>1245.8</ele></trkpt><trkpt lat="45.83952" lon="9.4405"><time>2024-03-23T10:27:37.000Z</time><ele>1245.8</ele></trkpt><trkpt lat="45.83952" lon="9.4405"><time>2024-03-23T10:27:38.000Z</time><ele>1245.8</ele></trkpt><trkpt lat="45.83952" lon="9.440501"><time>2024-03-23T10:27:39.000Z</time><ele>1245.8</ele></trkpt><trkpt lat="45.83952" lon="9.440501"><time>2024-03-23T10:27:40.000Z</time><ele>1245.8</ele></trkpt><trkpt lat="45.83952" lon="9.440501"><time>2024-03-23T10:27:41.000Z</time><ele>1245.8</ele></trkpt><trkpt lat="45.839524" lon="9.440501"><time>2024-03-23T10:27:42.000Z</time><ele>1245.8</ele></trkpt><trkpt lat="45.839532" lon="9.440499"><time>2024-03-23T10:27:43.000Z</time><ele>1245.8</ele></trkpt><trkpt lat="45.839544" lon="9.440495"><time>2024-03-23T10:27:44.000Z</time><ele>1245.8</ele></trkpt><trkpt lat="45.839554" lon="9.440493"><time>2024-03-23T10:27:45.000Z</time><ele>1245.8</ele></trkpt><trkpt lat="45.839562" lon="9.440493"><time>2024-03-23T10:27:46.000Z</time><ele>1245.8</ele></trkpt><trkpt lat="45.839568" lon="9.440495"><time>2024-03-23T10:27:47.000Z</time><ele>1245.8</ele></trkpt><trkpt lat="45.839572" lon="9.440496"><time>2024-03-23T10:27:48.000Z</time><ele>1245.8</ele></trkpt><trkpt lat="45.839577" lon="9.4405"><time>2024-03-23T10:27:49.000Z</time><ele>1245.8</ele></trkpt><trkpt lat="45.839583" lon="9.440503"><time>2024-03-23T10:27:50.000Z</time><ele>1245.8</ele></trkpt><trkpt lat="45.839591" lon="9.440504"><time>2024-03-23T10:27:51.000Z</time><ele>1245.8</ele></trkpt><trkpt lat="45.839597" lon="9.440509"><time>2024-03-23T10:27:52.000Z</time><ele>1245.8</ele></trkpt><trkpt lat="45.839602" lon="9.440517"><time>2024-03-23T10:27:53.000Z</time><ele>1245.8</ele></trkpt><trkpt lat="45.839604" lon="9.440526"><time>2024-03-23T10:27:54.000Z</time><ele>1245.8</ele></trkpt><trkpt lat="45.839605" lon="9.440537"><time>2024-03-23T10:27:55.000Z</time><ele>1245.8</ele></trkpt><trkpt lat="45.839605" lon="9.440543"><time>2024-03-23T10:27:56.000Z</time><ele>1245.8</ele></trkpt><trkpt lat="45.839607" lon="9.440551"><time>2024-03-23T10:27:57.000Z</time><ele>1245.8</ele></trkpt><trkpt lat="45.839607" lon="9.440559"><time>2024-03-23T10:27:58.000Z</time><ele>1245.8</ele></trkpt><trkpt lat="45.839605" lon="9.440569"><time>2024-03-23T10:27:59.000Z</time><ele>1245.8</ele></trkpt><trkpt lat="45.839606" lon="9.44058"><time>2024-03-23T10:28:00.000Z</time><ele>1248.4</ele></trkpt><trkpt lat="45.83961" lon="9.440589"><time>2024-03-23T10:28:01.000Z</time><ele>1249.8</ele></trkpt><trkpt lat="45.839613" lon="9.440595"><time>2024-03-23T10:28:02.000Z</time><ele>1250.6</ele></trkpt><trkpt lat="45.839617" lon="9.440598"><time>2024-03-23T10:28:03.000Z</time><ele>1251.2</ele></trkpt><trkpt lat="45.83962" lon="9.440602"><time>2024-03-23T10:28:04.000Z</time><ele>1251.6</ele></trkpt><trkpt lat="45.839623" lon="9.440607"><time>2024-03-23T10:28:05.000Z</time><ele>1251.8</ele></trkpt><trkpt lat="45.839625" lon="9.440612"><time>2024-03-23T10:28:06.000Z</time><ele>1252.2</ele></trkpt><trkpt lat="45.839624" lon="9.440622"><time>2024-03-23T10:28:07.000Z</time><ele>1252.6</ele></trkpt><trkpt lat="45.83962" lon="9.440633"><time>2024-03-23T10:28:08.000Z</time><ele>1253</ele></trkpt><trkpt lat="45.839614" lon="9.440643"><time>2024-03-23T10:28:09.000Z</time><ele>1253.2</ele></trkpt><trkpt lat="45.839611" lon="9.440658"><time>2024-03-23T10:28:10.000Z</time><ele>1253.2</ele></trkpt><trkpt lat="45.839609" lon="9.440671"><time>2024-03-23T10:28:11.000Z</time><ele>1253.4</ele></trkpt><trkpt lat="45.839608" lon="9.440683"><time>2024-03-23T10:28:12.000Z</time><ele>1253.4</ele></trkpt><trkpt lat="45.839605" lon="9.440697"><time>2024-03-23T10:28:13.000Z</time><ele>1253.6</ele></trkpt><trkpt lat="45.839602" lon="9.440709"><time>2024-03-23T10:28:14.000Z</time><ele>1253.6</ele></trkpt><trkpt lat="45.839601" lon="9.440715"><time>2024-03-23T10:28:15.000Z</time><ele>1253.8</ele></trkpt><trkpt lat="45.839601" lon="9.440717"><time>2024-03-23T10:28:16.000Z</time><ele>1254</ele></trkpt><trkpt lat="45.839601" lon="9.440717"><time>2024-03-23T10:28:17.000Z</time><ele>1254</ele></trkpt><trkpt lat="45.839601" lon="9.440717"><time>2024-03-23T10:28:18.000Z</time><ele>1254.2</ele></trkpt><trkpt lat="45.839603" lon="9.440717"><time>2024-03-23T10:28:19.000Z</time><ele>1254.2</ele></trkpt><trkpt lat="45.839604" lon="9.440718"><time>2024-03-23T10:28:20.000Z</time><ele>1254.2</ele></trkpt><trkpt lat="45.839603" lon="9.440718"><time>2024-03-23T10:28:21.000Z</time><ele>1254.2</ele></trkpt><trkpt lat="45.839602" lon="9.440719"><time>2024-03-23T10:28:22.000Z</time><ele>1254.4</ele></trkpt><trkpt lat="45.839602" lon="9.44072"><time>2024-03-23T10:28:23.000Z</time><ele>1254.4</ele></trkpt><trkpt lat="45.839601" lon="9.440719"><time>2024-03-23T10:28:24.000Z</time><ele>1254.4</ele></trkpt><trkpt lat="45.839601" lon="9.44072"><time>2024-03-23T10:28:25.000Z</time><ele>1254.4</ele></trkpt><trkpt lat="45.839601" lon="9.44072"><time>2024-03-23T10:28:26.000Z</time><ele>1254.4</ele></trkpt><trkpt lat="45.839601" lon="9.44072"><time>2024-03-23T10:28:27.000Z</time><ele>1254.4</ele></trkpt><trkpt lat="45.839601" lon="9.44072"><time>2024-03-23T10:28:28.000Z</time><ele>1254.4</ele></trkpt><trkpt lat="45.839601" lon="9.44072"><time>2024-03-23T10:28:29.000Z</time><ele>1254.2</ele></trkpt><trkpt lat="45.839601" lon="9.44072"><time>2024-03-23T10:28:30.000Z</time><ele>1254.2</ele></trkpt><trkpt lat="45.839601" lon="9.44072"><time>2024-03-23T10:28:31.000Z</time><ele>1254</ele></trkpt><trkpt lat="45.839601" lon="9.44072"><time>2024-03-23T10:28:32.000Z</time><ele>1254</ele></trkpt><trkpt lat="45.839601" lon="9.44072"><time>2024-03-23T10:28:33.000Z</time><ele>1253.8</ele></trkpt><trkpt lat="45.839601" lon="9.440719"><time>2024-03-23T10:28:34.000Z</time><ele>1253.6</ele></trkpt><trkpt lat="45.839601" lon="9.440719"><time>2024-03-23T10:28:35.000Z</time><ele>1253.4</ele></trkpt><trkpt lat="45.839601" lon="9.440718"><time>2024-03-23T10:28:36.000Z</time><ele>1253.2</ele></trkpt><trkpt lat="45.839601" lon="9.440718"><time>2024-03-23T10:28:37.000Z</time><ele>1253.2</ele></trkpt><trkpt lat="45.839601" lon="9.440717"><time>2024-03-23T10:28:38.000Z</time><ele>1253</ele></trkpt><trkpt lat="45.839601" lon="9.440717"><time>2024-03-23T10:28:39.000Z</time><ele>1253</ele></trkpt><trkpt lat="45.839601" lon="9.440717"><time>2024-03-23T10:28:40.000Z</time><ele>1252.8</ele></trkpt><trkpt lat="45.839601" lon="9.440716"><time>2024-03-23T10:28:41.000Z</time><ele>1252.8</ele></trkpt><trkpt lat="45.839601" lon="9.440716"><time>2024-03-23T10:28:42.000Z</time><ele>1252.6</ele></trkpt><trkpt lat="45.839601" lon="9.440716"><time>2024-03-23T10:28:43.000Z</time><ele>1252.4</ele></trkpt><trkpt lat="45.839601" lon="9.440715"><time>2024-03-23T10:28:44.000Z</time><ele>1252.2</ele></trkpt><trkpt lat="45.839599" lon="9.440713"><time>2024-03-23T10:28:45.000Z</time><ele>1252.2</ele></trkpt><trkpt lat="45.839596" lon="9.440713"><time>2024-03-23T10:28:46.000Z</time><ele>1252.2</ele></trkpt><trkpt lat="45.839593" lon="9.440713"><time>2024-03-23T10:28:47.000Z</time><ele>1252.2</ele></trkpt><trkpt lat="45.83959" lon="9.440713"><time>2024-03-23T10:28:48.000Z</time><ele>1252.2</ele></trkpt><trkpt lat="45.839586" lon="9.440713"><time>2024-03-23T10:28:49.000Z</time><ele>1252.2</ele></trkpt><trkpt lat="45.839583" lon="9.440713"><time>2024-03-23T10:28:50.000Z</time><ele>1252.2</ele></trkpt><trkpt lat="45.839581" lon="9.440713"><time>2024-03-23T10:28:51.000Z</time><ele>1252.4</ele></trkpt><trkpt lat="45.83958" lon="9.440713"><time>2024-03-23T10:28:52.000Z</time><ele>1252.4</ele></trkpt><trkpt lat="45.839577" lon="9.440713"><time>2024-03-23T10:28:53.000Z</time><ele>1252.4</ele></trkpt><trkpt lat="45.839574" lon="9.440713"><time>2024-03-23T10:28:54.000Z</time><ele>1252.4</ele></trkpt><trkpt lat="45.839569" lon="9.440713"><time>2024-03-23T10:28:55.000Z</time><ele>1252.4</ele></trkpt><trkpt lat="45.839564" lon="9.440713"><time>2024-03-23T10:28:56.000Z</time><ele>1252.4</ele></trkpt><trkpt lat="45.839562" lon="9.440713"><time>2024-03-23T10:28:57.000Z</time><ele>1252.6</ele></trkpt><trkpt lat="45.839561" lon="9.440713"><time>2024-03-23T10:28:58.000Z</time><ele>1252.4</ele></trkpt><trkpt lat="45.83956" lon="9.440713"><time>2024-03-23T10:28:59.000Z</time><ele>1252.4</ele></trkpt><trkpt lat="45.839559" lon="9.440714"><time>2024-03-23T10:29:00.000Z</time><ele>1252.4</ele></trkpt><trkpt lat="45.839559" lon="9.440714"><time>2024-03-23T10:29:01.000Z</time><ele>1252.4</ele></trkpt><trkpt lat="45.839557" lon="9.440715"><time>2024-03-23T10:29:02.000Z</time><ele>1252.2</ele></trkpt><trkpt lat="45.839556" lon="9.440715"><time>2024-03-23T10:29:03.000Z</time><ele>1252.2</ele></trkpt><trkpt lat="45.839554" lon="9.440716"><time>2024-03-23T10:29:04.000Z</time><ele>1252.2</ele></trkpt><trkpt lat="45.839554" lon="9.440716"><time>2024-03-23T10:29:05.000Z</time><ele>1252</ele></trkpt><trkpt lat="45.839553" lon="9.440716"><time>2024-03-23T10:29:06.000Z</time><ele>1252</ele></trkpt><trkpt lat="45.839552" lon="9.440716"><time>2024-03-23T10:29:07.000Z</time><ele>1252</ele></trkpt><trkpt lat="45.839551" lon="9.440716"><time>2024-03-23T10:29:08.000Z</time><ele>1251.8</ele></trkpt><trkpt lat="45.839551" lon="9.440717"><time>2024-03-23T10:29:09.000Z</time><ele>1251.8</ele></trkpt><trkpt lat="45.839548" lon="9.440717"><time>2024-03-23T10:29:10.000Z</time><ele>1251.6</ele></trkpt><trkpt lat="45.839547" lon="9.440717"><time>2024-03-23T10:29:11.000Z</time><ele>1251.6</ele></trkpt><trkpt lat="45.839544" lon="9.440718"><time>2024-03-23T10:29:12.000Z</time><ele>1251.4</ele></trkpt><trkpt lat="45.839542" lon="9.440718"><time>2024-03-23T10:29:13.000Z</time><ele>1251.2</ele></trkpt><trkpt lat="45.83954" lon="9.440719"><time>2024-03-23T10:29:14.000Z</time><ele>1251</ele></trkpt><trkpt lat="45.839537" lon="9.440719"><time>2024-03-23T10:29:15.000Z</time><ele>1251</ele></trkpt><trkpt lat="45.839537" lon="9.440719"><time>2024-03-23T10:29:16.000Z</time><ele>1250.8</ele></trkpt><trkpt lat="45.839536" lon="9.440719"><time>2024-03-23T10:29:17.000Z</time><ele>1250.8</ele></trkpt><trkpt lat="45.839536" lon="9.440719"><time>2024-03-23T10:29:18.000Z</time><ele>1250.4</ele></trkpt><trkpt lat="45.839535" lon="9.44072"><time>2024-03-23T10:29:19.000Z</time><ele>1250.2</ele></trkpt><trkpt lat="45.83953" lon="9.440726"><time>2024-03-23T10:29:20.000Z</time><ele>1250.2</ele></trkpt><trkpt lat="45.839519" lon="9.440744"><time>2024-03-23T10:29:21.000Z</time><ele>1250</ele></trkpt><trkpt lat="45.839513" lon="9.440762"><time>2024-03-23T10:29:22.000Z</time><ele>1249.8</ele></trkpt><trkpt lat="45.839504" lon="9.440777"><time>2024-03-23T10:29:23.000Z</time><ele>1249.6</ele></trkpt><trkpt lat="45.839494" lon="9.44079"><time>2024-03-23T10:29:24.000Z</time><ele>1249.6</ele></trkpt><trkpt lat="45.839483" lon="9.440802"><time>2024-03-23T10:29:25.000Z</time><ele>1249.4</ele></trkpt><trkpt lat="45.839472" lon="9.440809"><time>2024-03-23T10:29:26.000Z</time><ele>1249.2</ele></trkpt><trkpt lat="45.839462" lon="9.440816"><time>2024-03-23T10:29:27.000Z</time><ele>1249</ele></trkpt><trkpt lat="45.839451" lon="9.44082"><time>2024-03-23T10:29:28.000Z</time><ele>1248.8</ele></trkpt><trkpt lat="45.839439" lon="9.440824"><time>2024-03-23T10:29:29.000Z</time><ele>1248.6</ele></trkpt><trkpt lat="45.839431" lon="9.440821"><time>2024-03-23T10:29:30.000Z</time><ele>1248.2</ele></trkpt><trkpt lat="45.839424" lon="9.440816"><time>2024-03-23T10:29:31.000Z</time><ele>1248</ele></trkpt><trkpt lat="45.839415" lon="9.440814"><time>2024-03-23T10:29:32.000Z</time><ele>1247.8</ele></trkpt><trkpt lat="45.839407" lon="9.440814"><time>2024-03-23T10:29:33.000Z</time><ele>1247.4</ele></trkpt><trkpt lat="45.839399" lon="9.44082"><time>2024-03-23T10:29:34.000Z</time><ele>1247</ele></trkpt><trkpt lat="45.83939" lon="9.440823"><time>2024-03-23T10:29:35.000Z</time><ele>1246.8</ele></trkpt><trkpt lat="45.83938" lon="9.440827"><time>2024-03-23T10:29:36.000Z</time><ele>1246.6</ele></trkpt><trkpt lat="45.839372" lon="9.440828"><time>2024-03-23T10:29:37.000Z</time><ele>1246.4</ele></trkpt><trkpt lat="45.839363" lon="9.440829"><time>2024-03-23T10:29:38.000Z</time><ele>1246</ele></trkpt><trkpt lat="45.839353" lon="9.44083"><time>2024-03-23T10:29:39.000Z</time><ele>1245.8</ele></trkpt><trkpt lat="45.839344" lon="9.440834"><time>2024-03-23T10:29:40.000Z</time><ele>1245.6</ele></trkpt><trkpt lat="45.839334" lon="9.44084"><time>2024-03-23T10:29:41.000Z</time><ele>1245.4</ele></trkpt><trkpt lat="45.839326" lon="9.440849"><time>2024-03-23T10:29:42.000Z</time><ele>1245.2</ele></trkpt><trkpt lat="45.839318" lon="9.440857"><time>2024-03-23T10:29:43.000Z</time><ele>1245</ele></trkpt><trkpt lat="45.839312" lon="9.440863"><time>2024-03-23T10:29:44.000Z</time><ele>1244.8</ele></trkpt><trkpt lat="45.839308" lon="9.440869"><time>2024-03-23T10:29:45.000Z</time><ele>1244.6</ele></trkpt><trkpt lat="45.839306" lon="9.440875"><time>2024-03-23T10:29:46.000Z</time><ele>1244.6</ele></trkpt><trkpt lat="45.839301" lon="9.44088"><time>2024-03-23T10:29:47.000Z</time><ele>1244.4</ele></trkpt><trkpt lat="45.839295" lon="9.440887"><time>2024-03-23T10:29:48.000Z</time><ele>1244.2</ele></trkpt><trkpt lat="45.83929" lon="9.440896"><time>2024-03-23T10:29:49.000Z</time><ele>1244.2</ele></trkpt><trkpt lat="45.83929" lon="9.440902"><time>2024-03-23T10:29:50.000Z</time><ele>1244</ele></trkpt><trkpt lat="45.83929" lon="9.440908"><time>2024-03-23T10:29:51.000Z</time><ele>1243.8</ele></trkpt><trkpt lat="45.839291" lon="9.440914"><time>2024-03-23T10:29:52.000Z</time><ele>1243.6</ele></trkpt><trkpt lat="45.839291" lon="9.440919"><time>2024-03-23T10:29:53.000Z</time><ele>1243.4</ele></trkpt><trkpt lat="45.839291" lon="9.440922"><time>2024-03-23T10:29:54.000Z</time><ele>1243.4</ele></trkpt><trkpt lat="45.83929" lon="9.440926"><time>2024-03-23T10:29:55.000Z</time><ele>1243.2</ele></trkpt><trkpt lat="45.83929" lon="9.440929"><time>2024-03-23T10:29:56.000Z</time><ele>1243.2</ele></trkpt><trkpt lat="45.839287" lon="9.440929"><time>2024-03-23T10:29:57.000Z</time><ele>1243</ele></trkpt><trkpt lat="45.839282" lon="9.440927"><time>2024-03-23T10:29:58.000Z</time><ele>1243</ele></trkpt><trkpt lat="45.839275" lon="9.440928"><time>2024-03-23T10:29:59.000Z</time><ele>1242.6</ele></trkpt><trkpt lat="45.83927" lon="9.440929"><time>2024-03-23T10:30:00.000Z</time><ele>1242.4</ele></trkpt><trkpt lat="45.839269" lon="9.440932"><time>2024-03-23T10:30:01.000Z</time><ele>1242.2</ele></trkpt><trkpt lat="45.839269" lon="9.440937"><time>2024-03-23T10:30:02.000Z</time><ele>1242</ele></trkpt><trkpt lat="45.839267" lon="9.440941"><time>2024-03-23T10:30:03.000Z</time><ele>1242</ele></trkpt><trkpt lat="45.839264" lon="9.440946"><time>2024-03-23T10:30:04.000Z</time><ele>1241.8</ele></trkpt><trkpt lat="45.839262" lon="9.440953"><time>2024-03-23T10:30:05.000Z</time><ele>1241.6</ele></trkpt><trkpt lat="45.83926" lon="9.44096"><time>2024-03-23T10:30:06.000Z</time><ele>1241.4</ele></trkpt><trkpt lat="45.839259" lon="9.440965"><time>2024-03-23T10:30:07.000Z</time><ele>1241</ele></trkpt><trkpt lat="45.839257" lon="9.440967"><time>2024-03-23T10:30:08.000Z</time><ele>1240.6</ele></trkpt><trkpt lat="45.839256" lon="9.440969"><time>2024-03-23T10:30:09.000Z</time><ele>1240.2</ele></trkpt><trkpt lat="45.839255" lon="9.440971"><time>2024-03-23T10:30:10.000Z</time><ele>1239.8</ele></trkpt><trkpt lat="45.839254" lon="9.440972"><time>2024-03-23T10:30:11.000Z</time><ele>1239.8</ele></trkpt><trkpt lat="45.839254" lon="9.440973"><time>2024-03-23T10:30:12.000Z</time><ele>1239.6</ele></trkpt><trkpt lat="45.839255" lon="9.440972"><time>2024-03-23T10:30:13.000Z</time><ele>1239.6</ele></trkpt><trkpt lat="45.839256" lon="9.44097"><time>2024-03-23T10:30:14.000Z</time><ele>1239.4</ele></trkpt><trkpt lat="45.839257" lon="9.44097"><time>2024-03-23T10:30:15.000Z</time><ele>1239.4</ele></trkpt><trkpt lat="45.839258" lon="9.44097"><time>2024-03-23T10:30:16.000Z</time><ele>1239.4</ele></trkpt><trkpt lat="45.839258" lon="9.44097"><time>2024-03-23T10:30:17.000Z</time><ele>1239.4</ele></trkpt><trkpt lat="45.839258" lon="9.44097"><time>2024-03-23T10:30:18.000Z</time><ele>1239.4</ele></trkpt><trkpt lat="45.839258" lon="9.44097"><time>2024-03-23T10:30:19.000Z</time><ele>1239.4</ele></trkpt><trkpt lat="45.839258" lon="9.44097"><time>2024-03-23T10:30:20.000Z</time><ele>1239.4</ele></trkpt><trkpt lat="45.839258" lon="9.44097"><time>2024-03-23T10:30:21.000Z</time><ele>1239.6</ele></trkpt><trkpt lat="45.839258" lon="9.44097"><time>2024-03-23T10:30:22.000Z</time><ele>1239.6</ele></trkpt><trkpt lat="45.839258" lon="9.44097"><time>2024-03-23T10:30:23.000Z</time><ele>1239.6</ele></trkpt><trkpt lat="45.839258" lon="9.44097"><time>2024-03-23T10:30:24.000Z</time><ele>1239.8</ele></trkpt><trkpt lat="45.839258" lon="9.44097"><time>2024-03-23T10:30:25.000Z</time><ele>1239.8</ele></trkpt><trkpt lat="45.839258" lon="9.44097"><time>2024-03-23T10:30:26.000Z</time><ele>1239.6</ele></trkpt><trkpt lat="45.839258" lon="9.44097"><time>2024-03-23T10:30:27.000Z</time><ele>1239.6</ele></trkpt><trkpt lat="45.839257" lon="9.440971"><time>2024-03-23T10:30:28.000Z</time><ele>1239.6</ele></trkpt><trkpt lat="45.839257" lon="9.440971"><time>2024-03-23T10:30:29.000Z</time><ele>1239.6</ele></trkpt><trkpt lat="45.839257" lon="9.440971"><time>2024-03-23T10:30:30.000Z</time><ele>1239.6</ele></trkpt><trkpt lat="45.839256" lon="9.440972"><time>2024-03-23T10:30:31.000Z</time><ele>1239.6</ele></trkpt><trkpt lat="45.839256" lon="9.440972"><time>2024-03-23T10:30:32.000Z</time><ele>1239.6</ele></trkpt><trkpt lat="45.839256" lon="9.440972"><time>2024-03-23T10:30:33.000Z</time><ele>1239.4</ele></trkpt><trkpt lat="45.839256" lon="9.440972"><time>2024-03-23T10:30:34.000Z</time><ele>1239.4</ele></trkpt><trkpt lat="45.839256" lon="9.440972"><time>2024-03-23T10:30:35.000Z</time><ele>1239.4</ele></trkpt><trkpt lat="45.839256" lon="9.440972"><time>2024-03-23T10:30:36.000Z</time><ele>1239.2</ele></trkpt><trkpt lat="45.839256" lon="9.440973"><time>2024-03-23T10:30:37.000Z</time><ele>1239.2</ele></trkpt><trkpt lat="45.839256" lon="9.440973"><time>2024-03-23T10:30:38.000Z</time><ele>1239</ele></trkpt><trkpt lat="45.839256" lon="9.440973"><time>2024-03-23T10:30:39.000Z</time><ele>1239</ele></trkpt><trkpt lat="45.839256" lon="9.440973"><time>2024-03-23T10:30:40.000Z</time><ele>1238.8</ele></trkpt><trkpt lat="45.839256" lon="9.440973"><time>2024-03-23T10:30:41.000Z</time><ele>1238.8</ele></trkpt><trkpt lat="45.839256" lon="9.440973"><time>2024-03-23T10:30:42.000Z</time><ele>1238.8</ele></trkpt><trkpt lat="45.839256" lon="9.440974"><time>2024-03-23T10:30:43.000Z</time><ele>1238.8</ele></trkpt><trkpt lat="45.839256" lon="9.440974"><time>2024-03-23T10:30:44.000Z</time><ele>1238.4</ele></trkpt><trkpt lat="45.839256" lon="9.440974"><time>2024-03-23T10:30:45.000Z</time><ele>1238.2</ele></trkpt><trkpt lat="45.839256" lon="9.440977"><time>2024-03-23T10:30:46.000Z</time><ele>1237.6</ele></trkpt><trkpt lat="45.839256" lon="9.440982"><time>2024-03-23T10:30:47.000Z</time><ele>1237.4</ele></trkpt><trkpt lat="45.839256" lon="9.440986"><time>2024-03-23T10:30:48.000Z</time><ele>1237.2</ele></trkpt><trkpt lat="45.839256" lon="9.440992"><time>2024-03-23T10:30:49.000Z</time><ele>1237</ele></trkpt><trkpt lat="45.839256" lon="9.440997"><time>2024-03-23T10:30:50.000Z</time><ele>1237</ele></trkpt><trkpt lat="45.839256" lon="9.441002"><time>2024-03-23T10:30:51.000Z</time><ele>1236.8</ele></trkpt><trkpt lat="45.839256" lon="9.441006"><time>2024-03-23T10:30:52.000Z</time><ele>1236.6</ele></trkpt><trkpt lat="45.839256" lon="9.441006"><time>2024-03-23T10:30:53.000Z</time><ele>1236.4</ele></trkpt><trkpt lat="45.839256" lon="9.441009"><time>2024-03-23T10:30:54.000Z</time><ele>1236.2</ele></trkpt><trkpt lat="45.839256" lon="9.44101"><time>2024-03-23T10:30:55.000Z</time><ele>1236</ele></trkpt><trkpt lat="45.839256" lon="9.441016"><time>2024-03-23T10:30:56.000Z</time><ele>1235.8</ele></trkpt><trkpt lat="45.839256" lon="9.441025"><time>2024-03-23T10:30:57.000Z</time><ele>1235.4</ele></trkpt><trkpt lat="45.839256" lon="9.441037"><time>2024-03-23T10:30:58.000Z</time><ele>1235.4</ele></trkpt><trkpt lat="45.839252" lon="9.441063"><time>2024-03-23T10:30:59.000Z</time><ele>1235</ele></trkpt><trkpt lat="45.839253" lon="9.441086"><time>2024-03-23T10:31:00.000Z</time><ele>1234.6</ele></trkpt><trkpt lat="45.839251" lon="9.44111"><time>2024-03-23T10:31:01.000Z</time><ele>1234.6</ele></trkpt><trkpt lat="45.839249" lon="9.441131"><time>2024-03-23T10:31:02.000Z</time><ele>1234.4</ele></trkpt><trkpt lat="45.839244" lon="9.441152"><time>2024-03-23T10:31:03.000Z</time><ele>1234.2</ele></trkpt><trkpt lat="45.839241" lon="9.44117"><time>2024-03-23T10:31:04.000Z</time><ele>1234</ele></trkpt><trkpt lat="45.839238" lon="9.441185"><time>2024-03-23T10:31:05.000Z</time><ele>1233.8</ele></trkpt><trkpt lat="45.839234" lon="9.441196"><time>2024-03-23T10:31:06.000Z</time><ele>1233.8</ele></trkpt><trkpt lat="45.839227" lon="9.441207"><time>2024-03-23T10:31:07.000Z</time><ele>1233.8</ele></trkpt><trkpt lat="45.839225" lon="9.441204"><time>2024-03-23T10:31:08.000Z</time><ele>1233.8</ele></trkpt><trkpt lat="45.839222" lon="9.441204"><time>2024-03-23T10:31:09.000Z</time><ele>1233.6</ele></trkpt><trkpt lat="45.839216" lon="9.441209"><time>2024-03-23T10:31:10.000Z</time><ele>1233.4</ele></trkpt><trkpt lat="45.839211" lon="9.441219"><time>2024-03-23T10:31:11.000Z</time><ele>1233.2</ele></trkpt><trkpt lat="45.839208" lon="9.44123"><time>2024-03-23T10:31:12.000Z</time><ele>1233.2</ele></trkpt><trkpt lat="45.839206" lon="9.441241"><time>2024-03-23T10:31:13.000Z</time><ele>1232.8</ele></trkpt><trkpt lat="45.839204" lon="9.441251"><time>2024-03-23T10:31:14.000Z</time><ele>1232.6</ele></trkpt><trkpt lat="45.839203" lon="9.441258"><time>2024-03-23T10:31:15.000Z</time><ele>1232.2</ele></trkpt><trkpt lat="45.839204" lon="9.441262"><time>2024-03-23T10:31:16.000Z</time><ele>1232</ele></trkpt><trkpt lat="45.839206" lon="9.441266"><time>2024-03-23T10:31:17.000Z</time><ele>1231.8</ele></trkpt><trkpt lat="45.839206" lon="9.441271"><time>2024-03-23T10:31:18.000Z</time><ele>1231.6</ele></trkpt><trkpt lat="45.839206" lon="9.441275"><time>2024-03-23T10:31:19.000Z</time><ele>1231.6</ele></trkpt><trkpt lat="45.839206" lon="9.441277"><time>2024-03-23T10:31:20.000Z</time><ele>1231.4</ele></trkpt><trkpt lat="45.839206" lon="9.441281"><time>2024-03-23T10:31:21.000Z</time><ele>1231.4</ele></trkpt><trkpt lat="45.839206" lon="9.441286"><time>2024-03-23T10:31:22.000Z</time><ele>1231.2</ele></trkpt><trkpt lat="45.839208" lon="9.441289"><time>2024-03-23T10:31:23.000Z</time><ele>1231.2</ele></trkpt><trkpt lat="45.839209" lon="9.441293"><time>2024-03-23T10:31:24.000Z</time><ele>1231.2</ele></trkpt><trkpt lat="45.839209" lon="9.441297"><time>2024-03-23T10:31:25.000Z</time><ele>1231.2</ele></trkpt><trkpt lat="45.839206" lon="9.441304"><time>2024-03-23T10:31:26.000Z</time><ele>1231</ele></trkpt><trkpt lat="45.839206" lon="9.441309"><time>2024-03-23T10:31:27.000Z</time><ele>1231</ele></trkpt><trkpt lat="45.839201" lon="9.441314"><time>2024-03-23T10:31:28.000Z</time><ele>1230.8</ele></trkpt><trkpt lat="45.839196" lon="9.441317"><time>2024-03-23T10:31:29.000Z</time><ele>1230.6</ele></trkpt><trkpt lat="45.839191" lon="9.441322"><time>2024-03-23T10:31:30.000Z</time><ele>1230.4</ele></trkpt><trkpt lat="45.839183" lon="9.441324"><time>2024-03-23T10:31:31.000Z</time><ele>1230.2</ele></trkpt><trkpt lat="45.839175" lon="9.441326"><time>2024-03-23T10:31:32.000Z</time><ele>1229.8</ele></trkpt><trkpt lat="45.839166" lon="9.441328"><time>2024-03-23T10:31:33.000Z</time><ele>1229.6</ele></trkpt><trkpt lat="45.839159" lon="9.441332"><time>2024-03-23T10:31:34.000Z</time><ele>1229.2</ele></trkpt><trkpt lat="45.839154" lon="9.441334"><time>2024-03-23T10:31:35.000Z</time><ele>1229</ele></trkpt><trkpt lat="45.839151" lon="9.441334"><time>2024-03-23T10:31:36.000Z</time><ele>1228.8</ele></trkpt><trkpt lat="45.839148" lon="9.441332"><time>2024-03-23T10:31:37.000Z</time><ele>1228.6</ele></trkpt><trkpt lat="45.839141" lon="9.441329"><time>2024-03-23T10:31:38.000Z</time><ele>1228.4</ele></trkpt><trkpt lat="45.839133" lon="9.441326"><time>2024-03-23T10:31:39.000Z</time><ele>1228.2</ele></trkpt><trkpt lat="45.839125" lon="9.441331"><time>2024-03-23T10:31:40.000Z</time><ele>1228</ele></trkpt><trkpt lat="45.83912" lon="9.441336"><time>2024-03-23T10:31:41.000Z</time><ele>1227.8</ele></trkpt><trkpt lat="45.839118" lon="9.441341"><time>2024-03-23T10:31:42.000Z</time><ele>1227.4</ele></trkpt><trkpt lat="45.839119" lon="9.441345"><time>2024-03-23T10:31:43.000Z</time><ele>1227.2</ele></trkpt><trkpt lat="45.839121" lon="9.441349"><time>2024-03-23T10:31:44.000Z</time><ele>1227</ele></trkpt><trkpt lat="45.839122" lon="9.441353"><time>2024-03-23T10:31:45.000Z</time><ele>1227</ele></trkpt><trkpt lat="45.839121" lon="9.441356"><time>2024-03-23T10:31:46.000Z</time><ele>1226.8</ele></trkpt><trkpt lat="45.839121" lon="9.441361"><time>2024-03-23T10:31:47.000Z</time><ele>1226.8</ele></trkpt><trkpt lat="45.839123" lon="9.441366"><time>2024-03-23T10:31:48.000Z</time><ele>1226.6</ele></trkpt><trkpt lat="45.839125" lon="9.441374"><time>2024-03-23T10:31:49.000Z</time><ele>1226.4</ele></trkpt><trkpt lat="45.839126" lon="9.441377"><time>2024-03-23T10:31:50.000Z</time><ele>1226</ele></trkpt><trkpt lat="45.839127" lon="9.441379"><time>2024-03-23T10:31:51.000Z</time><ele>1225.8</ele></trkpt><trkpt lat="45.839127" lon="9.441385"><time>2024-03-23T10:31:52.000Z</time><ele>1225.8</ele></trkpt><trkpt lat="45.839127" lon="9.441391"><time>2024-03-23T10:31:53.000Z</time><ele>1225.8</ele></trkpt><trkpt lat="45.839126" lon="9.441395"><time>2024-03-23T10:31:54.000Z</time><ele>1225.6</ele></trkpt><trkpt lat="45.83912" lon="9.441398"><time>2024-03-23T10:31:55.000Z</time><ele>1225.6</ele></trkpt><trkpt lat="45.839115" lon="9.441399"><time>2024-03-23T10:31:56.000Z</time><ele>1225.4</ele></trkpt><trkpt lat="45.839108" lon="9.441399"><time>2024-03-23T10:31:57.000Z</time><ele>1225.2</ele></trkpt><trkpt lat="45.839104" lon="9.441398"><time>2024-03-23T10:31:58.000Z</time><ele>1225</ele></trkpt><trkpt lat="45.839096" lon="9.441397"><time>2024-03-23T10:31:59.000Z</time><ele>1224.8</ele></trkpt><trkpt lat="45.839089" lon="9.441396"><time>2024-03-23T10:32:00.000Z</time><ele>1224.6</ele></trkpt><trkpt lat="45.839083" lon="9.4414"><time>2024-03-23T10:32:01.000Z</time><ele>1224.4</ele></trkpt><trkpt lat="45.839079" lon="9.441405"><time>2024-03-23T10:32:02.000Z</time><ele>1224.2</ele></trkpt><trkpt lat="45.839076" lon="9.441409"><time>2024-03-23T10:32:03.000Z</time><ele>1223.8</ele></trkpt><trkpt lat="45.839076" lon="9.441413"><time>2024-03-23T10:32:04.000Z</time><ele>1223.6</ele></trkpt><trkpt lat="45.839076" lon="9.441417"><time>2024-03-23T10:32:05.000Z</time><ele>1223.6</ele></trkpt><trkpt lat="45.839077" lon="9.441422"><time>2024-03-23T10:32:06.000Z</time><ele>1223.4</ele></trkpt><trkpt lat="45.839076" lon="9.441425"><time>2024-03-23T10:32:07.000Z</time><ele>1223.4</ele></trkpt><trkpt lat="45.839074" lon="9.441429"><time>2024-03-23T10:32:08.000Z</time><ele>1223.2</ele></trkpt><trkpt lat="45.839071" lon="9.441432"><time>2024-03-23T10:32:09.000Z</time><ele>1222.8</ele></trkpt><trkpt lat="45.839068" lon="9.441437"><time>2024-03-23T10:32:10.000Z</time><ele>1222.6</ele></trkpt><trkpt lat="45.839065" lon="9.441441"><time>2024-03-23T10:32:11.000Z</time><ele>1222.4</ele></trkpt><trkpt lat="45.839061" lon="9.441447"><time>2024-03-23T10:32:12.000Z</time><ele>1222.4</ele></trkpt><trkpt lat="45.839059" lon="9.441456"><time>2024-03-23T10:32:13.000Z</time><ele>1222.2</ele></trkpt><trkpt lat="45.83906" lon="9.441462"><time>2024-03-23T10:32:14.000Z</time><ele>1222</ele></trkpt><trkpt lat="45.839059" lon="9.44147"><time>2024-03-23T10:32:15.000Z</time><ele>1221.6</ele></trkpt><trkpt lat="45.839055" lon="9.441476"><time>2024-03-23T10:32:16.000Z</time><ele>1221.4</ele></trkpt><trkpt lat="45.839046" lon="9.441478"><time>2024-03-23T10:32:17.000Z</time><ele>1221.2</ele></trkpt><trkpt lat="45.839042" lon="9.441482"><time>2024-03-23T10:32:18.000Z</time><ele>1220.8</ele></trkpt><trkpt lat="45.839038" lon="9.441484"><time>2024-03-23T10:32:19.000Z</time><ele>1220.6</ele></trkpt><trkpt lat="45.839034" lon="9.441486"><time>2024-03-23T10:32:20.000Z</time><ele>1220.6</ele></trkpt><trkpt lat="45.839029" lon="9.441488"><time>2024-03-23T10:32:21.000Z</time><ele>1220.4</ele></trkpt><trkpt lat="45.839027" lon="9.441492"><time>2024-03-23T10:32:22.000Z</time><ele>1220.2</ele></trkpt><trkpt lat="45.839025" lon="9.441499"><time>2024-03-23T10:32:23.000Z</time><ele>1220</ele></trkpt><trkpt lat="45.839021" lon="9.441506"><time>2024-03-23T10:32:24.000Z</time><ele>1220</ele></trkpt><trkpt lat="45.839016" lon="9.441511"><time>2024-03-23T10:32:25.000Z</time><ele>1219.6</ele></trkpt><trkpt lat="45.839014" lon="9.441515"><time>2024-03-23T10:32:26.000Z</time><ele>1219.6</ele></trkpt><trkpt lat="45.839012" lon="9.441518"><time>2024-03-23T10:32:27.000Z</time><ele>1219.4</ele></trkpt><trkpt lat="45.839008" lon="9.441523"><time>2024-03-23T10:32:28.000Z</time><ele>1219.2</ele></trkpt><trkpt lat="45.839005" lon="9.441528"><time>2024-03-23T10:32:29.000Z</time><ele>1219</ele></trkpt><trkpt lat="45.839002" lon="9.441532"><time>2024-03-23T10:32:30.000Z</time><ele>1218.8</ele></trkpt><trkpt lat="45.838998" lon="9.441533"><time>2024-03-23T10:32:31.000Z</time><ele>1218.6</ele></trkpt><trkpt lat="45.838995" lon="9.441534"><time>2024-03-23T10:32:32.000Z</time><ele>1218.6</ele></trkpt><trkpt lat="45.838992" lon="9.441534"><time>2024-03-23T10:32:33.000Z</time><ele>1218.6</ele></trkpt><trkpt lat="45.838988" lon="9.441532"><time>2024-03-23T10:32:34.000Z</time><ele>1218.2</ele></trkpt><trkpt lat="45.838983" lon="9.441531"><time>2024-03-23T10:32:35.000Z</time><ele>1218.2</ele></trkpt><trkpt lat="45.838981" lon="9.44153"><time>2024-03-23T10:32:36.000Z</time><ele>1218</ele></trkpt><trkpt lat="45.838979" lon="9.441534"><time>2024-03-23T10:32:37.000Z</time><ele>1218</ele></trkpt><trkpt lat="45.838977" lon="9.441537"><time>2024-03-23T10:32:38.000Z</time><ele>1217.6</ele></trkpt><trkpt lat="45.838974" lon="9.441542"><time>2024-03-23T10:32:39.000Z</time><ele>1217.6</ele></trkpt><trkpt lat="45.838973" lon="9.441548"><time>2024-03-23T10:32:40.000Z</time><ele>1217.4</ele></trkpt><trkpt lat="45.838973" lon="9.441551"><time>2024-03-23T10:32:41.000Z</time><ele>1217.2</ele></trkpt><trkpt lat="45.83897" lon="9.441554"><time>2024-03-23T10:32:42.000Z</time><ele>1217.2</ele></trkpt><trkpt lat="45.838968" lon="9.441555"><time>2024-03-23T10:32:43.000Z</time><ele>1217</ele></trkpt><trkpt lat="45.838965" lon="9.441557"><time>2024-03-23T10:32:44.000Z</time><ele>1217</ele></trkpt><trkpt lat="45.838962" lon="9.441563"><time>2024-03-23T10:32:45.000Z</time><ele>1216.8</ele></trkpt><trkpt lat="45.838961" lon="9.441566"><time>2024-03-23T10:32:46.000Z</time><ele>1216.8</ele></trkpt><trkpt lat="45.838959" lon="9.441569"><time>2024-03-23T10:32:47.000Z</time><ele>1216.6</ele></trkpt><trkpt lat="45.838956" lon="9.441576"><time>2024-03-23T10:32:48.000Z</time><ele>1216.4</ele></trkpt><trkpt lat="45.838956" lon="9.441584"><time>2024-03-23T10:32:49.000Z</time><ele>1216.2</ele></trkpt><trkpt lat="45.838954" lon="9.44159"><time>2024-03-23T10:32:50.000Z</time><ele>1215.8</ele></trkpt><trkpt lat="45.838954" lon="9.441593"><time>2024-03-23T10:32:51.000Z</time><ele>1215.8</ele></trkpt><trkpt lat="45.838954" lon="9.441597"><time>2024-03-23T10:32:52.000Z</time><ele>1215.4</ele></trkpt><trkpt lat="45.838953" lon="9.441603"><time>2024-03-23T10:32:53.000Z</time><ele>1215.2</ele></trkpt><trkpt lat="45.838952" lon="9.441608"><time>2024-03-23T10:32:54.000Z</time><ele>1215</ele></trkpt><trkpt lat="45.838952" lon="9.441613"><time>2024-03-23T10:32:55.000Z</time><ele>1215</ele></trkpt><trkpt lat="45.838949" lon="9.441619"><time>2024-03-23T10:32:56.000Z</time><ele>1215</ele></trkpt><trkpt lat="45.838947" lon="9.441626"><time>2024-03-23T10:32:57.000Z</time><ele>1214.8</ele></trkpt><trkpt lat="45.838943" lon="9.441631"><time>2024-03-23T10:32:58.000Z</time><ele>1214.4</ele></trkpt><trkpt lat="45.838937" lon="9.441636"><time>2024-03-23T10:32:59.000Z</time><ele>1214.2</ele></trkpt><trkpt lat="45.838934" lon="9.441646"><time>2024-03-23T10:33:00.000Z</time><ele>1214</ele></trkpt><trkpt lat="45.838931" lon="9.441651"><time>2024-03-23T10:33:01.000Z</time><ele>1213.8</ele></trkpt><trkpt lat="45.83893" lon="9.441658"><time>2024-03-23T10:33:02.000Z</time><ele>1213.6</ele></trkpt><trkpt lat="45.83893" lon="9.441668"><time>2024-03-23T10:33:03.000Z</time><ele>1213.4</ele></trkpt><trkpt lat="45.838929" lon="9.441677"><time>2024-03-23T10:33:04.000Z</time><ele>1213</ele></trkpt><trkpt lat="45.838925" lon="9.441686"><time>2024-03-23T10:33:05.000Z</time><ele>1212.6</ele></trkpt><trkpt lat="45.83892" lon="9.44169"><time>2024-03-23T10:33:06.000Z</time><ele>1212.4</ele></trkpt><trkpt lat="45.838914" lon="9.441698"><time>2024-03-23T10:33:07.000Z</time><ele>1212.2</ele></trkpt><trkpt lat="45.83891" lon="9.441701"><time>2024-03-23T10:33:08.000Z</time><ele>1212</ele></trkpt><trkpt lat="45.838903" lon="9.441706"><time>2024-03-23T10:33:09.000Z</time><ele>1211.8</ele></trkpt><trkpt lat="45.838897" lon="9.44171"><time>2024-03-23T10:33:10.000Z</time><ele>1211.6</ele></trkpt><trkpt lat="45.838891" lon="9.441715"><time>2024-03-23T10:33:11.000Z</time><ele>1211.6</ele></trkpt><trkpt lat="45.838885" lon="9.441717"><time>2024-03-23T10:33:12.000Z</time><ele>1211.4</ele></trkpt><trkpt lat="45.838882" lon="9.441718"><time>2024-03-23T10:33:13.000Z</time><ele>1211.2</ele></trkpt><trkpt lat="45.838879" lon="9.441719"><time>2024-03-23T10:33:14.000Z</time><ele>1211.2</ele></trkpt><trkpt lat="45.838876" lon="9.441716"><time>2024-03-23T10:33:15.000Z</time><ele>1211.2</ele></trkpt><trkpt lat="45.838875" lon="9.441713"><time>2024-03-23T10:33:16.000Z</time><ele>1211</ele></trkpt><trkpt lat="45.83887" lon="9.441708"><time>2024-03-23T10:33:17.000Z</time><ele>1211</ele></trkpt><trkpt lat="45.838869" lon="9.441699"><time>2024-03-23T10:33:18.000Z</time><ele>1210.6</ele></trkpt><trkpt lat="45.838868" lon="9.441691"><time>2024-03-23T10:33:19.000Z</time><ele>1210.2</ele></trkpt><trkpt lat="45.838869" lon="9.441685"><time>2024-03-23T10:33:20.000Z</time><ele>1210</ele></trkpt><trkpt lat="45.838869" lon="9.441683"><time>2024-03-23T10:33:21.000Z</time><ele>1209.6</ele></trkpt><trkpt lat="45.838867" lon="9.441677"><time>2024-03-23T10:33:22.000Z</time><ele>1209.4</ele></trkpt><trkpt lat="45.838861" lon="9.441673"><time>2024-03-23T10:33:23.000Z</time><ele>1209.2</ele></trkpt><trkpt lat="45.838855" lon="9.441676"><time>2024-03-23T10:33:24.000Z</time><ele>1209</ele></trkpt><trkpt lat="45.838852" lon="9.441683"><time>2024-03-23T10:33:25.000Z</time><ele>1208.8</ele></trkpt><trkpt lat="45.838849" lon="9.441692"><time>2024-03-23T10:33:26.000Z</time><ele>1208.6</ele></trkpt><trkpt lat="45.838846" lon="9.4417"><time>2024-03-23T10:33:27.000Z</time><ele>1208.4</ele></trkpt><trkpt lat="45.838841" lon="9.441707"><time>2024-03-23T10:33:28.000Z</time><ele>1208.2</ele></trkpt><trkpt lat="45.838833" lon="9.441712"><time>2024-03-23T10:33:29.000Z</time><ele>1208.2</ele></trkpt><trkpt lat="45.838826" lon="9.441718"><time>2024-03-23T10:33:30.000Z</time><ele>1208</ele></trkpt><trkpt lat="45.838817" lon="9.441724"><time>2024-03-23T10:33:31.000Z</time><ele>1207.8</ele></trkpt><trkpt lat="45.838808" lon="9.441729"><time>2024-03-23T10:33:32.000Z</time><ele>1207.4</ele></trkpt><trkpt lat="45.838799" lon="9.441737"><time>2024-03-23T10:33:33.000Z</time><ele>1207.2</ele></trkpt><trkpt lat="45.83879" lon="9.44175"><time>2024-03-23T10:33:34.000Z</time><ele>1207.2</ele></trkpt><trkpt lat="45.838784" lon="9.441763"><time>2024-03-23T10:33:35.000Z</time><ele>1207</ele></trkpt><trkpt lat="45.838779" lon="9.441777"><time>2024-03-23T10:33:36.000Z</time><ele>1206.8</ele></trkpt><trkpt lat="45.838777" lon="9.441791"><time>2024-03-23T10:33:37.000Z</time><ele>1206.8</ele></trkpt><trkpt lat="45.838777" lon="9.441805"><time>2024-03-23T10:33:38.000Z</time><ele>1206.6</ele></trkpt><trkpt lat="45.838777" lon="9.441815"><time>2024-03-23T10:33:39.000Z</time><ele>1206.6</ele></trkpt><trkpt lat="45.838775" lon="9.441823"><time>2024-03-23T10:33:40.000Z</time><ele>1206.6</ele></trkpt><trkpt lat="45.838773" lon="9.441828"><time>2024-03-23T10:33:41.000Z</time><ele>1206.4</ele></trkpt><trkpt lat="45.838772" lon="9.441835"><time>2024-03-23T10:33:42.000Z</time><ele>1206.4</ele></trkpt><trkpt lat="45.838772" lon="9.441843"><time>2024-03-23T10:33:43.000Z</time><ele>1206.4</ele></trkpt><trkpt lat="45.838774" lon="9.44185"><time>2024-03-23T10:33:44.000Z</time><ele>1206.6</ele></trkpt><trkpt lat="45.838778" lon="9.441857"><time>2024-03-23T10:33:45.000Z</time><ele>1206.4</ele></trkpt><trkpt lat="45.838781" lon="9.441863"><time>2024-03-23T10:33:46.000Z</time><ele>1206.4</ele></trkpt><trkpt lat="45.838785" lon="9.44187"><time>2024-03-23T10:33:47.000Z</time><ele>1206.4</ele></trkpt><trkpt lat="45.838788" lon="9.441875"><time>2024-03-23T10:33:48.000Z</time><ele>1206.4</ele></trkpt><trkpt lat="45.838792" lon="9.44188"><time>2024-03-23T10:33:49.000Z</time><ele>1206.4</ele></trkpt><trkpt lat="45.838797" lon="9.441887"><time>2024-03-23T10:33:50.000Z</time><ele>1206.4</ele></trkpt><trkpt lat="45.838804" lon="9.441892"><time>2024-03-23T10:33:51.000Z</time><ele>1206.2</ele></trkpt><trkpt lat="45.838811" lon="9.441892"><time>2024-03-23T10:33:52.000Z</time><ele>1206</ele></trkpt><trkpt lat="45.838816" lon="9.441892"><time>2024-03-23T10:33:53.000Z</time><ele>1205.8</ele></trkpt><trkpt lat="45.838821" lon="9.44189"><time>2024-03-23T10:33:54.000Z</time><ele>1205.6</ele></trkpt><trkpt lat="45.838821" lon="9.441888"><time>2024-03-23T10:33:55.000Z</time><ele>1205.4</ele></trkpt><trkpt lat="45.838823" lon="9.441889"><time>2024-03-23T10:33:56.000Z</time><ele>1205.2</ele></trkpt><trkpt lat="45.838828" lon="9.441892"><time>2024-03-23T10:33:57.000Z</time><ele>1205</ele></trkpt><trkpt lat="45.838832" lon="9.441896"><time>2024-03-23T10:33:58.000Z</time><ele>1204.8</ele></trkpt><trkpt lat="45.838834" lon="9.441895"><time>2024-03-23T10:33:59.000Z</time><ele>1204.4</ele></trkpt><trkpt lat="45.838838" lon="9.441895"><time>2024-03-23T10:34:00.000Z</time><ele>1204.2</ele></trkpt><trkpt lat="45.838841" lon="9.441894"><time>2024-03-23T10:34:01.000Z</time><ele>1204</ele></trkpt><trkpt lat="45.838842" lon="9.441894"><time>2024-03-23T10:34:02.000Z</time><ele>1203.8</ele></trkpt><trkpt lat="45.838842" lon="9.441896"><time>2024-03-23T10:34:03.000Z</time><ele>1203.6</ele></trkpt><trkpt lat="45.83884" lon="9.441902"><time>2024-03-23T10:34:04.000Z</time><ele>1203.4</ele></trkpt><trkpt lat="45.838837" lon="9.44191"><time>2024-03-23T10:34:05.000Z</time><ele>1203.2</ele></trkpt><trkpt lat="45.838833" lon="9.44192"><time>2024-03-23T10:34:06.000Z</time><ele>1203</ele></trkpt><trkpt lat="45.838827" lon="9.44193"><time>2024-03-23T10:34:07.000Z</time><ele>1202.8</ele></trkpt><trkpt lat="45.838824" lon="9.441939"><time>2024-03-23T10:34:08.000Z</time><ele>1202.6</ele></trkpt><trkpt lat="45.838819" lon="9.441943"><time>2024-03-23T10:34:09.000Z</time><ele>1202.4</ele></trkpt><trkpt lat="45.838817" lon="9.441949"><time>2024-03-23T10:34:10.000Z</time><ele>1202.2</ele></trkpt><trkpt lat="45.838816" lon="9.441955"><time>2024-03-23T10:34:11.000Z</time><ele>1202.2</ele></trkpt><trkpt lat="45.838815" lon="9.441959"><time>2024-03-23T10:34:12.000Z</time><ele>1202</ele></trkpt><trkpt lat="45.838817" lon="9.441961"><time>2024-03-23T10:34:13.000Z</time><ele>1202</ele></trkpt><trkpt lat="45.838818" lon="9.441965"><time>2024-03-23T10:34:14.000Z</time><ele>1201.8</ele></trkpt><trkpt lat="45.838821" lon="9.441973"><time>2024-03-23T10:34:15.000Z</time><ele>1201.8</ele></trkpt><trkpt lat="45.838822" lon="9.441976"><time>2024-03-23T10:34:16.000Z</time><ele>1201.6</ele></trkpt><trkpt lat="45.838817" lon="9.441982"><time>2024-03-23T10:34:17.000Z</time><ele>1201.6</ele></trkpt><trkpt lat="45.838812" lon="9.441987"><time>2024-03-23T10:34:18.000Z</time><ele>1201.2</ele></trkpt><trkpt lat="45.838807" lon="9.441995"><time>2024-03-23T10:34:19.000Z</time><ele>1200.8</ele></trkpt><trkpt lat="45.838798" lon="9.442002"><time>2024-03-23T10:34:20.000Z</time><ele>1200.6</ele></trkpt><trkpt lat="45.838787" lon="9.442009"><time>2024-03-23T10:34:21.000Z</time><ele>1200.4</ele></trkpt><trkpt lat="45.838776" lon="9.44201"><time>2024-03-23T10:34:22.000Z</time><ele>1200</ele></trkpt><trkpt lat="45.838768" lon="9.442011"><time>2024-03-23T10:34:23.000Z</time><ele>1199.8</ele></trkpt><trkpt lat="45.83876" lon="9.442011"><time>2024-03-23T10:34:24.000Z</time><ele>1199.6</ele></trkpt><trkpt lat="45.838751" lon="9.442016"><time>2024-03-23T10:34:25.000Z</time><ele>1199.4</ele></trkpt><trkpt lat="45.838745" lon="9.442018"><time>2024-03-23T10:34:26.000Z</time><ele>1199.2</ele></trkpt><trkpt lat="45.838738" lon="9.442021"><time>2024-03-23T10:34:27.000Z</time><ele>1199</ele></trkpt><trkpt lat="45.838735" lon="9.442024"><time>2024-03-23T10:34:28.000Z</time><ele>1198.8</ele></trkpt><trkpt lat="45.83873" lon="9.442025"><time>2024-03-23T10:34:29.000Z</time><ele>1198.6</ele></trkpt><trkpt lat="45.838724" lon="9.442023"><time>2024-03-23T10:34:30.000Z</time><ele>1198.6</ele></trkpt><trkpt lat="45.838716" lon="9.442023"><time>2024-03-23T10:34:31.000Z</time><ele>1198.4</ele></trkpt><trkpt lat="45.838708" lon="9.442024"><time>2024-03-23T10:34:32.000Z</time><ele>1198.4</ele></trkpt><trkpt lat="45.838696" lon="9.442025"><time>2024-03-23T10:34:33.000Z</time><ele>1198.2</ele></trkpt><trkpt lat="45.838684" lon="9.442026"><time>2024-03-23T10:34:34.000Z</time><ele>1197.8</ele></trkpt><trkpt lat="45.838669" lon="9.442027"><time>2024-03-23T10:34:35.000Z</time><ele>1197.6</ele></trkpt><trkpt lat="45.838656" lon="9.442021"><time>2024-03-23T10:34:36.000Z</time><ele>1197.4</ele></trkpt><trkpt lat="45.838648" lon="9.442023"><time>2024-03-23T10:34:37.000Z</time><ele>1197.2</ele></trkpt><trkpt lat="45.838643" lon="9.44203"><time>2024-03-23T10:34:38.000Z</time><ele>1197</ele></trkpt><trkpt lat="45.838641" lon="9.442038"><time>2024-03-23T10:34:39.000Z</time><ele>1196.8</ele></trkpt><trkpt lat="45.838642" lon="9.442042"><time>2024-03-23T10:34:40.000Z</time><ele>1196.6</ele></trkpt><trkpt lat="45.838644" lon="9.442046"><time>2024-03-23T10:34:41.000Z</time><ele>1196.4</ele></trkpt><trkpt lat="45.838643" lon="9.44205"><time>2024-03-23T10:34:42.000Z</time><ele>1196.4</ele></trkpt><trkpt lat="45.838639" lon="9.442055"><time>2024-03-23T10:34:43.000Z</time><ele>1196</ele></trkpt><trkpt lat="45.838634" lon="9.442063"><time>2024-03-23T10:34:44.000Z</time><ele>1195.8</ele></trkpt><trkpt lat="45.838631" lon="9.44207"><time>2024-03-23T10:34:45.000Z</time><ele>1195.6</ele></trkpt><trkpt lat="45.838633" lon="9.442075"><time>2024-03-23T10:34:46.000Z</time><ele>1195.4</ele></trkpt><trkpt lat="45.838636" lon="9.442079"><time>2024-03-23T10:34:47.000Z</time><ele>1195.2</ele></trkpt><trkpt lat="45.838639" lon="9.442083"><time>2024-03-23T10:34:48.000Z</time><ele>1195.2</ele></trkpt><trkpt lat="45.838645" lon="9.442086"><time>2024-03-23T10:34:49.000Z</time><ele>1195.2</ele></trkpt><trkpt lat="45.838651" lon="9.442089"><time>2024-03-23T10:34:50.000Z</time><ele>1195</ele></trkpt><trkpt lat="45.838651" lon="9.442092"><time>2024-03-23T10:34:51.000Z</time><ele>1194.8</ele></trkpt><trkpt lat="45.83865" lon="9.442095"><time>2024-03-23T10:34:52.000Z</time><ele>1194.6</ele></trkpt><trkpt lat="45.838648" lon="9.442101"><time>2024-03-23T10:34:53.000Z</time><ele>1194.4</ele></trkpt><trkpt lat="45.838645" lon="9.442108"><time>2024-03-23T10:34:54.000Z</time><ele>1194.2</ele></trkpt><trkpt lat="45.838641" lon="9.44211"><time>2024-03-23T10:34:55.000Z</time><ele>1193.8</ele></trkpt><trkpt lat="45.838636" lon="9.442114"><time>2024-03-23T10:34:56.000Z</time><ele>1193.6</ele></trkpt><trkpt lat="45.838633" lon="9.442116"><time>2024-03-23T10:34:57.000Z</time><ele>1193.4</ele></trkpt><trkpt lat="45.838631" lon="9.44212"><time>2024-03-23T10:34:58.000Z</time><ele>1193.2</ele></trkpt><trkpt lat="45.83863" lon="9.442126"><time>2024-03-23T10:34:59.000Z</time><ele>1192.8</ele></trkpt><trkpt lat="45.83863" lon="9.442131"><time>2024-03-23T10:35:00.000Z</time><ele>1192.4</ele></trkpt><trkpt lat="45.83863" lon="9.442135"><time>2024-03-23T10:35:01.000Z</time><ele>1192.2</ele></trkpt><trkpt lat="45.838631" lon="9.442139"><time>2024-03-23T10:35:02.000Z</time><ele>1192.2</ele></trkpt><trkpt lat="45.838628" lon="9.442145"><time>2024-03-23T10:35:03.000Z</time><ele>1192</ele></trkpt><trkpt lat="45.838622" lon="9.442148"><time>2024-03-23T10:35:04.000Z</time><ele>1192</ele></trkpt><trkpt lat="45.838615" lon="9.442151"><time>2024-03-23T10:35:05.000Z</time><ele>1191.8</ele></trkpt><trkpt lat="45.838606" lon="9.44215"><time>2024-03-23T10:35:06.000Z</time><ele>1191.6</ele></trkpt><trkpt lat="45.838598" lon="9.442152"><time>2024-03-23T10:35:07.000Z</time><ele>1191.4</ele></trkpt><trkpt lat="45.838595" lon="9.442159"><time>2024-03-23T10:35:08.000Z</time><ele>1191</ele></trkpt><trkpt lat="45.838595" lon="9.442166"><time>2024-03-23T10:35:09.000Z</time><ele>1190.8</ele></trkpt><trkpt lat="45.838595" lon="9.442171"><time>2024-03-23T10:35:10.000Z</time><ele>1190.6</ele></trkpt><trkpt lat="45.838596" lon="9.442176"><time>2024-03-23T10:35:11.000Z</time><ele>1190.2</ele></trkpt><trkpt lat="45.838598" lon="9.442183"><time>2024-03-23T10:35:12.000Z</time><ele>1190</ele></trkpt><trkpt lat="45.8386" lon="9.442191"><time>2024-03-23T10:35:13.000Z</time><ele>1189.8</ele></trkpt><trkpt lat="45.838602" lon="9.4422"><time>2024-03-23T10:35:14.000Z</time><ele>1189.6</ele></trkpt><trkpt lat="45.838603" lon="9.442208"><time>2024-03-23T10:35:15.000Z</time><ele>1189.4</ele></trkpt><trkpt lat="45.838603" lon="9.442216"><time>2024-03-23T10:35:16.000Z</time><ele>1189.2</ele></trkpt><trkpt lat="45.838605" lon="9.442221"><time>2024-03-23T10:35:17.000Z</time><ele>1189.2</ele></trkpt><trkpt lat="45.838612" lon="9.442225"><time>2024-03-23T10:35:18.000Z</time><ele>1189</ele></trkpt><trkpt lat="45.838621" lon="9.442222"><time>2024-03-23T10:35:19.000Z</time><ele>1188.8</ele></trkpt><trkpt lat="45.838629" lon="9.442217"><time>2024-03-23T10:35:20.000Z</time><ele>1188.8</ele></trkpt><trkpt lat="45.838633" lon="9.442214"><time>2024-03-23T10:35:21.000Z</time><ele>1188.6</ele></trkpt><trkpt lat="45.838638" lon="9.442209"><time>2024-03-23T10:35:22.000Z</time><ele>1188.4</ele></trkpt><trkpt lat="45.838643" lon="9.442205"><time>2024-03-23T10:35:23.000Z</time><ele>1188</ele></trkpt><trkpt lat="45.838648" lon="9.442203"><time>2024-03-23T10:35:24.000Z</time><ele>1187.8</ele></trkpt><trkpt lat="45.838652" lon="9.442205"><time>2024-03-23T10:35:25.000Z</time><ele>1187.6</ele></trkpt><trkpt lat="45.838658" lon="9.442207"><time>2024-03-23T10:35:26.000Z</time><ele>1187.4</ele></trkpt><trkpt lat="45.838664" lon="9.44221"><time>2024-03-23T10:35:27.000Z</time><ele>1187.2</ele></trkpt><trkpt lat="45.838668" lon="9.442215"><time>2024-03-23T10:35:28.000Z</time><ele>1187</ele></trkpt><trkpt lat="45.838671" lon="9.442219"><time>2024-03-23T10:35:29.000Z</time><ele>1187</ele></trkpt><trkpt lat="45.838676" lon="9.442225"><time>2024-03-23T10:35:30.000Z</time><ele>1186.6</ele></trkpt><trkpt lat="45.838681" lon="9.44223"><time>2024-03-23T10:35:31.000Z</time><ele>1186.4</ele></trkpt><trkpt lat="45.838686" lon="9.442231"><time>2024-03-23T10:35:32.000Z</time><ele>1186.2</ele></trkpt><trkpt lat="45.838688" lon="9.442232"><time>2024-03-23T10:35:33.000Z</time><ele>1186.2</ele></trkpt><trkpt lat="45.838689" lon="9.442234"><time>2024-03-23T10:35:34.000Z</time><ele>1186</ele></trkpt><trkpt lat="45.838691" lon="9.442236"><time>2024-03-23T10:35:35.000Z</time><ele>1186</ele></trkpt><trkpt lat="45.838694" lon="9.44224"><time>2024-03-23T10:35:36.000Z</time><ele>1186</ele></trkpt><trkpt lat="45.8387" lon="9.442246"><time>2024-03-23T10:35:37.000Z</time><ele>1186</ele></trkpt><trkpt lat="45.838699" lon="9.442253"><time>2024-03-23T10:35:38.000Z</time><ele>1185.8</ele></trkpt><trkpt lat="45.838703" lon="9.442256"><time>2024-03-23T10:35:39.000Z</time><ele>1185.4</ele></trkpt><trkpt lat="45.838708" lon="9.44226"><time>2024-03-23T10:35:40.000Z</time><ele>1185.2</ele></trkpt><trkpt lat="45.838713" lon="9.442265"><time>2024-03-23T10:35:41.000Z</time><ele>1185</ele></trkpt><trkpt lat="45.838715" lon="9.442266"><time>2024-03-23T10:35:42.000Z</time><ele>1184.6</ele></trkpt><trkpt lat="45.838717" lon="9.442269"><time>2024-03-23T10:35:43.000Z</time><ele>1184.6</ele></trkpt><trkpt lat="45.838709" lon="9.44227"><time>2024-03-23T10:35:44.000Z</time><ele>1184.4</ele></trkpt><trkpt lat="45.838696" lon="9.442272"><time>2024-03-23T10:35:45.000Z</time><ele>1184.2</ele></trkpt><trkpt lat="45.838692" lon="9.442278"><time>2024-03-23T10:35:46.000Z</time><ele>1184</ele></trkpt><trkpt lat="45.838688" lon="9.442285"><time>2024-03-23T10:35:47.000Z</time><ele>1184</ele></trkpt><trkpt lat="45.838689" lon="9.442288"><time>2024-03-23T10:35:48.000Z</time><ele>1183.8</ele></trkpt><trkpt lat="45.838688" lon="9.442289"><time>2024-03-23T10:35:49.000Z</time><ele>1183.6</ele></trkpt><trkpt lat="45.838687" lon="9.44229"><time>2024-03-23T10:35:50.000Z</time><ele>1183.4</ele></trkpt><trkpt lat="45.83869" lon="9.442291"><time>2024-03-23T10:35:51.000Z</time><ele>1183.4</ele></trkpt><trkpt lat="45.838691" lon="9.442291"><time>2024-03-23T10:35:52.000Z</time><ele>1183</ele></trkpt><trkpt lat="45.83869" lon="9.44229"><time>2024-03-23T10:35:53.000Z</time><ele>1182.8</ele></trkpt><trkpt lat="45.838682" lon="9.44229"><time>2024-03-23T10:35:54.000Z</time><ele>1182.8</ele></trkpt><trkpt lat="45.838677" lon="9.442295"><time>2024-03-23T10:35:55.000Z</time><ele>1182.6</ele></trkpt><trkpt lat="45.838674" lon="9.442299"><time>2024-03-23T10:35:56.000Z</time><ele>1182.6</ele></trkpt><trkpt lat="45.838674" lon="9.4423"><time>2024-03-23T10:35:57.000Z</time><ele>1182.4</ele></trkpt><trkpt lat="45.838673" lon="9.442305"><time>2024-03-23T10:35:58.000Z</time><ele>1182.2</ele></trkpt><trkpt lat="45.838671" lon="9.442302"><time>2024-03-23T10:35:59.000Z</time><ele>1182</ele></trkpt><trkpt lat="45.838665" lon="9.442301"><time>2024-03-23T10:36:00.000Z</time><ele>1181.8</ele></trkpt><trkpt lat="45.838658" lon="9.442303"><time>2024-03-23T10:36:01.000Z</time><ele>1181.8</ele></trkpt><trkpt lat="45.838651" lon="9.442306"><time>2024-03-23T10:36:02.000Z</time><ele>1181.6</ele></trkpt><trkpt lat="45.838644" lon="9.44231"><time>2024-03-23T10:36:03.000Z</time><ele>1181</ele></trkpt><trkpt lat="45.838636" lon="9.442315"><time>2024-03-23T10:36:04.000Z</time><ele>1180.8</ele></trkpt><trkpt lat="45.83863" lon="9.442319"><time>2024-03-23T10:36:05.000Z</time><ele>1180.6</ele></trkpt><trkpt lat="45.838623" lon="9.442323"><time>2024-03-23T10:36:06.000Z</time><ele>1180.4</ele></trkpt><trkpt lat="45.838617" lon="9.442325"><time>2024-03-23T10:36:07.000Z</time><ele>1180.2</ele></trkpt><trkpt lat="45.838611" lon="9.44233"><time>2024-03-23T10:36:08.000Z</time><ele>1180</ele></trkpt><trkpt lat="45.838602" lon="9.442331"><time>2024-03-23T10:36:09.000Z</time><ele>1179.8</ele></trkpt><trkpt lat="45.838596" lon="9.442333"><time>2024-03-23T10:36:10.000Z</time><ele>1179.6</ele></trkpt><trkpt lat="45.838587" lon="9.44234"><time>2024-03-23T10:36:11.000Z</time><ele>1179.4</ele></trkpt><trkpt lat="45.83858" lon="9.442348"><time>2024-03-23T10:36:12.000Z</time><ele>1179.2</ele></trkpt><trkpt lat="45.838573" lon="9.442355"><time>2024-03-23T10:36:13.000Z</time><ele>1179</ele></trkpt><trkpt lat="45.838566" lon="9.442365"><time>2024-03-23T10:36:14.000Z</time><ele>1178.8</ele></trkpt><trkpt lat="45.838562" lon="9.442371"><time>2024-03-23T10:36:15.000Z</time><ele>1178.6</ele></trkpt><trkpt lat="45.838557" lon="9.442378"><time>2024-03-23T10:36:16.000Z</time><ele>1178.4</ele></trkpt><trkpt lat="45.838556" lon="9.442383"><time>2024-03-23T10:36:17.000Z</time><ele>1178.2</ele></trkpt><trkpt lat="45.838552" lon="9.44239"><time>2024-03-23T10:36:18.000Z</time><ele>1178</ele></trkpt><trkpt lat="45.838548" lon="9.442391"><time>2024-03-23T10:36:19.000Z</time><ele>1177.8</ele></trkpt><trkpt lat="45.838545" lon="9.442391"><time>2024-03-23T10:36:20.000Z</time><ele>1177.6</ele></trkpt><trkpt lat="45.838535" lon="9.44239"><time>2024-03-23T10:36:21.000Z</time><ele>1177.6</ele></trkpt><trkpt lat="45.838531" lon="9.442391"><time>2024-03-23T10:36:22.000Z</time><ele>1177.4</ele></trkpt><trkpt lat="45.838527" lon="9.442392"><time>2024-03-23T10:36:23.000Z</time><ele>1177.4</ele></trkpt><trkpt lat="45.838522" lon="9.442393"><time>2024-03-23T10:36:24.000Z</time><ele>1177.2</ele></trkpt><trkpt lat="45.83852" lon="9.442395"><time>2024-03-23T10:36:25.000Z</time><ele>1177</ele></trkpt><trkpt lat="45.838515" lon="9.442401"><time>2024-03-23T10:36:26.000Z</time><ele>1176.8</ele></trkpt><trkpt lat="45.838511" lon="9.442407"><time>2024-03-23T10:36:27.000Z</time><ele>1176.6</ele></trkpt><trkpt lat="45.838508" lon="9.442413"><time>2024-03-23T10:36:28.000Z</time><ele>1176.4</ele></trkpt><trkpt lat="45.838507" lon="9.442417"><time>2024-03-23T10:36:29.000Z</time><ele>1176</ele></trkpt><trkpt lat="45.838503" lon="9.442421"><time>2024-03-23T10:36:30.000Z</time><ele>1175.6</ele></trkpt><trkpt lat="45.838497" lon="9.442422"><time>2024-03-23T10:36:31.000Z</time><ele>1175.4</ele></trkpt><trkpt lat="45.838492" lon="9.442422"><time>2024-03-23T10:36:32.000Z</time><ele>1175.2</ele></trkpt><trkpt lat="45.838489" lon="9.442426"><time>2024-03-23T10:36:33.000Z</time><ele>1174.8</ele></trkpt><trkpt lat="45.838483" lon="9.442431"><time>2024-03-23T10:36:34.000Z</time><ele>1174.4</ele></trkpt><trkpt lat="45.838477" lon="9.442441"><time>2024-03-23T10:36:35.000Z</time><ele>1174.2</ele></trkpt><trkpt lat="45.838465" lon="9.442452"><time>2024-03-23T10:36:36.000Z</time><ele>1174</ele></trkpt><trkpt lat="45.838453" lon="9.442462"><time>2024-03-23T10:36:37.000Z</time><ele>1173.8</ele></trkpt><trkpt lat="45.838443" lon="9.44247"><time>2024-03-23T10:36:38.000Z</time><ele>1173.6</ele></trkpt><trkpt lat="45.838437" lon="9.442476"><time>2024-03-23T10:36:39.000Z</time><ele>1173.2</ele></trkpt><trkpt lat="45.838435" lon="9.442471"><time>2024-03-23T10:36:40.000Z</time><ele>1172.8</ele></trkpt><trkpt lat="45.838429" lon="9.442469"><time>2024-03-23T10:36:41.000Z</time><ele>1172.6</ele></trkpt><trkpt lat="45.838426" lon="9.442474"><time>2024-03-23T10:36:42.000Z</time><ele>1172.6</ele></trkpt><trkpt lat="45.838425" lon="9.442476"><time>2024-03-23T10:36:43.000Z</time><ele>1172.6</ele></trkpt><trkpt lat="45.838426" lon="9.442477"><time>2024-03-23T10:36:44.000Z</time><ele>1172.4</ele></trkpt><trkpt lat="45.838428" lon="9.442478"><time>2024-03-23T10:36:45.000Z</time><ele>1172.4</ele></trkpt><trkpt lat="45.838427" lon="9.442479"><time>2024-03-23T10:36:46.000Z</time><ele>1172.6</ele></trkpt><trkpt lat="45.838425" lon="9.44248"><time>2024-03-23T10:36:47.000Z</time><ele>1172.6</ele></trkpt><trkpt lat="45.838425" lon="9.442482"><time>2024-03-23T10:36:48.000Z</time><ele>1172.6</ele></trkpt><trkpt lat="45.838427" lon="9.442486"><time>2024-03-23T10:36:49.000Z</time><ele>1172.6</ele></trkpt><trkpt lat="45.838429" lon="9.442487"><time>2024-03-23T10:36:50.000Z</time><ele>1172.6</ele></trkpt><trkpt lat="45.83843" lon="9.442487"><time>2024-03-23T10:36:51.000Z</time><ele>1172.6</ele></trkpt><trkpt lat="45.838431" lon="9.442489"><time>2024-03-23T10:36:52.000Z</time><ele>1172.6</ele></trkpt><trkpt lat="45.838431" lon="9.442489"><time>2024-03-23T10:36:53.000Z</time><ele>1172.6</ele></trkpt><trkpt lat="45.838432" lon="9.44249"><time>2024-03-23T10:36:54.000Z</time><ele>1172.4</ele></trkpt><trkpt lat="45.838429" lon="9.442493"><time>2024-03-23T10:36:55.000Z</time><ele>1172.4</ele></trkpt><trkpt lat="45.83842" lon="9.442498"><time>2024-03-23T10:36:56.000Z</time><ele>1172.4</ele></trkpt><trkpt lat="45.838413" lon="9.442502"><time>2024-03-23T10:36:57.000Z</time><ele>1172.2</ele></trkpt><trkpt lat="45.838405" lon="9.44251"><time>2024-03-23T10:36:58.000Z</time><ele>1172.2</ele></trkpt><trkpt lat="45.838399" lon="9.442519"><time>2024-03-23T10:36:59.000Z</time><ele>1172.2</ele></trkpt><trkpt lat="45.838391" lon="9.442533"><time>2024-03-23T10:37:00.000Z</time><ele>1171.8</ele></trkpt><trkpt lat="45.838389" lon="9.442537"><time>2024-03-23T10:37:01.000Z</time><ele>1171.6</ele></trkpt><trkpt lat="45.838384" lon="9.442543"><time>2024-03-23T10:37:02.000Z</time><ele>1171.6</ele></trkpt><trkpt lat="45.838376" lon="9.442549"><time>2024-03-23T10:37:03.000Z</time><ele>1171.4</ele></trkpt><trkpt lat="45.838368" lon="9.442551"><time>2024-03-23T10:37:04.000Z</time><ele>1171.4</ele></trkpt><trkpt lat="45.838355" lon="9.442554"><time>2024-03-23T10:37:05.000Z</time><ele>1171.4</ele></trkpt><trkpt lat="45.838341" lon="9.442555"><time>2024-03-23T10:37:06.000Z</time><ele>1171.2</ele></trkpt><trkpt lat="45.838331" lon="9.442558"><time>2024-03-23T10:37:07.000Z</time><ele>1171.2</ele></trkpt><trkpt lat="45.83832" lon="9.442564"><time>2024-03-23T10:37:08.000Z</time><ele>1171.2</ele></trkpt><trkpt lat="45.838309" lon="9.44257"><time>2024-03-23T10:37:09.000Z</time><ele>1171.2</ele></trkpt><trkpt lat="45.838304" lon="9.442575"><time>2024-03-23T10:37:10.000Z</time><ele>1171.2</ele></trkpt><trkpt lat="45.838295" lon="9.442583"><time>2024-03-23T10:37:11.000Z</time><ele>1171.2</ele></trkpt><trkpt lat="45.838291" lon="9.442591"><time>2024-03-23T10:37:12.000Z</time><ele>1171.2</ele></trkpt><trkpt lat="45.838283" lon="9.442606"><time>2024-03-23T10:37:13.000Z</time><ele>1171.4</ele></trkpt><trkpt lat="45.838278" lon="9.442622"><time>2024-03-23T10:37:14.000Z</time><ele>1171.6</ele></trkpt><trkpt lat="45.83827" lon="9.442632"><time>2024-03-23T10:37:15.000Z</time><ele>1171.6</ele></trkpt><trkpt lat="45.838258" lon="9.442642"><time>2024-03-23T10:37:16.000Z</time><ele>1171.6</ele></trkpt><trkpt lat="45.838244" lon="9.442654"><time>2024-03-23T10:37:17.000Z</time><ele>1171.6</ele></trkpt><trkpt lat="45.838234" lon="9.442666"><time>2024-03-23T10:37:18.000Z</time><ele>1171.2</ele></trkpt><trkpt lat="45.838221" lon="9.44268"><time>2024-03-23T10:37:19.000Z</time><ele>1171</ele></trkpt><trkpt lat="45.838215" lon="9.44269"><time>2024-03-23T10:37:20.000Z</time><ele>1170.8</ele></trkpt><trkpt lat="45.838204" lon="9.442697"><time>2024-03-23T10:37:21.000Z</time><ele>1170.6</ele></trkpt><trkpt lat="45.838193" lon="9.442708"><time>2024-03-23T10:37:22.000Z</time><ele>1170.4</ele></trkpt><trkpt lat="45.838177" lon="9.442725"><time>2024-03-23T10:37:23.000Z</time><ele>1170.4</ele></trkpt><trkpt lat="45.838164" lon="9.442744"><time>2024-03-23T10:37:24.000Z</time><ele>1170.4</ele></trkpt><trkpt lat="45.838154" lon="9.442763"><time>2024-03-23T10:37:25.000Z</time><ele>1170.4</ele></trkpt><trkpt lat="45.838143" lon="9.442776"><time>2024-03-23T10:37:26.000Z</time><ele>1170.4</ele></trkpt><trkpt lat="45.838132" lon="9.442787"><time>2024-03-23T10:37:27.000Z</time><ele>1170.4</ele></trkpt><trkpt lat="45.838122" lon="9.442797"><time>2024-03-23T10:37:28.000Z</time><ele>1170.4</ele></trkpt><trkpt lat="45.838112" lon="9.442807"><time>2024-03-23T10:37:29.000Z</time><ele>1170.4</ele></trkpt><trkpt lat="45.838103" lon="9.44282"><time>2024-03-23T10:37:30.000Z</time><ele>1170.4</ele></trkpt><trkpt lat="45.838093" lon="9.442829"><time>2024-03-23T10:37:31.000Z</time><ele>1170.2</ele></trkpt><trkpt lat="45.838082" lon="9.442836"><time>2024-03-23T10:37:32.000Z</time><ele>1170.2</ele></trkpt><trkpt lat="45.838069" lon="9.442841"><time>2024-03-23T10:37:33.000Z</time><ele>1170</ele></trkpt><trkpt lat="45.838053" lon="9.442843"><time>2024-03-23T10:37:34.000Z</time><ele>1170</ele></trkpt><trkpt lat="45.838038" lon="9.44285"><time>2024-03-23T10:37:35.000Z</time><ele>1170</ele></trkpt><trkpt lat="45.838025" lon="9.442857"><time>2024-03-23T10:37:36.000Z</time><ele>1170</ele></trkpt><trkpt lat="45.838009" lon="9.442862"><time>2024-03-23T10:37:37.000Z</time><ele>1170</ele></trkpt><trkpt lat="45.837996" lon="9.442869"><time>2024-03-23T10:37:38.000Z</time><ele>1170</ele></trkpt><trkpt lat="45.837984" lon="9.442879"><time>2024-03-23T10:37:39.000Z</time><ele>1170</ele></trkpt><trkpt lat="45.837976" lon="9.442894"><time>2024-03-23T10:37:40.000Z</time><ele>1170</ele></trkpt><trkpt lat="45.83797" lon="9.442909"><time>2024-03-23T10:37:41.000Z</time><ele>1170</ele></trkpt><trkpt lat="45.837965" lon="9.442924"><time>2024-03-23T10:37:42.000Z</time><ele>1170</ele></trkpt><trkpt lat="45.837963" lon="9.442938"><time>2024-03-23T10:37:43.000Z</time><ele>1170.2</ele></trkpt><trkpt lat="45.837961" lon="9.442954"><time>2024-03-23T10:37:44.000Z</time><ele>1170.2</ele></trkpt><trkpt lat="45.837961" lon="9.442971"><time>2024-03-23T10:37:45.000Z</time><ele>1170.2</ele></trkpt><trkpt lat="45.83796" lon="9.442987"><time>2024-03-23T10:37:46.000Z</time><ele>1170</ele></trkpt><trkpt lat="45.837961" lon="9.443003"><time>2024-03-23T10:37:47.000Z</time><ele>1170</ele></trkpt><trkpt lat="45.837962" lon="9.443016"><time>2024-03-23T10:37:48.000Z</time><ele>1170</ele></trkpt><trkpt lat="45.837961" lon="9.443027"><time>2024-03-23T10:37:49.000Z</time><ele>1169.8</ele></trkpt><trkpt lat="45.83796" lon="9.443039"><time>2024-03-23T10:37:50.000Z</time><ele>1169.8</ele></trkpt><trkpt lat="45.837956" lon="9.443053"><time>2024-03-23T10:37:51.000Z</time><ele>1169.8</ele></trkpt><trkpt lat="45.837954" lon="9.443069"><time>2024-03-23T10:37:52.000Z</time><ele>1169.6</ele></trkpt><trkpt lat="45.837952" lon="9.443084"><time>2024-03-23T10:37:53.000Z</time><ele>1169.6</ele></trkpt><trkpt lat="45.83795" lon="9.443104"><time>2024-03-23T10:37:54.000Z</time><ele>1169.4</ele></trkpt><trkpt lat="45.837947" lon="9.44312"><time>2024-03-23T10:37:55.000Z</time><ele>1169.2</ele></trkpt><trkpt lat="45.837947" lon="9.443136"><time>2024-03-23T10:37:56.000Z</time><ele>1169.2</ele></trkpt><trkpt lat="45.837947" lon="9.443148"><time>2024-03-23T10:37:57.000Z</time><ele>1169</ele></trkpt><trkpt lat="45.837947" lon="9.443163"><time>2024-03-23T10:37:58.000Z</time><ele>1169</ele></trkpt><trkpt lat="45.837946" lon="9.443179"><time>2024-03-23T10:37:59.000Z</time><ele>1168.8</ele></trkpt><trkpt lat="45.837946" lon="9.443194"><time>2024-03-23T10:38:00.000Z</time><ele>1168.8</ele></trkpt><trkpt lat="45.837949" lon="9.443208"><time>2024-03-23T10:38:01.000Z</time><ele>1168.8</ele></trkpt><trkpt lat="45.837952" lon="9.443218"><time>2024-03-23T10:38:02.000Z</time><ele>1168.8</ele></trkpt><trkpt lat="45.837954" lon="9.443229"><time>2024-03-23T10:38:03.000Z</time><ele>1168.8</ele></trkpt><trkpt lat="45.837958" lon="9.443237"><time>2024-03-23T10:38:04.000Z</time><ele>1168.6</ele></trkpt><trkpt lat="45.837963" lon="9.443243"><time>2024-03-23T10:38:05.000Z</time><ele>1168.6</ele></trkpt><trkpt lat="45.837966" lon="9.443248"><time>2024-03-23T10:38:06.000Z</time><ele>1168.4</ele></trkpt><trkpt lat="45.837966" lon="9.443258"><time>2024-03-23T10:38:07.000Z</time><ele>1168.4</ele></trkpt><trkpt lat="45.837966" lon="9.443269"><time>2024-03-23T10:38:08.000Z</time><ele>1168.4</ele></trkpt><trkpt lat="45.837966" lon="9.443274"><time>2024-03-23T10:38:09.000Z</time><ele>1168.4</ele></trkpt><trkpt lat="45.837967" lon="9.443275"><time>2024-03-23T10:38:10.000Z</time><ele>1168.4</ele></trkpt><trkpt lat="45.837968" lon="9.443276"><time>2024-03-23T10:38:11.000Z</time><ele>1168.4</ele></trkpt><trkpt lat="45.837968" lon="9.443274"><time>2024-03-23T10:38:12.000Z</time><ele>1168.4</ele></trkpt><trkpt lat="45.837967" lon="9.443269"><time>2024-03-23T10:38:13.000Z</time><ele>1168.4</ele></trkpt><trkpt lat="45.837963" lon="9.443267"><time>2024-03-23T10:38:14.000Z</time><ele>1168.4</ele></trkpt><trkpt lat="45.837959" lon="9.443261"><time>2024-03-23T10:38:15.000Z</time><ele>1168.2</ele></trkpt><trkpt lat="45.837952" lon="9.443255"><time>2024-03-23T10:38:16.000Z</time><ele>1168.2</ele></trkpt><trkpt lat="45.837949" lon="9.443254"><time>2024-03-23T10:38:17.000Z</time><ele>1168</ele></trkpt><trkpt lat="45.837945" lon="9.443252"><time>2024-03-23T10:38:18.000Z</time><ele>1168</ele></trkpt><trkpt lat="45.837942" lon="9.443252"><time>2024-03-23T10:38:19.000Z</time><ele>1168</ele></trkpt><trkpt lat="45.837937" lon="9.443251"><time>2024-03-23T10:38:20.000Z</time><ele>1167.8</ele></trkpt><trkpt lat="45.83793" lon="9.443248"><time>2024-03-23T10:38:21.000Z</time><ele>1167.8</ele></trkpt><trkpt lat="45.837923" lon="9.443246"><time>2024-03-23T10:38:22.000Z</time><ele>1167.8</ele></trkpt><trkpt lat="45.837916" lon="9.443247"><time>2024-03-23T10:38:23.000Z</time><ele>1167.6</ele></trkpt><trkpt lat="45.837911" lon="9.443246"><time>2024-03-23T10:38:24.000Z</time><ele>1167.6</ele></trkpt><trkpt lat="45.837906" lon="9.443245"><time>2024-03-23T10:38:25.000Z</time><ele>1167.6</ele></trkpt><trkpt lat="45.8379" lon="9.44324"><time>2024-03-23T10:38:26.000Z</time><ele>1167.4</ele></trkpt><trkpt lat="45.837897" lon="9.443235"><time>2024-03-23T10:38:27.000Z</time><ele>1167.2</ele></trkpt><trkpt lat="45.837895" lon="9.44323"><time>2024-03-23T10:38:28.000Z</time><ele>1167</ele></trkpt><trkpt lat="45.837893" lon="9.443222"><time>2024-03-23T10:38:29.000Z</time><ele>1167</ele></trkpt><trkpt lat="45.837891" lon="9.443216"><time>2024-03-23T10:38:30.000Z</time><ele>1166.8</ele></trkpt><trkpt lat="45.837887" lon="9.443216"><time>2024-03-23T10:38:31.000Z</time><ele>1166.8</ele></trkpt><trkpt lat="45.837881" lon="9.443217"><time>2024-03-23T10:38:32.000Z</time><ele>1166.6</ele></trkpt><trkpt lat="45.837875" lon="9.443223"><time>2024-03-23T10:38:33.000Z</time><ele>1166.6</ele></trkpt><trkpt lat="45.837871" lon="9.443228"><time>2024-03-23T10:38:34.000Z</time><ele>1166</ele></trkpt><trkpt lat="45.837866" lon="9.443232"><time>2024-03-23T10:38:35.000Z</time><ele>1165.6</ele></trkpt><trkpt lat="45.837863" lon="9.443237"><time>2024-03-23T10:38:36.000Z</time><ele>1165.2</ele></trkpt><trkpt lat="45.837857" lon="9.443242"><time>2024-03-23T10:38:37.000Z</time><ele>1164.8</ele></trkpt><trkpt lat="45.837853" lon="9.443247"><time>2024-03-23T10:38:38.000Z</time><ele>1164.6</ele></trkpt><trkpt lat="45.83785" lon="9.443253"><time>2024-03-23T10:38:39.000Z</time><ele>1164.4</ele></trkpt><trkpt lat="45.837848" lon="9.443262"><time>2024-03-23T10:38:40.000Z</time><ele>1164.4</ele></trkpt><trkpt lat="45.837845" lon="9.443273"><time>2024-03-23T10:38:41.000Z</time><ele>1164.2</ele></trkpt><trkpt lat="45.837844" lon="9.443284"><time>2024-03-23T10:38:42.000Z</time><ele>1164.2</ele></trkpt><trkpt lat="45.837844" lon="9.443295"><time>2024-03-23T10:38:43.000Z</time><ele>1163.8</ele></trkpt><trkpt lat="45.837843" lon="9.443301"><time>2024-03-23T10:38:44.000Z</time><ele>1163.6</ele></trkpt><trkpt lat="45.837843" lon="9.443307"><time>2024-03-23T10:38:45.000Z</time><ele>1163.4</ele></trkpt><trkpt lat="45.837843" lon="9.443311"><time>2024-03-23T10:38:46.000Z</time><ele>1163.2</ele></trkpt><trkpt lat="45.837843" lon="9.443315"><time>2024-03-23T10:38:47.000Z</time><ele>1163.2</ele></trkpt><trkpt lat="45.837842" lon="9.443316"><time>2024-03-23T10:38:48.000Z</time><ele>1163.2</ele></trkpt><trkpt lat="45.837841" lon="9.443315"><time>2024-03-23T10:38:49.000Z</time><ele>1163</ele></trkpt><trkpt lat="45.837836" lon="9.443315"><time>2024-03-23T10:38:50.000Z</time><ele>1163</ele></trkpt><trkpt lat="45.837831" lon="9.443318"><time>2024-03-23T10:38:51.000Z</time><ele>1163</ele></trkpt><trkpt lat="45.837828" lon="9.443323"><time>2024-03-23T10:38:52.000Z</time><ele>1162.8</ele></trkpt><trkpt lat="45.837826" lon="9.443327"><time>2024-03-23T10:38:53.000Z</time><ele>1162.8</ele></trkpt><trkpt lat="45.837825" lon="9.44333"><time>2024-03-23T10:38:54.000Z</time><ele>1162.4</ele></trkpt><trkpt lat="45.837821" lon="9.443334"><time>2024-03-23T10:38:55.000Z</time><ele>1162</ele></trkpt><trkpt lat="45.837816" lon="9.443336"><time>2024-03-23T10:38:56.000Z</time><ele>1161.8</ele></trkpt><trkpt lat="45.837812" lon="9.443335"><time>2024-03-23T10:38:57.000Z</time><ele>1161.6</ele></trkpt><trkpt lat="45.837805" lon="9.443334"><time>2024-03-23T10:38:58.000Z</time><ele>1161.4</ele></trkpt><trkpt lat="45.837796" lon="9.443338"><time>2024-03-23T10:38:59.000Z</time><ele>1161.2</ele></trkpt><trkpt lat="45.83779" lon="9.443343"><time>2024-03-23T10:39:00.000Z</time><ele>1161.2</ele></trkpt><trkpt lat="45.837787" lon="9.443354"><time>2024-03-23T10:39:01.000Z</time><ele>1160.8</ele></trkpt><trkpt lat="45.837785" lon="9.443361"><time>2024-03-23T10:39:02.000Z</time><ele>1160.4</ele></trkpt><trkpt lat="45.837784" lon="9.443366"><time>2024-03-23T10:39:03.000Z</time><ele>1160.2</ele></trkpt><trkpt lat="45.837783" lon="9.443372"><time>2024-03-23T10:39:04.000Z</time><ele>1160</ele></trkpt><trkpt lat="45.83778" lon="9.443374"><time>2024-03-23T10:39:05.000Z</time><ele>1159.8</ele></trkpt><trkpt lat="45.837775" lon="9.443376"><time>2024-03-23T10:39:06.000Z</time><ele>1159.6</ele></trkpt><trkpt lat="45.837768" lon="9.44338"><time>2024-03-23T10:39:07.000Z</time><ele>1159.6</ele></trkpt><trkpt lat="45.837762" lon="9.443387"><time>2024-03-23T10:39:08.000Z</time><ele>1159.4</ele></trkpt><trkpt lat="45.837759" lon="9.443397"><time>2024-03-23T10:39:09.000Z</time><ele>1159</ele></trkpt><trkpt lat="45.837754" lon="9.443407"><time>2024-03-23T10:39:10.000Z</time><ele>1158.6</ele></trkpt><trkpt lat="45.837747" lon="9.443414"><time>2024-03-23T10:39:11.000Z</time><ele>1158.4</ele></trkpt><trkpt lat="45.837741" lon="9.443417"><time>2024-03-23T10:39:12.000Z</time><ele>1158.2</ele></trkpt><trkpt lat="45.837735" lon="9.443421"><time>2024-03-23T10:39:13.000Z</time><ele>1158</ele></trkpt><trkpt lat="45.837726" lon="9.443423"><time>2024-03-23T10:39:14.000Z</time><ele>1157.8</ele></trkpt><trkpt lat="45.837721" lon="9.443426"><time>2024-03-23T10:39:15.000Z</time><ele>1157.8</ele></trkpt><trkpt lat="45.837715" lon="9.443427"><time>2024-03-23T10:39:16.000Z</time><ele>1157.4</ele></trkpt><trkpt lat="45.837706" lon="9.443431"><time>2024-03-23T10:39:17.000Z</time><ele>1157.2</ele></trkpt><trkpt lat="45.837701" lon="9.443439"><time>2024-03-23T10:39:18.000Z</time><ele>1157.2</ele></trkpt><trkpt lat="45.837693" lon="9.443445"><time>2024-03-23T10:39:19.000Z</time><ele>1157</ele></trkpt><trkpt lat="45.837688" lon="9.443453"><time>2024-03-23T10:39:20.000Z</time><ele>1156.8</ele></trkpt><trkpt lat="45.837684" lon="9.44346"><time>2024-03-23T10:39:21.000Z</time><ele>1156.6</ele></trkpt><trkpt lat="45.837682" lon="9.443461"><time>2024-03-23T10:39:22.000Z</time><ele>1156.4</ele></trkpt><trkpt lat="45.837678" lon="9.443462"><time>2024-03-23T10:39:23.000Z</time><ele>1156.4</ele></trkpt><trkpt lat="45.837674" lon="9.443463"><time>2024-03-23T10:39:24.000Z</time><ele>1156.2</ele></trkpt><trkpt lat="45.837671" lon="9.443459"><time>2024-03-23T10:39:25.000Z</time><ele>1156</ele></trkpt><trkpt lat="45.837669" lon="9.443455"><time>2024-03-23T10:39:26.000Z</time><ele>1156</ele></trkpt><trkpt lat="45.837666" lon="9.443449"><time>2024-03-23T10:39:27.000Z</time><ele>1155.8</ele></trkpt><trkpt lat="45.837662" lon="9.443444"><time>2024-03-23T10:39:28.000Z</time><ele>1155.8</ele></trkpt><trkpt lat="45.837656" lon="9.443444"><time>2024-03-23T10:39:29.000Z</time><ele>1155.6</ele></trkpt><trkpt lat="45.837651" lon="9.443446"><time>2024-03-23T10:39:30.000Z</time><ele>1155.4</ele></trkpt><trkpt lat="45.837648" lon="9.443452"><time>2024-03-23T10:39:31.000Z</time><ele>1155.2</ele></trkpt><trkpt lat="45.837643" lon="9.443457"><time>2024-03-23T10:39:32.000Z</time><ele>1154.6</ele></trkpt><trkpt lat="45.83764" lon="9.443464"><time>2024-03-23T10:39:33.000Z</time><ele>1154.2</ele></trkpt><trkpt lat="45.837634" lon="9.44347"><time>2024-03-23T10:39:34.000Z</time><ele>1154</ele></trkpt><trkpt lat="45.837629" lon="9.443476"><time>2024-03-23T10:39:35.000Z</time><ele>1153.8</ele></trkpt><trkpt lat="45.837624" lon="9.443484"><time>2024-03-23T10:39:36.000Z</time><ele>1153.4</ele></trkpt><trkpt lat="45.837617" lon="9.443488"><time>2024-03-23T10:39:37.000Z</time><ele>1153.4</ele></trkpt><trkpt lat="45.837611" lon="9.443495"><time>2024-03-23T10:39:38.000Z</time><ele>1153.2</ele></trkpt><trkpt lat="45.837606" lon="9.443503"><time>2024-03-23T10:39:39.000Z</time><ele>1153</ele></trkpt><trkpt lat="45.837603" lon="9.44351"><time>2024-03-23T10:39:40.000Z</time><ele>1152.6</ele></trkpt><trkpt lat="45.837595" lon="9.443514"><time>2024-03-23T10:39:41.000Z</time><ele>1152.4</ele></trkpt><trkpt lat="45.837589" lon="9.443522"><time>2024-03-23T10:39:42.000Z</time><ele>1152.4</ele></trkpt><trkpt lat="45.837585" lon="9.443533"><time>2024-03-23T10:39:43.000Z</time><ele>1152.2</ele></trkpt><trkpt lat="45.83758" lon="9.443544"><time>2024-03-23T10:39:44.000Z</time><ele>1152.2</ele></trkpt><trkpt lat="45.837572" lon="9.443553"><time>2024-03-23T10:39:45.000Z</time><ele>1151.8</ele></trkpt><trkpt lat="45.837565" lon="9.443563"><time>2024-03-23T10:39:46.000Z</time><ele>1151.6</ele></trkpt><trkpt lat="45.837557" lon="9.443572"><time>2024-03-23T10:39:47.000Z</time><ele>1151.4</ele></trkpt><trkpt lat="45.837551" lon="9.443581"><time>2024-03-23T10:39:48.000Z</time><ele>1151.2</ele></trkpt><trkpt lat="45.837545" lon="9.443589"><time>2024-03-23T10:39:49.000Z</time><ele>1151</ele></trkpt><trkpt lat="45.837536" lon="9.443597"><time>2024-03-23T10:39:50.000Z</time><ele>1150.8</ele></trkpt><trkpt lat="45.837527" lon="9.443606"><time>2024-03-23T10:39:51.000Z</time><ele>1150.8</ele></trkpt><trkpt lat="45.837521" lon="9.443611"><time>2024-03-23T10:39:52.000Z</time><ele>1150.6</ele></trkpt><trkpt lat="45.837516" lon="9.443621"><time>2024-03-23T10:39:53.000Z</time><ele>1150.4</ele></trkpt><trkpt lat="45.83751" lon="9.443628"><time>2024-03-23T10:39:54.000Z</time><ele>1150</ele></trkpt><trkpt lat="45.837508" lon="9.443637"><time>2024-03-23T10:39:55.000Z</time><ele>1149.8</ele></trkpt><trkpt lat="45.837505" lon="9.443643"><time>2024-03-23T10:39:56.000Z</time><ele>1149.6</ele></trkpt><trkpt lat="45.8375" lon="9.443646"><time>2024-03-23T10:39:57.000Z</time><ele>1149.6</ele></trkpt><trkpt lat="45.837495" lon="9.443649"><time>2024-03-23T10:39:58.000Z</time><ele>1149.4</ele></trkpt><trkpt lat="45.837491" lon="9.443654"><time>2024-03-23T10:39:59.000Z</time><ele>1149.2</ele></trkpt><trkpt lat="45.837487" lon="9.443658"><time>2024-03-23T10:40:00.000Z</time><ele>1149</ele></trkpt><trkpt lat="45.837479" lon="9.443661"><time>2024-03-23T10:40:01.000Z</time><ele>1148.8</ele></trkpt><trkpt lat="45.837475" lon="9.443663"><time>2024-03-23T10:40:02.000Z</time><ele>1148.8</ele></trkpt><trkpt lat="45.837471" lon="9.443664"><time>2024-03-23T10:40:03.000Z</time><ele>1148.6</ele></trkpt><trkpt lat="45.837466" lon="9.443662"><time>2024-03-23T10:40:04.000Z</time><ele>1148.4</ele></trkpt><trkpt lat="45.83746" lon="9.443663"><time>2024-03-23T10:40:05.000Z</time><ele>1148.2</ele></trkpt><trkpt lat="45.837454" lon="9.443665"><time>2024-03-23T10:40:06.000Z</time><ele>1148</ele></trkpt><trkpt lat="45.837443" lon="9.443665"><time>2024-03-23T10:40:07.000Z</time><ele>1147.8</ele></trkpt><trkpt lat="45.837436" lon="9.44367"><time>2024-03-23T10:40:08.000Z</time><ele>1147.6</ele></trkpt><trkpt lat="45.837424" lon="9.443679"><time>2024-03-23T10:40:09.000Z</time><ele>1147.4</ele></trkpt><trkpt lat="45.837413" lon="9.443684"><time>2024-03-23T10:40:10.000Z</time><ele>1147.2</ele></trkpt><trkpt lat="45.837405" lon="9.44369"><time>2024-03-23T10:40:11.000Z</time><ele>1147</ele></trkpt><trkpt lat="45.837399" lon="9.443698"><time>2024-03-23T10:40:12.000Z</time><ele>1147</ele></trkpt><trkpt lat="45.837394" lon="9.443704"><time>2024-03-23T10:40:13.000Z</time><ele>1146.8</ele></trkpt><trkpt lat="45.83739" lon="9.443709"><time>2024-03-23T10:40:14.000Z</time><ele>1146.6</ele></trkpt><trkpt lat="45.837388" lon="9.443713"><time>2024-03-23T10:40:15.000Z</time><ele>1146.6</ele></trkpt><trkpt lat="45.837385" lon="9.443714"><time>2024-03-23T10:40:16.000Z</time><ele>1146.4</ele></trkpt><trkpt lat="45.837381" lon="9.443712"><time>2024-03-23T10:40:17.000Z</time><ele>1146.4</ele></trkpt><trkpt lat="45.837375" lon="9.443708"><time>2024-03-23T10:40:18.000Z</time><ele>1146.2</ele></trkpt><trkpt lat="45.837368" lon="9.443706"><time>2024-03-23T10:40:19.000Z</time><ele>1146</ele></trkpt><trkpt lat="45.837361" lon="9.443704"><time>2024-03-23T10:40:20.000Z</time><ele>1145.8</ele></trkpt><trkpt lat="45.837358" lon="9.443703"><time>2024-03-23T10:40:21.000Z</time><ele>1145.6</ele></trkpt><trkpt lat="45.837356" lon="9.443703"><time>2024-03-23T10:40:22.000Z</time><ele>1145.4</ele></trkpt><trkpt lat="45.837353" lon="9.443704"><time>2024-03-23T10:40:23.000Z</time><ele>1145.2</ele></trkpt><trkpt lat="45.837345" lon="9.443704"><time>2024-03-23T10:40:24.000Z</time><ele>1145.2</ele></trkpt><trkpt lat="45.837339" lon="9.443705"><time>2024-03-23T10:40:25.000Z</time><ele>1145</ele></trkpt><trkpt lat="45.837332" lon="9.443705"><time>2024-03-23T10:40:26.000Z</time><ele>1145</ele></trkpt><trkpt lat="45.837326" lon="9.443703"><time>2024-03-23T10:40:27.000Z</time><ele>1144.8</ele></trkpt><trkpt lat="45.837321" lon="9.443703"><time>2024-03-23T10:40:28.000Z</time><ele>1144.6</ele></trkpt><trkpt lat="45.837313" lon="9.443704"><time>2024-03-23T10:40:29.000Z</time><ele>1144.4</ele></trkpt><trkpt lat="45.837309" lon="9.443706"><time>2024-03-23T10:40:30.000Z</time><ele>1144</ele></trkpt><trkpt lat="45.837306" lon="9.443706"><time>2024-03-23T10:40:31.000Z</time><ele>1143.8</ele></trkpt><trkpt lat="45.837303" lon="9.443709"><time>2024-03-23T10:40:32.000Z</time><ele>1143.8</ele></trkpt><trkpt lat="45.837299" lon="9.443715"><time>2024-03-23T10:40:33.000Z</time><ele>1143.6</ele></trkpt><trkpt lat="45.837293" lon="9.443722"><time>2024-03-23T10:40:34.000Z</time><ele>1143.4</ele></trkpt><trkpt lat="45.837287" lon="9.443729"><time>2024-03-23T10:40:35.000Z</time><ele>1143.2</ele></trkpt><trkpt lat="45.837282" lon="9.443737"><time>2024-03-23T10:40:36.000Z</time><ele>1143</ele></trkpt><trkpt lat="45.837277" lon="9.443745"><time>2024-03-23T10:40:37.000Z</time><ele>1142.8</ele></trkpt><trkpt lat="45.837273" lon="9.44375"><time>2024-03-23T10:40:38.000Z</time><ele>1142.6</ele></trkpt><trkpt lat="45.837266" lon="9.443754"><time>2024-03-23T10:40:39.000Z</time><ele>1142.2</ele></trkpt><trkpt lat="45.83726" lon="9.443756"><time>2024-03-23T10:40:40.000Z</time><ele>1142</ele></trkpt><trkpt lat="45.837253" lon="9.443757"><time>2024-03-23T10:40:41.000Z</time><ele>1141.8</ele></trkpt><trkpt lat="45.837248" lon="9.443754"><time>2024-03-23T10:40:42.000Z</time><ele>1141.6</ele></trkpt><trkpt lat="45.837244" lon="9.443753"><time>2024-03-23T10:40:43.000Z</time><ele>1141.6</ele></trkpt><trkpt lat="45.83724" lon="9.443746"><time>2024-03-23T10:40:44.000Z</time><ele>1141.4</ele></trkpt><trkpt lat="45.837233" lon="9.443742"><time>2024-03-23T10:40:45.000Z</time><ele>1141.2</ele></trkpt><trkpt lat="45.837224" lon="9.443741"><time>2024-03-23T10:40:46.000Z</time><ele>1140.8</ele></trkpt><trkpt lat="45.837217" lon="9.443744"><time>2024-03-23T10:40:47.000Z</time><ele>1140.6</ele></trkpt><trkpt lat="45.837208" lon="9.443747"><time>2024-03-23T10:40:48.000Z</time><ele>1140.4</ele></trkpt><trkpt lat="45.8372" lon="9.443751"><time>2024-03-23T10:40:49.000Z</time><ele>1140.4</ele></trkpt><trkpt lat="45.837192" lon="9.443755"><time>2024-03-23T10:40:50.000Z</time><ele>1140</ele></trkpt><trkpt lat="45.837186" lon="9.443758"><time>2024-03-23T10:40:51.000Z</time><ele>1139.8</ele></trkpt><trkpt lat="45.83718" lon="9.443765"><time>2024-03-23T10:40:52.000Z</time><ele>1139.6</ele></trkpt><trkpt lat="45.837173" lon="9.443769"><time>2024-03-23T10:40:53.000Z</time><ele>1139.6</ele></trkpt><trkpt lat="45.837164" lon="9.443774"><time>2024-03-23T10:40:54.000Z</time><ele>1139.4</ele></trkpt><trkpt lat="45.837153" lon="9.443779"><time>2024-03-23T10:40:55.000Z</time><ele>1139.4</ele></trkpt><trkpt lat="45.837143" lon="9.443782"><time>2024-03-23T10:40:56.000Z</time><ele>1139</ele></trkpt><trkpt lat="45.837132" lon="9.44378"><time>2024-03-23T10:40:57.000Z</time><ele>1138.8</ele></trkpt><trkpt lat="45.837121" lon="9.443784"><time>2024-03-23T10:40:58.000Z</time><ele>1138.8</ele></trkpt><trkpt lat="45.837114" lon="9.44379"><time>2024-03-23T10:40:59.000Z</time><ele>1138.6</ele></trkpt><trkpt lat="45.837109" lon="9.443797"><time>2024-03-23T10:41:00.000Z</time><ele>1138.4</ele></trkpt><trkpt lat="45.837102" lon="9.443799"><time>2024-03-23T10:41:01.000Z</time><ele>1138.4</ele></trkpt><trkpt lat="45.837094" lon="9.443802"><time>2024-03-23T10:41:02.000Z</time><ele>1138</ele></trkpt><trkpt lat="45.837085" lon="9.443799"><time>2024-03-23T10:41:03.000Z</time><ele>1137.8</ele></trkpt><trkpt lat="45.837075" lon="9.443799"><time>2024-03-23T10:41:04.000Z</time><ele>1137.8</ele></trkpt><trkpt lat="45.837065" lon="9.4438"><time>2024-03-23T10:41:05.000Z</time><ele>1137.6</ele></trkpt><trkpt lat="45.837054" lon="9.443808"><time>2024-03-23T10:41:06.000Z</time><ele>1137.4</ele></trkpt><trkpt lat="45.837044" lon="9.443817"><time>2024-03-23T10:41:07.000Z</time><ele>1137.4</ele></trkpt><trkpt lat="45.837032" lon="9.443826"><time>2024-03-23T10:41:08.000Z</time><ele>1137</ele></trkpt><trkpt lat="45.837021" lon="9.443835"><time>2024-03-23T10:41:09.000Z</time><ele>1136.8</ele></trkpt><trkpt lat="45.837011" lon="9.443843"><time>2024-03-23T10:41:10.000Z</time><ele>1136.6</ele></trkpt><trkpt lat="45.837" lon="9.44385"><time>2024-03-23T10:41:11.000Z</time><ele>1136.4</ele></trkpt><trkpt lat="45.836988" lon="9.44386"><time>2024-03-23T10:41:12.000Z</time><ele>1136.4</ele></trkpt><trkpt lat="45.836979" lon="9.443872"><time>2024-03-23T10:41:13.000Z</time><ele>1136.4</ele></trkpt><trkpt lat="45.836973" lon="9.443883"><time>2024-03-23T10:41:14.000Z</time><ele>1136.4</ele></trkpt><trkpt lat="45.836968" lon="9.44389"><time>2024-03-23T10:41:15.000Z</time><ele>1136.4</ele></trkpt><trkpt lat="45.836959" lon="9.443899"><time>2024-03-23T10:41:16.000Z</time><ele>1136.4</ele></trkpt><trkpt lat="45.836955" lon="9.443904"><time>2024-03-23T10:41:17.000Z</time><ele>1136.4</ele></trkpt><trkpt lat="45.836954" lon="9.443906"><time>2024-03-23T10:41:18.000Z</time><ele>1136.4</ele></trkpt><trkpt lat="45.836949" lon="9.443909"><time>2024-03-23T10:41:19.000Z</time><ele>1136.4</ele></trkpt><trkpt lat="45.836939" lon="9.443916"><time>2024-03-23T10:41:20.000Z</time><ele>1136.4</ele></trkpt><trkpt lat="45.836929" lon="9.443919"><time>2024-03-23T10:41:21.000Z</time><ele>1136.4</ele></trkpt><trkpt lat="45.836919" lon="9.443923"><time>2024-03-23T10:41:22.000Z</time><ele>1136.4</ele></trkpt><trkpt lat="45.83691" lon="9.443928"><time>2024-03-23T10:41:23.000Z</time><ele>1136</ele></trkpt><trkpt lat="45.8369" lon="9.443938"><time>2024-03-23T10:41:24.000Z</time><ele>1135.6</ele></trkpt><trkpt lat="45.836891" lon="9.443948"><time>2024-03-23T10:41:25.000Z</time><ele>1135.4</ele></trkpt><trkpt lat="45.836883" lon="9.443958"><time>2024-03-23T10:41:26.000Z</time><ele>1135.2</ele></trkpt><trkpt lat="45.836872" lon="9.443965"><time>2024-03-23T10:41:27.000Z</time><ele>1135.2</ele></trkpt><trkpt lat="45.836863" lon="9.443973"><time>2024-03-23T10:41:28.000Z</time><ele>1135</ele></trkpt><trkpt lat="45.836854" lon="9.443981"><time>2024-03-23T10:41:29.000Z</time><ele>1135</ele></trkpt><trkpt lat="45.836844" lon="9.44399"><time>2024-03-23T10:41:30.000Z</time><ele>1134.6</ele></trkpt><trkpt lat="45.836832" lon="9.443999"><time>2024-03-23T10:41:31.000Z</time><ele>1134.6</ele></trkpt><trkpt lat="45.836821" lon="9.444005"><time>2024-03-23T10:41:32.000Z</time><ele>1134.4</ele></trkpt><trkpt lat="45.836808" lon="9.44401"><time>2024-03-23T10:41:33.000Z</time><ele>1134.2</ele></trkpt><trkpt lat="45.836796" lon="9.444017"><time>2024-03-23T10:41:34.000Z</time><ele>1134</ele></trkpt><trkpt lat="45.836785" lon="9.444025"><time>2024-03-23T10:41:35.000Z</time><ele>1134</ele></trkpt><trkpt lat="45.836775" lon="9.444033"><time>2024-03-23T10:41:36.000Z</time><ele>1133.8</ele></trkpt><trkpt lat="45.836762" lon="9.444039"><time>2024-03-23T10:41:37.000Z</time><ele>1133.8</ele></trkpt><trkpt lat="45.83675" lon="9.444044"><time>2024-03-23T10:41:38.000Z</time><ele>1133.8</ele></trkpt><trkpt lat="45.836741" lon="9.444047"><time>2024-03-23T10:41:39.000Z</time><ele>1133.6</ele></trkpt><trkpt lat="45.836736" lon="9.44405"><time>2024-03-23T10:41:40.000Z</time><ele>1133.6</ele></trkpt><trkpt lat="45.836734" lon="9.444052"><time>2024-03-23T10:41:41.000Z</time><ele>1133.4</ele></trkpt><trkpt lat="45.836735" lon="9.444052"><time>2024-03-23T10:41:42.000Z</time><ele>1133.4</ele></trkpt><trkpt lat="45.836735" lon="9.444051"><time>2024-03-23T10:41:43.000Z</time><ele>1133.4</ele></trkpt><trkpt lat="45.836737" lon="9.444051"><time>2024-03-23T10:41:44.000Z</time><ele>1133.4</ele></trkpt><trkpt lat="45.836738" lon="9.444051"><time>2024-03-23T10:41:45.000Z</time><ele>1133.4</ele></trkpt><trkpt lat="45.836739" lon="9.44405"><time>2024-03-23T10:41:46.000Z</time><ele>1133.4</ele></trkpt><trkpt lat="45.83674" lon="9.444051"><time>2024-03-23T10:41:47.000Z</time><ele>1133.6</ele></trkpt><trkpt lat="45.83674" lon="9.444053"><time>2024-03-23T10:41:48.000Z</time><ele>1133.6</ele></trkpt><trkpt lat="45.836736" lon="9.444053"><time>2024-03-23T10:41:49.000Z</time><ele>1133.6</ele></trkpt><trkpt lat="45.836732" lon="9.444055"><time>2024-03-23T10:41:50.000Z</time><ele>1133.6</ele></trkpt><trkpt lat="45.836724" lon="9.44406"><time>2024-03-23T10:41:51.000Z</time><ele>1133.6</ele></trkpt><trkpt lat="45.836717" lon="9.444068"><time>2024-03-23T10:41:52.000Z</time><ele>1133.6</ele></trkpt><trkpt lat="45.836709" lon="9.444075"><time>2024-03-23T10:41:53.000Z</time><ele>1133.6</ele></trkpt><trkpt lat="45.8367" lon="9.444085"><time>2024-03-23T10:41:54.000Z</time><ele>1133.6</ele></trkpt><trkpt lat="45.836689" lon="9.444091"><time>2024-03-23T10:41:55.000Z</time><ele>1133.4</ele></trkpt><trkpt lat="45.836678" lon="9.444096"><time>2024-03-23T10:41:56.000Z</time><ele>1133.4</ele></trkpt><trkpt lat="45.836665" lon="9.444099"><time>2024-03-23T10:41:57.000Z</time><ele>1133.2</ele></trkpt><trkpt lat="45.836652" lon="9.444101"><time>2024-03-23T10:41:58.000Z</time><ele>1133</ele></trkpt><trkpt lat="45.836642" lon="9.444106"><time>2024-03-23T10:41:59.000Z</time><ele>1133</ele></trkpt><trkpt lat="45.836632" lon="9.444112"><time>2024-03-23T10:42:00.000Z</time><ele>1132.8</ele></trkpt><trkpt lat="45.836621" lon="9.444118"><time>2024-03-23T10:42:01.000Z</time><ele>1132.8</ele></trkpt><trkpt lat="45.836611" lon="9.444124"><time>2024-03-23T10:42:02.000Z</time><ele>1132.8</ele></trkpt><trkpt lat="45.836601" lon="9.444129"><time>2024-03-23T10:42:03.000Z</time><ele>1132.6</ele></trkpt><trkpt lat="45.83659" lon="9.444134"><time>2024-03-23T10:42:04.000Z</time><ele>1132.6</ele></trkpt><trkpt lat="45.836579" lon="9.44414"><time>2024-03-23T10:42:05.000Z</time><ele>1132.6</ele></trkpt><trkpt lat="45.836567" lon="9.444147"><time>2024-03-23T10:42:06.000Z</time><ele>1132.4</ele></trkpt><trkpt lat="45.836555" lon="9.444154"><time>2024-03-23T10:42:07.000Z</time><ele>1132.4</ele></trkpt><trkpt lat="45.836542" lon="9.444164"><time>2024-03-23T10:42:08.000Z</time><ele>1132.2</ele></trkpt><trkpt lat="45.83653" lon="9.444174"><time>2024-03-23T10:42:09.000Z</time><ele>1132</ele></trkpt><trkpt lat="45.836519" lon="9.444184"><time>2024-03-23T10:42:10.000Z</time><ele>1132</ele></trkpt><trkpt lat="45.836508" lon="9.444196"><time>2024-03-23T10:42:11.000Z</time><ele>1131.8</ele></trkpt><trkpt lat="45.836496" lon="9.444205"><time>2024-03-23T10:42:12.000Z</time><ele>1131.8</ele></trkpt><trkpt lat="45.836484" lon="9.444213"><time>2024-03-23T10:42:13.000Z</time><ele>1131.6</ele></trkpt><trkpt lat="45.836472" lon="9.444222"><time>2024-03-23T10:42:14.000Z</time><ele>1131.6</ele></trkpt><trkpt lat="45.836461" lon="9.44423"><time>2024-03-23T10:42:15.000Z</time><ele>1131.4</ele></trkpt><trkpt lat="45.836451" lon="9.444238"><time>2024-03-23T10:42:16.000Z</time><ele>1131.4</ele></trkpt><trkpt lat="45.836442" lon="9.444247"><time>2024-03-23T10:42:17.000Z</time><ele>1131.4</ele></trkpt><trkpt lat="45.836432" lon="9.444255"><time>2024-03-23T10:42:18.000Z</time><ele>1131.2</ele></trkpt><trkpt lat="45.836423" lon="9.444263"><time>2024-03-23T10:42:19.000Z</time><ele>1131.2</ele></trkpt><trkpt lat="45.836412" lon="9.44427"><time>2024-03-23T10:42:20.000Z</time><ele>1131.2</ele></trkpt><trkpt lat="45.836399" lon="9.44428"><time>2024-03-23T10:42:21.000Z</time><ele>1131</ele></trkpt><trkpt lat="45.836387" lon="9.444289"><time>2024-03-23T10:42:22.000Z</time><ele>1130.8</ele></trkpt><trkpt lat="45.836379" lon="9.444297"><time>2024-03-23T10:42:23.000Z</time><ele>1130.8</ele></trkpt><trkpt lat="45.836372" lon="9.444304"><time>2024-03-23T10:42:24.000Z</time><ele>1130.6</ele></trkpt><trkpt lat="45.836362" lon="9.444313"><time>2024-03-23T10:42:25.000Z</time><ele>1130.6</ele></trkpt><trkpt lat="45.836349" lon="9.444323"><time>2024-03-23T10:42:26.000Z</time><ele>1130.6</ele></trkpt><trkpt lat="45.836339" lon="9.444333"><time>2024-03-23T10:42:27.000Z</time><ele>1130.6</ele></trkpt><trkpt lat="45.83633" lon="9.444342"><time>2024-03-23T10:42:28.000Z</time><ele>1130.6</ele></trkpt><trkpt lat="45.836322" lon="9.444349"><time>2024-03-23T10:42:29.000Z</time><ele>1130.6</ele></trkpt><trkpt lat="45.836314" lon="9.444359"><time>2024-03-23T10:42:30.000Z</time><ele>1130.2</ele></trkpt><trkpt lat="45.836305" lon="9.444366"><time>2024-03-23T10:42:31.000Z</time><ele>1130</ele></trkpt><trkpt lat="45.836298" lon="9.444374"><time>2024-03-23T10:42:32.000Z</time><ele>1129.8</ele></trkpt><trkpt lat="45.836289" lon="9.444385"><time>2024-03-23T10:42:33.000Z</time><ele>1129.6</ele></trkpt><trkpt lat="45.836281" lon="9.444393"><time>2024-03-23T10:42:34.000Z</time><ele>1129.6</ele></trkpt><trkpt lat="45.836269" lon="9.444399"><time>2024-03-23T10:42:35.000Z</time><ele>1129.4</ele></trkpt><trkpt lat="45.836258" lon="9.444406"><time>2024-03-23T10:42:36.000Z</time><ele>1129.2</ele></trkpt><trkpt lat="45.836244" lon="9.444414"><time>2024-03-23T10:42:37.000Z</time><ele>1129</ele></trkpt><trkpt lat="45.83623" lon="9.444423"><time>2024-03-23T10:42:38.000Z</time><ele>1128.8</ele></trkpt><trkpt lat="45.836214" lon="9.44443"><time>2024-03-23T10:42:39.000Z</time><ele>1128.8</ele></trkpt><trkpt lat="45.8362" lon="9.444437"><time>2024-03-23T10:42:40.000Z</time><ele>1128.6</ele></trkpt><trkpt lat="45.836188" lon="9.444448"><time>2024-03-23T10:42:41.000Z</time><ele>1128.6</ele></trkpt><trkpt lat="45.836178" lon="9.444458"><time>2024-03-23T10:42:42.000Z</time><ele>1128.4</ele></trkpt><trkpt lat="45.836169" lon="9.44447"><time>2024-03-23T10:42:43.000Z</time><ele>1128.4</ele></trkpt><trkpt lat="45.83616" lon="9.44448"><time>2024-03-23T10:42:44.000Z</time><ele>1128.2</ele></trkpt><trkpt lat="45.836154" lon="9.444491"><time>2024-03-23T10:42:45.000Z</time><ele>1128.2</ele></trkpt><trkpt lat="45.836147" lon="9.444501"><time>2024-03-23T10:42:46.000Z</time><ele>1128.2</ele></trkpt><trkpt lat="45.836137" lon="9.444508"><time>2024-03-23T10:42:47.000Z</time><ele>1128.2</ele></trkpt><trkpt lat="45.836129" lon="9.444515"><time>2024-03-23T10:42:48.000Z</time><ele>1128.2</ele></trkpt><trkpt lat="45.836121" lon="9.44452"><time>2024-03-23T10:42:49.000Z</time><ele>1128.2</ele></trkpt><trkpt lat="45.836109" lon="9.444523"><time>2024-03-23T10:42:50.000Z</time><ele>1128.4</ele></trkpt><trkpt lat="45.836101" lon="9.444524"><time>2024-03-23T10:42:51.000Z</time><ele>1128.4</ele></trkpt><trkpt lat="45.836089" lon="9.444526"><time>2024-03-23T10:42:52.000Z</time><ele>1128.4</ele></trkpt><trkpt lat="45.836077" lon="9.444528"><time>2024-03-23T10:42:53.000Z</time><ele>1128.4</ele></trkpt><trkpt lat="45.836066" lon="9.444529"><time>2024-03-23T10:42:54.000Z</time><ele>1128.4</ele></trkpt><trkpt lat="45.836053" lon="9.444532"><time>2024-03-23T10:42:55.000Z</time><ele>1128.4</ele></trkpt><trkpt lat="45.83604" lon="9.444538"><time>2024-03-23T10:42:56.000Z</time><ele>1128.4</ele></trkpt><trkpt lat="45.836025" lon="9.444546"><time>2024-03-23T10:42:57.000Z</time><ele>1128.2</ele></trkpt><trkpt lat="45.836008" lon="9.444552"><time>2024-03-23T10:42:58.000Z</time><ele>1128</ele></trkpt><trkpt lat="45.835993" lon="9.444558"><time>2024-03-23T10:42:59.000Z</time><ele>1127.8</ele></trkpt><trkpt lat="45.83598" lon="9.444566"><time>2024-03-23T10:43:00.000Z</time><ele>1127.8</ele></trkpt><trkpt lat="45.835969" lon="9.444573"><time>2024-03-23T10:43:01.000Z</time><ele>1127.6</ele></trkpt><trkpt lat="45.83596" lon="9.444581"><time>2024-03-23T10:43:02.000Z</time><ele>1127.6</ele></trkpt><trkpt lat="45.835953" lon="9.444591"><time>2024-03-23T10:43:03.000Z</time><ele>1127.6</ele></trkpt><trkpt lat="45.835947" lon="9.444601"><time>2024-03-23T10:43:04.000Z</time><ele>1127.4</ele></trkpt><trkpt lat="45.83594" lon="9.444609"><time>2024-03-23T10:43:05.000Z</time><ele>1127.4</ele></trkpt><trkpt lat="45.83593" lon="9.444619"><time>2024-03-23T10:43:06.000Z</time><ele>1127.4</ele></trkpt><trkpt lat="45.835922" lon="9.44463"><time>2024-03-23T10:43:07.000Z</time><ele>1127.2</ele></trkpt><trkpt lat="45.835913" lon="9.444637"><time>2024-03-23T10:43:08.000Z</time><ele>1127</ele></trkpt><trkpt lat="45.835902" lon="9.444646"><time>2024-03-23T10:43:09.000Z</time><ele>1126.8</ele></trkpt><trkpt lat="45.83589" lon="9.444652"><time>2024-03-23T10:43:10.000Z</time><ele>1126.6</ele></trkpt><trkpt lat="45.835878" lon="9.444659"><time>2024-03-23T10:43:11.000Z</time><ele>1126.4</ele></trkpt><trkpt lat="45.835866" lon="9.444665"><time>2024-03-23T10:43:12.000Z</time><ele>1126.2</ele></trkpt><trkpt lat="45.835855" lon="9.444669"><time>2024-03-23T10:43:13.000Z</time><ele>1126.2</ele></trkpt><trkpt lat="45.835845" lon="9.444673"><time>2024-03-23T10:43:14.000Z</time><ele>1126</ele></trkpt><trkpt lat="45.835837" lon="9.444679"><time>2024-03-23T10:43:15.000Z</time><ele>1125.8</ele></trkpt><trkpt lat="45.835829" lon="9.444685"><time>2024-03-23T10:43:16.000Z</time><ele>1125.6</ele></trkpt><trkpt lat="45.835821" lon="9.444692"><time>2024-03-23T10:43:17.000Z</time><ele>1125.6</ele></trkpt><trkpt lat="45.835811" lon="9.444698"><time>2024-03-23T10:43:18.000Z</time><ele>1125.4</ele></trkpt><trkpt lat="45.835802" lon="9.444701"><time>2024-03-23T10:43:19.000Z</time><ele>1125.4</ele></trkpt><trkpt lat="45.835795" lon="9.444705"><time>2024-03-23T10:43:20.000Z</time><ele>1125.2</ele></trkpt><trkpt lat="45.835784" lon="9.444711"><time>2024-03-23T10:43:21.000Z</time><ele>1125</ele></trkpt><trkpt lat="45.835776" lon="9.444715"><time>2024-03-23T10:43:22.000Z</time><ele>1124.8</ele></trkpt><trkpt lat="45.835766" lon="9.444721"><time>2024-03-23T10:43:23.000Z</time><ele>1124.4</ele></trkpt><trkpt lat="45.835753" lon="9.444724"><time>2024-03-23T10:43:24.000Z</time><ele>1124.4</ele></trkpt><trkpt lat="45.835742" lon="9.444725"><time>2024-03-23T10:43:25.000Z</time><ele>1124.2</ele></trkpt><trkpt lat="45.835729" lon="9.444729"><time>2024-03-23T10:43:26.000Z</time><ele>1124</ele></trkpt><trkpt lat="45.83572" lon="9.444735"><time>2024-03-23T10:43:27.000Z</time><ele>1123.8</ele></trkpt><trkpt lat="45.83571" lon="9.44474"><time>2024-03-23T10:43:28.000Z</time><ele>1123.6</ele></trkpt><trkpt lat="45.835703" lon="9.444748"><time>2024-03-23T10:43:29.000Z</time><ele>1123.6</ele></trkpt><trkpt lat="45.835696" lon="9.444757"><time>2024-03-23T10:43:30.000Z</time><ele>1123.6</ele></trkpt><trkpt lat="45.835688" lon="9.444767"><time>2024-03-23T10:43:31.000Z</time><ele>1123.6</ele></trkpt><trkpt lat="45.835681" lon="9.444777"><time>2024-03-23T10:43:32.000Z</time><ele>1123.6</ele></trkpt><trkpt lat="45.835673" lon="9.444789"><time>2024-03-23T10:43:33.000Z</time><ele>1123.2</ele></trkpt><trkpt lat="45.835666" lon="9.444801"><time>2024-03-23T10:43:34.000Z</time><ele>1122.8</ele></trkpt><trkpt lat="45.835655" lon="9.444811"><time>2024-03-23T10:43:35.000Z</time><ele>1122.6</ele></trkpt><trkpt lat="45.835643" lon="9.444819"><time>2024-03-23T10:43:36.000Z</time><ele>1122.4</ele></trkpt><trkpt lat="45.835631" lon="9.444827"><time>2024-03-23T10:43:37.000Z</time><ele>1122</ele></trkpt><trkpt lat="45.835619" lon="9.444835"><time>2024-03-23T10:43:38.000Z</time><ele>1121.8</ele></trkpt><trkpt lat="45.835611" lon="9.444843"><time>2024-03-23T10:43:39.000Z</time><ele>1121.8</ele></trkpt><trkpt lat="45.835603" lon="9.444849"><time>2024-03-23T10:43:40.000Z</time><ele>1121.6</ele></trkpt><trkpt lat="45.835596" lon="9.444858"><time>2024-03-23T10:43:41.000Z</time><ele>1121.6</ele></trkpt><trkpt lat="45.835589" lon="9.44487"><time>2024-03-23T10:43:42.000Z</time><ele>1121.6</ele></trkpt><trkpt lat="45.835585" lon="9.444881"><time>2024-03-23T10:43:43.000Z</time><ele>1121.4</ele></trkpt><trkpt lat="45.835581" lon="9.444894"><time>2024-03-23T10:43:44.000Z</time><ele>1121.2</ele></trkpt><trkpt lat="45.83558" lon="9.444907"><time>2024-03-23T10:43:45.000Z</time><ele>1121</ele></trkpt><trkpt lat="45.835576" lon="9.44492"><time>2024-03-23T10:43:46.000Z</time><ele>1121</ele></trkpt><trkpt lat="45.835571" lon="9.444933"><time>2024-03-23T10:43:47.000Z</time><ele>1120.8</ele></trkpt><trkpt lat="45.835565" lon="9.444944"><time>2024-03-23T10:43:48.000Z</time><ele>1120.4</ele></trkpt><trkpt lat="45.835556" lon="9.444953"><time>2024-03-23T10:43:49.000Z</time><ele>1120.2</ele></trkpt><trkpt lat="45.835546" lon="9.44496"><time>2024-03-23T10:43:50.000Z</time><ele>1120.2</ele></trkpt><trkpt lat="45.835538" lon="9.444968"><time>2024-03-23T10:43:51.000Z</time><ele>1120</ele></trkpt><trkpt lat="45.835532" lon="9.444975"><time>2024-03-23T10:43:52.000Z</time><ele>1119.8</ele></trkpt><trkpt lat="45.835524" lon="9.44498"><time>2024-03-23T10:43:53.000Z</time><ele>1119.8</ele></trkpt><trkpt lat="45.835516" lon="9.44498"><time>2024-03-23T10:43:54.000Z</time><ele>1119.4</ele></trkpt><trkpt lat="45.835504" lon="9.444981"><time>2024-03-23T10:43:55.000Z</time><ele>1119.2</ele></trkpt><trkpt lat="45.83549" lon="9.444982"><time>2024-03-23T10:43:56.000Z</time><ele>1119</ele></trkpt><trkpt lat="45.83548" lon="9.444987"><time>2024-03-23T10:43:57.000Z</time><ele>1118.8</ele></trkpt><trkpt lat="45.835471" lon="9.444997"><time>2024-03-23T10:43:58.000Z</time><ele>1118.8</ele></trkpt><trkpt lat="45.835466" lon="9.445008"><time>2024-03-23T10:43:59.000Z</time><ele>1118.6</ele></trkpt><trkpt lat="45.83546" lon="9.445015"><time>2024-03-23T10:44:00.000Z</time><ele>1118.4</ele></trkpt><trkpt lat="45.835454" lon="9.445022"><time>2024-03-23T10:44:01.000Z</time><ele>1118.4</ele></trkpt><trkpt lat="45.835448" lon="9.445031"><time>2024-03-23T10:44:02.000Z</time><ele>1118.2</ele></trkpt><trkpt lat="45.83544" lon="9.445036"><time>2024-03-23T10:44:03.000Z</time><ele>1118.2</ele></trkpt><trkpt lat="45.835431" lon="9.445038"><time>2024-03-23T10:44:04.000Z</time><ele>1118</ele></trkpt><trkpt lat="45.835421" lon="9.445042"><time>2024-03-23T10:44:05.000Z</time><ele>1117.8</ele></trkpt><trkpt lat="45.835412" lon="9.445048"><time>2024-03-23T10:44:06.000Z</time><ele>1117.8</ele></trkpt><trkpt lat="45.835405" lon="9.445056"><time>2024-03-23T10:44:07.000Z</time><ele>1117.6</ele></trkpt><trkpt lat="45.835399" lon="9.445061"><time>2024-03-23T10:44:08.000Z</time><ele>1117.4</ele></trkpt><trkpt lat="45.835394" lon="9.445067"><time>2024-03-23T10:44:09.000Z</time><ele>1117.2</ele></trkpt><trkpt lat="45.835391" lon="9.445079"><time>2024-03-23T10:44:10.000Z</time><ele>1117.2</ele></trkpt><trkpt lat="45.835393" lon="9.445093"><time>2024-03-23T10:44:11.000Z</time><ele>1117</ele></trkpt><trkpt lat="45.835391" lon="9.445103"><time>2024-03-23T10:44:12.000Z</time><ele>1116.6</ele></trkpt><trkpt lat="45.835387" lon="9.445112"><time>2024-03-23T10:44:13.000Z</time><ele>1116.4</ele></trkpt><trkpt lat="45.835382" lon="9.44512"><time>2024-03-23T10:44:14.000Z</time><ele>1116.2</ele></trkpt><trkpt lat="45.835374" lon="9.44513"><time>2024-03-23T10:44:15.000Z</time><ele>1116</ele></trkpt><trkpt lat="45.835366" lon="9.445139"><time>2024-03-23T10:44:16.000Z</time><ele>1115.8</ele></trkpt><trkpt lat="45.83536" lon="9.445146"><time>2024-03-23T10:44:17.000Z</time><ele>1115.6</ele></trkpt><trkpt lat="45.835355" lon="9.445151"><time>2024-03-23T10:44:18.000Z</time><ele>1115.4</ele></trkpt><trkpt lat="45.835344" lon="9.445158"><time>2024-03-23T10:44:19.000Z</time><ele>1115</ele></trkpt><trkpt lat="45.835331" lon="9.445166"><time>2024-03-23T10:44:20.000Z</time><ele>1115</ele></trkpt><trkpt lat="45.835317" lon="9.445175"><time>2024-03-23T10:44:21.000Z</time><ele>1114.8</ele></trkpt><trkpt lat="45.835304" lon="9.445182"><time>2024-03-23T10:44:22.000Z</time><ele>1114.8</ele></trkpt><trkpt lat="45.835291" lon="9.44519"><time>2024-03-23T10:44:23.000Z</time><ele>1114.6</ele></trkpt><trkpt lat="45.835279" lon="9.445198"><time>2024-03-23T10:44:24.000Z</time><ele>1114.6</ele></trkpt><trkpt lat="45.835271" lon="9.445206"><time>2024-03-23T10:44:25.000Z</time><ele>1114.4</ele></trkpt><trkpt lat="45.835263" lon="9.445214"><time>2024-03-23T10:44:26.000Z</time><ele>1114.4</ele></trkpt><trkpt lat="45.835252" lon="9.445224"><time>2024-03-23T10:44:27.000Z</time><ele>1114.2</ele></trkpt><trkpt lat="45.835245" lon="9.445233"><time>2024-03-23T10:44:28.000Z</time><ele>1114.2</ele></trkpt><trkpt lat="45.835234" lon="9.445244"><time>2024-03-23T10:44:29.000Z</time><ele>1114</ele></trkpt><trkpt lat="45.83522" lon="9.445256"><time>2024-03-23T10:44:30.000Z</time><ele>1114</ele></trkpt><trkpt lat="45.835207" lon="9.445268"><time>2024-03-23T10:44:31.000Z</time><ele>1113.8</ele></trkpt><trkpt lat="45.835197" lon="9.44528"><time>2024-03-23T10:44:32.000Z</time><ele>1113.8</ele></trkpt><trkpt lat="45.835188" lon="9.44529"><time>2024-03-23T10:44:33.000Z</time><ele>1113.6</ele></trkpt><trkpt lat="45.835181" lon="9.445296"><time>2024-03-23T10:44:34.000Z</time><ele>1113.6</ele></trkpt><trkpt lat="45.835174" lon="9.445296"><time>2024-03-23T10:44:35.000Z</time><ele>1113.4</ele></trkpt><trkpt lat="45.835164" lon="9.445293"><time>2024-03-23T10:44:36.000Z</time><ele>1113.2</ele></trkpt><trkpt lat="45.835155" lon="9.445295"><time>2024-03-23T10:44:37.000Z</time><ele>1113.2</ele></trkpt><trkpt lat="45.835145" lon="9.445295"><time>2024-03-23T10:44:38.000Z</time><ele>1113.2</ele></trkpt><trkpt lat="45.835135" lon="9.445298"><time>2024-03-23T10:44:39.000Z</time><ele>1113</ele></trkpt><trkpt lat="45.835128" lon="9.445304"><time>2024-03-23T10:44:40.000Z</time><ele>1113</ele></trkpt><trkpt lat="45.835119" lon="9.44531"><time>2024-03-23T10:44:41.000Z</time><ele>1112.8</ele></trkpt><trkpt lat="45.835111" lon="9.445316"><time>2024-03-23T10:44:42.000Z</time><ele>1112.6</ele></trkpt><trkpt lat="45.835101" lon="9.445327"><time>2024-03-23T10:44:43.000Z</time><ele>1112.4</ele></trkpt><trkpt lat="45.835093" lon="9.445339"><time>2024-03-23T10:44:44.000Z</time><ele>1112.2</ele></trkpt><trkpt lat="45.835089" lon="9.44535"><time>2024-03-23T10:44:45.000Z</time><ele>1112</ele></trkpt><trkpt lat="45.835084" lon="9.44536"><time>2024-03-23T10:44:46.000Z</time><ele>1111.8</ele></trkpt><trkpt lat="45.835073" lon="9.445365"><time>2024-03-23T10:44:47.000Z</time><ele>1111.8</ele></trkpt><trkpt lat="45.835064" lon="9.445372"><time>2024-03-23T10:44:48.000Z</time><ele>1111.6</ele></trkpt><trkpt lat="45.835052" lon="9.445381"><time>2024-03-23T10:44:49.000Z</time><ele>1111.6</ele></trkpt><trkpt lat="45.83504" lon="9.445389"><time>2024-03-23T10:44:50.000Z</time><ele>1111.4</ele></trkpt><trkpt lat="45.835031" lon="9.445394"><time>2024-03-23T10:44:51.000Z</time><ele>1111.4</ele></trkpt><trkpt lat="45.835017" lon="9.445399"><time>2024-03-23T10:44:52.000Z</time><ele>1111.4</ele></trkpt><trkpt lat="45.835006" lon="9.445406"><time>2024-03-23T10:44:53.000Z</time><ele>1111.2</ele></trkpt><trkpt lat="45.834998" lon="9.445413"><time>2024-03-23T10:44:54.000Z</time><ele>1111</ele></trkpt><trkpt lat="45.834992" lon="9.445422"><time>2024-03-23T10:44:55.000Z</time><ele>1110.8</ele></trkpt><trkpt lat="45.834988" lon="9.445431"><time>2024-03-23T10:44:56.000Z</time><ele>1110.8</ele></trkpt><trkpt lat="45.834982" lon="9.445442"><time>2024-03-23T10:44:57.000Z</time><ele>1110.6</ele></trkpt><trkpt lat="45.834969" lon="9.445455"><time>2024-03-23T10:44:58.000Z</time><ele>1110.6</ele></trkpt><trkpt lat="45.834959" lon="9.445465"><time>2024-03-23T10:44:59.000Z</time><ele>1110.6</ele></trkpt><trkpt lat="45.834952" lon="9.445471"><time>2024-03-23T10:45:00.000Z</time><ele>1110.4</ele></trkpt><trkpt lat="45.834948" lon="9.445473"><time>2024-03-23T10:45:01.000Z</time><ele>1110.2</ele></trkpt><trkpt lat="45.834942" lon="9.445476"><time>2024-03-23T10:45:02.000Z</time><ele>1110.2</ele></trkpt><trkpt lat="45.834938" lon="9.445478"><time>2024-03-23T10:45:03.000Z</time><ele>1109.8</ele></trkpt><trkpt lat="45.834934" lon="9.44548"><time>2024-03-23T10:45:04.000Z</time><ele>1109.8</ele></trkpt><trkpt lat="45.834929" lon="9.445477"><time>2024-03-23T10:45:05.000Z</time><ele>1109.6</ele></trkpt><trkpt lat="45.834923" lon="9.445475"><time>2024-03-23T10:45:06.000Z</time><ele>1109.6</ele></trkpt><trkpt lat="45.834916" lon="9.445474"><time>2024-03-23T10:45:07.000Z</time><ele>1109.4</ele></trkpt><trkpt lat="45.834907" lon="9.44548"><time>2024-03-23T10:45:08.000Z</time><ele>1109.4</ele></trkpt><trkpt lat="45.834901" lon="9.44549"><time>2024-03-23T10:45:09.000Z</time><ele>1109.2</ele></trkpt><trkpt lat="45.834895" lon="9.445502"><time>2024-03-23T10:45:10.000Z</time><ele>1109</ele></trkpt><trkpt lat="45.834888" lon="9.445512"><time>2024-03-23T10:45:11.000Z</time><ele>1108.8</ele></trkpt><trkpt lat="45.83488" lon="9.445519"><time>2024-03-23T10:45:12.000Z</time><ele>1108.6</ele></trkpt><trkpt lat="45.834871" lon="9.44553"><time>2024-03-23T10:45:13.000Z</time><ele>1108.6</ele></trkpt><trkpt lat="45.834863" lon="9.445539"><time>2024-03-23T10:45:14.000Z</time><ele>1108.4</ele></trkpt><trkpt lat="45.834855" lon="9.44555"><time>2024-03-23T10:45:15.000Z</time><ele>1108.2</ele></trkpt><trkpt lat="45.834846" lon="9.445558"><time>2024-03-23T10:45:16.000Z</time><ele>1108.2</ele></trkpt><trkpt lat="45.834837" lon="9.445565"><time>2024-03-23T10:45:17.000Z</time><ele>1108</ele></trkpt><trkpt lat="45.834827" lon="9.445571"><time>2024-03-23T10:45:18.000Z</time><ele>1108</ele></trkpt><trkpt lat="45.83482" lon="9.44558"><time>2024-03-23T10:45:19.000Z</time><ele>1107.8</ele></trkpt><trkpt lat="45.834812" lon="9.44559"><time>2024-03-23T10:45:20.000Z</time><ele>1107.6</ele></trkpt><trkpt lat="45.834805" lon="9.445603"><time>2024-03-23T10:45:21.000Z</time><ele>1107.6</ele></trkpt><trkpt lat="45.834795" lon="9.445616"><time>2024-03-23T10:45:22.000Z</time><ele>1107.4</ele></trkpt><trkpt lat="45.834787" lon="9.445629"><time>2024-03-23T10:45:23.000Z</time><ele>1107.4</ele></trkpt><trkpt lat="45.834779" lon="9.445641"><time>2024-03-23T10:45:24.000Z</time><ele>1107.4</ele></trkpt><trkpt lat="45.834772" lon="9.445651"><time>2024-03-23T10:45:25.000Z</time><ele>1107.2</ele></trkpt><trkpt lat="45.834767" lon="9.44566"><time>2024-03-23T10:45:26.000Z</time><ele>1107</ele></trkpt><trkpt lat="45.834762" lon="9.445668"><time>2024-03-23T10:45:27.000Z</time><ele>1106.8</ele></trkpt><trkpt lat="45.834757" lon="9.445678"><time>2024-03-23T10:45:28.000Z</time><ele>1106.6</ele></trkpt><trkpt lat="45.834749" lon="9.445687"><time>2024-03-23T10:45:29.000Z</time><ele>1106.6</ele></trkpt><trkpt lat="45.834739" lon="9.445695"><time>2024-03-23T10:45:30.000Z</time><ele>1106.4</ele></trkpt><trkpt lat="45.834732" lon="9.445707"><time>2024-03-23T10:45:31.000Z</time><ele>1106.2</ele></trkpt><trkpt lat="45.834726" lon="9.445719"><time>2024-03-23T10:45:32.000Z</time><ele>1106.2</ele></trkpt><trkpt lat="45.834717" lon="9.445725"><time>2024-03-23T10:45:33.000Z</time><ele>1106</ele></trkpt><trkpt lat="45.834708" lon="9.445732"><time>2024-03-23T10:45:34.000Z</time><ele>1105.8</ele></trkpt><trkpt lat="45.8347" lon="9.445741"><time>2024-03-23T10:45:35.000Z</time><ele>1105.6</ele></trkpt><trkpt lat="45.834692" lon="9.445747"><time>2024-03-23T10:45:36.000Z</time><ele>1105.4</ele></trkpt><trkpt lat="45.834685" lon="9.445753"><time>2024-03-23T10:45:37.000Z</time><ele>1105.2</ele></trkpt><trkpt lat="45.834678" lon="9.445756"><time>2024-03-23T10:45:38.000Z</time><ele>1105.2</ele></trkpt><trkpt lat="45.834672" lon="9.44576"><time>2024-03-23T10:45:39.000Z</time><ele>1105</ele></trkpt><trkpt lat="45.834665" lon="9.445765"><time>2024-03-23T10:45:40.000Z</time><ele>1105</ele></trkpt><trkpt lat="45.834658" lon="9.445768"><time>2024-03-23T10:45:41.000Z</time><ele>1104.8</ele></trkpt><trkpt lat="45.834653" lon="9.445776"><time>2024-03-23T10:45:42.000Z</time><ele>1104.6</ele></trkpt><trkpt lat="45.834647" lon="9.445785"><time>2024-03-23T10:45:43.000Z</time><ele>1104.6</ele></trkpt><trkpt lat="45.834641" lon="9.445794"><time>2024-03-23T10:45:44.000Z</time><ele>1104.2</ele></trkpt><trkpt lat="45.834637" lon="9.445801"><time>2024-03-23T10:45:45.000Z</time><ele>1104</ele></trkpt><trkpt lat="45.834631" lon="9.445806"><time>2024-03-23T10:45:46.000Z</time><ele>1103.8</ele></trkpt><trkpt lat="45.834626" lon="9.445812"><time>2024-03-23T10:45:47.000Z</time><ele>1103.8</ele></trkpt><trkpt lat="45.83462" lon="9.445822"><time>2024-03-23T10:45:48.000Z</time><ele>1103.6</ele></trkpt><trkpt lat="45.834614" lon="9.445833"><time>2024-03-23T10:45:49.000Z</time><ele>1103.4</ele></trkpt><trkpt lat="45.834606" lon="9.445843"><time>2024-03-23T10:45:50.000Z</time><ele>1103.2</ele></trkpt><trkpt lat="45.834599" lon="9.445855"><time>2024-03-23T10:45:51.000Z</time><ele>1103</ele></trkpt><trkpt lat="45.834592" lon="9.445868"><time>2024-03-23T10:45:52.000Z</time><ele>1102.6</ele></trkpt><trkpt lat="45.834584" lon="9.445878"><time>2024-03-23T10:45:53.000Z</time><ele>1102.6</ele></trkpt><trkpt lat="45.834578" lon="9.445888"><time>2024-03-23T10:45:54.000Z</time><ele>1102.4</ele></trkpt><trkpt lat="45.834572" lon="9.445896"><time>2024-03-23T10:45:55.000Z</time><ele>1102.2</ele></trkpt><trkpt lat="45.834566" lon="9.445902"><time>2024-03-23T10:45:56.000Z</time><ele>1102.2</ele></trkpt><trkpt lat="45.83456" lon="9.445904"><time>2024-03-23T10:45:57.000Z</time><ele>1101.8</ele></trkpt><trkpt lat="45.834554" lon="9.445903"><time>2024-03-23T10:45:58.000Z</time><ele>1101.6</ele></trkpt><trkpt lat="45.834549" lon="9.445895"><time>2024-03-23T10:45:59.000Z</time><ele>1101.4</ele></trkpt><trkpt lat="45.834545" lon="9.44588"><time>2024-03-23T10:46:00.000Z</time><ele>1101.4</ele></trkpt><trkpt lat="45.834544" lon="9.445865"><time>2024-03-23T10:46:01.000Z</time><ele>1101.2</ele></trkpt><trkpt lat="45.834541" lon="9.445849"><time>2024-03-23T10:46:02.000Z</time><ele>1101.2</ele></trkpt><trkpt lat="45.834537" lon="9.445835"><time>2024-03-23T10:46:03.000Z</time><ele>1101</ele></trkpt><trkpt lat="45.834531" lon="9.445826"><time>2024-03-23T10:46:04.000Z</time><ele>1100.8</ele></trkpt><trkpt lat="45.834526" lon="9.445822"><time>2024-03-23T10:46:05.000Z</time><ele>1100.6</ele></trkpt><trkpt lat="45.834518" lon="9.445822"><time>2024-03-23T10:46:06.000Z</time><ele>1100.4</ele></trkpt><trkpt lat="45.834512" lon="9.445822"><time>2024-03-23T10:46:07.000Z</time><ele>1100.4</ele></trkpt><trkpt lat="45.834511" lon="9.445825"><time>2024-03-23T10:46:08.000Z</time><ele>1100.2</ele></trkpt><trkpt lat="45.83451" lon="9.445831"><time>2024-03-23T10:46:09.000Z</time><ele>1100</ele></trkpt><trkpt lat="45.834503" lon="9.44583"><time>2024-03-23T10:46:10.000Z</time><ele>1100</ele></trkpt><trkpt lat="45.834497" lon="9.445831"><time>2024-03-23T10:46:11.000Z</time><ele>1099.8</ele></trkpt><trkpt lat="45.834493" lon="9.445836"><time>2024-03-23T10:46:12.000Z</time><ele>1099.8</ele></trkpt><trkpt lat="45.834491" lon="9.44584"><time>2024-03-23T10:46:13.000Z</time><ele>1099.6</ele></trkpt><trkpt lat="45.834488" lon="9.445843"><time>2024-03-23T10:46:14.000Z</time><ele>1099.2</ele></trkpt><trkpt lat="45.834485" lon="9.445849"><time>2024-03-23T10:46:15.000Z</time><ele>1099</ele></trkpt><trkpt lat="45.834483" lon="9.445852"><time>2024-03-23T10:46:16.000Z</time><ele>1098.8</ele></trkpt><trkpt lat="45.834482" lon="9.445854"><time>2024-03-23T10:46:17.000Z</time><ele>1098.6</ele></trkpt><trkpt lat="45.83448" lon="9.445854"><time>2024-03-23T10:46:18.000Z</time><ele>1098.4</ele></trkpt><trkpt lat="45.834477" lon="9.445855"><time>2024-03-23T10:46:19.000Z</time><ele>1098.2</ele></trkpt><trkpt lat="45.834474" lon="9.445857"><time>2024-03-23T10:46:20.000Z</time><ele>1098</ele></trkpt><trkpt lat="45.834471" lon="9.445863"><time>2024-03-23T10:46:21.000Z</time><ele>1097.8</ele></trkpt><trkpt lat="45.834468" lon="9.445866"><time>2024-03-23T10:46:22.000Z</time><ele>1097.6</ele></trkpt><trkpt lat="45.834465" lon="9.445868"><time>2024-03-23T10:46:23.000Z</time><ele>1097.6</ele></trkpt><trkpt lat="45.834461" lon="9.445877"><time>2024-03-23T10:46:24.000Z</time><ele>1097.4</ele></trkpt><trkpt lat="45.834458" lon="9.445888"><time>2024-03-23T10:46:25.000Z</time><ele>1097.2</ele></trkpt><trkpt lat="45.834459" lon="9.445899"><time>2024-03-23T10:46:26.000Z</time><ele>1097</ele></trkpt><trkpt lat="45.834465" lon="9.445909"><time>2024-03-23T10:46:27.000Z</time><ele>1096.6</ele></trkpt><trkpt lat="45.834465" lon="9.44592"><time>2024-03-23T10:46:28.000Z</time><ele>1096.4</ele></trkpt><trkpt lat="45.834466" lon="9.445927"><time>2024-03-23T10:46:29.000Z</time><ele>1096</ele></trkpt><trkpt lat="45.834465" lon="9.445931"><time>2024-03-23T10:46:30.000Z</time><ele>1096</ele></trkpt><trkpt lat="45.834464" lon="9.445936"><time>2024-03-23T10:46:31.000Z</time><ele>1095.8</ele></trkpt><trkpt lat="45.834461" lon="9.445941"><time>2024-03-23T10:46:32.000Z</time><ele>1095.6</ele></trkpt><trkpt lat="45.83446" lon="9.445946"><time>2024-03-23T10:46:33.000Z</time><ele>1095.2</ele></trkpt><trkpt lat="45.834459" lon="9.445948"><time>2024-03-23T10:46:34.000Z</time><ele>1095.2</ele></trkpt><trkpt lat="45.834458" lon="9.445952"><time>2024-03-23T10:46:35.000Z</time><ele>1095</ele></trkpt><trkpt lat="45.834457" lon="9.445954"><time>2024-03-23T10:46:36.000Z</time><ele>1095.2</ele></trkpt><trkpt lat="45.834455" lon="9.445955"><time>2024-03-23T10:46:37.000Z</time><ele>1095.2</ele></trkpt><trkpt lat="45.834451" lon="9.445955"><time>2024-03-23T10:46:38.000Z</time><ele>1095.2</ele></trkpt><trkpt lat="45.834449" lon="9.445957"><time>2024-03-23T10:46:39.000Z</time><ele>1095.2</ele></trkpt><trkpt lat="45.834447" lon="9.445956"><time>2024-03-23T10:46:40.000Z</time><ele>1095.2</ele></trkpt><trkpt lat="45.834445" lon="9.445957"><time>2024-03-23T10:46:41.000Z</time><ele>1095</ele></trkpt><trkpt lat="45.834438" lon="9.445959"><time>2024-03-23T10:46:42.000Z</time><ele>1094.8</ele></trkpt><trkpt lat="45.834433" lon="9.445966"><time>2024-03-23T10:46:43.000Z</time><ele>1094.6</ele></trkpt><trkpt lat="45.834427" lon="9.445975"><time>2024-03-23T10:46:44.000Z</time><ele>1094.4</ele></trkpt><trkpt lat="45.83442" lon="9.445986"><time>2024-03-23T10:46:45.000Z</time><ele>1094.2</ele></trkpt><trkpt lat="45.834414" lon="9.445996"><time>2024-03-23T10:46:46.000Z</time><ele>1093.8</ele></trkpt><trkpt lat="45.834407" lon="9.446004"><time>2024-03-23T10:46:47.000Z</time><ele>1093.6</ele></trkpt><trkpt lat="45.834403" lon="9.446013"><time>2024-03-23T10:46:48.000Z</time><ele>1093.4</ele></trkpt><trkpt lat="45.834399" lon="9.44602"><time>2024-03-23T10:46:49.000Z</time><ele>1093.2</ele></trkpt><trkpt lat="45.834397" lon="9.446026"><time>2024-03-23T10:46:50.000Z</time><ele>1093.2</ele></trkpt><trkpt lat="45.834395" lon="9.446032"><time>2024-03-23T10:46:51.000Z</time><ele>1093</ele></trkpt><trkpt lat="45.834392" lon="9.44604"><time>2024-03-23T10:46:52.000Z</time><ele>1092.8</ele></trkpt><trkpt lat="45.83439" lon="9.44605"><time>2024-03-23T10:46:53.000Z</time><ele>1092.8</ele></trkpt><trkpt lat="45.834386" lon="9.446056"><time>2024-03-23T10:46:54.000Z</time><ele>1092.6</ele></trkpt><trkpt lat="45.834378" lon="9.446061"><time>2024-03-23T10:46:55.000Z</time><ele>1092.6</ele></trkpt><trkpt lat="45.834371" lon="9.446065"><time>2024-03-23T10:46:56.000Z</time><ele>1092.4</ele></trkpt><trkpt lat="45.834363" lon="9.446072"><time>2024-03-23T10:46:57.000Z</time><ele>1092.2</ele></trkpt><trkpt lat="45.834354" lon="9.446079"><time>2024-03-23T10:46:58.000Z</time><ele>1092</ele></trkpt><trkpt lat="45.834347" lon="9.446086"><time>2024-03-23T10:46:59.000Z</time><ele>1091.8</ele></trkpt><trkpt lat="45.834342" lon="9.446093"><time>2024-03-23T10:47:00.000Z</time><ele>1091.6</ele></trkpt><trkpt lat="45.834337" lon="9.446097"><time>2024-03-23T10:47:01.000Z</time><ele>1091.4</ele></trkpt><trkpt lat="45.834331" lon="9.446102"><time>2024-03-23T10:47:02.000Z</time><ele>1091.2</ele></trkpt><trkpt lat="45.834326" lon="9.446102"><time>2024-03-23T10:47:03.000Z</time><ele>1091.2</ele></trkpt><trkpt lat="45.834319" lon="9.446102"><time>2024-03-23T10:47:04.000Z</time><ele>1091.2</ele></trkpt><trkpt lat="45.834314" lon="9.446111"><time>2024-03-23T10:47:05.000Z</time><ele>1091</ele></trkpt><trkpt lat="45.834307" lon="9.446117"><time>2024-03-23T10:47:06.000Z</time><ele>1091</ele></trkpt><trkpt lat="45.834302" lon="9.446123"><time>2024-03-23T10:47:07.000Z</time><ele>1091</ele></trkpt><trkpt lat="45.8343" lon="9.446128"><time>2024-03-23T10:47:08.000Z</time><ele>1090.6</ele></trkpt><trkpt lat="45.834297" lon="9.446132"><time>2024-03-23T10:47:09.000Z</time><ele>1090.4</ele></trkpt><trkpt lat="45.834292" lon="9.446136"><time>2024-03-23T10:47:10.000Z</time><ele>1090.2</ele></trkpt><trkpt lat="45.834285" lon="9.446141"><time>2024-03-23T10:47:11.000Z</time><ele>1090</ele></trkpt><trkpt lat="45.834275" lon="9.446143"><time>2024-03-23T10:47:12.000Z</time><ele>1090</ele></trkpt><trkpt lat="45.834266" lon="9.446146"><time>2024-03-23T10:47:13.000Z</time><ele>1089.8</ele></trkpt><trkpt lat="45.834259" lon="9.446152"><time>2024-03-23T10:47:14.000Z</time><ele>1089.4</ele></trkpt><trkpt lat="45.834251" lon="9.446156"><time>2024-03-23T10:47:15.000Z</time><ele>1089</ele></trkpt><trkpt lat="45.834243" lon="9.446162"><time>2024-03-23T10:47:16.000Z</time><ele>1088.8</ele></trkpt><trkpt lat="45.834237" lon="9.44617"><time>2024-03-23T10:47:17.000Z</time><ele>1088.6</ele></trkpt><trkpt lat="45.834228" lon="9.446179"><time>2024-03-23T10:47:18.000Z</time><ele>1088.4</ele></trkpt><trkpt lat="45.83422" lon="9.446187"><time>2024-03-23T10:47:19.000Z</time><ele>1088.4</ele></trkpt><trkpt lat="45.834212" lon="9.446197"><time>2024-03-23T10:47:20.000Z</time><ele>1088.2</ele></trkpt><trkpt lat="45.834203" lon="9.446206"><time>2024-03-23T10:47:21.000Z</time><ele>1088.2</ele></trkpt><trkpt lat="45.834196" lon="9.446216"><time>2024-03-23T10:47:22.000Z</time><ele>1088</ele></trkpt><trkpt lat="45.834187" lon="9.446223"><time>2024-03-23T10:47:23.000Z</time><ele>1088</ele></trkpt><trkpt lat="45.834179" lon="9.446228"><time>2024-03-23T10:47:24.000Z</time><ele>1087.8</ele></trkpt><trkpt lat="45.834171" lon="9.446229"><time>2024-03-23T10:47:25.000Z</time><ele>1087.8</ele></trkpt><trkpt lat="45.834163" lon="9.446229"><time>2024-03-23T10:47:26.000Z</time><ele>1087.6</ele></trkpt><trkpt lat="45.834154" lon="9.446225"><time>2024-03-23T10:47:27.000Z</time><ele>1087.4</ele></trkpt><trkpt lat="45.83415" lon="9.446227"><time>2024-03-23T10:47:28.000Z</time><ele>1087.4</ele></trkpt><trkpt lat="45.834144" lon="9.446228"><time>2024-03-23T10:47:29.000Z</time><ele>1087.2</ele></trkpt><trkpt lat="45.834138" lon="9.446225"><time>2024-03-23T10:47:30.000Z</time><ele>1087.2</ele></trkpt><trkpt lat="45.834132" lon="9.44622"><time>2024-03-23T10:47:31.000Z</time><ele>1087</ele></trkpt><trkpt lat="45.834125" lon="9.446215"><time>2024-03-23T10:47:32.000Z</time><ele>1086.8</ele></trkpt><trkpt lat="45.834116" lon="9.446209"><time>2024-03-23T10:47:33.000Z</time><ele>1086.6</ele></trkpt><trkpt lat="45.834106" lon="9.446206"><time>2024-03-23T10:47:34.000Z</time><ele>1086.4</ele></trkpt><trkpt lat="45.834098" lon="9.446207"><time>2024-03-23T10:47:35.000Z</time><ele>1086.2</ele></trkpt><trkpt lat="45.834093" lon="9.446209"><time>2024-03-23T10:47:36.000Z</time><ele>1086</ele></trkpt><trkpt lat="45.834089" lon="9.446208"><time>2024-03-23T10:47:37.000Z</time><ele>1085.8</ele></trkpt><trkpt lat="45.834081" lon="9.446207"><time>2024-03-23T10:47:38.000Z</time><ele>1085.8</ele></trkpt><trkpt lat="45.834071" lon="9.446211"><time>2024-03-23T10:47:39.000Z</time><ele>1085.6</ele></trkpt><trkpt lat="45.834065" lon="9.44622"><time>2024-03-23T10:47:40.000Z</time><ele>1085.4</ele></trkpt><trkpt lat="45.83406" lon="9.446229"><time>2024-03-23T10:47:41.000Z</time><ele>1085.2</ele></trkpt><trkpt lat="45.834056" lon="9.446236"><time>2024-03-23T10:47:42.000Z</time><ele>1085</ele></trkpt><trkpt lat="45.834049" lon="9.446242"><time>2024-03-23T10:47:43.000Z</time><ele>1084.8</ele></trkpt><trkpt lat="45.834045" lon="9.446249"><time>2024-03-23T10:47:44.000Z</time><ele>1084.6</ele></trkpt><trkpt lat="45.834041" lon="9.446263"><time>2024-03-23T10:47:45.000Z</time><ele>1084.4</ele></trkpt><trkpt lat="45.834039" lon="9.446279"><time>2024-03-23T10:47:46.000Z</time><ele>1084.2</ele></trkpt><trkpt lat="45.834036" lon="9.446292"><time>2024-03-23T10:47:47.000Z</time><ele>1084</ele></trkpt><trkpt lat="45.834033" lon="9.446302"><time>2024-03-23T10:47:48.000Z</time><ele>1084</ele></trkpt><trkpt lat="45.834031" lon="9.446308"><time>2024-03-23T10:47:49.000Z</time><ele>1083.8</ele></trkpt><trkpt lat="45.83403" lon="9.446316"><time>2024-03-23T10:47:50.000Z</time><ele>1083.6</ele></trkpt><trkpt lat="45.834029" lon="9.446322"><time>2024-03-23T10:47:51.000Z</time><ele>1083.4</ele></trkpt><trkpt lat="45.834027" lon="9.446327"><time>2024-03-23T10:47:52.000Z</time><ele>1083.2</ele></trkpt><trkpt lat="45.834022" lon="9.44633"><time>2024-03-23T10:47:53.000Z</time><ele>1083</ele></trkpt><trkpt lat="45.834016" lon="9.446334"><time>2024-03-23T10:47:54.000Z</time><ele>1082.8</ele></trkpt><trkpt lat="45.834012" lon="9.446341"><time>2024-03-23T10:47:55.000Z</time><ele>1082.8</ele></trkpt><trkpt lat="45.834011" lon="9.44635"><time>2024-03-23T10:47:56.000Z</time><ele>1082.4</ele></trkpt><trkpt lat="45.834006" lon="9.446364"><time>2024-03-23T10:47:57.000Z</time><ele>1082</ele></trkpt><trkpt lat="45.834002" lon="9.446375"><time>2024-03-23T10:47:58.000Z</time><ele>1081.8</ele></trkpt><trkpt lat="45.833999" lon="9.446385"><time>2024-03-23T10:47:59.000Z</time><ele>1081.6</ele></trkpt><trkpt lat="45.833999" lon="9.446394"><time>2024-03-23T10:48:00.000Z</time><ele>1081.4</ele></trkpt><trkpt lat="45.833997" lon="9.446403"><time>2024-03-23T10:48:01.000Z</time><ele>1081.2</ele></trkpt><trkpt lat="45.833995" lon="9.446411"><time>2024-03-23T10:48:02.000Z</time><ele>1080.8</ele></trkpt><trkpt lat="45.833991" lon="9.446418"><time>2024-03-23T10:48:03.000Z</time><ele>1080.8</ele></trkpt><trkpt lat="45.833988" lon="9.446426"><time>2024-03-23T10:48:04.000Z</time><ele>1080.6</ele></trkpt><trkpt lat="45.833985" lon="9.446433"><time>2024-03-23T10:48:05.000Z</time><ele>1080.4</ele></trkpt><trkpt lat="45.833981" lon="9.44644"><time>2024-03-23T10:48:06.000Z</time><ele>1080.2</ele></trkpt><trkpt lat="45.833977" lon="9.446448"><time>2024-03-23T10:48:07.000Z</time><ele>1080</ele></trkpt><trkpt lat="45.833975" lon="9.446458"><time>2024-03-23T10:48:08.000Z</time><ele>1079.8</ele></trkpt><trkpt lat="45.833973" lon="9.446462"><time>2024-03-23T10:48:09.000Z</time><ele>1079.6</ele></trkpt><trkpt lat="45.833968" lon="9.446461"><time>2024-03-23T10:48:10.000Z</time><ele>1079.6</ele></trkpt><trkpt lat="45.833963" lon="9.446463"><time>2024-03-23T10:48:11.000Z</time><ele>1079.4</ele></trkpt><trkpt lat="45.833959" lon="9.446464"><time>2024-03-23T10:48:12.000Z</time><ele>1079.4</ele></trkpt><trkpt lat="45.833954" lon="9.446462"><time>2024-03-23T10:48:13.000Z</time><ele>1079.2</ele></trkpt><trkpt lat="45.833945" lon="9.446461"><time>2024-03-23T10:48:14.000Z</time><ele>1079</ele></trkpt><trkpt lat="45.83394" lon="9.446467"><time>2024-03-23T10:48:15.000Z</time><ele>1078.8</ele></trkpt><trkpt lat="45.833937" lon="9.446476"><time>2024-03-23T10:48:16.000Z</time><ele>1078.6</ele></trkpt><trkpt lat="45.833933" lon="9.446485"><time>2024-03-23T10:48:17.000Z</time><ele>1078.4</ele></trkpt><trkpt lat="45.833928" lon="9.446491"><time>2024-03-23T10:48:18.000Z</time><ele>1078.2</ele></trkpt><trkpt lat="45.833922" lon="9.446497"><time>2024-03-23T10:48:19.000Z</time><ele>1078</ele></trkpt><trkpt lat="45.833916" lon="9.446502"><time>2024-03-23T10:48:20.000Z</time><ele>1077.6</ele></trkpt><trkpt lat="45.833912" lon="9.446507"><time>2024-03-23T10:48:21.000Z</time><ele>1077.6</ele></trkpt><trkpt lat="45.833907" lon="9.446511"><time>2024-03-23T10:48:22.000Z</time><ele>1077.4</ele></trkpt><trkpt lat="45.833904" lon="9.446519"><time>2024-03-23T10:48:23.000Z</time><ele>1077.2</ele></trkpt><trkpt lat="45.8339" lon="9.446527"><time>2024-03-23T10:48:24.000Z</time><ele>1077</ele></trkpt><trkpt lat="45.833894" lon="9.446536"><time>2024-03-23T10:48:25.000Z</time><ele>1076.8</ele></trkpt><trkpt lat="45.833886" lon="9.446544"><time>2024-03-23T10:48:26.000Z</time><ele>1076.6</ele></trkpt><trkpt lat="45.833881" lon="9.446554"><time>2024-03-23T10:48:27.000Z</time><ele>1076.4</ele></trkpt><trkpt lat="45.833875" lon="9.446563"><time>2024-03-23T10:48:28.000Z</time><ele>1076.2</ele></trkpt><trkpt lat="45.833864" lon="9.446572"><time>2024-03-23T10:48:29.000Z</time><ele>1076</ele></trkpt><trkpt lat="45.833857" lon="9.446579"><time>2024-03-23T10:48:30.000Z</time><ele>1076</ele></trkpt><trkpt lat="45.83385" lon="9.44659"><time>2024-03-23T10:48:31.000Z</time><ele>1075.8</ele></trkpt><trkpt lat="45.83384" lon="9.4466"><time>2024-03-23T10:48:32.000Z</time><ele>1075.6</ele></trkpt><trkpt lat="45.833833" lon="9.446607"><time>2024-03-23T10:48:33.000Z</time><ele>1075.6</ele></trkpt><trkpt lat="45.833824" lon="9.446617"><time>2024-03-23T10:48:34.000Z</time><ele>1075.4</ele></trkpt><trkpt lat="45.833817" lon="9.446629"><time>2024-03-23T10:48:35.000Z</time><ele>1075.2</ele></trkpt><trkpt lat="45.83381" lon="9.446639"><time>2024-03-23T10:48:36.000Z</time><ele>1075</ele></trkpt><trkpt lat="45.833802" lon="9.446648"><time>2024-03-23T10:48:37.000Z</time><ele>1074.8</ele></trkpt><trkpt lat="45.833794" lon="9.446654"><time>2024-03-23T10:48:38.000Z</time><ele>1074.8</ele></trkpt><trkpt lat="45.833786" lon="9.446663"><time>2024-03-23T10:48:39.000Z</time><ele>1074.6</ele></trkpt><trkpt lat="45.833776" lon="9.446671"><time>2024-03-23T10:48:40.000Z</time><ele>1074.6</ele></trkpt><trkpt lat="45.833768" lon="9.446679"><time>2024-03-23T10:48:41.000Z</time><ele>1074.4</ele></trkpt><trkpt lat="45.833759" lon="9.446685"><time>2024-03-23T10:48:42.000Z</time><ele>1074.4</ele></trkpt><trkpt lat="45.833752" lon="9.446693"><time>2024-03-23T10:48:43.000Z</time><ele>1074.2</ele></trkpt><trkpt lat="45.833739" lon="9.446696"><time>2024-03-23T10:48:44.000Z</time><ele>1074</ele></trkpt><trkpt lat="45.833731" lon="9.446703"><time>2024-03-23T10:48:45.000Z</time><ele>1073.8</ele></trkpt><trkpt lat="45.833722" lon="9.446707"><time>2024-03-23T10:48:46.000Z</time><ele>1073.6</ele></trkpt><trkpt lat="45.833713" lon="9.446708"><time>2024-03-23T10:48:47.000Z</time><ele>1073.6</ele></trkpt><trkpt lat="45.833707" lon="9.446713"><time>2024-03-23T10:48:48.000Z</time><ele>1073.4</ele></trkpt><trkpt lat="45.833701" lon="9.44671"><time>2024-03-23T10:48:49.000Z</time><ele>1073.2</ele></trkpt><trkpt lat="45.833694" lon="9.446704"><time>2024-03-23T10:48:50.000Z</time><ele>1073</ele></trkpt><trkpt lat="45.833686" lon="9.4467"><time>2024-03-23T10:48:51.000Z</time><ele>1072.8</ele></trkpt><trkpt lat="45.833676" lon="9.446697"><time>2024-03-23T10:48:52.000Z</time><ele>1072.8</ele></trkpt><trkpt lat="45.833666" lon="9.446701"><time>2024-03-23T10:48:53.000Z</time><ele>1072.6</ele></trkpt><trkpt lat="45.833654" lon="9.446706"><time>2024-03-23T10:48:54.000Z</time><ele>1072.4</ele></trkpt><trkpt lat="45.833645" lon="9.446709"><time>2024-03-23T10:48:55.000Z</time><ele>1072.4</ele></trkpt><trkpt lat="45.833638" lon="9.446713"><time>2024-03-23T10:48:56.000Z</time><ele>1072.2</ele></trkpt><trkpt lat="45.833632" lon="9.446712"><time>2024-03-23T10:48:57.000Z</time><ele>1072</ele></trkpt><trkpt lat="45.833627" lon="9.446715"><time>2024-03-23T10:48:58.000Z</time><ele>1071.8</ele></trkpt><trkpt lat="45.833624" lon="9.446717"><time>2024-03-23T10:48:59.000Z</time><ele>1071.6</ele></trkpt><trkpt lat="45.83362" lon="9.446716"><time>2024-03-23T10:49:00.000Z</time><ele>1071.6</ele></trkpt><trkpt lat="45.833617" lon="9.446716"><time>2024-03-23T10:49:01.000Z</time><ele>1071.4</ele></trkpt><trkpt lat="45.833614" lon="9.446717"><time>2024-03-23T10:49:02.000Z</time><ele>1071.2</ele></trkpt><trkpt lat="45.833607" lon="9.44672"><time>2024-03-23T10:49:03.000Z</time><ele>1071</ele></trkpt><trkpt lat="45.8336" lon="9.446723"><time>2024-03-23T10:49:04.000Z</time><ele>1070.8</ele></trkpt><trkpt lat="45.833592" lon="9.446727"><time>2024-03-23T10:49:05.000Z</time><ele>1070.6</ele></trkpt><trkpt lat="45.833586" lon="9.44673"><time>2024-03-23T10:49:06.000Z</time><ele>1070.4</ele></trkpt><trkpt lat="45.833581" lon="9.446731"><time>2024-03-23T10:49:07.000Z</time><ele>1070.2</ele></trkpt><trkpt lat="45.833573" lon="9.446737"><time>2024-03-23T10:49:08.000Z</time><ele>1070</ele></trkpt><trkpt lat="45.833571" lon="9.446748"><time>2024-03-23T10:49:09.000Z</time><ele>1069.8</ele></trkpt><trkpt lat="45.833564" lon="9.446756"><time>2024-03-23T10:49:10.000Z</time><ele>1069.6</ele></trkpt><trkpt lat="45.833557" lon="9.44676"><time>2024-03-23T10:49:11.000Z</time><ele>1069.4</ele></trkpt><trkpt lat="45.83355" lon="9.446759"><time>2024-03-23T10:49:12.000Z</time><ele>1069.4</ele></trkpt><trkpt lat="45.833542" lon="9.446759"><time>2024-03-23T10:49:13.000Z</time><ele>1069.2</ele></trkpt><trkpt lat="45.833533" lon="9.446762"><time>2024-03-23T10:49:14.000Z</time><ele>1069</ele></trkpt><trkpt lat="45.833523" lon="9.446762"><time>2024-03-23T10:49:15.000Z</time><ele>1068.8</ele></trkpt><trkpt lat="45.833516" lon="9.446766"><time>2024-03-23T10:49:16.000Z</time><ele>1068.6</ele></trkpt><trkpt lat="45.833507" lon="9.446767"><time>2024-03-23T10:49:17.000Z</time><ele>1068.4</ele></trkpt><trkpt lat="45.833499" lon="9.446766"><time>2024-03-23T10:49:18.000Z</time><ele>1068.4</ele></trkpt><trkpt lat="45.833492" lon="9.446771"><time>2024-03-23T10:49:19.000Z</time><ele>1068.2</ele></trkpt><trkpt lat="45.833484" lon="9.446772"><time>2024-03-23T10:49:20.000Z</time><ele>1068</ele></trkpt><trkpt lat="45.833474" lon="9.44677"><time>2024-03-23T10:49:21.000Z</time><ele>1067.8</ele></trkpt><trkpt lat="45.833465" lon="9.446769"><time>2024-03-23T10:49:22.000Z</time><ele>1067.6</ele></trkpt><trkpt lat="45.833457" lon="9.446767"><time>2024-03-23T10:49:23.000Z</time><ele>1067.4</ele></trkpt><trkpt lat="45.83345" lon="9.446763"><time>2024-03-23T10:49:24.000Z</time><ele>1067.4</ele></trkpt><trkpt lat="45.833441" lon="9.446757"><time>2024-03-23T10:49:25.000Z</time><ele>1067.4</ele></trkpt><trkpt lat="45.83343" lon="9.446751"><time>2024-03-23T10:49:26.000Z</time><ele>1067</ele></trkpt><trkpt lat="45.833418" lon="9.446746"><time>2024-03-23T10:49:27.000Z</time><ele>1066.8</ele></trkpt><trkpt lat="45.833408" lon="9.446743"><time>2024-03-23T10:49:28.000Z</time><ele>1066.6</ele></trkpt><trkpt lat="45.833396" lon="9.446737"><time>2024-03-23T10:49:29.000Z</time><ele>1066.4</ele></trkpt><trkpt lat="45.833388" lon="9.446738"><time>2024-03-23T10:49:30.000Z</time><ele>1066.2</ele></trkpt><trkpt lat="45.833381" lon="9.446737"><time>2024-03-23T10:49:31.000Z</time><ele>1066.2</ele></trkpt><trkpt lat="45.833375" lon="9.446736"><time>2024-03-23T10:49:32.000Z</time><ele>1066</ele></trkpt><trkpt lat="45.833367" lon="9.446733"><time>2024-03-23T10:49:33.000Z</time><ele>1065.8</ele></trkpt><trkpt lat="45.833359" lon="9.446732"><time>2024-03-23T10:49:34.000Z</time><ele>1065.6</ele></trkpt><trkpt lat="45.83335" lon="9.446726"><time>2024-03-23T10:49:35.000Z</time><ele>1065.6</ele></trkpt><trkpt lat="45.83334" lon="9.446726"><time>2024-03-23T10:49:36.000Z</time><ele>1065.2</ele></trkpt><trkpt lat="45.833329" lon="9.446728"><time>2024-03-23T10:49:37.000Z</time><ele>1065</ele></trkpt><trkpt lat="45.833318" lon="9.446725"><time>2024-03-23T10:49:38.000Z</time><ele>1065</ele></trkpt><trkpt lat="45.833309" lon="9.446724"><time>2024-03-23T10:49:39.000Z</time><ele>1064.8</ele></trkpt><trkpt lat="45.833299" lon="9.446723"><time>2024-03-23T10:49:40.000Z</time><ele>1064.6</ele></trkpt><trkpt lat="45.833291" lon="9.446728"><time>2024-03-23T10:49:41.000Z</time><ele>1064.4</ele></trkpt><trkpt lat="45.833285" lon="9.446738"><time>2024-03-23T10:49:42.000Z</time><ele>1064.4</ele></trkpt><trkpt lat="45.833277" lon="9.446744"><time>2024-03-23T10:49:43.000Z</time><ele>1064.2</ele></trkpt><trkpt lat="45.833268" lon="9.44675"><time>2024-03-23T10:49:44.000Z</time><ele>1064</ele></trkpt><trkpt lat="45.83326" lon="9.446752"><time>2024-03-23T10:49:45.000Z</time><ele>1063.8</ele></trkpt><trkpt lat="45.833251" lon="9.446751"><time>2024-03-23T10:49:46.000Z</time><ele>1063.6</ele></trkpt><trkpt lat="45.833243" lon="9.44675"><time>2024-03-23T10:49:47.000Z</time><ele>1063.4</ele></trkpt><trkpt lat="45.833237" lon="9.44675"><time>2024-03-23T10:49:48.000Z</time><ele>1063.2</ele></trkpt><trkpt lat="45.833229" lon="9.446747"><time>2024-03-23T10:49:49.000Z</time><ele>1063</ele></trkpt><trkpt lat="45.833223" lon="9.446747"><time>2024-03-23T10:49:50.000Z</time><ele>1062.8</ele></trkpt><trkpt lat="45.833215" lon="9.446746"><time>2024-03-23T10:49:51.000Z</time><ele>1062.8</ele></trkpt><trkpt lat="45.833205" lon="9.446745"><time>2024-03-23T10:49:52.000Z</time><ele>1062.6</ele></trkpt><trkpt lat="45.833192" lon="9.446742"><time>2024-03-23T10:49:53.000Z</time><ele>1062.4</ele></trkpt><trkpt lat="45.833182" lon="9.446743"><time>2024-03-23T10:49:54.000Z</time><ele>1062.4</ele></trkpt><trkpt lat="45.833175" lon="9.446748"><time>2024-03-23T10:49:55.000Z</time><ele>1062</ele></trkpt><trkpt lat="45.833168" lon="9.446754"><time>2024-03-23T10:49:56.000Z</time><ele>1062</ele></trkpt><trkpt lat="45.833159" lon="9.446756"><time>2024-03-23T10:49:57.000Z</time><ele>1061.8</ele></trkpt><trkpt lat="45.833146" lon="9.446758"><time>2024-03-23T10:49:58.000Z</time><ele>1061.6</ele></trkpt><trkpt lat="45.833138" lon="9.446762"><time>2024-03-23T10:49:59.000Z</time><ele>1061.6</ele></trkpt><trkpt lat="45.833132" lon="9.44677"><time>2024-03-23T10:50:00.000Z</time><ele>1061.2</ele></trkpt><trkpt lat="45.833126" lon="9.446776"><time>2024-03-23T10:50:01.000Z</time><ele>1061</ele></trkpt><trkpt lat="45.833119" lon="9.446777"><time>2024-03-23T10:50:02.000Z</time><ele>1060.8</ele></trkpt><trkpt lat="45.833111" lon="9.446777"><time>2024-03-23T10:50:03.000Z</time><ele>1060.6</ele></trkpt><trkpt lat="45.833101" lon="9.446778"><time>2024-03-23T10:50:04.000Z</time><ele>1060.4</ele></trkpt><trkpt lat="45.833091" lon="9.446776"><time>2024-03-23T10:50:05.000Z</time><ele>1060.4</ele></trkpt><trkpt lat="45.833081" lon="9.446777"><time>2024-03-23T10:50:06.000Z</time><ele>1060</ele></trkpt><trkpt lat="45.833071" lon="9.44678"><time>2024-03-23T10:50:07.000Z</time><ele>1059.8</ele></trkpt><trkpt lat="45.833056" lon="9.446778"><time>2024-03-23T10:50:08.000Z</time><ele>1059.6</ele></trkpt><trkpt lat="45.833046" lon="9.446782"><time>2024-03-23T10:50:09.000Z</time><ele>1059.4</ele></trkpt><trkpt lat="45.833038" lon="9.446787"><time>2024-03-23T10:50:10.000Z</time><ele>1059.2</ele></trkpt><trkpt lat="45.833031" lon="9.44679"><time>2024-03-23T10:50:11.000Z</time><ele>1059</ele></trkpt><trkpt lat="45.833023" lon="9.44679"><time>2024-03-23T10:50:12.000Z</time><ele>1058.8</ele></trkpt><trkpt lat="45.833013" lon="9.446789"><time>2024-03-23T10:50:13.000Z</time><ele>1058.8</ele></trkpt><trkpt lat="45.833002" lon="9.446791"><time>2024-03-23T10:50:14.000Z</time><ele>1058.6</ele></trkpt><trkpt lat="45.832993" lon="9.446793"><time>2024-03-23T10:50:15.000Z</time><ele>1058.6</ele></trkpt><trkpt lat="45.832984" lon="9.446793"><time>2024-03-23T10:50:16.000Z</time><ele>1058.2</ele></trkpt><trkpt lat="45.832973" lon="9.446789"><time>2024-03-23T10:50:17.000Z</time><ele>1058</ele></trkpt><trkpt lat="45.832963" lon="9.446788"><time>2024-03-23T10:50:18.000Z</time><ele>1057.8</ele></trkpt><trkpt lat="45.832955" lon="9.446789"><time>2024-03-23T10:50:19.000Z</time><ele>1057.6</ele></trkpt><trkpt lat="45.832949" lon="9.446794"><time>2024-03-23T10:50:20.000Z</time><ele>1057.4</ele></trkpt><trkpt lat="45.832944" lon="9.446802"><time>2024-03-23T10:50:21.000Z</time><ele>1057.2</ele></trkpt><trkpt lat="45.832937" lon="9.446806"><time>2024-03-23T10:50:22.000Z</time><ele>1057.2</ele></trkpt><trkpt lat="45.832931" lon="9.446805"><time>2024-03-23T10:50:23.000Z</time><ele>1057</ele></trkpt><trkpt lat="45.832924" lon="9.446806"><time>2024-03-23T10:50:24.000Z</time><ele>1056.6</ele></trkpt><trkpt lat="45.832918" lon="9.446806"><time>2024-03-23T10:50:25.000Z</time><ele>1056.4</ele></trkpt><trkpt lat="45.832911" lon="9.446807"><time>2024-03-23T10:50:26.000Z</time><ele>1056.2</ele></trkpt><trkpt lat="45.832906" lon="9.446804"><time>2024-03-23T10:50:27.000Z</time><ele>1056</ele></trkpt><trkpt lat="45.832904" lon="9.446802"><time>2024-03-23T10:50:28.000Z</time><ele>1056</ele></trkpt><trkpt lat="45.832899" lon="9.4468"><time>2024-03-23T10:50:29.000Z</time><ele>1055.8</ele></trkpt><trkpt lat="45.832897" lon="9.446794"><time>2024-03-23T10:50:30.000Z</time><ele>1055.6</ele></trkpt><trkpt lat="45.832893" lon="9.44679"><time>2024-03-23T10:50:31.000Z</time><ele>1055.4</ele></trkpt><trkpt lat="45.832889" lon="9.446789"><time>2024-03-23T10:50:32.000Z</time><ele>1055.4</ele></trkpt><trkpt lat="45.832885" lon="9.44679"><time>2024-03-23T10:50:33.000Z</time><ele>1055.2</ele></trkpt><trkpt lat="45.832878" lon="9.446792"><time>2024-03-23T10:50:34.000Z</time><ele>1055</ele></trkpt><trkpt lat="45.832871" lon="9.446792"><time>2024-03-23T10:50:35.000Z</time><ele>1054.8</ele></trkpt><trkpt lat="45.832865" lon="9.446787"><time>2024-03-23T10:50:36.000Z</time><ele>1054.6</ele></trkpt><trkpt lat="45.83286" lon="9.446783"><time>2024-03-23T10:50:37.000Z</time><ele>1054.4</ele></trkpt><trkpt lat="45.832853" lon="9.446779"><time>2024-03-23T10:50:38.000Z</time><ele>1054.2</ele></trkpt><trkpt lat="45.832847" lon="9.446777"><time>2024-03-23T10:50:39.000Z</time><ele>1054.2</ele></trkpt><trkpt lat="45.83284" lon="9.446773"><time>2024-03-23T10:50:40.000Z</time><ele>1054</ele></trkpt><trkpt lat="45.832835" lon="9.44677"><time>2024-03-23T10:50:41.000Z</time><ele>1054</ele></trkpt><trkpt lat="45.83283" lon="9.446768"><time>2024-03-23T10:50:42.000Z</time><ele>1053.8</ele></trkpt><trkpt lat="45.832823" lon="9.446766"><time>2024-03-23T10:50:43.000Z</time><ele>1053.6</ele></trkpt><trkpt lat="45.832816" lon="9.446763"><time>2024-03-23T10:50:44.000Z</time><ele>1053.6</ele></trkpt><trkpt lat="45.83281" lon="9.446758"><time>2024-03-23T10:50:45.000Z</time><ele>1053.4</ele></trkpt><trkpt lat="45.832804" lon="9.446758"><time>2024-03-23T10:50:46.000Z</time><ele>1053.2</ele></trkpt><trkpt lat="45.832801" lon="9.446759"><time>2024-03-23T10:50:47.000Z</time><ele>1053.2</ele></trkpt><trkpt lat="45.832799" lon="9.446758"><time>2024-03-23T10:50:48.000Z</time><ele>1053</ele></trkpt><trkpt lat="45.832795" lon="9.446756"><time>2024-03-23T10:50:49.000Z</time><ele>1052.6</ele></trkpt><trkpt lat="45.832788" lon="9.446752"><time>2024-03-23T10:50:50.000Z</time><ele>1052.4</ele></trkpt><trkpt lat="45.832783" lon="9.446752"><time>2024-03-23T10:50:51.000Z</time><ele>1052</ele></trkpt><trkpt lat="45.83278" lon="9.446757"><time>2024-03-23T10:50:52.000Z</time><ele>1051.8</ele></trkpt><trkpt lat="45.832777" lon="9.44676"><time>2024-03-23T10:50:53.000Z</time><ele>1051.6</ele></trkpt><trkpt lat="45.832774" lon="9.446762"><time>2024-03-23T10:50:54.000Z</time><ele>1051.4</ele></trkpt><trkpt lat="45.832769" lon="9.446758"><time>2024-03-23T10:50:55.000Z</time><ele>1051.4</ele></trkpt><trkpt lat="45.832768" lon="9.446754"><time>2024-03-23T10:50:56.000Z</time><ele>1051.2</ele></trkpt><trkpt lat="45.832766" lon="9.446751"><time>2024-03-23T10:50:57.000Z</time><ele>1051</ele></trkpt><trkpt lat="45.832763" lon="9.446747"><time>2024-03-23T10:50:58.000Z</time><ele>1051</ele></trkpt><trkpt lat="45.832757" lon="9.446739"><time>2024-03-23T10:50:59.000Z</time><ele>1050.8</ele></trkpt><trkpt lat="45.832754" lon="9.446734"><time>2024-03-23T10:51:00.000Z</time><ele>1050.6</ele></trkpt><trkpt lat="45.832748" lon="9.446731"><time>2024-03-23T10:51:01.000Z</time><ele>1050.4</ele></trkpt><trkpt lat="45.832741" lon="9.446729"><time>2024-03-23T10:51:02.000Z</time><ele>1050.4</ele></trkpt><trkpt lat="45.832734" lon="9.446728"><time>2024-03-23T10:51:03.000Z</time><ele>1050</ele></trkpt><trkpt lat="45.832729" lon="9.446732"><time>2024-03-23T10:51:04.000Z</time><ele>1049.8</ele></trkpt><trkpt lat="45.832722" lon="9.446736"><time>2024-03-23T10:51:05.000Z</time><ele>1049.6</ele></trkpt><trkpt lat="45.832715" lon="9.446739"><time>2024-03-23T10:51:06.000Z</time><ele>1049.4</ele></trkpt><trkpt lat="45.83271" lon="9.446743"><time>2024-03-23T10:51:07.000Z</time><ele>1049.2</ele></trkpt><trkpt lat="45.832706" lon="9.446748"><time>2024-03-23T10:51:08.000Z</time><ele>1049</ele></trkpt><trkpt lat="45.832702" lon="9.446751"><time>2024-03-23T10:51:09.000Z</time><ele>1048.8</ele></trkpt><trkpt lat="45.832699" lon="9.446756"><time>2024-03-23T10:51:10.000Z</time><ele>1048.6</ele></trkpt><trkpt lat="45.832696" lon="9.446762"><time>2024-03-23T10:51:11.000Z</time><ele>1048.4</ele></trkpt><trkpt lat="45.832691" lon="9.446766"><time>2024-03-23T10:51:12.000Z</time><ele>1048.4</ele></trkpt><trkpt lat="45.832686" lon="9.446772"><time>2024-03-23T10:51:13.000Z</time><ele>1048.2</ele></trkpt><trkpt lat="45.832682" lon="9.44678"><time>2024-03-23T10:51:14.000Z</time><ele>1048</ele></trkpt><trkpt lat="45.832682" lon="9.446788"><time>2024-03-23T10:51:15.000Z</time><ele>1048</ele></trkpt><trkpt lat="45.832682" lon="9.446798"><time>2024-03-23T10:51:16.000Z</time><ele>1047.8</ele></trkpt><trkpt lat="45.83268" lon="9.446806"><time>2024-03-23T10:51:17.000Z</time><ele>1047.6</ele></trkpt><trkpt lat="45.832679" lon="9.44681"><time>2024-03-23T10:51:18.000Z</time><ele>1047.4</ele></trkpt><trkpt lat="45.832675" lon="9.446808"><time>2024-03-23T10:51:19.000Z</time><ele>1047.2</ele></trkpt><trkpt lat="45.832668" lon="9.446806"><time>2024-03-23T10:51:20.000Z</time><ele>1047.2</ele></trkpt><trkpt lat="45.832661" lon="9.446804"><time>2024-03-23T10:51:21.000Z</time><ele>1047.2</ele></trkpt><trkpt lat="45.832656" lon="9.446805"><time>2024-03-23T10:51:22.000Z</time><ele>1047</ele></trkpt><trkpt lat="45.83265" lon="9.446805"><time>2024-03-23T10:51:23.000Z</time><ele>1046.8</ele></trkpt><trkpt lat="45.832644" lon="9.446803"><time>2024-03-23T10:51:24.000Z</time><ele>1046.4</ele></trkpt><trkpt lat="45.832641" lon="9.446801"><time>2024-03-23T10:51:25.000Z</time><ele>1046.4</ele></trkpt><trkpt lat="45.83264" lon="9.446794"><time>2024-03-23T10:51:26.000Z</time><ele>1046.2</ele></trkpt><trkpt lat="45.832637" lon="9.446786"><time>2024-03-23T10:51:27.000Z</time><ele>1046.2</ele></trkpt><trkpt lat="45.832632" lon="9.446778"><time>2024-03-23T10:51:28.000Z</time><ele>1046</ele></trkpt><trkpt lat="45.832626" lon="9.446771"><time>2024-03-23T10:51:29.000Z</time><ele>1045.8</ele></trkpt><trkpt lat="45.832618" lon="9.446769"><time>2024-03-23T10:51:30.000Z</time><ele>1045.8</ele></trkpt><trkpt lat="45.832609" lon="9.44677"><time>2024-03-23T10:51:31.000Z</time><ele>1045.6</ele></trkpt><trkpt lat="45.832602" lon="9.446773"><time>2024-03-23T10:51:32.000Z</time><ele>1045.2</ele></trkpt><trkpt lat="45.832595" lon="9.446779"><time>2024-03-23T10:51:33.000Z</time><ele>1045</ele></trkpt><trkpt lat="45.83259" lon="9.446783"><time>2024-03-23T10:51:34.000Z</time><ele>1044.8</ele></trkpt><trkpt lat="45.832585" lon="9.446786"><time>2024-03-23T10:51:35.000Z</time><ele>1044.6</ele></trkpt><trkpt lat="45.832582" lon="9.446782"><time>2024-03-23T10:51:36.000Z</time><ele>1044.4</ele></trkpt><trkpt lat="45.83258" lon="9.446777"><time>2024-03-23T10:51:37.000Z</time><ele>1044.2</ele></trkpt><trkpt lat="45.832576" lon="9.446773"><time>2024-03-23T10:51:38.000Z</time><ele>1044.2</ele></trkpt><trkpt lat="45.832568" lon="9.446773"><time>2024-03-23T10:51:39.000Z</time><ele>1044.2</ele></trkpt><trkpt lat="45.83256" lon="9.446778"><time>2024-03-23T10:51:40.000Z</time><ele>1043.8</ele></trkpt><trkpt lat="45.832556" lon="9.446786"><time>2024-03-23T10:51:41.000Z</time><ele>1043.6</ele></trkpt><trkpt lat="45.832554" lon="9.446794"><time>2024-03-23T10:51:42.000Z</time><ele>1043.4</ele></trkpt><trkpt lat="45.832554" lon="9.4468"><time>2024-03-23T10:51:43.000Z</time><ele>1043.2</ele></trkpt><trkpt lat="45.832555" lon="9.446806"><time>2024-03-23T10:51:44.000Z</time><ele>1042.8</ele></trkpt><trkpt lat="45.832555" lon="9.446812"><time>2024-03-23T10:51:45.000Z</time><ele>1042.8</ele></trkpt><trkpt lat="45.832555" lon="9.446818"><time>2024-03-23T10:51:46.000Z</time><ele>1042.6</ele></trkpt><trkpt lat="45.832554" lon="9.446826"><time>2024-03-23T10:51:47.000Z</time><ele>1042.4</ele></trkpt><trkpt lat="45.832554" lon="9.446831"><time>2024-03-23T10:51:48.000Z</time><ele>1042.4</ele></trkpt><trkpt lat="45.832555" lon="9.446836"><time>2024-03-23T10:51:49.000Z</time><ele>1042.2</ele></trkpt><trkpt lat="45.832556" lon="9.44684"><time>2024-03-23T10:51:50.000Z</time><ele>1042</ele></trkpt><trkpt lat="45.832557" lon="9.446842"><time>2024-03-23T10:51:51.000Z</time><ele>1042</ele></trkpt><trkpt lat="45.832552" lon="9.446846"><time>2024-03-23T10:51:52.000Z</time><ele>1041.8</ele></trkpt><trkpt lat="45.832544" lon="9.446851"><time>2024-03-23T10:51:53.000Z</time><ele>1041.8</ele></trkpt><trkpt lat="45.832536" lon="9.44685"><time>2024-03-23T10:51:54.000Z</time><ele>1041.6</ele></trkpt><trkpt lat="45.832531" lon="9.446846"><time>2024-03-23T10:51:55.000Z</time><ele>1041.4</ele></trkpt><trkpt lat="45.832526" lon="9.44684"><time>2024-03-23T10:51:56.000Z</time><ele>1041.4</ele></trkpt><trkpt lat="45.832522" lon="9.446835"><time>2024-03-23T10:51:57.000Z</time><ele>1041.2</ele></trkpt><trkpt lat="45.832519" lon="9.44683"><time>2024-03-23T10:51:58.000Z</time><ele>1041</ele></trkpt><trkpt lat="45.832519" lon="9.446823"><time>2024-03-23T10:51:59.000Z</time><ele>1040.8</ele></trkpt><trkpt lat="45.832516" lon="9.446818"><time>2024-03-23T10:52:00.000Z</time><ele>1040.6</ele></trkpt><trkpt lat="45.832512" lon="9.446812"><time>2024-03-23T10:52:01.000Z</time><ele>1040.6</ele></trkpt><trkpt lat="45.832509" lon="9.446809"><time>2024-03-23T10:52:02.000Z</time><ele>1040.6</ele></trkpt><trkpt lat="45.832507" lon="9.446802"><time>2024-03-23T10:52:03.000Z</time><ele>1040.4</ele></trkpt><trkpt lat="45.832503" lon="9.446796"><time>2024-03-23T10:52:04.000Z</time><ele>1040.2</ele></trkpt><trkpt lat="45.8325" lon="9.446788"><time>2024-03-23T10:52:05.000Z</time><ele>1040.2</ele></trkpt><trkpt lat="45.832494" lon="9.446785"><time>2024-03-23T10:52:06.000Z</time><ele>1040</ele></trkpt><trkpt lat="45.832487" lon="9.446784"><time>2024-03-23T10:52:07.000Z</time><ele>1039.8</ele></trkpt><trkpt lat="45.832484" lon="9.446787"><time>2024-03-23T10:52:08.000Z</time><ele>1039.4</ele></trkpt><trkpt lat="45.832482" lon="9.446794"><time>2024-03-23T10:52:09.000Z</time><ele>1039.2</ele></trkpt><trkpt lat="45.832482" lon="9.446801"><time>2024-03-23T10:52:10.000Z</time><ele>1039</ele></trkpt><trkpt lat="45.83248" lon="9.446808"><time>2024-03-23T10:52:11.000Z</time><ele>1038.6</ele></trkpt><trkpt lat="45.83248" lon="9.446812"><time>2024-03-23T10:52:12.000Z</time><ele>1038.6</ele></trkpt><trkpt lat="45.83248" lon="9.446816"><time>2024-03-23T10:52:13.000Z</time><ele>1038.4</ele></trkpt><trkpt lat="45.832478" lon="9.44682"><time>2024-03-23T10:52:14.000Z</time><ele>1038.4</ele></trkpt><trkpt lat="45.832477" lon="9.446823"><time>2024-03-23T10:52:15.000Z</time><ele>1038.2</ele></trkpt><trkpt lat="45.832476" lon="9.446826"><time>2024-03-23T10:52:16.000Z</time><ele>1038.2</ele></trkpt><trkpt lat="45.832475" lon="9.446831"><time>2024-03-23T10:52:17.000Z</time><ele>1038.2</ele></trkpt><trkpt lat="45.832474" lon="9.446834"><time>2024-03-23T10:52:18.000Z</time><ele>1038.2</ele></trkpt><trkpt lat="45.832472" lon="9.446835"><time>2024-03-23T10:52:19.000Z</time><ele>1038</ele></trkpt><trkpt lat="45.832469" lon="9.446837"><time>2024-03-23T10:52:20.000Z</time><ele>1037.8</ele></trkpt><trkpt lat="45.832464" lon="9.446839"><time>2024-03-23T10:52:21.000Z</time><ele>1037.6</ele></trkpt><trkpt lat="45.83246" lon="9.446844"><time>2024-03-23T10:52:22.000Z</time><ele>1037.4</ele></trkpt><trkpt lat="45.832457" lon="9.446847"><time>2024-03-23T10:52:23.000Z</time><ele>1037.4</ele></trkpt><trkpt lat="45.832453" lon="9.446851"><time>2024-03-23T10:52:24.000Z</time><ele>1037.2</ele></trkpt><trkpt lat="45.832448" lon="9.446855"><time>2024-03-23T10:52:25.000Z</time><ele>1037</ele></trkpt><trkpt lat="45.832445" lon="9.446859"><time>2024-03-23T10:52:26.000Z</time><ele>1036.8</ele></trkpt><trkpt lat="45.832443" lon="9.446858"><time>2024-03-23T10:52:27.000Z</time><ele>1036.8</ele></trkpt><trkpt lat="45.832438" lon="9.446855"><time>2024-03-23T10:52:28.000Z</time><ele>1036.4</ele></trkpt><trkpt lat="45.832435" lon="9.446853"><time>2024-03-23T10:52:29.000Z</time><ele>1036.2</ele></trkpt><trkpt lat="45.832432" lon="9.446846"><time>2024-03-23T10:52:30.000Z</time><ele>1036</ele></trkpt><trkpt lat="45.832427" lon="9.446841"><time>2024-03-23T10:52:31.000Z</time><ele>1035.8</ele></trkpt><trkpt lat="45.832422" lon="9.446835"><time>2024-03-23T10:52:32.000Z</time><ele>1035.6</ele></trkpt><trkpt lat="45.832418" lon="9.446831"><time>2024-03-23T10:52:33.000Z</time><ele>1035.4</ele></trkpt><trkpt lat="45.832415" lon="9.446827"><time>2024-03-23T10:52:34.000Z</time><ele>1035.2</ele></trkpt><trkpt lat="45.832413" lon="9.446824"><time>2024-03-23T10:52:35.000Z</time><ele>1035.2</ele></trkpt><trkpt lat="45.832411" lon="9.446823"><time>2024-03-23T10:52:36.000Z</time><ele>1035</ele></trkpt><trkpt lat="45.83241" lon="9.446824"><time>2024-03-23T10:52:37.000Z</time><ele>1034.8</ele></trkpt><trkpt lat="45.832408" lon="9.446825"><time>2024-03-23T10:52:38.000Z</time><ele>1034.8</ele></trkpt><trkpt lat="45.832402" lon="9.446827"><time>2024-03-23T10:52:39.000Z</time><ele>1034.6</ele></trkpt><trkpt lat="45.832399" lon="9.446827"><time>2024-03-23T10:52:40.000Z</time><ele>1034.6</ele></trkpt><trkpt lat="45.832399" lon="9.446825"><time>2024-03-23T10:52:41.000Z</time><ele>1034.6</ele></trkpt><trkpt lat="45.832401" lon="9.446824"><time>2024-03-23T10:52:42.000Z</time><ele>1034.6</ele></trkpt><trkpt lat="45.832402" lon="9.446824"><time>2024-03-23T10:52:43.000Z</time><ele>1034.6</ele></trkpt><trkpt lat="45.832402" lon="9.446824"><time>2024-03-23T10:52:44.000Z</time><ele>1034.6</ele></trkpt><trkpt lat="45.832402" lon="9.446824"><time>2024-03-23T10:52:45.000Z</time><ele>1034.6</ele></trkpt><trkpt lat="45.832402" lon="9.446824"><time>2024-03-23T10:52:46.000Z</time><ele>1034.8</ele></trkpt><trkpt lat="45.832402" lon="9.446824"><time>2024-03-23T10:52:47.000Z</time><ele>1034.8</ele></trkpt><trkpt lat="45.832402" lon="9.446824"><time>2024-03-23T10:52:48.000Z</time><ele>1034.8</ele></trkpt><trkpt lat="45.832402" lon="9.446824"><time>2024-03-23T10:52:49.000Z</time><ele>1034.8</ele></trkpt><trkpt lat="45.832402" lon="9.446824"><time>2024-03-23T10:52:50.000Z</time><ele>1034.8</ele></trkpt><trkpt lat="45.832402" lon="9.446824"><time>2024-03-23T10:52:51.000Z</time><ele>1034.6</ele></trkpt><trkpt lat="45.832402" lon="9.446824"><time>2024-03-23T10:52:52.000Z</time><ele>1034.6</ele></trkpt><trkpt lat="45.832402" lon="9.446824"><time>2024-03-23T10:52:53.000Z</time><ele>1034.4</ele></trkpt><trkpt lat="45.832402" lon="9.446824"><time>2024-03-23T10:52:54.000Z</time><ele>1034.4</ele></trkpt><trkpt lat="45.832402" lon="9.446824"><time>2024-03-23T10:52:55.000Z</time><ele>1034.4</ele></trkpt><trkpt lat="45.832402" lon="9.446824"><time>2024-03-23T10:52:56.000Z</time><ele>1034.4</ele></trkpt><trkpt lat="45.832402" lon="9.446824"><time>2024-03-23T10:52:57.000Z</time><ele>1034.4</ele></trkpt><trkpt lat="45.832402" lon="9.446823"><time>2024-03-23T10:52:58.000Z</time><ele>1034.4</ele></trkpt><trkpt lat="45.832402" lon="9.446822"><time>2024-03-23T10:52:59.000Z</time><ele>1034.4</ele></trkpt><trkpt lat="45.832402" lon="9.446819"><time>2024-03-23T10:53:00.000Z</time><ele>1034.4</ele></trkpt><trkpt lat="45.832402" lon="9.446818"><time>2024-03-23T10:53:01.000Z</time><ele>1034.4</ele></trkpt><trkpt lat="45.832402" lon="9.446817"><time>2024-03-23T10:53:02.000Z</time><ele>1034.4</ele></trkpt><trkpt lat="45.832402" lon="9.446816"><time>2024-03-23T10:53:03.000Z</time><ele>1034.2</ele></trkpt><trkpt lat="45.832401" lon="9.446813"><time>2024-03-23T10:53:04.000Z</time><ele>1034.2</ele></trkpt><trkpt lat="45.832401" lon="9.446811"><time>2024-03-23T10:53:05.000Z</time><ele>1034.2</ele></trkpt><trkpt lat="45.8324" lon="9.446809"><time>2024-03-23T10:53:06.000Z</time><ele>1034</ele></trkpt><trkpt lat="45.8324" lon="9.446809"><time>2024-03-23T10:53:07.000Z</time><ele>1034</ele></trkpt><trkpt lat="45.832399" lon="9.446809"><time>2024-03-23T10:53:08.000Z</time><ele>1034</ele></trkpt><trkpt lat="45.832399" lon="9.446809"><time>2024-03-23T10:53:09.000Z</time><ele>1034</ele></trkpt><trkpt lat="45.832398" lon="9.446809"><time>2024-03-23T10:53:10.000Z</time><ele>1034</ele></trkpt><trkpt lat="45.832398" lon="9.446809"><time>2024-03-23T10:53:11.000Z</time><ele>1034</ele></trkpt><trkpt lat="45.832397" lon="9.446808"><time>2024-03-23T10:53:12.000Z</time><ele>1034</ele></trkpt><trkpt lat="45.832396" lon="9.446808"><time>2024-03-23T10:53:13.000Z</time><ele>1033.8</ele></trkpt><trkpt lat="45.832395" lon="9.446807"><time>2024-03-23T10:53:14.000Z</time><ele>1033.8</ele></trkpt><trkpt lat="45.832393" lon="9.446807"><time>2024-03-23T10:53:15.000Z</time><ele>1034</ele></trkpt><trkpt lat="45.832392" lon="9.446807"><time>2024-03-23T10:53:16.000Z</time><ele>1034</ele></trkpt><trkpt lat="45.832392" lon="9.446807"><time>2024-03-23T10:53:17.000Z</time><ele>1034</ele></trkpt><trkpt lat="45.832391" lon="9.446806"><time>2024-03-23T10:53:18.000Z</time><ele>1033.8</ele></trkpt><trkpt lat="45.832391" lon="9.446806"><time>2024-03-23T10:53:19.000Z</time><ele>1033.8</ele></trkpt><trkpt lat="45.832391" lon="9.446806"><time>2024-03-23T10:53:20.000Z</time><ele>1033.8</ele></trkpt><trkpt lat="45.832391" lon="9.446806"><time>2024-03-23T10:53:21.000Z</time><ele>1033.8</ele></trkpt><trkpt lat="45.832391" lon="9.446806"><time>2024-03-23T10:53:22.000Z</time><ele>1033.8</ele></trkpt><trkpt lat="45.832391" lon="9.446806"><time>2024-03-23T10:53:23.000Z</time><ele>1033.8</ele></trkpt><trkpt lat="45.83239" lon="9.446806"><time>2024-03-23T10:53:24.000Z</time><ele>1033.8</ele></trkpt><trkpt lat="45.83239" lon="9.446806"><time>2024-03-23T10:53:25.000Z</time><ele>1034</ele></trkpt><trkpt lat="45.832385" lon="9.44681"><time>2024-03-23T10:53:26.000Z</time><ele>1034</ele></trkpt><trkpt lat="45.832373" lon="9.446818"><time>2024-03-23T10:53:27.000Z</time><ele>1034.2</ele></trkpt><trkpt lat="45.832363" lon="9.446832"><time>2024-03-23T10:53:28.000Z</time><ele>1034.4</ele></trkpt><trkpt lat="45.832357" lon="9.446842"><time>2024-03-23T10:53:29.000Z</time><ele>1034.4</ele></trkpt><trkpt lat="45.83235" lon="9.446851"><time>2024-03-23T10:53:30.000Z</time><ele>1034.6</ele></trkpt><trkpt lat="45.832345" lon="9.446856"><time>2024-03-23T10:53:31.000Z</time><ele>1035</ele></trkpt><trkpt lat="45.832341" lon="9.446859"><time>2024-03-23T10:53:32.000Z</time><ele>1035.2</ele></trkpt><trkpt lat="45.832335" lon="9.446862"><time>2024-03-23T10:53:33.000Z</time><ele>1035.2</ele></trkpt><trkpt lat="45.832326" lon="9.446867"><time>2024-03-23T10:53:34.000Z</time><ele>1035.4</ele></trkpt><trkpt lat="45.832312" lon="9.446875"><time>2024-03-23T10:53:35.000Z</time><ele>1035.4</ele></trkpt><trkpt lat="45.832306" lon="9.446883"><time>2024-03-23T10:53:36.000Z</time><ele>1035.4</ele></trkpt><trkpt lat="45.832304" lon="9.446889"><time>2024-03-23T10:53:37.000Z</time><ele>1035.4</ele></trkpt><trkpt lat="45.832305" lon="9.446891"><time>2024-03-23T10:53:38.000Z</time><ele>1035.4</ele></trkpt><trkpt lat="45.832306" lon="9.446892"><time>2024-03-23T10:53:39.000Z</time><ele>1035.6</ele></trkpt><trkpt lat="45.832306" lon="9.446893"><time>2024-03-23T10:53:40.000Z</time><ele>1035.8</ele></trkpt><trkpt lat="45.832305" lon="9.446892"><time>2024-03-23T10:53:41.000Z</time><ele>1035.8</ele></trkpt><trkpt lat="45.832307" lon="9.446889"><time>2024-03-23T10:53:42.000Z</time><ele>1036</ele></trkpt><trkpt lat="45.83231" lon="9.446886"><time>2024-03-23T10:53:43.000Z</time><ele>1036.2</ele></trkpt><trkpt lat="45.832313" lon="9.446885"><time>2024-03-23T10:53:44.000Z</time><ele>1036</ele></trkpt><trkpt lat="45.832317" lon="9.446883"><time>2024-03-23T10:53:45.000Z</time><ele>1036</ele></trkpt><trkpt lat="45.832322" lon="9.44688"><time>2024-03-23T10:53:46.000Z</time><ele>1035.8</ele></trkpt><trkpt lat="45.832327" lon="9.446876"><time>2024-03-23T10:53:47.000Z</time><ele>1035.6</ele></trkpt><trkpt lat="45.832332" lon="9.446871"><time>2024-03-23T10:53:48.000Z</time><ele>1035.6</ele></trkpt><trkpt lat="45.832338" lon="9.446863"><time>2024-03-23T10:53:49.000Z</time><ele>1035.6</ele></trkpt><trkpt lat="45.832343" lon="9.446851"><time>2024-03-23T10:53:50.000Z</time><ele>1035.2</ele></trkpt><trkpt lat="45.832345" lon="9.446844"><time>2024-03-23T10:53:51.000Z</time><ele>1035</ele></trkpt><trkpt lat="45.832347" lon="9.446839"><time>2024-03-23T10:53:52.000Z</time><ele>1034.6</ele></trkpt><trkpt lat="45.832347" lon="9.446833"><time>2024-03-23T10:53:53.000Z</time><ele>1034.4</ele></trkpt><trkpt lat="45.832349" lon="9.446828"><time>2024-03-23T10:53:54.000Z</time><ele>1034.2</ele></trkpt><trkpt lat="45.832351" lon="9.446826"><time>2024-03-23T10:53:55.000Z</time><ele>1034.2</ele></trkpt><trkpt lat="45.832352" lon="9.446826"><time>2024-03-23T10:53:56.000Z</time><ele>1034.2</ele></trkpt><trkpt lat="45.832352" lon="9.446826"><time>2024-03-23T10:53:57.000Z</time><ele>1034.2</ele></trkpt><trkpt lat="45.832352" lon="9.446826"><time>2024-03-23T10:53:58.000Z</time><ele>1034.2</ele></trkpt><trkpt lat="45.832352" lon="9.446826"><time>2024-03-23T10:53:59.000Z</time><ele>1034.2</ele></trkpt><trkpt lat="45.832352" lon="9.446826"><time>2024-03-23T10:54:00.000Z</time><ele>1034.2</ele></trkpt><trkpt lat="45.832352" lon="9.446826"><time>2024-03-23T10:54:01.000Z</time><ele>1034.2</ele></trkpt><trkpt lat="45.832352" lon="9.446826"><time>2024-03-23T10:54:02.000Z</time><ele>1034.2</ele></trkpt><trkpt lat="45.832352" lon="9.446826"><time>2024-03-23T10:54:03.000Z</time><ele>1034.2</ele></trkpt><trkpt lat="45.832352" lon="9.446826"><time>2024-03-23T10:54:04.000Z</time><ele>1034.2</ele></trkpt><trkpt lat="45.832352" lon="9.446826"><time>2024-03-23T10:54:05.000Z</time><ele>1034.2</ele></trkpt><trkpt lat="45.832352" lon="9.446826"><time>2024-03-23T10:54:06.000Z</time><ele>1034.2</ele></trkpt><trkpt lat="45.832352" lon="9.446826"><time>2024-03-23T10:54:07.000Z</time><ele>1034.2</ele></trkpt><trkpt lat="45.832352" lon="9.446826"><time>2024-03-23T10:54:08.000Z</time><ele>1034.2</ele></trkpt><trkpt lat="45.832352" lon="9.446826"><time>2024-03-23T10:54:09.000Z</time><ele>1034</ele></trkpt><trkpt lat="45.832351" lon="9.446826"><time>2024-03-23T10:54:10.000Z</time><ele>1033.8</ele></trkpt><trkpt lat="45.832351" lon="9.446826"><time>2024-03-23T10:54:11.000Z</time><ele>1033.6</ele></trkpt><trkpt lat="45.832351" lon="9.446826"><time>2024-03-23T10:54:12.000Z</time><ele>1033.4</ele></trkpt><trkpt lat="45.832351" lon="9.446826"><time>2024-03-23T10:54:13.000Z</time><ele>1033.2</ele></trkpt><trkpt lat="45.832347" lon="9.446823"><time>2024-03-23T10:54:14.000Z</time><ele>1033</ele></trkpt><trkpt lat="45.832333" lon="9.446817"><time>2024-03-23T10:54:15.000Z</time><ele>1032.8</ele></trkpt><trkpt lat="45.832317" lon="9.446807"><time>2024-03-23T10:54:16.000Z</time><ele>1032.6</ele></trkpt><trkpt lat="45.832302" lon="9.446798"><time>2024-03-23T10:54:17.000Z</time><ele>1032.6</ele></trkpt><trkpt lat="45.832291" lon="9.446789"><time>2024-03-23T10:54:18.000Z</time><ele>1032.4</ele></trkpt><trkpt lat="45.832283" lon="9.446781"><time>2024-03-23T10:54:19.000Z</time><ele>1032.4</ele></trkpt><trkpt lat="45.832272" lon="9.446771"><time>2024-03-23T10:54:20.000Z</time><ele>1032.2</ele></trkpt><trkpt lat="45.832265" lon="9.446755"><time>2024-03-23T10:54:21.000Z</time><ele>1032.2</ele></trkpt><trkpt lat="45.832257" lon="9.446738"><time>2024-03-23T10:54:22.000Z</time><ele>1032.2</ele></trkpt><trkpt lat="45.832247" lon="9.446723"><time>2024-03-23T10:54:23.000Z</time><ele>1032.2</ele></trkpt><trkpt lat="45.832241" lon="9.446709"><time>2024-03-23T10:54:24.000Z</time><ele>1032</ele></trkpt><trkpt lat="45.832232" lon="9.446699"><time>2024-03-23T10:54:25.000Z</time><ele>1032</ele></trkpt><trkpt lat="45.832222" lon="9.446689"><time>2024-03-23T10:54:26.000Z</time><ele>1031.8</ele></trkpt><trkpt lat="45.83221" lon="9.446683"><time>2024-03-23T10:54:27.000Z</time><ele>1031.8</ele></trkpt><trkpt lat="45.832197" lon="9.446677"><time>2024-03-23T10:54:28.000Z</time><ele>1031.6</ele></trkpt><trkpt lat="45.832188" lon="9.446674"><time>2024-03-23T10:54:29.000Z</time><ele>1031.6</ele></trkpt><trkpt lat="45.832176" lon="9.446674"><time>2024-03-23T10:54:30.000Z</time><ele>1031.4</ele></trkpt><trkpt lat="45.832163" lon="9.446675"><time>2024-03-23T10:54:31.000Z</time><ele>1031.2</ele></trkpt><trkpt lat="45.832153" lon="9.446678"><time>2024-03-23T10:54:32.000Z</time><ele>1031.2</ele></trkpt><trkpt lat="45.832143" lon="9.446677"><time>2024-03-23T10:54:33.000Z</time><ele>1031</ele></trkpt><trkpt lat="45.832133" lon="9.446677"><time>2024-03-23T10:54:34.000Z</time><ele>1031</ele></trkpt><trkpt lat="45.832127" lon="9.446679"><time>2024-03-23T10:54:35.000Z</time><ele>1031</ele></trkpt><trkpt lat="45.83212" lon="9.446682"><time>2024-03-23T10:54:36.000Z</time><ele>1030.8</ele></trkpt><trkpt lat="45.832113" lon="9.446684"><time>2024-03-23T10:54:37.000Z</time><ele>1030.8</ele></trkpt><trkpt lat="45.832103" lon="9.446686"><time>2024-03-23T10:54:38.000Z</time><ele>1030.6</ele></trkpt><trkpt lat="45.832094" lon="9.44669"><time>2024-03-23T10:54:39.000Z</time><ele>1030.6</ele></trkpt><trkpt lat="45.832084" lon="9.446695"><time>2024-03-23T10:54:40.000Z</time><ele>1030.4</ele></trkpt><trkpt lat="45.832071" lon="9.446695"><time>2024-03-23T10:54:41.000Z</time><ele>1030.4</ele></trkpt><trkpt lat="45.832062" lon="9.446698"><time>2024-03-23T10:54:42.000Z</time><ele>1030.2</ele></trkpt><trkpt lat="45.832053" lon="9.446699"><time>2024-03-23T10:54:43.000Z</time><ele>1030.2</ele></trkpt><trkpt lat="45.832047" lon="9.446697"><time>2024-03-23T10:54:44.000Z</time><ele>1030.2</ele></trkpt><trkpt lat="45.832044" lon="9.446695"><time>2024-03-23T10:54:45.000Z</time><ele>1030</ele></trkpt><trkpt lat="45.832041" lon="9.446689"><time>2024-03-23T10:54:46.000Z</time><ele>1029.8</ele></trkpt><trkpt lat="45.832035" lon="9.44668"><time>2024-03-23T10:54:47.000Z</time><ele>1029.6</ele></trkpt><trkpt lat="45.832026" lon="9.446674"><time>2024-03-23T10:54:48.000Z</time><ele>1029.4</ele></trkpt><trkpt lat="45.832018" lon="9.446667"><time>2024-03-23T10:54:49.000Z</time><ele>1029.4</ele></trkpt><trkpt lat="45.832009" lon="9.44666"><time>2024-03-23T10:54:50.000Z</time><ele>1029</ele></trkpt><trkpt lat="45.832005" lon="9.446655"><time>2024-03-23T10:54:51.000Z</time><ele>1028.8</ele></trkpt><trkpt lat="45.831993" lon="9.446649"><time>2024-03-23T10:54:52.000Z</time><ele>1028.6</ele></trkpt><trkpt lat="45.831983" lon="9.446648"><time>2024-03-23T10:54:53.000Z</time><ele>1028.4</ele></trkpt><trkpt lat="45.831971" lon="9.446645"><time>2024-03-23T10:54:54.000Z</time><ele>1028.2</ele></trkpt><trkpt lat="45.831961" lon="9.446642"><time>2024-03-23T10:54:55.000Z</time><ele>1028</ele></trkpt><trkpt lat="45.831951" lon="9.446641"><time>2024-03-23T10:54:56.000Z</time><ele>1027.8</ele></trkpt><trkpt lat="45.831947" lon="9.446645"><time>2024-03-23T10:54:57.000Z</time><ele>1027.8</ele></trkpt><trkpt lat="45.831944" lon="9.446648"><time>2024-03-23T10:54:58.000Z</time><ele>1027.6</ele></trkpt><trkpt lat="45.831937" lon="9.446648"><time>2024-03-23T10:54:59.000Z</time><ele>1027.6</ele></trkpt><trkpt lat="45.831935" lon="9.446651"><time>2024-03-23T10:55:00.000Z</time><ele>1027.4</ele></trkpt><trkpt lat="45.831934" lon="9.446651"><time>2024-03-23T10:55:01.000Z</time><ele>1027.4</ele></trkpt><trkpt lat="45.831933" lon="9.44665"><time>2024-03-23T10:55:02.000Z</time><ele>1027.2</ele></trkpt><trkpt lat="45.831928" lon="9.446648"><time>2024-03-23T10:55:03.000Z</time><ele>1027.2</ele></trkpt><trkpt lat="45.831922" lon="9.446643"><time>2024-03-23T10:55:04.000Z</time><ele>1027</ele></trkpt><trkpt lat="45.831919" lon="9.446639"><time>2024-03-23T10:55:05.000Z</time><ele>1027</ele></trkpt><trkpt lat="45.831917" lon="9.446637"><time>2024-03-23T10:55:06.000Z</time><ele>1026.8</ele></trkpt><trkpt lat="45.831915" lon="9.446637"><time>2024-03-23T10:55:07.000Z</time><ele>1026.6</ele></trkpt><trkpt lat="45.831906" lon="9.446636"><time>2024-03-23T10:55:08.000Z</time><ele>1026.6</ele></trkpt><trkpt lat="45.831893" lon="9.446638"><time>2024-03-23T10:55:09.000Z</time><ele>1026.4</ele></trkpt><trkpt lat="45.831878" lon="9.446636"><time>2024-03-23T10:55:10.000Z</time><ele>1026.2</ele></trkpt><trkpt lat="45.831869" lon="9.446636"><time>2024-03-23T10:55:11.000Z</time><ele>1026</ele></trkpt><trkpt lat="45.831862" lon="9.446639"><time>2024-03-23T10:55:12.000Z</time><ele>1025.8</ele></trkpt><trkpt lat="45.83185" lon="9.446642"><time>2024-03-23T10:55:13.000Z</time><ele>1025.8</ele></trkpt><trkpt lat="45.83184" lon="9.446637"><time>2024-03-23T10:55:14.000Z</time><ele>1025.8</ele></trkpt><trkpt lat="45.831827" lon="9.446626"><time>2024-03-23T10:55:15.000Z</time><ele>1025.6</ele></trkpt><trkpt lat="45.831816" lon="9.446626"><time>2024-03-23T10:55:16.000Z</time><ele>1025.4</ele></trkpt><trkpt lat="45.831807" lon="9.446629"><time>2024-03-23T10:55:17.000Z</time><ele>1025.2</ele></trkpt><trkpt lat="45.831796" lon="9.446634"><time>2024-03-23T10:55:18.000Z</time><ele>1025.2</ele></trkpt><trkpt lat="45.831787" lon="9.446636"><time>2024-03-23T10:55:19.000Z</time><ele>1025</ele></trkpt><trkpt lat="45.83178" lon="9.446634"><time>2024-03-23T10:55:20.000Z</time><ele>1025</ele></trkpt><trkpt lat="45.83177" lon="9.446635"><time>2024-03-23T10:55:21.000Z</time><ele>1025</ele></trkpt><trkpt lat="45.83176" lon="9.446635"><time>2024-03-23T10:55:22.000Z</time><ele>1024.8</ele></trkpt><trkpt lat="45.831753" lon="9.446638"><time>2024-03-23T10:55:23.000Z</time><ele>1024.4</ele></trkpt><trkpt lat="45.831749" lon="9.446641"><time>2024-03-23T10:55:24.000Z</time><ele>1024.2</ele></trkpt><trkpt lat="45.831746" lon="9.446651"><time>2024-03-23T10:55:25.000Z</time><ele>1024</ele></trkpt><trkpt lat="45.831737" lon="9.446656"><time>2024-03-23T10:55:26.000Z</time><ele>1024</ele></trkpt><trkpt lat="45.831727" lon="9.446661"><time>2024-03-23T10:55:27.000Z</time><ele>1023.8</ele></trkpt><trkpt lat="45.831713" lon="9.446664"><time>2024-03-23T10:55:28.000Z</time><ele>1023.8</ele></trkpt><trkpt lat="45.831697" lon="9.446663"><time>2024-03-23T10:55:29.000Z</time><ele>1023.8</ele></trkpt><trkpt lat="45.831686" lon="9.446664"><time>2024-03-23T10:55:30.000Z</time><ele>1023.6</ele></trkpt><trkpt lat="45.831671" lon="9.446666"><time>2024-03-23T10:55:31.000Z</time><ele>1023.6</ele></trkpt><trkpt lat="45.831657" lon="9.446663"><time>2024-03-23T10:55:32.000Z</time><ele>1023.4</ele></trkpt><trkpt lat="45.831641" lon="9.446663"><time>2024-03-23T10:55:33.000Z</time><ele>1023.4</ele></trkpt><trkpt lat="45.831625" lon="9.446661"><time>2024-03-23T10:55:34.000Z</time><ele>1023.2</ele></trkpt><trkpt lat="45.831612" lon="9.446658"><time>2024-03-23T10:55:35.000Z</time><ele>1023.2</ele></trkpt><trkpt lat="45.831608" lon="9.446663"><time>2024-03-23T10:55:36.000Z</time><ele>1023</ele></trkpt><trkpt lat="45.831596" lon="9.44667"><time>2024-03-23T10:55:37.000Z</time><ele>1022.8</ele></trkpt><trkpt lat="45.831583" lon="9.446674"><time>2024-03-23T10:55:38.000Z</time><ele>1022.6</ele></trkpt><trkpt lat="45.831574" lon="9.446673"><time>2024-03-23T10:55:39.000Z</time><ele>1022.4</ele></trkpt><trkpt lat="45.831569" lon="9.446673"><time>2024-03-23T10:55:40.000Z</time><ele>1022.4</ele></trkpt><trkpt lat="45.831567" lon="9.446674"><time>2024-03-23T10:55:41.000Z</time><ele>1022.2</ele></trkpt><trkpt lat="45.831564" lon="9.446672"><time>2024-03-23T10:55:42.000Z</time><ele>1022</ele></trkpt><trkpt lat="45.83156" lon="9.446666"><time>2024-03-23T10:55:43.000Z</time><ele>1022</ele></trkpt><trkpt lat="45.831549" lon="9.446662"><time>2024-03-23T10:55:44.000Z</time><ele>1021.8</ele></trkpt><trkpt lat="45.831535" lon="9.446655"><time>2024-03-23T10:55:45.000Z</time><ele>1021.6</ele></trkpt><trkpt lat="45.831524" lon="9.446661"><time>2024-03-23T10:55:46.000Z</time><ele>1021.4</ele></trkpt><trkpt lat="45.831509" lon="9.446652"><time>2024-03-23T10:55:47.000Z</time><ele>1021.4</ele></trkpt><trkpt lat="45.831496" lon="9.446638"><time>2024-03-23T10:55:48.000Z</time><ele>1021.2</ele></trkpt><trkpt lat="45.831482" lon="9.446623"><time>2024-03-23T10:55:49.000Z</time><ele>1021</ele></trkpt><trkpt lat="45.831471" lon="9.446619"><time>2024-03-23T10:55:50.000Z</time><ele>1020.8</ele></trkpt><trkpt lat="45.831458" lon="9.446614"><time>2024-03-23T10:55:51.000Z</time><ele>1020.6</ele></trkpt><trkpt lat="45.831452" lon="9.446615"><time>2024-03-23T10:55:52.000Z</time><ele>1020.4</ele></trkpt><trkpt lat="45.831441" lon="9.446612"><time>2024-03-23T10:55:53.000Z</time><ele>1020.4</ele></trkpt><trkpt lat="45.831436" lon="9.446612"><time>2024-03-23T10:55:54.000Z</time><ele>1020.2</ele></trkpt><trkpt lat="45.831427" lon="9.446617"><time>2024-03-23T10:55:55.000Z</time><ele>1020.2</ele></trkpt><trkpt lat="45.831419" lon="9.446621"><time>2024-03-23T10:55:56.000Z</time><ele>1020.2</ele></trkpt><trkpt lat="45.831407" lon="9.446624"><time>2024-03-23T10:55:57.000Z</time><ele>1020</ele></trkpt><trkpt lat="45.831395" lon="9.446632"><time>2024-03-23T10:55:58.000Z</time><ele>1020</ele></trkpt><trkpt lat="45.83139" lon="9.446637"><time>2024-03-23T10:55:59.000Z</time><ele>1020</ele></trkpt><trkpt lat="45.831383" lon="9.446638"><time>2024-03-23T10:56:00.000Z</time><ele>1020</ele></trkpt><trkpt lat="45.831376" lon="9.446639"><time>2024-03-23T10:56:01.000Z</time><ele>1019.8</ele></trkpt><trkpt lat="45.831372" lon="9.446637"><time>2024-03-23T10:56:02.000Z</time><ele>1019.8</ele></trkpt><trkpt lat="45.83136" lon="9.446628"><time>2024-03-23T10:56:03.000Z</time><ele>1019.8</ele></trkpt><trkpt lat="45.831347" lon="9.446633"><time>2024-03-23T10:56:04.000Z</time><ele>1019.8</ele></trkpt><trkpt lat="45.831337" lon="9.44664"><time>2024-03-23T10:56:05.000Z</time><ele>1019.8</ele></trkpt><trkpt lat="45.831332" lon="9.446643"><time>2024-03-23T10:56:06.000Z</time><ele>1019.6</ele></trkpt><trkpt lat="45.83133" lon="9.446644"><time>2024-03-23T10:56:07.000Z</time><ele>1019.4</ele></trkpt><trkpt lat="45.831329" lon="9.446642"><time>2024-03-23T10:56:08.000Z</time><ele>1019.4</ele></trkpt><trkpt lat="45.831329" lon="9.44664"><time>2024-03-23T10:56:09.000Z</time><ele>1019.4</ele></trkpt><trkpt lat="45.831327" lon="9.446641"><time>2024-03-23T10:56:10.000Z</time><ele>1019.2</ele></trkpt><trkpt lat="45.831328" lon="9.44664"><time>2024-03-23T10:56:11.000Z</time><ele>1019.2</ele></trkpt><trkpt lat="45.831329" lon="9.446637"><time>2024-03-23T10:56:12.000Z</time><ele>1019</ele></trkpt><trkpt lat="45.83133" lon="9.446635"><time>2024-03-23T10:56:13.000Z</time><ele>1018.8</ele></trkpt><trkpt lat="45.831331" lon="9.446635"><time>2024-03-23T10:56:14.000Z</time><ele>1018.6</ele></trkpt><trkpt lat="45.831331" lon="9.446638"><time>2024-03-23T10:56:15.000Z</time><ele>1018.4</ele></trkpt><trkpt lat="45.831322" lon="9.446644"><time>2024-03-23T10:56:16.000Z</time><ele>1018.2</ele></trkpt><trkpt lat="45.831306" lon="9.446646"><time>2024-03-23T10:56:17.000Z</time><ele>1018</ele></trkpt><trkpt lat="45.83129" lon="9.446649"><time>2024-03-23T10:56:18.000Z</time><ele>1018</ele></trkpt><trkpt lat="45.831279" lon="9.446656"><time>2024-03-23T10:56:19.000Z</time><ele>1017.8</ele></trkpt><trkpt lat="45.831271" lon="9.446661"><time>2024-03-23T10:56:20.000Z</time><ele>1017.6</ele></trkpt><trkpt lat="45.831256" lon="9.44667"><time>2024-03-23T10:56:21.000Z</time><ele>1017.4</ele></trkpt><trkpt lat="45.831254" lon="9.446676"><time>2024-03-23T10:56:22.000Z</time><ele>1017.4</ele></trkpt><trkpt lat="45.831249" lon="9.44668"><time>2024-03-23T10:56:23.000Z</time><ele>1017.4</ele></trkpt><trkpt lat="45.831239" lon="9.446682"><time>2024-03-23T10:56:24.000Z</time><ele>1017.4</ele></trkpt><trkpt lat="45.83123" lon="9.446683"><time>2024-03-23T10:56:25.000Z</time><ele>1017.2</ele></trkpt><trkpt lat="45.831229" lon="9.446685"><time>2024-03-23T10:56:26.000Z</time><ele>1017.2</ele></trkpt><trkpt lat="45.831227" lon="9.446685"><time>2024-03-23T10:56:27.000Z</time><ele>1017</ele></trkpt><trkpt lat="45.831223" lon="9.446683"><time>2024-03-23T10:56:28.000Z</time><ele>1017</ele></trkpt><trkpt lat="45.83122" lon="9.44668"><time>2024-03-23T10:56:29.000Z</time><ele>1017</ele></trkpt><trkpt lat="45.831209" lon="9.446676"><time>2024-03-23T10:56:30.000Z</time><ele>1016.8</ele></trkpt><trkpt lat="45.831194" lon="9.446675"><time>2024-03-23T10:56:31.000Z</time><ele>1016.6</ele></trkpt><trkpt lat="45.831178" lon="9.446676"><time>2024-03-23T10:56:32.000Z</time><ele>1016.2</ele></trkpt><trkpt lat="45.831168" lon="9.446677"><time>2024-03-23T10:56:33.000Z</time><ele>1016</ele></trkpt><trkpt lat="45.831158" lon="9.446676"><time>2024-03-23T10:56:34.000Z</time><ele>1015.8</ele></trkpt><trkpt lat="45.831149" lon="9.446671"><time>2024-03-23T10:56:35.000Z</time><ele>1015.2</ele></trkpt><trkpt lat="45.831146" lon="9.446669"><time>2024-03-23T10:56:36.000Z</time><ele>1015</ele></trkpt><trkpt lat="45.831144" lon="9.446667"><time>2024-03-23T10:56:37.000Z</time><ele>1014.8</ele></trkpt><trkpt lat="45.83114" lon="9.446667"><time>2024-03-23T10:56:38.000Z</time><ele>1014.6</ele></trkpt><trkpt lat="45.831139" lon="9.446671"><time>2024-03-23T10:56:39.000Z</time><ele>1014.4</ele></trkpt><trkpt lat="45.831138" lon="9.446673"><time>2024-03-23T10:56:40.000Z</time><ele>1014.4</ele></trkpt><trkpt lat="45.831137" lon="9.446673"><time>2024-03-23T10:56:41.000Z</time><ele>1014.2</ele></trkpt><trkpt lat="45.831131" lon="9.446674"><time>2024-03-23T10:56:42.000Z</time><ele>1014.2</ele></trkpt><trkpt lat="45.83112" lon="9.446674"><time>2024-03-23T10:56:43.000Z</time><ele>1014</ele></trkpt><trkpt lat="45.831112" lon="9.446672"><time>2024-03-23T10:56:44.000Z</time><ele>1013.8</ele></trkpt><trkpt lat="45.831112" lon="9.446675"><time>2024-03-23T10:56:45.000Z</time><ele>1013.4</ele></trkpt><trkpt lat="45.83111" lon="9.446678"><time>2024-03-23T10:56:46.000Z</time><ele>1013</ele></trkpt><trkpt lat="45.831108" lon="9.446678"><time>2024-03-23T10:56:47.000Z</time><ele>1012.8</ele></trkpt><trkpt lat="45.831104" lon="9.446676"><time>2024-03-23T10:56:48.000Z</time><ele>1012.6</ele></trkpt><trkpt lat="45.831104" lon="9.446676"><time>2024-03-23T10:56:49.000Z</time><ele>1012.6</ele></trkpt><trkpt lat="45.831104" lon="9.446674"><time>2024-03-23T10:56:50.000Z</time><ele>1012.6</ele></trkpt><trkpt lat="45.831098" lon="9.446677"><time>2024-03-23T10:56:51.000Z</time><ele>1012.4</ele></trkpt><trkpt lat="45.831088" lon="9.446683"><time>2024-03-23T10:56:52.000Z</time><ele>1012.4</ele></trkpt><trkpt lat="45.831076" lon="9.446689"><time>2024-03-23T10:56:53.000Z</time><ele>1012.2</ele></trkpt><trkpt lat="45.831068" lon="9.446689"><time>2024-03-23T10:56:54.000Z</time><ele>1011.8</ele></trkpt><trkpt lat="45.831057" lon="9.446689"><time>2024-03-23T10:56:55.000Z</time><ele>1011.4</ele></trkpt><trkpt lat="45.831052" lon="9.446689"><time>2024-03-23T10:56:56.000Z</time><ele>1011.2</ele></trkpt><trkpt lat="45.831051" lon="9.44669"><time>2024-03-23T10:56:57.000Z</time><ele>1011.2</ele></trkpt><trkpt lat="45.831052" lon="9.446693"><time>2024-03-23T10:56:58.000Z</time><ele>1011.2</ele></trkpt><trkpt lat="45.831053" lon="9.446693"><time>2024-03-23T10:56:59.000Z</time><ele>1011</ele></trkpt><trkpt lat="45.831054" lon="9.446693"><time>2024-03-23T10:57:00.000Z</time><ele>1011</ele></trkpt><trkpt lat="45.831055" lon="9.446692"><time>2024-03-23T10:57:01.000Z</time><ele>1011</ele></trkpt><trkpt lat="45.831055" lon="9.446692"><time>2024-03-23T10:57:02.000Z</time><ele>1011</ele></trkpt><trkpt lat="45.831055" lon="9.446689"><time>2024-03-23T10:57:03.000Z</time><ele>1010.8</ele></trkpt><trkpt lat="45.831056" lon="9.446686"><time>2024-03-23T10:57:04.000Z</time><ele>1010.8</ele></trkpt><trkpt lat="45.831057" lon="9.446683"><time>2024-03-23T10:57:05.000Z</time><ele>1010.6</ele></trkpt><trkpt lat="45.831055" lon="9.446688"><time>2024-03-23T10:57:06.000Z</time><ele>1010.4</ele></trkpt><trkpt lat="45.831057" lon="9.446692"><time>2024-03-23T10:57:07.000Z</time><ele>1010.2</ele></trkpt><trkpt lat="45.831057" lon="9.446694"><time>2024-03-23T10:57:08.000Z</time><ele>1010.2</ele></trkpt><trkpt lat="45.831057" lon="9.446694"><time>2024-03-23T10:57:09.000Z</time><ele>1010</ele></trkpt><trkpt lat="45.831057" lon="9.446694"><time>2024-03-23T10:57:10.000Z</time><ele>1010</ele></trkpt><trkpt lat="45.831057" lon="9.446694"><time>2024-03-23T10:57:11.000Z</time><ele>1010</ele></trkpt><trkpt lat="45.831057" lon="9.446694"><time>2024-03-23T10:57:12.000Z</time><ele>1010</ele></trkpt><trkpt lat="45.831057" lon="9.446694"><time>2024-03-23T10:57:13.000Z</time><ele>1009.8</ele></trkpt><trkpt lat="45.831057" lon="9.446694"><time>2024-03-23T10:57:14.000Z</time><ele>1009.8</ele></trkpt><trkpt lat="45.831057" lon="9.446694"><time>2024-03-23T10:57:15.000Z</time><ele>1009.8</ele></trkpt><trkpt lat="45.831057" lon="9.446694"><time>2024-03-23T10:57:16.000Z</time><ele>1010</ele></trkpt><trkpt lat="45.831057" lon="9.446694"><time>2024-03-23T10:57:17.000Z</time><ele>1010.2</ele></trkpt><trkpt lat="45.831057" lon="9.446694"><time>2024-03-23T10:57:18.000Z</time><ele>1010.4</ele></trkpt><trkpt lat="45.831057" lon="9.446694"><time>2024-03-23T10:57:19.000Z</time><ele>1010.4</ele></trkpt><trkpt lat="45.831057" lon="9.446694"><time>2024-03-23T10:57:20.000Z</time><ele>1010.6</ele></trkpt><trkpt lat="45.831057" lon="9.446694"><time>2024-03-23T10:57:21.000Z</time><ele>1010.6</ele></trkpt><trkpt lat="45.831057" lon="9.446694"><time>2024-03-23T10:57:22.000Z</time><ele>1010.6</ele></trkpt><trkpt lat="45.831057" lon="9.446694"><time>2024-03-23T10:57:23.000Z</time><ele>1010.6</ele></trkpt><trkpt lat="45.83105" lon="9.446696"><time>2024-03-23T10:57:24.000Z</time><ele>1010.6</ele></trkpt><trkpt lat="45.831026" lon="9.446698"><time>2024-03-23T10:57:25.000Z</time><ele>1010.8</ele></trkpt><trkpt lat="45.831015" lon="9.446705"><time>2024-03-23T10:57:26.000Z</time><ele>1010.8</ele></trkpt><trkpt lat="45.831005" lon="9.44671"><time>2024-03-23T10:57:27.000Z</time><ele>1010.8</ele></trkpt><trkpt lat="45.830991" lon="9.446714"><time>2024-03-23T10:57:28.000Z</time><ele>1010.6</ele></trkpt><trkpt lat="45.830976" lon="9.446716"><time>2024-03-23T10:57:29.000Z</time><ele>1010.6</ele></trkpt><trkpt lat="45.830957" lon="9.44672"><time>2024-03-23T10:57:30.000Z</time><ele>1010.4</ele></trkpt><trkpt lat="45.830941" lon="9.446731"><time>2024-03-23T10:57:31.000Z</time><ele>1010.2</ele></trkpt><trkpt lat="45.830922" lon="9.44674"><time>2024-03-23T10:57:32.000Z</time><ele>1010</ele></trkpt><trkpt lat="45.830905" lon="9.446748"><time>2024-03-23T10:57:33.000Z</time><ele>1009.8</ele></trkpt><trkpt lat="45.830895" lon="9.446754"><time>2024-03-23T10:57:34.000Z</time><ele>1009.6</ele></trkpt><trkpt lat="45.830887" lon="9.446764"><time>2024-03-23T10:57:35.000Z</time><ele>1009.4</ele></trkpt><trkpt lat="45.830879" lon="9.446771"><time>2024-03-23T10:57:36.000Z</time><ele>1009.4</ele></trkpt><trkpt lat="45.830872" lon="9.446778"><time>2024-03-23T10:57:37.000Z</time><ele>1009.4</ele></trkpt><trkpt lat="45.830866" lon="9.446792"><time>2024-03-23T10:57:38.000Z</time><ele>1009.2</ele></trkpt><trkpt lat="45.830857" lon="9.446807"><time>2024-03-23T10:57:39.000Z</time><ele>1009.2</ele></trkpt><trkpt lat="45.830843" lon="9.446814"><time>2024-03-23T10:57:40.000Z</time><ele>1009.4</ele></trkpt><trkpt lat="45.830839" lon="9.446813"><time>2024-03-23T10:57:41.000Z</time><ele>1009.2</ele></trkpt><trkpt lat="45.830837" lon="9.446812"><time>2024-03-23T10:57:42.000Z</time><ele>1009</ele></trkpt><trkpt lat="45.830822" lon="9.446809"><time>2024-03-23T10:57:43.000Z</time><ele>1009</ele></trkpt><trkpt lat="45.830818" lon="9.446803"><time>2024-03-23T10:57:44.000Z</time><ele>1008.8</ele></trkpt><trkpt lat="45.830816" lon="9.446801"><time>2024-03-23T10:57:45.000Z</time><ele>1008.6</ele></trkpt><trkpt lat="45.830815" lon="9.446802"><time>2024-03-23T10:57:46.000Z</time><ele>1008.4</ele></trkpt><trkpt lat="45.830804" lon="9.446803"><time>2024-03-23T10:57:47.000Z</time><ele>1008.2</ele></trkpt><trkpt lat="45.830799" lon="9.446803"><time>2024-03-23T10:57:48.000Z</time><ele>1008.2</ele></trkpt><trkpt lat="45.830791" lon="9.446805"><time>2024-03-23T10:57:49.000Z</time><ele>1008</ele></trkpt><trkpt lat="45.830783" lon="9.446805"><time>2024-03-23T10:57:50.000Z</time><ele>1007.8</ele></trkpt><trkpt lat="45.83077" lon="9.446804"><time>2024-03-23T10:57:51.000Z</time><ele>1007.6</ele></trkpt><trkpt lat="45.830759" lon="9.446807"><time>2024-03-23T10:57:52.000Z</time><ele>1007.4</ele></trkpt><trkpt lat="45.830755" lon="9.446808"><time>2024-03-23T10:57:53.000Z</time><ele>1007.2</ele></trkpt><trkpt lat="45.830752" lon="9.446813"><time>2024-03-23T10:57:54.000Z</time><ele>1007</ele></trkpt><trkpt lat="45.830751" lon="9.446815"><time>2024-03-23T10:57:55.000Z</time><ele>1006.6</ele></trkpt><trkpt lat="45.830748" lon="9.446816"><time>2024-03-23T10:57:56.000Z</time><ele>1006.4</ele></trkpt><trkpt lat="45.830745" lon="9.446816"><time>2024-03-23T10:57:57.000Z</time><ele>1006.2</ele></trkpt><trkpt lat="45.830744" lon="9.446816"><time>2024-03-23T10:57:58.000Z</time><ele>1006.2</ele></trkpt><trkpt lat="45.830742" lon="9.446816"><time>2024-03-23T10:57:59.000Z</time><ele>1006.2</ele></trkpt><trkpt lat="45.830739" lon="9.446817"><time>2024-03-23T10:58:00.000Z</time><ele>1005.8</ele></trkpt><trkpt lat="45.830737" lon="9.446816"><time>2024-03-23T10:58:01.000Z</time><ele>1005.6</ele></trkpt><trkpt lat="45.830725" lon="9.446812"><time>2024-03-23T10:58:02.000Z</time><ele>1005.4</ele></trkpt><trkpt lat="45.830713" lon="9.446814"><time>2024-03-23T10:58:03.000Z</time><ele>1005.4</ele></trkpt><trkpt lat="45.830696" lon="9.446823"><time>2024-03-23T10:58:04.000Z</time><ele>1005.4</ele></trkpt><trkpt lat="45.830682" lon="9.446836"><time>2024-03-23T10:58:05.000Z</time><ele>1005.2</ele></trkpt><trkpt lat="45.830666" lon="9.446842"><time>2024-03-23T10:58:06.000Z</time><ele>1004.8</ele></trkpt><trkpt lat="45.830654" lon="9.44685"><time>2024-03-23T10:58:07.000Z</time><ele>1004.6</ele></trkpt><trkpt lat="45.830644" lon="9.446859"><time>2024-03-23T10:58:08.000Z</time><ele>1004.4</ele></trkpt><trkpt lat="45.830639" lon="9.446874"><time>2024-03-23T10:58:09.000Z</time><ele>1004.2</ele></trkpt><trkpt lat="45.830632" lon="9.446885"><time>2024-03-23T10:58:10.000Z</time><ele>1004.2</ele></trkpt><trkpt lat="45.830624" lon="9.446893"><time>2024-03-23T10:58:11.000Z</time><ele>1004.2</ele></trkpt><trkpt lat="45.830614" lon="9.446904"><time>2024-03-23T10:58:12.000Z</time><ele>1004.2</ele></trkpt><trkpt lat="45.8306" lon="9.446912"><time>2024-03-23T10:58:13.000Z</time><ele>1004.2</ele></trkpt><trkpt lat="45.830592" lon="9.446924"><time>2024-03-23T10:58:14.000Z</time><ele>1004.2</ele></trkpt><trkpt lat="45.830583" lon="9.446932"><time>2024-03-23T10:58:15.000Z</time><ele>1004.4</ele></trkpt><trkpt lat="45.830571" lon="9.44694"><time>2024-03-23T10:58:16.000Z</time><ele>1004.4</ele></trkpt><trkpt lat="45.830563" lon="9.446944"><time>2024-03-23T10:58:17.000Z</time><ele>1004.6</ele></trkpt><trkpt lat="45.830555" lon="9.446947"><time>2024-03-23T10:58:18.000Z</time><ele>1004.6</ele></trkpt><trkpt lat="45.830552" lon="9.446955"><time>2024-03-23T10:58:19.000Z</time><ele>1004.6</ele></trkpt><trkpt lat="45.83055" lon="9.446956"><time>2024-03-23T10:58:20.000Z</time><ele>1004.4</ele></trkpt><trkpt lat="45.830538" lon="9.446948"><time>2024-03-23T10:58:21.000Z</time><ele>1004.2</ele></trkpt><trkpt lat="45.830532" lon="9.446953"><time>2024-03-23T10:58:22.000Z</time><ele>1004</ele></trkpt><trkpt lat="45.830528" lon="9.446964"><time>2024-03-23T10:58:23.000Z</time><ele>1003.8</ele></trkpt><trkpt lat="45.830523" lon="9.446974"><time>2024-03-23T10:58:24.000Z</time><ele>1003.6</ele></trkpt><trkpt lat="45.830521" lon="9.446979"><time>2024-03-23T10:58:25.000Z</time><ele>1003.4</ele></trkpt><trkpt lat="45.830518" lon="9.446979"><time>2024-03-23T10:58:26.000Z</time><ele>1003.2</ele></trkpt><trkpt lat="45.83051" lon="9.446986"><time>2024-03-23T10:58:27.000Z</time><ele>1003.2</ele></trkpt><trkpt lat="45.830507" lon="9.446986"><time>2024-03-23T10:58:28.000Z</time><ele>1002.8</ele></trkpt><trkpt lat="45.830498" lon="9.446989"><time>2024-03-23T10:58:29.000Z</time><ele>1002.8</ele></trkpt><trkpt lat="45.830486" lon="9.446989"><time>2024-03-23T10:58:30.000Z</time><ele>1002.6</ele></trkpt><trkpt lat="45.830478" lon="9.446992"><time>2024-03-23T10:58:31.000Z</time><ele>1002.6</ele></trkpt><trkpt lat="45.830477" lon="9.44699"><time>2024-03-23T10:58:32.000Z</time><ele>1002.4</ele></trkpt><trkpt lat="45.830477" lon="9.447"><time>2024-03-23T10:58:33.000Z</time><ele>1002</ele></trkpt><trkpt lat="45.830477" lon="9.447002"><time>2024-03-23T10:58:34.000Z</time><ele>1001.8</ele></trkpt><trkpt lat="45.830478" lon="9.447005"><time>2024-03-23T10:58:35.000Z</time><ele>1001.6</ele></trkpt><trkpt lat="45.830477" lon="9.447006"><time>2024-03-23T10:58:36.000Z</time><ele>1001.4</ele></trkpt><trkpt lat="45.830478" lon="9.447009"><time>2024-03-23T10:58:37.000Z</time><ele>1001.2</ele></trkpt><trkpt lat="45.830478" lon="9.447011"><time>2024-03-23T10:58:38.000Z</time><ele>1001</ele></trkpt><trkpt lat="45.830462" lon="9.446996"><time>2024-03-23T10:58:39.000Z</time><ele>1001</ele></trkpt><trkpt lat="45.830461" lon="9.446994"><time>2024-03-23T10:58:40.000Z</time><ele>1001</ele></trkpt><trkpt lat="45.830461" lon="9.446993"><time>2024-03-23T10:58:41.000Z</time><ele>1001</ele></trkpt><trkpt lat="45.830461" lon="9.446993"><time>2024-03-23T10:58:42.000Z</time><ele>1001</ele></trkpt><trkpt lat="45.830461" lon="9.446993"><time>2024-03-23T10:58:43.000Z</time><ele>1001</ele></trkpt><trkpt lat="45.830461" lon="9.446993"><time>2024-03-23T10:58:44.000Z</time><ele>1001</ele></trkpt><trkpt lat="45.830461" lon="9.446993"><time>2024-03-23T10:58:45.000Z</time><ele>1001</ele></trkpt><trkpt lat="45.830461" lon="9.446993"><time>2024-03-23T10:58:46.000Z</time><ele>1001</ele></trkpt><trkpt lat="45.830461" lon="9.446993"><time>2024-03-23T10:58:47.000Z</time><ele>1001</ele></trkpt><trkpt lat="45.830461" lon="9.446993"><time>2024-03-23T10:58:48.000Z</time><ele>1001</ele></trkpt><trkpt lat="45.830461" lon="9.446993"><time>2024-03-23T10:58:49.000Z</time><ele>1001</ele></trkpt><trkpt lat="45.830461" lon="9.446993"><time>2024-03-23T10:58:50.000Z</time><ele>1001</ele></trkpt><trkpt lat="45.830461" lon="9.446993"><time>2024-03-23T10:58:51.000Z</time><ele>1001</ele></trkpt><trkpt lat="45.830461" lon="9.446993"><time>2024-03-23T10:58:52.000Z</time><ele>1001</ele></trkpt><trkpt lat="45.830461" lon="9.446993"><time>2024-03-23T10:58:53.000Z</time><ele>1001</ele></trkpt><trkpt lat="45.830461" lon="9.446993"><time>2024-03-23T10:58:54.000Z</time><ele>1000.8</ele></trkpt><trkpt lat="45.830461" lon="9.446993"><time>2024-03-23T10:58:55.000Z</time><ele>1001</ele></trkpt><trkpt lat="45.830461" lon="9.446993"><time>2024-03-23T10:58:56.000Z</time><ele>1001</ele></trkpt><trkpt lat="45.83046" lon="9.446993"><time>2024-03-23T10:58:57.000Z</time><ele>1001</ele></trkpt><trkpt lat="45.830458" lon="9.446993"><time>2024-03-23T10:58:58.000Z</time><ele>1001</ele></trkpt><trkpt lat="45.830454" lon="9.446992"><time>2024-03-23T10:58:59.000Z</time><ele>1000.8</ele></trkpt><trkpt lat="45.830454" lon="9.446992"><time>2024-03-23T10:59:00.000Z</time><ele>1000.8</ele></trkpt><trkpt lat="45.830454" lon="9.446992"><time>2024-03-23T10:59:01.000Z</time><ele>1000.8</ele></trkpt><trkpt lat="45.830454" lon="9.446992"><time>2024-03-23T10:59:02.000Z</time><ele>1000.8</ele></trkpt><trkpt lat="45.830454" lon="9.446992"><time>2024-03-23T10:59:03.000Z</time><ele>1000.8</ele></trkpt><trkpt lat="45.830454" lon="9.446992"><time>2024-03-23T10:59:04.000Z</time><ele>1000.6</ele></trkpt><trkpt lat="45.830454" lon="9.446992"><time>2024-03-23T10:59:05.000Z</time><ele>1000.6</ele></trkpt><trkpt lat="45.830454" lon="9.446992"><time>2024-03-23T10:59:06.000Z</time><ele>1000.6</ele></trkpt><trkpt lat="45.830454" lon="9.446992"><time>2024-03-23T10:59:07.000Z</time><ele>1000.6</ele></trkpt><trkpt lat="45.830454" lon="9.446992"><time>2024-03-23T10:59:08.000Z</time><ele>1000.6</ele></trkpt><trkpt lat="45.830454" lon="9.446992"><time>2024-03-23T10:59:09.000Z</time><ele>1000.6</ele></trkpt><trkpt lat="45.830454" lon="9.446992"><time>2024-03-23T10:59:10.000Z</time><ele>1000.6</ele></trkpt><trkpt lat="45.830454" lon="9.446992"><time>2024-03-23T10:59:11.000Z</time><ele>1000.6</ele></trkpt><trkpt lat="45.830453" lon="9.446992"><time>2024-03-23T10:59:12.000Z</time><ele>1000.4</ele></trkpt><trkpt lat="45.830453" lon="9.446992"><time>2024-03-23T10:59:13.000Z</time><ele>1000.4</ele></trkpt><trkpt lat="45.830453" lon="9.446992"><time>2024-03-23T10:59:14.000Z</time><ele>1000.2</ele></trkpt><trkpt lat="45.830453" lon="9.446992"><time>2024-03-23T10:59:15.000Z</time><ele>1000</ele></trkpt><trkpt lat="45.830453" lon="9.446992"><time>2024-03-23T10:59:16.000Z</time><ele>999.8</ele></trkpt><trkpt lat="45.830453" lon="9.446992"><time>2024-03-23T10:59:17.000Z</time><ele>999.6</ele></trkpt><trkpt lat="45.830453" lon="9.446992"><time>2024-03-23T10:59:18.000Z</time><ele>999.4</ele></trkpt><trkpt lat="45.830452" lon="9.446993"><time>2024-03-23T10:59:19.000Z</time><ele>999.2</ele></trkpt><trkpt lat="45.830452" lon="9.446993"><time>2024-03-23T10:59:20.000Z</time><ele>999</ele></trkpt><trkpt lat="45.830452" lon="9.446994"><time>2024-03-23T10:59:21.000Z</time><ele>998.8</ele></trkpt><trkpt lat="45.830452" lon="9.446994"><time>2024-03-23T10:59:22.000Z</time><ele>998.8</ele></trkpt><trkpt lat="45.830452" lon="9.446995"><time>2024-03-23T10:59:23.000Z</time><ele>998.6</ele></trkpt><trkpt lat="45.830452" lon="9.446995"><time>2024-03-23T10:59:24.000Z</time><ele>998.6</ele></trkpt><trkpt lat="45.83045" lon="9.446996"><time>2024-03-23T10:59:25.000Z</time><ele>998.4</ele></trkpt><trkpt lat="45.830447" lon="9.446996"><time>2024-03-23T10:59:26.000Z</time><ele>998.4</ele></trkpt><trkpt lat="45.830438" lon="9.446996"><time>2024-03-23T10:59:27.000Z</time><ele>998.4</ele></trkpt><trkpt lat="45.830429" lon="9.446997"><time>2024-03-23T10:59:28.000Z</time><ele>998.4</ele></trkpt><trkpt lat="45.83042" lon="9.446998"><time>2024-03-23T10:59:29.000Z</time><ele>998.4</ele></trkpt><trkpt lat="45.830412" lon="9.447"><time>2024-03-23T10:59:30.000Z</time><ele>998.4</ele></trkpt><trkpt lat="45.830404" lon="9.447002"><time>2024-03-23T10:59:31.000Z</time><ele>998.4</ele></trkpt><trkpt lat="45.830399" lon="9.447009"><time>2024-03-23T10:59:32.000Z</time><ele>998.4</ele></trkpt><trkpt lat="45.830395" lon="9.447013"><time>2024-03-23T10:59:33.000Z</time><ele>998.2</ele></trkpt><trkpt lat="45.830392" lon="9.447014"><time>2024-03-23T10:59:34.000Z</time><ele>998</ele></trkpt><trkpt lat="45.830391" lon="9.447015"><time>2024-03-23T10:59:35.000Z</time><ele>998</ele></trkpt><trkpt lat="45.83039" lon="9.447016"><time>2024-03-23T10:59:36.000Z</time><ele>997.8</ele></trkpt><trkpt lat="45.83039" lon="9.447019"><time>2024-03-23T10:59:37.000Z</time><ele>997.6</ele></trkpt><trkpt lat="45.830389" lon="9.44702"><time>2024-03-23T10:59:38.000Z</time><ele>997.6</ele></trkpt><trkpt lat="45.830389" lon="9.447022"><time>2024-03-23T10:59:39.000Z</time><ele>997.4</ele></trkpt><trkpt lat="45.830389" lon="9.447024"><time>2024-03-23T10:59:40.000Z</time><ele>997.2</ele></trkpt><trkpt lat="45.830388" lon="9.447029"><time>2024-03-23T10:59:41.000Z</time><ele>997</ele></trkpt><trkpt lat="45.830388" lon="9.447032"><time>2024-03-23T10:59:42.000Z</time><ele>997</ele></trkpt><trkpt lat="45.830388" lon="9.447035"><time>2024-03-23T10:59:43.000Z</time><ele>996.8</ele></trkpt><trkpt lat="45.830387" lon="9.447036"><time>2024-03-23T10:59:44.000Z</time><ele>996.6</ele></trkpt><trkpt lat="45.830387" lon="9.44704"><time>2024-03-23T10:59:45.000Z</time><ele>996.4</ele></trkpt><trkpt lat="45.830386" lon="9.447042"><time>2024-03-23T10:59:46.000Z</time><ele>996</ele></trkpt><trkpt lat="45.830386" lon="9.447045"><time>2024-03-23T10:59:47.000Z</time><ele>996</ele></trkpt><trkpt lat="45.830385" lon="9.447046"><time>2024-03-23T10:59:48.000Z</time><ele>995.8</ele></trkpt><trkpt lat="45.830385" lon="9.447047"><time>2024-03-23T10:59:49.000Z</time><ele>995.8</ele></trkpt><trkpt lat="45.830375" lon="9.447048"><time>2024-03-23T10:59:50.000Z</time><ele>995.8</ele></trkpt><trkpt lat="45.830367" lon="9.447049"><time>2024-03-23T10:59:51.000Z</time><ele>995.8</ele></trkpt><trkpt lat="45.830364" lon="9.44705"><time>2024-03-23T10:59:52.000Z</time><ele>995.8</ele></trkpt><trkpt lat="45.830362" lon="9.44705"><time>2024-03-23T10:59:53.000Z</time><ele>995.8</ele></trkpt><trkpt lat="45.83036" lon="9.447051"><time>2024-03-23T10:59:54.000Z</time><ele>995.8</ele></trkpt><trkpt lat="45.830356" lon="9.447051"><time>2024-03-23T10:59:55.000Z</time><ele>995.6</ele></trkpt><trkpt lat="45.830354" lon="9.447051"><time>2024-03-23T10:59:56.000Z</time><ele>995.4</ele></trkpt><trkpt lat="45.830352" lon="9.447051"><time>2024-03-23T10:59:57.000Z</time><ele>995.2</ele></trkpt><trkpt lat="45.830349" lon="9.447051"><time>2024-03-23T10:59:58.000Z</time><ele>995.2</ele></trkpt><trkpt lat="45.830346" lon="9.447051"><time>2024-03-23T10:59:59.000Z</time><ele>995.2</ele></trkpt><trkpt lat="45.830344" lon="9.447052"><time>2024-03-23T11:00:00.000Z</time><ele>995</ele></trkpt><trkpt lat="45.830343" lon="9.447052"><time>2024-03-23T11:00:01.000Z</time><ele>994.8</ele></trkpt><trkpt lat="45.830342" lon="9.447052"><time>2024-03-23T11:00:02.000Z</time><ele>994.6</ele></trkpt><trkpt lat="45.830341" lon="9.447053"><time>2024-03-23T11:00:03.000Z</time><ele>994.4</ele></trkpt><trkpt lat="45.83034" lon="9.447053"><time>2024-03-23T11:00:04.000Z</time><ele>994.2</ele></trkpt><trkpt lat="45.830339" lon="9.447053"><time>2024-03-23T11:00:05.000Z</time><ele>994</ele></trkpt><trkpt lat="45.830338" lon="9.447053"><time>2024-03-23T11:00:06.000Z</time><ele>993.8</ele></trkpt><trkpt lat="45.830338" lon="9.447053"><time>2024-03-23T11:00:07.000Z</time><ele>993.6</ele></trkpt><trkpt lat="45.830338" lon="9.447054"><time>2024-03-23T11:00:08.000Z</time><ele>993.6</ele></trkpt><trkpt lat="45.830335" lon="9.447054"><time>2024-03-23T11:00:09.000Z</time><ele>993.4</ele></trkpt><trkpt lat="45.830329" lon="9.447054"><time>2024-03-23T11:00:10.000Z</time><ele>993.4</ele></trkpt><trkpt lat="45.830322" lon="9.447054"><time>2024-03-23T11:00:11.000Z</time><ele>993.4</ele></trkpt><trkpt lat="45.830314" lon="9.447054"><time>2024-03-23T11:00:12.000Z</time><ele>993.4</ele></trkpt><trkpt lat="45.830306" lon="9.447053"><time>2024-03-23T11:00:13.000Z</time><ele>993.2</ele></trkpt><trkpt lat="45.830303" lon="9.447053"><time>2024-03-23T11:00:14.000Z</time><ele>993.2</ele></trkpt><trkpt lat="45.830298" lon="9.447053"><time>2024-03-23T11:00:15.000Z</time><ele>993.2</ele></trkpt><trkpt lat="45.830294" lon="9.447053"><time>2024-03-23T11:00:16.000Z</time><ele>993</ele></trkpt><trkpt lat="45.830291" lon="9.447053"><time>2024-03-23T11:00:17.000Z</time><ele>992.8</ele></trkpt><trkpt lat="45.830289" lon="9.447053"><time>2024-03-23T11:00:18.000Z</time><ele>992.8</ele></trkpt><trkpt lat="45.830288" lon="9.447053"><time>2024-03-23T11:00:19.000Z</time><ele>992.6</ele></trkpt><trkpt lat="45.830286" lon="9.447053"><time>2024-03-23T11:00:20.000Z</time><ele>992.6</ele></trkpt><trkpt lat="45.830286" lon="9.447053"><time>2024-03-23T11:00:21.000Z</time><ele>992.4</ele></trkpt><trkpt lat="45.830285" lon="9.447053"><time>2024-03-23T11:00:22.000Z</time><ele>992.2</ele></trkpt><trkpt lat="45.830285" lon="9.447052"><time>2024-03-23T11:00:23.000Z</time><ele>992.2</ele></trkpt><trkpt lat="45.830284" lon="9.447052"><time>2024-03-23T11:00:24.000Z</time><ele>992</ele></trkpt><trkpt lat="45.830283" lon="9.447052"><time>2024-03-23T11:00:25.000Z</time><ele>992</ele></trkpt><trkpt lat="45.830283" lon="9.447052"><time>2024-03-23T11:00:26.000Z</time><ele>991.8</ele></trkpt><trkpt lat="45.830283" lon="9.447052"><time>2024-03-23T11:00:27.000Z</time><ele>991.8</ele></trkpt><trkpt lat="45.830282" lon="9.447052"><time>2024-03-23T11:00:28.000Z</time><ele>991.6</ele></trkpt><trkpt lat="45.830282" lon="9.447051"><time>2024-03-23T11:00:29.000Z</time><ele>991.2</ele></trkpt><trkpt lat="45.830281" lon="9.44705"><time>2024-03-23T11:00:30.000Z</time><ele>991</ele></trkpt><trkpt lat="45.830281" lon="9.447049"><time>2024-03-23T11:00:31.000Z</time><ele>990.6</ele></trkpt><trkpt lat="45.83028" lon="9.447049"><time>2024-03-23T11:00:32.000Z</time><ele>990.4</ele></trkpt><trkpt lat="45.830278" lon="9.447049"><time>2024-03-23T11:00:33.000Z</time><ele>990.2</ele></trkpt><trkpt lat="45.830277" lon="9.447049"><time>2024-03-23T11:00:34.000Z</time><ele>990</ele></trkpt><trkpt lat="45.830274" lon="9.447049"><time>2024-03-23T11:00:35.000Z</time><ele>989.8</ele></trkpt><trkpt lat="45.830272" lon="9.447048"><time>2024-03-23T11:00:36.000Z</time><ele>989.6</ele></trkpt><trkpt lat="45.830266" lon="9.447048"><time>2024-03-23T11:00:37.000Z</time><ele>989.2</ele></trkpt><trkpt lat="45.830263" lon="9.447048"><time>2024-03-23T11:00:38.000Z</time><ele>989</ele></trkpt><trkpt lat="45.830259" lon="9.447048"><time>2024-03-23T11:00:39.000Z</time><ele>988.8</ele></trkpt><trkpt lat="45.830257" lon="9.447047"><time>2024-03-23T11:00:40.000Z</time><ele>988.6</ele></trkpt><trkpt lat="45.830255" lon="9.447047"><time>2024-03-23T11:00:41.000Z</time><ele>988.6</ele></trkpt><trkpt lat="45.830251" lon="9.447047"><time>2024-03-23T11:00:42.000Z</time><ele>988.4</ele></trkpt><trkpt lat="45.830247" lon="9.447047"><time>2024-03-23T11:00:43.000Z</time><ele>988</ele></trkpt><trkpt lat="45.830241" lon="9.447046"><time>2024-03-23T11:00:44.000Z</time><ele>987.8</ele></trkpt><trkpt lat="45.830236" lon="9.447045"><time>2024-03-23T11:00:45.000Z</time><ele>987.4</ele></trkpt><trkpt lat="45.830232" lon="9.447045"><time>2024-03-23T11:00:46.000Z</time><ele>987.4</ele></trkpt><trkpt lat="45.830228" lon="9.447041"><time>2024-03-23T11:00:47.000Z</time><ele>987</ele></trkpt><trkpt lat="45.830223" lon="9.447036"><time>2024-03-23T11:00:48.000Z</time><ele>987</ele></trkpt><trkpt lat="45.83022" lon="9.447032"><time>2024-03-23T11:00:49.000Z</time><ele>986.8</ele></trkpt><trkpt lat="45.830216" lon="9.44703"><time>2024-03-23T11:00:50.000Z</time><ele>986.8</ele></trkpt><trkpt lat="45.830212" lon="9.447028"><time>2024-03-23T11:00:51.000Z</time><ele>986.6</ele></trkpt><trkpt lat="45.830209" lon="9.447024"><time>2024-03-23T11:00:52.000Z</time><ele>986.4</ele></trkpt><trkpt lat="45.830207" lon="9.447018"><time>2024-03-23T11:00:53.000Z</time><ele>986.2</ele></trkpt><trkpt lat="45.830206" lon="9.447014"><time>2024-03-23T11:00:54.000Z</time><ele>986.2</ele></trkpt><trkpt lat="45.830205" lon="9.447012"><time>2024-03-23T11:00:55.000Z</time><ele>986</ele></trkpt><trkpt lat="45.830203" lon="9.44701"><time>2024-03-23T11:00:56.000Z</time><ele>986</ele></trkpt><trkpt lat="45.830202" lon="9.447009"><time>2024-03-23T11:00:57.000Z</time><ele>985.8</ele></trkpt><trkpt lat="45.830201" lon="9.447008"><time>2024-03-23T11:00:58.000Z</time><ele>985.8</ele></trkpt><trkpt lat="45.8302" lon="9.447008"><time>2024-03-23T11:00:59.000Z</time><ele>985.8</ele></trkpt><trkpt lat="45.830197" lon="9.447008"><time>2024-03-23T11:01:00.000Z</time><ele>985.6</ele></trkpt><trkpt lat="45.830191" lon="9.447007"><time>2024-03-23T11:01:01.000Z</time><ele>985.6</ele></trkpt><trkpt lat="45.830182" lon="9.447007"><time>2024-03-23T11:01:02.000Z</time><ele>985.6</ele></trkpt><trkpt lat="45.830174" lon="9.447007"><time>2024-03-23T11:01:03.000Z</time><ele>985.4</ele></trkpt><trkpt lat="45.830165" lon="9.447007"><time>2024-03-23T11:01:04.000Z</time><ele>985.4</ele></trkpt><trkpt lat="45.830156" lon="9.447007"><time>2024-03-23T11:01:05.000Z</time><ele>985.4</ele></trkpt><trkpt lat="45.830149" lon="9.447007"><time>2024-03-23T11:01:06.000Z</time><ele>985.4</ele></trkpt><trkpt lat="45.830145" lon="9.447007"><time>2024-03-23T11:01:07.000Z</time><ele>985.4</ele></trkpt><trkpt lat="45.83014" lon="9.447007"><time>2024-03-23T11:01:08.000Z</time><ele>985.6</ele></trkpt><trkpt lat="45.830137" lon="9.447008"><time>2024-03-23T11:01:09.000Z</time><ele>985.6</ele></trkpt><trkpt lat="45.830135" lon="9.447009"><time>2024-03-23T11:01:10.000Z</time><ele>985.6</ele></trkpt><trkpt lat="45.830133" lon="9.447011"><time>2024-03-23T11:01:11.000Z</time><ele>985.6</ele></trkpt><trkpt lat="45.830131" lon="9.447013"><time>2024-03-23T11:01:12.000Z</time><ele>985.2</ele></trkpt><trkpt lat="45.83013" lon="9.447015"><time>2024-03-23T11:01:13.000Z</time><ele>985</ele></trkpt><trkpt lat="45.830129" lon="9.447018"><time>2024-03-23T11:01:14.000Z</time><ele>985</ele></trkpt><trkpt lat="45.830128" lon="9.447021"><time>2024-03-23T11:01:15.000Z</time><ele>984.8</ele></trkpt><trkpt lat="45.830127" lon="9.447026"><time>2024-03-23T11:01:16.000Z</time><ele>984.4</ele></trkpt><trkpt lat="45.830127" lon="9.447032"><time>2024-03-23T11:01:17.000Z</time><ele>984</ele></trkpt><trkpt lat="45.830126" lon="9.447037"><time>2024-03-23T11:01:18.000Z</time><ele>983.8</ele></trkpt><trkpt lat="45.830125" lon="9.447042"><time>2024-03-23T11:01:19.000Z</time><ele>983.4</ele></trkpt><trkpt lat="45.830125" lon="9.447046"><time>2024-03-23T11:01:20.000Z</time><ele>983.2</ele></trkpt><trkpt lat="45.830124" lon="9.447049"><time>2024-03-23T11:01:21.000Z</time><ele>983.2</ele></trkpt><trkpt lat="45.830123" lon="9.447051"><time>2024-03-23T11:01:22.000Z</time><ele>983</ele></trkpt><trkpt lat="45.830123" lon="9.447053"><time>2024-03-23T11:01:23.000Z</time><ele>982.8</ele></trkpt><trkpt lat="45.830122" lon="9.447055"><time>2024-03-23T11:01:24.000Z</time><ele>982.6</ele></trkpt><trkpt lat="45.830121" lon="9.447057"><time>2024-03-23T11:01:25.000Z</time><ele>982.6</ele></trkpt><trkpt lat="45.83012" lon="9.447058"><time>2024-03-23T11:01:26.000Z</time><ele>982.2</ele></trkpt><trkpt lat="45.830119" lon="9.44706"><time>2024-03-23T11:01:27.000Z</time><ele>982</ele></trkpt><trkpt lat="45.830117" lon="9.447061"><time>2024-03-23T11:01:28.000Z</time><ele>981.6</ele></trkpt><trkpt lat="45.830114" lon="9.447062"><time>2024-03-23T11:01:29.000Z</time><ele>981.4</ele></trkpt><trkpt lat="45.83011" lon="9.447062"><time>2024-03-23T11:01:30.000Z</time><ele>981.4</ele></trkpt><trkpt lat="45.830106" lon="9.447063"><time>2024-03-23T11:01:31.000Z</time><ele>981</ele></trkpt><trkpt lat="45.830102" lon="9.447063"><time>2024-03-23T11:01:32.000Z</time><ele>980.8</ele></trkpt><trkpt lat="45.830098" lon="9.447064"><time>2024-03-23T11:01:33.000Z</time><ele>980.6</ele></trkpt><trkpt lat="45.830095" lon="9.447064"><time>2024-03-23T11:01:34.000Z</time><ele>980.4</ele></trkpt><trkpt lat="45.830091" lon="9.447064"><time>2024-03-23T11:01:35.000Z</time><ele>980</ele></trkpt><trkpt lat="45.830087" lon="9.447064"><time>2024-03-23T11:01:36.000Z</time><ele>979.6</ele></trkpt><trkpt lat="45.830082" lon="9.447065"><time>2024-03-23T11:01:37.000Z</time><ele>979.2</ele></trkpt><trkpt lat="45.830076" lon="9.447065"><time>2024-03-23T11:01:38.000Z</time><ele>979</ele></trkpt><trkpt lat="45.83007" lon="9.447064"><time>2024-03-23T11:01:39.000Z</time><ele>978.8</ele></trkpt><trkpt lat="45.830065" lon="9.447064"><time>2024-03-23T11:01:40.000Z</time><ele>978.6</ele></trkpt><trkpt lat="45.83006" lon="9.447064"><time>2024-03-23T11:01:41.000Z</time><ele>978.6</ele></trkpt><trkpt lat="45.830054" lon="9.447063"><time>2024-03-23T11:01:42.000Z</time><ele>978.6</ele></trkpt><trkpt lat="45.830049" lon="9.447063"><time>2024-03-23T11:01:43.000Z</time><ele>978.4</ele></trkpt><trkpt lat="45.830043" lon="9.447062"><time>2024-03-23T11:01:44.000Z</time><ele>978.4</ele></trkpt><trkpt lat="45.830038" lon="9.447061"><time>2024-03-23T11:01:45.000Z</time><ele>978.2</ele></trkpt><trkpt lat="45.830033" lon="9.44706"><time>2024-03-23T11:01:46.000Z</time><ele>978.2</ele></trkpt><trkpt lat="45.830028" lon="9.44706"><time>2024-03-23T11:01:47.000Z</time><ele>978</ele></trkpt><trkpt lat="45.830023" lon="9.447059"><time>2024-03-23T11:01:48.000Z</time><ele>978</ele></trkpt><trkpt lat="45.830019" lon="9.447058"><time>2024-03-23T11:01:49.000Z</time><ele>977.8</ele></trkpt><trkpt lat="45.830014" lon="9.447058"><time>2024-03-23T11:01:50.000Z</time><ele>977.6</ele></trkpt><trkpt lat="45.83001" lon="9.447057"><time>2024-03-23T11:01:51.000Z</time><ele>977.4</ele></trkpt><trkpt lat="45.830005" lon="9.447057"><time>2024-03-23T11:01:52.000Z</time><ele>977.4</ele></trkpt><trkpt lat="45.830001" lon="9.447056"><time>2024-03-23T11:01:53.000Z</time><ele>977</ele></trkpt><trkpt lat="45.829998" lon="9.447056"><time>2024-03-23T11:01:54.000Z</time><ele>976.6</ele></trkpt><trkpt lat="45.829995" lon="9.447055"><time>2024-03-23T11:01:55.000Z</time><ele>976.2</ele></trkpt><trkpt lat="45.829993" lon="9.447055"><time>2024-03-23T11:01:56.000Z</time><ele>975.8</ele></trkpt><trkpt lat="45.829991" lon="9.447054"><time>2024-03-23T11:01:57.000Z</time><ele>975.4</ele></trkpt><trkpt lat="45.829989" lon="9.447054"><time>2024-03-23T11:01:58.000Z</time><ele>975.2</ele></trkpt><trkpt lat="45.829988" lon="9.447054"><time>2024-03-23T11:01:59.000Z</time><ele>975</ele></trkpt><trkpt lat="45.829987" lon="9.447053"><time>2024-03-23T11:02:00.000Z</time><ele>974.8</ele></trkpt><trkpt lat="45.829986" lon="9.447053"><time>2024-03-23T11:02:01.000Z</time><ele>974.8</ele></trkpt><trkpt lat="45.829986" lon="9.447053"><time>2024-03-23T11:02:02.000Z</time><ele>974.6</ele></trkpt><trkpt lat="45.829986" lon="9.447053"><time>2024-03-23T11:02:03.000Z</time><ele>974.6</ele></trkpt><trkpt lat="45.829986" lon="9.447053"><time>2024-03-23T11:02:04.000Z</time><ele>974.4</ele></trkpt><trkpt lat="45.829986" lon="9.447053"><time>2024-03-23T11:02:05.000Z</time><ele>974.4</ele></trkpt><trkpt lat="45.829986" lon="9.447053"><time>2024-03-23T11:02:06.000Z</time><ele>974.4</ele></trkpt><trkpt lat="45.829986" lon="9.447053"><time>2024-03-23T11:02:07.000Z</time><ele>974.4</ele></trkpt><trkpt lat="45.829985" lon="9.447053"><time>2024-03-23T11:02:08.000Z</time><ele>974.4</ele></trkpt><trkpt lat="45.829985" lon="9.447053"><time>2024-03-23T11:02:09.000Z</time><ele>974.4</ele></trkpt><trkpt lat="45.829985" lon="9.447053"><time>2024-03-23T11:02:10.000Z</time><ele>974.4</ele></trkpt><trkpt lat="45.829984" lon="9.447053"><time>2024-03-23T11:02:11.000Z</time><ele>974</ele></trkpt><trkpt lat="45.829984" lon="9.447053"><time>2024-03-23T11:02:12.000Z</time><ele>974</ele></trkpt><trkpt lat="45.829984" lon="9.447053"><time>2024-03-23T11:02:13.000Z</time><ele>973.8</ele></trkpt><trkpt lat="45.829983" lon="9.447053"><time>2024-03-23T11:02:14.000Z</time><ele>973.8</ele></trkpt><trkpt lat="45.829983" lon="9.447053"><time>2024-03-23T11:02:15.000Z</time><ele>973.8</ele></trkpt><trkpt lat="45.829983" lon="9.447053"><time>2024-03-23T11:02:16.000Z</time><ele>973.8</ele></trkpt><trkpt lat="45.829983" lon="9.447053"><time>2024-03-23T11:02:17.000Z</time><ele>973.8</ele></trkpt><trkpt lat="45.829983" lon="9.447053"><time>2024-03-23T11:02:18.000Z</time><ele>973.8</ele></trkpt><trkpt lat="45.829982" lon="9.447053"><time>2024-03-23T11:02:19.000Z</time><ele>973.6</ele></trkpt><trkpt lat="45.829982" lon="9.447053"><time>2024-03-23T11:02:20.000Z</time><ele>973.6</ele></trkpt><trkpt lat="45.829981" lon="9.447054"><time>2024-03-23T11:02:21.000Z</time><ele>973.2</ele></trkpt><trkpt lat="45.829981" lon="9.447054"><time>2024-03-23T11:02:22.000Z</time><ele>973</ele></trkpt><trkpt lat="45.829981" lon="9.447054"><time>2024-03-23T11:02:23.000Z</time><ele>973</ele></trkpt><trkpt lat="45.82998" lon="9.447054"><time>2024-03-23T11:02:24.000Z</time><ele>972.8</ele></trkpt><trkpt lat="45.82998" lon="9.447053"><time>2024-03-23T11:02:25.000Z</time><ele>972.6</ele></trkpt><trkpt lat="45.82998" lon="9.447053"><time>2024-03-23T11:02:26.000Z</time><ele>972.4</ele></trkpt><trkpt lat="45.82998" lon="9.447053"><time>2024-03-23T11:02:27.000Z</time><ele>972.2</ele></trkpt><trkpt lat="45.829979" lon="9.447054"><time>2024-03-23T11:02:28.000Z</time><ele>972</ele></trkpt><trkpt lat="45.829979" lon="9.447054"><time>2024-03-23T11:02:29.000Z</time><ele>971.6</ele></trkpt><trkpt lat="45.829978" lon="9.447054"><time>2024-03-23T11:02:30.000Z</time><ele>971.4</ele></trkpt><trkpt lat="45.829978" lon="9.447054"><time>2024-03-23T11:02:31.000Z</time><ele>971.2</ele></trkpt><trkpt lat="45.829978" lon="9.447054"><time>2024-03-23T11:02:32.000Z</time><ele>971</ele></trkpt><trkpt lat="45.829977" lon="9.447054"><time>2024-03-23T11:02:33.000Z</time><ele>970.8</ele></trkpt><trkpt lat="45.829959" lon="9.447052"><time>2024-03-23T11:02:34.000Z</time><ele>970.6</ele></trkpt><trkpt lat="45.829937" lon="9.447054"><time>2024-03-23T11:02:35.000Z</time><ele>970.4</ele></trkpt><trkpt lat="45.829916" lon="9.447055"><time>2024-03-23T11:02:36.000Z</time><ele>970.2</ele></trkpt><trkpt lat="45.829894" lon="9.447053"><time>2024-03-23T11:02:37.000Z</time><ele>969.8</ele></trkpt><trkpt lat="45.829871" lon="9.447047"><time>2024-03-23T11:02:38.000Z</time><ele>969.6</ele></trkpt><trkpt lat="45.829845" lon="9.447045"><time>2024-03-23T11:02:39.000Z</time><ele>969.6</ele></trkpt><trkpt lat="45.829818" lon="9.447044"><time>2024-03-23T11:02:40.000Z</time><ele>969.2</ele></trkpt><trkpt lat="45.829791" lon="9.447042"><time>2024-03-23T11:02:41.000Z</time><ele>969</ele></trkpt><trkpt lat="45.829766" lon="9.447036"><time>2024-03-23T11:02:42.000Z</time><ele>969</ele></trkpt><trkpt lat="45.829741" lon="9.447029"><time>2024-03-23T11:02:43.000Z</time><ele>968.6</ele></trkpt><trkpt lat="45.829734" lon="9.447025"><time>2024-03-23T11:02:44.000Z</time><ele>968.4</ele></trkpt><trkpt lat="45.829727" lon="9.44702"><time>2024-03-23T11:02:45.000Z</time><ele>968.2</ele></trkpt><trkpt lat="45.829721" lon="9.447022"><time>2024-03-23T11:02:46.000Z</time><ele>968</ele></trkpt><trkpt lat="45.829716" lon="9.447023"><time>2024-03-23T11:02:47.000Z</time><ele>968</ele></trkpt><trkpt lat="45.829712" lon="9.447024"><time>2024-03-23T11:02:48.000Z</time><ele>967.6</ele></trkpt><trkpt lat="45.829708" lon="9.447026"><time>2024-03-23T11:02:49.000Z</time><ele>967.4</ele></trkpt><trkpt lat="45.829704" lon="9.447026"><time>2024-03-23T11:02:50.000Z</time><ele>967.2</ele></trkpt><trkpt lat="45.829701" lon="9.447025"><time>2024-03-23T11:02:51.000Z</time><ele>967</ele></trkpt><trkpt lat="45.829698" lon="9.447024"><time>2024-03-23T11:02:52.000Z</time><ele>966.8</ele></trkpt><trkpt lat="45.829696" lon="9.447024"><time>2024-03-23T11:02:53.000Z</time><ele>966.6</ele></trkpt><trkpt lat="45.829696" lon="9.447026"><time>2024-03-23T11:02:54.000Z</time><ele>966.4</ele></trkpt><trkpt lat="45.829692" lon="9.447026"><time>2024-03-23T11:02:55.000Z</time><ele>966</ele></trkpt><trkpt lat="45.829689" lon="9.447026"><time>2024-03-23T11:02:56.000Z</time><ele>965.8</ele></trkpt><trkpt lat="45.829688" lon="9.447022"><time>2024-03-23T11:02:57.000Z</time><ele>965.6</ele></trkpt><trkpt lat="45.829682" lon="9.447014"><time>2024-03-23T11:02:58.000Z</time><ele>965.6</ele></trkpt><trkpt lat="45.82968" lon="9.447011"><time>2024-03-23T11:02:59.000Z</time><ele>965.4</ele></trkpt><trkpt lat="45.829678" lon="9.447011"><time>2024-03-23T11:03:00.000Z</time><ele>965.4</ele></trkpt><trkpt lat="45.829676" lon="9.44701"><time>2024-03-23T11:03:01.000Z</time><ele>965.2</ele></trkpt><trkpt lat="45.829676" lon="9.447012"><time>2024-03-23T11:03:02.000Z</time><ele>965</ele></trkpt><trkpt lat="45.829678" lon="9.447013"><time>2024-03-23T11:03:03.000Z</time><ele>964.8</ele></trkpt><trkpt lat="45.829682" lon="9.447018"><time>2024-03-23T11:03:04.000Z</time><ele>964.6</ele></trkpt><trkpt lat="45.829682" lon="9.44702"><time>2024-03-23T11:03:05.000Z</time><ele>964.6</ele></trkpt><trkpt lat="45.829687" lon="9.447021"><time>2024-03-23T11:03:06.000Z</time><ele>964.4</ele></trkpt><trkpt lat="45.829689" lon="9.44702"><time>2024-03-23T11:03:07.000Z</time><ele>964.4</ele></trkpt><trkpt lat="45.82969" lon="9.44702"><time>2024-03-23T11:03:08.000Z</time><ele>964.4</ele></trkpt><trkpt lat="45.82969" lon="9.447021"><time>2024-03-23T11:03:09.000Z</time><ele>964.4</ele></trkpt><trkpt lat="45.82969" lon="9.447021"><time>2024-03-23T11:03:10.000Z</time><ele>964.4</ele></trkpt><trkpt lat="45.82969" lon="9.447021"><time>2024-03-23T11:03:11.000Z</time><ele>964.4</ele></trkpt><trkpt lat="45.82969" lon="9.447021"><time>2024-03-23T11:03:12.000Z</time><ele>964.6</ele></trkpt><trkpt lat="45.82969" lon="9.447021"><time>2024-03-23T11:03:13.000Z</time><ele>964.6</ele></trkpt><trkpt lat="45.82969" lon="9.447021"><time>2024-03-23T11:03:14.000Z</time><ele>964.6</ele></trkpt><trkpt lat="45.82969" lon="9.447021"><time>2024-03-23T11:03:15.000Z</time><ele>964.8</ele></trkpt><trkpt lat="45.82969" lon="9.447021"><time>2024-03-23T11:03:16.000Z</time><ele>964.8</ele></trkpt><trkpt lat="45.82969" lon="9.447021"><time>2024-03-23T11:03:17.000Z</time><ele>964.6</ele></trkpt><trkpt lat="45.82969" lon="9.447021"><time>2024-03-23T11:03:18.000Z</time><ele>964.6</ele></trkpt><trkpt lat="45.82969" lon="9.447021"><time>2024-03-23T11:03:19.000Z</time><ele>964.4</ele></trkpt><trkpt lat="45.829689" lon="9.447021"><time>2024-03-23T11:03:20.000Z</time><ele>964.4</ele></trkpt><trkpt lat="45.829689" lon="9.447021"><time>2024-03-23T11:03:21.000Z</time><ele>964.2</ele></trkpt><trkpt lat="45.829688" lon="9.447021"><time>2024-03-23T11:03:22.000Z</time><ele>964.2</ele></trkpt><trkpt lat="45.829688" lon="9.447021"><time>2024-03-23T11:03:23.000Z</time><ele>964.2</ele></trkpt><trkpt lat="45.829688" lon="9.447021"><time>2024-03-23T11:03:24.000Z</time><ele>964</ele></trkpt><trkpt lat="45.829688" lon="9.447021"><time>2024-03-23T11:03:25.000Z</time><ele>964</ele></trkpt><trkpt lat="45.829688" lon="9.447021"><time>2024-03-23T11:03:26.000Z</time><ele>963.8</ele></trkpt><trkpt lat="45.829688" lon="9.447021"><time>2024-03-23T11:03:27.000Z</time><ele>963.8</ele></trkpt><trkpt lat="45.829688" lon="9.44702"><time>2024-03-23T11:03:28.000Z</time><ele>963.6</ele></trkpt><trkpt lat="45.829688" lon="9.44702"><time>2024-03-23T11:03:29.000Z</time><ele>963.4</ele></trkpt><trkpt lat="45.829688" lon="9.44702"><time>2024-03-23T11:03:30.000Z</time><ele>963.2</ele></trkpt><trkpt lat="45.829688" lon="9.447019"><time>2024-03-23T11:03:31.000Z</time><ele>963</ele></trkpt><trkpt lat="45.829689" lon="9.447019"><time>2024-03-23T11:03:32.000Z</time><ele>962.8</ele></trkpt><trkpt lat="45.829689" lon="9.447019"><time>2024-03-23T11:03:33.000Z</time><ele>962.4</ele></trkpt><trkpt lat="45.82969" lon="9.447019"><time>2024-03-23T11:03:34.000Z</time><ele>962.4</ele></trkpt><trkpt lat="45.82969" lon="9.447013"><time>2024-03-23T11:03:35.000Z</time><ele>962.2</ele></trkpt><trkpt lat="45.82969" lon="9.447009"><time>2024-03-23T11:03:36.000Z</time><ele>961.8</ele></trkpt><trkpt lat="45.82969" lon="9.447005"><time>2024-03-23T11:03:37.000Z</time><ele>961.6</ele></trkpt><trkpt lat="45.829691" lon="9.447004"><time>2024-03-23T11:03:38.000Z</time><ele>961.4</ele></trkpt><trkpt lat="45.829692" lon="9.447002"><time>2024-03-23T11:03:39.000Z</time><ele>961.2</ele></trkpt><trkpt lat="45.829692" lon="9.446999"><time>2024-03-23T11:03:40.000Z</time><ele>960.8</ele></trkpt><trkpt lat="45.829692" lon="9.446995"><time>2024-03-23T11:03:41.000Z</time><ele>960.8</ele></trkpt><trkpt lat="45.829693" lon="9.446994"><time>2024-03-23T11:03:42.000Z</time><ele>960.6</ele></trkpt><trkpt lat="45.829693" lon="9.446993"><time>2024-03-23T11:03:43.000Z</time><ele>960.4</ele></trkpt><trkpt lat="45.829693" lon="9.446988"><time>2024-03-23T11:03:44.000Z</time><ele>960.2</ele></trkpt><trkpt lat="45.829695" lon="9.44698"><time>2024-03-23T11:03:45.000Z</time><ele>960.2</ele></trkpt><trkpt lat="45.829696" lon="9.446971"><time>2024-03-23T11:03:46.000Z</time><ele>960</ele></trkpt><trkpt lat="45.829696" lon="9.446961"><time>2024-03-23T11:03:47.000Z</time><ele>960</ele></trkpt><trkpt lat="45.829697" lon="9.446953"><time>2024-03-23T11:03:48.000Z</time><ele>960</ele></trkpt><trkpt lat="45.829701" lon="9.44695"><time>2024-03-23T11:03:49.000Z</time><ele>960</ele></trkpt><trkpt lat="45.829704" lon="9.446947"><time>2024-03-23T11:03:50.000Z</time><ele>960</ele></trkpt><trkpt lat="45.829706" lon="9.446942"><time>2024-03-23T11:03:51.000Z</time><ele>959.8</ele></trkpt><trkpt lat="45.82971" lon="9.446932"><time>2024-03-23T11:03:52.000Z</time><ele>959.8</ele></trkpt><trkpt lat="45.829712" lon="9.446922"><time>2024-03-23T11:03:53.000Z</time><ele>959.6</ele></trkpt><trkpt lat="45.829713" lon="9.446911"><time>2024-03-23T11:03:54.000Z</time><ele>959.2</ele></trkpt><trkpt lat="45.829718" lon="9.446903"><time>2024-03-23T11:03:55.000Z</time><ele>959</ele></trkpt><trkpt lat="45.82972" lon="9.446899"><time>2024-03-23T11:03:56.000Z</time><ele>958.8</ele></trkpt><trkpt lat="45.829726" lon="9.446898"><time>2024-03-23T11:03:57.000Z</time><ele>958.6</ele></trkpt><trkpt lat="45.829733" lon="9.446895"><time>2024-03-23T11:03:58.000Z</time><ele>958.4</ele></trkpt><trkpt lat="45.82974" lon="9.446891"><time>2024-03-23T11:03:59.000Z</time><ele>958.4</ele></trkpt><trkpt lat="45.829745" lon="9.44689"><time>2024-03-23T11:04:00.000Z</time><ele>958.2</ele></trkpt><trkpt lat="45.829749" lon="9.446889"><time>2024-03-23T11:04:01.000Z</time><ele>958.2</ele></trkpt><trkpt lat="45.829755" lon="9.446886"><time>2024-03-23T11:04:02.000Z</time><ele>958</ele></trkpt><trkpt lat="45.829759" lon="9.446885"><time>2024-03-23T11:04:03.000Z</time><ele>957.8</ele></trkpt><trkpt lat="45.829764" lon="9.446884"><time>2024-03-23T11:04:04.000Z</time><ele>957.6</ele></trkpt><trkpt lat="45.829767" lon="9.446882"><time>2024-03-23T11:04:05.000Z</time><ele>957.6</ele></trkpt><trkpt lat="45.82977" lon="9.446874"><time>2024-03-23T11:04:06.000Z</time><ele>957.2</ele></trkpt><trkpt lat="45.829772" lon="9.446868"><time>2024-03-23T11:04:07.000Z</time><ele>957.2</ele></trkpt><trkpt lat="45.829776" lon="9.446858"><time>2024-03-23T11:04:08.000Z</time><ele>957</ele></trkpt><trkpt lat="45.829781" lon="9.446836"><time>2024-03-23T11:04:09.000Z</time><ele>957</ele></trkpt><trkpt lat="45.829794" lon="9.446815"><time>2024-03-23T11:04:10.000Z</time><ele>956.8</ele></trkpt><trkpt lat="45.829809" lon="9.446796"><time>2024-03-23T11:04:11.000Z</time><ele>956.8</ele></trkpt><trkpt lat="45.82982" lon="9.446773"><time>2024-03-23T11:04:12.000Z</time><ele>956.6</ele></trkpt><trkpt lat="45.829833" lon="9.446754"><time>2024-03-23T11:04:13.000Z</time><ele>956.6</ele></trkpt><trkpt lat="45.829847" lon="9.446726"><time>2024-03-23T11:04:14.000Z</time><ele>956.6</ele></trkpt><trkpt lat="45.829856" lon="9.446699"><time>2024-03-23T11:04:15.000Z</time><ele>956.4</ele></trkpt><trkpt lat="45.829869" lon="9.446676"><time>2024-03-23T11:04:16.000Z</time><ele>956.4</ele></trkpt><trkpt lat="45.82988" lon="9.446658"><time>2024-03-23T11:04:17.000Z</time><ele>956.4</ele></trkpt><trkpt lat="45.829884" lon="9.446652"><time>2024-03-23T11:04:18.000Z</time><ele>956.2</ele></trkpt><trkpt lat="45.829891" lon="9.446651"><time>2024-03-23T11:04:19.000Z</time><ele>956.2</ele></trkpt><trkpt lat="45.829892" lon="9.446646"><time>2024-03-23T11:04:20.000Z</time><ele>956</ele></trkpt><trkpt lat="45.829894" lon="9.446641"><time>2024-03-23T11:04:21.000Z</time><ele>955.8</ele></trkpt><trkpt lat="45.829901" lon="9.446632"><time>2024-03-23T11:04:22.000Z</time><ele>955.6</ele></trkpt><trkpt lat="45.829902" lon="9.446619"><time>2024-03-23T11:04:23.000Z</time><ele>955.4</ele></trkpt><trkpt lat="45.829906" lon="9.446609"><time>2024-03-23T11:04:24.000Z</time><ele>955.4</ele></trkpt><trkpt lat="45.829906" lon="9.446602"><time>2024-03-23T11:04:25.000Z</time><ele>955.4</ele></trkpt><trkpt lat="45.829911" lon="9.446593"><time>2024-03-23T11:04:26.000Z</time><ele>955</ele></trkpt><trkpt lat="45.829915" lon="9.446591"><time>2024-03-23T11:04:27.000Z</time><ele>954.8</ele></trkpt><trkpt lat="45.829917" lon="9.44659"><time>2024-03-23T11:04:28.000Z</time><ele>954.6</ele></trkpt><trkpt lat="45.829929" lon="9.446595"><time>2024-03-23T11:04:29.000Z</time><ele>954.6</ele></trkpt><trkpt lat="45.829939" lon="9.446592"><time>2024-03-23T11:04:30.000Z</time><ele>954.4</ele></trkpt><trkpt lat="45.829941" lon="9.446587"><time>2024-03-23T11:04:31.000Z</time><ele>954.2</ele></trkpt><trkpt lat="45.829939" lon="9.446583"><time>2024-03-23T11:04:32.000Z</time><ele>954</ele></trkpt><trkpt lat="45.829938" lon="9.446579"><time>2024-03-23T11:04:33.000Z</time><ele>953.8</ele></trkpt><trkpt lat="45.82994" lon="9.446571"><time>2024-03-23T11:04:34.000Z</time><ele>953.8</ele></trkpt><trkpt lat="45.829941" lon="9.446565"><time>2024-03-23T11:04:35.000Z</time><ele>953.8</ele></trkpt><trkpt lat="45.829945" lon="9.446559"><time>2024-03-23T11:04:36.000Z</time><ele>953.6</ele></trkpt><trkpt lat="45.829952" lon="9.446552"><time>2024-03-23T11:04:37.000Z</time><ele>953.6</ele></trkpt><trkpt lat="45.82996" lon="9.446545"><time>2024-03-23T11:04:38.000Z</time><ele>953.4</ele></trkpt><trkpt lat="45.829967" lon="9.446537"><time>2024-03-23T11:04:39.000Z</time><ele>953.2</ele></trkpt><trkpt lat="45.829965" lon="9.446531"><time>2024-03-23T11:04:40.000Z</time><ele>952.8</ele></trkpt><trkpt lat="45.829964" lon="9.446526"><time>2024-03-23T11:04:41.000Z</time><ele>952.6</ele></trkpt><trkpt lat="45.829961" lon="9.446525"><time>2024-03-23T11:04:42.000Z</time><ele>952.2</ele></trkpt><trkpt lat="45.829959" lon="9.446525"><time>2024-03-23T11:04:43.000Z</time><ele>952.2</ele></trkpt><trkpt lat="45.82996" lon="9.446524"><time>2024-03-23T11:04:44.000Z</time><ele>952</ele></trkpt><trkpt lat="45.829961" lon="9.446523"><time>2024-03-23T11:04:45.000Z</time><ele>952</ele></trkpt><trkpt lat="45.82996" lon="9.446521"><time>2024-03-23T11:04:46.000Z</time><ele>951.8</ele></trkpt><trkpt lat="45.829958" lon="9.446519"><time>2024-03-23T11:04:47.000Z</time><ele>951.8</ele></trkpt><trkpt lat="45.829957" lon="9.446517"><time>2024-03-23T11:04:48.000Z</time><ele>951.8</ele></trkpt><trkpt lat="45.829957" lon="9.446518"><time>2024-03-23T11:04:49.000Z</time><ele>951.8</ele></trkpt><trkpt lat="45.829956" lon="9.446519"><time>2024-03-23T11:04:50.000Z</time><ele>951.8</ele></trkpt><trkpt lat="45.829958" lon="9.44652"><time>2024-03-23T11:04:51.000Z</time><ele>951.8</ele></trkpt><trkpt lat="45.829961" lon="9.446521"><time>2024-03-23T11:04:52.000Z</time><ele>951.8</ele></trkpt><trkpt lat="45.829962" lon="9.446519"><time>2024-03-23T11:04:53.000Z</time><ele>951.8</ele></trkpt><trkpt lat="45.829965" lon="9.446516"><time>2024-03-23T11:04:54.000Z</time><ele>951.8</ele></trkpt><trkpt lat="45.829967" lon="9.446509"><time>2024-03-23T11:04:55.000Z</time><ele>951.8</ele></trkpt><trkpt lat="45.829964" lon="9.446502"><time>2024-03-23T11:04:56.000Z</time><ele>951.8</ele></trkpt><trkpt lat="45.829962" lon="9.446498"><time>2024-03-23T11:04:57.000Z</time><ele>951.8</ele></trkpt><trkpt lat="45.829958" lon="9.446497"><time>2024-03-23T11:04:58.000Z</time><ele>951.6</ele></trkpt><trkpt lat="45.829957" lon="9.446494"><time>2024-03-23T11:04:59.000Z</time><ele>951.4</ele></trkpt><trkpt lat="45.82995" lon="9.44649"><time>2024-03-23T11:05:00.000Z</time><ele>951.4</ele></trkpt><trkpt lat="45.829947" lon="9.446492"><time>2024-03-23T11:05:01.000Z</time><ele>951.4</ele></trkpt><trkpt lat="45.829945" lon="9.446492"><time>2024-03-23T11:05:02.000Z</time><ele>951.2</ele></trkpt><trkpt lat="45.829942" lon="9.446489"><time>2024-03-23T11:05:03.000Z</time><ele>951</ele></trkpt><trkpt lat="45.82994" lon="9.446483"><time>2024-03-23T11:05:04.000Z</time><ele>950.6</ele></trkpt><trkpt lat="45.829935" lon="9.446467"><time>2024-03-23T11:05:05.000Z</time><ele>950.4</ele></trkpt><trkpt lat="45.829926" lon="9.446453"><time>2024-03-23T11:05:06.000Z</time><ele>950</ele></trkpt><trkpt lat="45.82992" lon="9.446453"><time>2024-03-23T11:05:07.000Z</time><ele>950</ele></trkpt><trkpt lat="45.829918" lon="9.44646"><time>2024-03-23T11:05:08.000Z</time><ele>949.6</ele></trkpt><trkpt lat="45.829917" lon="9.446464"><time>2024-03-23T11:05:09.000Z</time><ele>949.4</ele></trkpt><trkpt lat="45.829917" lon="9.446468"><time>2024-03-23T11:05:10.000Z</time><ele>949.2</ele></trkpt><trkpt lat="45.829912" lon="9.446469"><time>2024-03-23T11:05:11.000Z</time><ele>949</ele></trkpt><trkpt lat="45.829903" lon="9.446471"><time>2024-03-23T11:05:12.000Z</time><ele>949</ele></trkpt><trkpt lat="45.829896" lon="9.446476"><time>2024-03-23T11:05:13.000Z</time><ele>949</ele></trkpt><trkpt lat="45.82989" lon="9.446486"><time>2024-03-23T11:05:14.000Z</time><ele>948.8</ele></trkpt><trkpt lat="45.829884" lon="9.446495"><time>2024-03-23T11:05:15.000Z</time><ele>948.4</ele></trkpt><trkpt lat="45.82988" lon="9.446506"><time>2024-03-23T11:05:16.000Z</time><ele>948.4</ele></trkpt><trkpt lat="45.829877" lon="9.44652"><time>2024-03-23T11:05:17.000Z</time><ele>948.2</ele></trkpt><trkpt lat="45.829873" lon="9.446534"><time>2024-03-23T11:05:18.000Z</time><ele>948.2</ele></trkpt><trkpt lat="45.829866" lon="9.446545"><time>2024-03-23T11:05:19.000Z</time><ele>948.2</ele></trkpt><trkpt lat="45.829857" lon="9.446553"><time>2024-03-23T11:05:20.000Z</time><ele>948.2</ele></trkpt><trkpt lat="45.829846" lon="9.446549"><time>2024-03-23T11:05:21.000Z</time><ele>948.2</ele></trkpt><trkpt lat="45.829833" lon="9.446545"><time>2024-03-23T11:05:22.000Z</time><ele>948</ele></trkpt><trkpt lat="45.82983" lon="9.446551"><time>2024-03-23T11:05:23.000Z</time><ele>947.8</ele></trkpt><trkpt lat="45.829826" lon="9.446551"><time>2024-03-23T11:05:24.000Z</time><ele>947.8</ele></trkpt><trkpt lat="45.829824" lon="9.446558"><time>2024-03-23T11:05:25.000Z</time><ele>947.8</ele></trkpt><trkpt lat="45.829821" lon="9.446577"><time>2024-03-23T11:05:26.000Z</time><ele>947.6</ele></trkpt><trkpt lat="45.829815" lon="9.446586"><time>2024-03-23T11:05:27.000Z</time><ele>947.4</ele></trkpt><trkpt lat="45.829811" lon="9.446594"><time>2024-03-23T11:05:28.000Z</time><ele>947.2</ele></trkpt><trkpt lat="45.829807" lon="9.446597"><time>2024-03-23T11:05:29.000Z</time><ele>947</ele></trkpt><trkpt lat="45.829805" lon="9.446606"><time>2024-03-23T11:05:30.000Z</time><ele>946.8</ele></trkpt><trkpt lat="45.8298" lon="9.446594"><time>2024-03-23T11:05:31.000Z</time><ele>946.6</ele></trkpt><trkpt lat="45.829795" lon="9.446596"><time>2024-03-23T11:05:32.000Z</time><ele>946.4</ele></trkpt><trkpt lat="45.829787" lon="9.446593"><time>2024-03-23T11:05:33.000Z</time><ele>946.2</ele></trkpt><trkpt lat="45.829781" lon="9.446592"><time>2024-03-23T11:05:34.000Z</time><ele>946.2</ele></trkpt><trkpt lat="45.829778" lon="9.446593"><time>2024-03-23T11:05:35.000Z</time><ele>946</ele></trkpt><trkpt lat="45.829777" lon="9.446595"><time>2024-03-23T11:05:36.000Z</time><ele>945.6</ele></trkpt><trkpt lat="45.829778" lon="9.446594"><time>2024-03-23T11:05:37.000Z</time><ele>945.4</ele></trkpt><trkpt lat="45.829778" lon="9.446594"><time>2024-03-23T11:05:38.000Z</time><ele>945.4</ele></trkpt><trkpt lat="45.829775" lon="9.446594"><time>2024-03-23T11:05:39.000Z</time><ele>945.2</ele></trkpt><trkpt lat="45.829772" lon="9.446594"><time>2024-03-23T11:05:40.000Z</time><ele>945</ele></trkpt><trkpt lat="45.829772" lon="9.446587"><time>2024-03-23T11:05:41.000Z</time><ele>944.8</ele></trkpt><trkpt lat="45.829767" lon="9.446578"><time>2024-03-23T11:05:42.000Z</time><ele>944.6</ele></trkpt><trkpt lat="45.829764" lon="9.446574"><time>2024-03-23T11:05:43.000Z</time><ele>944.4</ele></trkpt><trkpt lat="45.82976" lon="9.44657"><time>2024-03-23T11:05:44.000Z</time><ele>944.2</ele></trkpt><trkpt lat="45.829757" lon="9.44657"><time>2024-03-23T11:05:45.000Z</time><ele>943.8</ele></trkpt><trkpt lat="45.829755" lon="9.446569"><time>2024-03-23T11:05:46.000Z</time><ele>943.6</ele></trkpt><trkpt lat="45.829754" lon="9.446562"><time>2024-03-23T11:05:47.000Z</time><ele>943.2</ele></trkpt><trkpt lat="45.829752" lon="9.44656"><time>2024-03-23T11:05:48.000Z</time><ele>943.2</ele></trkpt><trkpt lat="45.829751" lon="9.446558"><time>2024-03-23T11:05:49.000Z</time><ele>943</ele></trkpt><trkpt lat="45.829756" lon="9.446563"><time>2024-03-23T11:05:50.000Z</time><ele>942.8</ele></trkpt><trkpt lat="45.829757" lon="9.44656"><time>2024-03-23T11:05:51.000Z</time><ele>942.6</ele></trkpt><trkpt lat="45.829759" lon="9.446553"><time>2024-03-23T11:05:52.000Z</time><ele>942.4</ele></trkpt><trkpt lat="45.829758" lon="9.446548"><time>2024-03-23T11:05:53.000Z</time><ele>942</ele></trkpt><trkpt lat="45.829759" lon="9.446539"><time>2024-03-23T11:05:54.000Z</time><ele>941.6</ele></trkpt><trkpt lat="45.829758" lon="9.446529"><time>2024-03-23T11:05:55.000Z</time><ele>941.4</ele></trkpt><trkpt lat="45.829754" lon="9.446525"><time>2024-03-23T11:05:56.000Z</time><ele>941.4</ele></trkpt><trkpt lat="45.829751" lon="9.446519"><time>2024-03-23T11:05:57.000Z</time><ele>941.2</ele></trkpt><trkpt lat="45.829748" lon="9.446512"><time>2024-03-23T11:05:58.000Z</time><ele>941</ele></trkpt><trkpt lat="45.829745" lon="9.446505"><time>2024-03-23T11:05:59.000Z</time><ele>940.8</ele></trkpt><trkpt lat="45.829744" lon="9.446499"><time>2024-03-23T11:06:00.000Z</time><ele>940.6</ele></trkpt><trkpt lat="45.829743" lon="9.446494"><time>2024-03-23T11:06:01.000Z</time><ele>940.4</ele></trkpt><trkpt lat="45.829743" lon="9.44649"><time>2024-03-23T11:06:02.000Z</time><ele>940.2</ele></trkpt><trkpt lat="45.829743" lon="9.446488"><time>2024-03-23T11:06:03.000Z</time><ele>939.8</ele></trkpt><trkpt lat="45.829743" lon="9.446485"><time>2024-03-23T11:06:04.000Z</time><ele>939.4</ele></trkpt><trkpt lat="45.829739" lon="9.446478"><time>2024-03-23T11:06:05.000Z</time><ele>939.2</ele></trkpt><trkpt lat="45.829734" lon="9.446474"><time>2024-03-23T11:06:06.000Z</time><ele>939</ele></trkpt><trkpt lat="45.82973" lon="9.446473"><time>2024-03-23T11:06:07.000Z</time><ele>938.8</ele></trkpt><trkpt lat="45.829727" lon="9.446474"><time>2024-03-23T11:06:08.000Z</time><ele>938.6</ele></trkpt><trkpt lat="45.829722" lon="9.446479"><time>2024-03-23T11:06:09.000Z</time><ele>938.6</ele></trkpt><trkpt lat="45.829717" lon="9.446482"><time>2024-03-23T11:06:10.000Z</time><ele>938.4</ele></trkpt><trkpt lat="45.829712" lon="9.446481"><time>2024-03-23T11:06:11.000Z</time><ele>938.4</ele></trkpt><trkpt lat="45.829702" lon="9.446476"><time>2024-03-23T11:06:12.000Z</time><ele>938.2</ele></trkpt><trkpt lat="45.829695" lon="9.446469"><time>2024-03-23T11:06:13.000Z</time><ele>938</ele></trkpt><trkpt lat="45.829687" lon="9.446469"><time>2024-03-23T11:06:14.000Z</time><ele>937.8</ele></trkpt><trkpt lat="45.829683" lon="9.446474"><time>2024-03-23T11:06:15.000Z</time><ele>937.6</ele></trkpt><trkpt lat="45.82968" lon="9.44647"><time>2024-03-23T11:06:16.000Z</time><ele>937.2</ele></trkpt><trkpt lat="45.829673" lon="9.446467"><time>2024-03-23T11:06:17.000Z</time><ele>937</ele></trkpt><trkpt lat="45.829663" lon="9.446462"><time>2024-03-23T11:06:18.000Z</time><ele>937</ele></trkpt><trkpt lat="45.829656" lon="9.446462"><time>2024-03-23T11:06:19.000Z</time><ele>936.6</ele></trkpt><trkpt lat="45.829647" lon="9.446461"><time>2024-03-23T11:06:20.000Z</time><ele>936.4</ele></trkpt><trkpt lat="45.829637" lon="9.446463"><time>2024-03-23T11:06:21.000Z</time><ele>936.2</ele></trkpt><trkpt lat="45.829626" lon="9.446466"><time>2024-03-23T11:06:22.000Z</time><ele>936.2</ele></trkpt><trkpt lat="45.829619" lon="9.446472"><time>2024-03-23T11:06:23.000Z</time><ele>936</ele></trkpt><trkpt lat="45.829613" lon="9.446473"><time>2024-03-23T11:06:24.000Z</time><ele>936</ele></trkpt><trkpt lat="45.829605" lon="9.446475"><time>2024-03-23T11:06:25.000Z</time><ele>935.8</ele></trkpt><trkpt lat="45.829594" lon="9.44647"><time>2024-03-23T11:06:26.000Z</time><ele>935.8</ele></trkpt><trkpt lat="45.829588" lon="9.446467"><time>2024-03-23T11:06:27.000Z</time><ele>935.8</ele></trkpt><trkpt lat="45.829586" lon="9.44647"><time>2024-03-23T11:06:28.000Z</time><ele>935.8</ele></trkpt><trkpt lat="45.829586" lon="9.446473"><time>2024-03-23T11:06:29.000Z</time><ele>935.8</ele></trkpt><trkpt lat="45.829585" lon="9.446475"><time>2024-03-23T11:06:30.000Z</time><ele>935.8</ele></trkpt><trkpt lat="45.829578" lon="9.44647"><time>2024-03-23T11:06:31.000Z</time><ele>935.8</ele></trkpt><trkpt lat="45.829551" lon="9.446449"><time>2024-03-23T11:06:32.000Z</time><ele>935.8</ele></trkpt><trkpt lat="45.829534" lon="9.446443"><time>2024-03-23T11:06:33.000Z</time><ele>935.8</ele></trkpt><trkpt lat="45.829511" lon="9.446435"><time>2024-03-23T11:06:34.000Z</time><ele>935.6</ele></trkpt><trkpt lat="45.829505" lon="9.44644"><time>2024-03-23T11:06:35.000Z</time><ele>935.4</ele></trkpt><trkpt lat="45.829495" lon="9.446433"><time>2024-03-23T11:06:36.000Z</time><ele>935.2</ele></trkpt><trkpt lat="45.829493" lon="9.44643"><time>2024-03-23T11:06:37.000Z</time><ele>935.2</ele></trkpt><trkpt lat="45.829482" lon="9.446429"><time>2024-03-23T11:06:38.000Z</time><ele>935</ele></trkpt><trkpt lat="45.829471" lon="9.446427"><time>2024-03-23T11:06:39.000Z</time><ele>935</ele></trkpt><trkpt lat="45.829464" lon="9.446426"><time>2024-03-23T11:06:40.000Z</time><ele>934.8</ele></trkpt><trkpt lat="45.829458" lon="9.446431"><time>2024-03-23T11:06:41.000Z</time><ele>934.4</ele></trkpt><trkpt lat="45.829456" lon="9.446435"><time>2024-03-23T11:06:42.000Z</time><ele>934.2</ele></trkpt><trkpt lat="45.829456" lon="9.446444"><time>2024-03-23T11:06:43.000Z</time><ele>934</ele></trkpt><trkpt lat="45.829445" lon="9.446442"><time>2024-03-23T11:06:44.000Z</time><ele>934</ele></trkpt><trkpt lat="45.829442" lon="9.446443"><time>2024-03-23T11:06:45.000Z</time><ele>934</ele></trkpt><trkpt lat="45.829438" lon="9.446444"><time>2024-03-23T11:06:46.000Z</time><ele>933.8</ele></trkpt><trkpt lat="45.82943" lon="9.446445"><time>2024-03-23T11:06:47.000Z</time><ele>933.8</ele></trkpt><trkpt lat="45.829419" lon="9.446442"><time>2024-03-23T11:06:48.000Z</time><ele>933.6</ele></trkpt><trkpt lat="45.829416" lon="9.446441"><time>2024-03-23T11:06:49.000Z</time><ele>933.4</ele></trkpt><trkpt lat="45.829414" lon="9.446441"><time>2024-03-23T11:06:50.000Z</time><ele>933.4</ele></trkpt><trkpt lat="45.829412" lon="9.446454"><time>2024-03-23T11:06:51.000Z</time><ele>933.2</ele></trkpt><trkpt lat="45.829411" lon="9.446455"><time>2024-03-23T11:06:52.000Z</time><ele>933</ele></trkpt><trkpt lat="45.82941" lon="9.446456"><time>2024-03-23T11:06:53.000Z</time><ele>933</ele></trkpt><trkpt lat="45.829408" lon="9.446456"><time>2024-03-23T11:06:54.000Z</time><ele>932.8</ele></trkpt><trkpt lat="45.829399" lon="9.446462"><time>2024-03-23T11:06:55.000Z</time><ele>932.8</ele></trkpt><trkpt lat="45.829393" lon="9.44646"><time>2024-03-23T11:06:56.000Z</time><ele>932.8</ele></trkpt><trkpt lat="45.829384" lon="9.446458"><time>2024-03-23T11:06:57.000Z</time><ele>932.8</ele></trkpt><trkpt lat="45.829377" lon="9.446454"><time>2024-03-23T11:06:58.000Z</time><ele>932.6</ele></trkpt><trkpt lat="45.829374" lon="9.44645"><time>2024-03-23T11:06:59.000Z</time><ele>932.6</ele></trkpt><trkpt lat="45.829363" lon="9.446442"><time>2024-03-23T11:07:00.000Z</time><ele>932.4</ele></trkpt><trkpt lat="45.82935" lon="9.44643"><time>2024-03-23T11:07:01.000Z</time><ele>932.4</ele></trkpt><trkpt lat="45.829341" lon="9.44642"><time>2024-03-23T11:07:02.000Z</time><ele>932.2</ele></trkpt><trkpt lat="45.829329" lon="9.44641"><time>2024-03-23T11:07:03.000Z</time><ele>932</ele></trkpt><trkpt lat="45.829321" lon="9.446404"><time>2024-03-23T11:07:04.000Z</time><ele>931.8</ele></trkpt><trkpt lat="45.829311" lon="9.4464"><time>2024-03-23T11:07:05.000Z</time><ele>931.6</ele></trkpt><trkpt lat="45.829301" lon="9.446392"><time>2024-03-23T11:07:06.000Z</time><ele>931.6</ele></trkpt><trkpt lat="45.829286" lon="9.446389"><time>2024-03-23T11:07:07.000Z</time><ele>931.6</ele></trkpt><trkpt lat="45.829276" lon="9.446388"><time>2024-03-23T11:07:08.000Z</time><ele>931.4</ele></trkpt><trkpt lat="45.829264" lon="9.446393"><time>2024-03-23T11:07:09.000Z</time><ele>931.4</ele></trkpt><trkpt lat="45.829252" lon="9.446387"><time>2024-03-23T11:07:10.000Z</time><ele>931.4</ele></trkpt><trkpt lat="45.829242" lon="9.446382"><time>2024-03-23T11:07:11.000Z</time><ele>931.4</ele></trkpt><trkpt lat="45.829228" lon="9.446371"><time>2024-03-23T11:07:12.000Z</time><ele>931.4</ele></trkpt><trkpt lat="45.829213" lon="9.446358"><time>2024-03-23T11:07:13.000Z</time><ele>931.4</ele></trkpt><trkpt lat="45.8292" lon="9.446349"><time>2024-03-23T11:07:14.000Z</time><ele>931.4</ele></trkpt><trkpt lat="45.829194" lon="9.446346"><time>2024-03-23T11:07:15.000Z</time><ele>931.4</ele></trkpt><trkpt lat="45.829184" lon="9.446341"><time>2024-03-23T11:07:16.000Z</time><ele>931.4</ele></trkpt><trkpt lat="45.829175" lon="9.446341"><time>2024-03-23T11:07:17.000Z</time><ele>931.4</ele></trkpt><trkpt lat="45.829166" lon="9.446345"><time>2024-03-23T11:07:18.000Z</time><ele>931.2</ele></trkpt><trkpt lat="45.82916" lon="9.446342"><time>2024-03-23T11:07:19.000Z</time><ele>931.2</ele></trkpt><trkpt lat="45.829152" lon="9.44634"><time>2024-03-23T11:07:20.000Z</time><ele>931</ele></trkpt><trkpt lat="45.829145" lon="9.446335"><time>2024-03-23T11:07:21.000Z</time><ele>930.8</ele></trkpt><trkpt lat="45.82914" lon="9.446329"><time>2024-03-23T11:07:22.000Z</time><ele>930.6</ele></trkpt><trkpt lat="45.829133" lon="9.446323"><time>2024-03-23T11:07:23.000Z</time><ele>930.6</ele></trkpt><trkpt lat="45.82913" lon="9.446318"><time>2024-03-23T11:07:24.000Z</time><ele>930.4</ele></trkpt><trkpt lat="45.829118" lon="9.446313"><time>2024-03-23T11:07:25.000Z</time><ele>930.2</ele></trkpt><trkpt lat="45.82911" lon="9.446313"><time>2024-03-23T11:07:26.000Z</time><ele>930.2</ele></trkpt><trkpt lat="45.829106" lon="9.446315"><time>2024-03-23T11:07:27.000Z</time><ele>929.8</ele></trkpt><trkpt lat="45.829102" lon="9.446318"><time>2024-03-23T11:07:28.000Z</time><ele>929.6</ele></trkpt><trkpt lat="45.829094" lon="9.446316"><time>2024-03-23T11:07:29.000Z</time><ele>929.4</ele></trkpt><trkpt lat="45.829088" lon="9.446318"><time>2024-03-23T11:07:30.000Z</time><ele>929.2</ele></trkpt><trkpt lat="45.829082" lon="9.44632"><time>2024-03-23T11:07:31.000Z</time><ele>929</ele></trkpt><trkpt lat="45.829078" lon="9.446322"><time>2024-03-23T11:07:32.000Z</time><ele>928.8</ele></trkpt><trkpt lat="45.829072" lon="9.446322"><time>2024-03-23T11:07:33.000Z</time><ele>928.6</ele></trkpt><trkpt lat="45.829068" lon="9.446321"><time>2024-03-23T11:07:34.000Z</time><ele>928.6</ele></trkpt><trkpt lat="45.829064" lon="9.446317"><time>2024-03-23T11:07:35.000Z</time><ele>928.4</ele></trkpt><trkpt lat="45.829059" lon="9.446318"><time>2024-03-23T11:07:36.000Z</time><ele>928.2</ele></trkpt><trkpt lat="45.829053" lon="9.446321"><time>2024-03-23T11:07:37.000Z</time><ele>928</ele></trkpt><trkpt lat="45.829049" lon="9.446325"><time>2024-03-23T11:07:38.000Z</time><ele>928</ele></trkpt><trkpt lat="45.829045" lon="9.446331"><time>2024-03-23T11:07:39.000Z</time><ele>927.8</ele></trkpt><trkpt lat="45.829042" lon="9.446335"><time>2024-03-23T11:07:40.000Z</time><ele>927.6</ele></trkpt><trkpt lat="45.829042" lon="9.446338"><time>2024-03-23T11:07:41.000Z</time><ele>927.4</ele></trkpt><trkpt lat="45.829042" lon="9.446339"><time>2024-03-23T11:07:42.000Z</time><ele>927.2</ele></trkpt><trkpt lat="45.829041" lon="9.44634"><time>2024-03-23T11:07:43.000Z</time><ele>927</ele></trkpt><trkpt lat="45.829043" lon="9.446339"><time>2024-03-23T11:07:44.000Z</time><ele>927</ele></trkpt><trkpt lat="45.829042" lon="9.446344"><time>2024-03-23T11:07:45.000Z</time><ele>927</ele></trkpt><trkpt lat="45.829038" lon="9.44635"><time>2024-03-23T11:07:46.000Z</time><ele>927</ele></trkpt><trkpt lat="45.829034" lon="9.446359"><time>2024-03-23T11:07:47.000Z</time><ele>927</ele></trkpt><trkpt lat="45.82903" lon="9.446366"><time>2024-03-23T11:07:48.000Z</time><ele>927</ele></trkpt><trkpt lat="45.829021" lon="9.446365"><time>2024-03-23T11:07:49.000Z</time><ele>927</ele></trkpt><trkpt lat="45.829012" lon="9.446364"><time>2024-03-23T11:07:50.000Z</time><ele>927</ele></trkpt><trkpt lat="45.829003" lon="9.446363"><time>2024-03-23T11:07:51.000Z</time><ele>927</ele></trkpt><trkpt lat="45.829" lon="9.446362"><time>2024-03-23T11:07:52.000Z</time><ele>926.8</ele></trkpt><trkpt lat="45.828997" lon="9.446362"><time>2024-03-23T11:07:53.000Z</time><ele>926.8</ele></trkpt><trkpt lat="45.828995" lon="9.446362"><time>2024-03-23T11:07:54.000Z</time><ele>926.8</ele></trkpt><trkpt lat="45.828997" lon="9.44636"><time>2024-03-23T11:07:55.000Z</time><ele>926.6</ele></trkpt><trkpt lat="45.828998" lon="9.44636"><time>2024-03-23T11:07:56.000Z</time><ele>926.6</ele></trkpt><trkpt lat="45.828997" lon="9.446363"><time>2024-03-23T11:07:57.000Z</time><ele>926.6</ele></trkpt><trkpt lat="45.828994" lon="9.446365"><time>2024-03-23T11:07:58.000Z</time><ele>926.4</ele></trkpt><trkpt lat="45.828988" lon="9.446363"><time>2024-03-23T11:07:59.000Z</time><ele>926.4</ele></trkpt><trkpt lat="45.828977" lon="9.44636"><time>2024-03-23T11:08:00.000Z</time><ele>926.4</ele></trkpt><trkpt lat="45.828965" lon="9.446357"><time>2024-03-23T11:08:01.000Z</time><ele>926.4</ele></trkpt><trkpt lat="45.828952" lon="9.446346"><time>2024-03-23T11:08:02.000Z</time><ele>926</ele></trkpt><trkpt lat="45.828955" lon="9.44634"><time>2024-03-23T11:08:03.000Z</time><ele>925.8</ele></trkpt><trkpt lat="45.828955" lon="9.446342"><time>2024-03-23T11:08:04.000Z</time><ele>925.6</ele></trkpt><trkpt lat="45.82895" lon="9.446337"><time>2024-03-23T11:08:05.000Z</time><ele>925.2</ele></trkpt><trkpt lat="45.828942" lon="9.446337"><time>2024-03-23T11:08:06.000Z</time><ele>925</ele></trkpt><trkpt lat="45.828932" lon="9.446335"><time>2024-03-23T11:08:07.000Z</time><ele>924.6</ele></trkpt><trkpt lat="45.828926" lon="9.446338"><time>2024-03-23T11:08:08.000Z</time><ele>924.4</ele></trkpt><trkpt lat="45.828921" lon="9.446345"><time>2024-03-23T11:08:09.000Z</time><ele>924.2</ele></trkpt><trkpt lat="45.828917" lon="9.446348"><time>2024-03-23T11:08:10.000Z</time><ele>924</ele></trkpt><trkpt lat="45.828911" lon="9.446354"><time>2024-03-23T11:08:11.000Z</time><ele>923.8</ele></trkpt><trkpt lat="45.828903" lon="9.446359"><time>2024-03-23T11:08:12.000Z</time><ele>923.6</ele></trkpt><trkpt lat="45.828894" lon="9.446361"><time>2024-03-23T11:08:13.000Z</time><ele>923.4</ele></trkpt><trkpt lat="45.828883" lon="9.446361"><time>2024-03-23T11:08:14.000Z</time><ele>923.2</ele></trkpt><trkpt lat="45.828873" lon="9.446365"><time>2024-03-23T11:08:15.000Z</time><ele>923</ele></trkpt><trkpt lat="45.828861" lon="9.446369"><time>2024-03-23T11:08:16.000Z</time><ele>923</ele></trkpt><trkpt lat="45.828851" lon="9.446375"><time>2024-03-23T11:08:17.000Z</time><ele>923</ele></trkpt><trkpt lat="45.828845" lon="9.446382"><time>2024-03-23T11:08:18.000Z</time><ele>922.8</ele></trkpt><trkpt lat="45.82884" lon="9.446387"><time>2024-03-23T11:08:19.000Z</time><ele>922.6</ele></trkpt><trkpt lat="45.828832" lon="9.446387"><time>2024-03-23T11:08:20.000Z</time><ele>922.6</ele></trkpt><trkpt lat="45.82882" lon="9.446386"><time>2024-03-23T11:08:21.000Z</time><ele>922.4</ele></trkpt><trkpt lat="45.828807" lon="9.446383"><time>2024-03-23T11:08:22.000Z</time><ele>922.4</ele></trkpt><trkpt lat="45.828799" lon="9.446385"><time>2024-03-23T11:08:23.000Z</time><ele>922.2</ele></trkpt><trkpt lat="45.82879" lon="9.446388"><time>2024-03-23T11:08:24.000Z</time><ele>922</ele></trkpt><trkpt lat="45.828778" lon="9.44639"><time>2024-03-23T11:08:25.000Z</time><ele>922</ele></trkpt><trkpt lat="45.828768" lon="9.446388"><time>2024-03-23T11:08:26.000Z</time><ele>921.8</ele></trkpt><trkpt lat="45.828758" lon="9.446388"><time>2024-03-23T11:08:27.000Z</time><ele>921.8</ele></trkpt><trkpt lat="45.828754" lon="9.446394"><time>2024-03-23T11:08:28.000Z</time><ele>921.6</ele></trkpt><trkpt lat="45.828753" lon="9.446399"><time>2024-03-23T11:08:29.000Z</time><ele>921.4</ele></trkpt><trkpt lat="45.828749" lon="9.4464"><time>2024-03-23T11:08:30.000Z</time><ele>921.2</ele></trkpt><trkpt lat="45.828741" lon="9.446398"><time>2024-03-23T11:08:31.000Z</time><ele>921.2</ele></trkpt><trkpt lat="45.828732" lon="9.446397"><time>2024-03-23T11:08:32.000Z</time><ele>921.2</ele></trkpt><trkpt lat="45.828725" lon="9.446395"><time>2024-03-23T11:08:33.000Z</time><ele>921</ele></trkpt><trkpt lat="45.828722" lon="9.446394"><time>2024-03-23T11:08:34.000Z</time><ele>921</ele></trkpt><trkpt lat="45.828713" lon="9.44639"><time>2024-03-23T11:08:35.000Z</time><ele>921</ele></trkpt><trkpt lat="45.828709" lon="9.446389"><time>2024-03-23T11:08:36.000Z</time><ele>920.6</ele></trkpt><trkpt lat="45.828702" lon="9.44639"><time>2024-03-23T11:08:37.000Z</time><ele>920.4</ele></trkpt><trkpt lat="45.828703" lon="9.446397"><time>2024-03-23T11:08:38.000Z</time><ele>920</ele></trkpt><trkpt lat="45.828702" lon="9.4464"><time>2024-03-23T11:08:39.000Z</time><ele>919.8</ele></trkpt><trkpt lat="45.828699" lon="9.446394"><time>2024-03-23T11:08:40.000Z</time><ele>919.8</ele></trkpt><trkpt lat="45.8287" lon="9.446396"><time>2024-03-23T11:08:41.000Z</time><ele>919.6</ele></trkpt><trkpt lat="45.828693" lon="9.44639"><time>2024-03-23T11:08:42.000Z</time><ele>919.4</ele></trkpt><trkpt lat="45.82868" lon="9.446384"><time>2024-03-23T11:08:43.000Z</time><ele>919.2</ele></trkpt><trkpt lat="45.828665" lon="9.446375"><time>2024-03-23T11:08:44.000Z</time><ele>919</ele></trkpt><trkpt lat="45.828641" lon="9.446364"><time>2024-03-23T11:08:45.000Z</time><ele>918.8</ele></trkpt><trkpt lat="45.828624" lon="9.446359"><time>2024-03-23T11:08:46.000Z</time><ele>918.6</ele></trkpt><trkpt lat="45.828613" lon="9.44636"><time>2024-03-23T11:08:47.000Z</time><ele>918.4</ele></trkpt><trkpt lat="45.828598" lon="9.446354"><time>2024-03-23T11:08:48.000Z</time><ele>918.4</ele></trkpt><trkpt lat="45.828587" lon="9.446347"><time>2024-03-23T11:08:49.000Z</time><ele>918.2</ele></trkpt><trkpt lat="45.828573" lon="9.446337"><time>2024-03-23T11:08:50.000Z</time><ele>918</ele></trkpt><trkpt lat="45.828565" lon="9.446332"><time>2024-03-23T11:08:51.000Z</time><ele>917.8</ele></trkpt><trkpt lat="45.828555" lon="9.446326"><time>2024-03-23T11:08:52.000Z</time><ele>917.8</ele></trkpt><trkpt lat="45.828546" lon="9.446319"><time>2024-03-23T11:08:53.000Z</time><ele>917.4</ele></trkpt><trkpt lat="45.828539" lon="9.446303"><time>2024-03-23T11:08:54.000Z</time><ele>917.2</ele></trkpt><trkpt lat="45.828524" lon="9.446286"><time>2024-03-23T11:08:55.000Z</time><ele>917</ele></trkpt><trkpt lat="45.828512" lon="9.446272"><time>2024-03-23T11:08:56.000Z</time><ele>916.8</ele></trkpt><trkpt lat="45.828501" lon="9.446265"><time>2024-03-23T11:08:57.000Z</time><ele>916.6</ele></trkpt><trkpt lat="45.828489" lon="9.446252"><time>2024-03-23T11:08:58.000Z</time><ele>916.6</ele></trkpt><trkpt lat="45.828482" lon="9.446237"><time>2024-03-23T11:08:59.000Z</time><ele>916.4</ele></trkpt><trkpt lat="45.828475" lon="9.446222"><time>2024-03-23T11:09:00.000Z</time><ele>916.2</ele></trkpt><trkpt lat="45.828471" lon="9.446217"><time>2024-03-23T11:09:01.000Z</time><ele>916.2</ele></trkpt><trkpt lat="45.828469" lon="9.446208"><time>2024-03-23T11:09:02.000Z</time><ele>916</ele></trkpt><trkpt lat="45.828465" lon="9.446198"><time>2024-03-23T11:09:03.000Z</time><ele>916</ele></trkpt><trkpt lat="45.828456" lon="9.446188"><time>2024-03-23T11:09:04.000Z</time><ele>915.8</ele></trkpt><trkpt lat="45.828445" lon="9.44618"><time>2024-03-23T11:09:05.000Z</time><ele>915.8</ele></trkpt><trkpt lat="45.828442" lon="9.446178"><time>2024-03-23T11:09:06.000Z</time><ele>915.6</ele></trkpt><trkpt lat="45.828437" lon="9.446174"><time>2024-03-23T11:09:07.000Z</time><ele>915.6</ele></trkpt><trkpt lat="45.828427" lon="9.446164"><time>2024-03-23T11:09:08.000Z</time><ele>915.4</ele></trkpt><trkpt lat="45.82842" lon="9.446155"><time>2024-03-23T11:09:09.000Z</time><ele>915.2</ele></trkpt><trkpt lat="45.828408" lon="9.446153"><time>2024-03-23T11:09:10.000Z</time><ele>915</ele></trkpt><trkpt lat="45.828391" lon="9.446147"><time>2024-03-23T11:09:11.000Z</time><ele>914.8</ele></trkpt><trkpt lat="45.828375" lon="9.446146"><time>2024-03-23T11:09:12.000Z</time><ele>914.8</ele></trkpt><trkpt lat="45.828361" lon="9.446141"><time>2024-03-23T11:09:13.000Z</time><ele>914.6</ele></trkpt><trkpt lat="45.828352" lon="9.446141"><time>2024-03-23T11:09:14.000Z</time><ele>914.4</ele></trkpt><trkpt lat="45.828339" lon="9.446141"><time>2024-03-23T11:09:15.000Z</time><ele>914.2</ele></trkpt><trkpt lat="45.828324" lon="9.446136"><time>2024-03-23T11:09:16.000Z</time><ele>914</ele></trkpt><trkpt lat="45.828318" lon="9.446131"><time>2024-03-23T11:09:17.000Z</time><ele>913.8</ele></trkpt><trkpt lat="45.828313" lon="9.446128"><time>2024-03-23T11:09:18.000Z</time><ele>913.8</ele></trkpt><trkpt lat="45.828301" lon="9.446135"><time>2024-03-23T11:09:19.000Z</time><ele>913.6</ele></trkpt><trkpt lat="45.828295" lon="9.446146"><time>2024-03-23T11:09:20.000Z</time><ele>913.6</ele></trkpt><trkpt lat="45.828291" lon="9.446158"><time>2024-03-23T11:09:21.000Z</time><ele>913.4</ele></trkpt><trkpt lat="45.828281" lon="9.446158"><time>2024-03-23T11:09:22.000Z</time><ele>913.2</ele></trkpt><trkpt lat="45.828269" lon="9.446151"><time>2024-03-23T11:09:23.000Z</time><ele>913</ele></trkpt><trkpt lat="45.828254" lon="9.446135"><time>2024-03-23T11:09:24.000Z</time><ele>913</ele></trkpt><trkpt lat="45.828249" lon="9.44613"><time>2024-03-23T11:09:25.000Z</time><ele>912.8</ele></trkpt><trkpt lat="45.82824" lon="9.446125"><time>2024-03-23T11:09:26.000Z</time><ele>912.6</ele></trkpt><trkpt lat="45.82823" lon="9.446123"><time>2024-03-23T11:09:27.000Z</time><ele>912.6</ele></trkpt><trkpt lat="45.82822" lon="9.446121"><time>2024-03-23T11:09:28.000Z</time><ele>912.4</ele></trkpt><trkpt lat="45.828212" lon="9.446118"><time>2024-03-23T11:09:29.000Z</time><ele>912.2</ele></trkpt><trkpt lat="45.828194" lon="9.446111"><time>2024-03-23T11:09:30.000Z</time><ele>912</ele></trkpt><trkpt lat="45.828169" lon="9.446103"><time>2024-03-23T11:09:31.000Z</time><ele>911.8</ele></trkpt><trkpt lat="45.828153" lon="9.446102"><time>2024-03-23T11:09:32.000Z</time><ele>911.6</ele></trkpt><trkpt lat="45.828134" lon="9.446092"><time>2024-03-23T11:09:33.000Z</time><ele>911.4</ele></trkpt><trkpt lat="45.828125" lon="9.446082"><time>2024-03-23T11:09:34.000Z</time><ele>911</ele></trkpt><trkpt lat="45.828119" lon="9.446089"><time>2024-03-23T11:09:35.000Z</time><ele>910.8</ele></trkpt><trkpt lat="45.828109" lon="9.446095"><time>2024-03-23T11:09:36.000Z</time><ele>910.8</ele></trkpt><trkpt lat="45.828098" lon="9.4461"><time>2024-03-23T11:09:37.000Z</time><ele>910.8</ele></trkpt><trkpt lat="45.828089" lon="9.446117"><time>2024-03-23T11:09:38.000Z</time><ele>910.6</ele></trkpt><trkpt lat="45.828082" lon="9.446125"><time>2024-03-23T11:09:39.000Z</time><ele>910.4</ele></trkpt><trkpt lat="45.828058" lon="9.446122"><time>2024-03-23T11:09:40.000Z</time><ele>910.2</ele></trkpt><trkpt lat="45.828034" lon="9.446126"><time>2024-03-23T11:09:41.000Z</time><ele>910.2</ele></trkpt><trkpt lat="45.828004" lon="9.446126"><time>2024-03-23T11:09:42.000Z</time><ele>910</ele></trkpt><trkpt lat="45.827983" lon="9.446134"><time>2024-03-23T11:09:43.000Z</time><ele>910</ele></trkpt><trkpt lat="45.827962" lon="9.446133"><time>2024-03-23T11:09:44.000Z</time><ele>909.8</ele></trkpt><trkpt lat="45.82795" lon="9.446146"><time>2024-03-23T11:09:45.000Z</time><ele>909.8</ele></trkpt><trkpt lat="45.827948" lon="9.44616"><time>2024-03-23T11:09:46.000Z</time><ele>909.6</ele></trkpt><trkpt lat="45.827945" lon="9.44617"><time>2024-03-23T11:09:47.000Z</time><ele>909.6</ele></trkpt><trkpt lat="45.827932" lon="9.44616"><time>2024-03-23T11:09:48.000Z</time><ele>909.6</ele></trkpt><trkpt lat="45.827924" lon="9.446153"><time>2024-03-23T11:09:49.000Z</time><ele>909.6</ele></trkpt><trkpt lat="45.827909" lon="9.446137"><time>2024-03-23T11:09:50.000Z</time><ele>909.4</ele></trkpt><trkpt lat="45.827892" lon="9.446127"><time>2024-03-23T11:09:51.000Z</time><ele>909.4</ele></trkpt><trkpt lat="45.827884" lon="9.446129"><time>2024-03-23T11:09:52.000Z</time><ele>909.4</ele></trkpt><trkpt lat="45.827881" lon="9.446135"><time>2024-03-23T11:09:53.000Z</time><ele>909.2</ele></trkpt><trkpt lat="45.827876" lon="9.446139"><time>2024-03-23T11:09:54.000Z</time><ele>909.2</ele></trkpt><trkpt lat="45.827863" lon="9.446141"><time>2024-03-23T11:09:55.000Z</time><ele>909</ele></trkpt><trkpt lat="45.827848" lon="9.446141"><time>2024-03-23T11:09:56.000Z</time><ele>908.8</ele></trkpt><trkpt lat="45.827835" lon="9.446137"><time>2024-03-23T11:09:57.000Z</time><ele>908.6</ele></trkpt><trkpt lat="45.827826" lon="9.446137"><time>2024-03-23T11:09:58.000Z</time><ele>908.6</ele></trkpt><trkpt lat="45.827815" lon="9.446138"><time>2024-03-23T11:09:59.000Z</time><ele>908.4</ele></trkpt><trkpt lat="45.827808" lon="9.446142"><time>2024-03-23T11:10:00.000Z</time><ele>908.4</ele></trkpt><trkpt lat="45.827796" lon="9.446136"><time>2024-03-23T11:10:01.000Z</time><ele>908.4</ele></trkpt><trkpt lat="45.827786" lon="9.446127"><time>2024-03-23T11:10:02.000Z</time><ele>908.2</ele></trkpt><trkpt lat="45.827775" lon="9.446112"><time>2024-03-23T11:10:03.000Z</time><ele>908</ele></trkpt><trkpt lat="45.827765" lon="9.446109"><time>2024-03-23T11:10:04.000Z</time><ele>908</ele></trkpt><trkpt lat="45.827759" lon="9.446106"><time>2024-03-23T11:10:05.000Z</time><ele>907.8</ele></trkpt><trkpt lat="45.827755" lon="9.446115"><time>2024-03-23T11:10:06.000Z</time><ele>907.6</ele></trkpt><trkpt lat="45.827749" lon="9.446127"><time>2024-03-23T11:10:07.000Z</time><ele>907.4</ele></trkpt><trkpt lat="45.827742" lon="9.446146"><time>2024-03-23T11:10:08.000Z</time><ele>907.2</ele></trkpt><trkpt lat="45.827732" lon="9.446144"><time>2024-03-23T11:10:09.000Z</time><ele>907.2</ele></trkpt><trkpt lat="45.827728" lon="9.446146"><time>2024-03-23T11:10:10.000Z</time><ele>907</ele></trkpt><trkpt lat="45.827724" lon="9.446153"><time>2024-03-23T11:10:11.000Z</time><ele>907</ele></trkpt><trkpt lat="45.827717" lon="9.446161"><time>2024-03-23T11:10:12.000Z</time><ele>906.8</ele></trkpt><trkpt lat="45.827715" lon="9.446166"><time>2024-03-23T11:10:13.000Z</time><ele>906.8</ele></trkpt><trkpt lat="45.827715" lon="9.446171"><time>2024-03-23T11:10:14.000Z</time><ele>906.6</ele></trkpt><trkpt lat="45.827712" lon="9.446173"><time>2024-03-23T11:10:15.000Z</time><ele>906.4</ele></trkpt><trkpt lat="45.827703" lon="9.446178"><time>2024-03-23T11:10:16.000Z</time><ele>906.2</ele></trkpt><trkpt lat="45.827689" lon="9.446179"><time>2024-03-23T11:10:17.000Z</time><ele>906</ele></trkpt><trkpt lat="45.827683" lon="9.446178"><time>2024-03-23T11:10:18.000Z</time><ele>905.6</ele></trkpt><trkpt lat="45.827674" lon="9.446171"><time>2024-03-23T11:10:19.000Z</time><ele>905.4</ele></trkpt><trkpt lat="45.827669" lon="9.446171"><time>2024-03-23T11:10:20.000Z</time><ele>905.2</ele></trkpt><trkpt lat="45.827663" lon="9.446168"><time>2024-03-23T11:10:21.000Z</time><ele>905.2</ele></trkpt><trkpt lat="45.827659" lon="9.446169"><time>2024-03-23T11:10:22.000Z</time><ele>905</ele></trkpt><trkpt lat="45.82765" lon="9.446162"><time>2024-03-23T11:10:23.000Z</time><ele>904.8</ele></trkpt><trkpt lat="45.827641" lon="9.446159"><time>2024-03-23T11:10:24.000Z</time><ele>904.4</ele></trkpt><trkpt lat="45.827633" lon="9.446162"><time>2024-03-23T11:10:25.000Z</time><ele>904.2</ele></trkpt><trkpt lat="45.827629" lon="9.446166"><time>2024-03-23T11:10:26.000Z</time><ele>904</ele></trkpt><trkpt lat="45.827626" lon="9.44617"><time>2024-03-23T11:10:27.000Z</time><ele>904</ele></trkpt><trkpt lat="45.827619" lon="9.446176"><time>2024-03-23T11:10:28.000Z</time><ele>903.8</ele></trkpt><trkpt lat="45.827613" lon="9.446186"><time>2024-03-23T11:10:29.000Z</time><ele>903.6</ele></trkpt><trkpt lat="45.827602" lon="9.446184"><time>2024-03-23T11:10:30.000Z</time><ele>903.4</ele></trkpt><trkpt lat="45.827592" lon="9.446183"><time>2024-03-23T11:10:31.000Z</time><ele>903.2</ele></trkpt><trkpt lat="45.827587" lon="9.446183"><time>2024-03-23T11:10:32.000Z</time><ele>903</ele></trkpt><trkpt lat="45.827582" lon="9.446182"><time>2024-03-23T11:10:33.000Z</time><ele>902.6</ele></trkpt><trkpt lat="45.827577" lon="9.446181"><time>2024-03-23T11:10:34.000Z</time><ele>902.4</ele></trkpt><trkpt lat="45.827574" lon="9.446192"><time>2024-03-23T11:10:35.000Z</time><ele>902.4</ele></trkpt><trkpt lat="45.827571" lon="9.446193"><time>2024-03-23T11:10:36.000Z</time><ele>902.2</ele></trkpt><trkpt lat="45.827567" lon="9.446198"><time>2024-03-23T11:10:37.000Z</time><ele>902</ele></trkpt><trkpt lat="45.827557" lon="9.446199"><time>2024-03-23T11:10:38.000Z</time><ele>901.8</ele></trkpt><trkpt lat="45.827553" lon="9.446201"><time>2024-03-23T11:10:39.000Z</time><ele>901.6</ele></trkpt><trkpt lat="45.827551" lon="9.446204"><time>2024-03-23T11:10:40.000Z</time><ele>901.2</ele></trkpt><trkpt lat="45.827546" lon="9.446208"><time>2024-03-23T11:10:41.000Z</time><ele>901</ele></trkpt><trkpt lat="45.827541" lon="9.446211"><time>2024-03-23T11:10:42.000Z</time><ele>900.8</ele></trkpt><trkpt lat="45.82753" lon="9.446208"><time>2024-03-23T11:10:43.000Z</time><ele>900.4</ele></trkpt><trkpt lat="45.827527" lon="9.446211"><time>2024-03-23T11:10:44.000Z</time><ele>900.2</ele></trkpt><trkpt lat="45.827518" lon="9.44621"><time>2024-03-23T11:10:45.000Z</time><ele>900</ele></trkpt><trkpt lat="45.827515" lon="9.446212"><time>2024-03-23T11:10:46.000Z</time><ele>899.8</ele></trkpt><trkpt lat="45.827513" lon="9.446216"><time>2024-03-23T11:10:47.000Z</time><ele>899.6</ele></trkpt><trkpt lat="45.827506" lon="9.446217"><time>2024-03-23T11:10:48.000Z</time><ele>899.4</ele></trkpt><trkpt lat="45.827498" lon="9.446212"><time>2024-03-23T11:10:49.000Z</time><ele>899.2</ele></trkpt><trkpt lat="45.827487" lon="9.446206"><time>2024-03-23T11:10:50.000Z</time><ele>899.2</ele></trkpt><trkpt lat="45.827481" lon="9.446205"><time>2024-03-23T11:10:51.000Z</time><ele>898.8</ele></trkpt><trkpt lat="45.827477" lon="9.446205"><time>2024-03-23T11:10:52.000Z</time><ele>898.4</ele></trkpt><trkpt lat="45.827474" lon="9.446207"><time>2024-03-23T11:10:53.000Z</time><ele>898.2</ele></trkpt><trkpt lat="45.827467" lon="9.446209"><time>2024-03-23T11:10:54.000Z</time><ele>898</ele></trkpt><trkpt lat="45.827464" lon="9.446215"><time>2024-03-23T11:10:55.000Z</time><ele>897.8</ele></trkpt><trkpt lat="45.827455" lon="9.446216"><time>2024-03-23T11:10:56.000Z</time><ele>897.8</ele></trkpt><trkpt lat="45.827453" lon="9.446219"><time>2024-03-23T11:10:57.000Z</time><ele>897.4</ele></trkpt><trkpt lat="45.827449" lon="9.446214"><time>2024-03-23T11:10:58.000Z</time><ele>897</ele></trkpt><trkpt lat="45.82744" lon="9.446213"><time>2024-03-23T11:10:59.000Z</time><ele>897</ele></trkpt><trkpt lat="45.827433" lon="9.446216"><time>2024-03-23T11:11:00.000Z</time><ele>896.8</ele></trkpt><trkpt lat="45.827431" lon="9.446227"><time>2024-03-23T11:11:01.000Z</time><ele>896.6</ele></trkpt><trkpt lat="45.827426" lon="9.44623"><time>2024-03-23T11:11:02.000Z</time><ele>896.4</ele></trkpt><trkpt lat="45.827421" lon="9.446225"><time>2024-03-23T11:11:03.000Z</time><ele>896.2</ele></trkpt><trkpt lat="45.827411" lon="9.44622"><time>2024-03-23T11:11:04.000Z</time><ele>896</ele></trkpt><trkpt lat="45.827405" lon="9.446216"><time>2024-03-23T11:11:05.000Z</time><ele>895.8</ele></trkpt><trkpt lat="45.827399" lon="9.446219"><time>2024-03-23T11:11:06.000Z</time><ele>895.6</ele></trkpt><trkpt lat="45.827392" lon="9.446219"><time>2024-03-23T11:11:07.000Z</time><ele>895.4</ele></trkpt><trkpt lat="45.827383" lon="9.44622"><time>2024-03-23T11:11:08.000Z</time><ele>895.2</ele></trkpt><trkpt lat="45.827372" lon="9.446224"><time>2024-03-23T11:11:09.000Z</time><ele>895</ele></trkpt><trkpt lat="45.827363" lon="9.446228"><time>2024-03-23T11:11:10.000Z</time><ele>894.8</ele></trkpt><trkpt lat="45.827352" lon="9.446238"><time>2024-03-23T11:11:11.000Z</time><ele>894.6</ele></trkpt><trkpt lat="45.827343" lon="9.446244"><time>2024-03-23T11:11:12.000Z</time><ele>894.4</ele></trkpt><trkpt lat="45.827334" lon="9.446247"><time>2024-03-23T11:11:13.000Z</time><ele>894.4</ele></trkpt><trkpt lat="45.827327" lon="9.446255"><time>2024-03-23T11:11:14.000Z</time><ele>894.2</ele></trkpt><trkpt lat="45.827317" lon="9.446259"><time>2024-03-23T11:11:15.000Z</time><ele>894.2</ele></trkpt><trkpt lat="45.827308" lon="9.446265"><time>2024-03-23T11:11:16.000Z</time><ele>894</ele></trkpt><trkpt lat="45.827298" lon="9.446262"><time>2024-03-23T11:11:17.000Z</time><ele>893.8</ele></trkpt><trkpt lat="45.827293" lon="9.446262"><time>2024-03-23T11:11:18.000Z</time><ele>893.6</ele></trkpt><trkpt lat="45.827292" lon="9.446267"><time>2024-03-23T11:11:19.000Z</time><ele>893.2</ele></trkpt><trkpt lat="45.827294" lon="9.446267"><time>2024-03-23T11:11:20.000Z</time><ele>893</ele></trkpt><trkpt lat="45.827292" lon="9.446268"><time>2024-03-23T11:11:21.000Z</time><ele>893</ele></trkpt><trkpt lat="45.827294" lon="9.446272"><time>2024-03-23T11:11:22.000Z</time><ele>892.8</ele></trkpt><trkpt lat="45.827289" lon="9.446272"><time>2024-03-23T11:11:23.000Z</time><ele>892.6</ele></trkpt><trkpt lat="45.827286" lon="9.446273"><time>2024-03-23T11:11:24.000Z</time><ele>892.2</ele></trkpt><trkpt lat="45.82728" lon="9.446276"><time>2024-03-23T11:11:25.000Z</time><ele>892</ele></trkpt><trkpt lat="45.827274" lon="9.44628"><time>2024-03-23T11:11:26.000Z</time><ele>892</ele></trkpt><trkpt lat="45.827271" lon="9.446287"><time>2024-03-23T11:11:27.000Z</time><ele>891.6</ele></trkpt><trkpt lat="45.827271" lon="9.446293"><time>2024-03-23T11:11:28.000Z</time><ele>891.4</ele></trkpt><trkpt lat="45.827268" lon="9.446294"><time>2024-03-23T11:11:29.000Z</time><ele>891</ele></trkpt><trkpt lat="45.82726" lon="9.446291"><time>2024-03-23T11:11:30.000Z</time><ele>890.8</ele></trkpt><trkpt lat="45.827255" lon="9.446294"><time>2024-03-23T11:11:31.000Z</time><ele>890.8</ele></trkpt><trkpt lat="45.827251" lon="9.446298"><time>2024-03-23T11:11:32.000Z</time><ele>890.6</ele></trkpt><trkpt lat="45.827246" lon="9.446303"><time>2024-03-23T11:11:33.000Z</time><ele>890.4</ele></trkpt><trkpt lat="45.827238" lon="9.446307"><time>2024-03-23T11:11:34.000Z</time><ele>890.2</ele></trkpt><trkpt lat="45.827232" lon="9.446311"><time>2024-03-23T11:11:35.000Z</time><ele>889.8</ele></trkpt><trkpt lat="45.82723" lon="9.446315"><time>2024-03-23T11:11:36.000Z</time><ele>889.4</ele></trkpt><trkpt lat="45.827228" lon="9.446318"><time>2024-03-23T11:11:37.000Z</time><ele>889.2</ele></trkpt><trkpt lat="45.827217" lon="9.446311"><time>2024-03-23T11:11:38.000Z</time><ele>889</ele></trkpt><trkpt lat="45.827206" lon="9.446297"><time>2024-03-23T11:11:39.000Z</time><ele>888.6</ele></trkpt><trkpt lat="45.827196" lon="9.44629"><time>2024-03-23T11:11:40.000Z</time><ele>888.4</ele></trkpt><trkpt lat="45.827185" lon="9.446288"><time>2024-03-23T11:11:41.000Z</time><ele>888.2</ele></trkpt><trkpt lat="45.827171" lon="9.446284"><time>2024-03-23T11:11:42.000Z</time><ele>888</ele></trkpt><trkpt lat="45.827159" lon="9.446282"><time>2024-03-23T11:11:43.000Z</time><ele>887.8</ele></trkpt><trkpt lat="45.827148" lon="9.44628"><time>2024-03-23T11:11:44.000Z</time><ele>887.6</ele></trkpt><trkpt lat="45.827135" lon="9.446275"><time>2024-03-23T11:11:45.000Z</time><ele>887.6</ele></trkpt><trkpt lat="45.827123" lon="9.446271"><time>2024-03-23T11:11:46.000Z</time><ele>887.4</ele></trkpt><trkpt lat="45.827112" lon="9.446267"><time>2024-03-23T11:11:47.000Z</time><ele>887</ele></trkpt><trkpt lat="45.827103" lon="9.446262"><time>2024-03-23T11:11:48.000Z</time><ele>886.8</ele></trkpt><trkpt lat="45.827097" lon="9.446259"><time>2024-03-23T11:11:49.000Z</time><ele>886.6</ele></trkpt><trkpt lat="45.827095" lon="9.446258"><time>2024-03-23T11:11:50.000Z</time><ele>886.4</ele></trkpt><trkpt lat="45.827093" lon="9.446254"><time>2024-03-23T11:11:51.000Z</time><ele>886.4</ele></trkpt><trkpt lat="45.82709" lon="9.446258"><time>2024-03-23T11:11:52.000Z</time><ele>886.2</ele></trkpt><trkpt lat="45.827085" lon="9.446259"><time>2024-03-23T11:11:53.000Z</time><ele>886</ele></trkpt><trkpt lat="45.827078" lon="9.44626"><time>2024-03-23T11:11:54.000Z</time><ele>885.6</ele></trkpt><trkpt lat="45.82707" lon="9.446261"><time>2024-03-23T11:11:55.000Z</time><ele>885.4</ele></trkpt><trkpt lat="45.827061" lon="9.446262"><time>2024-03-23T11:11:56.000Z</time><ele>885</ele></trkpt><trkpt lat="45.827055" lon="9.446265"><time>2024-03-23T11:11:57.000Z</time><ele>884.8</ele></trkpt><trkpt lat="45.827048" lon="9.446265"><time>2024-03-23T11:11:58.000Z</time><ele>884.6</ele></trkpt><trkpt lat="45.827042" lon="9.446263"><time>2024-03-23T11:11:59.000Z</time><ele>884.4</ele></trkpt><trkpt lat="45.827034" lon="9.446261"><time>2024-03-23T11:12:00.000Z</time><ele>884.2</ele></trkpt><trkpt lat="45.827027" lon="9.446257"><time>2024-03-23T11:12:01.000Z</time><ele>884.2</ele></trkpt><trkpt lat="45.827027" lon="9.446261"><time>2024-03-23T11:12:02.000Z</time><ele>883.8</ele></trkpt><trkpt lat="45.827023" lon="9.446263"><time>2024-03-23T11:12:03.000Z</time><ele>883.6</ele></trkpt><trkpt lat="45.82702" lon="9.446264"><time>2024-03-23T11:12:04.000Z</time><ele>883.4</ele></trkpt><trkpt lat="45.827015" lon="9.446262"><time>2024-03-23T11:12:05.000Z</time><ele>883.2</ele></trkpt><trkpt lat="45.827012" lon="9.446263"><time>2024-03-23T11:12:06.000Z</time><ele>883.2</ele></trkpt><trkpt lat="45.827007" lon="9.446262"><time>2024-03-23T11:12:07.000Z</time><ele>883</ele></trkpt><trkpt lat="45.827003" lon="9.446261"><time>2024-03-23T11:12:08.000Z</time><ele>883</ele></trkpt><trkpt lat="45.827" lon="9.446265"><time>2024-03-23T11:12:09.000Z</time><ele>882.8</ele></trkpt><trkpt lat="45.827" lon="9.446272"><time>2024-03-23T11:12:10.000Z</time><ele>882.4</ele></trkpt><trkpt lat="45.826995" lon="9.446272"><time>2024-03-23T11:12:11.000Z</time><ele>882.2</ele></trkpt><trkpt lat="45.826983" lon="9.446266"><time>2024-03-23T11:12:12.000Z</time><ele>881.8</ele></trkpt><trkpt lat="45.82697" lon="9.446264"><time>2024-03-23T11:12:13.000Z</time><ele>881.6</ele></trkpt><trkpt lat="45.826958" lon="9.44626"><time>2024-03-23T11:12:14.000Z</time><ele>881.4</ele></trkpt><trkpt lat="45.826954" lon="9.446257"><time>2024-03-23T11:12:15.000Z</time><ele>881.4</ele></trkpt><trkpt lat="45.826953" lon="9.446258"><time>2024-03-23T11:12:16.000Z</time><ele>881.2</ele></trkpt><trkpt lat="45.826953" lon="9.446259"><time>2024-03-23T11:12:17.000Z</time><ele>881</ele></trkpt><trkpt lat="45.826942" lon="9.446249"><time>2024-03-23T11:12:18.000Z</time><ele>881</ele></trkpt><trkpt lat="45.826928" lon="9.446238"><time>2024-03-23T11:12:19.000Z</time><ele>880.8</ele></trkpt><trkpt lat="45.826917" lon="9.446234"><time>2024-03-23T11:12:20.000Z</time><ele>880.6</ele></trkpt><trkpt lat="45.826909" lon="9.446232"><time>2024-03-23T11:12:21.000Z</time><ele>880.4</ele></trkpt><trkpt lat="45.826905" lon="9.446229"><time>2024-03-23T11:12:22.000Z</time><ele>880.2</ele></trkpt><trkpt lat="45.826902" lon="9.44623"><time>2024-03-23T11:12:23.000Z</time><ele>879.8</ele></trkpt><trkpt lat="45.8269" lon="9.446236"><time>2024-03-23T11:12:24.000Z</time><ele>879.6</ele></trkpt><trkpt lat="45.8269" lon="9.446245"><time>2024-03-23T11:12:25.000Z</time><ele>879.4</ele></trkpt><trkpt lat="45.826894" lon="9.446248"><time>2024-03-23T11:12:26.000Z</time><ele>879.2</ele></trkpt><trkpt lat="45.826888" lon="9.446245"><time>2024-03-23T11:12:27.000Z</time><ele>879</ele></trkpt><trkpt lat="45.826891" lon="9.446246"><time>2024-03-23T11:12:28.000Z</time><ele>878.8</ele></trkpt><trkpt lat="45.826885" lon="9.446245"><time>2024-03-23T11:12:29.000Z</time><ele>878.6</ele></trkpt><trkpt lat="45.826885" lon="9.446243"><time>2024-03-23T11:12:30.000Z</time><ele>878.4</ele></trkpt><trkpt lat="45.826881" lon="9.446242"><time>2024-03-23T11:12:31.000Z</time><ele>878.2</ele></trkpt><trkpt lat="45.826871" lon="9.446241"><time>2024-03-23T11:12:32.000Z</time><ele>878</ele></trkpt><trkpt lat="45.826862" lon="9.446238"><time>2024-03-23T11:12:33.000Z</time><ele>878</ele></trkpt><trkpt lat="45.826853" lon="9.446236"><time>2024-03-23T11:12:34.000Z</time><ele>877.6</ele></trkpt><trkpt lat="45.826849" lon="9.446236"><time>2024-03-23T11:12:35.000Z</time><ele>877.2</ele></trkpt><trkpt lat="45.826846" lon="9.446242"><time>2024-03-23T11:12:36.000Z</time><ele>877</ele></trkpt><trkpt lat="45.826842" lon="9.446244"><time>2024-03-23T11:12:37.000Z</time><ele>876.8</ele></trkpt><trkpt lat="45.826838" lon="9.446238"><time>2024-03-23T11:12:38.000Z</time><ele>876.6</ele></trkpt><trkpt lat="45.82683" lon="9.446233"><time>2024-03-23T11:12:39.000Z</time><ele>876.4</ele></trkpt><trkpt lat="45.826826" lon="9.44623"><time>2024-03-23T11:12:40.000Z</time><ele>876.2</ele></trkpt><trkpt lat="45.826818" lon="9.446224"><time>2024-03-23T11:12:41.000Z</time><ele>876</ele></trkpt><trkpt lat="45.826812" lon="9.446223"><time>2024-03-23T11:12:42.000Z</time><ele>876</ele></trkpt><trkpt lat="45.82681" lon="9.446219"><time>2024-03-23T11:12:43.000Z</time><ele>875.8</ele></trkpt><trkpt lat="45.826804" lon="9.446216"><time>2024-03-23T11:12:44.000Z</time><ele>875.6</ele></trkpt><trkpt lat="45.826795" lon="9.446214"><time>2024-03-23T11:12:45.000Z</time><ele>875.4</ele></trkpt><trkpt lat="45.826787" lon="9.446208"><time>2024-03-23T11:12:46.000Z</time><ele>875.2</ele></trkpt><trkpt lat="45.82678" lon="9.446199"><time>2024-03-23T11:12:47.000Z</time><ele>874.8</ele></trkpt><trkpt lat="45.826773" lon="9.446185"><time>2024-03-23T11:12:48.000Z</time><ele>874.6</ele></trkpt><trkpt lat="45.826768" lon="9.446175"><time>2024-03-23T11:12:49.000Z</time><ele>874.2</ele></trkpt><trkpt lat="45.826762" lon="9.446167"><time>2024-03-23T11:12:50.000Z</time><ele>874</ele></trkpt><trkpt lat="45.826757" lon="9.446163"><time>2024-03-23T11:12:51.000Z</time><ele>873.8</ele></trkpt><trkpt lat="45.826752" lon="9.446167"><time>2024-03-23T11:12:52.000Z</time><ele>873.6</ele></trkpt><trkpt lat="45.826747" lon="9.446174"><time>2024-03-23T11:12:53.000Z</time><ele>873.4</ele></trkpt><trkpt lat="45.826737" lon="9.446173"><time>2024-03-23T11:12:54.000Z</time><ele>873.2</ele></trkpt><trkpt lat="45.826729" lon="9.446175"><time>2024-03-23T11:12:55.000Z</time><ele>873.2</ele></trkpt><trkpt lat="45.826722" lon="9.446169"><time>2024-03-23T11:12:56.000Z</time><ele>873</ele></trkpt><trkpt lat="45.826716" lon="9.446161"><time>2024-03-23T11:12:57.000Z</time><ele>872.8</ele></trkpt><trkpt lat="45.82671" lon="9.446151"><time>2024-03-23T11:12:58.000Z</time><ele>872.4</ele></trkpt><trkpt lat="45.826699" lon="9.446145"><time>2024-03-23T11:12:59.000Z</time><ele>872.2</ele></trkpt><trkpt lat="45.826688" lon="9.446146"><time>2024-03-23T11:13:00.000Z</time><ele>872</ele></trkpt><trkpt lat="45.826679" lon="9.446145"><time>2024-03-23T11:13:01.000Z</time><ele>871.8</ele></trkpt><trkpt lat="45.826675" lon="9.446143"><time>2024-03-23T11:13:02.000Z</time><ele>871.6</ele></trkpt><trkpt lat="45.826668" lon="9.446144"><time>2024-03-23T11:13:03.000Z</time><ele>871.6</ele></trkpt><trkpt lat="45.826658" lon="9.44615"><time>2024-03-23T11:13:04.000Z</time><ele>871.4</ele></trkpt><trkpt lat="45.82665" lon="9.44616"><time>2024-03-23T11:13:05.000Z</time><ele>871.2</ele></trkpt><trkpt lat="45.826637" lon="9.446165"><time>2024-03-23T11:13:06.000Z</time><ele>871</ele></trkpt><trkpt lat="45.826625" lon="9.446171"><time>2024-03-23T11:13:07.000Z</time><ele>870.8</ele></trkpt><trkpt lat="45.826616" lon="9.446184"><time>2024-03-23T11:13:08.000Z</time><ele>870.8</ele></trkpt><trkpt lat="45.826614" lon="9.446189"><time>2024-03-23T11:13:09.000Z</time><ele>870.6</ele></trkpt><trkpt lat="45.826613" lon="9.446193"><time>2024-03-23T11:13:10.000Z</time><ele>870.6</ele></trkpt><trkpt lat="45.826603" lon="9.446194"><time>2024-03-23T11:13:11.000Z</time><ele>870.4</ele></trkpt><trkpt lat="45.826589" lon="9.446186"><time>2024-03-23T11:13:12.000Z</time><ele>870.2</ele></trkpt><trkpt lat="45.82658" lon="9.446183"><time>2024-03-23T11:13:13.000Z</time><ele>870</ele></trkpt><trkpt lat="45.826575" lon="9.446184"><time>2024-03-23T11:13:14.000Z</time><ele>869.8</ele></trkpt><trkpt lat="45.826568" lon="9.446185"><time>2024-03-23T11:13:15.000Z</time><ele>869.6</ele></trkpt><trkpt lat="45.826558" lon="9.446182"><time>2024-03-23T11:13:16.000Z</time><ele>869.4</ele></trkpt><trkpt lat="45.826551" lon="9.446181"><time>2024-03-23T11:13:17.000Z</time><ele>869.4</ele></trkpt><trkpt lat="45.826543" lon="9.446179"><time>2024-03-23T11:13:18.000Z</time><ele>869.4</ele></trkpt><trkpt lat="45.82653" lon="9.446172"><time>2024-03-23T11:13:19.000Z</time><ele>869.2</ele></trkpt><trkpt lat="45.826516" lon="9.446169"><time>2024-03-23T11:13:20.000Z</time><ele>869.2</ele></trkpt><trkpt lat="45.8265" lon="9.446169"><time>2024-03-23T11:13:21.000Z</time><ele>869</ele></trkpt><trkpt lat="45.826489" lon="9.446166"><time>2024-03-23T11:13:22.000Z</time><ele>868.6</ele></trkpt><trkpt lat="45.826484" lon="9.446165"><time>2024-03-23T11:13:23.000Z</time><ele>868.6</ele></trkpt><trkpt lat="45.826478" lon="9.446164"><time>2024-03-23T11:13:24.000Z</time><ele>868.4</ele></trkpt><trkpt lat="45.826475" lon="9.446164"><time>2024-03-23T11:13:25.000Z</time><ele>868.2</ele></trkpt><trkpt lat="45.82647" lon="9.446162"><time>2024-03-23T11:13:26.000Z</time><ele>868</ele></trkpt><trkpt lat="45.826463" lon="9.44616"><time>2024-03-23T11:13:27.000Z</time><ele>868</ele></trkpt><trkpt lat="45.826458" lon="9.446162"><time>2024-03-23T11:13:28.000Z</time><ele>867.8</ele></trkpt><trkpt lat="45.826452" lon="9.446162"><time>2024-03-23T11:13:29.000Z</time><ele>867.6</ele></trkpt><trkpt lat="45.826446" lon="9.446163"><time>2024-03-23T11:13:30.000Z</time><ele>867.4</ele></trkpt><trkpt lat="45.826439" lon="9.446159"><time>2024-03-23T11:13:31.000Z</time><ele>867.2</ele></trkpt><trkpt lat="45.826431" lon="9.446158"><time>2024-03-23T11:13:32.000Z</time><ele>867</ele></trkpt><trkpt lat="45.826417" lon="9.446154"><time>2024-03-23T11:13:33.000Z</time><ele>867</ele></trkpt><trkpt lat="45.826404" lon="9.446154"><time>2024-03-23T11:13:34.000Z</time><ele>866.6</ele></trkpt><trkpt lat="45.826387" lon="9.446144"><time>2024-03-23T11:13:35.000Z</time><ele>866.4</ele></trkpt><trkpt lat="45.826376" lon="9.446141"><time>2024-03-23T11:13:36.000Z</time><ele>866.2</ele></trkpt><trkpt lat="45.826368" lon="9.446134"><time>2024-03-23T11:13:37.000Z</time><ele>866</ele></trkpt><trkpt lat="45.826358" lon="9.446124"><time>2024-03-23T11:13:38.000Z</time><ele>866</ele></trkpt><trkpt lat="45.826353" lon="9.446119"><time>2024-03-23T11:13:39.000Z</time><ele>865.8</ele></trkpt><trkpt lat="45.82635" lon="9.446116"><time>2024-03-23T11:13:40.000Z</time><ele>865.6</ele></trkpt><trkpt lat="45.826347" lon="9.446123"><time>2024-03-23T11:13:41.000Z</time><ele>865.6</ele></trkpt><trkpt lat="45.826336" lon="9.446122"><time>2024-03-23T11:13:42.000Z</time><ele>865.4</ele></trkpt><trkpt lat="45.826321" lon="9.446115"><time>2024-03-23T11:13:43.000Z</time><ele>865.4</ele></trkpt><trkpt lat="45.826308" lon="9.446111"><time>2024-03-23T11:13:44.000Z</time><ele>865</ele></trkpt><trkpt lat="45.826296" lon="9.446107"><time>2024-03-23T11:13:45.000Z</time><ele>864.8</ele></trkpt><trkpt lat="45.826285" lon="9.446103"><time>2024-03-23T11:13:46.000Z</time><ele>864.8</ele></trkpt><trkpt lat="45.826275" lon="9.446102"><time>2024-03-23T11:13:47.000Z</time><ele>864.6</ele></trkpt><trkpt lat="45.826265" lon="9.446098"><time>2024-03-23T11:13:48.000Z</time><ele>864.6</ele></trkpt><trkpt lat="45.82626" lon="9.446094"><time>2024-03-23T11:13:49.000Z</time><ele>864.4</ele></trkpt><trkpt lat="45.826249" lon="9.446098"><time>2024-03-23T11:13:50.000Z</time><ele>864.4</ele></trkpt><trkpt lat="45.826243" lon="9.446103"><time>2024-03-23T11:13:51.000Z</time><ele>864.2</ele></trkpt><trkpt lat="45.826227" lon="9.446094"><time>2024-03-23T11:13:52.000Z</time><ele>864</ele></trkpt><trkpt lat="45.826213" lon="9.446079"><time>2024-03-23T11:13:53.000Z</time><ele>864</ele></trkpt><trkpt lat="45.826207" lon="9.44607"><time>2024-03-23T11:13:54.000Z</time><ele>863.8</ele></trkpt><trkpt lat="45.826197" lon="9.446059"><time>2024-03-23T11:13:55.000Z</time><ele>863.6</ele></trkpt><trkpt lat="45.826195" lon="9.446062"><time>2024-03-23T11:13:56.000Z</time><ele>863.6</ele></trkpt><trkpt lat="45.826193" lon="9.446061"><time>2024-03-23T11:13:57.000Z</time><ele>863.4</ele></trkpt><trkpt lat="45.826192" lon="9.44606"><time>2024-03-23T11:13:58.000Z</time><ele>863.4</ele></trkpt><trkpt lat="45.826188" lon="9.446056"><time>2024-03-23T11:13:59.000Z</time><ele>863.2</ele></trkpt><trkpt lat="45.826186" lon="9.446052"><time>2024-03-23T11:14:00.000Z</time><ele>863</ele></trkpt><trkpt lat="45.826185" lon="9.446049"><time>2024-03-23T11:14:01.000Z</time><ele>862.8</ele></trkpt><trkpt lat="45.826176" lon="9.446044"><time>2024-03-23T11:14:02.000Z</time><ele>862.6</ele></trkpt><trkpt lat="45.826164" lon="9.446035"><time>2024-03-23T11:14:03.000Z</time><ele>862.4</ele></trkpt><trkpt lat="45.826149" lon="9.446028"><time>2024-03-23T11:14:04.000Z</time><ele>862.2</ele></trkpt><trkpt lat="45.826135" lon="9.446025"><time>2024-03-23T11:14:05.000Z</time><ele>862</ele></trkpt><trkpt lat="45.826124" lon="9.446015"><time>2024-03-23T11:14:06.000Z</time><ele>862</ele></trkpt><trkpt lat="45.826116" lon="9.446014"><time>2024-03-23T11:14:07.000Z</time><ele>862</ele></trkpt><trkpt lat="45.826105" lon="9.446007"><time>2024-03-23T11:14:08.000Z</time><ele>861.8</ele></trkpt><trkpt lat="45.826097" lon="9.446005"><time>2024-03-23T11:14:09.000Z</time><ele>861.6</ele></trkpt><trkpt lat="45.826086" lon="9.446004"><time>2024-03-23T11:14:10.000Z</time><ele>861.6</ele></trkpt><trkpt lat="45.826073" lon="9.446001"><time>2024-03-23T11:14:11.000Z</time><ele>861.4</ele></trkpt><trkpt lat="45.826058" lon="9.445993"><time>2024-03-23T11:14:12.000Z</time><ele>861.2</ele></trkpt><trkpt lat="45.826044" lon="9.445986"><time>2024-03-23T11:14:13.000Z</time><ele>861</ele></trkpt><trkpt lat="45.826041" lon="9.445988"><time>2024-03-23T11:14:14.000Z</time><ele>860.8</ele></trkpt><trkpt lat="45.826035" lon="9.445986"><time>2024-03-23T11:14:15.000Z</time><ele>860.6</ele></trkpt><trkpt lat="45.826026" lon="9.445992"><time>2024-03-23T11:14:16.000Z</time><ele>860.6</ele></trkpt><trkpt lat="45.826023" lon="9.445989"><time>2024-03-23T11:14:17.000Z</time><ele>860.4</ele></trkpt><trkpt lat="45.826021" lon="9.445989"><time>2024-03-23T11:14:18.000Z</time><ele>860.4</ele></trkpt><trkpt lat="45.826019" lon="9.445989"><time>2024-03-23T11:14:19.000Z</time><ele>860.2</ele></trkpt><trkpt lat="45.826017" lon="9.445987"><time>2024-03-23T11:14:20.000Z</time><ele>860.2</ele></trkpt><trkpt lat="45.826016" lon="9.445987"><time>2024-03-23T11:14:21.000Z</time><ele>859.8</ele></trkpt><trkpt lat="45.826016" lon="9.445985"><time>2024-03-23T11:14:22.000Z</time><ele>859.6</ele></trkpt><trkpt lat="45.826007" lon="9.445982"><time>2024-03-23T11:14:23.000Z</time><ele>859.4</ele></trkpt><trkpt lat="45.826002" lon="9.445978"><time>2024-03-23T11:14:24.000Z</time><ele>859.2</ele></trkpt><trkpt lat="45.825999" lon="9.445974"><time>2024-03-23T11:14:25.000Z</time><ele>859</ele></trkpt><trkpt lat="45.825998" lon="9.445976"><time>2024-03-23T11:14:26.000Z</time><ele>858.8</ele></trkpt><trkpt lat="45.826004" lon="9.445989"><time>2024-03-23T11:14:27.000Z</time><ele>858.6</ele></trkpt><trkpt lat="45.825991" lon="9.445983"><time>2024-03-23T11:14:28.000Z</time><ele>858.6</ele></trkpt><trkpt lat="45.825985" lon="9.44598"><time>2024-03-23T11:14:29.000Z</time><ele>858.2</ele></trkpt><trkpt lat="45.825986" lon="9.445983"><time>2024-03-23T11:14:30.000Z</time><ele>858</ele></trkpt><trkpt lat="45.825983" lon="9.445982"><time>2024-03-23T11:14:31.000Z</time><ele>858</ele></trkpt><trkpt lat="45.82598" lon="9.445979"><time>2024-03-23T11:14:32.000Z</time><ele>857.6</ele></trkpt><trkpt lat="45.82597" lon="9.445963"><time>2024-03-23T11:14:33.000Z</time><ele>857.4</ele></trkpt><trkpt lat="45.825961" lon="9.44595"><time>2024-03-23T11:14:34.000Z</time><ele>857.2</ele></trkpt><trkpt lat="45.825958" lon="9.445946"><time>2024-03-23T11:14:35.000Z</time><ele>857.2</ele></trkpt><trkpt lat="45.825958" lon="9.445937"><time>2024-03-23T11:14:36.000Z</time><ele>856.8</ele></trkpt><trkpt lat="45.825957" lon="9.44593"><time>2024-03-23T11:14:37.000Z</time><ele>856.6</ele></trkpt><trkpt lat="45.82595" lon="9.445922"><time>2024-03-23T11:14:38.000Z</time><ele>856.4</ele></trkpt><trkpt lat="45.825948" lon="9.44592"><time>2024-03-23T11:14:39.000Z</time><ele>856.2</ele></trkpt><trkpt lat="45.825947" lon="9.445918"><time>2024-03-23T11:14:40.000Z</time><ele>855.8</ele></trkpt><trkpt lat="45.825938" lon="9.445917"><time>2024-03-23T11:14:41.000Z</time><ele>855.6</ele></trkpt><trkpt lat="45.825928" lon="9.445914"><time>2024-03-23T11:14:42.000Z</time><ele>855.6</ele></trkpt><trkpt lat="45.825915" lon="9.44591"><time>2024-03-23T11:14:43.000Z</time><ele>855.4</ele></trkpt><trkpt lat="45.825914" lon="9.445908"><time>2024-03-23T11:14:44.000Z</time><ele>855.4</ele></trkpt><trkpt lat="45.825907" lon="9.445898"><time>2024-03-23T11:14:45.000Z</time><ele>855</ele></trkpt><trkpt lat="45.825899" lon="9.44589"><time>2024-03-23T11:14:46.000Z</time><ele>854.8</ele></trkpt><trkpt lat="45.825894" lon="9.445884"><time>2024-03-23T11:14:47.000Z</time><ele>854.8</ele></trkpt><trkpt lat="45.825893" lon="9.445879"><time>2024-03-23T11:14:48.000Z</time><ele>854.4</ele></trkpt><trkpt lat="45.825891" lon="9.445875"><time>2024-03-23T11:14:49.000Z</time><ele>854.2</ele></trkpt><trkpt lat="45.825889" lon="9.445874"><time>2024-03-23T11:14:50.000Z</time><ele>854.2</ele></trkpt><trkpt lat="45.825879" lon="9.445872"><time>2024-03-23T11:14:51.000Z</time><ele>854</ele></trkpt><trkpt lat="45.825877" lon="9.445872"><time>2024-03-23T11:14:52.000Z</time><ele>853.8</ele></trkpt><trkpt lat="45.825863" lon="9.44586"><time>2024-03-23T11:14:53.000Z</time><ele>853.8</ele></trkpt><trkpt lat="45.825852" lon="9.44585"><time>2024-03-23T11:14:54.000Z</time><ele>853.8</ele></trkpt><trkpt lat="45.825848" lon="9.445849"><time>2024-03-23T11:14:55.000Z</time><ele>853.6</ele></trkpt><trkpt lat="45.825829" lon="9.445838"><time>2024-03-23T11:14:56.000Z</time><ele>853.4</ele></trkpt><trkpt lat="45.825804" lon="9.445827"><time>2024-03-23T11:14:57.000Z</time><ele>853.2</ele></trkpt><trkpt lat="45.825791" lon="9.445825"><time>2024-03-23T11:14:58.000Z</time><ele>853</ele></trkpt><trkpt lat="45.825776" lon="9.445807"><time>2024-03-23T11:14:59.000Z</time><ele>852.8</ele></trkpt><trkpt lat="45.825766" lon="9.445803"><time>2024-03-23T11:15:00.000Z</time><ele>852.6</ele></trkpt><trkpt lat="45.825762" lon="9.445801"><time>2024-03-23T11:15:01.000Z</time><ele>852.6</ele></trkpt><trkpt lat="45.825748" lon="9.445791"><time>2024-03-23T11:15:02.000Z</time><ele>852.4</ele></trkpt><trkpt lat="45.825736" lon="9.445779"><time>2024-03-23T11:15:03.000Z</time><ele>852.4</ele></trkpt><trkpt lat="45.825726" lon="9.445761"><time>2024-03-23T11:15:04.000Z</time><ele>852.2</ele></trkpt><trkpt lat="45.825727" lon="9.445758"><time>2024-03-23T11:15:05.000Z</time><ele>852.2</ele></trkpt><trkpt lat="45.825722" lon="9.445754"><time>2024-03-23T11:15:06.000Z</time><ele>852</ele></trkpt><trkpt lat="45.825719" lon="9.445758"><time>2024-03-23T11:15:07.000Z</time><ele>851.8</ele></trkpt><trkpt lat="45.825711" lon="9.44575"><time>2024-03-23T11:15:08.000Z</time><ele>851.6</ele></trkpt><trkpt lat="45.825707" lon="9.445744"><time>2024-03-23T11:15:09.000Z</time><ele>851.6</ele></trkpt><trkpt lat="45.825685" lon="9.445717"><time>2024-03-23T11:15:10.000Z</time><ele>851.2</ele></trkpt><trkpt lat="45.825671" lon="9.445723"><time>2024-03-23T11:15:11.000Z</time><ele>851</ele></trkpt><trkpt lat="45.825672" lon="9.445732"><time>2024-03-23T11:15:12.000Z</time><ele>850.8</ele></trkpt><trkpt lat="45.825668" lon="9.44573"><time>2024-03-23T11:15:13.000Z</time><ele>850.6</ele></trkpt><trkpt lat="45.825649" lon="9.445713"><time>2024-03-23T11:15:14.000Z</time><ele>850.6</ele></trkpt><trkpt lat="45.825629" lon="9.445704"><time>2024-03-23T11:15:15.000Z</time><ele>850.4</ele></trkpt><trkpt lat="45.825612" lon="9.445691"><time>2024-03-23T11:15:16.000Z</time><ele>850.2</ele></trkpt><trkpt lat="45.825605" lon="9.445691"><time>2024-03-23T11:15:17.000Z</time><ele>850</ele></trkpt><trkpt lat="45.825599" lon="9.445692"><time>2024-03-23T11:15:18.000Z</time><ele>850</ele></trkpt><trkpt lat="45.825583" lon="9.445687"><time>2024-03-23T11:15:19.000Z</time><ele>849.8</ele></trkpt><trkpt lat="45.825576" lon="9.445681"><time>2024-03-23T11:15:20.000Z</time><ele>849.6</ele></trkpt><trkpt lat="45.825571" lon="9.445672"><time>2024-03-23T11:15:21.000Z</time><ele>849.4</ele></trkpt><trkpt lat="45.825567" lon="9.445666"><time>2024-03-23T11:15:22.000Z</time><ele>849.2</ele></trkpt><trkpt lat="45.825563" lon="9.445662"><time>2024-03-23T11:15:23.000Z</time><ele>849.2</ele></trkpt><trkpt lat="45.825555" lon="9.445653"><time>2024-03-23T11:15:24.000Z</time><ele>849</ele></trkpt><trkpt lat="45.825549" lon="9.445645"><time>2024-03-23T11:15:25.000Z</time><ele>848.8</ele></trkpt><trkpt lat="45.825544" lon="9.44564"><time>2024-03-23T11:15:26.000Z</time><ele>848.6</ele></trkpt><trkpt lat="45.825538" lon="9.445638"><time>2024-03-23T11:15:27.000Z</time><ele>848.4</ele></trkpt><trkpt lat="45.825531" lon="9.445635"><time>2024-03-23T11:15:28.000Z</time><ele>848.4</ele></trkpt><trkpt lat="45.825524" lon="9.445634"><time>2024-03-23T11:15:29.000Z</time><ele>848.2</ele></trkpt><trkpt lat="45.825517" lon="9.445633"><time>2024-03-23T11:15:30.000Z</time><ele>848.2</ele></trkpt><trkpt lat="45.82551" lon="9.445633"><time>2024-03-23T11:15:31.000Z</time><ele>848</ele></trkpt><trkpt lat="45.825506" lon="9.445634"><time>2024-03-23T11:15:32.000Z</time><ele>848</ele></trkpt><trkpt lat="45.825503" lon="9.445637"><time>2024-03-23T11:15:33.000Z</time><ele>847.8</ele></trkpt><trkpt lat="45.825501" lon="9.445648"><time>2024-03-23T11:15:34.000Z</time><ele>847.6</ele></trkpt><trkpt lat="45.825499" lon="9.445658"><time>2024-03-23T11:15:35.000Z</time><ele>847.2</ele></trkpt><trkpt lat="45.825496" lon="9.44567"><time>2024-03-23T11:15:36.000Z</time><ele>847</ele></trkpt><trkpt lat="45.825496" lon="9.445672"><time>2024-03-23T11:15:37.000Z</time><ele>847</ele></trkpt><trkpt lat="45.825497" lon="9.44567"><time>2024-03-23T11:15:38.000Z</time><ele>846.8</ele></trkpt><trkpt lat="45.825498" lon="9.445669"><time>2024-03-23T11:15:39.000Z</time><ele>847</ele></trkpt><trkpt lat="45.825499" lon="9.445669"><time>2024-03-23T11:15:40.000Z</time><ele>847.2</ele></trkpt><trkpt lat="45.8255" lon="9.445668"><time>2024-03-23T11:15:41.000Z</time><ele>847.6</ele></trkpt><trkpt lat="45.825501" lon="9.445668"><time>2024-03-23T11:15:42.000Z</time><ele>847.8</ele></trkpt><trkpt lat="45.825503" lon="9.445673"><time>2024-03-23T11:15:43.000Z</time><ele>847.8</ele></trkpt><trkpt lat="45.825503" lon="9.445674"><time>2024-03-23T11:15:44.000Z</time><ele>847.8</ele></trkpt><trkpt lat="45.825504" lon="9.445674"><time>2024-03-23T11:15:45.000Z</time><ele>847.8</ele></trkpt><trkpt lat="45.825506" lon="9.445676"><time>2024-03-23T11:15:46.000Z</time><ele>847.6</ele></trkpt><trkpt lat="45.825508" lon="9.445679"><time>2024-03-23T11:15:47.000Z</time><ele>847.4</ele></trkpt><trkpt lat="45.82551" lon="9.445681"><time>2024-03-23T11:15:48.000Z</time><ele>847.2</ele></trkpt><trkpt lat="45.825512" lon="9.44569"><time>2024-03-23T11:15:49.000Z</time><ele>847.2</ele></trkpt><trkpt lat="45.825514" lon="9.445693"><time>2024-03-23T11:15:50.000Z</time><ele>847.2</ele></trkpt><trkpt lat="45.825515" lon="9.445696"><time>2024-03-23T11:15:51.000Z</time><ele>847.2</ele></trkpt><trkpt lat="45.825516" lon="9.445696"><time>2024-03-23T11:15:52.000Z</time><ele>847.4</ele></trkpt><trkpt lat="45.825517" lon="9.445697"><time>2024-03-23T11:15:53.000Z</time><ele>847.4</ele></trkpt><trkpt lat="45.825519" lon="9.445699"><time>2024-03-23T11:15:54.000Z</time><ele>847.4</ele></trkpt><trkpt lat="45.825519" lon="9.445701"><time>2024-03-23T11:15:55.000Z</time><ele>847.4</ele></trkpt><trkpt lat="45.825518" lon="9.445699"><time>2024-03-23T11:15:56.000Z</time><ele>847.6</ele></trkpt><trkpt lat="45.825518" lon="9.4457"><time>2024-03-23T11:15:57.000Z</time><ele>847.6</ele></trkpt><trkpt lat="45.825517" lon="9.445698"><time>2024-03-23T11:15:58.000Z</time><ele>847.6</ele></trkpt><trkpt lat="45.825516" lon="9.445696"><time>2024-03-23T11:15:59.000Z</time><ele>847.6</ele></trkpt><trkpt lat="45.825518" lon="9.445692"><time>2024-03-23T11:16:00.000Z</time><ele>847.6</ele></trkpt><trkpt lat="45.825516" lon="9.445692"><time>2024-03-23T11:16:01.000Z</time><ele>847.6</ele></trkpt><trkpt lat="45.825513" lon="9.445693"><time>2024-03-23T11:16:02.000Z</time><ele>847.6</ele></trkpt><trkpt lat="45.825509" lon="9.445695"><time>2024-03-23T11:16:03.000Z</time><ele>847.6</ele></trkpt><trkpt lat="45.825505" lon="9.445696"><time>2024-03-23T11:16:04.000Z</time><ele>847.2</ele></trkpt><trkpt lat="45.825503" lon="9.445701"><time>2024-03-23T11:16:05.000Z</time><ele>846.8</ele></trkpt><trkpt lat="45.825502" lon="9.445706"><time>2024-03-23T11:16:06.000Z</time><ele>846.6</ele></trkpt><trkpt lat="45.825498" lon="9.445704"><time>2024-03-23T11:16:07.000Z</time><ele>846.6</ele></trkpt><trkpt lat="45.825496" lon="9.445707"><time>2024-03-23T11:16:08.000Z</time><ele>846.4</ele></trkpt><trkpt lat="45.825491" lon="9.445711"><time>2024-03-23T11:16:09.000Z</time><ele>846.2</ele></trkpt><trkpt lat="45.825487" lon="9.445714"><time>2024-03-23T11:16:10.000Z</time><ele>846</ele></trkpt><trkpt lat="45.825486" lon="9.445719"><time>2024-03-23T11:16:11.000Z</time><ele>845.8</ele></trkpt><trkpt lat="45.825486" lon="9.44572"><time>2024-03-23T11:16:12.000Z</time><ele>845.6</ele></trkpt><trkpt lat="45.825485" lon="9.445723"><time>2024-03-23T11:16:13.000Z</time><ele>845.2</ele></trkpt><trkpt lat="45.825483" lon="9.445721"><time>2024-03-23T11:16:14.000Z</time><ele>845</ele></trkpt><trkpt lat="45.825481" lon="9.445721"><time>2024-03-23T11:16:15.000Z</time><ele>844.6</ele></trkpt><trkpt lat="45.825479" lon="9.445718"><time>2024-03-23T11:16:16.000Z</time><ele>844.6</ele></trkpt><trkpt lat="45.825475" lon="9.445712"><time>2024-03-23T11:16:17.000Z</time><ele>844.4</ele></trkpt><trkpt lat="45.825474" lon="9.445709"><time>2024-03-23T11:16:18.000Z</time><ele>844.2</ele></trkpt><trkpt lat="45.82547" lon="9.445702"><time>2024-03-23T11:16:19.000Z</time><ele>844.2</ele></trkpt><trkpt lat="45.825465" lon="9.445692"><time>2024-03-23T11:16:20.000Z</time><ele>844</ele></trkpt><trkpt lat="45.825464" lon="9.445701"><time>2024-03-23T11:16:21.000Z</time><ele>843.8</ele></trkpt><trkpt lat="45.825464" lon="9.445696"><time>2024-03-23T11:16:22.000Z</time><ele>843.6</ele></trkpt><trkpt lat="45.825463" lon="9.445689"><time>2024-03-23T11:16:23.000Z</time><ele>843.4</ele></trkpt><trkpt lat="45.825459" lon="9.44568"><time>2024-03-23T11:16:24.000Z</time><ele>843.2</ele></trkpt><trkpt lat="45.825456" lon="9.445668"><time>2024-03-23T11:16:25.000Z</time><ele>843</ele></trkpt><trkpt lat="45.825456" lon="9.44566"><time>2024-03-23T11:16:26.000Z</time><ele>842.6</ele></trkpt><trkpt lat="45.825455" lon="9.445656"><time>2024-03-23T11:16:27.000Z</time><ele>842.6</ele></trkpt><trkpt lat="45.82545" lon="9.445646"><time>2024-03-23T11:16:28.000Z</time><ele>842.4</ele></trkpt><trkpt lat="45.825447" lon="9.445633"><time>2024-03-23T11:16:29.000Z</time><ele>842</ele></trkpt><trkpt lat="45.825445" lon="9.445628"><time>2024-03-23T11:16:30.000Z</time><ele>841.8</ele></trkpt><trkpt lat="45.825442" lon="9.445623"><time>2024-03-23T11:16:31.000Z</time><ele>841.6</ele></trkpt><trkpt lat="45.825438" lon="9.445619"><time>2024-03-23T11:16:32.000Z</time><ele>841.2</ele></trkpt><trkpt lat="45.825435" lon="9.445614"><time>2024-03-23T11:16:33.000Z</time><ele>841</ele></trkpt><trkpt lat="45.825434" lon="9.445614"><time>2024-03-23T11:16:34.000Z</time><ele>840.6</ele></trkpt><trkpt lat="45.825433" lon="9.445609"><time>2024-03-23T11:16:35.000Z</time><ele>840.4</ele></trkpt><trkpt lat="45.825434" lon="9.445601"><time>2024-03-23T11:16:36.000Z</time><ele>840.2</ele></trkpt><trkpt lat="45.825432" lon="9.445586"><time>2024-03-23T11:16:37.000Z</time><ele>840</ele></trkpt><trkpt lat="45.82543" lon="9.445576"><time>2024-03-23T11:16:38.000Z</time><ele>839.6</ele></trkpt><trkpt lat="45.825426" lon="9.445558"><time>2024-03-23T11:16:39.000Z</time><ele>839.6</ele></trkpt><trkpt lat="45.825426" lon="9.445551"><time>2024-03-23T11:16:40.000Z</time><ele>839.4</ele></trkpt><trkpt lat="45.825425" lon="9.445541"><time>2024-03-23T11:16:41.000Z</time><ele>839.2</ele></trkpt><trkpt lat="45.825426" lon="9.445531"><time>2024-03-23T11:16:42.000Z</time><ele>839</ele></trkpt><trkpt lat="45.825427" lon="9.445528"><time>2024-03-23T11:16:43.000Z</time><ele>838.8</ele></trkpt><trkpt lat="45.825426" lon="9.445525"><time>2024-03-23T11:16:44.000Z</time><ele>838.4</ele></trkpt><trkpt lat="45.825424" lon="9.445522"><time>2024-03-23T11:16:45.000Z</time><ele>838.2</ele></trkpt><trkpt lat="45.825423" lon="9.44552"><time>2024-03-23T11:16:46.000Z</time><ele>838.2</ele></trkpt><trkpt lat="45.82542" lon="9.445516"><time>2024-03-23T11:16:47.000Z</time><ele>838</ele></trkpt><trkpt lat="45.825418" lon="9.44551"><time>2024-03-23T11:16:48.000Z</time><ele>837.8</ele></trkpt><trkpt lat="45.825417" lon="9.445504"><time>2024-03-23T11:16:49.000Z</time><ele>837.6</ele></trkpt><trkpt lat="45.825415" lon="9.445503"><time>2024-03-23T11:16:50.000Z</time><ele>837.4</ele></trkpt><trkpt lat="45.82541" lon="9.445494"><time>2024-03-23T11:16:51.000Z</time><ele>837.2</ele></trkpt><trkpt lat="45.825402" lon="9.445489"><time>2024-03-23T11:16:52.000Z</time><ele>837</ele></trkpt><trkpt lat="45.825398" lon="9.445485"><time>2024-03-23T11:16:53.000Z</time><ele>836.8</ele></trkpt><trkpt lat="45.825397" lon="9.445483"><time>2024-03-23T11:16:54.000Z</time><ele>836.4</ele></trkpt><trkpt lat="45.825398" lon="9.445478"><time>2024-03-23T11:16:55.000Z</time><ele>836</ele></trkpt><trkpt lat="45.825395" lon="9.445476"><time>2024-03-23T11:16:56.000Z</time><ele>835.8</ele></trkpt><trkpt lat="45.825395" lon="9.445474"><time>2024-03-23T11:16:57.000Z</time><ele>835.6</ele></trkpt><trkpt lat="45.825395" lon="9.445472"><time>2024-03-23T11:16:58.000Z</time><ele>835.4</ele></trkpt><trkpt lat="45.825395" lon="9.445474"><time>2024-03-23T11:16:59.000Z</time><ele>835.4</ele></trkpt><trkpt lat="45.825396" lon="9.445475"><time>2024-03-23T11:17:00.000Z</time><ele>835</ele></trkpt><trkpt lat="45.825398" lon="9.445467"><time>2024-03-23T11:17:01.000Z</time><ele>834.8</ele></trkpt><trkpt lat="45.825402" lon="9.445469"><time>2024-03-23T11:17:02.000Z</time><ele>834.6</ele></trkpt><trkpt lat="45.825403" lon="9.44547"><time>2024-03-23T11:17:03.000Z</time><ele>834.4</ele></trkpt><trkpt lat="45.825401" lon="9.44547"><time>2024-03-23T11:17:04.000Z</time><ele>834.2</ele></trkpt><trkpt lat="45.8254" lon="9.44547"><time>2024-03-23T11:17:05.000Z</time><ele>834</ele></trkpt><trkpt lat="45.8254" lon="9.44547"><time>2024-03-23T11:17:06.000Z</time><ele>833.8</ele></trkpt><trkpt lat="45.8254" lon="9.44547"><time>2024-03-23T11:17:07.000Z</time><ele>833.8</ele></trkpt><trkpt lat="45.8254" lon="9.44547"><time>2024-03-23T11:17:08.000Z</time><ele>833.6</ele></trkpt><trkpt lat="45.8254" lon="9.44547"><time>2024-03-23T11:17:09.000Z</time><ele>833.4</ele></trkpt><trkpt lat="45.8254" lon="9.44547"><time>2024-03-23T11:17:10.000Z</time><ele>833.2</ele></trkpt><trkpt lat="45.8254" lon="9.44547"><time>2024-03-23T11:17:11.000Z</time><ele>832.8</ele></trkpt><trkpt lat="45.8254" lon="9.44547"><time>2024-03-23T11:17:12.000Z</time><ele>832.4</ele></trkpt><trkpt lat="45.8254" lon="9.44547"><time>2024-03-23T11:17:13.000Z</time><ele>832.2</ele></trkpt><trkpt lat="45.8254" lon="9.44547"><time>2024-03-23T11:17:14.000Z</time><ele>832.2</ele></trkpt><trkpt lat="45.8254" lon="9.44547"><time>2024-03-23T11:17:15.000Z</time><ele>831.8</ele></trkpt><trkpt lat="45.825398" lon="9.44547"><time>2024-03-23T11:17:16.000Z</time><ele>831.6</ele></trkpt><trkpt lat="45.825398" lon="9.44547"><time>2024-03-23T11:17:17.000Z</time><ele>831.4</ele></trkpt><trkpt lat="45.825396" lon="9.44547"><time>2024-03-23T11:17:18.000Z</time><ele>831.2</ele></trkpt><trkpt lat="45.825395" lon="9.44547"><time>2024-03-23T11:17:19.000Z</time><ele>830.8</ele></trkpt><trkpt lat="45.825395" lon="9.445469"><time>2024-03-23T11:17:20.000Z</time><ele>830.6</ele></trkpt><trkpt lat="45.825395" lon="9.445467"><time>2024-03-23T11:17:21.000Z</time><ele>830.4</ele></trkpt><trkpt lat="45.825393" lon="9.445464"><time>2024-03-23T11:17:22.000Z</time><ele>830.2</ele></trkpt><trkpt lat="45.825389" lon="9.44546"><time>2024-03-23T11:17:23.000Z</time><ele>830.2</ele></trkpt><trkpt lat="45.825388" lon="9.445457"><time>2024-03-23T11:17:24.000Z</time><ele>829.6</ele></trkpt><trkpt lat="45.825388" lon="9.445454"><time>2024-03-23T11:17:25.000Z</time><ele>829.4</ele></trkpt><trkpt lat="45.825387" lon="9.445452"><time>2024-03-23T11:17:26.000Z</time><ele>829</ele></trkpt><trkpt lat="45.825387" lon="9.445451"><time>2024-03-23T11:17:27.000Z</time><ele>828.6</ele></trkpt><trkpt lat="45.825385" lon="9.44545"><time>2024-03-23T11:17:28.000Z</time><ele>828.4</ele></trkpt><trkpt lat="45.825384" lon="9.44545"><time>2024-03-23T11:17:29.000Z</time><ele>828.2</ele></trkpt><trkpt lat="45.825382" lon="9.445439"><time>2024-03-23T11:17:30.000Z</time><ele>828</ele></trkpt><trkpt lat="45.825382" lon="9.445437"><time>2024-03-23T11:17:31.000Z</time><ele>827.8</ele></trkpt><trkpt lat="45.82538" lon="9.445431"><time>2024-03-23T11:17:32.000Z</time><ele>827.4</ele></trkpt><trkpt lat="45.825374" lon="9.44542"><time>2024-03-23T11:17:33.000Z</time><ele>827.2</ele></trkpt><trkpt lat="45.825369" lon="9.445414"><time>2024-03-23T11:17:34.000Z</time><ele>827.2</ele></trkpt><trkpt lat="45.825369" lon="9.445404"><time>2024-03-23T11:17:35.000Z</time><ele>827</ele></trkpt><trkpt lat="45.825358" lon="9.445393"><time>2024-03-23T11:17:36.000Z</time><ele>826.8</ele></trkpt><trkpt lat="45.825347" lon="9.445384"><time>2024-03-23T11:17:37.000Z</time><ele>826.4</ele></trkpt><trkpt lat="45.825338" lon="9.445376"><time>2024-03-23T11:17:38.000Z</time><ele>826.4</ele></trkpt><trkpt lat="45.825326" lon="9.445363"><time>2024-03-23T11:17:39.000Z</time><ele>826</ele></trkpt><trkpt lat="45.825322" lon="9.445356"><time>2024-03-23T11:17:40.000Z</time><ele>826</ele></trkpt><trkpt lat="45.825322" lon="9.445356"><time>2024-03-23T11:17:41.000Z</time><ele>825.8</ele></trkpt><trkpt lat="45.825322" lon="9.445356"><time>2024-03-23T11:17:42.000Z</time><ele>825.6</ele></trkpt><trkpt lat="45.825322" lon="9.445356"><time>2024-03-23T11:17:43.000Z</time><ele>825.2</ele></trkpt><trkpt lat="45.825322" lon="9.445356"><time>2024-03-23T11:17:44.000Z</time><ele>825</ele></trkpt><trkpt lat="45.825322" lon="9.445356"><time>2024-03-23T11:17:45.000Z</time><ele>824.8</ele></trkpt><trkpt lat="45.825322" lon="9.445356"><time>2024-03-23T11:17:46.000Z</time><ele>824.6</ele></trkpt><trkpt lat="45.825322" lon="9.445356"><time>2024-03-23T11:17:47.000Z</time><ele>824.4</ele></trkpt><trkpt lat="45.825322" lon="9.445356"><time>2024-03-23T11:17:48.000Z</time><ele>824.2</ele></trkpt><trkpt lat="45.825322" lon="9.445355"><time>2024-03-23T11:17:49.000Z</time><ele>824.2</ele></trkpt><trkpt lat="45.825322" lon="9.445352"><time>2024-03-23T11:17:50.000Z</time><ele>824</ele></trkpt><trkpt lat="45.825322" lon="9.445347"><time>2024-03-23T11:17:51.000Z</time><ele>824</ele></trkpt><trkpt lat="45.825317" lon="9.445345"><time>2024-03-23T11:17:52.000Z</time><ele>823.8</ele></trkpt><trkpt lat="45.825313" lon="9.445343"><time>2024-03-23T11:17:53.000Z</time><ele>823.6</ele></trkpt><trkpt lat="45.825307" lon="9.445338"><time>2024-03-23T11:17:54.000Z</time><ele>823</ele></trkpt><trkpt lat="45.825306" lon="9.445337"><time>2024-03-23T11:17:55.000Z</time><ele>822.8</ele></trkpt><trkpt lat="45.825305" lon="9.445337"><time>2024-03-23T11:17:56.000Z</time><ele>822.6</ele></trkpt><trkpt lat="45.825299" lon="9.445333"><time>2024-03-23T11:17:57.000Z</time><ele>822.4</ele></trkpt><trkpt lat="45.825297" lon="9.445333"><time>2024-03-23T11:17:58.000Z</time><ele>822</ele></trkpt><trkpt lat="45.825297" lon="9.44533"><time>2024-03-23T11:17:59.000Z</time><ele>821.8</ele></trkpt><trkpt lat="45.825296" lon="9.445326"><time>2024-03-23T11:18:00.000Z</time><ele>821.6</ele></trkpt><trkpt lat="45.825293" lon="9.44532"><time>2024-03-23T11:18:01.000Z</time><ele>821.4</ele></trkpt><trkpt lat="45.825291" lon="9.445318"><time>2024-03-23T11:18:02.000Z</time><ele>821.4</ele></trkpt><trkpt lat="45.82529" lon="9.445317"><time>2024-03-23T11:18:03.000Z</time><ele>821.2</ele></trkpt><trkpt lat="45.825287" lon="9.44531"><time>2024-03-23T11:18:04.000Z</time><ele>821</ele></trkpt><trkpt lat="45.825285" lon="9.445307"><time>2024-03-23T11:18:05.000Z</time><ele>820.8</ele></trkpt><trkpt lat="45.825282" lon="9.445304"><time>2024-03-23T11:18:06.000Z</time><ele>820.6</ele></trkpt><trkpt lat="45.82528" lon="9.445303"><time>2024-03-23T11:18:07.000Z</time><ele>820.2</ele></trkpt><trkpt lat="45.825279" lon="9.445302"><time>2024-03-23T11:18:08.000Z</time><ele>819.8</ele></trkpt><trkpt lat="45.825278" lon="9.445293"><time>2024-03-23T11:18:09.000Z</time><ele>819.6</ele></trkpt><trkpt lat="45.825277" lon="9.445291"><time>2024-03-23T11:18:10.000Z</time><ele>819.4</ele></trkpt><trkpt lat="45.825276" lon="9.445289"><time>2024-03-23T11:18:11.000Z</time><ele>819.2</ele></trkpt><trkpt lat="45.825276" lon="9.445287"><time>2024-03-23T11:18:12.000Z</time><ele>819</ele></trkpt><trkpt lat="45.825272" lon="9.445283"><time>2024-03-23T11:18:13.000Z</time><ele>818.8</ele></trkpt><trkpt lat="45.825269" lon="9.445282"><time>2024-03-23T11:18:14.000Z</time><ele>818.4</ele></trkpt><trkpt lat="45.825262" lon="9.445271"><time>2024-03-23T11:18:15.000Z</time><ele>818.2</ele></trkpt><trkpt lat="45.82526" lon="9.445269"><time>2024-03-23T11:18:16.000Z</time><ele>818</ele></trkpt><trkpt lat="45.825258" lon="9.445266"><time>2024-03-23T11:18:17.000Z</time><ele>818</ele></trkpt><trkpt lat="45.825256" lon="9.44526"><time>2024-03-23T11:18:18.000Z</time><ele>817.6</ele></trkpt><trkpt lat="45.825254" lon="9.445251"><time>2024-03-23T11:18:19.000Z</time><ele>817.4</ele></trkpt><trkpt lat="45.825252" lon="9.445247"><time>2024-03-23T11:18:20.000Z</time><ele>817.4</ele></trkpt><trkpt lat="45.82525" lon="9.445242"><time>2024-03-23T11:18:21.000Z</time><ele>817</ele></trkpt><trkpt lat="45.825243" lon="9.445237"><time>2024-03-23T11:18:22.000Z</time><ele>816.8</ele></trkpt><trkpt lat="45.825242" lon="9.445236"><time>2024-03-23T11:18:23.000Z</time><ele>816.6</ele></trkpt><trkpt lat="45.825241" lon="9.445235"><time>2024-03-23T11:18:24.000Z</time><ele>816.4</ele></trkpt><trkpt lat="45.82524" lon="9.445234"><time>2024-03-23T11:18:25.000Z</time><ele>816</ele></trkpt><trkpt lat="45.825237" lon="9.445227"><time>2024-03-23T11:18:26.000Z</time><ele>816</ele></trkpt><trkpt lat="45.825236" lon="9.445224"><time>2024-03-23T11:18:27.000Z</time><ele>815.6</ele></trkpt><trkpt lat="45.825236" lon="9.44522"><time>2024-03-23T11:18:28.000Z</time><ele>815.4</ele></trkpt><trkpt lat="45.825235" lon="9.445214"><time>2024-03-23T11:18:29.000Z</time><ele>815.2</ele></trkpt><trkpt lat="45.825235" lon="9.445208"><time>2024-03-23T11:18:30.000Z</time><ele>815.2</ele></trkpt><trkpt lat="45.825234" lon="9.445202"><time>2024-03-23T11:18:31.000Z</time><ele>815.2</ele></trkpt><trkpt lat="45.825231" lon="9.445197"><time>2024-03-23T11:18:32.000Z</time><ele>815</ele></trkpt><trkpt lat="45.825228" lon="9.445195"><time>2024-03-23T11:18:33.000Z</time><ele>814.8</ele></trkpt><trkpt lat="45.825227" lon="9.445194"><time>2024-03-23T11:18:34.000Z</time><ele>814.6</ele></trkpt><trkpt lat="45.825225" lon="9.445193"><time>2024-03-23T11:18:35.000Z</time><ele>814.4</ele></trkpt><trkpt lat="45.825224" lon="9.445193"><time>2024-03-23T11:18:36.000Z</time><ele>814</ele></trkpt><trkpt lat="45.825221" lon="9.445188"><time>2024-03-23T11:18:37.000Z</time><ele>813.8</ele></trkpt><trkpt lat="45.825218" lon="9.445185"><time>2024-03-23T11:18:38.000Z</time><ele>813.4</ele></trkpt><trkpt lat="45.825217" lon="9.445176"><time>2024-03-23T11:18:39.000Z</time><ele>813.4</ele></trkpt><trkpt lat="45.825216" lon="9.445167"><time>2024-03-23T11:18:40.000Z</time><ele>813.2</ele></trkpt><trkpt lat="45.825215" lon="9.445157"><time>2024-03-23T11:18:41.000Z</time><ele>813.2</ele></trkpt><trkpt lat="45.825214" lon="9.445153"><time>2024-03-23T11:18:42.000Z</time><ele>813</ele></trkpt><trkpt lat="45.825209" lon="9.445151"><time>2024-03-23T11:18:43.000Z</time><ele>812.8</ele></trkpt><trkpt lat="45.825206" lon="9.445149"><time>2024-03-23T11:18:44.000Z</time><ele>812.6</ele></trkpt><trkpt lat="45.825203" lon="9.445148"><time>2024-03-23T11:18:45.000Z</time><ele>812.6</ele></trkpt><trkpt lat="45.825202" lon="9.445137"><time>2024-03-23T11:18:46.000Z</time><ele>812.4</ele></trkpt><trkpt lat="45.825196" lon="9.445116"><time>2024-03-23T11:18:47.000Z</time><ele>812</ele></trkpt><trkpt lat="45.825193" lon="9.445097"><time>2024-03-23T11:18:48.000Z</time><ele>811.8</ele></trkpt><trkpt lat="45.82519" lon="9.445081"><time>2024-03-23T11:18:49.000Z</time><ele>811.6</ele></trkpt><trkpt lat="45.825193" lon="9.445061"><time>2024-03-23T11:18:50.000Z</time><ele>811.4</ele></trkpt><trkpt lat="45.825194" lon="9.445041"><time>2024-03-23T11:18:51.000Z</time><ele>811.2</ele></trkpt><trkpt lat="45.825194" lon="9.445028"><time>2024-03-23T11:18:52.000Z</time><ele>811</ele></trkpt><trkpt lat="45.825184" lon="9.445009"><time>2024-03-23T11:18:53.000Z</time><ele>810.8</ele></trkpt><trkpt lat="45.825175" lon="9.444984"><time>2024-03-23T11:18:54.000Z</time><ele>810.6</ele></trkpt><trkpt lat="45.825169" lon="9.44497"><time>2024-03-23T11:18:55.000Z</time><ele>810.4</ele></trkpt><trkpt lat="45.825175" lon="9.444965"><time>2024-03-23T11:18:56.000Z</time><ele>810.2</ele></trkpt><trkpt lat="45.825172" lon="9.444967"><time>2024-03-23T11:18:57.000Z</time><ele>810.2</ele></trkpt><trkpt lat="45.825165" lon="9.444964"><time>2024-03-23T11:18:58.000Z</time><ele>809.8</ele></trkpt><trkpt lat="45.825163" lon="9.444964"><time>2024-03-23T11:18:59.000Z</time><ele>809.4</ele></trkpt><trkpt lat="45.825165" lon="9.444966"><time>2024-03-23T11:19:00.000Z</time><ele>809.2</ele></trkpt><trkpt lat="45.825163" lon="9.444961"><time>2024-03-23T11:19:01.000Z</time><ele>809</ele></trkpt><trkpt lat="45.825161" lon="9.444955"><time>2024-03-23T11:19:02.000Z</time><ele>808.8</ele></trkpt><trkpt lat="45.825156" lon="9.444949"><time>2024-03-23T11:19:03.000Z</time><ele>808.8</ele></trkpt><trkpt lat="45.825154" lon="9.444944"><time>2024-03-23T11:19:04.000Z</time><ele>808.6</ele></trkpt><trkpt lat="45.825149" lon="9.444937"><time>2024-03-23T11:19:05.000Z</time><ele>808.4</ele></trkpt><trkpt lat="45.825149" lon="9.444934"><time>2024-03-23T11:19:06.000Z</time><ele>808</ele></trkpt><trkpt lat="45.825152" lon="9.444935"><time>2024-03-23T11:19:07.000Z</time><ele>807.8</ele></trkpt><trkpt lat="45.82516" lon="9.444935"><time>2024-03-23T11:19:08.000Z</time><ele>807.6</ele></trkpt><trkpt lat="45.825163" lon="9.444934"><time>2024-03-23T11:19:09.000Z</time><ele>807.4</ele></trkpt><trkpt lat="45.825166" lon="9.444927"><time>2024-03-23T11:19:10.000Z</time><ele>807.2</ele></trkpt><trkpt lat="45.825162" lon="9.444915"><time>2024-03-23T11:19:11.000Z</time><ele>807.2</ele></trkpt><trkpt lat="45.825159" lon="9.444906"><time>2024-03-23T11:19:12.000Z</time><ele>807</ele></trkpt><trkpt lat="45.825152" lon="9.444895"><time>2024-03-23T11:19:13.000Z</time><ele>806.8</ele></trkpt><trkpt lat="45.825148" lon="9.444887"><time>2024-03-23T11:19:14.000Z</time><ele>806.6</ele></trkpt><trkpt lat="45.825143" lon="9.444881"><time>2024-03-23T11:19:15.000Z</time><ele>806.6</ele></trkpt><trkpt lat="45.825138" lon="9.44487"><time>2024-03-23T11:19:16.000Z</time><ele>806.2</ele></trkpt><trkpt lat="45.825138" lon="9.444861"><time>2024-03-23T11:19:17.000Z</time><ele>806</ele></trkpt><trkpt lat="45.825136" lon="9.444856"><time>2024-03-23T11:19:18.000Z</time><ele>806</ele></trkpt><trkpt lat="45.825137" lon="9.444851"><time>2024-03-23T11:19:19.000Z</time><ele>805.6</ele></trkpt><trkpt lat="45.825142" lon="9.444843"><time>2024-03-23T11:19:20.000Z</time><ele>805.2</ele></trkpt><trkpt lat="45.825143" lon="9.44484"><time>2024-03-23T11:19:21.000Z</time><ele>805.2</ele></trkpt><trkpt lat="45.825143" lon="9.444839"><time>2024-03-23T11:19:22.000Z</time><ele>805</ele></trkpt><trkpt lat="45.825147" lon="9.444843"><time>2024-03-23T11:19:23.000Z</time><ele>804.8</ele></trkpt><trkpt lat="45.825146" lon="9.444841"><time>2024-03-23T11:19:24.000Z</time><ele>804.6</ele></trkpt><trkpt lat="45.825151" lon="9.444843"><time>2024-03-23T11:19:25.000Z</time><ele>804.6</ele></trkpt><trkpt lat="45.825152" lon="9.444844"><time>2024-03-23T11:19:26.000Z</time><ele>804.4</ele></trkpt><trkpt lat="45.825154" lon="9.444841"><time>2024-03-23T11:19:27.000Z</time><ele>804</ele></trkpt><trkpt lat="45.825149" lon="9.444834"><time>2024-03-23T11:19:28.000Z</time><ele>803.8</ele></trkpt><trkpt lat="45.825144" lon="9.44483"><time>2024-03-23T11:19:29.000Z</time><ele>803.4</ele></trkpt><trkpt lat="45.825145" lon="9.444831"><time>2024-03-23T11:19:30.000Z</time><ele>803.2</ele></trkpt><trkpt lat="45.825145" lon="9.444825"><time>2024-03-23T11:19:31.000Z</time><ele>803</ele></trkpt><trkpt lat="45.825147" lon="9.44482"><time>2024-03-23T11:19:32.000Z</time><ele>803</ele></trkpt><trkpt lat="45.82515" lon="9.44481"><time>2024-03-23T11:19:33.000Z</time><ele>802.8</ele></trkpt><trkpt lat="45.82515" lon="9.444804"><time>2024-03-23T11:19:34.000Z</time><ele>802.6</ele></trkpt><trkpt lat="45.825157" lon="9.444803"><time>2024-03-23T11:19:35.000Z</time><ele>802.6</ele></trkpt><trkpt lat="45.82516" lon="9.444803"><time>2024-03-23T11:19:36.000Z</time><ele>802.6</ele></trkpt><trkpt lat="45.825161" lon="9.444796"><time>2024-03-23T11:19:37.000Z</time><ele>802.4</ele></trkpt><trkpt lat="45.825158" lon="9.444783"><time>2024-03-23T11:19:38.000Z</time><ele>802.2</ele></trkpt><trkpt lat="45.825154" lon="9.444769"><time>2024-03-23T11:19:39.000Z</time><ele>801.8</ele></trkpt><trkpt lat="45.825149" lon="9.444766"><time>2024-03-23T11:19:40.000Z</time><ele>801.4</ele></trkpt><trkpt lat="45.825139" lon="9.444763"><time>2024-03-23T11:19:41.000Z</time><ele>801.2</ele></trkpt><trkpt lat="45.825131" lon="9.444765"><time>2024-03-23T11:19:42.000Z</time><ele>800.8</ele></trkpt><trkpt lat="45.825127" lon="9.44477"><time>2024-03-23T11:19:43.000Z</time><ele>800.6</ele></trkpt><trkpt lat="45.825124" lon="9.444774"><time>2024-03-23T11:19:44.000Z</time><ele>800.4</ele></trkpt><trkpt lat="45.825122" lon="9.444778"><time>2024-03-23T11:19:45.000Z</time><ele>800.2</ele></trkpt><trkpt lat="45.825122" lon="9.444783"><time>2024-03-23T11:19:46.000Z</time><ele>800.2</ele></trkpt><trkpt lat="45.82512" lon="9.444783"><time>2024-03-23T11:19:47.000Z</time><ele>800</ele></trkpt><trkpt lat="45.825115" lon="9.444773"><time>2024-03-23T11:19:48.000Z</time><ele>799.8</ele></trkpt><trkpt lat="45.825108" lon="9.444761"><time>2024-03-23T11:19:49.000Z</time><ele>799.6</ele></trkpt><trkpt lat="45.825098" lon="9.444754"><time>2024-03-23T11:19:50.000Z</time><ele>799.4</ele></trkpt><trkpt lat="45.825093" lon="9.444754"><time>2024-03-23T11:19:51.000Z</time><ele>799.2</ele></trkpt><trkpt lat="45.825091" lon="9.444755"><time>2024-03-23T11:19:52.000Z</time><ele>799</ele></trkpt><trkpt lat="45.825089" lon="9.444756"><time>2024-03-23T11:19:53.000Z</time><ele>798.8</ele></trkpt><trkpt lat="45.825089" lon="9.444756"><time>2024-03-23T11:19:54.000Z</time><ele>798.8</ele></trkpt><trkpt lat="45.825089" lon="9.444755"><time>2024-03-23T11:19:55.000Z</time><ele>798.6</ele></trkpt><trkpt lat="45.825088" lon="9.444754"><time>2024-03-23T11:19:56.000Z</time><ele>798.6</ele></trkpt><trkpt lat="45.825091" lon="9.444762"><time>2024-03-23T11:19:57.000Z</time><ele>798.6</ele></trkpt><trkpt lat="45.825094" lon="9.444771"><time>2024-03-23T11:19:58.000Z</time><ele>798.4</ele></trkpt><trkpt lat="45.825094" lon="9.44477"><time>2024-03-23T11:19:59.000Z</time><ele>798.4</ele></trkpt><trkpt lat="45.825089" lon="9.444764"><time>2024-03-23T11:20:00.000Z</time><ele>798.4</ele></trkpt><trkpt lat="45.825082" lon="9.444761"><time>2024-03-23T11:20:01.000Z</time><ele>798.6</ele></trkpt><trkpt lat="45.825071" lon="9.444759"><time>2024-03-23T11:20:02.000Z</time><ele>798.4</ele></trkpt><trkpt lat="45.82506" lon="9.44476"><time>2024-03-23T11:20:03.000Z</time><ele>798.4</ele></trkpt><trkpt lat="45.825052" lon="9.44476"><time>2024-03-23T11:20:04.000Z</time><ele>798.4</ele></trkpt><trkpt lat="45.825047" lon="9.444761"><time>2024-03-23T11:20:05.000Z</time><ele>798.2</ele></trkpt><trkpt lat="45.825038" lon="9.444765"><time>2024-03-23T11:20:06.000Z</time><ele>798.2</ele></trkpt><trkpt lat="45.825032" lon="9.444767"><time>2024-03-23T11:20:07.000Z</time><ele>798.2</ele></trkpt><trkpt lat="45.82503" lon="9.44477"><time>2024-03-23T11:20:08.000Z</time><ele>798</ele></trkpt><trkpt lat="45.825024" lon="9.444775"><time>2024-03-23T11:20:09.000Z</time><ele>798</ele></trkpt><trkpt lat="45.82502" lon="9.44478"><time>2024-03-23T11:20:10.000Z</time><ele>798</ele></trkpt><trkpt lat="45.825017" lon="9.444782"><time>2024-03-23T11:20:11.000Z</time><ele>797.8</ele></trkpt><trkpt lat="45.825011" lon="9.444788"><time>2024-03-23T11:20:12.000Z</time><ele>797.4</ele></trkpt><trkpt lat="45.825003" lon="9.444792"><time>2024-03-23T11:20:13.000Z</time><ele>797.2</ele></trkpt><trkpt lat="45.824998" lon="9.444797"><time>2024-03-23T11:20:14.000Z</time><ele>797</ele></trkpt><trkpt lat="45.824995" lon="9.444803"><time>2024-03-23T11:20:15.000Z</time><ele>796.8</ele></trkpt><trkpt lat="45.824992" lon="9.44481"><time>2024-03-23T11:20:16.000Z</time><ele>796.6</ele></trkpt><trkpt lat="45.82499" lon="9.444817"><time>2024-03-23T11:20:17.000Z</time><ele>796.4</ele></trkpt><trkpt lat="45.824987" lon="9.444821"><time>2024-03-23T11:20:18.000Z</time><ele>796.2</ele></trkpt><trkpt lat="45.824983" lon="9.444829"><time>2024-03-23T11:20:19.000Z</time><ele>796</ele></trkpt><trkpt lat="45.824975" lon="9.444834"><time>2024-03-23T11:20:20.000Z</time><ele>795.8</ele></trkpt><trkpt lat="45.824967" lon="9.444838"><time>2024-03-23T11:20:21.000Z</time><ele>795.4</ele></trkpt><trkpt lat="45.824956" lon="9.44484"><time>2024-03-23T11:20:22.000Z</time><ele>795.2</ele></trkpt><trkpt lat="45.82495" lon="9.444849"><time>2024-03-23T11:20:23.000Z</time><ele>795.2</ele></trkpt><trkpt lat="45.824946" lon="9.444861"><time>2024-03-23T11:20:24.000Z</time><ele>795</ele></trkpt><trkpt lat="45.824941" lon="9.444865"><time>2024-03-23T11:20:25.000Z</time><ele>794.8</ele></trkpt><trkpt lat="45.824936" lon="9.444871"><time>2024-03-23T11:20:26.000Z</time><ele>794.6</ele></trkpt><trkpt lat="45.82493" lon="9.444875"><time>2024-03-23T11:20:27.000Z</time><ele>794.4</ele></trkpt><trkpt lat="45.824922" lon="9.444876"><time>2024-03-23T11:20:28.000Z</time><ele>794.2</ele></trkpt><trkpt lat="45.824915" lon="9.444882"><time>2024-03-23T11:20:29.000Z</time><ele>794</ele></trkpt><trkpt lat="45.82491" lon="9.444888"><time>2024-03-23T11:20:30.000Z</time><ele>793.8</ele></trkpt><trkpt lat="45.824904" lon="9.444891"><time>2024-03-23T11:20:31.000Z</time><ele>793.6</ele></trkpt><trkpt lat="45.824904" lon="9.444894"><time>2024-03-23T11:20:32.000Z</time><ele>793.4</ele></trkpt><trkpt lat="45.824902" lon="9.444898"><time>2024-03-23T11:20:33.000Z</time><ele>793.2</ele></trkpt><trkpt lat="45.824897" lon="9.444906"><time>2024-03-23T11:20:34.000Z</time><ele>793</ele></trkpt><trkpt lat="45.824896" lon="9.44491"><time>2024-03-23T11:20:35.000Z</time><ele>792.8</ele></trkpt><trkpt lat="45.824896" lon="9.444914"><time>2024-03-23T11:20:36.000Z</time><ele>792.6</ele></trkpt><trkpt lat="45.824896" lon="9.444916"><time>2024-03-23T11:20:37.000Z</time><ele>792.4</ele></trkpt><trkpt lat="45.824896" lon="9.444917"><time>2024-03-23T11:20:38.000Z</time><ele>792.2</ele></trkpt><trkpt lat="45.824896" lon="9.44492"><time>2024-03-23T11:20:39.000Z</time><ele>792</ele></trkpt><trkpt lat="45.824892" lon="9.444926"><time>2024-03-23T11:20:40.000Z</time><ele>791.8</ele></trkpt><trkpt lat="45.824889" lon="9.444928"><time>2024-03-23T11:20:41.000Z</time><ele>791.4</ele></trkpt><trkpt lat="45.824879" lon="9.444929"><time>2024-03-23T11:20:42.000Z</time><ele>791.2</ele></trkpt><trkpt lat="45.824869" lon="9.44493"><time>2024-03-23T11:20:43.000Z</time><ele>791</ele></trkpt><trkpt lat="45.824861" lon="9.44493"><time>2024-03-23T11:20:44.000Z</time><ele>790.8</ele></trkpt><trkpt lat="45.824858" lon="9.444937"><time>2024-03-23T11:20:45.000Z</time><ele>790.8</ele></trkpt><trkpt lat="45.824853" lon="9.444944"><time>2024-03-23T11:20:46.000Z</time><ele>790.4</ele></trkpt><trkpt lat="45.824847" lon="9.444949"><time>2024-03-23T11:20:47.000Z</time><ele>790</ele></trkpt><trkpt lat="45.824842" lon="9.444958"><time>2024-03-23T11:20:48.000Z</time><ele>789.8</ele></trkpt><trkpt lat="45.824836" lon="9.444968"><time>2024-03-23T11:20:49.000Z</time><ele>789.6</ele></trkpt><trkpt lat="45.824829" lon="9.444979"><time>2024-03-23T11:20:50.000Z</time><ele>789.4</ele></trkpt><trkpt lat="45.824822" lon="9.444992"><time>2024-03-23T11:20:51.000Z</time><ele>789.4</ele></trkpt><trkpt lat="45.824813" lon="9.445001"><time>2024-03-23T11:20:52.000Z</time><ele>789</ele></trkpt><trkpt lat="45.824805" lon="9.445011"><time>2024-03-23T11:20:53.000Z</time><ele>788.8</ele></trkpt><trkpt lat="45.824797" lon="9.445021"><time>2024-03-23T11:20:54.000Z</time><ele>788.6</ele></trkpt><trkpt lat="45.824794" lon="9.445028"><time>2024-03-23T11:20:55.000Z</time><ele>788.4</ele></trkpt><trkpt lat="45.82479" lon="9.44504"><time>2024-03-23T11:20:56.000Z</time><ele>788.2</ele></trkpt><trkpt lat="45.824786" lon="9.445044"><time>2024-03-23T11:20:57.000Z</time><ele>788.2</ele></trkpt><trkpt lat="45.824782" lon="9.445045"><time>2024-03-23T11:20:58.000Z</time><ele>788.2</ele></trkpt><trkpt lat="45.824775" lon="9.445051"><time>2024-03-23T11:20:59.000Z</time><ele>788</ele></trkpt><trkpt lat="45.824772" lon="9.445063"><time>2024-03-23T11:21:00.000Z</time><ele>787.8</ele></trkpt><trkpt lat="45.824768" lon="9.445079"><time>2024-03-23T11:21:01.000Z</time><ele>787.6</ele></trkpt><trkpt lat="45.824765" lon="9.44509"><time>2024-03-23T11:21:02.000Z</time><ele>787.4</ele></trkpt><trkpt lat="45.824763" lon="9.445111"><time>2024-03-23T11:21:03.000Z</time><ele>787.4</ele></trkpt><trkpt lat="45.82476" lon="9.445132"><time>2024-03-23T11:21:04.000Z</time><ele>787.2</ele></trkpt><trkpt lat="45.824756" lon="9.445147"><time>2024-03-23T11:21:05.000Z</time><ele>787.2</ele></trkpt><trkpt lat="45.824747" lon="9.445168"><time>2024-03-23T11:21:06.000Z</time><ele>787.2</ele></trkpt><trkpt lat="45.824743" lon="9.445186"><time>2024-03-23T11:21:07.000Z</time><ele>787</ele></trkpt><trkpt lat="45.824739" lon="9.445199"><time>2024-03-23T11:21:08.000Z</time><ele>787</ele></trkpt><trkpt lat="45.824735" lon="9.445216"><time>2024-03-23T11:21:09.000Z</time><ele>787</ele></trkpt><trkpt lat="45.824734" lon="9.445237"><time>2024-03-23T11:21:10.000Z</time><ele>786.6</ele></trkpt><trkpt lat="45.824734" lon="9.445255"><time>2024-03-23T11:21:11.000Z</time><ele>786.6</ele></trkpt><trkpt lat="45.824737" lon="9.445274"><time>2024-03-23T11:21:12.000Z</time><ele>786.4</ele></trkpt><trkpt lat="45.824735" lon="9.445289"><time>2024-03-23T11:21:13.000Z</time><ele>786.4</ele></trkpt><trkpt lat="45.824733" lon="9.445301"><time>2024-03-23T11:21:14.000Z</time><ele>786.4</ele></trkpt><trkpt lat="45.824733" lon="9.445316"><time>2024-03-23T11:21:15.000Z</time><ele>786.2</ele></trkpt><trkpt lat="45.824733" lon="9.445318"><time>2024-03-23T11:21:16.000Z</time><ele>786</ele></trkpt><trkpt lat="45.824731" lon="9.445317"><time>2024-03-23T11:21:17.000Z</time><ele>785.8</ele></trkpt><trkpt lat="45.824724" lon="9.445315"><time>2024-03-23T11:21:18.000Z</time><ele>785.8</ele></trkpt><trkpt lat="45.824719" lon="9.445316"><time>2024-03-23T11:21:19.000Z</time><ele>785.8</ele></trkpt><trkpt lat="45.824716" lon="9.445319"><time>2024-03-23T11:21:20.000Z</time><ele>785.6</ele></trkpt><trkpt lat="45.824709" lon="9.445326"><time>2024-03-23T11:21:21.000Z</time><ele>785.2</ele></trkpt><trkpt lat="45.824706" lon="9.44533"><time>2024-03-23T11:21:22.000Z</time><ele>785</ele></trkpt><trkpt lat="45.824708" lon="9.445339"><time>2024-03-23T11:21:23.000Z</time><ele>784.8</ele></trkpt><trkpt lat="45.824706" lon="9.445342"><time>2024-03-23T11:21:24.000Z</time><ele>784.8</ele></trkpt><trkpt lat="45.824701" lon="9.445344"><time>2024-03-23T11:21:25.000Z</time><ele>784.4</ele></trkpt><trkpt lat="45.824698" lon="9.445346"><time>2024-03-23T11:21:26.000Z</time><ele>784.2</ele></trkpt><trkpt lat="45.824697" lon="9.445347"><time>2024-03-23T11:21:27.000Z</time><ele>784</ele></trkpt><trkpt lat="45.824696" lon="9.44535"><time>2024-03-23T11:21:28.000Z</time><ele>783.8</ele></trkpt><trkpt lat="45.824694" lon="9.44535"><time>2024-03-23T11:21:29.000Z</time><ele>783.6</ele></trkpt><trkpt lat="45.824686" lon="9.445347"><time>2024-03-23T11:21:30.000Z</time><ele>783.6</ele></trkpt><trkpt lat="45.824683" lon="9.445346"><time>2024-03-23T11:21:31.000Z</time><ele>783.2</ele></trkpt><trkpt lat="45.824681" lon="9.445347"><time>2024-03-23T11:21:32.000Z</time><ele>783</ele></trkpt><trkpt lat="45.824679" lon="9.44535"><time>2024-03-23T11:21:33.000Z</time><ele>782.8</ele></trkpt><trkpt lat="45.824676" lon="9.445351"><time>2024-03-23T11:21:34.000Z</time><ele>782.4</ele></trkpt><trkpt lat="45.824676" lon="9.445353"><time>2024-03-23T11:21:35.000Z</time><ele>782.2</ele></trkpt><trkpt lat="45.824675" lon="9.445352"><time>2024-03-23T11:21:36.000Z</time><ele>782</ele></trkpt><trkpt lat="45.824667" lon="9.445352"><time>2024-03-23T11:21:37.000Z</time><ele>782</ele></trkpt><trkpt lat="45.824662" lon="9.445354"><time>2024-03-23T11:21:38.000Z</time><ele>781.8</ele></trkpt><trkpt lat="45.824657" lon="9.445354"><time>2024-03-23T11:21:39.000Z</time><ele>781.6</ele></trkpt><trkpt lat="45.824649" lon="9.445351"><time>2024-03-23T11:21:40.000Z</time><ele>781.4</ele></trkpt><trkpt lat="45.824643" lon="9.445344"><time>2024-03-23T11:21:41.000Z</time><ele>781</ele></trkpt><trkpt lat="45.82464" lon="9.44534"><time>2024-03-23T11:21:42.000Z</time><ele>781</ele></trkpt><trkpt lat="45.82464" lon="9.445338"><time>2024-03-23T11:21:43.000Z</time><ele>780.8</ele></trkpt><trkpt lat="45.824638" lon="9.445338"><time>2024-03-23T11:21:44.000Z</time><ele>780.6</ele></trkpt><trkpt lat="45.824629" lon="9.445338"><time>2024-03-23T11:21:45.000Z</time><ele>780.2</ele></trkpt><trkpt lat="45.824621" lon="9.44534"><time>2024-03-23T11:21:46.000Z</time><ele>780</ele></trkpt><trkpt lat="45.824618" lon="9.44534"><time>2024-03-23T11:21:47.000Z</time><ele>779.8</ele></trkpt><trkpt lat="45.824613" lon="9.445335"><time>2024-03-23T11:21:48.000Z</time><ele>779.6</ele></trkpt><trkpt lat="45.824604" lon="9.445332"><time>2024-03-23T11:21:49.000Z</time><ele>779.4</ele></trkpt><trkpt lat="45.824596" lon="9.445328"><time>2024-03-23T11:21:50.000Z</time><ele>779.4</ele></trkpt><trkpt lat="45.824588" lon="9.445326"><time>2024-03-23T11:21:51.000Z</time><ele>779.2</ele></trkpt><trkpt lat="45.824579" lon="9.445319"><time>2024-03-23T11:21:52.000Z</time><ele>779.2</ele></trkpt><trkpt lat="45.824572" lon="9.445316"><time>2024-03-23T11:21:53.000Z</time><ele>778.8</ele></trkpt><trkpt lat="45.824571" lon="9.445319"><time>2024-03-23T11:21:54.000Z</time><ele>778.4</ele></trkpt><trkpt lat="45.824569" lon="9.44532"><time>2024-03-23T11:21:55.000Z</time><ele>778.2</ele></trkpt><trkpt lat="45.824567" lon="9.445324"><time>2024-03-23T11:21:56.000Z</time><ele>778</ele></trkpt><trkpt lat="45.824572" lon="9.445338"><time>2024-03-23T11:21:57.000Z</time><ele>777.6</ele></trkpt><trkpt lat="45.824572" lon="9.445346"><time>2024-03-23T11:21:58.000Z</time><ele>777.4</ele></trkpt><trkpt lat="45.824572" lon="9.445345"><time>2024-03-23T11:21:59.000Z</time><ele>777.2</ele></trkpt><trkpt lat="45.824567" lon="9.445351"><time>2024-03-23T11:22:00.000Z</time><ele>777</ele></trkpt><trkpt lat="45.824563" lon="9.445351"><time>2024-03-23T11:22:01.000Z</time><ele>776.8</ele></trkpt><trkpt lat="45.824563" lon="9.445354"><time>2024-03-23T11:22:02.000Z</time><ele>776.6</ele></trkpt><trkpt lat="45.824561" lon="9.445355"><time>2024-03-23T11:22:03.000Z</time><ele>776.4</ele></trkpt><trkpt lat="45.824552" lon="9.445347"><time>2024-03-23T11:22:04.000Z</time><ele>776</ele></trkpt><trkpt lat="45.824551" lon="9.445342"><time>2024-03-23T11:22:05.000Z</time><ele>776</ele></trkpt><trkpt lat="45.824551" lon="9.445337"><time>2024-03-23T11:22:06.000Z</time><ele>775.8</ele></trkpt><trkpt lat="45.824553" lon="9.445333"><time>2024-03-23T11:22:07.000Z</time><ele>775.6</ele></trkpt><trkpt lat="45.824555" lon="9.445323"><time>2024-03-23T11:22:08.000Z</time><ele>775.4</ele></trkpt><trkpt lat="45.824555" lon="9.445322"><time>2024-03-23T11:22:09.000Z</time><ele>775.2</ele></trkpt><trkpt lat="45.82455" lon="9.445315"><time>2024-03-23T11:22:10.000Z</time><ele>775</ele></trkpt><trkpt lat="45.824543" lon="9.445309"><time>2024-03-23T11:22:11.000Z</time><ele>774.6</ele></trkpt><trkpt lat="45.824537" lon="9.445307"><time>2024-03-23T11:22:12.000Z</time><ele>774.4</ele></trkpt><trkpt lat="45.824535" lon="9.445306"><time>2024-03-23T11:22:13.000Z</time><ele>774.2</ele></trkpt><trkpt lat="45.824535" lon="9.445303"><time>2024-03-23T11:22:14.000Z</time><ele>774</ele></trkpt><trkpt lat="45.824534" lon="9.4453"><time>2024-03-23T11:22:15.000Z</time><ele>774</ele></trkpt><trkpt lat="45.82453" lon="9.445296"><time>2024-03-23T11:22:16.000Z</time><ele>773.8</ele></trkpt><trkpt lat="45.82453" lon="9.445294"><time>2024-03-23T11:22:17.000Z</time><ele>773.6</ele></trkpt><trkpt lat="45.824533" lon="9.445301"><time>2024-03-23T11:22:18.000Z</time><ele>773.4</ele></trkpt><trkpt lat="45.824535" lon="9.445299"><time>2024-03-23T11:22:19.000Z</time><ele>773.2</ele></trkpt><trkpt lat="45.824538" lon="9.445289"><time>2024-03-23T11:22:20.000Z</time><ele>773</ele></trkpt><trkpt lat="45.824536" lon="9.445278"><time>2024-03-23T11:22:21.000Z</time><ele>773</ele></trkpt><trkpt lat="45.824525" lon="9.445268"><time>2024-03-23T11:22:22.000Z</time><ele>772.8</ele></trkpt><trkpt lat="45.824519" lon="9.445266"><time>2024-03-23T11:22:23.000Z</time><ele>772.4</ele></trkpt><trkpt lat="45.824518" lon="9.445265"><time>2024-03-23T11:22:24.000Z</time><ele>772</ele></trkpt><trkpt lat="45.824515" lon="9.445264"><time>2024-03-23T11:22:25.000Z</time><ele>771.8</ele></trkpt><trkpt lat="45.82451" lon="9.445263"><time>2024-03-23T11:22:26.000Z</time><ele>771.6</ele></trkpt><trkpt lat="45.824507" lon="9.445264"><time>2024-03-23T11:22:27.000Z</time><ele>771.6</ele></trkpt><trkpt lat="45.824505" lon="9.445266"><time>2024-03-23T11:22:28.000Z</time><ele>771.4</ele></trkpt><trkpt lat="45.824505" lon="9.445272"><time>2024-03-23T11:22:29.000Z</time><ele>771</ele></trkpt><trkpt lat="45.824496" lon="9.445264"><time>2024-03-23T11:22:30.000Z</time><ele>770.8</ele></trkpt><trkpt lat="45.824493" lon="9.445262"><time>2024-03-23T11:22:31.000Z</time><ele>770.6</ele></trkpt><trkpt lat="45.824491" lon="9.445264"><time>2024-03-23T11:22:32.000Z</time><ele>770.4</ele></trkpt><trkpt lat="45.824493" lon="9.445265"><time>2024-03-23T11:22:33.000Z</time><ele>770.2</ele></trkpt><trkpt lat="45.824493" lon="9.445263"><time>2024-03-23T11:22:34.000Z</time><ele>770</ele></trkpt><trkpt lat="45.824486" lon="9.445258"><time>2024-03-23T11:22:35.000Z</time><ele>770</ele></trkpt><trkpt lat="45.824482" lon="9.445256"><time>2024-03-23T11:22:36.000Z</time><ele>769.8</ele></trkpt><trkpt lat="45.824479" lon="9.445258"><time>2024-03-23T11:22:37.000Z</time><ele>769.4</ele></trkpt><trkpt lat="45.824469" lon="9.445259"><time>2024-03-23T11:22:38.000Z</time><ele>769.2</ele></trkpt><trkpt lat="45.824463" lon="9.44526"><time>2024-03-23T11:22:39.000Z</time><ele>769</ele></trkpt><trkpt lat="45.824459" lon="9.445264"><time>2024-03-23T11:22:40.000Z</time><ele>768.8</ele></trkpt><trkpt lat="45.824451" lon="9.445259"><time>2024-03-23T11:22:41.000Z</time><ele>768.6</ele></trkpt><trkpt lat="45.824446" lon="9.445258"><time>2024-03-23T11:22:42.000Z</time><ele>768.4</ele></trkpt><trkpt lat="45.82444" lon="9.445263"><time>2024-03-23T11:22:43.000Z</time><ele>768.2</ele></trkpt><trkpt lat="45.824435" lon="9.445275"><time>2024-03-23T11:22:44.000Z</time><ele>768</ele></trkpt><trkpt lat="45.824425" lon="9.445283"><time>2024-03-23T11:22:45.000Z</time><ele>767.8</ele></trkpt><trkpt lat="45.82442" lon="9.445288"><time>2024-03-23T11:22:46.000Z</time><ele>767.4</ele></trkpt><trkpt lat="45.824416" lon="9.445292"><time>2024-03-23T11:22:47.000Z</time><ele>767.2</ele></trkpt><trkpt lat="45.824413" lon="9.445294"><time>2024-03-23T11:22:48.000Z</time><ele>767</ele></trkpt><trkpt lat="45.82441" lon="9.445292"><time>2024-03-23T11:22:49.000Z</time><ele>766.6</ele></trkpt><trkpt lat="45.824404" lon="9.445286"><time>2024-03-23T11:22:50.000Z</time><ele>766.4</ele></trkpt><trkpt lat="45.8244" lon="9.445281"><time>2024-03-23T11:22:51.000Z</time><ele>766.4</ele></trkpt><trkpt lat="45.824396" lon="9.445276"><time>2024-03-23T11:22:52.000Z</time><ele>766.2</ele></trkpt><trkpt lat="45.824388" lon="9.445271"><time>2024-03-23T11:22:53.000Z</time><ele>766.2</ele></trkpt><trkpt lat="45.824376" lon="9.44526"><time>2024-03-23T11:22:54.000Z</time><ele>765.8</ele></trkpt><trkpt lat="45.824363" lon="9.445252"><time>2024-03-23T11:22:55.000Z</time><ele>765.4</ele></trkpt><trkpt lat="45.824349" lon="9.445248"><time>2024-03-23T11:22:56.000Z</time><ele>765.2</ele></trkpt><trkpt lat="45.824346" lon="9.445245"><time>2024-03-23T11:22:57.000Z</time><ele>765.2</ele></trkpt><trkpt lat="45.824344" lon="9.445246"><time>2024-03-23T11:22:58.000Z</time><ele>765</ele></trkpt><trkpt lat="45.824343" lon="9.445248"><time>2024-03-23T11:22:59.000Z</time><ele>764.8</ele></trkpt><trkpt lat="45.824333" lon="9.445253"><time>2024-03-23T11:23:00.000Z</time><ele>764.6</ele></trkpt><trkpt lat="45.824325" lon="9.445252"><time>2024-03-23T11:23:01.000Z</time><ele>764.4</ele></trkpt><trkpt lat="45.824316" lon="9.445239"><time>2024-03-23T11:23:02.000Z</time><ele>764.2</ele></trkpt><trkpt lat="45.824309" lon="9.445237"><time>2024-03-23T11:23:03.000Z</time><ele>764.2</ele></trkpt><trkpt lat="45.824307" lon="9.44524"><time>2024-03-23T11:23:04.000Z</time><ele>763.8</ele></trkpt><trkpt lat="45.824305" lon="9.445243"><time>2024-03-23T11:23:05.000Z</time><ele>763.6</ele></trkpt><trkpt lat="45.8243" lon="9.445246"><time>2024-03-23T11:23:06.000Z</time><ele>763.4</ele></trkpt><trkpt lat="45.824291" lon="9.445245"><time>2024-03-23T11:23:07.000Z</time><ele>763.2</ele></trkpt><trkpt lat="45.824279" lon="9.445241"><time>2024-03-23T11:23:08.000Z</time><ele>763</ele></trkpt><trkpt lat="45.824266" lon="9.445231"><time>2024-03-23T11:23:09.000Z</time><ele>762.8</ele></trkpt><trkpt lat="45.824261" lon="9.445231"><time>2024-03-23T11:23:10.000Z</time><ele>762.6</ele></trkpt><trkpt lat="45.82426" lon="9.44524"><time>2024-03-23T11:23:11.000Z</time><ele>762.6</ele></trkpt><trkpt lat="45.824253" lon="9.445249"><time>2024-03-23T11:23:12.000Z</time><ele>762.4</ele></trkpt><trkpt lat="45.824248" lon="9.445255"><time>2024-03-23T11:23:13.000Z</time><ele>762.2</ele></trkpt><trkpt lat="45.824243" lon="9.445261"><time>2024-03-23T11:23:14.000Z</time><ele>762.2</ele></trkpt><trkpt lat="45.824241" lon="9.445264"><time>2024-03-23T11:23:15.000Z</time><ele>761.8</ele></trkpt><trkpt lat="45.824239" lon="9.445268"><time>2024-03-23T11:23:16.000Z</time><ele>761.4</ele></trkpt><trkpt lat="45.824233" lon="9.445271"><time>2024-03-23T11:23:17.000Z</time><ele>761.2</ele></trkpt><trkpt lat="45.824232" lon="9.445275"><time>2024-03-23T11:23:18.000Z</time><ele>761.2</ele></trkpt><trkpt lat="45.824224" lon="9.44527"><time>2024-03-23T11:23:19.000Z</time><ele>761</ele></trkpt><trkpt lat="45.82422" lon="9.445268"><time>2024-03-23T11:23:20.000Z</time><ele>760.8</ele></trkpt><trkpt lat="45.824208" lon="9.445262"><time>2024-03-23T11:23:21.000Z</time><ele>760.6</ele></trkpt><trkpt lat="45.824197" lon="9.445257"><time>2024-03-23T11:23:22.000Z</time><ele>760.2</ele></trkpt><trkpt lat="45.824189" lon="9.44526"><time>2024-03-23T11:23:23.000Z</time><ele>760</ele></trkpt><trkpt lat="45.824182" lon="9.445262"><time>2024-03-23T11:23:24.000Z</time><ele>759.8</ele></trkpt><trkpt lat="45.824175" lon="9.445264"><time>2024-03-23T11:23:25.000Z</time><ele>759.6</ele></trkpt><trkpt lat="45.824168" lon="9.445262"><time>2024-03-23T11:23:26.000Z</time><ele>759.4</ele></trkpt><trkpt lat="45.824157" lon="9.445259"><time>2024-03-23T11:23:27.000Z</time><ele>759.2</ele></trkpt><trkpt lat="45.824148" lon="9.445257"><time>2024-03-23T11:23:28.000Z</time><ele>759</ele></trkpt><trkpt lat="45.824134" lon="9.445252"><time>2024-03-23T11:23:29.000Z</time><ele>758.8</ele></trkpt><trkpt lat="45.824124" lon="9.445248"><time>2024-03-23T11:23:30.000Z</time><ele>758.6</ele></trkpt><trkpt lat="45.824119" lon="9.445247"><time>2024-03-23T11:23:31.000Z</time><ele>758.4</ele></trkpt><trkpt lat="45.824116" lon="9.445247"><time>2024-03-23T11:23:32.000Z</time><ele>758.4</ele></trkpt><trkpt lat="45.824109" lon="9.445249"><time>2024-03-23T11:23:33.000Z</time><ele>758.2</ele></trkpt><trkpt lat="45.824107" lon="9.445254"><time>2024-03-23T11:23:34.000Z</time><ele>758.2</ele></trkpt><trkpt lat="45.824099" lon="9.445254"><time>2024-03-23T11:23:35.000Z</time><ele>758</ele></trkpt><trkpt lat="45.824094" lon="9.445252"><time>2024-03-23T11:23:36.000Z</time><ele>757.8</ele></trkpt><trkpt lat="45.824086" lon="9.445252"><time>2024-03-23T11:23:37.000Z</time><ele>757.6</ele></trkpt><trkpt lat="45.824075" lon="9.445253"><time>2024-03-23T11:23:38.000Z</time><ele>757.4</ele></trkpt><trkpt lat="45.824069" lon="9.445258"><time>2024-03-23T11:23:39.000Z</time><ele>757.2</ele></trkpt><trkpt lat="45.824059" lon="9.445264"><time>2024-03-23T11:23:40.000Z</time><ele>757</ele></trkpt><trkpt lat="45.824048" lon="9.445265"><time>2024-03-23T11:23:41.000Z</time><ele>756.8</ele></trkpt><trkpt lat="45.824036" lon="9.445263"><time>2024-03-23T11:23:42.000Z</time><ele>756.6</ele></trkpt><trkpt lat="45.824028" lon="9.445263"><time>2024-03-23T11:23:43.000Z</time><ele>756.4</ele></trkpt><trkpt lat="45.824024" lon="9.445263"><time>2024-03-23T11:23:44.000Z</time><ele>756.4</ele></trkpt><trkpt lat="45.824018" lon="9.445267"><time>2024-03-23T11:23:45.000Z</time><ele>756</ele></trkpt><trkpt lat="45.824014" lon="9.445272"><time>2024-03-23T11:23:46.000Z</time><ele>755.8</ele></trkpt><trkpt lat="45.82401" lon="9.445273"><time>2024-03-23T11:23:47.000Z</time><ele>755.6</ele></trkpt><trkpt lat="45.824008" lon="9.445275"><time>2024-03-23T11:23:48.000Z</time><ele>755.4</ele></trkpt><trkpt lat="45.824005" lon="9.445276"><time>2024-03-23T11:23:49.000Z</time><ele>755.4</ele></trkpt><trkpt lat="45.823997" lon="9.445278"><time>2024-03-23T11:23:50.000Z</time><ele>755.2</ele></trkpt><trkpt lat="45.823988" lon="9.445277"><time>2024-03-23T11:23:51.000Z</time><ele>755</ele></trkpt><trkpt lat="45.823984" lon="9.445279"><time>2024-03-23T11:23:52.000Z</time><ele>755</ele></trkpt><trkpt lat="45.823981" lon="9.445282"><time>2024-03-23T11:23:53.000Z</time><ele>754.8</ele></trkpt><trkpt lat="45.823978" lon="9.445286"><time>2024-03-23T11:23:54.000Z</time><ele>754.6</ele></trkpt><trkpt lat="45.823977" lon="9.445288"><time>2024-03-23T11:23:55.000Z</time><ele>754.6</ele></trkpt><trkpt lat="45.823974" lon="9.445287"><time>2024-03-23T11:23:56.000Z</time><ele>754.6</ele></trkpt><trkpt lat="45.823971" lon="9.44528"><time>2024-03-23T11:23:57.000Z</time><ele>754.4</ele></trkpt><trkpt lat="45.823966" lon="9.445273"><time>2024-03-23T11:23:58.000Z</time><ele>754.4</ele></trkpt><trkpt lat="45.823963" lon="9.445274"><time>2024-03-23T11:23:59.000Z</time><ele>754.2</ele></trkpt><trkpt lat="45.823952" lon="9.445272"><time>2024-03-23T11:24:00.000Z</time><ele>754</ele></trkpt><trkpt lat="45.82395" lon="9.445275"><time>2024-03-23T11:24:01.000Z</time><ele>753.6</ele></trkpt><trkpt lat="45.823944" lon="9.44527"><time>2024-03-23T11:24:02.000Z</time><ele>753.4</ele></trkpt><trkpt lat="45.823942" lon="9.445271"><time>2024-03-23T11:24:03.000Z</time><ele>753.2</ele></trkpt><trkpt lat="45.82394" lon="9.44527"><time>2024-03-23T11:24:04.000Z</time><ele>753</ele></trkpt><trkpt lat="45.823931" lon="9.445262"><time>2024-03-23T11:24:05.000Z</time><ele>752.8</ele></trkpt><trkpt lat="45.823919" lon="9.445253"><time>2024-03-23T11:24:06.000Z</time><ele>752.4</ele></trkpt><trkpt lat="45.823911" lon="9.445246"><time>2024-03-23T11:24:07.000Z</time><ele>752</ele></trkpt><trkpt lat="45.823909" lon="9.44525"><time>2024-03-23T11:24:08.000Z</time><ele>751.8</ele></trkpt><trkpt lat="45.823912" lon="9.445255"><time>2024-03-23T11:24:09.000Z</time><ele>751.6</ele></trkpt><trkpt lat="45.823914" lon="9.445263"><time>2024-03-23T11:24:10.000Z</time><ele>751.6</ele></trkpt><trkpt lat="45.823907" lon="9.445255"><time>2024-03-23T11:24:11.000Z</time><ele>751.4</ele></trkpt><trkpt lat="45.823905" lon="9.445257"><time>2024-03-23T11:24:12.000Z</time><ele>751</ele></trkpt><trkpt lat="45.823896" lon="9.445252"><time>2024-03-23T11:24:13.000Z</time><ele>750.8</ele></trkpt><trkpt lat="45.823887" lon="9.445245"><time>2024-03-23T11:24:14.000Z</time><ele>750.6</ele></trkpt><trkpt lat="45.823878" lon="9.445233"><time>2024-03-23T11:24:15.000Z</time><ele>750.4</ele></trkpt><trkpt lat="45.823876" lon="9.445232"><time>2024-03-23T11:24:16.000Z</time><ele>750.2</ele></trkpt><trkpt lat="45.823866" lon="9.445223"><time>2024-03-23T11:24:17.000Z</time><ele>749.8</ele></trkpt><trkpt lat="45.823855" lon="9.445218"><time>2024-03-23T11:24:18.000Z</time><ele>749.8</ele></trkpt><trkpt lat="45.823844" lon="9.445212"><time>2024-03-23T11:24:19.000Z</time><ele>749.6</ele></trkpt><trkpt lat="45.823832" lon="9.445204"><time>2024-03-23T11:24:20.000Z</time><ele>749.6</ele></trkpt><trkpt lat="45.82382" lon="9.445196"><time>2024-03-23T11:24:21.000Z</time><ele>749.2</ele></trkpt><trkpt lat="45.823804" lon="9.445186"><time>2024-03-23T11:24:22.000Z</time><ele>749.2</ele></trkpt><trkpt lat="45.82379" lon="9.445178"><time>2024-03-23T11:24:23.000Z</time><ele>748.8</ele></trkpt><trkpt lat="45.823778" lon="9.445175"><time>2024-03-23T11:24:24.000Z</time><ele>748.6</ele></trkpt><trkpt lat="45.82377" lon="9.445173"><time>2024-03-23T11:24:25.000Z</time><ele>748.4</ele></trkpt><trkpt lat="45.823762" lon="9.445172"><time>2024-03-23T11:24:26.000Z</time><ele>748.4</ele></trkpt><trkpt lat="45.823755" lon="9.445168"><time>2024-03-23T11:24:27.000Z</time><ele>748.2</ele></trkpt><trkpt lat="45.82375" lon="9.445167"><time>2024-03-23T11:24:28.000Z</time><ele>748.2</ele></trkpt><trkpt lat="45.823739" lon="9.445152"><time>2024-03-23T11:24:29.000Z</time><ele>748</ele></trkpt><trkpt lat="45.823729" lon="9.445139"><time>2024-03-23T11:24:30.000Z</time><ele>747.8</ele></trkpt><trkpt lat="45.823726" lon="9.445133"><time>2024-03-23T11:24:31.000Z</time><ele>747.6</ele></trkpt><trkpt lat="45.823721" lon="9.445131"><time>2024-03-23T11:24:32.000Z</time><ele>747.4</ele></trkpt><trkpt lat="45.823718" lon="9.445129"><time>2024-03-23T11:24:33.000Z</time><ele>747.2</ele></trkpt><trkpt lat="45.823715" lon="9.445127"><time>2024-03-23T11:24:34.000Z</time><ele>747</ele></trkpt><trkpt lat="45.823715" lon="9.445126"><time>2024-03-23T11:24:35.000Z</time><ele>746.8</ele></trkpt><trkpt lat="45.823703" lon="9.445112"><time>2024-03-23T11:24:36.000Z</time><ele>746.8</ele></trkpt><trkpt lat="45.823692" lon="9.445099"><time>2024-03-23T11:24:37.000Z</time><ele>746.6</ele></trkpt><trkpt lat="45.823687" lon="9.44509"><time>2024-03-23T11:24:38.000Z</time><ele>746.4</ele></trkpt><trkpt lat="45.823685" lon="9.445084"><time>2024-03-23T11:24:39.000Z</time><ele>746</ele></trkpt><trkpt lat="45.823682" lon="9.445073"><time>2024-03-23T11:24:40.000Z</time><ele>745.6</ele></trkpt><trkpt lat="45.823682" lon="9.445073"><time>2024-03-23T11:24:41.000Z</time><ele>745.4</ele></trkpt><trkpt lat="45.82368" lon="9.445068"><time>2024-03-23T11:24:42.000Z</time><ele>745.2</ele></trkpt><trkpt lat="45.823677" lon="9.445062"><time>2024-03-23T11:24:43.000Z</time><ele>745</ele></trkpt><trkpt lat="45.823671" lon="9.445052"><time>2024-03-23T11:24:44.000Z</time><ele>744.8</ele></trkpt><trkpt lat="45.823666" lon="9.445039"><time>2024-03-23T11:24:45.000Z</time><ele>744.6</ele></trkpt><trkpt lat="45.823661" lon="9.445025"><time>2024-03-23T11:24:46.000Z</time><ele>744.4</ele></trkpt><trkpt lat="45.823653" lon="9.445017"><time>2024-03-23T11:24:47.000Z</time><ele>744.2</ele></trkpt><trkpt lat="45.823642" lon="9.44501"><time>2024-03-23T11:24:48.000Z</time><ele>744</ele></trkpt><trkpt lat="45.82363" lon="9.445006"><time>2024-03-23T11:24:49.000Z</time><ele>744</ele></trkpt><trkpt lat="45.823617" lon="9.444998"><time>2024-03-23T11:24:50.000Z</time><ele>743.6</ele></trkpt><trkpt lat="45.823606" lon="9.444993"><time>2024-03-23T11:24:51.000Z</time><ele>743.4</ele></trkpt><trkpt lat="45.823591" lon="9.444985"><time>2024-03-23T11:24:52.000Z</time><ele>743.4</ele></trkpt><trkpt lat="45.823579" lon="9.444981"><time>2024-03-23T11:24:53.000Z</time><ele>743.2</ele></trkpt><trkpt lat="45.823566" lon="9.444984"><time>2024-03-23T11:24:54.000Z</time><ele>743.2</ele></trkpt><trkpt lat="45.823557" lon="9.444981"><time>2024-03-23T11:24:55.000Z</time><ele>743</ele></trkpt><trkpt lat="45.823548" lon="9.444975"><time>2024-03-23T11:24:56.000Z</time><ele>742.8</ele></trkpt><trkpt lat="45.823531" lon="9.444963"><time>2024-03-23T11:24:57.000Z</time><ele>742.6</ele></trkpt><trkpt lat="45.823513" lon="9.444958"><time>2024-03-23T11:24:58.000Z</time><ele>742.6</ele></trkpt><trkpt lat="45.823497" lon="9.444956"><time>2024-03-23T11:24:59.000Z</time><ele>742.6</ele></trkpt><trkpt lat="45.823486" lon="9.444954"><time>2024-03-23T11:25:00.000Z</time><ele>742.4</ele></trkpt><trkpt lat="45.823475" lon="9.444955"><time>2024-03-23T11:25:01.000Z</time><ele>742.2</ele></trkpt><trkpt lat="45.823461" lon="9.444949"><time>2024-03-23T11:25:02.000Z</time><ele>742</ele></trkpt><trkpt lat="45.82345" lon="9.444947"><time>2024-03-23T11:25:03.000Z</time><ele>742</ele></trkpt><trkpt lat="45.823438" lon="9.444948"><time>2024-03-23T11:25:04.000Z</time><ele>741.8</ele></trkpt><trkpt lat="45.823433" lon="9.444944"><time>2024-03-23T11:25:05.000Z</time><ele>741.8</ele></trkpt><trkpt lat="45.823428" lon="9.44494"><time>2024-03-23T11:25:06.000Z</time><ele>741.6</ele></trkpt><trkpt lat="45.823424" lon="9.444938"><time>2024-03-23T11:25:07.000Z</time><ele>741.6</ele></trkpt><trkpt lat="45.82342" lon="9.444941"><time>2024-03-23T11:25:08.000Z</time><ele>741.4</ele></trkpt><trkpt lat="45.823411" lon="9.444936"><time>2024-03-23T11:25:09.000Z</time><ele>741.2</ele></trkpt><trkpt lat="45.823405" lon="9.444927"><time>2024-03-23T11:25:10.000Z</time><ele>741.2</ele></trkpt><trkpt lat="45.823399" lon="9.444921"><time>2024-03-23T11:25:11.000Z</time><ele>741</ele></trkpt><trkpt lat="45.823395" lon="9.444915"><time>2024-03-23T11:25:12.000Z</time><ele>740.8</ele></trkpt><trkpt lat="45.823385" lon="9.44492"><time>2024-03-23T11:25:13.000Z</time><ele>740.6</ele></trkpt><trkpt lat="45.823376" lon="9.444921"><time>2024-03-23T11:25:14.000Z</time><ele>740.4</ele></trkpt><trkpt lat="45.823373" lon="9.44492"><time>2024-03-23T11:25:15.000Z</time><ele>740.2</ele></trkpt><trkpt lat="45.823371" lon="9.444923"><time>2024-03-23T11:25:16.000Z</time><ele>740</ele></trkpt><trkpt lat="45.823368" lon="9.44492"><time>2024-03-23T11:25:17.000Z</time><ele>739.8</ele></trkpt><trkpt lat="45.823362" lon="9.444913"><time>2024-03-23T11:25:18.000Z</time><ele>739.6</ele></trkpt><trkpt lat="45.823358" lon="9.44491"><time>2024-03-23T11:25:19.000Z</time><ele>739.4</ele></trkpt><trkpt lat="45.823356" lon="9.44491"><time>2024-03-23T11:25:20.000Z</time><ele>739.4</ele></trkpt><trkpt lat="45.823351" lon="9.444909"><time>2024-03-23T11:25:21.000Z</time><ele>739.2</ele></trkpt><trkpt lat="45.823345" lon="9.444906"><time>2024-03-23T11:25:22.000Z</time><ele>739</ele></trkpt><trkpt lat="45.823341" lon="9.444904"><time>2024-03-23T11:25:23.000Z</time><ele>739</ele></trkpt><trkpt lat="45.823341" lon="9.444908"><time>2024-03-23T11:25:24.000Z</time><ele>738.8</ele></trkpt><trkpt lat="45.823337" lon="9.444905"><time>2024-03-23T11:25:25.000Z</time><ele>738.6</ele></trkpt><trkpt lat="45.82333" lon="9.444899"><time>2024-03-23T11:25:26.000Z</time><ele>738.4</ele></trkpt><trkpt lat="45.823327" lon="9.444897"><time>2024-03-23T11:25:27.000Z</time><ele>738.4</ele></trkpt><trkpt lat="45.823323" lon="9.444893"><time>2024-03-23T11:25:28.000Z</time><ele>738.2</ele></trkpt><trkpt lat="45.823319" lon="9.444889"><time>2024-03-23T11:25:29.000Z</time><ele>738.2</ele></trkpt><trkpt lat="45.823318" lon="9.444887"><time>2024-03-23T11:25:30.000Z</time><ele>738.2</ele></trkpt><trkpt lat="45.823313" lon="9.444882"><time>2024-03-23T11:25:31.000Z</time><ele>738.2</ele></trkpt><trkpt lat="45.823305" lon="9.444875"><time>2024-03-23T11:25:32.000Z</time><ele>738.2</ele></trkpt><trkpt lat="45.823301" lon="9.444868"><time>2024-03-23T11:25:33.000Z</time><ele>738</ele></trkpt><trkpt lat="45.823297" lon="9.444865"><time>2024-03-23T11:25:34.000Z</time><ele>737.8</ele></trkpt><trkpt lat="45.823298" lon="9.444864"><time>2024-03-23T11:25:35.000Z</time><ele>737.4</ele></trkpt><trkpt lat="45.823292" lon="9.444861"><time>2024-03-23T11:25:36.000Z</time><ele>737.4</ele></trkpt><trkpt lat="45.823283" lon="9.444862"><time>2024-03-23T11:25:37.000Z</time><ele>737.2</ele></trkpt><trkpt lat="45.823273" lon="9.444865"><time>2024-03-23T11:25:38.000Z</time><ele>737</ele></trkpt><trkpt lat="45.823268" lon="9.444866"><time>2024-03-23T11:25:39.000Z</time><ele>737</ele></trkpt><trkpt lat="45.823263" lon="9.444858"><time>2024-03-23T11:25:40.000Z</time><ele>737</ele></trkpt><trkpt lat="45.82326" lon="9.444853"><time>2024-03-23T11:25:41.000Z</time><ele>736.8</ele></trkpt><trkpt lat="45.82326" lon="9.444851"><time>2024-03-23T11:25:42.000Z</time><ele>736.8</ele></trkpt><trkpt lat="45.823253" lon="9.444844"><time>2024-03-23T11:25:43.000Z</time><ele>736.6</ele></trkpt><trkpt lat="45.823251" lon="9.444845"><time>2024-03-23T11:25:44.000Z</time><ele>736.4</ele></trkpt><trkpt lat="45.823246" lon="9.44484"><time>2024-03-23T11:25:45.000Z</time><ele>736.2</ele></trkpt><trkpt lat="45.823242" lon="9.444846"><time>2024-03-23T11:25:46.000Z</time><ele>736</ele></trkpt><trkpt lat="45.823238" lon="9.444843"><time>2024-03-23T11:25:47.000Z</time><ele>736</ele></trkpt><trkpt lat="45.823236" lon="9.444843"><time>2024-03-23T11:25:48.000Z</time><ele>735.8</ele></trkpt><trkpt lat="45.823239" lon="9.444848"><time>2024-03-23T11:25:49.000Z</time><ele>735.6</ele></trkpt><trkpt lat="45.823241" lon="9.444848"><time>2024-03-23T11:25:50.000Z</time><ele>735.4</ele></trkpt><trkpt lat="45.823241" lon="9.444847"><time>2024-03-23T11:25:51.000Z</time><ele>735.4</ele></trkpt><trkpt lat="45.823239" lon="9.444846"><time>2024-03-23T11:25:52.000Z</time><ele>735.4</ele></trkpt><trkpt lat="45.823237" lon="9.444847"><time>2024-03-23T11:25:53.000Z</time><ele>735.4</ele></trkpt><trkpt lat="45.823234" lon="9.444851"><time>2024-03-23T11:25:54.000Z</time><ele>735.2</ele></trkpt><trkpt lat="45.823234" lon="9.444854"><time>2024-03-23T11:25:55.000Z</time><ele>735.2</ele></trkpt><trkpt lat="45.823231" lon="9.444856"><time>2024-03-23T11:25:56.000Z</time><ele>735.2</ele></trkpt><trkpt lat="45.823218" lon="9.444848"><time>2024-03-23T11:25:57.000Z</time><ele>735.2</ele></trkpt><trkpt lat="45.823211" lon="9.444844"><time>2024-03-23T11:25:58.000Z</time><ele>735</ele></trkpt><trkpt lat="45.823203" lon="9.44484"><time>2024-03-23T11:25:59.000Z</time><ele>734.8</ele></trkpt><trkpt lat="45.823193" lon="9.444831"><time>2024-03-23T11:26:00.000Z</time><ele>734.6</ele></trkpt><trkpt lat="45.823182" lon="9.44482"><time>2024-03-23T11:26:01.000Z</time><ele>734.4</ele></trkpt><trkpt lat="45.823175" lon="9.444814"><time>2024-03-23T11:26:02.000Z</time><ele>734.2</ele></trkpt><trkpt lat="45.823171" lon="9.444814"><time>2024-03-23T11:26:03.000Z</time><ele>734</ele></trkpt><trkpt lat="45.823165" lon="9.444811"><time>2024-03-23T11:26:04.000Z</time><ele>734</ele></trkpt><trkpt lat="45.823161" lon="9.444809"><time>2024-03-23T11:26:05.000Z</time><ele>733.8</ele></trkpt><trkpt lat="45.823158" lon="9.444809"><time>2024-03-23T11:26:06.000Z</time><ele>733.6</ele></trkpt><trkpt lat="45.823156" lon="9.444803"><time>2024-03-23T11:26:07.000Z</time><ele>733.4</ele></trkpt><trkpt lat="45.823152" lon="9.444805"><time>2024-03-23T11:26:08.000Z</time><ele>733.2</ele></trkpt><trkpt lat="45.82315" lon="9.444802"><time>2024-03-23T11:26:09.000Z</time><ele>733</ele></trkpt><trkpt lat="45.823148" lon="9.4448"><time>2024-03-23T11:26:10.000Z</time><ele>732.8</ele></trkpt><trkpt lat="45.823145" lon="9.444797"><time>2024-03-23T11:26:11.000Z</time><ele>732.6</ele></trkpt><trkpt lat="45.823137" lon="9.444797"><time>2024-03-23T11:26:12.000Z</time><ele>732.4</ele></trkpt><trkpt lat="45.823129" lon="9.444795"><time>2024-03-23T11:26:13.000Z</time><ele>732.2</ele></trkpt><trkpt lat="45.823126" lon="9.444794"><time>2024-03-23T11:26:14.000Z</time><ele>732</ele></trkpt><trkpt lat="45.82312" lon="9.444788"><time>2024-03-23T11:26:15.000Z</time><ele>731.8</ele></trkpt><trkpt lat="45.823115" lon="9.444783"><time>2024-03-23T11:26:16.000Z</time><ele>731.6</ele></trkpt><trkpt lat="45.823111" lon="9.444779"><time>2024-03-23T11:26:17.000Z</time><ele>731.4</ele></trkpt><trkpt lat="45.823108" lon="9.444779"><time>2024-03-23T11:26:18.000Z</time><ele>731.2</ele></trkpt><trkpt lat="45.823101" lon="9.444775"><time>2024-03-23T11:26:19.000Z</time><ele>730.8</ele></trkpt><trkpt lat="45.823094" lon="9.444771"><time>2024-03-23T11:26:20.000Z</time><ele>730.8</ele></trkpt><trkpt lat="45.82309" lon="9.44477"><time>2024-03-23T11:26:21.000Z</time><ele>730.4</ele></trkpt><trkpt lat="45.823088" lon="9.444768"><time>2024-03-23T11:26:22.000Z</time><ele>730.2</ele></trkpt><trkpt lat="45.823086" lon="9.444767"><time>2024-03-23T11:26:23.000Z</time><ele>730</ele></trkpt><trkpt lat="45.823085" lon="9.444771"><time>2024-03-23T11:26:24.000Z</time><ele>729.8</ele></trkpt><trkpt lat="45.823085" lon="9.444772"><time>2024-03-23T11:26:25.000Z</time><ele>729.6</ele></trkpt><trkpt lat="45.82308" lon="9.44477"><time>2024-03-23T11:26:26.000Z</time><ele>729.2</ele></trkpt><trkpt lat="45.823077" lon="9.444769"><time>2024-03-23T11:26:27.000Z</time><ele>729</ele></trkpt><trkpt lat="45.82307" lon="9.444765"><time>2024-03-23T11:26:28.000Z</time><ele>728.8</ele></trkpt><trkpt lat="45.823064" lon="9.44476"><time>2024-03-23T11:26:29.000Z</time><ele>728.6</ele></trkpt><trkpt lat="45.823055" lon="9.444754"><time>2024-03-23T11:26:30.000Z</time><ele>728.4</ele></trkpt><trkpt lat="45.823047" lon="9.444752"><time>2024-03-23T11:26:31.000Z</time><ele>728.2</ele></trkpt><trkpt lat="45.823043" lon="9.444749"><time>2024-03-23T11:26:32.000Z</time><ele>728</ele></trkpt><trkpt lat="45.823034" lon="9.444738"><time>2024-03-23T11:26:33.000Z</time><ele>727.8</ele></trkpt><trkpt lat="45.823026" lon="9.444727"><time>2024-03-23T11:26:34.000Z</time><ele>727.6</ele></trkpt><trkpt lat="45.823019" lon="9.44472"><time>2024-03-23T11:26:35.000Z</time><ele>727.4</ele></trkpt><trkpt lat="45.823011" lon="9.444713"><time>2024-03-23T11:26:36.000Z</time><ele>727</ele></trkpt><trkpt lat="45.823005" lon="9.444715"><time>2024-03-23T11:26:37.000Z</time><ele>726.8</ele></trkpt><trkpt lat="45.822999" lon="9.444717"><time>2024-03-23T11:26:38.000Z</time><ele>726.6</ele></trkpt><trkpt lat="45.822995" lon="9.444713"><time>2024-03-23T11:26:39.000Z</time><ele>726.4</ele></trkpt><trkpt lat="45.822988" lon="9.444707"><time>2024-03-23T11:26:40.000Z</time><ele>726.2</ele></trkpt><trkpt lat="45.822976" lon="9.444698"><time>2024-03-23T11:26:41.000Z</time><ele>726</ele></trkpt><trkpt lat="45.822967" lon="9.444695"><time>2024-03-23T11:26:42.000Z</time><ele>725.8</ele></trkpt><trkpt lat="45.822958" lon="9.444686"><time>2024-03-23T11:26:43.000Z</time><ele>725.6</ele></trkpt><trkpt lat="45.822953" lon="9.444683"><time>2024-03-23T11:26:44.000Z</time><ele>725.4</ele></trkpt><trkpt lat="45.822946" lon="9.444681"><time>2024-03-23T11:26:45.000Z</time><ele>725.2</ele></trkpt><trkpt lat="45.822939" lon="9.444673"><time>2024-03-23T11:26:46.000Z</time><ele>725</ele></trkpt><trkpt lat="45.822933" lon="9.444669"><time>2024-03-23T11:26:47.000Z</time><ele>724.8</ele></trkpt><trkpt lat="45.822929" lon="9.444667"><time>2024-03-23T11:26:48.000Z</time><ele>724.8</ele></trkpt><trkpt lat="45.822924" lon="9.444663"><time>2024-03-23T11:26:49.000Z</time><ele>724.6</ele></trkpt><trkpt lat="45.822918" lon="9.44466"><time>2024-03-23T11:26:50.000Z</time><ele>724.4</ele></trkpt><trkpt lat="45.822911" lon="9.444653"><time>2024-03-23T11:26:51.000Z</time><ele>724.2</ele></trkpt><trkpt lat="45.822904" lon="9.444645"><time>2024-03-23T11:26:52.000Z</time><ele>724</ele></trkpt><trkpt lat="45.822898" lon="9.444642"><time>2024-03-23T11:26:53.000Z</time><ele>724</ele></trkpt><trkpt lat="45.822895" lon="9.44464"><time>2024-03-23T11:26:54.000Z</time><ele>723.6</ele></trkpt><trkpt lat="45.822893" lon="9.444637"><time>2024-03-23T11:26:55.000Z</time><ele>723.4</ele></trkpt><trkpt lat="45.82289" lon="9.444634"><time>2024-03-23T11:26:56.000Z</time><ele>723.2</ele></trkpt><trkpt lat="45.822889" lon="9.444635"><time>2024-03-23T11:26:57.000Z</time><ele>723.2</ele></trkpt><trkpt lat="45.822886" lon="9.444634"><time>2024-03-23T11:26:58.000Z</time><ele>723</ele></trkpt><trkpt lat="45.822881" lon="9.444631"><time>2024-03-23T11:26:59.000Z</time><ele>723</ele></trkpt><trkpt lat="45.822877" lon="9.444628"><time>2024-03-23T11:27:00.000Z</time><ele>722.8</ele></trkpt><trkpt lat="45.822873" lon="9.444633"><time>2024-03-23T11:27:01.000Z</time><ele>722.6</ele></trkpt><trkpt lat="45.82287" lon="9.444628"><time>2024-03-23T11:27:02.000Z</time><ele>722.4</ele></trkpt><trkpt lat="45.822866" lon="9.44462"><time>2024-03-23T11:27:03.000Z</time><ele>722</ele></trkpt><trkpt lat="45.822864" lon="9.444623"><time>2024-03-23T11:27:04.000Z</time><ele>721.6</ele></trkpt><trkpt lat="45.822855" lon="9.444615"><time>2024-03-23T11:27:05.000Z</time><ele>721.4</ele></trkpt><trkpt lat="45.822845" lon="9.44461"><time>2024-03-23T11:27:06.000Z</time><ele>721.2</ele></trkpt><trkpt lat="45.822841" lon="9.444608"><time>2024-03-23T11:27:07.000Z</time><ele>721</ele></trkpt><trkpt lat="45.822836" lon="9.44461"><time>2024-03-23T11:27:08.000Z</time><ele>721</ele></trkpt><trkpt lat="45.822831" lon="9.444609"><time>2024-03-23T11:27:09.000Z</time><ele>720.8</ele></trkpt><trkpt lat="45.822824" lon="9.444607"><time>2024-03-23T11:27:10.000Z</time><ele>720.8</ele></trkpt><trkpt lat="45.822814" lon="9.444599"><time>2024-03-23T11:27:11.000Z</time><ele>720.6</ele></trkpt><trkpt lat="45.822811" lon="9.444597"><time>2024-03-23T11:27:12.000Z</time><ele>720.4</ele></trkpt><trkpt lat="45.822807" lon="9.444595"><time>2024-03-23T11:27:13.000Z</time><ele>720.2</ele></trkpt><trkpt lat="45.822802" lon="9.444592"><time>2024-03-23T11:27:14.000Z</time><ele>720</ele></trkpt><trkpt lat="45.822794" lon="9.444583"><time>2024-03-23T11:27:15.000Z</time><ele>719.8</ele></trkpt><trkpt lat="45.822787" lon="9.444576"><time>2024-03-23T11:27:16.000Z</time><ele>719.4</ele></trkpt><trkpt lat="45.822779" lon="9.444572"><time>2024-03-23T11:27:17.000Z</time><ele>719.2</ele></trkpt><trkpt lat="45.822774" lon="9.444566"><time>2024-03-23T11:27:18.000Z</time><ele>719</ele></trkpt><trkpt lat="45.822771" lon="9.44456"><time>2024-03-23T11:27:19.000Z</time><ele>718.8</ele></trkpt><trkpt lat="45.822768" lon="9.444556"><time>2024-03-23T11:27:20.000Z</time><ele>718.6</ele></trkpt><trkpt lat="45.822759" lon="9.444549"><time>2024-03-23T11:27:21.000Z</time><ele>718.2</ele></trkpt><trkpt lat="45.822753" lon="9.44454"><time>2024-03-23T11:27:22.000Z</time><ele>718</ele></trkpt><trkpt lat="45.822744" lon="9.44453"><time>2024-03-23T11:27:23.000Z</time><ele>717.8</ele></trkpt><trkpt lat="45.822739" lon="9.444527"><time>2024-03-23T11:27:24.000Z</time><ele>717.6</ele></trkpt><trkpt lat="45.822732" lon="9.444521"><time>2024-03-23T11:27:25.000Z</time><ele>717.4</ele></trkpt><trkpt lat="45.822726" lon="9.444516"><time>2024-03-23T11:27:26.000Z</time><ele>717.2</ele></trkpt><trkpt lat="45.822722" lon="9.444518"><time>2024-03-23T11:27:27.000Z</time><ele>717</ele></trkpt><trkpt lat="45.822719" lon="9.444512"><time>2024-03-23T11:27:28.000Z</time><ele>717</ele></trkpt><trkpt lat="45.822714" lon="9.444513"><time>2024-03-23T11:27:29.000Z</time><ele>716.8</ele></trkpt><trkpt lat="45.822711" lon="9.444514"><time>2024-03-23T11:27:30.000Z</time><ele>716.6</ele></trkpt><trkpt lat="45.822711" lon="9.444511"><time>2024-03-23T11:27:31.000Z</time><ele>716.4</ele></trkpt><trkpt lat="45.822708" lon="9.444504"><time>2024-03-23T11:27:32.000Z</time><ele>716.2</ele></trkpt><trkpt lat="45.822704" lon="9.444499"><time>2024-03-23T11:27:33.000Z</time><ele>716.2</ele></trkpt><trkpt lat="45.822696" lon="9.444495"><time>2024-03-23T11:27:34.000Z</time><ele>716</ele></trkpt><trkpt lat="45.822686" lon="9.444485"><time>2024-03-23T11:27:35.000Z</time><ele>715.8</ele></trkpt><trkpt lat="45.822682" lon="9.44448"><time>2024-03-23T11:27:36.000Z</time><ele>715.4</ele></trkpt><trkpt lat="45.822675" lon="9.44448"><time>2024-03-23T11:27:37.000Z</time><ele>715.4</ele></trkpt><trkpt lat="45.822669" lon="9.444484"><time>2024-03-23T11:27:38.000Z</time><ele>715.2</ele></trkpt><trkpt lat="45.822664" lon="9.444489"><time>2024-03-23T11:27:39.000Z</time><ele>715</ele></trkpt><trkpt lat="45.822659" lon="9.44449"><time>2024-03-23T11:27:40.000Z</time><ele>714.6</ele></trkpt><trkpt lat="45.822653" lon="9.444487"><time>2024-03-23T11:27:41.000Z</time><ele>714.4</ele></trkpt><trkpt lat="45.822649" lon="9.444487"><time>2024-03-23T11:27:42.000Z</time><ele>714.4</ele></trkpt><trkpt lat="45.822643" lon="9.444482"><time>2024-03-23T11:27:43.000Z</time><ele>714.4</ele></trkpt><trkpt lat="45.822631" lon="9.444475"><time>2024-03-23T11:27:44.000Z</time><ele>714</ele></trkpt><trkpt lat="45.822624" lon="9.444469"><time>2024-03-23T11:27:45.000Z</time><ele>713.8</ele></trkpt><trkpt lat="45.822615" lon="9.44447"><time>2024-03-23T11:27:46.000Z</time><ele>713.6</ele></trkpt><trkpt lat="45.822609" lon="9.444472"><time>2024-03-23T11:27:47.000Z</time><ele>713.2</ele></trkpt><trkpt lat="45.822598" lon="9.444467"><time>2024-03-23T11:27:48.000Z</time><ele>713</ele></trkpt><trkpt lat="45.822588" lon="9.444464"><time>2024-03-23T11:27:49.000Z</time><ele>713</ele></trkpt><trkpt lat="45.82258" lon="9.444461"><time>2024-03-23T11:27:50.000Z</time><ele>713</ele></trkpt><trkpt lat="45.822568" lon="9.444451"><time>2024-03-23T11:27:51.000Z</time><ele>713</ele></trkpt><trkpt lat="45.822563" lon="9.444447"><time>2024-03-23T11:27:52.000Z</time><ele>712.6</ele></trkpt><trkpt lat="45.822555" lon="9.444441"><time>2024-03-23T11:27:53.000Z</time><ele>712.4</ele></trkpt><trkpt lat="45.822544" lon="9.444434"><time>2024-03-23T11:27:54.000Z</time><ele>712.2</ele></trkpt><trkpt lat="45.822539" lon="9.444439"><time>2024-03-23T11:27:55.000Z</time><ele>712</ele></trkpt><trkpt lat="45.822531" lon="9.444441"><time>2024-03-23T11:27:56.000Z</time><ele>711.8</ele></trkpt><trkpt lat="45.82252" lon="9.444437"><time>2024-03-23T11:27:57.000Z</time><ele>711.6</ele></trkpt><trkpt lat="45.822505" lon="9.44442"><time>2024-03-23T11:27:58.000Z</time><ele>711.4</ele></trkpt><trkpt lat="45.822494" lon="9.444414"><time>2024-03-23T11:27:59.000Z</time><ele>711.4</ele></trkpt><trkpt lat="45.822484" lon="9.444407"><time>2024-03-23T11:28:00.000Z</time><ele>711.2</ele></trkpt><trkpt lat="45.822471" lon="9.444393"><time>2024-03-23T11:28:01.000Z</time><ele>711.2</ele></trkpt><trkpt lat="45.822459" lon="9.444386"><time>2024-03-23T11:28:02.000Z</time><ele>711</ele></trkpt><trkpt lat="45.82245" lon="9.444382"><time>2024-03-23T11:28:03.000Z</time><ele>711</ele></trkpt><trkpt lat="45.822443" lon="9.444384"><time>2024-03-23T11:28:04.000Z</time><ele>710.8</ele></trkpt><trkpt lat="45.822435" lon="9.444386"><time>2024-03-23T11:28:05.000Z</time><ele>710.6</ele></trkpt><trkpt lat="45.822424" lon="9.444387"><time>2024-03-23T11:28:06.000Z</time><ele>710.6</ele></trkpt><trkpt lat="45.822412" lon="9.444382"><time>2024-03-23T11:28:07.000Z</time><ele>710.4</ele></trkpt><trkpt lat="45.822401" lon="9.444376"><time>2024-03-23T11:28:08.000Z</time><ele>710.2</ele></trkpt><trkpt lat="45.822389" lon="9.444373"><time>2024-03-23T11:28:09.000Z</time><ele>710</ele></trkpt><trkpt lat="45.82238" lon="9.444369"><time>2024-03-23T11:28:10.000Z</time><ele>710</ele></trkpt><trkpt lat="45.822368" lon="9.444366"><time>2024-03-23T11:28:11.000Z</time><ele>710</ele></trkpt><trkpt lat="45.822356" lon="9.444372"><time>2024-03-23T11:28:12.000Z</time><ele>710</ele></trkpt><trkpt lat="45.822343" lon="9.444376"><time>2024-03-23T11:28:13.000Z</time><ele>710</ele></trkpt><trkpt lat="45.822326" lon="9.444379"><time>2024-03-23T11:28:14.000Z</time><ele>710</ele></trkpt><trkpt lat="45.822315" lon="9.444387"><time>2024-03-23T11:28:15.000Z</time><ele>710</ele></trkpt><trkpt lat="45.822307" lon="9.444396"><time>2024-03-23T11:28:16.000Z</time><ele>709.8</ele></trkpt><trkpt lat="45.822303" lon="9.444407"><time>2024-03-23T11:28:17.000Z</time><ele>709.8</ele></trkpt><trkpt lat="45.822298" lon="9.444408"><time>2024-03-23T11:28:18.000Z</time><ele>709.8</ele></trkpt><trkpt lat="45.822289" lon="9.444406"><time>2024-03-23T11:28:19.000Z</time><ele>709.6</ele></trkpt><trkpt lat="45.822283" lon="9.444414"><time>2024-03-23T11:28:20.000Z</time><ele>709.6</ele></trkpt><trkpt lat="45.822283" lon="9.444415"><time>2024-03-23T11:28:21.000Z</time><ele>709.4</ele></trkpt><trkpt lat="45.82228" lon="9.44441"><time>2024-03-23T11:28:22.000Z</time><ele>709.4</ele></trkpt><trkpt lat="45.822277" lon="9.444413"><time>2024-03-23T11:28:23.000Z</time><ele>709.2</ele></trkpt><trkpt lat="45.822271" lon="9.444412"><time>2024-03-23T11:28:24.000Z</time><ele>709</ele></trkpt><trkpt lat="45.822264" lon="9.444408"><time>2024-03-23T11:28:25.000Z</time><ele>709</ele></trkpt><trkpt lat="45.822255" lon="9.444402"><time>2024-03-23T11:28:26.000Z</time><ele>708.8</ele></trkpt><trkpt lat="45.822249" lon="9.444397"><time>2024-03-23T11:28:27.000Z</time><ele>708.6</ele></trkpt><trkpt lat="45.822242" lon="9.444397"><time>2024-03-23T11:28:28.000Z</time><ele>708.4</ele></trkpt><trkpt lat="45.822239" lon="9.4444"><time>2024-03-23T11:28:29.000Z</time><ele>708.2</ele></trkpt><trkpt lat="45.822235" lon="9.444402"><time>2024-03-23T11:28:30.000Z</time><ele>708</ele></trkpt><trkpt lat="45.822233" lon="9.444401"><time>2024-03-23T11:28:31.000Z</time><ele>707.8</ele></trkpt><trkpt lat="45.822228" lon="9.444387"><time>2024-03-23T11:28:32.000Z</time><ele>707.6</ele></trkpt><trkpt lat="45.822223" lon="9.444379"><time>2024-03-23T11:28:33.000Z</time><ele>707.4</ele></trkpt><trkpt lat="45.822215" lon="9.444362"><time>2024-03-23T11:28:34.000Z</time><ele>707.2</ele></trkpt><trkpt lat="45.82221" lon="9.444355"><time>2024-03-23T11:28:35.000Z</time><ele>706.8</ele></trkpt><trkpt lat="45.822203" lon="9.444353"><time>2024-03-23T11:28:36.000Z</time><ele>706.6</ele></trkpt><trkpt lat="45.822194" lon="9.444349"><time>2024-03-23T11:28:37.000Z</time><ele>706.4</ele></trkpt><trkpt lat="45.822186" lon="9.444342"><time>2024-03-23T11:28:38.000Z</time><ele>706.2</ele></trkpt><trkpt lat="45.822178" lon="9.444338"><time>2024-03-23T11:28:39.000Z</time><ele>706.2</ele></trkpt><trkpt lat="45.822174" lon="9.444337"><time>2024-03-23T11:28:40.000Z</time><ele>705.8</ele></trkpt><trkpt lat="45.822165" lon="9.444334"><time>2024-03-23T11:28:41.000Z</time><ele>705.8</ele></trkpt><trkpt lat="45.822162" lon="9.444331"><time>2024-03-23T11:28:42.000Z</time><ele>705.6</ele></trkpt><trkpt lat="45.822155" lon="9.44433"><time>2024-03-23T11:28:43.000Z</time><ele>705.4</ele></trkpt><trkpt lat="45.822152" lon="9.444325"><time>2024-03-23T11:28:44.000Z</time><ele>705.2</ele></trkpt><trkpt lat="45.822147" lon="9.444318"><time>2024-03-23T11:28:45.000Z</time><ele>705.2</ele></trkpt><trkpt lat="45.822144" lon="9.444315"><time>2024-03-23T11:28:46.000Z</time><ele>705</ele></trkpt><trkpt lat="45.822139" lon="9.444314"><time>2024-03-23T11:28:47.000Z</time><ele>704.8</ele></trkpt><trkpt lat="45.822136" lon="9.444316"><time>2024-03-23T11:28:48.000Z</time><ele>704.4</ele></trkpt><trkpt lat="45.822134" lon="9.444314"><time>2024-03-23T11:28:49.000Z</time><ele>704.2</ele></trkpt><trkpt lat="45.822133" lon="9.444314"><time>2024-03-23T11:28:50.000Z</time><ele>704</ele></trkpt><trkpt lat="45.822128" lon="9.444312"><time>2024-03-23T11:28:51.000Z</time><ele>703.8</ele></trkpt><trkpt lat="45.822118" lon="9.44431"><time>2024-03-23T11:28:52.000Z</time><ele>703.6</ele></trkpt><trkpt lat="45.822111" lon="9.444312"><time>2024-03-23T11:28:53.000Z</time><ele>703.2</ele></trkpt><trkpt lat="45.822105" lon="9.444315"><time>2024-03-23T11:28:54.000Z</time><ele>703</ele></trkpt><trkpt lat="45.822098" lon="9.444315"><time>2024-03-23T11:28:55.000Z</time><ele>703</ele></trkpt><trkpt lat="45.822094" lon="9.444313"><time>2024-03-23T11:28:56.000Z</time><ele>702.8</ele></trkpt><trkpt lat="45.822083" lon="9.444306"><time>2024-03-23T11:28:57.000Z</time><ele>702.8</ele></trkpt><trkpt lat="45.822068" lon="9.444296"><time>2024-03-23T11:28:58.000Z</time><ele>702.4</ele></trkpt><trkpt lat="45.822059" lon="9.444298"><time>2024-03-23T11:28:59.000Z</time><ele>702.2</ele></trkpt><trkpt lat="45.822044" lon="9.444297"><time>2024-03-23T11:29:00.000Z</time><ele>702</ele></trkpt><trkpt lat="45.822026" lon="9.444287"><time>2024-03-23T11:29:01.000Z</time><ele>701.8</ele></trkpt><trkpt lat="45.822013" lon="9.444285"><time>2024-03-23T11:29:02.000Z</time><ele>701.6</ele></trkpt><trkpt lat="45.822005" lon="9.444281"><time>2024-03-23T11:29:03.000Z</time><ele>701.6</ele></trkpt><trkpt lat="45.821997" lon="9.444278"><time>2024-03-23T11:29:04.000Z</time><ele>701.4</ele></trkpt><trkpt lat="45.821992" lon="9.444276"><time>2024-03-23T11:29:05.000Z</time><ele>701.4</ele></trkpt><trkpt lat="45.821985" lon="9.444278"><time>2024-03-23T11:29:06.000Z</time><ele>701.2</ele></trkpt><trkpt lat="45.821975" lon="9.44428"><time>2024-03-23T11:29:07.000Z</time><ele>701</ele></trkpt><trkpt lat="45.821963" lon="9.444279"><time>2024-03-23T11:29:08.000Z</time><ele>700.8</ele></trkpt><trkpt lat="45.821954" lon="9.444281"><time>2024-03-23T11:29:09.000Z</time><ele>700.6</ele></trkpt><trkpt lat="45.821944" lon="9.444278"><time>2024-03-23T11:29:10.000Z</time><ele>700.4</ele></trkpt><trkpt lat="45.82194" lon="9.444275"><time>2024-03-23T11:29:11.000Z</time><ele>700.4</ele></trkpt><trkpt lat="45.821931" lon="9.444264"><time>2024-03-23T11:29:12.000Z</time><ele>700.2</ele></trkpt><trkpt lat="45.82192" lon="9.444266"><time>2024-03-23T11:29:13.000Z</time><ele>700</ele></trkpt><trkpt lat="45.821915" lon="9.444274"><time>2024-03-23T11:29:14.000Z</time><ele>699.8</ele></trkpt><trkpt lat="45.821913" lon="9.444272"><time>2024-03-23T11:29:15.000Z</time><ele>699.6</ele></trkpt><trkpt lat="45.821911" lon="9.444273"><time>2024-03-23T11:29:16.000Z</time><ele>699.4</ele></trkpt><trkpt lat="45.821899" lon="9.444273"><time>2024-03-23T11:29:17.000Z</time><ele>699.2</ele></trkpt><trkpt lat="45.821889" lon="9.444268"><time>2024-03-23T11:29:18.000Z</time><ele>699</ele></trkpt><trkpt lat="45.821881" lon="9.444265"><time>2024-03-23T11:29:19.000Z</time><ele>698.8</ele></trkpt><trkpt lat="45.821873" lon="9.444262"><time>2024-03-23T11:29:20.000Z</time><ele>698.6</ele></trkpt><trkpt lat="45.821867" lon="9.444255"><time>2024-03-23T11:29:21.000Z</time><ele>698.4</ele></trkpt><trkpt lat="45.821866" lon="9.444251"><time>2024-03-23T11:29:22.000Z</time><ele>698.4</ele></trkpt><trkpt lat="45.821865" lon="9.444249"><time>2024-03-23T11:29:23.000Z</time><ele>698</ele></trkpt><trkpt lat="45.821864" lon="9.444247"><time>2024-03-23T11:29:24.000Z</time><ele>697.8</ele></trkpt><trkpt lat="45.821859" lon="9.444246"><time>2024-03-23T11:29:25.000Z</time><ele>697.8</ele></trkpt><trkpt lat="45.821855" lon="9.444245"><time>2024-03-23T11:29:26.000Z</time><ele>697.6</ele></trkpt><trkpt lat="45.821851" lon="9.444243"><time>2024-03-23T11:29:27.000Z</time><ele>697.4</ele></trkpt><trkpt lat="45.821849" lon="9.444239"><time>2024-03-23T11:29:28.000Z</time><ele>697.2</ele></trkpt><trkpt lat="45.821847" lon="9.444237"><time>2024-03-23T11:29:29.000Z</time><ele>697</ele></trkpt><trkpt lat="45.821847" lon="9.444236"><time>2024-03-23T11:29:30.000Z</time><ele>697</ele></trkpt><trkpt lat="45.821845" lon="9.444236"><time>2024-03-23T11:29:31.000Z</time><ele>696.8</ele></trkpt><trkpt lat="45.821838" lon="9.444238"><time>2024-03-23T11:29:32.000Z</time><ele>696.8</ele></trkpt><trkpt lat="45.821832" lon="9.444239"><time>2024-03-23T11:29:33.000Z</time><ele>696.6</ele></trkpt><trkpt lat="45.821829" lon="9.44424"><time>2024-03-23T11:29:34.000Z</time><ele>696.2</ele></trkpt><trkpt lat="45.821827" lon="9.444241"><time>2024-03-23T11:29:35.000Z</time><ele>696</ele></trkpt><trkpt lat="45.821822" lon="9.444239"><time>2024-03-23T11:29:36.000Z</time><ele>695.8</ele></trkpt><trkpt lat="45.821819" lon="9.444235"><time>2024-03-23T11:29:37.000Z</time><ele>695.6</ele></trkpt><trkpt lat="45.821816" lon="9.444233"><time>2024-03-23T11:29:38.000Z</time><ele>695.4</ele></trkpt><trkpt lat="45.821813" lon="9.444229"><time>2024-03-23T11:29:39.000Z</time><ele>695.4</ele></trkpt><trkpt lat="45.821811" lon="9.444226"><time>2024-03-23T11:29:40.000Z</time><ele>695</ele></trkpt><trkpt lat="45.821802" lon="9.444224"><time>2024-03-23T11:29:41.000Z</time><ele>695</ele></trkpt><trkpt lat="45.821796" lon="9.444219"><time>2024-03-23T11:29:42.000Z</time><ele>694.8</ele></trkpt><trkpt lat="45.821791" lon="9.44421"><time>2024-03-23T11:29:43.000Z</time><ele>694.4</ele></trkpt><trkpt lat="45.821785" lon="9.444209"><time>2024-03-23T11:29:44.000Z</time><ele>694.2</ele></trkpt><trkpt lat="45.821782" lon="9.444209"><time>2024-03-23T11:29:45.000Z</time><ele>694.2</ele></trkpt><trkpt lat="45.82178" lon="9.444208"><time>2024-03-23T11:29:46.000Z</time><ele>693.8</ele></trkpt><trkpt lat="45.821779" lon="9.44421"><time>2024-03-23T11:29:47.000Z</time><ele>693.6</ele></trkpt><trkpt lat="45.821779" lon="9.444207"><time>2024-03-23T11:29:48.000Z</time><ele>693.6</ele></trkpt><trkpt lat="45.821778" lon="9.444204"><time>2024-03-23T11:29:49.000Z</time><ele>693.4</ele></trkpt><trkpt lat="45.821779" lon="9.44421"><time>2024-03-23T11:29:50.000Z</time><ele>693.4</ele></trkpt><trkpt lat="45.821778" lon="9.444209"><time>2024-03-23T11:29:51.000Z</time><ele>693.4</ele></trkpt><trkpt lat="45.821778" lon="9.444207"><time>2024-03-23T11:29:52.000Z</time><ele>693.2</ele></trkpt><trkpt lat="45.821777" lon="9.444206"><time>2024-03-23T11:29:53.000Z</time><ele>693.2</ele></trkpt><trkpt lat="45.821777" lon="9.444209"><time>2024-03-23T11:29:54.000Z</time><ele>693.2</ele></trkpt><trkpt lat="45.821775" lon="9.444209"><time>2024-03-23T11:29:55.000Z</time><ele>693.2</ele></trkpt><trkpt lat="45.821773" lon="9.44421"><time>2024-03-23T11:29:56.000Z</time><ele>693.4</ele></trkpt><trkpt lat="45.821772" lon="9.444209"><time>2024-03-23T11:29:57.000Z</time><ele>693.6</ele></trkpt><trkpt lat="45.821771" lon="9.444214"><time>2024-03-23T11:29:58.000Z</time><ele>693.6</ele></trkpt><trkpt lat="45.821771" lon="9.444213"><time>2024-03-23T11:29:59.000Z</time><ele>693.6</ele></trkpt><trkpt lat="45.82177" lon="9.444211"><time>2024-03-23T11:30:00.000Z</time><ele>693.6</ele></trkpt><trkpt lat="45.821768" lon="9.44421"><time>2024-03-23T11:30:01.000Z</time><ele>693.6</ele></trkpt><trkpt lat="45.821762" lon="9.444212"><time>2024-03-23T11:30:02.000Z</time><ele>693.6</ele></trkpt><trkpt lat="45.821757" lon="9.444214"><time>2024-03-23T11:30:03.000Z</time><ele>693.6</ele></trkpt><trkpt lat="45.821755" lon="9.444217"><time>2024-03-23T11:30:04.000Z</time><ele>693.4</ele></trkpt><trkpt lat="45.821752" lon="9.444221"><time>2024-03-23T11:30:05.000Z</time><ele>693.4</ele></trkpt><trkpt lat="45.821752" lon="9.444219"><time>2024-03-23T11:30:06.000Z</time><ele>693.4</ele></trkpt><trkpt lat="45.82175" lon="9.444218"><time>2024-03-23T11:30:07.000Z</time><ele>693.4</ele></trkpt><trkpt lat="45.82175" lon="9.444216"><time>2024-03-23T11:30:08.000Z</time><ele>693.2</ele></trkpt><trkpt lat="45.821749" lon="9.444212"><time>2024-03-23T11:30:09.000Z</time><ele>693.2</ele></trkpt><trkpt lat="45.82175" lon="9.444211"><time>2024-03-23T11:30:10.000Z</time><ele>693.2</ele></trkpt><trkpt lat="45.82175" lon="9.444209"><time>2024-03-23T11:30:11.000Z</time><ele>693.2</ele></trkpt><trkpt lat="45.821744" lon="9.444203"><time>2024-03-23T11:30:12.000Z</time><ele>693.4</ele></trkpt><trkpt lat="45.821744" lon="9.444202"><time>2024-03-23T11:30:13.000Z</time><ele>693.4</ele></trkpt><trkpt lat="45.821742" lon="9.444202"><time>2024-03-23T11:30:14.000Z</time><ele>693.4</ele></trkpt><trkpt lat="45.821743" lon="9.444203"><time>2024-03-23T11:30:15.000Z</time><ele>693.6</ele></trkpt><trkpt lat="45.821743" lon="9.444203"><time>2024-03-23T11:30:16.000Z</time><ele>693.6</ele></trkpt><trkpt lat="45.821743" lon="9.444203"><time>2024-03-23T11:30:17.000Z</time><ele>693.6</ele></trkpt><trkpt lat="45.821743" lon="9.444203"><time>2024-03-23T11:30:18.000Z</time><ele>693.6</ele></trkpt><trkpt lat="45.821743" lon="9.444203"><time>2024-03-23T11:30:19.000Z</time><ele>693.6</ele></trkpt><trkpt lat="45.821743" lon="9.444203"><time>2024-03-23T11:30:20.000Z</time><ele>693.6</ele></trkpt><trkpt lat="45.821743" lon="9.444203"><time>2024-03-23T11:30:21.000Z</time><ele>693.6</ele></trkpt><trkpt lat="45.821743" lon="9.444203"><time>2024-03-23T11:30:22.000Z</time><ele>693.6</ele></trkpt><trkpt lat="45.821743" lon="9.444203"><time>2024-03-23T11:30:23.000Z</time><ele>693.6</ele></trkpt><trkpt lat="45.821743" lon="9.444203"><time>2024-03-23T11:30:24.000Z</time><ele>693.6</ele></trkpt><trkpt lat="45.821744" lon="9.444203"><time>2024-03-23T11:30:25.000Z</time><ele>693.6</ele></trkpt><trkpt lat="45.821744" lon="9.444203"><time>2024-03-23T11:30:26.000Z</time><ele>693.6</ele></trkpt><trkpt lat="45.821744" lon="9.444203"><time>2024-03-23T11:30:27.000Z</time><ele>693.6</ele></trkpt><trkpt lat="45.821744" lon="9.444203"><time>2024-03-23T11:30:28.000Z</time><ele>693.4</ele></trkpt><trkpt lat="45.821744" lon="9.444202"><time>2024-03-23T11:30:29.000Z</time><ele>693.4</ele></trkpt><trkpt lat="45.821744" lon="9.444202"><time>2024-03-23T11:30:30.000Z</time><ele>693.4</ele></trkpt><trkpt lat="45.821744" lon="9.444201"><time>2024-03-23T11:30:31.000Z</time><ele>693.4</ele></trkpt><trkpt lat="45.821744" lon="9.444199"><time>2024-03-23T11:30:32.000Z</time><ele>693.4</ele></trkpt><trkpt lat="45.821744" lon="9.444196"><time>2024-03-23T11:30:33.000Z</time><ele>693.2</ele></trkpt><trkpt lat="45.821744" lon="9.444189"><time>2024-03-23T11:30:34.000Z</time><ele>693.2</ele></trkpt><trkpt lat="45.821745" lon="9.444184"><time>2024-03-23T11:30:35.000Z</time><ele>693.2</ele></trkpt><trkpt lat="45.821745" lon="9.444179"><time>2024-03-23T11:30:36.000Z</time><ele>693.2</ele></trkpt><trkpt lat="45.821745" lon="9.444175"><time>2024-03-23T11:30:37.000Z</time><ele>693.2</ele></trkpt><trkpt lat="45.821745" lon="9.444174"><time>2024-03-23T11:30:38.000Z</time><ele>693.2</ele></trkpt><trkpt lat="45.821745" lon="9.444173"><time>2024-03-23T11:30:39.000Z</time><ele>693.2</ele></trkpt><trkpt lat="45.821745" lon="9.444172"><time>2024-03-23T11:30:40.000Z</time><ele>693.2</ele></trkpt><trkpt lat="45.821745" lon="9.44417"><time>2024-03-23T11:30:41.000Z</time><ele>693.2</ele></trkpt><trkpt lat="45.821745" lon="9.444169"><time>2024-03-23T11:30:42.000Z</time><ele>693.2</ele></trkpt><trkpt lat="45.821745" lon="9.444169"><time>2024-03-23T11:30:43.000Z</time><ele>693.2</ele></trkpt><trkpt lat="45.821745" lon="9.444169"><time>2024-03-23T11:30:44.000Z</time><ele>693.4</ele></trkpt><trkpt lat="45.821745" lon="9.444168"><time>2024-03-23T11:30:45.000Z</time><ele>693.4</ele></trkpt><trkpt lat="45.821746" lon="9.444167"><time>2024-03-23T11:30:46.000Z</time><ele>693.4</ele></trkpt><trkpt lat="45.821746" lon="9.444167"><time>2024-03-23T11:30:47.000Z</time><ele>693.4</ele></trkpt><trkpt lat="45.821746" lon="9.444167"><time>2024-03-23T11:30:48.000Z</time><ele>693.4</ele></trkpt><trkpt lat="45.821748" lon="9.444167"><time>2024-03-23T11:30:49.000Z</time><ele>693.4</ele></trkpt><trkpt lat="45.82175" lon="9.444167"><time>2024-03-23T11:30:50.000Z</time><ele>693.4</ele></trkpt><trkpt lat="45.821751" lon="9.444165"><time>2024-03-23T11:30:51.000Z</time><ele>693.4</ele></trkpt><trkpt lat="45.821751" lon="9.444165"><time>2024-03-23T11:30:52.000Z</time><ele>693.4</ele></trkpt><trkpt lat="45.821751" lon="9.444164"><time>2024-03-23T11:30:53.000Z</time><ele>693.4</ele></trkpt><trkpt lat="45.821751" lon="9.444164"><time>2024-03-23T11:30:54.000Z</time><ele>693.4</ele></trkpt><trkpt lat="45.821753" lon="9.444163"><time>2024-03-23T11:30:55.000Z</time><ele>693.4</ele></trkpt><trkpt lat="45.821755" lon="9.444163"><time>2024-03-23T11:30:56.000Z</time><ele>693.4</ele></trkpt><trkpt lat="45.821758" lon="9.444162"><time>2024-03-23T11:30:57.000Z</time><ele>693.2</ele></trkpt><trkpt lat="45.82176" lon="9.444162"><time>2024-03-23T11:30:58.000Z</time><ele>693.2</ele></trkpt><trkpt lat="45.82176" lon="9.444162"><time>2024-03-23T11:30:59.000Z</time><ele>693.2</ele></trkpt><trkpt lat="45.82176" lon="9.444162"><time>2024-03-23T11:31:00.000Z</time><ele>693.4</ele></trkpt><trkpt lat="45.82176" lon="9.444162"><time>2024-03-23T11:31:01.000Z</time><ele>693.4</ele></trkpt><trkpt lat="45.82176" lon="9.444162"><time>2024-03-23T11:31:02.000Z</time><ele>693.4</ele></trkpt><trkpt lat="45.82176" lon="9.444162"><time>2024-03-23T11:31:03.000Z</time><ele>693.4</ele></trkpt><trkpt lat="45.82176" lon="9.444162"><time>2024-03-23T11:31:04.000Z</time><ele>693.4</ele></trkpt><trkpt lat="45.82176" lon="9.444162"><time>2024-03-23T11:31:05.000Z</time><ele>693.4</ele></trkpt><trkpt lat="45.82176" lon="9.444162"><time>2024-03-23T11:31:06.000Z</time><ele>693.4</ele></trkpt><trkpt lat="45.82176" lon="9.444162"><time>2024-03-23T11:31:07.000Z</time><ele>693.4</ele></trkpt><trkpt lat="45.82176" lon="9.444162"><time>2024-03-23T11:31:08.000Z</time><ele>693.4</ele></trkpt><trkpt lat="45.821761" lon="9.444164"><time>2024-03-23T11:31:09.000Z</time><ele>693.4</ele></trkpt><trkpt lat="45.821762" lon="9.444164"><time>2024-03-23T11:31:10.000Z</time><ele>693.4</ele></trkpt><trkpt lat="45.821762" lon="9.444165"><time>2024-03-23T11:31:11.000Z</time><ele>693.4</ele></trkpt><trkpt lat="45.821762" lon="9.444166"><time>2024-03-23T11:31:12.000Z</time><ele>693.4</ele></trkpt><trkpt lat="45.821762" lon="9.444168"><time>2024-03-23T11:31:13.000Z</time><ele>693.4</ele></trkpt><trkpt lat="45.821762" lon="9.444171"><time>2024-03-23T11:31:14.000Z</time><ele>693.4</ele></trkpt><trkpt lat="45.821763" lon="9.444172"><time>2024-03-23T11:31:15.000Z</time><ele>693.4</ele></trkpt><trkpt lat="45.821763" lon="9.444173"><time>2024-03-23T11:31:16.000Z</time><ele>693.4</ele></trkpt><trkpt lat="45.821765" lon="9.444173"><time>2024-03-23T11:31:17.000Z</time><ele>693.4</ele></trkpt><trkpt lat="45.821765" lon="9.444173"><time>2024-03-23T11:31:18.000Z</time><ele>693.4</ele></trkpt><trkpt lat="45.821766" lon="9.444174"><time>2024-03-23T11:31:19.000Z</time><ele>693.4</ele></trkpt><trkpt lat="45.821767" lon="9.444174"><time>2024-03-23T11:31:20.000Z</time><ele>693.4</ele></trkpt><trkpt lat="45.821767" lon="9.444174"><time>2024-03-23T11:31:21.000Z</time><ele>693.4</ele></trkpt><trkpt lat="45.821777" lon="9.444174"><time>2024-03-23T11:31:22.000Z</time><ele>693.4</ele></trkpt><trkpt lat="45.821795" lon="9.444173"><time>2024-03-23T11:31:23.000Z</time><ele>693.4</ele></trkpt><trkpt lat="45.821816" lon="9.444174"><time>2024-03-23T11:31:24.000Z</time><ele>693.4</ele></trkpt><trkpt lat="45.821839" lon="9.444173"><time>2024-03-23T11:31:25.000Z</time><ele>693.4</ele></trkpt><trkpt lat="45.821863" lon="9.444167"><time>2024-03-23T11:31:26.000Z</time><ele>693.4</ele></trkpt><trkpt lat="45.821885" lon="9.444167"><time>2024-03-23T11:31:27.000Z</time><ele>693.4</ele></trkpt><trkpt lat="45.821907" lon="9.444173"><time>2024-03-23T11:31:28.000Z</time><ele>693.4</ele></trkpt><trkpt lat="45.821926" lon="9.444175"><time>2024-03-23T11:31:29.000Z</time><ele>693.4</ele></trkpt><trkpt lat="45.821945" lon="9.444173"><time>2024-03-23T11:31:30.000Z</time><ele>693.4</ele></trkpt><trkpt lat="45.821964" lon="9.44417"><time>2024-03-23T11:31:31.000Z</time><ele>693.4</ele></trkpt><trkpt lat="45.821976" lon="9.444168"><time>2024-03-23T11:31:32.000Z</time><ele>693.4</ele></trkpt><trkpt lat="45.821985" lon="9.444168"><time>2024-03-23T11:31:33.000Z</time><ele>692.6</ele></trkpt><trkpt lat="45.821989" lon="9.444171"><time>2024-03-23T11:31:34.000Z</time><ele>692.2</ele></trkpt><trkpt lat="45.821995" lon="9.444171"><time>2024-03-23T11:31:35.000Z</time><ele>692</ele></trkpt><trkpt lat="45.822005" lon="9.444169"><time>2024-03-23T11:31:36.000Z</time><ele>691.8</ele></trkpt><trkpt lat="45.822014" lon="9.444168"><time>2024-03-23T11:31:37.000Z</time><ele>691.6</ele></trkpt><trkpt lat="45.82202" lon="9.444165"><time>2024-03-23T11:31:38.000Z</time><ele>691.6</ele></trkpt><trkpt lat="45.822025" lon="9.444159"><time>2024-03-23T11:31:39.000Z</time><ele>691.4</ele></trkpt><trkpt lat="45.822032" lon="9.444158"><time>2024-03-23T11:31:40.000Z</time><ele>691.4</ele></trkpt><trkpt lat="45.822032" lon="9.444154"><time>2024-03-23T11:31:41.000Z</time><ele>691.4</ele></trkpt><trkpt lat="45.822033" lon="9.444154"><time>2024-03-23T11:31:42.000Z</time><ele>691.4</ele></trkpt><trkpt lat="45.822033" lon="9.444153"><time>2024-03-23T11:31:43.000Z</time><ele>691.4</ele></trkpt><trkpt lat="45.822032" lon="9.444154"><time>2024-03-23T11:31:44.000Z</time><ele>691.4</ele></trkpt><trkpt lat="45.822033" lon="9.444153"><time>2024-03-23T11:31:45.000Z</time><ele>691.6</ele></trkpt><trkpt lat="45.822034" lon="9.444152"><time>2024-03-23T11:31:46.000Z</time><ele>691.6</ele></trkpt><trkpt lat="45.822041" lon="9.444149"><time>2024-03-23T11:31:47.000Z</time><ele>691.6</ele></trkpt><trkpt lat="45.82205" lon="9.444148"><time>2024-03-23T11:31:48.000Z</time><ele>691.6</ele></trkpt><trkpt lat="45.822061" lon="9.444146"><time>2024-03-23T11:31:49.000Z</time><ele>691.4</ele></trkpt><trkpt lat="45.822071" lon="9.444149"><time>2024-03-23T11:31:50.000Z</time><ele>691.4</ele></trkpt><trkpt lat="45.822081" lon="9.44415"><time>2024-03-23T11:31:51.000Z</time><ele>691.2</ele></trkpt><trkpt lat="45.822087" lon="9.44415"><time>2024-03-23T11:31:52.000Z</time><ele>691.2</ele></trkpt><trkpt lat="45.822094" lon="9.444156"><time>2024-03-23T11:31:53.000Z</time><ele>691.2</ele></trkpt><trkpt lat="45.822096" lon="9.444158"><time>2024-03-23T11:31:54.000Z</time><ele>691.2</ele></trkpt><trkpt lat="45.822103" lon="9.444162"><time>2024-03-23T11:31:55.000Z</time><ele>691.2</ele></trkpt><trkpt lat="45.822105" lon="9.444162"><time>2024-03-23T11:31:56.000Z</time><ele>691.2</ele></trkpt><trkpt lat="45.822105" lon="9.44416"><time>2024-03-23T11:31:57.000Z</time><ele>691.2</ele></trkpt><trkpt lat="45.822103" lon="9.444159"><time>2024-03-23T11:31:58.000Z</time><ele>691.2</ele></trkpt><trkpt lat="45.822105" lon="9.44415"><time>2024-03-23T11:31:59.000Z</time><ele>691.2</ele></trkpt><trkpt lat="45.822102" lon="9.444151"><time>2024-03-23T11:32:00.000Z</time><ele>691.2</ele></trkpt><trkpt lat="45.8221" lon="9.444148"><time>2024-03-23T11:32:01.000Z</time><ele>691</ele></trkpt><trkpt lat="45.822095" lon="9.444142"><time>2024-03-23T11:32:02.000Z</time><ele>690.8</ele></trkpt><trkpt lat="45.822091" lon="9.444138"><time>2024-03-23T11:32:03.000Z</time><ele>690.6</ele></trkpt><trkpt lat="45.822087" lon="9.444136"><time>2024-03-23T11:32:04.000Z</time><ele>690.6</ele></trkpt><trkpt lat="45.822083" lon="9.444132"><time>2024-03-23T11:32:05.000Z</time><ele>690.4</ele></trkpt><trkpt lat="45.822081" lon="9.444126"><time>2024-03-23T11:32:06.000Z</time><ele>690.4</ele></trkpt><trkpt lat="45.82208" lon="9.444123"><time>2024-03-23T11:32:07.000Z</time><ele>690.2</ele></trkpt><trkpt lat="45.82208" lon="9.444117"><time>2024-03-23T11:32:08.000Z</time><ele>690.2</ele></trkpt><trkpt lat="45.82208" lon="9.44411"><time>2024-03-23T11:32:09.000Z</time><ele>690</ele></trkpt><trkpt lat="45.822079" lon="9.444113"><time>2024-03-23T11:32:10.000Z</time><ele>689.8</ele></trkpt><trkpt lat="45.822076" lon="9.444111"><time>2024-03-23T11:32:11.000Z</time><ele>689.8</ele></trkpt><trkpt lat="45.822074" lon="9.444108"><time>2024-03-23T11:32:12.000Z</time><ele>689.4</ele></trkpt><trkpt lat="45.822074" lon="9.444106"><time>2024-03-23T11:32:13.000Z</time><ele>689.2</ele></trkpt><trkpt lat="45.822076" lon="9.444104"><time>2024-03-23T11:32:14.000Z</time><ele>689</ele></trkpt><trkpt lat="45.822075" lon="9.444096"><time>2024-03-23T11:32:15.000Z</time><ele>689</ele></trkpt><trkpt lat="45.82207" lon="9.444091"><time>2024-03-23T11:32:16.000Z</time><ele>688.8</ele></trkpt><trkpt lat="45.822065" lon="9.444086"><time>2024-03-23T11:32:17.000Z</time><ele>688.6</ele></trkpt><trkpt lat="45.82206" lon="9.444081"><time>2024-03-23T11:32:18.000Z</time><ele>688.6</ele></trkpt><trkpt lat="45.822056" lon="9.44408"><time>2024-03-23T11:32:19.000Z</time><ele>688.2</ele></trkpt><trkpt lat="45.822054" lon="9.444077"><time>2024-03-23T11:32:20.000Z</time><ele>688</ele></trkpt><trkpt lat="45.822051" lon="9.444075"><time>2024-03-23T11:32:21.000Z</time><ele>687.8</ele></trkpt><trkpt lat="45.822046" lon="9.444072"><time>2024-03-23T11:32:22.000Z</time><ele>687.4</ele></trkpt><trkpt lat="45.822043" lon="9.444074"><time>2024-03-23T11:32:23.000Z</time><ele>687.4</ele></trkpt><trkpt lat="45.822041" lon="9.444068"><time>2024-03-23T11:32:24.000Z</time><ele>687.2</ele></trkpt><trkpt lat="45.822037" lon="9.44406"><time>2024-03-23T11:32:25.000Z</time><ele>687</ele></trkpt><trkpt lat="45.822032" lon="9.444056"><time>2024-03-23T11:32:26.000Z</time><ele>686.8</ele></trkpt><trkpt lat="45.822028" lon="9.444053"><time>2024-03-23T11:32:27.000Z</time><ele>686.6</ele></trkpt><trkpt lat="45.822023" lon="9.444052"><time>2024-03-23T11:32:28.000Z</time><ele>686.4</ele></trkpt><trkpt lat="45.822017" lon="9.444048"><time>2024-03-23T11:32:29.000Z</time><ele>686.2</ele></trkpt><trkpt lat="45.82201" lon="9.444043"><time>2024-03-23T11:32:30.000Z</time><ele>686</ele></trkpt><trkpt lat="45.822005" lon="9.44404"><time>2024-03-23T11:32:31.000Z</time><ele>685.8</ele></trkpt><trkpt lat="45.822001" lon="9.444036"><time>2024-03-23T11:32:32.000Z</time><ele>685.6</ele></trkpt><trkpt lat="45.821997" lon="9.444036"><time>2024-03-23T11:32:33.000Z</time><ele>685.4</ele></trkpt><trkpt lat="45.821993" lon="9.444041"><time>2024-03-23T11:32:34.000Z</time><ele>685.4</ele></trkpt><trkpt lat="45.821989" lon="9.444044"><time>2024-03-23T11:32:35.000Z</time><ele>685</ele></trkpt><trkpt lat="45.821983" lon="9.444044"><time>2024-03-23T11:32:36.000Z</time><ele>684.8</ele></trkpt><trkpt lat="45.821975" lon="9.444039"><time>2024-03-23T11:32:37.000Z</time><ele>684.6</ele></trkpt><trkpt lat="45.82197" lon="9.444035"><time>2024-03-23T11:32:38.000Z</time><ele>684.4</ele></trkpt><trkpt lat="45.821966" lon="9.444031"><time>2024-03-23T11:32:39.000Z</time><ele>684.2</ele></trkpt><trkpt lat="45.821965" lon="9.444028"><time>2024-03-23T11:32:40.000Z</time><ele>684.2</ele></trkpt><trkpt lat="45.821962" lon="9.444027"><time>2024-03-23T11:32:41.000Z</time><ele>684</ele></trkpt><trkpt lat="45.821956" lon="9.444017"><time>2024-03-23T11:32:42.000Z</time><ele>684</ele></trkpt><trkpt lat="45.82195" lon="9.44401"><time>2024-03-23T11:32:43.000Z</time><ele>683.8</ele></trkpt><trkpt lat="45.821947" lon="9.444005"><time>2024-03-23T11:32:44.000Z</time><ele>683.6</ele></trkpt><trkpt lat="45.821943" lon="9.444003"><time>2024-03-23T11:32:45.000Z</time><ele>683.4</ele></trkpt><trkpt lat="45.82194" lon="9.444002"><time>2024-03-23T11:32:46.000Z</time><ele>683.4</ele></trkpt><trkpt lat="45.821934" lon="9.443998"><time>2024-03-23T11:32:47.000Z</time><ele>683.2</ele></trkpt><trkpt lat="45.821926" lon="9.443993"><time>2024-03-23T11:32:48.000Z</time><ele>682.8</ele></trkpt><trkpt lat="45.821921" lon="9.443991"><time>2024-03-23T11:32:49.000Z</time><ele>682.6</ele></trkpt><trkpt lat="45.821916" lon="9.44399"><time>2024-03-23T11:32:50.000Z</time><ele>682.4</ele></trkpt><trkpt lat="45.821913" lon="9.443991"><time>2024-03-23T11:32:51.000Z</time><ele>682.2</ele></trkpt><trkpt lat="45.821908" lon="9.443991"><time>2024-03-23T11:32:52.000Z</time><ele>681.8</ele></trkpt><trkpt lat="45.821903" lon="9.443988"><time>2024-03-23T11:32:53.000Z</time><ele>681.6</ele></trkpt><trkpt lat="45.821897" lon="9.443985"><time>2024-03-23T11:32:54.000Z</time><ele>681.4</ele></trkpt><trkpt lat="45.821892" lon="9.443982"><time>2024-03-23T11:32:55.000Z</time><ele>681.2</ele></trkpt><trkpt lat="45.821888" lon="9.443983"><time>2024-03-23T11:32:56.000Z</time><ele>680.8</ele></trkpt><trkpt lat="45.821878" lon="9.443974"><time>2024-03-23T11:32:57.000Z</time><ele>680.8</ele></trkpt><trkpt lat="45.821869" lon="9.443972"><time>2024-03-23T11:32:58.000Z</time><ele>680.6</ele></trkpt><trkpt lat="45.821867" lon="9.44397"><time>2024-03-23T11:32:59.000Z</time><ele>680.6</ele></trkpt><trkpt lat="45.821866" lon="9.443968"><time>2024-03-23T11:33:00.000Z</time><ele>680.4</ele></trkpt><trkpt lat="45.821861" lon="9.443962"><time>2024-03-23T11:33:01.000Z</time><ele>680.2</ele></trkpt><trkpt lat="45.821856" lon="9.443962"><time>2024-03-23T11:33:02.000Z</time><ele>679.8</ele></trkpt><trkpt lat="45.82185" lon="9.443963"><time>2024-03-23T11:33:03.000Z</time><ele>679.6</ele></trkpt><trkpt lat="45.821849" lon="9.443967"><time>2024-03-23T11:33:04.000Z</time><ele>679.4</ele></trkpt><trkpt lat="45.821848" lon="9.443969"><time>2024-03-23T11:33:05.000Z</time><ele>679.4</ele></trkpt><trkpt lat="45.821843" lon="9.443972"><time>2024-03-23T11:33:06.000Z</time><ele>679</ele></trkpt><trkpt lat="45.821839" lon="9.443973"><time>2024-03-23T11:33:07.000Z</time><ele>678.8</ele></trkpt><trkpt lat="45.821829" lon="9.443966"><time>2024-03-23T11:33:08.000Z</time><ele>678.6</ele></trkpt><trkpt lat="45.821825" lon="9.443966"><time>2024-03-23T11:33:09.000Z</time><ele>678.6</ele></trkpt><trkpt lat="45.821825" lon="9.443961"><time>2024-03-23T11:33:10.000Z</time><ele>678.2</ele></trkpt><trkpt lat="45.821827" lon="9.443961"><time>2024-03-23T11:33:11.000Z</time><ele>678</ele></trkpt><trkpt lat="45.821825" lon="9.44396"><time>2024-03-23T11:33:12.000Z</time><ele>677.8</ele></trkpt><trkpt lat="45.821819" lon="9.443951"><time>2024-03-23T11:33:13.000Z</time><ele>677.6</ele></trkpt><trkpt lat="45.821818" lon="9.443951"><time>2024-03-23T11:33:14.000Z</time><ele>677.4</ele></trkpt><trkpt lat="45.821814" lon="9.443953"><time>2024-03-23T11:33:15.000Z</time><ele>677.2</ele></trkpt><trkpt lat="45.821805" lon="9.443949"><time>2024-03-23T11:33:16.000Z</time><ele>676.8</ele></trkpt><trkpt lat="45.821789" lon="9.44394"><time>2024-03-23T11:33:17.000Z</time><ele>676.6</ele></trkpt><trkpt lat="45.821778" lon="9.443933"><time>2024-03-23T11:33:18.000Z</time><ele>676.2</ele></trkpt><trkpt lat="45.821764" lon="9.443928"><time>2024-03-23T11:33:19.000Z</time><ele>676</ele></trkpt><trkpt lat="45.821756" lon="9.443928"><time>2024-03-23T11:33:20.000Z</time><ele>675.8</ele></trkpt><trkpt lat="45.82175" lon="9.443923"><time>2024-03-23T11:33:21.000Z</time><ele>675.8</ele></trkpt><trkpt lat="45.821742" lon="9.443919"><time>2024-03-23T11:33:22.000Z</time><ele>675.6</ele></trkpt><trkpt lat="45.82173" lon="9.443911"><time>2024-03-23T11:33:23.000Z</time><ele>675.6</ele></trkpt><trkpt lat="45.821721" lon="9.443911"><time>2024-03-23T11:33:24.000Z</time><ele>675.4</ele></trkpt><trkpt lat="45.821717" lon="9.443912"><time>2024-03-23T11:33:25.000Z</time><ele>675.2</ele></trkpt><trkpt lat="45.821712" lon="9.443915"><time>2024-03-23T11:33:26.000Z</time><ele>675</ele></trkpt><trkpt lat="45.821706" lon="9.443916"><time>2024-03-23T11:33:27.000Z</time><ele>674.8</ele></trkpt><trkpt lat="45.821697" lon="9.443915"><time>2024-03-23T11:33:28.000Z</time><ele>674.8</ele></trkpt><trkpt lat="45.821689" lon="9.44391"><time>2024-03-23T11:33:29.000Z</time><ele>674.6</ele></trkpt><trkpt lat="45.821682" lon="9.443909"><time>2024-03-23T11:33:30.000Z</time><ele>674.4</ele></trkpt><trkpt lat="45.821676" lon="9.443913"><time>2024-03-23T11:33:31.000Z</time><ele>674.4</ele></trkpt><trkpt lat="45.82167" lon="9.44392"><time>2024-03-23T11:33:32.000Z</time><ele>674.2</ele></trkpt><trkpt lat="45.821663" lon="9.44392"><time>2024-03-23T11:33:33.000Z</time><ele>674</ele></trkpt><trkpt lat="45.821655" lon="9.443918"><time>2024-03-23T11:33:34.000Z</time><ele>673.8</ele></trkpt><trkpt lat="45.821646" lon="9.443918"><time>2024-03-23T11:33:35.000Z</time><ele>673.4</ele></trkpt><trkpt lat="45.821637" lon="9.443919"><time>2024-03-23T11:33:36.000Z</time><ele>673.2</ele></trkpt><trkpt lat="45.82163" lon="9.443919"><time>2024-03-23T11:33:37.000Z</time><ele>673</ele></trkpt><trkpt lat="45.821626" lon="9.443919"><time>2024-03-23T11:33:38.000Z</time><ele>673</ele></trkpt><trkpt lat="45.821622" lon="9.443922"><time>2024-03-23T11:33:39.000Z</time><ele>672.8</ele></trkpt><trkpt lat="45.821618" lon="9.443919"><time>2024-03-23T11:33:40.000Z</time><ele>672.6</ele></trkpt><trkpt lat="45.821617" lon="9.443919"><time>2024-03-23T11:33:41.000Z</time><ele>672.4</ele></trkpt><trkpt lat="45.821616" lon="9.443918"><time>2024-03-23T11:33:42.000Z</time><ele>672.2</ele></trkpt><trkpt lat="45.821615" lon="9.443918"><time>2024-03-23T11:33:43.000Z</time><ele>672</ele></trkpt><trkpt lat="45.821615" lon="9.443923"><time>2024-03-23T11:33:44.000Z</time><ele>672</ele></trkpt><trkpt lat="45.821615" lon="9.443926"><time>2024-03-23T11:33:45.000Z</time><ele>672</ele></trkpt><trkpt lat="45.821612" lon="9.443928"><time>2024-03-23T11:33:46.000Z</time><ele>672</ele></trkpt><trkpt lat="45.821609" lon="9.443929"><time>2024-03-23T11:33:47.000Z</time><ele>672</ele></trkpt><trkpt lat="45.821605" lon="9.443929"><time>2024-03-23T11:33:48.000Z</time><ele>671.8</ele></trkpt><trkpt lat="45.821597" lon="9.443925"><time>2024-03-23T11:33:49.000Z</time><ele>671.8</ele></trkpt><trkpt lat="45.821592" lon="9.443921"><time>2024-03-23T11:33:50.000Z</time><ele>671.8</ele></trkpt><trkpt lat="45.821588" lon="9.443919"><time>2024-03-23T11:33:51.000Z</time><ele>671.6</ele></trkpt><trkpt lat="45.821586" lon="9.443921"><time>2024-03-23T11:33:52.000Z</time><ele>671.6</ele></trkpt><trkpt lat="45.821582" lon="9.443922"><time>2024-03-23T11:33:53.000Z</time><ele>671.6</ele></trkpt><trkpt lat="45.821576" lon="9.443926"><time>2024-03-23T11:33:54.000Z</time><ele>671.4</ele></trkpt><trkpt lat="45.821572" lon="9.443935"><time>2024-03-23T11:33:55.000Z</time><ele>671.4</ele></trkpt><trkpt lat="45.821568" lon="9.443938"><time>2024-03-23T11:33:56.000Z</time><ele>671.2</ele></trkpt><trkpt lat="45.821563" lon="9.443938"><time>2024-03-23T11:33:57.000Z</time><ele>670.8</ele></trkpt><trkpt lat="45.821554" lon="9.443936"><time>2024-03-23T11:33:58.000Z</time><ele>670.6</ele></trkpt><trkpt lat="45.821547" lon="9.44394"><time>2024-03-23T11:33:59.000Z</time><ele>670.4</ele></trkpt><trkpt lat="45.821541" lon="9.443939"><time>2024-03-23T11:34:00.000Z</time><ele>670.2</ele></trkpt><trkpt lat="45.821529" lon="9.443935"><time>2024-03-23T11:34:01.000Z</time><ele>670</ele></trkpt><trkpt lat="45.821518" lon="9.443935"><time>2024-03-23T11:34:02.000Z</time><ele>669.6</ele></trkpt><trkpt lat="45.821508" lon="9.443934"><time>2024-03-23T11:34:03.000Z</time><ele>669.4</ele></trkpt><trkpt lat="45.821499" lon="9.443943"><time>2024-03-23T11:34:04.000Z</time><ele>669.2</ele></trkpt><trkpt lat="45.821494" lon="9.443954"><time>2024-03-23T11:34:05.000Z</time><ele>669</ele></trkpt><trkpt lat="45.821493" lon="9.443957"><time>2024-03-23T11:34:06.000Z</time><ele>669</ele></trkpt><trkpt lat="45.821493" lon="9.44396"><time>2024-03-23T11:34:07.000Z</time><ele>668.8</ele></trkpt><trkpt lat="45.821493" lon="9.443962"><time>2024-03-23T11:34:08.000Z</time><ele>668.8</ele></trkpt><trkpt lat="45.821491" lon="9.443968"><time>2024-03-23T11:34:09.000Z</time><ele>668.8</ele></trkpt><trkpt lat="45.821487" lon="9.443968"><time>2024-03-23T11:34:10.000Z</time><ele>668.6</ele></trkpt><trkpt lat="45.821477" lon="9.443971"><time>2024-03-23T11:34:11.000Z</time><ele>668.6</ele></trkpt><trkpt lat="45.821468" lon="9.443981"><time>2024-03-23T11:34:12.000Z</time><ele>668.6</ele></trkpt><trkpt lat="45.821464" lon="9.443988"><time>2024-03-23T11:34:13.000Z</time><ele>668.6</ele></trkpt><trkpt lat="45.821465" lon="9.44399"><time>2024-03-23T11:34:14.000Z</time><ele>668.6</ele></trkpt><trkpt lat="45.821466" lon="9.443991"><time>2024-03-23T11:34:15.000Z</time><ele>668.6</ele></trkpt><trkpt lat="45.821467" lon="9.44399"><time>2024-03-23T11:34:16.000Z</time><ele>668.6</ele></trkpt><trkpt lat="45.821466" lon="9.443992"><time>2024-03-23T11:34:17.000Z</time><ele>668.6</ele></trkpt><trkpt lat="45.821463" lon="9.443999"><time>2024-03-23T11:34:18.000Z</time><ele>668.6</ele></trkpt><trkpt lat="45.821458" lon="9.444005"><time>2024-03-23T11:34:19.000Z</time><ele>668.6</ele></trkpt><trkpt lat="45.821448" lon="9.444013"><time>2024-03-23T11:34:20.000Z</time><ele>668.4</ele></trkpt><trkpt lat="45.821442" lon="9.444021"><time>2024-03-23T11:34:21.000Z</time><ele>668.2</ele></trkpt><trkpt lat="45.821433" lon="9.444027"><time>2024-03-23T11:34:22.000Z</time><ele>668</ele></trkpt><trkpt lat="45.821425" lon="9.444033"><time>2024-03-23T11:34:23.000Z</time><ele>668</ele></trkpt><trkpt lat="45.82142" lon="9.444038"><time>2024-03-23T11:34:24.000Z</time><ele>667.8</ele></trkpt><trkpt lat="45.821414" lon="9.444044"><time>2024-03-23T11:34:25.000Z</time><ele>667.8</ele></trkpt><trkpt lat="45.82141" lon="9.44405"><time>2024-03-23T11:34:26.000Z</time><ele>667.6</ele></trkpt><trkpt lat="45.821402" lon="9.444056"><time>2024-03-23T11:34:27.000Z</time><ele>667.6</ele></trkpt><trkpt lat="45.821397" lon="9.444058"><time>2024-03-23T11:34:28.000Z</time><ele>667.4</ele></trkpt><trkpt lat="45.821389" lon="9.444058"><time>2024-03-23T11:34:29.000Z</time><ele>667.4</ele></trkpt><trkpt lat="45.821384" lon="9.444061"><time>2024-03-23T11:34:30.000Z</time><ele>667.2</ele></trkpt><trkpt lat="45.821383" lon="9.444069"><time>2024-03-23T11:34:31.000Z</time><ele>667</ele></trkpt><trkpt lat="45.821379" lon="9.444072"><time>2024-03-23T11:34:32.000Z</time><ele>667</ele></trkpt><trkpt lat="45.821376" lon="9.444073"><time>2024-03-23T11:34:33.000Z</time><ele>667</ele></trkpt><trkpt lat="45.821376" lon="9.444072"><time>2024-03-23T11:34:34.000Z</time><ele>666.6</ele></trkpt><trkpt lat="45.821369" lon="9.444061"><time>2024-03-23T11:34:35.000Z</time><ele>666.4</ele></trkpt><trkpt lat="45.821362" lon="9.444053"><time>2024-03-23T11:34:36.000Z</time><ele>666.2</ele></trkpt><trkpt lat="45.821357" lon="9.444049"><time>2024-03-23T11:34:37.000Z</time><ele>666</ele></trkpt><trkpt lat="45.821352" lon="9.444041"><time>2024-03-23T11:34:38.000Z</time><ele>665.8</ele></trkpt><trkpt lat="45.821347" lon="9.444032"><time>2024-03-23T11:34:39.000Z</time><ele>665.6</ele></trkpt><trkpt lat="45.821345" lon="9.444027"><time>2024-03-23T11:34:40.000Z</time><ele>665.6</ele></trkpt><trkpt lat="45.821351" lon="9.444022"><time>2024-03-23T11:34:41.000Z</time><ele>665.4</ele></trkpt><trkpt lat="45.821356" lon="9.444013"><time>2024-03-23T11:34:42.000Z</time><ele>665.2</ele></trkpt><trkpt lat="45.821359" lon="9.444006"><time>2024-03-23T11:34:43.000Z</time><ele>665</ele></trkpt><trkpt lat="45.821363" lon="9.443998"><time>2024-03-23T11:34:44.000Z</time><ele>664.8</ele></trkpt><trkpt lat="45.821364" lon="9.44399"><time>2024-03-23T11:34:45.000Z</time><ele>664.6</ele></trkpt><trkpt lat="45.821367" lon="9.443983"><time>2024-03-23T11:34:46.000Z</time><ele>664.6</ele></trkpt><trkpt lat="45.82137" lon="9.443973"><time>2024-03-23T11:34:47.000Z</time><ele>664.4</ele></trkpt><trkpt lat="45.821375" lon="9.443961"><time>2024-03-23T11:34:48.000Z</time><ele>664</ele></trkpt><trkpt lat="45.821376" lon="9.443953"><time>2024-03-23T11:34:49.000Z</time><ele>663.8</ele></trkpt><trkpt lat="45.821375" lon="9.443948"><time>2024-03-23T11:34:50.000Z</time><ele>663.8</ele></trkpt><trkpt lat="45.821377" lon="9.443943"><time>2024-03-23T11:34:51.000Z</time><ele>663.6</ele></trkpt><trkpt lat="45.821385" lon="9.443937"><time>2024-03-23T11:34:52.000Z</time><ele>663.4</ele></trkpt><trkpt lat="45.821392" lon="9.443927"><time>2024-03-23T11:34:53.000Z</time><ele>663.2</ele></trkpt><trkpt lat="45.821395" lon="9.443914"><time>2024-03-23T11:34:54.000Z</time><ele>663</ele></trkpt><trkpt lat="45.821399" lon="9.443905"><time>2024-03-23T11:34:55.000Z</time><ele>662.8</ele></trkpt><trkpt lat="45.821404" lon="9.443894"><time>2024-03-23T11:34:56.000Z</time><ele>662.4</ele></trkpt><trkpt lat="45.821404" lon="9.443886"><time>2024-03-23T11:34:57.000Z</time><ele>662.2</ele></trkpt><trkpt lat="45.821401" lon="9.443883"><time>2024-03-23T11:34:58.000Z</time><ele>662</ele></trkpt><trkpt lat="45.821396" lon="9.443884"><time>2024-03-23T11:34:59.000Z</time><ele>662</ele></trkpt><trkpt lat="45.821389" lon="9.443886"><time>2024-03-23T11:35:00.000Z</time><ele>661.8</ele></trkpt><trkpt lat="45.821381" lon="9.443893"><time>2024-03-23T11:35:01.000Z</time><ele>661.8</ele></trkpt><trkpt lat="45.821374" lon="9.443899"><time>2024-03-23T11:35:02.000Z</time><ele>661.8</ele></trkpt><trkpt lat="45.821369" lon="9.443908"><time>2024-03-23T11:35:03.000Z</time><ele>661.8</ele></trkpt><trkpt lat="45.821367" lon="9.443913"><time>2024-03-23T11:35:04.000Z</time><ele>661.8</ele></trkpt><trkpt lat="45.821369" lon="9.443915"><time>2024-03-23T11:35:05.000Z</time><ele>662</ele></trkpt><trkpt lat="45.821375" lon="9.443913"><time>2024-03-23T11:35:06.000Z</time><ele>662</ele></trkpt><trkpt lat="45.821383" lon="9.443909"><time>2024-03-23T11:35:07.000Z</time><ele>662.2</ele></trkpt><trkpt lat="45.821389" lon="9.443901"><time>2024-03-23T11:35:08.000Z</time><ele>662.2</ele></trkpt><trkpt lat="45.821401" lon="9.443899"><time>2024-03-23T11:35:09.000Z</time><ele>662.2</ele></trkpt><trkpt lat="45.821407" lon="9.443891"><time>2024-03-23T11:35:10.000Z</time><ele>662.2</ele></trkpt><trkpt lat="45.821419" lon="9.443887"><time>2024-03-23T11:35:11.000Z</time><ele>662.2</ele></trkpt><trkpt lat="45.821427" lon="9.443882"><time>2024-03-23T11:35:12.000Z</time><ele>662.2</ele></trkpt><trkpt lat="45.82144" lon="9.443876"><time>2024-03-23T11:35:13.000Z</time><ele>662</ele></trkpt><trkpt lat="45.82145" lon="9.443865"><time>2024-03-23T11:35:14.000Z</time><ele>661.6</ele></trkpt><trkpt lat="45.821464" lon="9.443858"><time>2024-03-23T11:35:15.000Z</time><ele>661.4</ele></trkpt><trkpt lat="45.821478" lon="9.443861"><time>2024-03-23T11:35:16.000Z</time><ele>661.4</ele></trkpt><trkpt lat="45.821491" lon="9.443857"><time>2024-03-23T11:35:17.000Z</time><ele>661.2</ele></trkpt><trkpt lat="45.821499" lon="9.443857"><time>2024-03-23T11:35:18.000Z</time><ele>661.2</ele></trkpt><trkpt lat="45.8215" lon="9.443858"><time>2024-03-23T11:35:19.000Z</time><ele>661.2</ele></trkpt><trkpt lat="45.821502" lon="9.443856"><time>2024-03-23T11:35:20.000Z</time><ele>661.2</ele></trkpt><trkpt lat="45.821503" lon="9.443856"><time>2024-03-23T11:35:21.000Z</time><ele>661.2</ele></trkpt><trkpt lat="45.821505" lon="9.443859"><time>2024-03-23T11:35:22.000Z</time><ele>661.2</ele></trkpt><trkpt lat="45.821512" lon="9.443863"><time>2024-03-23T11:35:23.000Z</time><ele>661.2</ele></trkpt><trkpt lat="45.821522" lon="9.443861"><time>2024-03-23T11:35:24.000Z</time><ele>661.2</ele></trkpt><trkpt lat="45.821529" lon="9.443857"><time>2024-03-23T11:35:25.000Z</time><ele>661</ele></trkpt><trkpt lat="45.821539" lon="9.443853"><time>2024-03-23T11:35:26.000Z</time><ele>660.8</ele></trkpt><trkpt lat="45.821547" lon="9.443847"><time>2024-03-23T11:35:27.000Z</time><ele>660.8</ele></trkpt><trkpt lat="45.821551" lon="9.443844"><time>2024-03-23T11:35:28.000Z</time><ele>660.6</ele></trkpt><trkpt lat="45.821552" lon="9.44384"><time>2024-03-23T11:35:29.000Z</time><ele>660.6</ele></trkpt><trkpt lat="45.821553" lon="9.443837"><time>2024-03-23T11:35:30.000Z</time><ele>660.6</ele></trkpt><trkpt lat="45.821554" lon="9.443835"><time>2024-03-23T11:35:31.000Z</time><ele>660.6</ele></trkpt><trkpt lat="45.821556" lon="9.443834"><time>2024-03-23T11:35:32.000Z</time><ele>660.6</ele></trkpt><trkpt lat="45.821565" lon="9.443831"><time>2024-03-23T11:35:33.000Z</time><ele>660.6</ele></trkpt><trkpt lat="45.821572" lon="9.443822"><time>2024-03-23T11:35:34.000Z</time><ele>660.6</ele></trkpt><trkpt lat="45.821575" lon="9.44381"><time>2024-03-23T11:35:35.000Z</time><ele>660.6</ele></trkpt><trkpt lat="45.821572" lon="9.4438"><time>2024-03-23T11:35:36.000Z</time><ele>660.8</ele></trkpt><trkpt lat="45.82157" lon="9.443796"><time>2024-03-23T11:35:37.000Z</time><ele>660.8</ele></trkpt><trkpt lat="45.821568" lon="9.443794"><time>2024-03-23T11:35:38.000Z</time><ele>660.8</ele></trkpt><trkpt lat="45.821568" lon="9.443794"><time>2024-03-23T11:35:39.000Z</time><ele>660.8</ele></trkpt><trkpt lat="45.821567" lon="9.443794"><time>2024-03-23T11:35:40.000Z</time><ele>661</ele></trkpt><trkpt lat="45.821567" lon="9.443794"><time>2024-03-23T11:35:41.000Z</time><ele>661</ele></trkpt><trkpt lat="45.821571" lon="9.443784"><time>2024-03-23T11:35:42.000Z</time><ele>661</ele></trkpt><trkpt lat="45.821581" lon="9.443775"><time>2024-03-23T11:35:43.000Z</time><ele>661</ele></trkpt><trkpt lat="45.821592" lon="9.443763"><time>2024-03-23T11:35:44.000Z</time><ele>661</ele></trkpt><trkpt lat="45.8216" lon="9.443751"><time>2024-03-23T11:35:45.000Z</time><ele>661</ele></trkpt><trkpt lat="45.821607" lon="9.443738"><time>2024-03-23T11:35:46.000Z</time><ele>661</ele></trkpt><trkpt lat="45.821616" lon="9.443721"><time>2024-03-23T11:35:47.000Z</time><ele>661</ele></trkpt><trkpt lat="45.821625" lon="9.443709"><time>2024-03-23T11:35:48.000Z</time><ele>661</ele></trkpt><trkpt lat="45.821634" lon="9.4437"><time>2024-03-23T11:35:49.000Z</time><ele>661</ele></trkpt><trkpt lat="45.821648" lon="9.443694"><time>2024-03-23T11:35:50.000Z</time><ele>661</ele></trkpt><trkpt lat="45.821661" lon="9.44369"><time>2024-03-23T11:35:51.000Z</time><ele>661</ele></trkpt><trkpt lat="45.821669" lon="9.443681"><time>2024-03-23T11:35:52.000Z</time><ele>661</ele></trkpt><trkpt lat="45.821686" lon="9.443678"><time>2024-03-23T11:35:53.000Z</time><ele>660.8</ele></trkpt><trkpt lat="45.821703" lon="9.443673"><time>2024-03-23T11:35:54.000Z</time><ele>660.8</ele></trkpt><trkpt lat="45.821711" lon="9.443667"><time>2024-03-23T11:35:55.000Z</time><ele>660.6</ele></trkpt><trkpt lat="45.821716" lon="9.443656"><time>2024-03-23T11:35:56.000Z</time><ele>660.4</ele></trkpt><trkpt lat="45.821723" lon="9.443646"><time>2024-03-23T11:35:57.000Z</time><ele>660.4</ele></trkpt><trkpt lat="45.821735" lon="9.44364"><time>2024-03-23T11:35:58.000Z</time><ele>660.4</ele></trkpt><trkpt lat="45.821744" lon="9.443634"><time>2024-03-23T11:35:59.000Z</time><ele>660.2</ele></trkpt><trkpt lat="45.821752" lon="9.44362"><time>2024-03-23T11:36:00.000Z</time><ele>660.2</ele></trkpt><trkpt lat="45.821759" lon="9.443607"><time>2024-03-23T11:36:01.000Z</time><ele>660</ele></trkpt><trkpt lat="45.821768" lon="9.443596"><time>2024-03-23T11:36:02.000Z</time><ele>660</ele></trkpt><trkpt lat="45.821778" lon="9.443584"><time>2024-03-23T11:36:03.000Z</time><ele>659.8</ele></trkpt><trkpt lat="45.821789" lon="9.443574"><time>2024-03-23T11:36:04.000Z</time><ele>659.8</ele></trkpt><trkpt lat="45.821801" lon="9.44356"><time>2024-03-23T11:36:05.000Z</time><ele>659.4</ele></trkpt><trkpt lat="45.82181" lon="9.443552"><time>2024-03-23T11:36:06.000Z</time><ele>659.4</ele></trkpt><trkpt lat="45.82182" lon="9.443547"><time>2024-03-23T11:36:07.000Z</time><ele>659.2</ele></trkpt><trkpt lat="45.821825" lon="9.443538"><time>2024-03-23T11:36:08.000Z</time><ele>659</ele></trkpt><trkpt lat="45.821833" lon="9.443532"><time>2024-03-23T11:36:09.000Z</time><ele>658.8</ele></trkpt><trkpt lat="45.821844" lon="9.443527"><time>2024-03-23T11:36:10.000Z</time><ele>658.8</ele></trkpt><trkpt lat="45.821853" lon="9.443522"><time>2024-03-23T11:36:11.000Z</time><ele>658.6</ele></trkpt><trkpt lat="45.821863" lon="9.443526"><time>2024-03-23T11:36:12.000Z</time><ele>658.4</ele></trkpt><trkpt lat="45.821878" lon="9.443532"><time>2024-03-23T11:36:13.000Z</time><ele>658.2</ele></trkpt><trkpt lat="45.821887" lon="9.443524"><time>2024-03-23T11:36:14.000Z</time><ele>658</ele></trkpt><trkpt lat="45.821897" lon="9.443519"><time>2024-03-23T11:36:15.000Z</time><ele>658</ele></trkpt><trkpt lat="45.821907" lon="9.443513"><time>2024-03-23T11:36:16.000Z</time><ele>657.8</ele></trkpt><trkpt lat="45.821916" lon="9.443509"><time>2024-03-23T11:36:17.000Z</time><ele>657.8</ele></trkpt><trkpt lat="45.821921" lon="9.443505"><time>2024-03-23T11:36:18.000Z</time><ele>657.6</ele></trkpt><trkpt lat="45.821924" lon="9.443504"><time>2024-03-23T11:36:19.000Z</time><ele>657.6</ele></trkpt><trkpt lat="45.821927" lon="9.44351"><time>2024-03-23T11:36:20.000Z</time><ele>657.4</ele></trkpt><trkpt lat="45.821928" lon="9.443514"><time>2024-03-23T11:36:21.000Z</time><ele>657.4</ele></trkpt><trkpt lat="45.821928" lon="9.443516"><time>2024-03-23T11:36:22.000Z</time><ele>657.4</ele></trkpt><trkpt lat="45.821928" lon="9.443518"><time>2024-03-23T11:36:23.000Z</time><ele>657.2</ele></trkpt><trkpt lat="45.821927" lon="9.443515"><time>2024-03-23T11:36:24.000Z</time><ele>657.2</ele></trkpt><trkpt lat="45.821929" lon="9.443514"><time>2024-03-23T11:36:25.000Z</time><ele>657.2</ele></trkpt><trkpt lat="45.821933" lon="9.443516"><time>2024-03-23T11:36:26.000Z</time><ele>657.2</ele></trkpt><trkpt lat="45.821936" lon="9.443515"><time>2024-03-23T11:36:27.000Z</time><ele>657</ele></trkpt><trkpt lat="45.821936" lon="9.443515"><time>2024-03-23T11:36:28.000Z</time><ele>657</ele></trkpt><trkpt lat="45.821939" lon="9.443518"><time>2024-03-23T11:36:29.000Z</time><ele>657</ele></trkpt><trkpt lat="45.821943" lon="9.443517"><time>2024-03-23T11:36:30.000Z</time><ele>657</ele></trkpt><trkpt lat="45.821951" lon="9.443515"><time>2024-03-23T11:36:31.000Z</time><ele>657</ele></trkpt><trkpt lat="45.821959" lon="9.443513"><time>2024-03-23T11:36:32.000Z</time><ele>656.8</ele></trkpt><trkpt lat="45.821963" lon="9.443511"><time>2024-03-23T11:36:33.000Z</time><ele>656.8</ele></trkpt><trkpt lat="45.821962" lon="9.443488"><time>2024-03-23T11:36:34.000Z</time><ele>657</ele></trkpt><trkpt lat="45.821967" lon="9.443479"><time>2024-03-23T11:36:35.000Z</time><ele>657</ele></trkpt><trkpt lat="45.821982" lon="9.443484"><time>2024-03-23T11:36:36.000Z</time><ele>657</ele></trkpt><trkpt lat="45.821997" lon="9.443487"><time>2024-03-23T11:36:37.000Z</time><ele>656.8</ele></trkpt><trkpt lat="45.822006" lon="9.443489"><time>2024-03-23T11:36:38.000Z</time><ele>656.8</ele></trkpt><trkpt lat="45.82202" lon="9.443478"><time>2024-03-23T11:36:39.000Z</time><ele>656.6</ele></trkpt><trkpt lat="45.822026" lon="9.443459"><time>2024-03-23T11:36:40.000Z</time><ele>656.6</ele></trkpt><trkpt lat="45.822039" lon="9.443456"><time>2024-03-23T11:36:41.000Z</time><ele>656.6</ele></trkpt><trkpt lat="45.822053" lon="9.443456"><time>2024-03-23T11:36:42.000Z</time><ele>656.4</ele></trkpt><trkpt lat="45.822065" lon="9.443456"><time>2024-03-23T11:36:43.000Z</time><ele>656.4</ele></trkpt><trkpt lat="45.822076" lon="9.443457"><time>2024-03-23T11:36:44.000Z</time><ele>656.2</ele></trkpt><trkpt lat="45.822086" lon="9.44345"><time>2024-03-23T11:36:45.000Z</time><ele>656.2</ele></trkpt><trkpt lat="45.822099" lon="9.443449"><time>2024-03-23T11:36:46.000Z</time><ele>656.2</ele></trkpt><trkpt lat="45.82211" lon="9.443451"><time>2024-03-23T11:36:47.000Z</time><ele>656.2</ele></trkpt><trkpt lat="45.822122" lon="9.443453"><time>2024-03-23T11:36:48.000Z</time><ele>656</ele></trkpt><trkpt lat="45.822134" lon="9.443452"><time>2024-03-23T11:36:49.000Z</time><ele>655.8</ele></trkpt><trkpt lat="45.822149" lon="9.443454"><time>2024-03-23T11:36:50.000Z</time><ele>655.8</ele></trkpt><trkpt lat="45.822162" lon="9.443458"><time>2024-03-23T11:36:51.000Z</time><ele>655.6</ele></trkpt><trkpt lat="45.822171" lon="9.443458"><time>2024-03-23T11:36:52.000Z</time><ele>655.6</ele></trkpt><trkpt lat="45.822182" lon="9.443458"><time>2024-03-23T11:36:53.000Z</time><ele>655.4</ele></trkpt><trkpt lat="45.822194" lon="9.443458"><time>2024-03-23T11:36:54.000Z</time><ele>655.4</ele></trkpt><trkpt lat="45.822206" lon="9.443456"><time>2024-03-23T11:36:55.000Z</time><ele>655.2</ele></trkpt><trkpt lat="45.822218" lon="9.443456"><time>2024-03-23T11:36:56.000Z</time><ele>655.2</ele></trkpt><trkpt lat="45.822228" lon="9.443454"><time>2024-03-23T11:36:57.000Z</time><ele>655.2</ele></trkpt><trkpt lat="45.822238" lon="9.443449"><time>2024-03-23T11:36:58.000Z</time><ele>655.2</ele></trkpt><trkpt lat="45.822252" lon="9.443445"><time>2024-03-23T11:36:59.000Z</time><ele>655</ele></trkpt><trkpt lat="45.822266" lon="9.44344"><time>2024-03-23T11:37:00.000Z</time><ele>655</ele></trkpt><trkpt lat="45.822279" lon="9.443441"><time>2024-03-23T11:37:01.000Z</time><ele>655</ele></trkpt><trkpt lat="45.82229" lon="9.44344"><time>2024-03-23T11:37:02.000Z</time><ele>654.8</ele></trkpt><trkpt lat="45.8223" lon="9.443435"><time>2024-03-23T11:37:03.000Z</time><ele>654.8</ele></trkpt><trkpt lat="45.822311" lon="9.443435"><time>2024-03-23T11:37:04.000Z</time><ele>654.8</ele></trkpt><trkpt lat="45.822323" lon="9.443437"><time>2024-03-23T11:37:05.000Z</time><ele>654.6</ele></trkpt><trkpt lat="45.822332" lon="9.443442"><time>2024-03-23T11:37:06.000Z</time><ele>654.6</ele></trkpt><trkpt lat="45.822348" lon="9.443444"><time>2024-03-23T11:37:07.000Z</time><ele>654.4</ele></trkpt><trkpt lat="45.822362" lon="9.443443"><time>2024-03-23T11:37:08.000Z</time><ele>654.4</ele></trkpt><trkpt lat="45.822378" lon="9.443446"><time>2024-03-23T11:37:09.000Z</time><ele>654.2</ele></trkpt><trkpt lat="45.822394" lon="9.443448"><time>2024-03-23T11:37:10.000Z</time><ele>654.2</ele></trkpt><trkpt lat="45.822404" lon="9.443449"><time>2024-03-23T11:37:11.000Z</time><ele>654.2</ele></trkpt><trkpt lat="45.822414" lon="9.443445"><time>2024-03-23T11:37:12.000Z</time><ele>654</ele></trkpt><trkpt lat="45.82243" lon="9.443446"><time>2024-03-23T11:37:13.000Z</time><ele>654</ele></trkpt><trkpt lat="45.822444" lon="9.443445"><time>2024-03-23T11:37:14.000Z</time><ele>653.8</ele></trkpt><trkpt lat="45.822452" lon="9.443438"><time>2024-03-23T11:37:15.000Z</time><ele>653.8</ele></trkpt><trkpt lat="45.822459" lon="9.443428"><time>2024-03-23T11:37:16.000Z</time><ele>653.6</ele></trkpt><trkpt lat="45.822469" lon="9.443417"><time>2024-03-23T11:37:17.000Z</time><ele>653.6</ele></trkpt><trkpt lat="45.822476" lon="9.443411"><time>2024-03-23T11:37:18.000Z</time><ele>653.4</ele></trkpt><trkpt lat="45.822486" lon="9.443402"><time>2024-03-23T11:37:19.000Z</time><ele>653.2</ele></trkpt><trkpt lat="45.822502" lon="9.443399"><time>2024-03-23T11:37:20.000Z</time><ele>653.2</ele></trkpt><trkpt lat="45.82251" lon="9.443391"><time>2024-03-23T11:37:21.000Z</time><ele>653</ele></trkpt><trkpt lat="45.822517" lon="9.443386"><time>2024-03-23T11:37:22.000Z</time><ele>653</ele></trkpt><trkpt lat="45.822526" lon="9.443387"><time>2024-03-23T11:37:23.000Z</time><ele>652.8</ele></trkpt><trkpt lat="45.822538" lon="9.443388"><time>2024-03-23T11:37:24.000Z</time><ele>652.8</ele></trkpt><trkpt lat="45.82255" lon="9.443385"><time>2024-03-23T11:37:25.000Z</time><ele>652.6</ele></trkpt><trkpt lat="45.822562" lon="9.443389"><time>2024-03-23T11:37:26.000Z</time><ele>652.4</ele></trkpt><trkpt lat="45.822577" lon="9.443391"><time>2024-03-23T11:37:27.000Z</time><ele>652.2</ele></trkpt><trkpt lat="45.822592" lon="9.443391"><time>2024-03-23T11:37:28.000Z</time><ele>652.2</ele></trkpt><trkpt lat="45.822602" lon="9.443389"><time>2024-03-23T11:37:29.000Z</time><ele>652</ele></trkpt><trkpt lat="45.822611" lon="9.443387"><time>2024-03-23T11:37:30.000Z</time><ele>651.8</ele></trkpt><trkpt lat="45.822621" lon="9.443388"><time>2024-03-23T11:37:31.000Z</time><ele>651.8</ele></trkpt><trkpt lat="45.822633" lon="9.443387"><time>2024-03-23T11:37:32.000Z</time><ele>651.6</ele></trkpt><trkpt lat="45.822644" lon="9.443387"><time>2024-03-23T11:37:33.000Z</time><ele>651.6</ele></trkpt><trkpt lat="45.822654" lon="9.443383"><time>2024-03-23T11:37:34.000Z</time><ele>651.4</ele></trkpt><trkpt lat="45.822664" lon="9.44338"><time>2024-03-23T11:37:35.000Z</time><ele>651.4</ele></trkpt><trkpt lat="45.822673" lon="9.443378"><time>2024-03-23T11:37:36.000Z</time><ele>651</ele></trkpt><trkpt lat="45.822685" lon="9.44338"><time>2024-03-23T11:37:37.000Z</time><ele>650.8</ele></trkpt><trkpt lat="45.822693" lon="9.443378"><time>2024-03-23T11:37:38.000Z</time><ele>650.8</ele></trkpt><trkpt lat="45.822702" lon="9.443376"><time>2024-03-23T11:37:39.000Z</time><ele>650.6</ele></trkpt><trkpt lat="45.822713" lon="9.443379"><time>2024-03-23T11:37:40.000Z</time><ele>650.4</ele></trkpt><trkpt lat="45.822724" lon="9.44338"><time>2024-03-23T11:37:41.000Z</time><ele>650.4</ele></trkpt><trkpt lat="45.822731" lon="9.44338"><time>2024-03-23T11:37:42.000Z</time><ele>650.2</ele></trkpt><trkpt lat="45.822739" lon="9.443377"><time>2024-03-23T11:37:43.000Z</time><ele>650</ele></trkpt><trkpt lat="45.822747" lon="9.443368"><time>2024-03-23T11:37:44.000Z</time><ele>649.8</ele></trkpt><trkpt lat="45.822756" lon="9.443362"><time>2024-03-23T11:37:45.000Z</time><ele>649.6</ele></trkpt><trkpt lat="45.822762" lon="9.44335"><time>2024-03-23T11:37:46.000Z</time><ele>649.4</ele></trkpt><trkpt lat="45.82277" lon="9.443341"><time>2024-03-23T11:37:47.000Z</time><ele>649.2</ele></trkpt><trkpt lat="45.822778" lon="9.443333"><time>2024-03-23T11:37:48.000Z</time><ele>649</ele></trkpt><trkpt lat="45.822788" lon="9.443325"><time>2024-03-23T11:37:49.000Z</time><ele>649</ele></trkpt><trkpt lat="45.822799" lon="9.443316"><time>2024-03-23T11:37:50.000Z</time><ele>648.8</ele></trkpt><trkpt lat="45.822807" lon="9.443308"><time>2024-03-23T11:37:51.000Z</time><ele>648.4</ele></trkpt><trkpt lat="45.82282" lon="9.443314"><time>2024-03-23T11:37:52.000Z</time><ele>648.4</ele></trkpt><trkpt lat="45.822833" lon="9.443313"><time>2024-03-23T11:37:53.000Z</time><ele>648.2</ele></trkpt><trkpt lat="45.822846" lon="9.443311"><time>2024-03-23T11:37:54.000Z</time><ele>648</ele></trkpt><trkpt lat="45.822857" lon="9.443309"><time>2024-03-23T11:37:55.000Z</time><ele>647.8</ele></trkpt><trkpt lat="45.822867" lon="9.443304"><time>2024-03-23T11:37:56.000Z</time><ele>647.6</ele></trkpt><trkpt lat="45.822877" lon="9.443301"><time>2024-03-23T11:37:57.000Z</time><ele>647.6</ele></trkpt><trkpt lat="45.822889" lon="9.443296"><time>2024-03-23T11:37:58.000Z</time><ele>647.4</ele></trkpt><trkpt lat="45.822899" lon="9.443287"><time>2024-03-23T11:37:59.000Z</time><ele>647.2</ele></trkpt><trkpt lat="45.822908" lon="9.44328"><time>2024-03-23T11:38:00.000Z</time><ele>647</ele></trkpt><trkpt lat="45.822918" lon="9.443275"><time>2024-03-23T11:38:01.000Z</time><ele>646.8</ele></trkpt><trkpt lat="45.822928" lon="9.443274"><time>2024-03-23T11:38:02.000Z</time><ele>646.6</ele></trkpt><trkpt lat="45.822937" lon="9.443268"><time>2024-03-23T11:38:03.000Z</time><ele>646.2</ele></trkpt><trkpt lat="45.822947" lon="9.443263"><time>2024-03-23T11:38:04.000Z</time><ele>646.2</ele></trkpt><trkpt lat="45.822956" lon="9.443257"><time>2024-03-23T11:38:05.000Z</time><ele>646</ele></trkpt><trkpt lat="45.822968" lon="9.443257"><time>2024-03-23T11:38:06.000Z</time><ele>645.8</ele></trkpt><trkpt lat="45.822984" lon="9.443263"><time>2024-03-23T11:38:07.000Z</time><ele>645.6</ele></trkpt><trkpt lat="45.822994" lon="9.44326"><time>2024-03-23T11:38:08.000Z</time><ele>645.6</ele></trkpt><trkpt lat="45.823004" lon="9.443253"><time>2024-03-23T11:38:09.000Z</time><ele>645.2</ele></trkpt><trkpt lat="45.823015" lon="9.443251"><time>2024-03-23T11:38:10.000Z</time><ele>645</ele></trkpt><trkpt lat="45.823027" lon="9.443249"><time>2024-03-23T11:38:11.000Z</time><ele>645</ele></trkpt><trkpt lat="45.823035" lon="9.443242"><time>2024-03-23T11:38:12.000Z</time><ele>644.8</ele></trkpt><trkpt lat="45.823044" lon="9.443231"><time>2024-03-23T11:38:13.000Z</time><ele>644.6</ele></trkpt><trkpt lat="45.823053" lon="9.443225"><time>2024-03-23T11:38:14.000Z</time><ele>644.6</ele></trkpt><trkpt lat="45.823061" lon="9.443215"><time>2024-03-23T11:38:15.000Z</time><ele>644.4</ele></trkpt><trkpt lat="45.823066" lon="9.443206"><time>2024-03-23T11:38:16.000Z</time><ele>644.2</ele></trkpt><trkpt lat="45.823075" lon="9.443197"><time>2024-03-23T11:38:17.000Z</time><ele>644.2</ele></trkpt><trkpt lat="45.823084" lon="9.443192"><time>2024-03-23T11:38:18.000Z</time><ele>644</ele></trkpt><trkpt lat="45.823094" lon="9.443186"><time>2024-03-23T11:38:19.000Z</time><ele>643.8</ele></trkpt><trkpt lat="45.823107" lon="9.443183"><time>2024-03-23T11:38:20.000Z</time><ele>643.6</ele></trkpt><trkpt lat="45.823117" lon="9.443177"><time>2024-03-23T11:38:21.000Z</time><ele>643.4</ele></trkpt><trkpt lat="45.823122" lon="9.443178"><time>2024-03-23T11:38:22.000Z</time><ele>643.2</ele></trkpt><trkpt lat="45.82313" lon="9.443178"><time>2024-03-23T11:38:23.000Z</time><ele>643.2</ele></trkpt><trkpt lat="45.823136" lon="9.443179"><time>2024-03-23T11:38:24.000Z</time><ele>642.8</ele></trkpt><trkpt lat="45.823142" lon="9.443172"><time>2024-03-23T11:38:25.000Z</time><ele>642.6</ele></trkpt><trkpt lat="45.823144" lon="9.443162"><time>2024-03-23T11:38:26.000Z</time><ele>642.4</ele></trkpt><trkpt lat="45.823148" lon="9.443154"><time>2024-03-23T11:38:27.000Z</time><ele>642.4</ele></trkpt><trkpt lat="45.823154" lon="9.443152"><time>2024-03-23T11:38:28.000Z</time><ele>642.4</ele></trkpt><trkpt lat="45.823162" lon="9.443147"><time>2024-03-23T11:38:29.000Z</time><ele>642.2</ele></trkpt><trkpt lat="45.823168" lon="9.443133"><time>2024-03-23T11:38:30.000Z</time><ele>642</ele></trkpt><trkpt lat="45.823178" lon="9.443117"><time>2024-03-23T11:38:31.000Z</time><ele>642</ele></trkpt><trkpt lat="45.823182" lon="9.443104"><time>2024-03-23T11:38:32.000Z</time><ele>642</ele></trkpt><trkpt lat="45.823187" lon="9.443086"><time>2024-03-23T11:38:33.000Z</time><ele>642</ele></trkpt><trkpt lat="45.823197" lon="9.443069"><time>2024-03-23T11:38:34.000Z</time><ele>642</ele></trkpt><trkpt lat="45.823213" lon="9.443058"><time>2024-03-23T11:38:35.000Z</time><ele>641.8</ele></trkpt><trkpt lat="45.823222" lon="9.443045"><time>2024-03-23T11:38:36.000Z</time><ele>641.8</ele></trkpt><trkpt lat="45.823232" lon="9.443038"><time>2024-03-23T11:38:37.000Z</time><ele>641.6</ele></trkpt><trkpt lat="45.823243" lon="9.44303"><time>2024-03-23T11:38:38.000Z</time><ele>641.4</ele></trkpt><trkpt lat="45.823253" lon="9.443019"><time>2024-03-23T11:38:39.000Z</time><ele>641.4</ele></trkpt><trkpt lat="45.823258" lon="9.443014"><time>2024-03-23T11:38:40.000Z</time><ele>641.2</ele></trkpt><trkpt lat="45.823266" lon="9.443002"><time>2024-03-23T11:38:41.000Z</time><ele>641.2</ele></trkpt><trkpt lat="45.823275" lon="9.442989"><time>2024-03-23T11:38:42.000Z</time><ele>641.2</ele></trkpt><trkpt lat="45.823284" lon="9.442977"><time>2024-03-23T11:38:43.000Z</time><ele>641</ele></trkpt><trkpt lat="45.823293" lon="9.442964"><time>2024-03-23T11:38:44.000Z</time><ele>641</ele></trkpt><trkpt lat="45.823304" lon="9.442949"><time>2024-03-23T11:38:45.000Z</time><ele>640.8</ele></trkpt><trkpt lat="45.823312" lon="9.44293"><time>2024-03-23T11:38:46.000Z</time><ele>640.8</ele></trkpt><trkpt lat="45.823322" lon="9.442911"><time>2024-03-23T11:38:47.000Z</time><ele>640.6</ele></trkpt><trkpt lat="45.823328" lon="9.442904"><time>2024-03-23T11:38:48.000Z</time><ele>640.4</ele></trkpt><trkpt lat="45.823334" lon="9.442895"><time>2024-03-23T11:38:49.000Z</time><ele>640.4</ele></trkpt><trkpt lat="45.82334" lon="9.442881"><time>2024-03-23T11:38:50.000Z</time><ele>640.4</ele></trkpt><trkpt lat="45.823343" lon="9.442864"><time>2024-03-23T11:38:51.000Z</time><ele>640.2</ele></trkpt><trkpt lat="45.823349" lon="9.442852"><time>2024-03-23T11:38:52.000Z</time><ele>640.2</ele></trkpt><trkpt lat="45.823358" lon="9.442841"><time>2024-03-23T11:38:53.000Z</time><ele>640.2</ele></trkpt><trkpt lat="45.823366" lon="9.442827"><time>2024-03-23T11:38:54.000Z</time><ele>640.2</ele></trkpt><trkpt lat="45.823376" lon="9.442814"><time>2024-03-23T11:38:55.000Z</time><ele>640.2</ele></trkpt><trkpt lat="45.823388" lon="9.442801"><time>2024-03-23T11:38:56.000Z</time><ele>640</ele></trkpt><trkpt lat="45.823397" lon="9.442788"><time>2024-03-23T11:38:57.000Z</time><ele>640</ele></trkpt><trkpt lat="45.823405" lon="9.442774"><time>2024-03-23T11:38:58.000Z</time><ele>639.8</ele></trkpt><trkpt lat="45.823416" lon="9.44276"><time>2024-03-23T11:38:59.000Z</time><ele>639.8</ele></trkpt><trkpt lat="45.823428" lon="9.442745"><time>2024-03-23T11:39:00.000Z</time><ele>639.8</ele></trkpt><trkpt lat="45.823437" lon="9.442732"><time>2024-03-23T11:39:01.000Z</time><ele>639.8</ele></trkpt><trkpt lat="45.823447" lon="9.442718"><time>2024-03-23T11:39:02.000Z</time><ele>639.6</ele></trkpt><trkpt lat="45.823455" lon="9.442706"><time>2024-03-23T11:39:03.000Z</time><ele>639.6</ele></trkpt><trkpt lat="45.823466" lon="9.442692"><time>2024-03-23T11:39:04.000Z</time><ele>639.6</ele></trkpt><trkpt lat="45.823477" lon="9.442679"><time>2024-03-23T11:39:05.000Z</time><ele>639.6</ele></trkpt><trkpt lat="45.823486" lon="9.442673"><time>2024-03-23T11:39:06.000Z</time><ele>639.6</ele></trkpt><trkpt lat="45.823499" lon="9.442663"><time>2024-03-23T11:39:07.000Z</time><ele>639.4</ele></trkpt><trkpt lat="45.823507" lon="9.442654"><time>2024-03-23T11:39:08.000Z</time><ele>639.4</ele></trkpt><trkpt lat="45.823517" lon="9.442646"><time>2024-03-23T11:39:09.000Z</time><ele>639.4</ele></trkpt><trkpt lat="45.823529" lon="9.442639"><time>2024-03-23T11:39:10.000Z</time><ele>639.4</ele></trkpt><trkpt lat="45.823545" lon="9.442634"><time>2024-03-23T11:39:11.000Z</time><ele>639.6</ele></trkpt><trkpt lat="45.823559" lon="9.442624"><time>2024-03-23T11:39:12.000Z</time><ele>639.6</ele></trkpt><trkpt lat="45.823574" lon="9.442609"><time>2024-03-23T11:39:13.000Z</time><ele>639.6</ele></trkpt><trkpt lat="45.823589" lon="9.442605"><time>2024-03-23T11:39:14.000Z</time><ele>639.6</ele></trkpt><trkpt lat="45.823602" lon="9.442591"><time>2024-03-23T11:39:15.000Z</time><ele>639.6</ele></trkpt><trkpt lat="45.823609" lon="9.44258"><time>2024-03-23T11:39:16.000Z</time><ele>639.8</ele></trkpt><trkpt lat="45.823616" lon="9.44257"><time>2024-03-23T11:39:17.000Z</time><ele>639.8</ele></trkpt><trkpt lat="45.823622" lon="9.442559"><time>2024-03-23T11:39:18.000Z</time><ele>640</ele></trkpt><trkpt lat="45.823625" lon="9.442548"><time>2024-03-23T11:39:19.000Z</time><ele>640</ele></trkpt><trkpt lat="45.82363" lon="9.442535"><time>2024-03-23T11:39:20.000Z</time><ele>640.2</ele></trkpt><trkpt lat="45.823633" lon="9.442521"><time>2024-03-23T11:39:21.000Z</time><ele>640.2</ele></trkpt><trkpt lat="45.823639" lon="9.44251"><time>2024-03-23T11:39:22.000Z</time><ele>640.4</ele></trkpt><trkpt lat="45.823643" lon="9.442499"><time>2024-03-23T11:39:23.000Z</time><ele>640.4</ele></trkpt><trkpt lat="45.823648" lon="9.442486"><time>2024-03-23T11:39:24.000Z</time><ele>640.4</ele></trkpt><trkpt lat="45.82365" lon="9.442473"><time>2024-03-23T11:39:25.000Z</time><ele>640.4</ele></trkpt><trkpt lat="45.823656" lon="9.442456"><time>2024-03-23T11:39:26.000Z</time><ele>640.6</ele></trkpt><trkpt lat="45.823666" lon="9.442446"><time>2024-03-23T11:39:27.000Z</time><ele>640.6</ele></trkpt><trkpt lat="45.823678" lon="9.442441"><time>2024-03-23T11:39:28.000Z</time><ele>640.6</ele></trkpt><trkpt lat="45.823687" lon="9.442435"><time>2024-03-23T11:39:29.000Z</time><ele>640.6</ele></trkpt><trkpt lat="45.823694" lon="9.442427"><time>2024-03-23T11:39:30.000Z</time><ele>640.8</ele></trkpt><trkpt lat="45.823702" lon="9.442417"><time>2024-03-23T11:39:31.000Z</time><ele>641</ele></trkpt><trkpt lat="45.823712" lon="9.442406"><time>2024-03-23T11:39:32.000Z</time><ele>641.2</ele></trkpt><trkpt lat="45.823722" lon="9.442399"><time>2024-03-23T11:39:33.000Z</time><ele>641.4</ele></trkpt><trkpt lat="45.823729" lon="9.44239"><time>2024-03-23T11:39:34.000Z</time><ele>641.6</ele></trkpt><trkpt lat="45.823737" lon="9.442377"><time>2024-03-23T11:39:35.000Z</time><ele>641.8</ele></trkpt><trkpt lat="45.823744" lon="9.442364"><time>2024-03-23T11:39:36.000Z</time><ele>642</ele></trkpt><trkpt lat="45.823749" lon="9.442353"><time>2024-03-23T11:39:37.000Z</time><ele>642.2</ele></trkpt><trkpt lat="45.823754" lon="9.442339"><time>2024-03-23T11:39:38.000Z</time><ele>642.4</ele></trkpt><trkpt lat="45.823758" lon="9.442325"><time>2024-03-23T11:39:39.000Z</time><ele>642.6</ele></trkpt><trkpt lat="45.823758" lon="9.442307"><time>2024-03-23T11:39:40.000Z</time><ele>642.8</ele></trkpt><trkpt lat="45.823755" lon="9.442292"><time>2024-03-23T11:39:41.000Z</time><ele>642.8</ele></trkpt><trkpt lat="45.82375" lon="9.442278"><time>2024-03-23T11:39:42.000Z</time><ele>643</ele></trkpt><trkpt lat="45.823743" lon="9.442269"><time>2024-03-23T11:39:43.000Z</time><ele>643</ele></trkpt><trkpt lat="45.823736" lon="9.44226"><time>2024-03-23T11:39:44.000Z</time><ele>643</ele></trkpt><trkpt lat="45.82373" lon="9.442256"><time>2024-03-23T11:39:45.000Z</time><ele>643.2</ele></trkpt><trkpt lat="45.823722" lon="9.44225"><time>2024-03-23T11:39:46.000Z</time><ele>643.4</ele></trkpt><trkpt lat="45.823712" lon="9.442245"><time>2024-03-23T11:39:47.000Z</time><ele>643.6</ele></trkpt><trkpt lat="45.823701" lon="9.442242"><time>2024-03-23T11:39:48.000Z</time><ele>643.6</ele></trkpt><trkpt lat="45.823693" lon="9.442242"><time>2024-03-23T11:39:49.000Z</time><ele>643.8</ele></trkpt><trkpt lat="45.823682" lon="9.44224"><time>2024-03-23T11:39:50.000Z</time><ele>643.8</ele></trkpt><trkpt lat="45.82367" lon="9.442237"><time>2024-03-23T11:39:51.000Z</time><ele>644</ele></trkpt><trkpt lat="45.82366" lon="9.44223"><time>2024-03-23T11:39:52.000Z</time><ele>644</ele></trkpt><trkpt lat="45.82365" lon="9.442229"><time>2024-03-23T11:39:53.000Z</time><ele>644.2</ele></trkpt><trkpt lat="45.82364" lon="9.442227"><time>2024-03-23T11:39:54.000Z</time><ele>644.4</ele></trkpt><trkpt lat="45.823633" lon="9.44223"><time>2024-03-23T11:39:55.000Z</time><ele>644.6</ele></trkpt><trkpt lat="45.823626" lon="9.44223"><time>2024-03-23T11:39:56.000Z</time><ele>644.8</ele></trkpt><trkpt lat="45.82362" lon="9.442228"><time>2024-03-23T11:39:57.000Z</time><ele>644.8</ele></trkpt><trkpt lat="45.823613" lon="9.442227"><time>2024-03-23T11:39:58.000Z</time><ele>645</ele></trkpt><trkpt lat="45.823605" lon="9.442225"><time>2024-03-23T11:39:59.000Z</time><ele>645</ele></trkpt><trkpt lat="45.823593" lon="9.442224"><time>2024-03-23T11:40:00.000Z</time><ele>645.2</ele></trkpt><trkpt lat="45.823585" lon="9.44222"><time>2024-03-23T11:40:01.000Z</time><ele>645.4</ele></trkpt><trkpt lat="45.823576" lon="9.442223"><time>2024-03-23T11:40:02.000Z</time><ele>645.6</ele></trkpt><trkpt lat="45.823564" lon="9.442227"><time>2024-03-23T11:40:03.000Z</time><ele>645.8</ele></trkpt><trkpt lat="45.82355" lon="9.442229"><time>2024-03-23T11:40:04.000Z</time><ele>645.8</ele></trkpt><trkpt lat="45.823539" lon="9.442231"><time>2024-03-23T11:40:05.000Z</time><ele>646</ele></trkpt><trkpt lat="45.823527" lon="9.442232"><time>2024-03-23T11:40:06.000Z</time><ele>646.2</ele></trkpt><trkpt lat="45.823513" lon="9.442235"><time>2024-03-23T11:40:07.000Z</time><ele>646.4</ele></trkpt><trkpt lat="45.8235" lon="9.442239"><time>2024-03-23T11:40:08.000Z</time><ele>646.6</ele></trkpt><trkpt lat="45.82349" lon="9.442246"><time>2024-03-23T11:40:09.000Z</time><ele>646.8</ele></trkpt><trkpt lat="45.823483" lon="9.44225"><time>2024-03-23T11:40:10.000Z</time><ele>647</ele></trkpt><trkpt lat="45.823471" lon="9.442253"><time>2024-03-23T11:40:11.000Z</time><ele>647</ele></trkpt><trkpt lat="45.823461" lon="9.442253"><time>2024-03-23T11:40:12.000Z</time><ele>647.2</ele></trkpt><trkpt lat="45.823452" lon="9.442259"><time>2024-03-23T11:40:13.000Z</time><ele>647.2</ele></trkpt><trkpt lat="45.823445" lon="9.442267"><time>2024-03-23T11:40:14.000Z</time><ele>647.4</ele></trkpt><trkpt lat="45.823439" lon="9.442279"><time>2024-03-23T11:40:15.000Z</time><ele>647.6</ele></trkpt><trkpt lat="45.823433" lon="9.44229"><time>2024-03-23T11:40:16.000Z</time><ele>647.8</ele></trkpt><trkpt lat="45.823426" lon="9.442295"><time>2024-03-23T11:40:17.000Z</time><ele>648</ele></trkpt><trkpt lat="45.823416" lon="9.442304"><time>2024-03-23T11:40:18.000Z</time><ele>648.2</ele></trkpt><trkpt lat="45.823405" lon="9.442312"><time>2024-03-23T11:40:19.000Z</time><ele>648.2</ele></trkpt><trkpt lat="45.823397" lon="9.442318"><time>2024-03-23T11:40:20.000Z</time><ele>648.4</ele></trkpt><trkpt lat="45.823393" lon="9.442337"><time>2024-03-23T11:40:21.000Z</time><ele>648.4</ele></trkpt><trkpt lat="45.823385" lon="9.44235"><time>2024-03-23T11:40:22.000Z</time><ele>648.6</ele></trkpt><trkpt lat="45.823381" lon="9.442356"><time>2024-03-23T11:40:23.000Z</time><ele>648.8</ele></trkpt><trkpt lat="45.823375" lon="9.44235"><time>2024-03-23T11:40:24.000Z</time><ele>649</ele></trkpt><trkpt lat="45.823366" lon="9.442344"><time>2024-03-23T11:40:25.000Z</time><ele>649.2</ele></trkpt><trkpt lat="45.823356" lon="9.442347"><time>2024-03-23T11:40:26.000Z</time><ele>649.4</ele></trkpt><trkpt lat="45.823345" lon="9.442349"><time>2024-03-23T11:40:27.000Z</time><ele>649.4</ele></trkpt><trkpt lat="45.823332" lon="9.442356"><time>2024-03-23T11:40:28.000Z</time><ele>649.8</ele></trkpt><trkpt lat="45.823317" lon="9.442367"><time>2024-03-23T11:40:29.000Z</time><ele>650</ele></trkpt><trkpt lat="45.823299" lon="9.442378"><time>2024-03-23T11:40:30.000Z</time><ele>650</ele></trkpt><trkpt lat="45.823283" lon="9.442378"><time>2024-03-23T11:40:31.000Z</time><ele>650.2</ele></trkpt><trkpt lat="45.82327" lon="9.442379"><time>2024-03-23T11:40:32.000Z</time><ele>650.4</ele></trkpt><trkpt lat="45.823256" lon="9.442382"><time>2024-03-23T11:40:33.000Z</time><ele>650.4</ele></trkpt><trkpt lat="45.823241" lon="9.442383"><time>2024-03-23T11:40:34.000Z</time><ele>650.6</ele></trkpt><trkpt lat="45.82323" lon="9.442391"><time>2024-03-23T11:40:35.000Z</time><ele>650.6</ele></trkpt><trkpt lat="45.82322" lon="9.442398"><time>2024-03-23T11:40:36.000Z</time><ele>650.8</ele></trkpt><trkpt lat="45.823212" lon="9.442404"><time>2024-03-23T11:40:37.000Z</time><ele>651</ele></trkpt><trkpt lat="45.823201" lon="9.442405"><time>2024-03-23T11:40:38.000Z</time><ele>651</ele></trkpt><trkpt lat="45.823192" lon="9.442405"><time>2024-03-23T11:40:39.000Z</time><ele>651.2</ele></trkpt><trkpt lat="45.823183" lon="9.442405"><time>2024-03-23T11:40:40.000Z</time><ele>651.2</ele></trkpt><trkpt lat="45.823175" lon="9.442402"><time>2024-03-23T11:40:41.000Z</time><ele>651.2</ele></trkpt><trkpt lat="45.823164" lon="9.442401"><time>2024-03-23T11:40:42.000Z</time><ele>651.6</ele></trkpt><trkpt lat="45.823153" lon="9.442402"><time>2024-03-23T11:40:43.000Z</time><ele>651.6</ele></trkpt><trkpt lat="45.82314" lon="9.442406"><time>2024-03-23T11:40:44.000Z</time><ele>651.8</ele></trkpt><trkpt lat="45.823123" lon="9.442422"><time>2024-03-23T11:40:45.000Z</time><ele>651.8</ele></trkpt><trkpt lat="45.82311" lon="9.442432"><time>2024-03-23T11:40:46.000Z</time><ele>652</ele></trkpt><trkpt lat="45.823099" lon="9.442439"><time>2024-03-23T11:40:47.000Z</time><ele>652.2</ele></trkpt><trkpt lat="45.823089" lon="9.442442"><time>2024-03-23T11:40:48.000Z</time><ele>652.2</ele></trkpt><trkpt lat="45.823078" lon="9.442437"><time>2024-03-23T11:40:49.000Z</time><ele>652.2</ele></trkpt><trkpt lat="45.823067" lon="9.442434"><time>2024-03-23T11:40:50.000Z</time><ele>652.4</ele></trkpt><trkpt lat="45.823054" lon="9.44243"><time>2024-03-23T11:40:51.000Z</time><ele>652.4</ele></trkpt><trkpt lat="45.823043" lon="9.442425"><time>2024-03-23T11:40:52.000Z</time><ele>652.6</ele></trkpt><trkpt lat="45.823033" lon="9.442424"><time>2024-03-23T11:40:53.000Z</time><ele>652.8</ele></trkpt><trkpt lat="45.823023" lon="9.442418"><time>2024-03-23T11:40:54.000Z</time><ele>653</ele></trkpt><trkpt lat="45.823009" lon="9.442424"><time>2024-03-23T11:40:55.000Z</time><ele>653.2</ele></trkpt><trkpt lat="45.822997" lon="9.442431"><time>2024-03-23T11:40:56.000Z</time><ele>653.2</ele></trkpt><trkpt lat="45.822984" lon="9.442437"><time>2024-03-23T11:40:57.000Z</time><ele>653.2</ele></trkpt><trkpt lat="45.822975" lon="9.442438"><time>2024-03-23T11:40:58.000Z</time><ele>653.4</ele></trkpt><trkpt lat="45.822971" lon="9.442435"><time>2024-03-23T11:40:59.000Z</time><ele>653.6</ele></trkpt><trkpt lat="45.822961" lon="9.442436"><time>2024-03-23T11:41:00.000Z</time><ele>653.8</ele></trkpt><trkpt lat="45.822952" lon="9.442428"><time>2024-03-23T11:41:01.000Z</time><ele>653.8</ele></trkpt><trkpt lat="45.822943" lon="9.442424"><time>2024-03-23T11:41:02.000Z</time><ele>654</ele></trkpt><trkpt lat="45.822934" lon="9.442421"><time>2024-03-23T11:41:03.000Z</time><ele>654</ele></trkpt><trkpt lat="45.822922" lon="9.442417"><time>2024-03-23T11:41:04.000Z</time><ele>654.2</ele></trkpt><trkpt lat="45.822911" lon="9.442415"><time>2024-03-23T11:41:05.000Z</time><ele>654.4</ele></trkpt><trkpt lat="45.8229" lon="9.442409"><time>2024-03-23T11:41:06.000Z</time><ele>654.6</ele></trkpt><trkpt lat="45.822891" lon="9.442405"><time>2024-03-23T11:41:07.000Z</time><ele>654.6</ele></trkpt><trkpt lat="45.822884" lon="9.442399"><time>2024-03-23T11:41:08.000Z</time><ele>654.8</ele></trkpt><trkpt lat="45.822879" lon="9.442394"><time>2024-03-23T11:41:09.000Z</time><ele>655</ele></trkpt><trkpt lat="45.822873" lon="9.442392"><time>2024-03-23T11:41:10.000Z</time><ele>655.2</ele></trkpt><trkpt lat="45.822862" lon="9.442389"><time>2024-03-23T11:41:11.000Z</time><ele>655.2</ele></trkpt><trkpt lat="45.822853" lon="9.442383"><time>2024-03-23T11:41:12.000Z</time><ele>655.4</ele></trkpt><trkpt lat="45.822843" lon="9.442378"><time>2024-03-23T11:41:13.000Z</time><ele>655.6</ele></trkpt><trkpt lat="45.822838" lon="9.442375"><time>2024-03-23T11:41:14.000Z</time><ele>655.8</ele></trkpt><trkpt lat="45.822831" lon="9.44237"><time>2024-03-23T11:41:15.000Z</time><ele>655.8</ele></trkpt><trkpt lat="45.822824" lon="9.442363"><time>2024-03-23T11:41:16.000Z</time><ele>656</ele></trkpt><trkpt lat="45.82282" lon="9.442355"><time>2024-03-23T11:41:17.000Z</time><ele>656.2</ele></trkpt><trkpt lat="45.822814" lon="9.442348"><time>2024-03-23T11:41:18.000Z</time><ele>656.4</ele></trkpt><trkpt lat="45.82281" lon="9.442338"><time>2024-03-23T11:41:19.000Z</time><ele>656.6</ele></trkpt><trkpt lat="45.822803" lon="9.442327"><time>2024-03-23T11:41:20.000Z</time><ele>656.6</ele></trkpt><trkpt lat="45.822797" lon="9.442321"><time>2024-03-23T11:41:21.000Z</time><ele>657</ele></trkpt><trkpt lat="45.822789" lon="9.442312"><time>2024-03-23T11:41:22.000Z</time><ele>657.2</ele></trkpt><trkpt lat="45.822781" lon="9.442301"><time>2024-03-23T11:41:23.000Z</time><ele>657.4</ele></trkpt><trkpt lat="45.822774" lon="9.442289"><time>2024-03-23T11:41:24.000Z</time><ele>657.6</ele></trkpt><trkpt lat="45.822767" lon="9.442279"><time>2024-03-23T11:41:25.000Z</time><ele>657.8</ele></trkpt><trkpt lat="45.822759" lon="9.442268"><time>2024-03-23T11:41:26.000Z</time><ele>658</ele></trkpt><trkpt lat="45.822752" lon="9.442258"><time>2024-03-23T11:41:27.000Z</time><ele>658</ele></trkpt><trkpt lat="45.822745" lon="9.442248"><time>2024-03-23T11:41:28.000Z</time><ele>658.4</ele></trkpt><trkpt lat="45.822739" lon="9.442238"><time>2024-03-23T11:41:29.000Z</time><ele>658.6</ele></trkpt><trkpt lat="45.822731" lon="9.442231"><time>2024-03-23T11:41:30.000Z</time><ele>658.6</ele></trkpt><trkpt lat="45.822725" lon="9.442226"><time>2024-03-23T11:41:31.000Z</time><ele>658.8</ele></trkpt><trkpt lat="45.822719" lon="9.442218"><time>2024-03-23T11:41:32.000Z</time><ele>659</ele></trkpt><trkpt lat="45.822713" lon="9.442211"><time>2024-03-23T11:41:33.000Z</time><ele>659.2</ele></trkpt><trkpt lat="45.822706" lon="9.4422"><time>2024-03-23T11:41:34.000Z</time><ele>659.6</ele></trkpt><trkpt lat="45.822697" lon="9.44219"><time>2024-03-23T11:41:35.000Z</time><ele>659.8</ele></trkpt><trkpt lat="45.82269" lon="9.442184"><time>2024-03-23T11:41:36.000Z</time><ele>660</ele></trkpt><trkpt lat="45.822683" lon="9.442178"><time>2024-03-23T11:41:37.000Z</time><ele>660.2</ele></trkpt><trkpt lat="45.822674" lon="9.442168"><time>2024-03-23T11:41:38.000Z</time><ele>660.4</ele></trkpt><trkpt lat="45.822664" lon="9.442159"><time>2024-03-23T11:41:39.000Z</time><ele>660.6</ele></trkpt><trkpt lat="45.822655" lon="9.442151"><time>2024-03-23T11:41:40.000Z</time><ele>660.6</ele></trkpt><trkpt lat="45.822648" lon="9.442152"><time>2024-03-23T11:41:41.000Z</time><ele>660.8</ele></trkpt><trkpt lat="45.822641" lon="9.442151"><time>2024-03-23T11:41:42.000Z</time><ele>660.8</ele></trkpt><trkpt lat="45.822633" lon="9.442145"><time>2024-03-23T11:41:43.000Z</time><ele>660.8</ele></trkpt><trkpt lat="45.822622" lon="9.442136"><time>2024-03-23T11:41:44.000Z</time><ele>660.8</ele></trkpt><trkpt lat="45.822608" lon="9.442131"><time>2024-03-23T11:41:45.000Z</time><ele>661</ele></trkpt><trkpt lat="45.822601" lon="9.442127"><time>2024-03-23T11:41:46.000Z</time><ele>661</ele></trkpt><trkpt lat="45.822591" lon="9.442121"><time>2024-03-23T11:41:47.000Z</time><ele>661</ele></trkpt><trkpt lat="45.822582" lon="9.442115"><time>2024-03-23T11:41:48.000Z</time><ele>661</ele></trkpt><trkpt lat="45.822571" lon="9.442105"><time>2024-03-23T11:41:49.000Z</time><ele>661</ele></trkpt><trkpt lat="45.822559" lon="9.442096"><time>2024-03-23T11:41:50.000Z</time><ele>661</ele></trkpt><trkpt lat="45.822548" lon="9.442086"><time>2024-03-23T11:41:51.000Z</time><ele>661</ele></trkpt><trkpt lat="45.822537" lon="9.442077"><time>2024-03-23T11:41:52.000Z</time><ele>661</ele></trkpt><trkpt lat="45.822528" lon="9.442072"><time>2024-03-23T11:41:53.000Z</time><ele>661</ele></trkpt><trkpt lat="45.822518" lon="9.442065"><time>2024-03-23T11:41:54.000Z</time><ele>661</ele></trkpt><trkpt lat="45.822509" lon="9.442056"><time>2024-03-23T11:41:55.000Z</time><ele>661</ele></trkpt><trkpt lat="45.822499" lon="9.442048"><time>2024-03-23T11:41:56.000Z</time><ele>661</ele></trkpt><trkpt lat="45.822488" lon="9.442037"><time>2024-03-23T11:41:57.000Z</time><ele>661</ele></trkpt><trkpt lat="45.822477" lon="9.442025"><time>2024-03-23T11:41:58.000Z</time><ele>661</ele></trkpt><trkpt lat="45.822466" lon="9.442012"><time>2024-03-23T11:41:59.000Z</time><ele>660.8</ele></trkpt><trkpt lat="45.822455" lon="9.442002"><time>2024-03-23T11:42:00.000Z</time><ele>660.6</ele></trkpt><trkpt lat="45.822445" lon="9.441996"><time>2024-03-23T11:42:01.000Z</time><ele>660.6</ele></trkpt><trkpt lat="45.822438" lon="9.441993"><time>2024-03-23T11:42:02.000Z</time><ele>660.6</ele></trkpt><trkpt lat="45.822429" lon="9.441988"><time>2024-03-23T11:42:03.000Z</time><ele>660.4</ele></trkpt><trkpt lat="45.822415" lon="9.441979"><time>2024-03-23T11:42:04.000Z</time><ele>660.4</ele></trkpt><trkpt lat="45.822404" lon="9.441967"><time>2024-03-23T11:42:05.000Z</time><ele>660.4</ele></trkpt><trkpt lat="45.822393" lon="9.441963"><time>2024-03-23T11:42:06.000Z</time><ele>660.2</ele></trkpt><trkpt lat="45.822382" lon="9.441956"><time>2024-03-23T11:42:07.000Z</time><ele>660</ele></trkpt><trkpt lat="45.822371" lon="9.441952"><time>2024-03-23T11:42:08.000Z</time><ele>660</ele></trkpt><trkpt lat="45.82236" lon="9.441949"><time>2024-03-23T11:42:09.000Z</time><ele>659.8</ele></trkpt><trkpt lat="45.82235" lon="9.441943"><time>2024-03-23T11:42:10.000Z</time><ele>659.8</ele></trkpt><trkpt lat="45.822339" lon="9.441936"><time>2024-03-23T11:42:11.000Z</time><ele>659.6</ele></trkpt><trkpt lat="45.822325" lon="9.44193"><time>2024-03-23T11:42:12.000Z</time><ele>659.4</ele></trkpt><trkpt lat="45.822312" lon="9.441927"><time>2024-03-23T11:42:13.000Z</time><ele>659.2</ele></trkpt><trkpt lat="45.822301" lon="9.441925"><time>2024-03-23T11:42:14.000Z</time><ele>659.2</ele></trkpt><trkpt lat="45.82229" lon="9.441922"><time>2024-03-23T11:42:15.000Z</time><ele>659</ele></trkpt><trkpt lat="45.822282" lon="9.44192"><time>2024-03-23T11:42:16.000Z</time><ele>659</ele></trkpt><trkpt lat="45.822273" lon="9.441916"><time>2024-03-23T11:42:17.000Z</time><ele>658.8</ele></trkpt><trkpt lat="45.822263" lon="9.441912"><time>2024-03-23T11:42:18.000Z</time><ele>658.6</ele></trkpt><trkpt lat="45.822252" lon="9.441905"><time>2024-03-23T11:42:19.000Z</time><ele>658.6</ele></trkpt><trkpt lat="45.822243" lon="9.4419"><time>2024-03-23T11:42:20.000Z</time><ele>658.6</ele></trkpt><trkpt lat="45.822234" lon="9.441895"><time>2024-03-23T11:42:21.000Z</time><ele>658.6</ele></trkpt><trkpt lat="45.822225" lon="9.441893"><time>2024-03-23T11:42:22.000Z</time><ele>658.6</ele></trkpt><trkpt lat="45.822214" lon="9.441888"><time>2024-03-23T11:42:23.000Z</time><ele>658.6</ele></trkpt><trkpt lat="45.822206" lon="9.441886"><time>2024-03-23T11:42:24.000Z</time><ele>658.6</ele></trkpt><trkpt lat="45.822197" lon="9.441881"><time>2024-03-23T11:42:25.000Z</time><ele>658.4</ele></trkpt><trkpt lat="45.822185" lon="9.441881"><time>2024-03-23T11:42:26.000Z</time><ele>658</ele></trkpt><trkpt lat="45.822177" lon="9.441887"><time>2024-03-23T11:42:27.000Z</time><ele>657.8</ele></trkpt><trkpt lat="45.822167" lon="9.441888"><time>2024-03-23T11:42:28.000Z</time><ele>657.6</ele></trkpt><trkpt lat="45.822157" lon="9.441889"><time>2024-03-23T11:42:29.000Z</time><ele>657.6</ele></trkpt><trkpt lat="45.822148" lon="9.441885"><time>2024-03-23T11:42:30.000Z</time><ele>657.4</ele></trkpt><trkpt lat="45.822139" lon="9.441885"><time>2024-03-23T11:42:31.000Z</time><ele>657.4</ele></trkpt><trkpt lat="45.822131" lon="9.441886"><time>2024-03-23T11:42:32.000Z</time><ele>657</ele></trkpt><trkpt lat="45.822122" lon="9.441881"><time>2024-03-23T11:42:33.000Z</time><ele>656.8</ele></trkpt><trkpt lat="45.822112" lon="9.441879"><time>2024-03-23T11:42:34.000Z</time><ele>656.6</ele></trkpt><trkpt lat="45.822103" lon="9.441876"><time>2024-03-23T11:42:35.000Z</time><ele>656.4</ele></trkpt><trkpt lat="45.822095" lon="9.441872"><time>2024-03-23T11:42:36.000Z</time><ele>656.4</ele></trkpt><trkpt lat="45.822085" lon="9.441872"><time>2024-03-23T11:42:37.000Z</time><ele>656.4</ele></trkpt><trkpt lat="45.822073" lon="9.44187"><time>2024-03-23T11:42:38.000Z</time><ele>656.2</ele></trkpt><trkpt lat="45.822063" lon="9.441865"><time>2024-03-23T11:42:39.000Z</time><ele>656</ele></trkpt><trkpt lat="45.822052" lon="9.441859"><time>2024-03-23T11:42:40.000Z</time><ele>656</ele></trkpt><trkpt lat="45.822041" lon="9.441853"><time>2024-03-23T11:42:41.000Z</time><ele>655.8</ele></trkpt><trkpt lat="45.822031" lon="9.44185"><time>2024-03-23T11:42:42.000Z</time><ele>655.6</ele></trkpt><trkpt lat="45.82202" lon="9.441846"><time>2024-03-23T11:42:43.000Z</time><ele>655.4</ele></trkpt><trkpt lat="45.822007" lon="9.441845"><time>2024-03-23T11:42:44.000Z</time><ele>655.2</ele></trkpt><trkpt lat="45.821993" lon="9.441841"><time>2024-03-23T11:42:45.000Z</time><ele>655.2</ele></trkpt><trkpt lat="45.821979" lon="9.441848"><time>2024-03-23T11:42:46.000Z</time><ele>655</ele></trkpt><trkpt lat="45.82197" lon="9.441855"><time>2024-03-23T11:42:47.000Z</time><ele>655</ele></trkpt><trkpt lat="45.821961" lon="9.441857"><time>2024-03-23T11:42:48.000Z</time><ele>655</ele></trkpt><trkpt lat="45.821949" lon="9.441851"><time>2024-03-23T11:42:49.000Z</time><ele>655</ele></trkpt><trkpt lat="45.821937" lon="9.441846"><time>2024-03-23T11:42:50.000Z</time><ele>654.8</ele></trkpt><trkpt lat="45.821927" lon="9.441838"><time>2024-03-23T11:42:51.000Z</time><ele>654.4</ele></trkpt><trkpt lat="45.821914" lon="9.441831"><time>2024-03-23T11:42:52.000Z</time><ele>654.2</ele></trkpt><trkpt lat="45.821901" lon="9.441826"><time>2024-03-23T11:42:53.000Z</time><ele>654.2</ele></trkpt><trkpt lat="45.82189" lon="9.441824"><time>2024-03-23T11:42:54.000Z</time><ele>654</ele></trkpt><trkpt lat="45.821878" lon="9.441817"><time>2024-03-23T11:42:55.000Z</time><ele>653.8</ele></trkpt><trkpt lat="45.821867" lon="9.441806"><time>2024-03-23T11:42:56.000Z</time><ele>653.8</ele></trkpt><trkpt lat="45.821862" lon="9.441797"><time>2024-03-23T11:42:57.000Z</time><ele>653.8</ele></trkpt><trkpt lat="45.821851" lon="9.441782"><time>2024-03-23T11:42:58.000Z</time><ele>653.6</ele></trkpt><trkpt lat="45.821845" lon="9.441763"><time>2024-03-23T11:42:59.000Z</time><ele>653.6</ele></trkpt><trkpt lat="45.821841" lon="9.441742"><time>2024-03-23T11:43:00.000Z</time><ele>653.6</ele></trkpt><trkpt lat="45.821838" lon="9.441726"><time>2024-03-23T11:43:01.000Z</time><ele>653.6</ele></trkpt><trkpt lat="45.821833" lon="9.441712"><time>2024-03-23T11:43:02.000Z</time><ele>653.4</ele></trkpt><trkpt lat="45.821829" lon="9.4417"><time>2024-03-23T11:43:03.000Z</time><ele>653.4</ele></trkpt><trkpt lat="45.821827" lon="9.441689"><time>2024-03-23T11:43:04.000Z</time><ele>653.2</ele></trkpt><trkpt lat="45.821828" lon="9.441675"><time>2024-03-23T11:43:05.000Z</time><ele>653</ele></trkpt><trkpt lat="45.821827" lon="9.441659"><time>2024-03-23T11:43:06.000Z</time><ele>652.8</ele></trkpt><trkpt lat="45.821824" lon="9.441646"><time>2024-03-23T11:43:07.000Z</time><ele>652.8</ele></trkpt><trkpt lat="45.821818" lon="9.441634"><time>2024-03-23T11:43:08.000Z</time><ele>652.6</ele></trkpt><trkpt lat="45.821815" lon="9.441622"><time>2024-03-23T11:43:09.000Z</time><ele>652.6</ele></trkpt><trkpt lat="45.821811" lon="9.441606"><time>2024-03-23T11:43:10.000Z</time><ele>652.4</ele></trkpt><trkpt lat="45.821805" lon="9.441585"><time>2024-03-23T11:43:11.000Z</time><ele>652.2</ele></trkpt><trkpt lat="45.821801" lon="9.441568"><time>2024-03-23T11:43:12.000Z</time><ele>652.2</ele></trkpt><trkpt lat="45.821795" lon="9.441553"><time>2024-03-23T11:43:13.000Z</time><ele>652</ele></trkpt><trkpt lat="45.821791" lon="9.441538"><time>2024-03-23T11:43:14.000Z</time><ele>652</ele></trkpt><trkpt lat="45.821786" lon="9.441527"><time>2024-03-23T11:43:15.000Z</time><ele>651.8</ele></trkpt><trkpt lat="45.821782" lon="9.441509"><time>2024-03-23T11:43:16.000Z</time><ele>651.6</ele></trkpt><trkpt lat="45.821778" lon="9.441496"><time>2024-03-23T11:43:17.000Z</time><ele>651.6</ele></trkpt><trkpt lat="45.821774" lon="9.441483"><time>2024-03-23T11:43:18.000Z</time><ele>651.4</ele></trkpt><trkpt lat="45.821772" lon="9.441469"><time>2024-03-23T11:43:19.000Z</time><ele>651.4</ele></trkpt><trkpt lat="45.821768" lon="9.441457"><time>2024-03-23T11:43:20.000Z</time><ele>651.2</ele></trkpt><trkpt lat="45.821762" lon="9.441445"><time>2024-03-23T11:43:21.000Z</time><ele>651.2</ele></trkpt><trkpt lat="45.821755" lon="9.441434"><time>2024-03-23T11:43:22.000Z</time><ele>651</ele></trkpt><trkpt lat="45.821745" lon="9.441425"><time>2024-03-23T11:43:23.000Z</time><ele>651</ele></trkpt><trkpt lat="45.821726" lon="9.441411"><time>2024-03-23T11:43:24.000Z</time><ele>650.8</ele></trkpt><trkpt lat="45.821719" lon="9.441396"><time>2024-03-23T11:43:25.000Z</time><ele>650.8</ele></trkpt><trkpt lat="45.82171" lon="9.441385"><time>2024-03-23T11:43:26.000Z</time><ele>650.8</ele></trkpt><trkpt lat="45.821701" lon="9.441377"><time>2024-03-23T11:43:27.000Z</time><ele>650.8</ele></trkpt><trkpt lat="45.821693" lon="9.441369"><time>2024-03-23T11:43:28.000Z</time><ele>650.8</ele></trkpt><trkpt lat="45.821682" lon="9.441359"><time>2024-03-23T11:43:29.000Z</time><ele>650.6</ele></trkpt><trkpt lat="45.821671" lon="9.44135"><time>2024-03-23T11:43:30.000Z</time><ele>650.6</ele></trkpt><trkpt lat="45.821655" lon="9.441346"><time>2024-03-23T11:43:31.000Z</time><ele>650.4</ele></trkpt><trkpt lat="45.821644" lon="9.441339"><time>2024-03-23T11:43:32.000Z</time><ele>650.4</ele></trkpt><trkpt lat="45.821637" lon="9.441333"><time>2024-03-23T11:43:33.000Z</time><ele>650.4</ele></trkpt><trkpt lat="45.821632" lon="9.441328"><time>2024-03-23T11:43:34.000Z</time><ele>650.4</ele></trkpt><trkpt lat="45.82163" lon="9.44133"><time>2024-03-23T11:43:35.000Z</time><ele>650.4</ele></trkpt><trkpt lat="45.821627" lon="9.441334"><time>2024-03-23T11:43:36.000Z</time><ele>650.2</ele></trkpt><trkpt lat="45.821628" lon="9.441345"><time>2024-03-23T11:43:37.000Z</time><ele>650.2</ele></trkpt><trkpt lat="45.821627" lon="9.441357"><time>2024-03-23T11:43:38.000Z</time><ele>650.2</ele></trkpt><trkpt lat="45.82163" lon="9.441369"><time>2024-03-23T11:43:39.000Z</time><ele>650.2</ele></trkpt><trkpt lat="45.821628" lon="9.441378"><time>2024-03-23T11:43:40.000Z</time><ele>650.2</ele></trkpt><trkpt lat="45.821624" lon="9.441382"><time>2024-03-23T11:43:41.000Z</time><ele>650.2</ele></trkpt><trkpt lat="45.821622" lon="9.441385"><time>2024-03-23T11:43:42.000Z</time><ele>650.2</ele></trkpt><trkpt lat="45.821623" lon="9.441386"><time>2024-03-23T11:43:43.000Z</time><ele>650.4</ele></trkpt><trkpt lat="45.821621" lon="9.441389"><time>2024-03-23T11:43:44.000Z</time><ele>650.4</ele></trkpt><trkpt lat="45.821619" lon="9.441395"><time>2024-03-23T11:43:45.000Z</time><ele>650.4</ele></trkpt><trkpt lat="45.821619" lon="9.441404"><time>2024-03-23T11:43:46.000Z</time><ele>650.4</ele></trkpt><trkpt lat="45.821616" lon="9.441413"><time>2024-03-23T11:43:47.000Z</time><ele>650.4</ele></trkpt><trkpt lat="45.821608" lon="9.441421"><time>2024-03-23T11:43:48.000Z</time><ele>650.4</ele></trkpt><trkpt lat="45.821601" lon="9.441433"><time>2024-03-23T11:43:49.000Z</time><ele>650.4</ele></trkpt><trkpt lat="45.821599" lon="9.441451"><time>2024-03-23T11:43:50.000Z</time><ele>650.4</ele></trkpt><trkpt lat="45.821597" lon="9.441465"><time>2024-03-23T11:43:51.000Z</time><ele>650.6</ele></trkpt><trkpt lat="45.821597" lon="9.44148"><time>2024-03-23T11:43:52.000Z</time><ele>650.6</ele></trkpt><trkpt lat="45.821598" lon="9.441494"><time>2024-03-23T11:43:53.000Z</time><ele>650.8</ele></trkpt><trkpt lat="45.8216" lon="9.441516"><time>2024-03-23T11:43:54.000Z</time><ele>650.8</ele></trkpt><trkpt lat="45.821596" lon="9.441531"><time>2024-03-23T11:43:55.000Z</time><ele>650.8</ele></trkpt><trkpt lat="45.821588" lon="9.441541"><time>2024-03-23T11:43:56.000Z</time><ele>650.8</ele></trkpt><trkpt lat="45.821581" lon="9.441552"><time>2024-03-23T11:43:57.000Z</time><ele>651</ele></trkpt><trkpt lat="45.821576" lon="9.441562"><time>2024-03-23T11:43:58.000Z</time><ele>651</ele></trkpt><trkpt lat="45.82157" lon="9.441573"><time>2024-03-23T11:43:59.000Z</time><ele>651.2</ele></trkpt><trkpt lat="45.821565" lon="9.441585"><time>2024-03-23T11:44:00.000Z</time><ele>651.2</ele></trkpt><trkpt lat="45.821557" lon="9.441599"><time>2024-03-23T11:44:01.000Z</time><ele>651.4</ele></trkpt><trkpt lat="45.821539" lon="9.441611"><time>2024-03-23T11:44:02.000Z</time><ele>651.6</ele></trkpt><trkpt lat="45.821528" lon="9.441618"><time>2024-03-23T11:44:03.000Z</time><ele>651.8</ele></trkpt><trkpt lat="45.82152" lon="9.441627"><time>2024-03-23T11:44:04.000Z</time><ele>651.8</ele></trkpt><trkpt lat="45.821505" lon="9.441638"><time>2024-03-23T11:44:05.000Z</time><ele>652</ele></trkpt><trkpt lat="45.821493" lon="9.441644"><time>2024-03-23T11:44:06.000Z</time><ele>652.2</ele></trkpt><trkpt lat="45.821483" lon="9.441645"><time>2024-03-23T11:44:07.000Z</time><ele>652.4</ele></trkpt><trkpt lat="45.821474" lon="9.441651"><time>2024-03-23T11:44:08.000Z</time><ele>652.4</ele></trkpt><trkpt lat="45.821469" lon="9.441654"><time>2024-03-23T11:44:09.000Z</time><ele>652.6</ele></trkpt><trkpt lat="45.821459" lon="9.441653"><time>2024-03-23T11:44:10.000Z</time><ele>652.6</ele></trkpt><trkpt lat="45.821447" lon="9.441664"><time>2024-03-23T11:44:11.000Z</time><ele>652.8</ele></trkpt><trkpt lat="45.821435" lon="9.44167"><time>2024-03-23T11:44:12.000Z</time><ele>653</ele></trkpt><trkpt lat="45.821424" lon="9.441676"><time>2024-03-23T11:44:13.000Z</time><ele>653</ele></trkpt><trkpt lat="45.821414" lon="9.441678"><time>2024-03-23T11:44:14.000Z</time><ele>653.2</ele></trkpt><trkpt lat="45.821403" lon="9.441678"><time>2024-03-23T11:44:15.000Z</time><ele>653.2</ele></trkpt><trkpt lat="45.821394" lon="9.441681"><time>2024-03-23T11:44:16.000Z</time><ele>653.2</ele></trkpt><trkpt lat="45.821385" lon="9.441683"><time>2024-03-23T11:44:17.000Z</time><ele>653.4</ele></trkpt><trkpt lat="45.821376" lon="9.441686"><time>2024-03-23T11:44:18.000Z</time><ele>653.4</ele></trkpt><trkpt lat="45.82137" lon="9.44169"><time>2024-03-23T11:44:19.000Z</time><ele>653.6</ele></trkpt><trkpt lat="45.821366" lon="9.441693"><time>2024-03-23T11:44:20.000Z</time><ele>653.6</ele></trkpt><trkpt lat="45.821363" lon="9.441693"><time>2024-03-23T11:44:21.000Z</time><ele>653.6</ele></trkpt><trkpt lat="45.82136" lon="9.441694"><time>2024-03-23T11:44:22.000Z</time><ele>653.6</ele></trkpt><trkpt lat="45.821359" lon="9.441696"><time>2024-03-23T11:44:23.000Z</time><ele>653.6</ele></trkpt><trkpt lat="45.821356" lon="9.441698"><time>2024-03-23T11:44:24.000Z</time><ele>653.8</ele></trkpt><trkpt lat="45.821349" lon="9.441698"><time>2024-03-23T11:44:25.000Z</time><ele>653.8</ele></trkpt><trkpt lat="45.821342" lon="9.441702"><time>2024-03-23T11:44:26.000Z</time><ele>653.6</ele></trkpt><trkpt lat="45.821334" lon="9.441706"><time>2024-03-23T11:44:27.000Z</time><ele>653.6</ele></trkpt><trkpt lat="45.821322" lon="9.441709"><time>2024-03-23T11:44:28.000Z</time><ele>653.6</ele></trkpt><trkpt lat="45.821315" lon="9.441709"><time>2024-03-23T11:44:29.000Z</time><ele>653.6</ele></trkpt><trkpt lat="45.821306" lon="9.44171"><time>2024-03-23T11:44:30.000Z</time><ele>653.4</ele></trkpt><trkpt lat="45.821298" lon="9.441715"><time>2024-03-23T11:44:31.000Z</time><ele>653.4</ele></trkpt><trkpt lat="45.82129" lon="9.441721"><time>2024-03-23T11:44:32.000Z</time><ele>653.4</ele></trkpt><trkpt lat="45.821282" lon="9.441728"><time>2024-03-23T11:44:33.000Z</time><ele>653.2</ele></trkpt><trkpt lat="45.821278" lon="9.441742"><time>2024-03-23T11:44:34.000Z</time><ele>653.2</ele></trkpt><trkpt lat="45.82127" lon="9.441749"><time>2024-03-23T11:44:35.000Z</time><ele>653.2</ele></trkpt><trkpt lat="45.821265" lon="9.441754"><time>2024-03-23T11:44:36.000Z</time><ele>653.2</ele></trkpt><trkpt lat="45.821259" lon="9.441758"><time>2024-03-23T11:44:37.000Z</time><ele>653.2</ele></trkpt><trkpt lat="45.821252" lon="9.441764"><time>2024-03-23T11:44:38.000Z</time><ele>653.2</ele></trkpt><trkpt lat="45.821241" lon="9.441765"><time>2024-03-23T11:44:39.000Z</time><ele>653.2</ele></trkpt><trkpt lat="45.821229" lon="9.441767"><time>2024-03-23T11:44:40.000Z</time><ele>653.2</ele></trkpt><trkpt lat="45.821223" lon="9.44177"><time>2024-03-23T11:44:41.000Z</time><ele>653.2</ele></trkpt><trkpt lat="45.821217" lon="9.441775"><time>2024-03-23T11:44:42.000Z</time><ele>653.2</ele></trkpt><trkpt lat="45.821206" lon="9.441782"><time>2024-03-23T11:44:43.000Z</time><ele>653.2</ele></trkpt><trkpt lat="45.821194" lon="9.441791"><time>2024-03-23T11:44:44.000Z</time><ele>653.4</ele></trkpt><trkpt lat="45.821186" lon="9.441798"><time>2024-03-23T11:44:45.000Z</time><ele>653.4</ele></trkpt><trkpt lat="45.821175" lon="9.441808"><time>2024-03-23T11:44:46.000Z</time><ele>653.4</ele></trkpt><trkpt lat="45.821168" lon="9.44182"><time>2024-03-23T11:44:47.000Z</time><ele>653.4</ele></trkpt><trkpt lat="45.821162" lon="9.44183"><time>2024-03-23T11:44:48.000Z</time><ele>653.4</ele></trkpt><trkpt lat="45.821156" lon="9.441836"><time>2024-03-23T11:44:49.000Z</time><ele>653.2</ele></trkpt><trkpt lat="45.821148" lon="9.441842"><time>2024-03-23T11:44:50.000Z</time><ele>653.2</ele></trkpt><trkpt lat="45.821139" lon="9.441841"><time>2024-03-23T11:44:51.000Z</time><ele>653.2</ele></trkpt><trkpt lat="45.821132" lon="9.44184"><time>2024-03-23T11:44:52.000Z</time><ele>653.2</ele></trkpt><trkpt lat="45.821117" lon="9.441827"><time>2024-03-23T11:44:53.000Z</time><ele>653</ele></trkpt><trkpt lat="45.821117" lon="9.441846"><time>2024-03-23T11:44:54.000Z</time><ele>653</ele></trkpt><trkpt lat="45.821113" lon="9.441851"><time>2024-03-23T11:44:55.000Z</time><ele>653</ele></trkpt><trkpt lat="45.821101" lon="9.441858"><time>2024-03-23T11:44:56.000Z</time><ele>653</ele></trkpt><trkpt lat="45.821079" lon="9.441881"><time>2024-03-23T11:44:57.000Z</time><ele>653</ele></trkpt><trkpt lat="45.821067" lon="9.441897"><time>2024-03-23T11:44:58.000Z</time><ele>653.2</ele></trkpt><trkpt lat="45.821061" lon="9.441898"><time>2024-03-23T11:44:59.000Z</time><ele>653.4</ele></trkpt><trkpt lat="45.821054" lon="9.441897"><time>2024-03-23T11:45:00.000Z</time><ele>653.6</ele></trkpt><trkpt lat="45.821047" lon="9.441892"><time>2024-03-23T11:45:01.000Z</time><ele>653.8</ele></trkpt><trkpt lat="45.821036" lon="9.441894"><time>2024-03-23T11:45:02.000Z</time><ele>654</ele></trkpt><trkpt lat="45.821025" lon="9.441895"><time>2024-03-23T11:45:03.000Z</time><ele>654</ele></trkpt><trkpt lat="45.821013" lon="9.441905"><time>2024-03-23T11:45:04.000Z</time><ele>654.2</ele></trkpt><trkpt lat="45.821003" lon="9.441921"><time>2024-03-23T11:45:05.000Z</time><ele>654.2</ele></trkpt><trkpt lat="45.821006" lon="9.441919"><time>2024-03-23T11:45:06.000Z</time><ele>654.4</ele></trkpt><trkpt lat="45.821003" lon="9.441931"><time>2024-03-23T11:45:07.000Z</time><ele>654.6</ele></trkpt><trkpt lat="45.820991" lon="9.441941"><time>2024-03-23T11:45:08.000Z</time><ele>654.6</ele></trkpt><trkpt lat="45.820971" lon="9.441942"><time>2024-03-23T11:45:09.000Z</time><ele>654.8</ele></trkpt><trkpt lat="45.820951" lon="9.441973"><time>2024-03-23T11:45:10.000Z</time><ele>655</ele></trkpt><trkpt lat="45.820942" lon="9.441983"><time>2024-03-23T11:45:11.000Z</time><ele>655</ele></trkpt><trkpt lat="45.820929" lon="9.441983"><time>2024-03-23T11:45:12.000Z</time><ele>655</ele></trkpt><trkpt lat="45.820925" lon="9.441982"><time>2024-03-23T11:45:13.000Z</time><ele>655.2</ele></trkpt><trkpt lat="45.820915" lon="9.441981"><time>2024-03-23T11:45:14.000Z</time><ele>655.2</ele></trkpt><trkpt lat="45.820903" lon="9.441972"><time>2024-03-23T11:45:15.000Z</time><ele>655.2</ele></trkpt><trkpt lat="45.820893" lon="9.441963"><time>2024-03-23T11:45:16.000Z</time><ele>655.4</ele></trkpt><trkpt lat="45.820879" lon="9.441949"><time>2024-03-23T11:45:17.000Z</time><ele>655.4</ele></trkpt><trkpt lat="45.820868" lon="9.441945"><time>2024-03-23T11:45:18.000Z</time><ele>655.2</ele></trkpt><trkpt lat="45.820854" lon="9.441939"><time>2024-03-23T11:45:19.000Z</time><ele>655.2</ele></trkpt><trkpt lat="45.820845" lon="9.441941"><time>2024-03-23T11:45:20.000Z</time><ele>655.2</ele></trkpt><trkpt lat="45.820837" lon="9.441941"><time>2024-03-23T11:45:21.000Z</time><ele>655</ele></trkpt><trkpt lat="45.820823" lon="9.441935"><time>2024-03-23T11:45:22.000Z</time><ele>654.8</ele></trkpt><trkpt lat="45.820809" lon="9.441926"><time>2024-03-23T11:45:23.000Z</time><ele>654.8</ele></trkpt><trkpt lat="45.820796" lon="9.441925"><time>2024-03-23T11:45:24.000Z</time><ele>654.6</ele></trkpt><trkpt lat="45.820784" lon="9.441923"><time>2024-03-23T11:45:25.000Z</time><ele>654.6</ele></trkpt><trkpt lat="45.820774" lon="9.441914"><time>2024-03-23T11:45:26.000Z</time><ele>654.4</ele></trkpt><trkpt lat="45.820761" lon="9.441916"><time>2024-03-23T11:45:27.000Z</time><ele>654.2</ele></trkpt><trkpt lat="45.820752" lon="9.441917"><time>2024-03-23T11:45:28.000Z</time><ele>654.2</ele></trkpt><trkpt lat="45.820738" lon="9.441908"><time>2024-03-23T11:45:29.000Z</time><ele>654.2</ele></trkpt><trkpt lat="45.820725" lon="9.441894"><time>2024-03-23T11:45:30.000Z</time><ele>654.2</ele></trkpt><trkpt lat="45.820713" lon="9.441884"><time>2024-03-23T11:45:31.000Z</time><ele>654.2</ele></trkpt><trkpt lat="45.820706" lon="9.441865"><time>2024-03-23T11:45:32.000Z</time><ele>654.2</ele></trkpt><trkpt lat="45.820693" lon="9.441854"><time>2024-03-23T11:45:33.000Z</time><ele>654.2</ele></trkpt><trkpt lat="45.820682" lon="9.441849"><time>2024-03-23T11:45:34.000Z</time><ele>654.2</ele></trkpt><trkpt lat="45.820669" lon="9.441844"><time>2024-03-23T11:45:35.000Z</time><ele>654.2</ele></trkpt><trkpt lat="45.820656" lon="9.441845"><time>2024-03-23T11:45:36.000Z</time><ele>654.2</ele></trkpt><trkpt lat="45.820649" lon="9.441839"><time>2024-03-23T11:45:37.000Z</time><ele>654.2</ele></trkpt><trkpt lat="45.820639" lon="9.441832"><time>2024-03-23T11:45:38.000Z</time><ele>654.2</ele></trkpt><trkpt lat="45.820628" lon="9.441827"><time>2024-03-23T11:45:39.000Z</time><ele>654.2</ele></trkpt><trkpt lat="45.820618" lon="9.441827"><time>2024-03-23T11:45:40.000Z</time><ele>654.2</ele></trkpt><trkpt lat="45.820607" lon="9.44183"><time>2024-03-23T11:45:41.000Z</time><ele>654.2</ele></trkpt><trkpt lat="45.820595" lon="9.441833"><time>2024-03-23T11:45:42.000Z</time><ele>654.2</ele></trkpt><trkpt lat="45.820584" lon="9.441837"><time>2024-03-23T11:45:43.000Z</time><ele>654.2</ele></trkpt><trkpt lat="45.820571" lon="9.441845"><time>2024-03-23T11:45:44.000Z</time><ele>654.2</ele></trkpt><trkpt lat="45.820558" lon="9.441855"><time>2024-03-23T11:45:45.000Z</time><ele>654.2</ele></trkpt><trkpt lat="45.820546" lon="9.441867"><time>2024-03-23T11:45:46.000Z</time><ele>654.4</ele></trkpt><trkpt lat="45.820538" lon="9.441881"><time>2024-03-23T11:45:47.000Z</time><ele>654.4</ele></trkpt><trkpt lat="45.820532" lon="9.441896"><time>2024-03-23T11:45:48.000Z</time><ele>654.4</ele></trkpt><trkpt lat="45.820525" lon="9.441906"><time>2024-03-23T11:45:49.000Z</time><ele>654.4</ele></trkpt><trkpt lat="45.820518" lon="9.441916"><time>2024-03-23T11:45:50.000Z</time><ele>654.4</ele></trkpt><trkpt lat="45.820515" lon="9.44193"><time>2024-03-23T11:45:51.000Z</time><ele>654.4</ele></trkpt><trkpt lat="45.820515" lon="9.441947"><time>2024-03-23T11:45:52.000Z</time><ele>654.4</ele></trkpt><trkpt lat="45.820512" lon="9.441952"><time>2024-03-23T11:45:53.000Z</time><ele>654.4</ele></trkpt><trkpt lat="45.820514" lon="9.441965"><time>2024-03-23T11:45:54.000Z</time><ele>654.6</ele></trkpt><trkpt lat="45.820523" lon="9.441986"><time>2024-03-23T11:45:55.000Z</time><ele>654.6</ele></trkpt><trkpt lat="45.820534" lon="9.44201"><time>2024-03-23T11:45:56.000Z</time><ele>654.6</ele></trkpt><trkpt lat="45.820535" lon="9.442029"><time>2024-03-23T11:45:57.000Z</time><ele>654.6</ele></trkpt><trkpt lat="45.820535" lon="9.442049"><time>2024-03-23T11:45:58.000Z</time><ele>654.6</ele></trkpt><trkpt lat="45.820533" lon="9.442065"><time>2024-03-23T11:45:59.000Z</time><ele>654.8</ele></trkpt><trkpt lat="45.820532" lon="9.442084"><time>2024-03-23T11:46:00.000Z</time><ele>655</ele></trkpt><trkpt lat="45.820524" lon="9.442102"><time>2024-03-23T11:46:01.000Z</time><ele>655</ele></trkpt><trkpt lat="45.820514" lon="9.442112"><time>2024-03-23T11:46:02.000Z</time><ele>655</ele></trkpt><trkpt lat="45.820504" lon="9.44212"><time>2024-03-23T11:46:03.000Z</time><ele>655</ele></trkpt><trkpt lat="45.820491" lon="9.442129"><time>2024-03-23T11:46:04.000Z</time><ele>655.2</ele></trkpt><trkpt lat="45.820478" lon="9.442141"><time>2024-03-23T11:46:05.000Z</time><ele>655.2</ele></trkpt><trkpt lat="45.820468" lon="9.442149"><time>2024-03-23T11:46:06.000Z</time><ele>655.4</ele></trkpt><trkpt lat="45.820457" lon="9.44215"><time>2024-03-23T11:46:07.000Z</time><ele>655.4</ele></trkpt><trkpt lat="45.820447" lon="9.442147"><time>2024-03-23T11:46:08.000Z</time><ele>655.4</ele></trkpt><trkpt lat="45.82044" lon="9.442147"><time>2024-03-23T11:46:09.000Z</time><ele>655.4</ele></trkpt><trkpt lat="45.820428" lon="9.442146"><time>2024-03-23T11:46:10.000Z</time><ele>655.6</ele></trkpt><trkpt lat="45.820418" lon="9.442159"><time>2024-03-23T11:46:11.000Z</time><ele>655.6</ele></trkpt><trkpt lat="45.820409" lon="9.442166"><time>2024-03-23T11:46:12.000Z</time><ele>655.6</ele></trkpt><trkpt lat="45.820399" lon="9.442174"><time>2024-03-23T11:46:13.000Z</time><ele>655.6</ele></trkpt><trkpt lat="45.820391" lon="9.442176"><time>2024-03-23T11:46:14.000Z</time><ele>655.8</ele></trkpt><trkpt lat="45.820384" lon="9.442179"><time>2024-03-23T11:46:15.000Z</time><ele>655.8</ele></trkpt><trkpt lat="45.820371" lon="9.442195"><time>2024-03-23T11:46:16.000Z</time><ele>655.8</ele></trkpt><trkpt lat="45.820364" lon="9.442188"><time>2024-03-23T11:46:17.000Z</time><ele>655.8</ele></trkpt><trkpt lat="45.820356" lon="9.442187"><time>2024-03-23T11:46:18.000Z</time><ele>656</ele></trkpt><trkpt lat="45.820341" lon="9.442193"><time>2024-03-23T11:46:19.000Z</time><ele>656</ele></trkpt><trkpt lat="45.82033" lon="9.442201"><time>2024-03-23T11:46:20.000Z</time><ele>656</ele></trkpt><trkpt lat="45.820319" lon="9.442208"><time>2024-03-23T11:46:21.000Z</time><ele>656</ele></trkpt><trkpt lat="45.820303" lon="9.442207"><time>2024-03-23T11:46:22.000Z</time><ele>656.2</ele></trkpt><trkpt lat="45.820291" lon="9.442208"><time>2024-03-23T11:46:23.000Z</time><ele>656.4</ele></trkpt><trkpt lat="45.820277" lon="9.442206"><time>2024-03-23T11:46:24.000Z</time><ele>656.4</ele></trkpt><trkpt lat="45.820263" lon="9.442205"><time>2024-03-23T11:46:25.000Z</time><ele>656.4</ele></trkpt><trkpt lat="45.820252" lon="9.442205"><time>2024-03-23T11:46:26.000Z</time><ele>656.6</ele></trkpt><trkpt lat="45.820242" lon="9.442208"><time>2024-03-23T11:46:27.000Z</time><ele>656.8</ele></trkpt><trkpt lat="45.820233" lon="9.442209"><time>2024-03-23T11:46:28.000Z</time><ele>656.8</ele></trkpt><trkpt lat="45.820224" lon="9.44221"><time>2024-03-23T11:46:29.000Z</time><ele>656.8</ele></trkpt><trkpt lat="45.82021" lon="9.442211"><time>2024-03-23T11:46:30.000Z</time><ele>656.8</ele></trkpt><trkpt lat="45.820193" lon="9.442208"><time>2024-03-23T11:46:31.000Z</time><ele>657</ele></trkpt><trkpt lat="45.820178" lon="9.442207"><time>2024-03-23T11:46:32.000Z</time><ele>657</ele></trkpt><trkpt lat="45.820169" lon="9.442211"><time>2024-03-23T11:46:33.000Z</time><ele>657.2</ele></trkpt><trkpt lat="45.82016" lon="9.442217"><time>2024-03-23T11:46:34.000Z</time><ele>657.2</ele></trkpt><trkpt lat="45.820151" lon="9.442222"><time>2024-03-23T11:46:35.000Z</time><ele>657.2</ele></trkpt><trkpt lat="45.820143" lon="9.442226"><time>2024-03-23T11:46:36.000Z</time><ele>657.2</ele></trkpt><trkpt lat="45.820138" lon="9.442225"><time>2024-03-23T11:46:37.000Z</time><ele>657.4</ele></trkpt><trkpt lat="45.820136" lon="9.442225"><time>2024-03-23T11:46:38.000Z</time><ele>657.4</ele></trkpt><trkpt lat="45.820135" lon="9.442225"><time>2024-03-23T11:46:39.000Z</time><ele>657.4</ele></trkpt><trkpt lat="45.820134" lon="9.442225"><time>2024-03-23T11:46:40.000Z</time><ele>657.4</ele></trkpt><trkpt lat="45.820134" lon="9.442224"><time>2024-03-23T11:46:41.000Z</time><ele>657.4</ele></trkpt><trkpt lat="45.820133" lon="9.442224"><time>2024-03-23T11:46:42.000Z</time><ele>657.6</ele></trkpt><trkpt lat="45.820133" lon="9.442224"><time>2024-03-23T11:46:43.000Z</time><ele>657.8</ele></trkpt><trkpt lat="45.820132" lon="9.442224"><time>2024-03-23T11:46:44.000Z</time><ele>657.8</ele></trkpt><trkpt lat="45.820131" lon="9.442225"><time>2024-03-23T11:46:45.000Z</time><ele>657.8</ele></trkpt><trkpt lat="45.820131" lon="9.442224"><time>2024-03-23T11:46:46.000Z</time><ele>657.8</ele></trkpt><trkpt lat="45.820131" lon="9.442225"><time>2024-03-23T11:46:47.000Z</time><ele>658</ele></trkpt><trkpt lat="45.820131" lon="9.442224"><time>2024-03-23T11:46:48.000Z</time><ele>658</ele></trkpt><trkpt lat="45.820129" lon="9.442222"><time>2024-03-23T11:46:49.000Z</time><ele>658</ele></trkpt><trkpt lat="45.820133" lon="9.442224"><time>2024-03-23T11:46:50.000Z</time><ele>658</ele></trkpt><trkpt lat="45.820135" lon="9.442226"><time>2024-03-23T11:46:51.000Z</time><ele>658</ele></trkpt><trkpt lat="45.820137" lon="9.442225"><time>2024-03-23T11:46:52.000Z</time><ele>658</ele></trkpt><trkpt lat="45.820138" lon="9.442226"><time>2024-03-23T11:46:53.000Z</time><ele>658</ele></trkpt><trkpt lat="45.820138" lon="9.442224"><time>2024-03-23T11:46:54.000Z</time><ele>658</ele></trkpt><trkpt lat="45.820137" lon="9.442224"><time>2024-03-23T11:46:55.000Z</time><ele>658.2</ele></trkpt><trkpt lat="45.820137" lon="9.442225"><time>2024-03-23T11:46:56.000Z</time><ele>658.2</ele></trkpt><trkpt lat="45.820139" lon="9.442228"><time>2024-03-23T11:46:57.000Z</time><ele>658.2</ele></trkpt><trkpt lat="45.820139" lon="9.442228"><time>2024-03-23T11:46:58.000Z</time><ele>658.2</ele></trkpt><trkpt lat="45.820139" lon="9.442229"><time>2024-03-23T11:46:59.000Z</time><ele>658.2</ele></trkpt><trkpt lat="45.82014" lon="9.44223"><time>2024-03-23T11:47:00.000Z</time><ele>658.2</ele></trkpt><trkpt lat="45.820142" lon="9.442237"><time>2024-03-23T11:47:01.000Z</time><ele>658</ele></trkpt><trkpt lat="45.820144" lon="9.442239"><time>2024-03-23T11:47:02.000Z</time><ele>658</ele></trkpt><trkpt lat="45.820146" lon="9.442239"><time>2024-03-23T11:47:03.000Z</time><ele>658</ele></trkpt><trkpt lat="45.820143" lon="9.442239"><time>2024-03-23T11:47:04.000Z</time><ele>658</ele></trkpt><trkpt lat="45.820144" lon="9.442241"><time>2024-03-23T11:47:05.000Z</time><ele>658</ele></trkpt><trkpt lat="45.820146" lon="9.44224"><time>2024-03-23T11:47:06.000Z</time><ele>658</ele></trkpt><trkpt lat="45.820147" lon="9.44224"><time>2024-03-23T11:47:07.000Z</time><ele>658</ele></trkpt><trkpt lat="45.820146" lon="9.44224"><time>2024-03-23T11:47:08.000Z</time><ele>658</ele></trkpt><trkpt lat="45.820146" lon="9.44224"><time>2024-03-23T11:47:09.000Z</time><ele>658</ele></trkpt><trkpt lat="45.820146" lon="9.44224"><time>2024-03-23T11:47:10.000Z</time><ele>658</ele></trkpt><trkpt lat="45.820146" lon="9.44224"><time>2024-03-23T11:47:11.000Z</time><ele>658</ele></trkpt><trkpt lat="45.820146" lon="9.44224"><time>2024-03-23T11:47:12.000Z</time><ele>658</ele></trkpt><trkpt lat="45.820146" lon="9.44224"><time>2024-03-23T11:47:13.000Z</time><ele>658</ele></trkpt><trkpt lat="45.820146" lon="9.44224"><time>2024-03-23T11:47:14.000Z</time><ele>658</ele></trkpt><trkpt lat="45.820146" lon="9.44224"><time>2024-03-23T11:47:15.000Z</time><ele>658</ele></trkpt><trkpt lat="45.820146" lon="9.44224"><time>2024-03-23T11:47:16.000Z</time><ele>658</ele></trkpt><trkpt lat="45.820146" lon="9.44224"><time>2024-03-23T11:47:17.000Z</time><ele>658</ele></trkpt><trkpt lat="45.820146" lon="9.44224"><time>2024-03-23T11:47:18.000Z</time><ele>658</ele></trkpt><trkpt lat="45.820146" lon="9.44224"><time>2024-03-23T11:47:19.000Z</time><ele>658</ele></trkpt><trkpt lat="45.820146" lon="9.44224"><time>2024-03-23T11:47:20.000Z</time><ele>658</ele></trkpt><trkpt lat="45.820146" lon="9.442239"><time>2024-03-23T11:47:21.000Z</time><ele>658</ele></trkpt><trkpt lat="45.820146" lon="9.442239"><time>2024-03-23T11:47:22.000Z</time><ele>658</ele></trkpt><trkpt lat="45.820146" lon="9.442239"><time>2024-03-23T11:47:23.000Z</time><ele>658</ele></trkpt><trkpt lat="45.820146" lon="9.442239"><time>2024-03-23T11:47:24.000Z</time><ele>658</ele></trkpt><trkpt lat="45.820146" lon="9.442239"><time>2024-03-23T11:47:25.000Z</time><ele>658</ele></trkpt><trkpt lat="45.820146" lon="9.442239"><time>2024-03-23T11:47:26.000Z</time><ele>658</ele></trkpt><trkpt lat="45.820142" lon="9.442236"><time>2024-03-23T11:47:27.000Z</time><ele>658</ele></trkpt><trkpt lat="45.820127" lon="9.442235"><time>2024-03-23T11:47:28.000Z</time><ele>658</ele></trkpt><trkpt lat="45.820117" lon="9.442226"><time>2024-03-23T11:47:29.000Z</time><ele>658</ele></trkpt><trkpt lat="45.820101" lon="9.442223"><time>2024-03-23T11:47:30.000Z</time><ele>658</ele></trkpt><trkpt lat="45.820083" lon="9.442223"><time>2024-03-23T11:47:31.000Z</time><ele>658</ele></trkpt><trkpt lat="45.820058" lon="9.44224"><time>2024-03-23T11:47:32.000Z</time><ele>658</ele></trkpt><trkpt lat="45.820036" lon="9.442255"><time>2024-03-23T11:47:33.000Z</time><ele>658</ele></trkpt><trkpt lat="45.820016" lon="9.442264"><time>2024-03-23T11:47:34.000Z</time><ele>658</ele></trkpt><trkpt lat="45.819995" lon="9.442267"><time>2024-03-23T11:47:35.000Z</time><ele>658</ele></trkpt><trkpt lat="45.819977" lon="9.44226"><time>2024-03-23T11:47:36.000Z</time><ele>658</ele></trkpt><trkpt lat="45.819966" lon="9.44225"><time>2024-03-23T11:47:37.000Z</time><ele>658</ele></trkpt><trkpt lat="45.819954" lon="9.442244"><time>2024-03-23T11:47:38.000Z</time><ele>658.6</ele></trkpt><trkpt lat="45.819942" lon="9.442239"><time>2024-03-23T11:47:39.000Z</time><ele>659</ele></trkpt><trkpt lat="45.819931" lon="9.442238"><time>2024-03-23T11:47:40.000Z</time><ele>659.4</ele></trkpt><trkpt lat="45.819919" lon="9.44224"><time>2024-03-23T11:47:41.000Z</time><ele>659.8</ele></trkpt><trkpt lat="45.819912" lon="9.442244"><time>2024-03-23T11:47:42.000Z</time><ele>660</ele></trkpt><trkpt lat="45.819904" lon="9.442247"><time>2024-03-23T11:47:43.000Z</time><ele>660</ele></trkpt><trkpt lat="45.819894" lon="9.442249"><time>2024-03-23T11:47:44.000Z</time><ele>660.2</ele></trkpt><trkpt lat="45.819882" lon="9.442249"><time>2024-03-23T11:47:45.000Z</time><ele>660.2</ele></trkpt><trkpt lat="45.819873" lon="9.442248"><time>2024-03-23T11:47:46.000Z</time><ele>660.4</ele></trkpt><trkpt lat="45.819861" lon="9.442253"><time>2024-03-23T11:47:47.000Z</time><ele>660.4</ele></trkpt><trkpt lat="45.819849" lon="9.442259"><time>2024-03-23T11:47:48.000Z</time><ele>660.6</ele></trkpt><trkpt lat="45.819838" lon="9.442261"><time>2024-03-23T11:47:49.000Z</time><ele>660.6</ele></trkpt><trkpt lat="45.819825" lon="9.442258"><time>2024-03-23T11:47:50.000Z</time><ele>660.6</ele></trkpt><trkpt lat="45.819813" lon="9.442259"><time>2024-03-23T11:47:51.000Z</time><ele>660.6</ele></trkpt><trkpt lat="45.819803" lon="9.442265"><time>2024-03-23T11:47:52.000Z</time><ele>660.8</ele></trkpt><trkpt lat="45.819794" lon="9.442272"><time>2024-03-23T11:47:53.000Z</time><ele>660.8</ele></trkpt><trkpt lat="45.819785" lon="9.442278"><time>2024-03-23T11:47:54.000Z</time><ele>661</ele></trkpt><trkpt lat="45.819775" lon="9.442283"><time>2024-03-23T11:47:55.000Z</time><ele>661</ele></trkpt><trkpt lat="45.819762" lon="9.44229"><time>2024-03-23T11:47:56.000Z</time><ele>661</ele></trkpt><trkpt lat="45.819751" lon="9.442296"><time>2024-03-23T11:47:57.000Z</time><ele>661</ele></trkpt><trkpt lat="45.819735" lon="9.442294"><time>2024-03-23T11:47:58.000Z</time><ele>661</ele></trkpt><trkpt lat="45.819721" lon="9.442291"><time>2024-03-23T11:47:59.000Z</time><ele>661</ele></trkpt><trkpt lat="45.819708" lon="9.442285"><time>2024-03-23T11:48:00.000Z</time><ele>661</ele></trkpt><trkpt lat="45.819696" lon="9.442281"><time>2024-03-23T11:48:01.000Z</time><ele>661</ele></trkpt><trkpt lat="45.819682" lon="9.442279"><time>2024-03-23T11:48:02.000Z</time><ele>661</ele></trkpt><trkpt lat="45.819667" lon="9.44228"><time>2024-03-23T11:48:03.000Z</time><ele>661</ele></trkpt><trkpt lat="45.819657" lon="9.442282"><time>2024-03-23T11:48:04.000Z</time><ele>661</ele></trkpt><trkpt lat="45.819649" lon="9.442282"><time>2024-03-23T11:48:05.000Z</time><ele>661</ele></trkpt><trkpt lat="45.81963" lon="9.442289"><time>2024-03-23T11:48:06.000Z</time><ele>661</ele></trkpt><trkpt lat="45.819613" lon="9.4423"><time>2024-03-23T11:48:07.000Z</time><ele>661</ele></trkpt><trkpt lat="45.819604" lon="9.442309"><time>2024-03-23T11:48:08.000Z</time><ele>661</ele></trkpt><trkpt lat="45.8196" lon="9.442316"><time>2024-03-23T11:48:09.000Z</time><ele>661</ele></trkpt><trkpt lat="45.819592" lon="9.442326"><time>2024-03-23T11:48:10.000Z</time><ele>661</ele></trkpt><trkpt lat="45.819581" lon="9.442327"><time>2024-03-23T11:48:11.000Z</time><ele>661</ele></trkpt><trkpt lat="45.819568" lon="9.442337"><time>2024-03-23T11:48:12.000Z</time><ele>661</ele></trkpt><trkpt lat="45.81955" lon="9.442347"><time>2024-03-23T11:48:13.000Z</time><ele>661</ele></trkpt><trkpt lat="45.819537" lon="9.442358"><time>2024-03-23T11:48:14.000Z</time><ele>661</ele></trkpt><trkpt lat="45.819523" lon="9.442366"><time>2024-03-23T11:48:15.000Z</time><ele>661.2</ele></trkpt><trkpt lat="45.819513" lon="9.442372"><time>2024-03-23T11:48:16.000Z</time><ele>661.2</ele></trkpt><trkpt lat="45.819503" lon="9.442382"><time>2024-03-23T11:48:17.000Z</time><ele>661.2</ele></trkpt><trkpt lat="45.819494" lon="9.442386"><time>2024-03-23T11:48:18.000Z</time><ele>661.4</ele></trkpt><trkpt lat="45.819486" lon="9.442386"><time>2024-03-23T11:48:19.000Z</time><ele>661.4</ele></trkpt><trkpt lat="45.81948" lon="9.442388"><time>2024-03-23T11:48:20.000Z</time><ele>661.6</ele></trkpt><trkpt lat="45.819471" lon="9.442388"><time>2024-03-23T11:48:21.000Z</time><ele>661.6</ele></trkpt><trkpt lat="45.81946" lon="9.442385"><time>2024-03-23T11:48:22.000Z</time><ele>661.6</ele></trkpt><trkpt lat="45.819452" lon="9.442388"><time>2024-03-23T11:48:23.000Z</time><ele>661.6</ele></trkpt><trkpt lat="45.819443" lon="9.442395"><time>2024-03-23T11:48:24.000Z</time><ele>661.6</ele></trkpt><trkpt lat="45.819433" lon="9.442402"><time>2024-03-23T11:48:25.000Z</time><ele>661.8</ele></trkpt><trkpt lat="45.819421" lon="9.442407"><time>2024-03-23T11:48:26.000Z</time><ele>662</ele></trkpt><trkpt lat="45.819405" lon="9.442415"><time>2024-03-23T11:48:27.000Z</time><ele>662</ele></trkpt><trkpt lat="45.819391" lon="9.442419"><time>2024-03-23T11:48:28.000Z</time><ele>662.2</ele></trkpt><trkpt lat="45.819385" lon="9.442416"><time>2024-03-23T11:48:29.000Z</time><ele>662.2</ele></trkpt><trkpt lat="45.819375" lon="9.442417"><time>2024-03-23T11:48:30.000Z</time><ele>662.4</ele></trkpt><trkpt lat="45.819362" lon="9.442419"><time>2024-03-23T11:48:31.000Z</time><ele>662.6</ele></trkpt><trkpt lat="45.819353" lon="9.442419"><time>2024-03-23T11:48:32.000Z</time><ele>662.8</ele></trkpt><trkpt lat="45.819341" lon="9.442418"><time>2024-03-23T11:48:33.000Z</time><ele>662.8</ele></trkpt><trkpt lat="45.819336" lon="9.442415"><time>2024-03-23T11:48:34.000Z</time><ele>662.8</ele></trkpt><trkpt lat="45.819336" lon="9.442414"><time>2024-03-23T11:48:35.000Z</time><ele>663</ele></trkpt><trkpt lat="45.819337" lon="9.442417"><time>2024-03-23T11:48:36.000Z</time><ele>663.2</ele></trkpt><trkpt lat="45.819336" lon="9.442418"><time>2024-03-23T11:48:37.000Z</time><ele>663.4</ele></trkpt><trkpt lat="45.819336" lon="9.442416"><time>2024-03-23T11:48:38.000Z</time><ele>663.4</ele></trkpt><trkpt lat="45.819336" lon="9.442415"><time>2024-03-23T11:48:39.000Z</time><ele>663.4</ele></trkpt><trkpt lat="45.819341" lon="9.442411"><time>2024-03-23T11:48:40.000Z</time><ele>663.6</ele></trkpt><trkpt lat="45.819346" lon="9.442406"><time>2024-03-23T11:48:41.000Z</time><ele>663.6</ele></trkpt><trkpt lat="45.819346" lon="9.442401"><time>2024-03-23T11:48:42.000Z</time><ele>663.6</ele></trkpt><trkpt lat="45.819346" lon="9.442399"><time>2024-03-23T11:48:43.000Z</time><ele>663.6</ele></trkpt><trkpt lat="45.819346" lon="9.442399"><time>2024-03-23T11:48:44.000Z</time><ele>663.8</ele></trkpt><trkpt lat="45.819343" lon="9.442397"><time>2024-03-23T11:48:45.000Z</time><ele>663.8</ele></trkpt><trkpt lat="45.819338" lon="9.442407"><time>2024-03-23T11:48:46.000Z</time><ele>663.8</ele></trkpt><trkpt lat="45.819339" lon="9.442404"><time>2024-03-23T11:48:47.000Z</time><ele>663.8</ele></trkpt><trkpt lat="45.819341" lon="9.442404"><time>2024-03-23T11:48:48.000Z</time><ele>663.8</ele></trkpt><trkpt lat="45.819342" lon="9.442406"><time>2024-03-23T11:48:49.000Z</time><ele>663.8</ele></trkpt><trkpt lat="45.819341" lon="9.442415"><time>2024-03-23T11:48:50.000Z</time><ele>663.8</ele></trkpt><trkpt lat="45.819335" lon="9.442421"><time>2024-03-23T11:48:51.000Z</time><ele>663.8</ele></trkpt><trkpt lat="45.819333" lon="9.442419"><time>2024-03-23T11:48:52.000Z</time><ele>663.8</ele></trkpt><trkpt lat="45.819331" lon="9.442417"><time>2024-03-23T11:48:53.000Z</time><ele>663.8</ele></trkpt><trkpt lat="45.819328" lon="9.442418"><time>2024-03-23T11:48:54.000Z</time><ele>664</ele></trkpt><trkpt lat="45.819322" lon="9.442424"><time>2024-03-23T11:48:55.000Z</time><ele>664.2</ele></trkpt><trkpt lat="45.819314" lon="9.442432"><time>2024-03-23T11:48:56.000Z</time><ele>664.2</ele></trkpt><trkpt lat="45.819303" lon="9.442438"><time>2024-03-23T11:48:57.000Z</time><ele>664.4</ele></trkpt><trkpt lat="45.819293" lon="9.442443"><time>2024-03-23T11:48:58.000Z</time><ele>664.4</ele></trkpt><trkpt lat="45.819286" lon="9.442446"><time>2024-03-23T11:48:59.000Z</time><ele>664.6</ele></trkpt><trkpt lat="45.819276" lon="9.442448"><time>2024-03-23T11:49:00.000Z</time><ele>664.6</ele></trkpt><trkpt lat="45.819263" lon="9.442446"><time>2024-03-23T11:49:01.000Z</time><ele>664.8</ele></trkpt><trkpt lat="45.819253" lon="9.44245"><time>2024-03-23T11:49:02.000Z</time><ele>664.8</ele></trkpt><trkpt lat="45.819245" lon="9.442455"><time>2024-03-23T11:49:03.000Z</time><ele>665</ele></trkpt><trkpt lat="45.819236" lon="9.442458"><time>2024-03-23T11:49:04.000Z</time><ele>665</ele></trkpt><trkpt lat="45.819228" lon="9.442462"><time>2024-03-23T11:49:05.000Z</time><ele>665.2</ele></trkpt><trkpt lat="45.819216" lon="9.442464"><time>2024-03-23T11:49:06.000Z</time><ele>665.2</ele></trkpt><trkpt lat="45.819204" lon="9.442465"><time>2024-03-23T11:49:07.000Z</time><ele>665.4</ele></trkpt><trkpt lat="45.819189" lon="9.442465"><time>2024-03-23T11:49:08.000Z</time><ele>665.4</ele></trkpt><trkpt lat="45.819174" lon="9.442467"><time>2024-03-23T11:49:09.000Z</time><ele>665.6</ele></trkpt><trkpt lat="45.819163" lon="9.442471"><time>2024-03-23T11:49:10.000Z</time><ele>665.8</ele></trkpt><trkpt lat="45.81916" lon="9.44247"><time>2024-03-23T11:49:11.000Z</time><ele>666</ele></trkpt><trkpt lat="45.81915" lon="9.44248"><time>2024-03-23T11:49:12.000Z</time><ele>666.2</ele></trkpt><trkpt lat="45.819133" lon="9.442492"><time>2024-03-23T11:49:13.000Z</time><ele>666.4</ele></trkpt><trkpt lat="45.819119" lon="9.442506"><time>2024-03-23T11:49:14.000Z</time><ele>666.6</ele></trkpt><trkpt lat="45.8191" lon="9.442513"><time>2024-03-23T11:49:15.000Z</time><ele>666.6</ele></trkpt><trkpt lat="45.819087" lon="9.442521"><time>2024-03-23T11:49:16.000Z</time><ele>666.8</ele></trkpt><trkpt lat="45.819074" lon="9.442526"><time>2024-03-23T11:49:17.000Z</time><ele>666.8</ele></trkpt><trkpt lat="45.819057" lon="9.442533"><time>2024-03-23T11:49:18.000Z</time><ele>666.8</ele></trkpt><trkpt lat="45.819046" lon="9.442541"><time>2024-03-23T11:49:19.000Z</time><ele>667</ele></trkpt><trkpt lat="45.819034" lon="9.442553"><time>2024-03-23T11:49:20.000Z</time><ele>667</ele></trkpt><trkpt lat="45.819023" lon="9.442563"><time>2024-03-23T11:49:21.000Z</time><ele>667</ele></trkpt><trkpt lat="45.81901" lon="9.442566"><time>2024-03-23T11:49:22.000Z</time><ele>667.2</ele></trkpt><trkpt lat="45.818995" lon="9.442573"><time>2024-03-23T11:49:23.000Z</time><ele>667.2</ele></trkpt><trkpt lat="45.81898" lon="9.442574"><time>2024-03-23T11:49:24.000Z</time><ele>667.4</ele></trkpt><trkpt lat="45.818976" lon="9.442573"><time>2024-03-23T11:49:25.000Z</time><ele>667.4</ele></trkpt><trkpt lat="45.818965" lon="9.442575"><time>2024-03-23T11:49:26.000Z</time><ele>667.6</ele></trkpt><trkpt lat="45.818951" lon="9.442572"><time>2024-03-23T11:49:27.000Z</time><ele>667.8</ele></trkpt><trkpt lat="45.818948" lon="9.44257"><time>2024-03-23T11:49:28.000Z</time><ele>668</ele></trkpt><trkpt lat="45.818942" lon="9.442561"><time>2024-03-23T11:49:29.000Z</time><ele>668.2</ele></trkpt><trkpt lat="45.818944" lon="9.442559"><time>2024-03-23T11:49:30.000Z</time><ele>668.2</ele></trkpt><trkpt lat="45.818944" lon="9.44256"><time>2024-03-23T11:49:31.000Z</time><ele>668.4</ele></trkpt><trkpt lat="45.818937" lon="9.442567"><time>2024-03-23T11:49:32.000Z</time><ele>668.4</ele></trkpt><trkpt lat="45.818932" lon="9.442577"><time>2024-03-23T11:49:33.000Z</time><ele>668.6</ele></trkpt><trkpt lat="45.81893" lon="9.442581"><time>2024-03-23T11:49:34.000Z</time><ele>668.6</ele></trkpt><trkpt lat="45.818912" lon="9.442587"><time>2024-03-23T11:49:35.000Z</time><ele>669</ele></trkpt><trkpt lat="45.818902" lon="9.442586"><time>2024-03-23T11:49:36.000Z</time><ele>669.2</ele></trkpt><trkpt lat="45.818898" lon="9.442594"><time>2024-03-23T11:49:37.000Z</time><ele>669.2</ele></trkpt><trkpt lat="45.81889" lon="9.442598"><time>2024-03-23T11:49:38.000Z</time><ele>669.4</ele></trkpt><trkpt lat="45.818888" lon="9.442601"><time>2024-03-23T11:49:39.000Z</time><ele>669.6</ele></trkpt><trkpt lat="45.818882" lon="9.442598"><time>2024-03-23T11:49:40.000Z</time><ele>669.6</ele></trkpt><trkpt lat="45.818878" lon="9.442617"><time>2024-03-23T11:49:41.000Z</time><ele>669.6</ele></trkpt><trkpt lat="45.818873" lon="9.442628"><time>2024-03-23T11:49:42.000Z</time><ele>669.8</ele></trkpt><trkpt lat="45.818864" lon="9.442636"><time>2024-03-23T11:49:43.000Z</time><ele>670</ele></trkpt><trkpt lat="45.818851" lon="9.442644"><time>2024-03-23T11:49:44.000Z</time><ele>670</ele></trkpt><trkpt lat="45.818837" lon="9.442645"><time>2024-03-23T11:49:45.000Z</time><ele>670.2</ele></trkpt><trkpt lat="45.818826" lon="9.442644"><time>2024-03-23T11:49:46.000Z</time><ele>670.4</ele></trkpt><trkpt lat="45.81882" lon="9.442646"><time>2024-03-23T11:49:47.000Z</time><ele>670.4</ele></trkpt><trkpt lat="45.818815" lon="9.44265"><time>2024-03-23T11:49:48.000Z</time><ele>670.6</ele></trkpt><trkpt lat="45.818807" lon="9.442655"><time>2024-03-23T11:49:49.000Z</time><ele>670.8</ele></trkpt><trkpt lat="45.818804" lon="9.442658"><time>2024-03-23T11:49:50.000Z</time><ele>670.8</ele></trkpt><trkpt lat="45.818802" lon="9.44266"><time>2024-03-23T11:49:51.000Z</time><ele>671</ele></trkpt><trkpt lat="45.8188" lon="9.442664"><time>2024-03-23T11:49:52.000Z</time><ele>671.2</ele></trkpt><trkpt lat="45.818798" lon="9.442666"><time>2024-03-23T11:49:53.000Z</time><ele>671.2</ele></trkpt><trkpt lat="45.818787" lon="9.442666"><time>2024-03-23T11:49:54.000Z</time><ele>671.4</ele></trkpt><trkpt lat="45.818754" lon="9.442664"><time>2024-03-23T11:49:55.000Z</time><ele>671.6</ele></trkpt><trkpt lat="45.818747" lon="9.442674"><time>2024-03-23T11:49:56.000Z</time><ele>671.6</ele></trkpt><trkpt lat="45.818734" lon="9.442688"><time>2024-03-23T11:49:57.000Z</time><ele>671.6</ele></trkpt><trkpt lat="45.818729" lon="9.442692"><time>2024-03-23T11:49:58.000Z</time><ele>672</ele></trkpt><trkpt lat="45.818717" lon="9.442692"><time>2024-03-23T11:49:59.000Z</time><ele>672</ele></trkpt><trkpt lat="45.818712" lon="9.442692"><time>2024-03-23T11:50:00.000Z</time><ele>672.2</ele></trkpt><trkpt lat="45.818708" lon="9.442694"><time>2024-03-23T11:50:01.000Z</time><ele>672.2</ele></trkpt><trkpt lat="45.818705" lon="9.442695"><time>2024-03-23T11:50:02.000Z</time><ele>672.4</ele></trkpt><trkpt lat="45.818699" lon="9.442705"><time>2024-03-23T11:50:03.000Z</time><ele>672.4</ele></trkpt><trkpt lat="45.818697" lon="9.442719"><time>2024-03-23T11:50:04.000Z</time><ele>672.6</ele></trkpt><trkpt lat="45.818689" lon="9.442729"><time>2024-03-23T11:50:05.000Z</time><ele>672.6</ele></trkpt><trkpt lat="45.81868" lon="9.442734"><time>2024-03-23T11:50:06.000Z</time><ele>672.8</ele></trkpt><trkpt lat="45.818668" lon="9.442737"><time>2024-03-23T11:50:07.000Z</time><ele>673</ele></trkpt><trkpt lat="45.818664" lon="9.44274"><time>2024-03-23T11:50:08.000Z</time><ele>673.2</ele></trkpt><trkpt lat="45.818662" lon="9.442745"><time>2024-03-23T11:50:09.000Z</time><ele>673.2</ele></trkpt><trkpt lat="45.818662" lon="9.442747"><time>2024-03-23T11:50:10.000Z</time><ele>673.4</ele></trkpt><trkpt lat="45.818652" lon="9.442747"><time>2024-03-23T11:50:11.000Z</time><ele>673.4</ele></trkpt><trkpt lat="45.818649" lon="9.442746"><time>2024-03-23T11:50:12.000Z</time><ele>673.6</ele></trkpt><trkpt lat="45.81864" lon="9.442749"><time>2024-03-23T11:50:13.000Z</time><ele>673.8</ele></trkpt><trkpt lat="45.818631" lon="9.442759"><time>2024-03-23T11:50:14.000Z</time><ele>674</ele></trkpt><trkpt lat="45.818626" lon="9.442766"><time>2024-03-23T11:50:15.000Z</time><ele>674</ele></trkpt><trkpt lat="45.818614" lon="9.442775"><time>2024-03-23T11:50:16.000Z</time><ele>674.2</ele></trkpt><trkpt lat="45.818607" lon="9.442783"><time>2024-03-23T11:50:17.000Z</time><ele>674.4</ele></trkpt><trkpt lat="45.818593" lon="9.442777"><time>2024-03-23T11:50:18.000Z</time><ele>674.6</ele></trkpt><trkpt lat="45.818583" lon="9.44277"><time>2024-03-23T11:50:19.000Z</time><ele>674.6</ele></trkpt><trkpt lat="45.818572" lon="9.442774"><time>2024-03-23T11:50:20.000Z</time><ele>674.8</ele></trkpt><trkpt lat="45.818571" lon="9.442782"><time>2024-03-23T11:50:21.000Z</time><ele>675</ele></trkpt><trkpt lat="45.818566" lon="9.442782"><time>2024-03-23T11:50:22.000Z</time><ele>675.2</ele></trkpt><trkpt lat="45.818565" lon="9.442785"><time>2024-03-23T11:50:23.000Z</time><ele>675.4</ele></trkpt><trkpt lat="45.818566" lon="9.44279"><time>2024-03-23T11:50:24.000Z</time><ele>675.6</ele></trkpt><trkpt lat="45.818561" lon="9.442792"><time>2024-03-23T11:50:25.000Z</time><ele>675.8</ele></trkpt><trkpt lat="45.818555" lon="9.442797"><time>2024-03-23T11:50:26.000Z</time><ele>676</ele></trkpt><trkpt lat="45.818541" lon="9.44281"><time>2024-03-23T11:50:27.000Z</time><ele>676.2</ele></trkpt><trkpt lat="45.818529" lon="9.44282"><time>2024-03-23T11:50:28.000Z</time><ele>676.2</ele></trkpt><trkpt lat="45.818519" lon="9.442825"><time>2024-03-23T11:50:29.000Z</time><ele>676.6</ele></trkpt><trkpt lat="45.818515" lon="9.442826"><time>2024-03-23T11:50:30.000Z</time><ele>676.6</ele></trkpt><trkpt lat="45.818505" lon="9.442831"><time>2024-03-23T11:50:31.000Z</time><ele>676.8</ele></trkpt><trkpt lat="45.8185" lon="9.442832"><time>2024-03-23T11:50:32.000Z</time><ele>677</ele></trkpt><trkpt lat="45.8185" lon="9.442827"><time>2024-03-23T11:50:33.000Z</time><ele>677.2</ele></trkpt><trkpt lat="45.818489" lon="9.44284"><time>2024-03-23T11:50:34.000Z</time><ele>677.2</ele></trkpt><trkpt lat="45.818487" lon="9.44286"><time>2024-03-23T11:50:35.000Z</time><ele>677.4</ele></trkpt><trkpt lat="45.81848" lon="9.442873"><time>2024-03-23T11:50:36.000Z</time><ele>677.6</ele></trkpt><trkpt lat="45.818478" lon="9.442875"><time>2024-03-23T11:50:37.000Z</time><ele>677.8</ele></trkpt><trkpt lat="45.818476" lon="9.442876"><time>2024-03-23T11:50:38.000Z</time><ele>677.8</ele></trkpt><trkpt lat="45.818467" lon="9.442878"><time>2024-03-23T11:50:39.000Z</time><ele>678</ele></trkpt><trkpt lat="45.818463" lon="9.442875"><time>2024-03-23T11:50:40.000Z</time><ele>678</ele></trkpt><trkpt lat="45.81846" lon="9.442875"><time>2024-03-23T11:50:41.000Z</time><ele>678.2</ele></trkpt><trkpt lat="45.818462" lon="9.442877"><time>2024-03-23T11:50:42.000Z</time><ele>678.2</ele></trkpt><trkpt lat="45.818461" lon="9.442878"><time>2024-03-23T11:50:43.000Z</time><ele>678.4</ele></trkpt><trkpt lat="45.818455" lon="9.442882"><time>2024-03-23T11:50:44.000Z</time><ele>678.6</ele></trkpt><trkpt lat="45.818448" lon="9.442884"><time>2024-03-23T11:50:45.000Z</time><ele>678.8</ele></trkpt><trkpt lat="45.818439" lon="9.442888"><time>2024-03-23T11:50:46.000Z</time><ele>678.8</ele></trkpt><trkpt lat="45.818434" lon="9.442891"><time>2024-03-23T11:50:47.000Z</time><ele>679</ele></trkpt><trkpt lat="45.818425" lon="9.442895"><time>2024-03-23T11:50:48.000Z</time><ele>679.2</ele></trkpt><trkpt lat="45.818411" lon="9.442905"><time>2024-03-23T11:50:49.000Z</time><ele>679.4</ele></trkpt><trkpt lat="45.818408" lon="9.442906"><time>2024-03-23T11:50:50.000Z</time><ele>679.6</ele></trkpt><trkpt lat="45.818404" lon="9.442904"><time>2024-03-23T11:50:51.000Z</time><ele>679.8</ele></trkpt><trkpt lat="45.818399" lon="9.442911"><time>2024-03-23T11:50:52.000Z</time><ele>679.8</ele></trkpt><trkpt lat="45.818394" lon="9.442916"><time>2024-03-23T11:50:53.000Z</time><ele>680</ele></trkpt><trkpt lat="45.818386" lon="9.442925"><time>2024-03-23T11:50:54.000Z</time><ele>680.2</ele></trkpt><trkpt lat="45.818381" lon="9.442934"><time>2024-03-23T11:50:55.000Z</time><ele>680.4</ele></trkpt><trkpt lat="45.818379" lon="9.442941"><time>2024-03-23T11:50:56.000Z</time><ele>680.4</ele></trkpt><trkpt lat="45.818369" lon="9.442945"><time>2024-03-23T11:50:57.000Z</time><ele>680.6</ele></trkpt><trkpt lat="45.818359" lon="9.442955"><time>2024-03-23T11:50:58.000Z</time><ele>680.6</ele></trkpt><trkpt lat="45.818348" lon="9.442961"><time>2024-03-23T11:50:59.000Z</time><ele>680.8</ele></trkpt><trkpt lat="45.818337" lon="9.442959"><time>2024-03-23T11:51:00.000Z</time><ele>681</ele></trkpt><trkpt lat="45.818328" lon="9.442952"><time>2024-03-23T11:51:01.000Z</time><ele>681.2</ele></trkpt><trkpt lat="45.818323" lon="9.442951"><time>2024-03-23T11:51:02.000Z</time><ele>681.2</ele></trkpt><trkpt lat="45.818318" lon="9.442951"><time>2024-03-23T11:51:03.000Z</time><ele>681.4</ele></trkpt><trkpt lat="45.81831" lon="9.442953"><time>2024-03-23T11:51:04.000Z</time><ele>681.4</ele></trkpt><trkpt lat="45.818301" lon="9.442954"><time>2024-03-23T11:51:05.000Z</time><ele>681.6</ele></trkpt><trkpt lat="45.818293" lon="9.442957"><time>2024-03-23T11:51:06.000Z</time><ele>681.8</ele></trkpt><trkpt lat="45.818283" lon="9.442962"><time>2024-03-23T11:51:07.000Z</time><ele>682</ele></trkpt><trkpt lat="45.818279" lon="9.442964"><time>2024-03-23T11:51:08.000Z</time><ele>682.2</ele></trkpt><trkpt lat="45.818276" lon="9.442963"><time>2024-03-23T11:51:09.000Z</time><ele>682.4</ele></trkpt><trkpt lat="45.818267" lon="9.44296"><time>2024-03-23T11:51:10.000Z</time><ele>682.6</ele></trkpt><trkpt lat="45.818257" lon="9.442959"><time>2024-03-23T11:51:11.000Z</time><ele>682.6</ele></trkpt><trkpt lat="45.81825" lon="9.44296"><time>2024-03-23T11:51:12.000Z</time><ele>682.8</ele></trkpt><trkpt lat="45.818242" lon="9.442964"><time>2024-03-23T11:51:13.000Z</time><ele>683</ele></trkpt><trkpt lat="45.818237" lon="9.442962"><time>2024-03-23T11:51:14.000Z</time><ele>683</ele></trkpt><trkpt lat="45.818226" lon="9.442965"><time>2024-03-23T11:51:15.000Z</time><ele>683</ele></trkpt><trkpt lat="45.818219" lon="9.442966"><time>2024-03-23T11:51:16.000Z</time><ele>683.2</ele></trkpt><trkpt lat="45.818206" lon="9.442963"><time>2024-03-23T11:51:17.000Z</time><ele>683.4</ele></trkpt><trkpt lat="45.818191" lon="9.442961"><time>2024-03-23T11:51:18.000Z</time><ele>683.6</ele></trkpt><trkpt lat="45.818185" lon="9.44296"><time>2024-03-23T11:51:19.000Z</time><ele>683.6</ele></trkpt><trkpt lat="45.818177" lon="9.442955"><time>2024-03-23T11:51:20.000Z</time><ele>683.8</ele></trkpt><trkpt lat="45.818169" lon="9.442945"><time>2024-03-23T11:51:21.000Z</time><ele>684</ele></trkpt><trkpt lat="45.818166" lon="9.442942"><time>2024-03-23T11:51:22.000Z</time><ele>684.2</ele></trkpt><trkpt lat="45.81816" lon="9.44294"><time>2024-03-23T11:51:23.000Z</time><ele>684.2</ele></trkpt><trkpt lat="45.818154" lon="9.442939"><time>2024-03-23T11:51:24.000Z</time><ele>684.2</ele></trkpt><trkpt lat="45.818148" lon="9.442934"><time>2024-03-23T11:51:25.000Z</time><ele>684.4</ele></trkpt><trkpt lat="45.81814" lon="9.442936"><time>2024-03-23T11:51:26.000Z</time><ele>684.4</ele></trkpt><trkpt lat="45.818133" lon="9.442935"><time>2024-03-23T11:51:27.000Z</time><ele>684.6</ele></trkpt><trkpt lat="45.818128" lon="9.442934"><time>2024-03-23T11:51:28.000Z</time><ele>684.8</ele></trkpt><trkpt lat="45.81812" lon="9.442927"><time>2024-03-23T11:51:29.000Z</time><ele>685</ele></trkpt><trkpt lat="45.818113" lon="9.442922"><time>2024-03-23T11:51:30.000Z</time><ele>685</ele></trkpt><trkpt lat="45.818107" lon="9.442918"><time>2024-03-23T11:51:31.000Z</time><ele>685.2</ele></trkpt><trkpt lat="45.818106" lon="9.442915"><time>2024-03-23T11:51:32.000Z</time><ele>685.4</ele></trkpt><trkpt lat="45.818104" lon="9.442914"><time>2024-03-23T11:51:33.000Z</time><ele>685.4</ele></trkpt><trkpt lat="45.8181" lon="9.442909"><time>2024-03-23T11:51:34.000Z</time><ele>685.6</ele></trkpt><trkpt lat="45.818093" lon="9.442904"><time>2024-03-23T11:51:35.000Z</time><ele>685.6</ele></trkpt><trkpt lat="45.818087" lon="9.442899"><time>2024-03-23T11:51:36.000Z</time><ele>685.8</ele></trkpt><trkpt lat="45.818082" lon="9.442888"><time>2024-03-23T11:51:37.000Z</time><ele>685.8</ele></trkpt><trkpt lat="45.81808" lon="9.442887"><time>2024-03-23T11:51:38.000Z</time><ele>686.2</ele></trkpt><trkpt lat="45.81808" lon="9.442887"><time>2024-03-23T11:51:39.000Z</time><ele>686.2</ele></trkpt><trkpt lat="45.818074" lon="9.442884"><time>2024-03-23T11:51:40.000Z</time><ele>686.6</ele></trkpt><trkpt lat="45.818069" lon="9.442878"><time>2024-03-23T11:51:41.000Z</time><ele>686.8</ele></trkpt><trkpt lat="45.818058" lon="9.442876"><time>2024-03-23T11:51:42.000Z</time><ele>686.8</ele></trkpt><trkpt lat="45.818049" lon="9.442875"><time>2024-03-23T11:51:43.000Z</time><ele>687</ele></trkpt><trkpt lat="45.81804" lon="9.442869"><time>2024-03-23T11:51:44.000Z</time><ele>687</ele></trkpt><trkpt lat="45.818031" lon="9.442861"><time>2024-03-23T11:51:45.000Z</time><ele>687</ele></trkpt><trkpt lat="45.818025" lon="9.442855"><time>2024-03-23T11:51:46.000Z</time><ele>687.2</ele></trkpt><trkpt lat="45.818017" lon="9.442848"><time>2024-03-23T11:51:47.000Z</time><ele>687.2</ele></trkpt><trkpt lat="45.818011" lon="9.44284"><time>2024-03-23T11:51:48.000Z</time><ele>687.2</ele></trkpt><trkpt lat="45.818006" lon="9.442834"><time>2024-03-23T11:51:49.000Z</time><ele>687.4</ele></trkpt><trkpt lat="45.818001" lon="9.442829"><time>2024-03-23T11:51:50.000Z</time><ele>687.4</ele></trkpt><trkpt lat="45.817995" lon="9.442829"><time>2024-03-23T11:51:51.000Z</time><ele>687.6</ele></trkpt><trkpt lat="45.817991" lon="9.442829"><time>2024-03-23T11:51:52.000Z</time><ele>687.8</ele></trkpt><trkpt lat="45.81799" lon="9.442828"><time>2024-03-23T11:51:53.000Z</time><ele>687.8</ele></trkpt><trkpt lat="45.817987" lon="9.442821"><time>2024-03-23T11:51:54.000Z</time><ele>687.8</ele></trkpt><trkpt lat="45.817985" lon="9.442818"><time>2024-03-23T11:51:55.000Z</time><ele>687.8</ele></trkpt><trkpt lat="45.817979" lon="9.442815"><time>2024-03-23T11:51:56.000Z</time><ele>688</ele></trkpt><trkpt lat="45.817975" lon="9.442811"><time>2024-03-23T11:51:57.000Z</time><ele>688</ele></trkpt><trkpt lat="45.817973" lon="9.442807"><time>2024-03-23T11:51:58.000Z</time><ele>688</ele></trkpt><trkpt lat="45.817971" lon="9.442804"><time>2024-03-23T11:51:59.000Z</time><ele>688.2</ele></trkpt><trkpt lat="45.817967" lon="9.442805"><time>2024-03-23T11:52:00.000Z</time><ele>688.2</ele></trkpt><trkpt lat="45.817967" lon="9.442805"><time>2024-03-23T11:52:01.000Z</time><ele>688.2</ele></trkpt><trkpt lat="45.817966" lon="9.442806"><time>2024-03-23T11:52:02.000Z</time><ele>688.2</ele></trkpt><trkpt lat="45.817964" lon="9.442809"><time>2024-03-23T11:52:03.000Z</time><ele>688.2</ele></trkpt><trkpt lat="45.81796" lon="9.442812"><time>2024-03-23T11:52:04.000Z</time><ele>688.2</ele></trkpt><trkpt lat="45.817957" lon="9.442811"><time>2024-03-23T11:52:05.000Z</time><ele>688.2</ele></trkpt><trkpt lat="45.817959" lon="9.442809"><time>2024-03-23T11:52:06.000Z</time><ele>688.2</ele></trkpt><trkpt lat="45.817961" lon="9.442809"><time>2024-03-23T11:52:07.000Z</time><ele>688.2</ele></trkpt><trkpt lat="45.817963" lon="9.442808"><time>2024-03-23T11:52:08.000Z</time><ele>688.2</ele></trkpt><trkpt lat="45.817964" lon="9.442807"><time>2024-03-23T11:52:09.000Z</time><ele>688.2</ele></trkpt><trkpt lat="45.817966" lon="9.442807"><time>2024-03-23T11:52:10.000Z</time><ele>688.2</ele></trkpt><trkpt lat="45.817955" lon="9.442807"><time>2024-03-23T11:52:11.000Z</time><ele>688.2</ele></trkpt><trkpt lat="45.817946" lon="9.44281"><time>2024-03-23T11:52:12.000Z</time><ele>688.2</ele></trkpt><trkpt lat="45.817946" lon="9.442811"><time>2024-03-23T11:52:13.000Z</time><ele>688.2</ele></trkpt><trkpt lat="45.817942" lon="9.442811"><time>2024-03-23T11:52:14.000Z</time><ele>688.2</ele></trkpt><trkpt lat="45.817942" lon="9.442812"><time>2024-03-23T11:52:15.000Z</time><ele>688.4</ele></trkpt><trkpt lat="45.817943" lon="9.442812"><time>2024-03-23T11:52:16.000Z</time><ele>688.4</ele></trkpt><trkpt lat="45.817943" lon="9.442812"><time>2024-03-23T11:52:17.000Z</time><ele>688.4</ele></trkpt><trkpt lat="45.817943" lon="9.442812"><time>2024-03-23T11:52:18.000Z</time><ele>688.4</ele></trkpt><trkpt lat="45.817943" lon="9.442812"><time>2024-03-23T11:52:19.000Z</time><ele>688.4</ele></trkpt><trkpt lat="45.817943" lon="9.442812"><time>2024-03-23T11:52:20.000Z</time><ele>688.6</ele></trkpt><trkpt lat="45.817943" lon="9.442812"><time>2024-03-23T11:52:21.000Z</time><ele>688.6</ele></trkpt><trkpt lat="45.817943" lon="9.442812"><time>2024-03-23T11:52:22.000Z</time><ele>688.8</ele></trkpt><trkpt lat="45.817943" lon="9.442812"><time>2024-03-23T11:52:23.000Z</time><ele>688.8</ele></trkpt><trkpt lat="45.817943" lon="9.442812"><time>2024-03-23T11:52:24.000Z</time><ele>688.8</ele></trkpt><trkpt lat="45.817943" lon="9.442811"><time>2024-03-23T11:52:25.000Z</time><ele>688.8</ele></trkpt><trkpt lat="45.817943" lon="9.442811"><time>2024-03-23T11:52:26.000Z</time><ele>689</ele></trkpt><trkpt lat="45.817944" lon="9.44281"><time>2024-03-23T11:52:27.000Z</time><ele>689</ele></trkpt><trkpt lat="45.817944" lon="9.442809"><time>2024-03-23T11:52:28.000Z</time><ele>689.2</ele></trkpt><trkpt lat="45.817944" lon="9.442808"><time>2024-03-23T11:52:29.000Z</time><ele>689.2</ele></trkpt><trkpt lat="45.817944" lon="9.442808"><time>2024-03-23T11:52:30.000Z</time><ele>689.2</ele></trkpt><trkpt lat="45.817944" lon="9.442807"><time>2024-03-23T11:52:31.000Z</time><ele>689.4</ele></trkpt><trkpt lat="45.817944" lon="9.442807"><time>2024-03-23T11:52:32.000Z</time><ele>689.6</ele></trkpt><trkpt lat="45.817944" lon="9.442807"><time>2024-03-23T11:52:33.000Z</time><ele>689.6</ele></trkpt><trkpt lat="45.817944" lon="9.442807"><time>2024-03-23T11:52:34.000Z</time><ele>689.8</ele></trkpt><trkpt lat="45.817937" lon="9.442797"><time>2024-03-23T11:52:35.000Z</time><ele>689.8</ele></trkpt><trkpt lat="45.817921" lon="9.44278"><time>2024-03-23T11:52:36.000Z</time><ele>689.8</ele></trkpt><trkpt lat="45.817908" lon="9.442763"><time>2024-03-23T11:52:37.000Z</time><ele>690</ele></trkpt><trkpt lat="45.817893" lon="9.442743"><time>2024-03-23T11:52:38.000Z</time><ele>690</ele></trkpt><trkpt lat="45.817877" lon="9.442726"><time>2024-03-23T11:52:39.000Z</time><ele>690</ele></trkpt><trkpt lat="45.817862" lon="9.442711"><time>2024-03-23T11:52:40.000Z</time><ele>690</ele></trkpt><trkpt lat="45.81785" lon="9.442694"><time>2024-03-23T11:52:41.000Z</time><ele>690</ele></trkpt><trkpt lat="45.817836" lon="9.442678"><time>2024-03-23T11:52:42.000Z</time><ele>690.2</ele></trkpt><trkpt lat="45.817823" lon="9.442661"><time>2024-03-23T11:52:43.000Z</time><ele>690.2</ele></trkpt><trkpt lat="45.817814" lon="9.442645"><time>2024-03-23T11:52:44.000Z</time><ele>690.2</ele></trkpt><trkpt lat="45.817806" lon="9.442639"><time>2024-03-23T11:52:45.000Z</time><ele>690.4</ele></trkpt><trkpt lat="45.817796" lon="9.442635"><time>2024-03-23T11:52:46.000Z</time><ele>690.4</ele></trkpt><trkpt lat="45.817786" lon="9.442629"><time>2024-03-23T11:52:47.000Z</time><ele>690.6</ele></trkpt><trkpt lat="45.817778" lon="9.442626"><time>2024-03-23T11:52:48.000Z</time><ele>690.6</ele></trkpt><trkpt lat="45.817763" lon="9.442625"><time>2024-03-23T11:52:49.000Z</time><ele>690.6</ele></trkpt><trkpt lat="45.817745" lon="9.442622"><time>2024-03-23T11:52:50.000Z</time><ele>690.8</ele></trkpt><trkpt lat="45.817735" lon="9.442612"><time>2024-03-23T11:52:51.000Z</time><ele>690.8</ele></trkpt><trkpt lat="45.817728" lon="9.442604"><time>2024-03-23T11:52:52.000Z</time><ele>690.8</ele></trkpt><trkpt lat="45.817721" lon="9.442598"><time>2024-03-23T11:52:53.000Z</time><ele>691</ele></trkpt><trkpt lat="45.817709" lon="9.442596"><time>2024-03-23T11:52:54.000Z</time><ele>691</ele></trkpt><trkpt lat="45.817699" lon="9.44259"><time>2024-03-23T11:52:55.000Z</time><ele>691</ele></trkpt><trkpt lat="45.817692" lon="9.44258"><time>2024-03-23T11:52:56.000Z</time><ele>691</ele></trkpt><trkpt lat="45.817688" lon="9.442569"><time>2024-03-23T11:52:57.000Z</time><ele>691.2</ele></trkpt><trkpt lat="45.817678" lon="9.442567"><time>2024-03-23T11:52:58.000Z</time><ele>691.2</ele></trkpt><trkpt lat="45.817667" lon="9.44256"><time>2024-03-23T11:52:59.000Z</time><ele>691.2</ele></trkpt><trkpt lat="45.81766" lon="9.442545"><time>2024-03-23T11:53:00.000Z</time><ele>691.4</ele></trkpt><trkpt lat="45.817652" lon="9.442538"><time>2024-03-23T11:53:01.000Z</time><ele>691.4</ele></trkpt><trkpt lat="45.817645" lon="9.442532"><time>2024-03-23T11:53:02.000Z</time><ele>691.6</ele></trkpt><trkpt lat="45.817638" lon="9.442525"><time>2024-03-23T11:53:03.000Z</time><ele>691.6</ele></trkpt><trkpt lat="45.817625" lon="9.44252"><time>2024-03-23T11:53:04.000Z</time><ele>691.6</ele></trkpt><trkpt lat="45.817612" lon="9.442509"><time>2024-03-23T11:53:05.000Z</time><ele>691.8</ele></trkpt><trkpt lat="45.817602" lon="9.442498"><time>2024-03-23T11:53:06.000Z</time><ele>691.8</ele></trkpt><trkpt lat="45.817597" lon="9.44249"><time>2024-03-23T11:53:07.000Z</time><ele>691.8</ele></trkpt><trkpt lat="45.817593" lon="9.442476"><time>2024-03-23T11:53:08.000Z</time><ele>692</ele></trkpt><trkpt lat="45.817589" lon="9.442462"><time>2024-03-23T11:53:09.000Z</time><ele>692</ele></trkpt><trkpt lat="45.817584" lon="9.442455"><time>2024-03-23T11:53:10.000Z</time><ele>692.2</ele></trkpt><trkpt lat="45.81758" lon="9.442446"><time>2024-03-23T11:53:11.000Z</time><ele>692.2</ele></trkpt><trkpt lat="45.817574" lon="9.442436"><time>2024-03-23T11:53:12.000Z</time><ele>692.4</ele></trkpt><trkpt lat="45.817566" lon="9.442425"><time>2024-03-23T11:53:13.000Z</time><ele>692.4</ele></trkpt><trkpt lat="45.817559" lon="9.44242"><time>2024-03-23T11:53:14.000Z</time><ele>692.4</ele></trkpt><trkpt lat="45.817551" lon="9.442419"><time>2024-03-23T11:53:15.000Z</time><ele>692.4</ele></trkpt><trkpt lat="45.817541" lon="9.442414"><time>2024-03-23T11:53:16.000Z</time><ele>692.6</ele></trkpt><trkpt lat="45.817534" lon="9.442402"><time>2024-03-23T11:53:17.000Z</time><ele>692.6</ele></trkpt><trkpt lat="45.817527" lon="9.442391"><time>2024-03-23T11:53:18.000Z</time><ele>692.8</ele></trkpt><trkpt lat="45.817522" lon="9.442379"><time>2024-03-23T11:53:19.000Z</time><ele>692.8</ele></trkpt><trkpt lat="45.817515" lon="9.442372"><time>2024-03-23T11:53:20.000Z</time><ele>692.8</ele></trkpt><trkpt lat="45.81751" lon="9.442368"><time>2024-03-23T11:53:21.000Z</time><ele>693</ele></trkpt><trkpt lat="45.817502" lon="9.442364"><time>2024-03-23T11:53:22.000Z</time><ele>693</ele></trkpt><trkpt lat="45.817498" lon="9.442357"><time>2024-03-23T11:53:23.000Z</time><ele>693.2</ele></trkpt><trkpt lat="45.817491" lon="9.442352"><time>2024-03-23T11:53:24.000Z</time><ele>693.2</ele></trkpt><trkpt lat="45.817482" lon="9.442351"><time>2024-03-23T11:53:25.000Z</time><ele>693.4</ele></trkpt><trkpt lat="45.817473" lon="9.442351"><time>2024-03-23T11:53:26.000Z</time><ele>693.4</ele></trkpt><trkpt lat="45.817466" lon="9.442347"><time>2024-03-23T11:53:27.000Z</time><ele>693.4</ele></trkpt><trkpt lat="45.817458" lon="9.44234"><time>2024-03-23T11:53:28.000Z</time><ele>693.6</ele></trkpt><trkpt lat="45.817448" lon="9.442337"><time>2024-03-23T11:53:29.000Z</time><ele>693.6</ele></trkpt><trkpt lat="45.817436" lon="9.442331"><time>2024-03-23T11:53:30.000Z</time><ele>693.8</ele></trkpt><trkpt lat="45.817423" lon="9.442322"><time>2024-03-23T11:53:31.000Z</time><ele>694</ele></trkpt><trkpt lat="45.817417" lon="9.442311"><time>2024-03-23T11:53:32.000Z</time><ele>694</ele></trkpt><trkpt lat="45.817405" lon="9.442305"><time>2024-03-23T11:53:33.000Z</time><ele>694.2</ele></trkpt><trkpt lat="45.817395" lon="9.442297"><time>2024-03-23T11:53:34.000Z</time><ele>694.2</ele></trkpt><trkpt lat="45.817386" lon="9.442286"><time>2024-03-23T11:53:35.000Z</time><ele>694.2</ele></trkpt><trkpt lat="45.817379" lon="9.442274"><time>2024-03-23T11:53:36.000Z</time><ele>694.4</ele></trkpt><trkpt lat="45.817372" lon="9.442264"><time>2024-03-23T11:53:37.000Z</time><ele>694.4</ele></trkpt><trkpt lat="45.817363" lon="9.442254"><time>2024-03-23T11:53:38.000Z</time><ele>694.4</ele></trkpt><trkpt lat="45.817355" lon="9.442242"><time>2024-03-23T11:53:39.000Z</time><ele>694.4</ele></trkpt><trkpt lat="45.817348" lon="9.44223"><time>2024-03-23T11:53:40.000Z</time><ele>694.4</ele></trkpt><trkpt lat="45.817343" lon="9.442228"><time>2024-03-23T11:53:41.000Z</time><ele>694.6</ele></trkpt><trkpt lat="45.817341" lon="9.442228"><time>2024-03-23T11:53:42.000Z</time><ele>694.6</ele></trkpt><trkpt lat="45.817342" lon="9.442227"><time>2024-03-23T11:53:43.000Z</time><ele>694.4</ele></trkpt><trkpt lat="45.817341" lon="9.442227"><time>2024-03-23T11:53:44.000Z</time><ele>694.4</ele></trkpt><trkpt lat="45.817342" lon="9.442227"><time>2024-03-23T11:53:45.000Z</time><ele>694.4</ele></trkpt><trkpt lat="45.817343" lon="9.442224"><time>2024-03-23T11:53:46.000Z</time><ele>694.4</ele></trkpt><trkpt lat="45.817347" lon="9.442222"><time>2024-03-23T11:53:47.000Z</time><ele>694.4</ele></trkpt><trkpt lat="45.817342" lon="9.4422"><time>2024-03-23T11:53:48.000Z</time><ele>694.4</ele></trkpt><trkpt lat="45.817341" lon="9.442198"><time>2024-03-23T11:53:49.000Z</time><ele>694.6</ele></trkpt><trkpt lat="45.81734" lon="9.442197"><time>2024-03-23T11:53:50.000Z</time><ele>694.8</ele></trkpt><trkpt lat="45.81734" lon="9.442197"><time>2024-03-23T11:53:51.000Z</time><ele>694.8</ele></trkpt><trkpt lat="45.817339" lon="9.442195"><time>2024-03-23T11:53:52.000Z</time><ele>695</ele></trkpt><trkpt lat="45.817337" lon="9.442192"><time>2024-03-23T11:53:53.000Z</time><ele>695</ele></trkpt><trkpt lat="45.81733" lon="9.442185"><time>2024-03-23T11:53:54.000Z</time><ele>694.8</ele></trkpt><trkpt lat="45.817321" lon="9.442179"><time>2024-03-23T11:53:55.000Z</time><ele>694.8</ele></trkpt><trkpt lat="45.817316" lon="9.442176"><time>2024-03-23T11:53:56.000Z</time><ele>694.6</ele></trkpt><trkpt lat="45.817309" lon="9.442171"><time>2024-03-23T11:53:57.000Z</time><ele>694.6</ele></trkpt><trkpt lat="45.817298" lon="9.442164"><time>2024-03-23T11:53:58.000Z</time><ele>694.6</ele></trkpt><trkpt lat="45.817291" lon="9.442151"><time>2024-03-23T11:53:59.000Z</time><ele>694.6</ele></trkpt><trkpt lat="45.817284" lon="9.442142"><time>2024-03-23T11:54:00.000Z</time><ele>694.6</ele></trkpt><trkpt lat="45.817277" lon="9.442137"><time>2024-03-23T11:54:01.000Z</time><ele>694.6</ele></trkpt><trkpt lat="45.817272" lon="9.442134"><time>2024-03-23T11:54:02.000Z</time><ele>694.6</ele></trkpt><trkpt lat="45.817274" lon="9.442141"><time>2024-03-23T11:54:03.000Z</time><ele>694.4</ele></trkpt><trkpt lat="45.817274" lon="9.442148"><time>2024-03-23T11:54:04.000Z</time><ele>694.4</ele></trkpt><trkpt lat="45.817273" lon="9.442151"><time>2024-03-23T11:54:05.000Z</time><ele>694.4</ele></trkpt><trkpt lat="45.817273" lon="9.442151"><time>2024-03-23T11:54:06.000Z</time><ele>694.4</ele></trkpt><trkpt lat="45.817273" lon="9.442152"><time>2024-03-23T11:54:07.000Z</time><ele>694.4</ele></trkpt><trkpt lat="45.817273" lon="9.442152"><time>2024-03-23T11:54:08.000Z</time><ele>694.4</ele></trkpt><trkpt lat="45.817273" lon="9.442152"><time>2024-03-23T11:54:09.000Z</time><ele>694.4</ele></trkpt><trkpt lat="45.817274" lon="9.442152"><time>2024-03-23T11:54:10.000Z</time><ele>694.4</ele></trkpt><trkpt lat="45.817275" lon="9.442152"><time>2024-03-23T11:54:11.000Z</time><ele>694.4</ele></trkpt><trkpt lat="45.817275" lon="9.442152"><time>2024-03-23T11:54:12.000Z</time><ele>694.4</ele></trkpt><trkpt lat="45.817275" lon="9.442152"><time>2024-03-23T11:54:13.000Z</time><ele>694.4</ele></trkpt><trkpt lat="45.817275" lon="9.442152"><time>2024-03-23T11:54:14.000Z</time><ele>694.4</ele></trkpt><trkpt lat="45.817275" lon="9.442152"><time>2024-03-23T11:54:15.000Z</time><ele>694.4</ele></trkpt><trkpt lat="45.817275" lon="9.442152"><time>2024-03-23T11:54:16.000Z</time><ele>694.4</ele></trkpt><trkpt lat="45.817275" lon="9.442152"><time>2024-03-23T11:54:17.000Z</time><ele>694.4</ele></trkpt><trkpt lat="45.817275" lon="9.442152"><time>2024-03-23T11:54:18.000Z</time><ele>694.4</ele></trkpt><trkpt lat="45.817275" lon="9.442152"><time>2024-03-23T11:54:19.000Z</time><ele>694.4</ele></trkpt><trkpt lat="45.817275" lon="9.442152"><time>2024-03-23T11:54:20.000Z</time><ele>694.4</ele></trkpt><trkpt lat="45.817275" lon="9.442152"><time>2024-03-23T11:54:21.000Z</time><ele>694.4</ele></trkpt><trkpt lat="45.817275" lon="9.442152"><time>2024-03-23T11:54:22.000Z</time><ele>694.4</ele></trkpt><trkpt lat="45.817275" lon="9.442152"><time>2024-03-23T11:54:23.000Z</time><ele>694.4</ele></trkpt><trkpt lat="45.817275" lon="9.442152"><time>2024-03-23T11:54:24.000Z</time><ele>694.4</ele></trkpt><trkpt lat="45.817275" lon="9.442152"><time>2024-03-23T11:54:25.000Z</time><ele>694.4</ele></trkpt><trkpt lat="45.817275" lon="9.442152"><time>2024-03-23T11:54:26.000Z</time><ele>694.4</ele></trkpt><trkpt lat="45.817275" lon="9.442152"><time>2024-03-23T11:54:27.000Z</time><ele>694.4</ele></trkpt><trkpt lat="45.817275" lon="9.442152"><time>2024-03-23T11:54:28.000Z</time><ele>694.4</ele></trkpt><trkpt lat="45.817275" lon="9.442152"><time>2024-03-23T11:54:29.000Z</time><ele>694.4</ele></trkpt><trkpt lat="45.817275" lon="9.442152"><time>2024-03-23T11:54:30.000Z</time><ele>694.4</ele></trkpt><trkpt lat="45.817275" lon="9.442152"><time>2024-03-23T11:54:31.000Z</time><ele>694.4</ele></trkpt><trkpt lat="45.817275" lon="9.442152"><time>2024-03-23T11:54:32.000Z</time><ele>694.4</ele></trkpt><trkpt lat="45.817275" lon="9.442152"><time>2024-03-23T11:54:33.000Z</time><ele>694.4</ele></trkpt><trkpt lat="45.817276" lon="9.442152"><time>2024-03-23T11:54:34.000Z</time><ele>694.4</ele></trkpt><trkpt lat="45.817276" lon="9.442152"><time>2024-03-23T11:54:35.000Z</time><ele>694.4</ele></trkpt><trkpt lat="45.817276" lon="9.442152"><time>2024-03-23T11:54:36.000Z</time><ele>694.4</ele></trkpt><trkpt lat="45.817276" lon="9.442151"><time>2024-03-23T11:54:37.000Z</time><ele>694.4</ele></trkpt><trkpt lat="45.817276" lon="9.442149"><time>2024-03-23T11:54:38.000Z</time><ele>694.4</ele></trkpt><trkpt lat="45.817276" lon="9.442148"><time>2024-03-23T11:54:39.000Z</time><ele>694.4</ele></trkpt><trkpt lat="45.817276" lon="9.442148"><time>2024-03-23T11:54:40.000Z</time><ele>694.4</ele></trkpt><trkpt lat="45.817276" lon="9.442148"><time>2024-03-23T11:54:41.000Z</time><ele>694.4</ele></trkpt><trkpt lat="45.817276" lon="9.442148"><time>2024-03-23T11:54:42.000Z</time><ele>694.2</ele></trkpt><trkpt lat="45.817276" lon="9.442148"><time>2024-03-23T11:54:43.000Z</time><ele>694.2</ele></trkpt><trkpt lat="45.817276" lon="9.442148"><time>2024-03-23T11:54:44.000Z</time><ele>694.2</ele></trkpt><trkpt lat="45.817275" lon="9.442148"><time>2024-03-23T11:54:45.000Z</time><ele>694.2</ele></trkpt><trkpt lat="45.817275" lon="9.442148"><time>2024-03-23T11:54:46.000Z</time><ele>694.2</ele></trkpt><trkpt lat="45.817275" lon="9.442148"><time>2024-03-23T11:54:47.000Z</time><ele>694.2</ele></trkpt><trkpt lat="45.817275" lon="9.442148"><time>2024-03-23T11:54:48.000Z</time><ele>694.2</ele></trkpt><trkpt lat="45.817275" lon="9.442148"><time>2024-03-23T11:54:49.000Z</time><ele>694.2</ele></trkpt><trkpt lat="45.817275" lon="9.442148"><time>2024-03-23T11:54:50.000Z</time><ele>694.2</ele></trkpt><trkpt lat="45.817275" lon="9.442147"><time>2024-03-23T11:54:51.000Z</time><ele>694.4</ele></trkpt><trkpt lat="45.817271" lon="9.442144"><time>2024-03-23T11:54:52.000Z</time><ele>694.4</ele></trkpt><trkpt lat="45.817259" lon="9.442136"><time>2024-03-23T11:54:53.000Z</time><ele>694.4</ele></trkpt><trkpt lat="45.817245" lon="9.442122"><time>2024-03-23T11:54:54.000Z</time><ele>694.4</ele></trkpt><trkpt lat="45.817233" lon="9.442106"><time>2024-03-23T11:54:55.000Z</time><ele>694.4</ele></trkpt><trkpt lat="45.81722" lon="9.442094"><time>2024-03-23T11:54:56.000Z</time><ele>694.4</ele></trkpt><trkpt lat="45.817208" lon="9.442083"><time>2024-03-23T11:54:57.000Z</time><ele>694.4</ele></trkpt><trkpt lat="45.817198" lon="9.442074"><time>2024-03-23T11:54:58.000Z</time><ele>694.4</ele></trkpt><trkpt lat="45.817187" lon="9.442065"><time>2024-03-23T11:54:59.000Z</time><ele>694.4</ele></trkpt><trkpt lat="45.817172" lon="9.442057"><time>2024-03-23T11:55:00.000Z</time><ele>694.4</ele></trkpt><trkpt lat="45.817159" lon="9.442046"><time>2024-03-23T11:55:01.000Z</time><ele>694.4</ele></trkpt><trkpt lat="45.817154" lon="9.442032"><time>2024-03-23T11:55:02.000Z</time><ele>694.4</ele></trkpt><trkpt lat="45.817147" lon="9.442021"><time>2024-03-23T11:55:03.000Z</time><ele>694.6</ele></trkpt><trkpt lat="45.817139" lon="9.442013"><time>2024-03-23T11:55:04.000Z</time><ele>694.6</ele></trkpt><trkpt lat="45.81713" lon="9.442003"><time>2024-03-23T11:55:05.000Z</time><ele>694.6</ele></trkpt><trkpt lat="45.817122" lon="9.441991"><time>2024-03-23T11:55:06.000Z</time><ele>694.6</ele></trkpt><trkpt lat="45.817114" lon="9.441983"><time>2024-03-23T11:55:07.000Z</time><ele>694.6</ele></trkpt><trkpt lat="45.817108" lon="9.441973"><time>2024-03-23T11:55:08.000Z</time><ele>694.8</ele></trkpt><trkpt lat="45.817103" lon="9.441962"><time>2024-03-23T11:55:09.000Z</time><ele>694.8</ele></trkpt><trkpt lat="45.817098" lon="9.441949"><time>2024-03-23T11:55:10.000Z</time><ele>695</ele></trkpt><trkpt lat="45.81709" lon="9.441942"><time>2024-03-23T11:55:11.000Z</time><ele>695</ele></trkpt><trkpt lat="45.817085" lon="9.441936"><time>2024-03-23T11:55:12.000Z</time><ele>695</ele></trkpt><trkpt lat="45.81708" lon="9.441931"><time>2024-03-23T11:55:13.000Z</time><ele>695</ele></trkpt><trkpt lat="45.817071" lon="9.441925"><time>2024-03-23T11:55:14.000Z</time><ele>695</ele></trkpt><trkpt lat="45.817062" lon="9.441921"><time>2024-03-23T11:55:15.000Z</time><ele>695</ele></trkpt><trkpt lat="45.817052" lon="9.441922"><time>2024-03-23T11:55:16.000Z</time><ele>695</ele></trkpt><trkpt lat="45.817038" lon="9.441918"><time>2024-03-23T11:55:17.000Z</time><ele>695.2</ele></trkpt><trkpt lat="45.817027" lon="9.441916"><time>2024-03-23T11:55:18.000Z</time><ele>695.2</ele></trkpt><trkpt lat="45.817006" lon="9.441911"><time>2024-03-23T11:55:19.000Z</time><ele>695.2</ele></trkpt><trkpt lat="45.816991" lon="9.441896"><time>2024-03-23T11:55:20.000Z</time><ele>695.4</ele></trkpt><trkpt lat="45.816985" lon="9.441887"><time>2024-03-23T11:55:21.000Z</time><ele>695.4</ele></trkpt><trkpt lat="45.816976" lon="9.441882"><time>2024-03-23T11:55:22.000Z</time><ele>695.6</ele></trkpt><trkpt lat="45.816971" lon="9.441868"><time>2024-03-23T11:55:23.000Z</time><ele>695.6</ele></trkpt><trkpt lat="45.816967" lon="9.441857"><time>2024-03-23T11:55:24.000Z</time><ele>695.6</ele></trkpt><trkpt lat="45.816962" lon="9.441848"><time>2024-03-23T11:55:25.000Z</time><ele>695.8</ele></trkpt><trkpt lat="45.816953" lon="9.441841"><time>2024-03-23T11:55:26.000Z</time><ele>695.8</ele></trkpt><trkpt lat="45.816945" lon="9.441831"><time>2024-03-23T11:55:27.000Z</time><ele>695.8</ele></trkpt><trkpt lat="45.816941" lon="9.441817"><time>2024-03-23T11:55:28.000Z</time><ele>696</ele></trkpt><trkpt lat="45.81694" lon="9.441809"><time>2024-03-23T11:55:29.000Z</time><ele>696</ele></trkpt><trkpt lat="45.816936" lon="9.4418"><time>2024-03-23T11:55:30.000Z</time><ele>696</ele></trkpt><trkpt lat="45.81693" lon="9.441792"><time>2024-03-23T11:55:31.000Z</time><ele>696.2</ele></trkpt><trkpt lat="45.816927" lon="9.441781"><time>2024-03-23T11:55:32.000Z</time><ele>696.4</ele></trkpt><trkpt lat="45.816925" lon="9.441764"><time>2024-03-23T11:55:33.000Z</time><ele>696.6</ele></trkpt><trkpt lat="45.816922" lon="9.441757"><time>2024-03-23T11:55:34.000Z</time><ele>696.8</ele></trkpt><trkpt lat="45.816919" lon="9.441747"><time>2024-03-23T11:55:35.000Z</time><ele>696.8</ele></trkpt><trkpt lat="45.816916" lon="9.441737"><time>2024-03-23T11:55:36.000Z</time><ele>697</ele></trkpt><trkpt lat="45.816911" lon="9.441728"><time>2024-03-23T11:55:37.000Z</time><ele>697</ele></trkpt><trkpt lat="45.816909" lon="9.44172"><time>2024-03-23T11:55:38.000Z</time><ele>697</ele></trkpt><trkpt lat="45.816906" lon="9.441713"><time>2024-03-23T11:55:39.000Z</time><ele>697.2</ele></trkpt><trkpt lat="45.816906" lon="9.441704"><time>2024-03-23T11:55:40.000Z</time><ele>697.4</ele></trkpt><trkpt lat="45.816902" lon="9.441693"><time>2024-03-23T11:55:41.000Z</time><ele>697.4</ele></trkpt><trkpt lat="45.816895" lon="9.441684"><time>2024-03-23T11:55:42.000Z</time><ele>697.6</ele></trkpt><trkpt lat="45.816888" lon="9.441671"><time>2024-03-23T11:55:43.000Z</time><ele>697.6</ele></trkpt><trkpt lat="45.816882" lon="9.441663"><time>2024-03-23T11:55:44.000Z</time><ele>697.8</ele></trkpt><trkpt lat="45.816875" lon="9.441655"><time>2024-03-23T11:55:45.000Z</time><ele>697.8</ele></trkpt><trkpt lat="45.816869" lon="9.441652"><time>2024-03-23T11:55:46.000Z</time><ele>697.8</ele></trkpt><trkpt lat="45.816866" lon="9.441643"><time>2024-03-23T11:55:47.000Z</time><ele>698</ele></trkpt><trkpt lat="45.816863" lon="9.441628"><time>2024-03-23T11:55:48.000Z</time><ele>698</ele></trkpt><trkpt lat="45.816857" lon="9.441615"><time>2024-03-23T11:55:49.000Z</time><ele>698.2</ele></trkpt><trkpt lat="45.816848" lon="9.441607"><time>2024-03-23T11:55:50.000Z</time><ele>698.4</ele></trkpt><trkpt lat="45.81684" lon="9.4416"><time>2024-03-23T11:55:51.000Z</time><ele>698.6</ele></trkpt><trkpt lat="45.816831" lon="9.441591"><time>2024-03-23T11:55:52.000Z</time><ele>698.6</ele></trkpt><trkpt lat="45.816826" lon="9.441585"><time>2024-03-23T11:55:53.000Z</time><ele>698.8</ele></trkpt><trkpt lat="45.816822" lon="9.44158"><time>2024-03-23T11:55:54.000Z</time><ele>699.2</ele></trkpt><trkpt lat="45.816814" lon="9.441574"><time>2024-03-23T11:55:55.000Z</time><ele>699.4</ele></trkpt><trkpt lat="45.816806" lon="9.441567"><time>2024-03-23T11:55:56.000Z</time><ele>699.4</ele></trkpt><trkpt lat="45.816795" lon="9.441561"><time>2024-03-23T11:55:57.000Z</time><ele>699.4</ele></trkpt><trkpt lat="45.816792" lon="9.441557"><time>2024-03-23T11:55:58.000Z</time><ele>699.4</ele></trkpt><trkpt lat="45.816785" lon="9.441552"><time>2024-03-23T11:55:59.000Z</time><ele>699.6</ele></trkpt><trkpt lat="45.81678" lon="9.441542"><time>2024-03-23T11:56:00.000Z</time><ele>699.6</ele></trkpt><trkpt lat="45.816772" lon="9.441533"><time>2024-03-23T11:56:01.000Z</time><ele>699.6</ele></trkpt><trkpt lat="45.816765" lon="9.441523"><time>2024-03-23T11:56:02.000Z</time><ele>699.8</ele></trkpt><trkpt lat="45.816757" lon="9.441513"><time>2024-03-23T11:56:03.000Z</time><ele>699.8</ele></trkpt><trkpt lat="45.81675" lon="9.441489"><time>2024-03-23T11:56:04.000Z</time><ele>700</ele></trkpt><trkpt lat="45.816739" lon="9.441467"><time>2024-03-23T11:56:05.000Z</time><ele>700</ele></trkpt><trkpt lat="45.81673" lon="9.441454"><time>2024-03-23T11:56:06.000Z</time><ele>700.2</ele></trkpt><trkpt lat="45.816717" lon="9.441445"><time>2024-03-23T11:56:07.000Z</time><ele>700.2</ele></trkpt><trkpt lat="45.816707" lon="9.441438"><time>2024-03-23T11:56:08.000Z</time><ele>700.4</ele></trkpt><trkpt lat="45.816698" lon="9.441418"><time>2024-03-23T11:56:09.000Z</time><ele>700.6</ele></trkpt><trkpt lat="45.816689" lon="9.441406"><time>2024-03-23T11:56:10.000Z</time><ele>700.6</ele></trkpt><trkpt lat="45.816682" lon="9.441396"><time>2024-03-23T11:56:11.000Z</time><ele>700.6</ele></trkpt><trkpt lat="45.816672" lon="9.441387"><time>2024-03-23T11:56:12.000Z</time><ele>700.8</ele></trkpt><trkpt lat="45.816663" lon="9.441381"><time>2024-03-23T11:56:13.000Z</time><ele>701</ele></trkpt><trkpt lat="45.816653" lon="9.441376"><time>2024-03-23T11:56:14.000Z</time><ele>701</ele></trkpt><trkpt lat="45.816646" lon="9.441369"><time>2024-03-23T11:56:15.000Z</time><ele>701</ele></trkpt><trkpt lat="45.816635" lon="9.441363"><time>2024-03-23T11:56:16.000Z</time><ele>701.2</ele></trkpt><trkpt lat="45.816627" lon="9.441352"><time>2024-03-23T11:56:17.000Z</time><ele>701.2</ele></trkpt><trkpt lat="45.816618" lon="9.441339"><time>2024-03-23T11:56:18.000Z</time><ele>701.2</ele></trkpt><trkpt lat="45.816608" lon="9.441328"><time>2024-03-23T11:56:19.000Z</time><ele>701.4</ele></trkpt><trkpt lat="45.8166" lon="9.441317"><time>2024-03-23T11:56:20.000Z</time><ele>701.4</ele></trkpt><trkpt lat="45.816598" lon="9.4413"><time>2024-03-23T11:56:21.000Z</time><ele>701.6</ele></trkpt><trkpt lat="45.816596" lon="9.441294"><time>2024-03-23T11:56:22.000Z</time><ele>701.8</ele></trkpt><trkpt lat="45.816591" lon="9.44128"><time>2024-03-23T11:56:23.000Z</time><ele>701.8</ele></trkpt><trkpt lat="45.816585" lon="9.441272"><time>2024-03-23T11:56:24.000Z</time><ele>701.8</ele></trkpt><trkpt lat="45.816581" lon="9.441262"><time>2024-03-23T11:56:25.000Z</time><ele>702</ele></trkpt><trkpt lat="45.816576" lon="9.441251"><time>2024-03-23T11:56:26.000Z</time><ele>702.2</ele></trkpt><trkpt lat="45.816569" lon="9.441234"><time>2024-03-23T11:56:27.000Z</time><ele>702.2</ele></trkpt><trkpt lat="45.816561" lon="9.441221"><time>2024-03-23T11:56:28.000Z</time><ele>702.4</ele></trkpt><trkpt lat="45.816553" lon="9.44121"><time>2024-03-23T11:56:29.000Z</time><ele>702.4</ele></trkpt><trkpt lat="45.816545" lon="9.441197"><time>2024-03-23T11:56:30.000Z</time><ele>702.6</ele></trkpt><trkpt lat="45.816536" lon="9.441185"><time>2024-03-23T11:56:31.000Z</time><ele>702.6</ele></trkpt><trkpt lat="45.816529" lon="9.441173"><time>2024-03-23T11:56:32.000Z</time><ele>702.8</ele></trkpt><trkpt lat="45.816521" lon="9.44116"><time>2024-03-23T11:56:33.000Z</time><ele>702.8</ele></trkpt><trkpt lat="45.816513" lon="9.44115"><time>2024-03-23T11:56:34.000Z</time><ele>702.8</ele></trkpt><trkpt lat="45.816508" lon="9.441139"><time>2024-03-23T11:56:35.000Z</time><ele>703</ele></trkpt><trkpt lat="45.816501" lon="9.441131"><time>2024-03-23T11:56:36.000Z</time><ele>703</ele></trkpt><trkpt lat="45.816494" lon="9.441125"><time>2024-03-23T11:56:37.000Z</time><ele>703.4</ele></trkpt><trkpt lat="45.816485" lon="9.441119"><time>2024-03-23T11:56:38.000Z</time><ele>703.6</ele></trkpt><trkpt lat="45.81648" lon="9.44111"><time>2024-03-23T11:56:39.000Z</time><ele>704</ele></trkpt><trkpt lat="45.816473" lon="9.441101"><time>2024-03-23T11:56:40.000Z</time><ele>704.2</ele></trkpt><trkpt lat="45.816464" lon="9.441096"><time>2024-03-23T11:56:41.000Z</time><ele>704.2</ele></trkpt><trkpt lat="45.816453" lon="9.441092"><time>2024-03-23T11:56:42.000Z</time><ele>704.4</ele></trkpt><trkpt lat="45.816442" lon="9.44109"><time>2024-03-23T11:56:43.000Z</time><ele>704.4</ele></trkpt><trkpt lat="45.816431" lon="9.441085"><time>2024-03-23T11:56:44.000Z</time><ele>704.6</ele></trkpt><trkpt lat="45.81642" lon="9.44108"><time>2024-03-23T11:56:45.000Z</time><ele>704.6</ele></trkpt><trkpt lat="45.816408" lon="9.441076"><time>2024-03-23T11:56:46.000Z</time><ele>704.6</ele></trkpt><trkpt lat="45.8164" lon="9.44107"><time>2024-03-23T11:56:47.000Z</time><ele>704.8</ele></trkpt><trkpt lat="45.81639" lon="9.441053"><time>2024-03-23T11:56:48.000Z</time><ele>704.8</ele></trkpt><trkpt lat="45.816373" lon="9.441044"><time>2024-03-23T11:56:49.000Z</time><ele>704.8</ele></trkpt><trkpt lat="45.816357" lon="9.441036"><time>2024-03-23T11:56:50.000Z</time><ele>705</ele></trkpt><trkpt lat="45.816344" lon="9.441027"><time>2024-03-23T11:56:51.000Z</time><ele>705</ele></trkpt><trkpt lat="45.816332" lon="9.441028"><time>2024-03-23T11:56:52.000Z</time><ele>705.2</ele></trkpt><trkpt lat="45.816322" lon="9.441023"><time>2024-03-23T11:56:53.000Z</time><ele>705.2</ele></trkpt><trkpt lat="45.816314" lon="9.441019"><time>2024-03-23T11:56:54.000Z</time><ele>705.2</ele></trkpt><trkpt lat="45.816305" lon="9.441016"><time>2024-03-23T11:56:55.000Z</time><ele>705.4</ele></trkpt><trkpt lat="45.816299" lon="9.441008"><time>2024-03-23T11:56:56.000Z</time><ele>705.4</ele></trkpt><trkpt lat="45.816285" lon="9.441004"><time>2024-03-23T11:56:57.000Z</time><ele>705.6</ele></trkpt><trkpt lat="45.816271" lon="9.441007"><time>2024-03-23T11:56:58.000Z</time><ele>705.6</ele></trkpt><trkpt lat="45.81626" lon="9.441016"><time>2024-03-23T11:56:59.000Z</time><ele>705.6</ele></trkpt><trkpt lat="45.816248" lon="9.441025"><time>2024-03-23T11:57:00.000Z</time><ele>705.8</ele></trkpt><trkpt lat="45.816233" lon="9.441026"><time>2024-03-23T11:57:01.000Z</time><ele>705.8</ele></trkpt><trkpt lat="45.816221" lon="9.441023"><time>2024-03-23T11:57:02.000Z</time><ele>706</ele></trkpt><trkpt lat="45.816206" lon="9.441028"><time>2024-03-23T11:57:03.000Z</time><ele>706</ele></trkpt><trkpt lat="45.816197" lon="9.441034"><time>2024-03-23T11:57:04.000Z</time><ele>706.2</ele></trkpt><trkpt lat="45.816193" lon="9.441036"><time>2024-03-23T11:57:05.000Z</time><ele>706.4</ele></trkpt><trkpt lat="45.816185" lon="9.441033"><time>2024-03-23T11:57:06.000Z</time><ele>706.6</ele></trkpt><trkpt lat="45.816177" lon="9.441033"><time>2024-03-23T11:57:07.000Z</time><ele>706.6</ele></trkpt><trkpt lat="45.816166" lon="9.441027"><time>2024-03-23T11:57:08.000Z</time><ele>706.8</ele></trkpt><trkpt lat="45.816159" lon="9.441018"><time>2024-03-23T11:57:09.000Z</time><ele>707</ele></trkpt><trkpt lat="45.816157" lon="9.441012"><time>2024-03-23T11:57:10.000Z</time><ele>707.2</ele></trkpt><trkpt lat="45.816156" lon="9.441008"><time>2024-03-23T11:57:11.000Z</time><ele>707.6</ele></trkpt><trkpt lat="45.816154" lon="9.441005"><time>2024-03-23T11:57:12.000Z</time><ele>707.8</ele></trkpt><trkpt lat="45.81615" lon="9.441002"><time>2024-03-23T11:57:13.000Z</time><ele>707.8</ele></trkpt><trkpt lat="45.816142" lon="9.441"><time>2024-03-23T11:57:14.000Z</time><ele>708</ele></trkpt><trkpt lat="45.816137" lon="9.440998"><time>2024-03-23T11:57:15.000Z</time><ele>708.2</ele></trkpt><trkpt lat="45.816133" lon="9.440997"><time>2024-03-23T11:57:16.000Z</time><ele>708.4</ele></trkpt><trkpt lat="45.816127" lon="9.440992"><time>2024-03-23T11:57:17.000Z</time><ele>708.6</ele></trkpt><trkpt lat="45.816122" lon="9.440985"><time>2024-03-23T11:57:18.000Z</time><ele>708.6</ele></trkpt><trkpt lat="45.816114" lon="9.440983"><time>2024-03-23T11:57:19.000Z</time><ele>708.8</ele></trkpt><trkpt lat="45.816105" lon="9.440978"><time>2024-03-23T11:57:20.000Z</time><ele>708.8</ele></trkpt><trkpt lat="45.816098" lon="9.440971"><time>2024-03-23T11:57:21.000Z</time><ele>708.8</ele></trkpt><trkpt lat="45.81609" lon="9.440965"><time>2024-03-23T11:57:22.000Z</time><ele>709.2</ele></trkpt><trkpt lat="45.81608" lon="9.440961"><time>2024-03-23T11:57:23.000Z</time><ele>709.2</ele></trkpt><trkpt lat="45.816072" lon="9.440956"><time>2024-03-23T11:57:24.000Z</time><ele>709.4</ele></trkpt><trkpt lat="45.816064" lon="9.440953"><time>2024-03-23T11:57:25.000Z</time><ele>709.6</ele></trkpt><trkpt lat="45.816056" lon="9.44095"><time>2024-03-23T11:57:26.000Z</time><ele>709.6</ele></trkpt><trkpt lat="45.816049" lon="9.440947"><time>2024-03-23T11:57:27.000Z</time><ele>709.8</ele></trkpt><trkpt lat="45.816041" lon="9.440941"><time>2024-03-23T11:57:28.000Z</time><ele>709.8</ele></trkpt><trkpt lat="45.816035" lon="9.440939"><time>2024-03-23T11:57:29.000Z</time><ele>710.2</ele></trkpt><trkpt lat="45.816032" lon="9.440937"><time>2024-03-23T11:57:30.000Z</time><ele>710.4</ele></trkpt><trkpt lat="45.816024" lon="9.440936"><time>2024-03-23T11:57:31.000Z</time><ele>710.6</ele></trkpt><trkpt lat="45.816017" lon="9.440935"><time>2024-03-23T11:57:32.000Z</time><ele>710.8</ele></trkpt><trkpt lat="45.816005" lon="9.440937"><time>2024-03-23T11:57:33.000Z</time><ele>710.8</ele></trkpt><trkpt lat="45.815992" lon="9.440935"><time>2024-03-23T11:57:34.000Z</time><ele>711</ele></trkpt><trkpt lat="45.815987" lon="9.440935"><time>2024-03-23T11:57:35.000Z</time><ele>711</ele></trkpt><trkpt lat="45.815973" lon="9.440929"><time>2024-03-23T11:57:36.000Z</time><ele>711.2</ele></trkpt><trkpt lat="45.815961" lon="9.440918"><time>2024-03-23T11:57:37.000Z</time><ele>711.4</ele></trkpt><trkpt lat="45.815949" lon="9.440905"><time>2024-03-23T11:57:38.000Z</time><ele>711.4</ele></trkpt><trkpt lat="45.815936" lon="9.440904"><time>2024-03-23T11:57:39.000Z</time><ele>711.4</ele></trkpt><trkpt lat="45.81592" lon="9.440902"><time>2024-03-23T11:57:40.000Z</time><ele>711.6</ele></trkpt><trkpt lat="45.815905" lon="9.440892"><time>2024-03-23T11:57:41.000Z</time><ele>711.6</ele></trkpt><trkpt lat="45.815893" lon="9.440884"><time>2024-03-23T11:57:42.000Z</time><ele>712</ele></trkpt><trkpt lat="45.815884" lon="9.440876"><time>2024-03-23T11:57:43.000Z</time><ele>712.2</ele></trkpt><trkpt lat="45.815874" lon="9.440871"><time>2024-03-23T11:57:44.000Z</time><ele>712.4</ele></trkpt><trkpt lat="45.815868" lon="9.440868"><time>2024-03-23T11:57:45.000Z</time><ele>712.6</ele></trkpt><trkpt lat="45.815861" lon="9.440866"><time>2024-03-23T11:57:46.000Z</time><ele>712.8</ele></trkpt><trkpt lat="45.815853" lon="9.440865"><time>2024-03-23T11:57:47.000Z</time><ele>712.8</ele></trkpt><trkpt lat="45.815845" lon="9.440866"><time>2024-03-23T11:57:48.000Z</time><ele>712.8</ele></trkpt><trkpt lat="45.815836" lon="9.440866"><time>2024-03-23T11:57:49.000Z</time><ele>713</ele></trkpt><trkpt lat="45.815824" lon="9.44087"><time>2024-03-23T11:57:50.000Z</time><ele>713</ele></trkpt><trkpt lat="45.815816" lon="9.440873"><time>2024-03-23T11:57:51.000Z</time><ele>713.2</ele></trkpt><trkpt lat="45.815807" lon="9.440873"><time>2024-03-23T11:57:52.000Z</time><ele>713.4</ele></trkpt><trkpt lat="45.815799" lon="9.44087"><time>2024-03-23T11:57:53.000Z</time><ele>713.4</ele></trkpt><trkpt lat="45.81579" lon="9.440867"><time>2024-03-23T11:57:54.000Z</time><ele>713.6</ele></trkpt><trkpt lat="45.815781" lon="9.440865"><time>2024-03-23T11:57:55.000Z</time><ele>713.6</ele></trkpt><trkpt lat="45.815771" lon="9.440863"><time>2024-03-23T11:57:56.000Z</time><ele>714</ele></trkpt><trkpt lat="45.815766" lon="9.440858"><time>2024-03-23T11:57:57.000Z</time><ele>714</ele></trkpt><trkpt lat="45.81576" lon="9.440853"><time>2024-03-23T11:57:58.000Z</time><ele>714.2</ele></trkpt><trkpt lat="45.815752" lon="9.440849"><time>2024-03-23T11:57:59.000Z</time><ele>714.4</ele></trkpt><trkpt lat="45.815747" lon="9.440846"><time>2024-03-23T11:58:00.000Z</time><ele>714.6</ele></trkpt><trkpt lat="45.81574" lon="9.440842"><time>2024-03-23T11:58:01.000Z</time><ele>714.6</ele></trkpt><trkpt lat="45.815736" lon="9.44084"><time>2024-03-23T11:58:02.000Z</time><ele>714.8</ele></trkpt><trkpt lat="45.815732" lon="9.440839"><time>2024-03-23T11:58:03.000Z</time><ele>715.2</ele></trkpt><trkpt lat="45.815724" lon="9.440836"><time>2024-03-23T11:58:04.000Z</time><ele>715.4</ele></trkpt><trkpt lat="45.815715" lon="9.44083"><time>2024-03-23T11:58:05.000Z</time><ele>715.6</ele></trkpt><trkpt lat="45.815705" lon="9.440828"><time>2024-03-23T11:58:06.000Z</time><ele>715.8</ele></trkpt><trkpt lat="45.815697" lon="9.440827"><time>2024-03-23T11:58:07.000Z</time><ele>716</ele></trkpt><trkpt lat="45.81569" lon="9.440824"><time>2024-03-23T11:58:08.000Z</time><ele>716.2</ele></trkpt><trkpt lat="45.815685" lon="9.440815"><time>2024-03-23T11:58:09.000Z</time><ele>716.2</ele></trkpt><trkpt lat="45.815679" lon="9.440809"><time>2024-03-23T11:58:10.000Z</time><ele>716.4</ele></trkpt><trkpt lat="45.815674" lon="9.440806"><time>2024-03-23T11:58:11.000Z</time><ele>716.6</ele></trkpt><trkpt lat="45.815671" lon="9.4408"><time>2024-03-23T11:58:12.000Z</time><ele>716.8</ele></trkpt><trkpt lat="45.815667" lon="9.440794"><time>2024-03-23T11:58:13.000Z</time><ele>716.8</ele></trkpt><trkpt lat="45.815663" lon="9.440791"><time>2024-03-23T11:58:14.000Z</time><ele>717</ele></trkpt><trkpt lat="45.815658" lon="9.440788"><time>2024-03-23T11:58:15.000Z</time><ele>717.2</ele></trkpt><trkpt lat="45.815655" lon="9.440783"><time>2024-03-23T11:58:16.000Z</time><ele>717.2</ele></trkpt><trkpt lat="45.815656" lon="9.440779"><time>2024-03-23T11:58:17.000Z</time><ele>717.6</ele></trkpt><trkpt lat="45.815653" lon="9.440772"><time>2024-03-23T11:58:18.000Z</time><ele>717.6</ele></trkpt><trkpt lat="45.815652" lon="9.440765"><time>2024-03-23T11:58:19.000Z</time><ele>718</ele></trkpt><trkpt lat="45.815648" lon="9.440758"><time>2024-03-23T11:58:20.000Z</time><ele>718</ele></trkpt><trkpt lat="45.815646" lon="9.44075"><time>2024-03-23T11:58:21.000Z</time><ele>718.4</ele></trkpt><trkpt lat="45.815644" lon="9.440742"><time>2024-03-23T11:58:22.000Z</time><ele>718.6</ele></trkpt><trkpt lat="45.815643" lon="9.440737"><time>2024-03-23T11:58:23.000Z</time><ele>718.8</ele></trkpt><trkpt lat="45.815641" lon="9.440736"><time>2024-03-23T11:58:24.000Z</time><ele>719</ele></trkpt><trkpt lat="45.815639" lon="9.440736"><time>2024-03-23T11:58:25.000Z</time><ele>719.2</ele></trkpt><trkpt lat="45.815638" lon="9.440735"><time>2024-03-23T11:58:26.000Z</time><ele>719.2</ele></trkpt><trkpt lat="45.815638" lon="9.440734"><time>2024-03-23T11:58:27.000Z</time><ele>719.2</ele></trkpt><trkpt lat="45.815638" lon="9.440731"><time>2024-03-23T11:58:28.000Z</time><ele>719.4</ele></trkpt><trkpt lat="45.815637" lon="9.440729"><time>2024-03-23T11:58:29.000Z</time><ele>719.4</ele></trkpt><trkpt lat="45.815636" lon="9.44073"><time>2024-03-23T11:58:30.000Z</time><ele>719.4</ele></trkpt><trkpt lat="45.815636" lon="9.44073"><time>2024-03-23T11:58:31.000Z</time><ele>719.4</ele></trkpt><trkpt lat="45.815635" lon="9.44073"><time>2024-03-23T11:58:32.000Z</time><ele>719.6</ele></trkpt><trkpt lat="45.815632" lon="9.440725"><time>2024-03-23T11:58:33.000Z</time><ele>719.6</ele></trkpt><trkpt lat="45.815625" lon="9.44072"><time>2024-03-23T11:58:34.000Z</time><ele>719.8</ele></trkpt><trkpt lat="45.815618" lon="9.440717"><time>2024-03-23T11:58:35.000Z</time><ele>720</ele></trkpt><trkpt lat="45.815609" lon="9.440721"><time>2024-03-23T11:58:36.000Z</time><ele>720</ele></trkpt><trkpt lat="45.815603" lon="9.440726"><time>2024-03-23T11:58:37.000Z</time><ele>720.2</ele></trkpt><trkpt lat="45.815601" lon="9.440727"><time>2024-03-23T11:58:38.000Z</time><ele>720.2</ele></trkpt><trkpt lat="45.815599" lon="9.440726"><time>2024-03-23T11:58:39.000Z</time><ele>720.4</ele></trkpt><trkpt lat="45.815597" lon="9.440725"><time>2024-03-23T11:58:40.000Z</time><ele>720.8</ele></trkpt><trkpt lat="45.815596" lon="9.440724"><time>2024-03-23T11:58:41.000Z</time><ele>721</ele></trkpt><trkpt lat="45.815592" lon="9.440721"><time>2024-03-23T11:58:42.000Z</time><ele>721.2</ele></trkpt><trkpt lat="45.815586" lon="9.440722"><time>2024-03-23T11:58:43.000Z</time><ele>721.2</ele></trkpt><trkpt lat="45.815578" lon="9.440724"><time>2024-03-23T11:58:44.000Z</time><ele>721.2</ele></trkpt><trkpt lat="45.815569" lon="9.440727"><time>2024-03-23T11:58:45.000Z</time><ele>721.2</ele></trkpt><trkpt lat="45.815562" lon="9.440728"><time>2024-03-23T11:58:46.000Z</time><ele>721.4</ele></trkpt><trkpt lat="45.815553" lon="9.440727"><time>2024-03-23T11:58:47.000Z</time><ele>721.4</ele></trkpt><trkpt lat="45.815543" lon="9.440725"><time>2024-03-23T11:58:48.000Z</time><ele>721.4</ele></trkpt><trkpt lat="45.815535" lon="9.440726"><time>2024-03-23T11:58:49.000Z</time><ele>721.6</ele></trkpt><trkpt lat="45.815526" lon="9.44073"><time>2024-03-23T11:58:50.000Z</time><ele>721.8</ele></trkpt><trkpt lat="45.815517" lon="9.440732"><time>2024-03-23T11:58:51.000Z</time><ele>722</ele></trkpt><trkpt lat="45.815509" lon="9.440738"><time>2024-03-23T11:58:52.000Z</time><ele>722</ele></trkpt><trkpt lat="45.815499" lon="9.440741"><time>2024-03-23T11:58:53.000Z</time><ele>722</ele></trkpt><trkpt lat="45.815489" lon="9.440744"><time>2024-03-23T11:58:54.000Z</time><ele>722</ele></trkpt><trkpt lat="45.815481" lon="9.440747"><time>2024-03-23T11:58:55.000Z</time><ele>722</ele></trkpt><trkpt lat="45.815478" lon="9.440752"><time>2024-03-23T11:58:56.000Z</time><ele>722</ele></trkpt><trkpt lat="45.815472" lon="9.440751"><time>2024-03-23T11:58:57.000Z</time><ele>722</ele></trkpt><trkpt lat="45.815465" lon="9.440749"><time>2024-03-23T11:58:58.000Z</time><ele>722</ele></trkpt><trkpt lat="45.815461" lon="9.440748"><time>2024-03-23T11:58:59.000Z</time><ele>722.2</ele></trkpt><trkpt lat="45.815458" lon="9.440743"><time>2024-03-23T11:59:00.000Z</time><ele>722.2</ele></trkpt><trkpt lat="45.815455" lon="9.440733"><time>2024-03-23T11:59:01.000Z</time><ele>722.4</ele></trkpt><trkpt lat="45.815452" lon="9.440721"><time>2024-03-23T11:59:02.000Z</time><ele>722.4</ele></trkpt><trkpt lat="45.815449" lon="9.440713"><time>2024-03-23T11:59:03.000Z</time><ele>722.4</ele></trkpt><trkpt lat="45.815443" lon="9.440704"><time>2024-03-23T11:59:04.000Z</time><ele>722.4</ele></trkpt><trkpt lat="45.815439" lon="9.4407"><time>2024-03-23T11:59:05.000Z</time><ele>722.4</ele></trkpt><trkpt lat="45.815438" lon="9.4407"><time>2024-03-23T11:59:06.000Z</time><ele>722.4</ele></trkpt><trkpt lat="45.815437" lon="9.4407"><time>2024-03-23T11:59:07.000Z</time><ele>722.2</ele></trkpt><trkpt lat="45.815437" lon="9.440701"><time>2024-03-23T11:59:08.000Z</time><ele>722.2</ele></trkpt><trkpt lat="45.815436" lon="9.4407"><time>2024-03-23T11:59:09.000Z</time><ele>722.2</ele></trkpt><trkpt lat="45.815436" lon="9.440699"><time>2024-03-23T11:59:10.000Z</time><ele>722.2</ele></trkpt><trkpt lat="45.815437" lon="9.440698"><time>2024-03-23T11:59:11.000Z</time><ele>722.2</ele></trkpt><trkpt lat="45.815438" lon="9.440698"><time>2024-03-23T11:59:12.000Z</time><ele>722.2</ele></trkpt><trkpt lat="45.815439" lon="9.440697"><time>2024-03-23T11:59:13.000Z</time><ele>722</ele></trkpt><trkpt lat="45.815441" lon="9.440697"><time>2024-03-23T11:59:14.000Z</time><ele>722</ele></trkpt><trkpt lat="45.815441" lon="9.440697"><time>2024-03-23T11:59:15.000Z</time><ele>722</ele></trkpt><trkpt lat="45.815439" lon="9.440696"><time>2024-03-23T11:59:16.000Z</time><ele>722</ele></trkpt><trkpt lat="45.815438" lon="9.440698"><time>2024-03-23T11:59:17.000Z</time><ele>722</ele></trkpt><trkpt lat="45.815438" lon="9.440699"><time>2024-03-23T11:59:18.000Z</time><ele>721.8</ele></trkpt><trkpt lat="45.815439" lon="9.440701"><time>2024-03-23T11:59:19.000Z</time><ele>721.8</ele></trkpt><trkpt lat="45.815438" lon="9.440701"><time>2024-03-23T11:59:20.000Z</time><ele>721.8</ele></trkpt><trkpt lat="45.815438" lon="9.440701"><time>2024-03-23T11:59:21.000Z</time><ele>721.8</ele></trkpt><trkpt lat="45.815438" lon="9.440701"><time>2024-03-23T11:59:22.000Z</time><ele>721.8</ele></trkpt><trkpt lat="45.815438" lon="9.440701"><time>2024-03-23T11:59:23.000Z</time><ele>721.8</ele></trkpt><trkpt lat="45.815438" lon="9.440701"><time>2024-03-23T11:59:24.000Z</time><ele>721.8</ele></trkpt><trkpt lat="45.815438" lon="9.440701"><time>2024-03-23T11:59:25.000Z</time><ele>721.8</ele></trkpt><trkpt lat="45.815438" lon="9.440701"><time>2024-03-23T11:59:26.000Z</time><ele>721.8</ele></trkpt><trkpt lat="45.815438" lon="9.440701"><time>2024-03-23T11:59:27.000Z</time><ele>721.8</ele></trkpt><trkpt lat="45.815438" lon="9.440701"><time>2024-03-23T11:59:28.000Z</time><ele>722</ele></trkpt><trkpt lat="45.815438" lon="9.440701"><time>2024-03-23T11:59:29.000Z</time><ele>722</ele></trkpt><trkpt lat="45.815438" lon="9.440701"><time>2024-03-23T11:59:30.000Z</time><ele>722</ele></trkpt><trkpt lat="45.815438" lon="9.440701"><time>2024-03-23T11:59:31.000Z</time><ele>722.2</ele></trkpt><trkpt lat="45.815438" lon="9.440701"><time>2024-03-23T11:59:32.000Z</time><ele>722.2</ele></trkpt><trkpt lat="45.815438" lon="9.440701"><time>2024-03-23T11:59:33.000Z</time><ele>722.2</ele></trkpt><trkpt lat="45.815438" lon="9.440701"><time>2024-03-23T11:59:34.000Z</time><ele>722.2</ele></trkpt><trkpt lat="45.815438" lon="9.440701"><time>2024-03-23T11:59:35.000Z</time><ele>722.2</ele></trkpt><trkpt lat="45.815438" lon="9.440701"><time>2024-03-23T11:59:36.000Z</time><ele>722.2</ele></trkpt><trkpt lat="45.815438" lon="9.440701"><time>2024-03-23T11:59:37.000Z</time><ele>722.2</ele></trkpt><trkpt lat="45.815439" lon="9.440701"><time>2024-03-23T11:59:38.000Z</time><ele>722.2</ele></trkpt><trkpt lat="45.815439" lon="9.440701"><time>2024-03-23T11:59:39.000Z</time><ele>722.2</ele></trkpt><trkpt lat="45.815439" lon="9.440701"><time>2024-03-23T11:59:40.000Z</time><ele>722.2</ele></trkpt><trkpt lat="45.81544" lon="9.440699"><time>2024-03-23T11:59:41.000Z</time><ele>722.2</ele></trkpt><trkpt lat="45.81544" lon="9.440699"><time>2024-03-23T11:59:42.000Z</time><ele>722.2</ele></trkpt><trkpt lat="45.81544" lon="9.440699"><time>2024-03-23T11:59:43.000Z</time><ele>722.2</ele></trkpt><trkpt lat="45.81544" lon="9.440699"><time>2024-03-23T11:59:44.000Z</time><ele>722.2</ele></trkpt><trkpt lat="45.81544" lon="9.440699"><time>2024-03-23T11:59:45.000Z</time><ele>722.2</ele></trkpt><trkpt lat="45.815441" lon="9.440699"><time>2024-03-23T11:59:46.000Z</time><ele>722.2</ele></trkpt><trkpt lat="45.815441" lon="9.440699"><time>2024-03-23T11:59:47.000Z</time><ele>722.2</ele></trkpt><trkpt lat="45.815442" lon="9.440698"><time>2024-03-23T11:59:48.000Z</time><ele>722.2</ele></trkpt><trkpt lat="45.815442" lon="9.440697"><time>2024-03-23T11:59:49.000Z</time><ele>722.2</ele></trkpt><trkpt lat="45.815442" lon="9.440697"><time>2024-03-23T11:59:50.000Z</time><ele>722.2</ele></trkpt><trkpt lat="45.815443" lon="9.440696"><time>2024-03-23T11:59:51.000Z</time><ele>722.2</ele></trkpt><trkpt lat="45.815443" lon="9.440696"><time>2024-03-23T11:59:52.000Z</time><ele>722.2</ele></trkpt><trkpt lat="45.815444" lon="9.440696"><time>2024-03-23T11:59:53.000Z</time><ele>722.2</ele></trkpt><trkpt lat="45.815445" lon="9.440696"><time>2024-03-23T11:59:54.000Z</time><ele>722.2</ele></trkpt><trkpt lat="45.815445" lon="9.440696"><time>2024-03-23T11:59:55.000Z</time><ele>722.2</ele></trkpt><trkpt lat="45.815445" lon="9.440696"><time>2024-03-23T11:59:56.000Z</time><ele>722</ele></trkpt><trkpt lat="45.815445" lon="9.440695"><time>2024-03-23T11:59:57.000Z</time><ele>722</ele></trkpt><trkpt lat="45.815445" lon="9.440695"><time>2024-03-23T11:59:58.000Z</time><ele>722</ele></trkpt><trkpt lat="45.815446" lon="9.440696"><time>2024-03-23T11:59:59.000Z</time><ele>722</ele></trkpt><trkpt lat="45.815446" lon="9.440696"><time>2024-03-23T12:00:00.000Z</time><ele>722</ele></trkpt><trkpt lat="45.815446" lon="9.440695"><time>2024-03-23T12:00:01.000Z</time><ele>722</ele></trkpt><trkpt lat="45.815446" lon="9.440695"><time>2024-03-23T12:00:02.000Z</time><ele>722</ele></trkpt><trkpt lat="45.815446" lon="9.440695"><time>2024-03-23T12:00:03.000Z</time><ele>722</ele></trkpt><trkpt lat="45.815446" lon="9.440695"><time>2024-03-23T12:00:04.000Z</time><ele>722.2</ele></trkpt><trkpt lat="45.815446" lon="9.440695"><time>2024-03-23T12:00:05.000Z</time><ele>722.2</ele></trkpt><trkpt lat="45.815446" lon="9.440695"><time>2024-03-23T12:00:06.000Z</time><ele>722.2</ele></trkpt><trkpt lat="45.815446" lon="9.440695"><time>2024-03-23T12:00:07.000Z</time><ele>722.2</ele></trkpt><trkpt lat="45.815446" lon="9.440695"><time>2024-03-23T12:00:08.000Z</time><ele>722.2</ele></trkpt><trkpt lat="45.815446" lon="9.440695"><time>2024-03-23T12:00:09.000Z</time><ele>722.2</ele></trkpt><trkpt lat="45.815446" lon="9.440695"><time>2024-03-23T12:00:10.000Z</time><ele>722.2</ele></trkpt><trkpt lat="45.815446" lon="9.440695"><time>2024-03-23T12:00:11.000Z</time><ele>722.2</ele></trkpt><trkpt lat="45.815446" lon="9.440695"><time>2024-03-23T12:00:12.000Z</time><ele>722.2</ele></trkpt><trkpt lat="45.815446" lon="9.440695"><time>2024-03-23T12:00:13.000Z</time><ele>722.2</ele></trkpt><trkpt lat="45.815446" lon="9.440695"><time>2024-03-23T12:00:14.000Z</time><ele>722.2</ele></trkpt><trkpt lat="45.815446" lon="9.440695"><time>2024-03-23T12:00:15.000Z</time><ele>722.2</ele></trkpt><trkpt lat="45.815446" lon="9.440695"><time>2024-03-23T12:00:16.000Z</time><ele>722.2</ele></trkpt><trkpt lat="45.815446" lon="9.440695"><time>2024-03-23T12:00:17.000Z</time><ele>722.4</ele></trkpt><trkpt lat="45.815446" lon="9.440695"><time>2024-03-23T12:00:18.000Z</time><ele>722.6</ele></trkpt><trkpt lat="45.815446" lon="9.440695"><time>2024-03-23T12:00:19.000Z</time><ele>722.8</ele></trkpt><trkpt lat="45.815446" lon="9.440696"><time>2024-03-23T12:00:20.000Z</time><ele>723</ele></trkpt><trkpt lat="45.815447" lon="9.440696"><time>2024-03-23T12:00:21.000Z</time><ele>723</ele></trkpt><trkpt lat="45.815447" lon="9.440696"><time>2024-03-23T12:00:22.000Z</time><ele>723</ele></trkpt><trkpt lat="45.815447" lon="9.440697"><time>2024-03-23T12:00:23.000Z</time><ele>723.2</ele></trkpt><trkpt lat="45.815448" lon="9.440697"><time>2024-03-23T12:00:24.000Z</time><ele>723.2</ele></trkpt><trkpt lat="45.815448" lon="9.440697"><time>2024-03-23T12:00:25.000Z</time><ele>723.2</ele></trkpt><trkpt lat="45.815448" lon="9.440697"><time>2024-03-23T12:00:26.000Z</time><ele>723.2</ele></trkpt><trkpt lat="45.815449" lon="9.440699"><time>2024-03-23T12:00:27.000Z</time><ele>723.2</ele></trkpt><trkpt lat="45.815451" lon="9.440701"><time>2024-03-23T12:00:28.000Z</time><ele>723.2</ele></trkpt><trkpt lat="45.815454" lon="9.440701"><time>2024-03-23T12:00:29.000Z</time><ele>723.2</ele></trkpt><trkpt lat="45.81546" lon="9.440701"><time>2024-03-23T12:00:30.000Z</time><ele>723.2</ele></trkpt><trkpt lat="45.815465" lon="9.440701"><time>2024-03-23T12:00:31.000Z</time><ele>723.2</ele></trkpt><trkpt lat="45.815466" lon="9.440701"><time>2024-03-23T12:00:32.000Z</time><ele>723</ele></trkpt><trkpt lat="45.815469" lon="9.440704"><time>2024-03-23T12:00:33.000Z</time><ele>723</ele></trkpt><trkpt lat="45.81548" lon="9.440712"><time>2024-03-23T12:00:34.000Z</time><ele>723</ele></trkpt><trkpt lat="45.815492" lon="9.44072"><time>2024-03-23T12:00:35.000Z</time><ele>723</ele></trkpt><trkpt lat="45.815504" lon="9.440728"><time>2024-03-23T12:00:36.000Z</time><ele>723</ele></trkpt><trkpt lat="45.815518" lon="9.440735"><time>2024-03-23T12:00:37.000Z</time><ele>723</ele></trkpt><trkpt lat="45.815529" lon="9.44074"><time>2024-03-23T12:00:38.000Z</time><ele>723</ele></trkpt><trkpt lat="45.815537" lon="9.440747"><time>2024-03-23T12:00:39.000Z</time><ele>723</ele></trkpt><trkpt lat="45.815545" lon="9.440751"><time>2024-03-23T12:00:40.000Z</time><ele>722.8</ele></trkpt><trkpt lat="45.815553" lon="9.440754"><time>2024-03-23T12:00:41.000Z</time><ele>722.8</ele></trkpt><trkpt lat="45.815562" lon="9.440755"><time>2024-03-23T12:00:42.000Z</time><ele>722.8</ele></trkpt><trkpt lat="45.815572" lon="9.440753"><time>2024-03-23T12:00:43.000Z</time><ele>722.6</ele></trkpt><trkpt lat="45.815578" lon="9.440751"><time>2024-03-23T12:00:44.000Z</time><ele>722.4</ele></trkpt><trkpt lat="45.815583" lon="9.440749"><time>2024-03-23T12:00:45.000Z</time><ele>722.2</ele></trkpt><trkpt lat="45.81559" lon="9.440751"><time>2024-03-23T12:00:46.000Z</time><ele>722.2</ele></trkpt><trkpt lat="45.815595" lon="9.440741"><time>2024-03-23T12:00:47.000Z</time><ele>722</ele></trkpt><trkpt lat="45.815598" lon="9.440739"><time>2024-03-23T12:00:48.000Z</time><ele>722</ele></trkpt><trkpt lat="45.815599" lon="9.440739"><time>2024-03-23T12:00:49.000Z</time><ele>722</ele></trkpt><trkpt lat="45.8156" lon="9.440738"><time>2024-03-23T12:00:50.000Z</time><ele>722</ele></trkpt><trkpt lat="45.815599" lon="9.440738"><time>2024-03-23T12:00:51.000Z</time><ele>721.8</ele></trkpt><trkpt lat="45.815601" lon="9.440743"><time>2024-03-23T12:00:52.000Z</time><ele>722</ele></trkpt><trkpt lat="45.815602" lon="9.440744"><time>2024-03-23T12:00:53.000Z</time><ele>722</ele></trkpt><trkpt lat="45.815604" lon="9.440743"><time>2024-03-23T12:00:54.000Z</time><ele>722</ele></trkpt><trkpt lat="45.815604" lon="9.440744"><time>2024-03-23T12:00:55.000Z</time><ele>722</ele></trkpt><trkpt lat="45.815604" lon="9.440744"><time>2024-03-23T12:00:56.000Z</time><ele>722</ele></trkpt><trkpt lat="45.815604" lon="9.440743"><time>2024-03-23T12:00:57.000Z</time><ele>722</ele></trkpt><trkpt lat="45.815604" lon="9.440743"><time>2024-03-23T12:00:58.000Z</time><ele>722</ele></trkpt><trkpt lat="45.815604" lon="9.440743"><time>2024-03-23T12:00:59.000Z</time><ele>722</ele></trkpt><trkpt lat="45.815604" lon="9.440743"><time>2024-03-23T12:01:00.000Z</time><ele>722</ele></trkpt><trkpt lat="45.815604" lon="9.440743"><time>2024-03-23T12:01:01.000Z</time><ele>722</ele></trkpt><trkpt lat="45.815604" lon="9.440743"><time>2024-03-23T12:01:02.000Z</time><ele>722</ele></trkpt><trkpt lat="45.815604" lon="9.440743"><time>2024-03-23T12:01:03.000Z</time><ele>721.8</ele></trkpt><trkpt lat="45.815604" lon="9.440743"><time>2024-03-23T12:01:04.000Z</time><ele>721.8</ele></trkpt><trkpt lat="45.815604" lon="9.440743"><time>2024-03-23T12:01:05.000Z</time><ele>721.8</ele></trkpt><trkpt lat="45.815604" lon="9.440743"><time>2024-03-23T12:01:06.000Z</time><ele>721.8</ele></trkpt><trkpt lat="45.815604" lon="9.440743"><time>2024-03-23T12:01:07.000Z</time><ele>721.8</ele></trkpt><trkpt lat="45.815604" lon="9.440743"><time>2024-03-23T12:01:08.000Z</time><ele>721.8</ele></trkpt><trkpt lat="45.815604" lon="9.440743"><time>2024-03-23T12:01:09.000Z</time><ele>721.8</ele></trkpt><trkpt lat="45.815604" lon="9.440743"><time>2024-03-23T12:01:10.000Z</time><ele>721.8</ele></trkpt><trkpt lat="45.815604" lon="9.440742"><time>2024-03-23T12:01:11.000Z</time><ele>721.8</ele></trkpt><trkpt lat="45.815604" lon="9.440741"><time>2024-03-23T12:01:12.000Z</time><ele>721.8</ele></trkpt><trkpt lat="45.815604" lon="9.440741"><time>2024-03-23T12:01:13.000Z</time><ele>721.8</ele></trkpt><trkpt lat="45.815603" lon="9.440741"><time>2024-03-23T12:01:14.000Z</time><ele>721.8</ele></trkpt><trkpt lat="45.815602" lon="9.440741"><time>2024-03-23T12:01:15.000Z</time><ele>721.8</ele></trkpt><trkpt lat="45.815602" lon="9.440741"><time>2024-03-23T12:01:16.000Z</time><ele>721.6</ele></trkpt><trkpt lat="45.815601" lon="9.44074"><time>2024-03-23T12:01:17.000Z</time><ele>721.6</ele></trkpt><trkpt lat="45.815601" lon="9.44074"><time>2024-03-23T12:01:18.000Z</time><ele>721.6</ele></trkpt><trkpt lat="45.815601" lon="9.44074"><time>2024-03-23T12:01:19.000Z</time><ele>721.6</ele></trkpt><trkpt lat="45.815601" lon="9.44074"><time>2024-03-23T12:01:20.000Z</time><ele>721.4</ele></trkpt><trkpt lat="45.815601" lon="9.44074"><time>2024-03-23T12:01:21.000Z</time><ele>721.4</ele></trkpt><trkpt lat="45.815602" lon="9.44074"><time>2024-03-23T12:01:22.000Z</time><ele>721.4</ele></trkpt><trkpt lat="45.815602" lon="9.44074"><time>2024-03-23T12:01:23.000Z</time><ele>721.2</ele></trkpt><trkpt lat="45.815602" lon="9.44074"><time>2024-03-23T12:01:24.000Z</time><ele>721.2</ele></trkpt><trkpt lat="45.815602" lon="9.44074"><time>2024-03-23T12:01:25.000Z</time><ele>721.2</ele></trkpt><trkpt lat="45.815602" lon="9.440739"><time>2024-03-23T12:01:26.000Z</time><ele>721.2</ele></trkpt><trkpt lat="45.815602" lon="9.440738"><time>2024-03-23T12:01:27.000Z</time><ele>721.2</ele></trkpt><trkpt lat="45.815602" lon="9.440736"><time>2024-03-23T12:01:28.000Z</time><ele>721.4</ele></trkpt><trkpt lat="45.815602" lon="9.440735"><time>2024-03-23T12:01:29.000Z</time><ele>721.6</ele></trkpt><trkpt lat="45.815602" lon="9.440734"><time>2024-03-23T12:01:30.000Z</time><ele>721.6</ele></trkpt><trkpt lat="45.815602" lon="9.440734"><time>2024-03-23T12:01:31.000Z</time><ele>721.8</ele></trkpt><trkpt lat="45.815602" lon="9.440732"><time>2024-03-23T12:01:32.000Z</time><ele>721.8</ele></trkpt><trkpt lat="45.815602" lon="9.440729"><time>2024-03-23T12:01:33.000Z</time><ele>721.8</ele></trkpt><trkpt lat="45.815602" lon="9.440726"><time>2024-03-23T12:01:34.000Z</time><ele>721.8</ele></trkpt><trkpt lat="45.815603" lon="9.440726"><time>2024-03-23T12:01:35.000Z</time><ele>721.8</ele></trkpt><trkpt lat="45.815606" lon="9.440724"><time>2024-03-23T12:01:36.000Z</time><ele>721.8</ele></trkpt><trkpt lat="45.815608" lon="9.440724"><time>2024-03-23T12:01:37.000Z</time><ele>721.8</ele></trkpt><trkpt lat="45.815611" lon="9.440723"><time>2024-03-23T12:01:38.000Z</time><ele>721.8</ele></trkpt><trkpt lat="45.815615" lon="9.440723"><time>2024-03-23T12:01:39.000Z</time><ele>721.6</ele></trkpt><trkpt lat="45.815616" lon="9.440723"><time>2024-03-23T12:01:40.000Z</time><ele>721.6</ele></trkpt><trkpt lat="45.815617" lon="9.440723"><time>2024-03-23T12:01:41.000Z</time><ele>721.6</ele></trkpt><trkpt lat="45.815618" lon="9.440722"><time>2024-03-23T12:01:42.000Z</time><ele>721.6</ele></trkpt><trkpt lat="45.815619" lon="9.440722"><time>2024-03-23T12:01:43.000Z</time><ele>721.6</ele></trkpt><trkpt lat="45.815619" lon="9.440721"><time>2024-03-23T12:01:44.000Z</time><ele>721.4</ele></trkpt><trkpt lat="45.815619" lon="9.440721"><time>2024-03-23T12:01:45.000Z</time><ele>721.4</ele></trkpt><trkpt lat="45.815619" lon="9.440721"><time>2024-03-23T12:01:46.000Z</time><ele>721.6</ele></trkpt><trkpt lat="45.815619" lon="9.44072"><time>2024-03-23T12:01:47.000Z</time><ele>721.6</ele></trkpt><trkpt lat="45.815619" lon="9.44072"><time>2024-03-23T12:01:48.000Z</time><ele>721.6</ele></trkpt><trkpt lat="45.815619" lon="9.44072"><time>2024-03-23T12:01:49.000Z</time><ele>721.6</ele></trkpt><trkpt lat="45.815619" lon="9.44072"><time>2024-03-23T12:01:50.000Z</time><ele>721.6</ele></trkpt><trkpt lat="45.815619" lon="9.44072"><time>2024-03-23T12:01:51.000Z</time><ele>721.6</ele></trkpt><trkpt lat="45.815619" lon="9.440719"><time>2024-03-23T12:01:52.000Z</time><ele>721.6</ele></trkpt><trkpt lat="45.815619" lon="9.440719"><time>2024-03-23T12:01:53.000Z</time><ele>721.6</ele></trkpt><trkpt lat="45.815619" lon="9.440718"><time>2024-03-23T12:01:54.000Z</time><ele>721.6</ele></trkpt><trkpt lat="45.815619" lon="9.440717"><time>2024-03-23T12:01:55.000Z</time><ele>721.4</ele></trkpt><trkpt lat="45.815619" lon="9.440717"><time>2024-03-23T12:01:56.000Z</time><ele>721.2</ele></trkpt><trkpt lat="45.815619" lon="9.440716"><time>2024-03-23T12:01:57.000Z</time><ele>721</ele></trkpt><trkpt lat="45.815619" lon="9.440715"><time>2024-03-23T12:01:58.000Z</time><ele>720.8</ele></trkpt><trkpt lat="45.815619" lon="9.440706"><time>2024-03-23T12:01:59.000Z</time><ele>720.4</ele></trkpt><trkpt lat="45.815618" lon="9.440681"><time>2024-03-23T12:02:00.000Z</time><ele>720.4</ele></trkpt><trkpt lat="45.815618" lon="9.440656"><time>2024-03-23T12:02:01.000Z</time><ele>720.2</ele></trkpt><trkpt lat="45.815621" lon="9.44063"><time>2024-03-23T12:02:02.000Z</time><ele>720.2</ele></trkpt><trkpt lat="45.815626" lon="9.440602"><time>2024-03-23T12:02:03.000Z</time><ele>720</ele></trkpt><trkpt lat="45.815629" lon="9.440577"><time>2024-03-23T12:02:04.000Z</time><ele>719.8</ele></trkpt><trkpt lat="45.815628" lon="9.440556"><time>2024-03-23T12:02:05.000Z</time><ele>719.6</ele></trkpt><trkpt lat="45.815628" lon="9.440533"><time>2024-03-23T12:02:06.000Z</time><ele>719.6</ele></trkpt><trkpt lat="45.815628" lon="9.440509"><time>2024-03-23T12:02:07.000Z</time><ele>719.4</ele></trkpt><trkpt lat="45.815625" lon="9.440487"><time>2024-03-23T12:02:08.000Z</time><ele>719.4</ele></trkpt><trkpt lat="45.815622" lon="9.440466"><time>2024-03-23T12:02:09.000Z</time><ele>719.4</ele></trkpt><trkpt lat="45.815623" lon="9.440444"><time>2024-03-23T12:02:10.000Z</time><ele>719.4</ele></trkpt><trkpt lat="45.815625" lon="9.440423"><time>2024-03-23T12:02:11.000Z</time><ele>719.4</ele></trkpt><trkpt lat="45.815626" lon="9.440406"><time>2024-03-23T12:02:12.000Z</time><ele>719.4</ele></trkpt><trkpt lat="45.815623" lon="9.440391"><time>2024-03-23T12:02:13.000Z</time><ele>719.4</ele></trkpt><trkpt lat="45.815621" lon="9.440377"><time>2024-03-23T12:02:14.000Z</time><ele>719.4</ele></trkpt><trkpt lat="45.815623" lon="9.440356"><time>2024-03-23T12:02:15.000Z</time><ele>719.4</ele></trkpt><trkpt lat="45.815625" lon="9.440341"><time>2024-03-23T12:02:16.000Z</time><ele>719.6</ele></trkpt><trkpt lat="45.815626" lon="9.440329"><time>2024-03-23T12:02:17.000Z</time><ele>719.8</ele></trkpt><trkpt lat="45.815627" lon="9.440311"><time>2024-03-23T12:02:18.000Z</time><ele>719.8</ele></trkpt><trkpt lat="45.81563" lon="9.440299"><time>2024-03-23T12:02:19.000Z</time><ele>719.8</ele></trkpt><trkpt lat="45.815631" lon="9.440286"><time>2024-03-23T12:02:20.000Z</time><ele>719.8</ele></trkpt><trkpt lat="45.815627" lon="9.44026"><time>2024-03-23T12:02:21.000Z</time><ele>719.8</ele></trkpt><trkpt lat="45.815621" lon="9.440235"><time>2024-03-23T12:02:22.000Z</time><ele>719.8</ele></trkpt><trkpt lat="45.815608" lon="9.440218"><time>2024-03-23T12:02:23.000Z</time><ele>719.8</ele></trkpt><trkpt lat="45.815604" lon="9.440206"><time>2024-03-23T12:02:24.000Z</time><ele>719.8</ele></trkpt><trkpt lat="45.815603" lon="9.440199"><time>2024-03-23T12:02:25.000Z</time><ele>719.8</ele></trkpt><trkpt lat="45.8156" lon="9.440189"><time>2024-03-23T12:02:26.000Z</time><ele>719.8</ele></trkpt><trkpt lat="45.815596" lon="9.440179"><time>2024-03-23T12:02:27.000Z</time><ele>719.8</ele></trkpt><trkpt lat="45.815591" lon="9.440172"><time>2024-03-23T12:02:28.000Z</time><ele>719.6</ele></trkpt><trkpt lat="45.815591" lon="9.440166"><time>2024-03-23T12:02:29.000Z</time><ele>719.6</ele></trkpt><trkpt lat="45.815587" lon="9.440156"><time>2024-03-23T12:02:30.000Z</time><ele>719.4</ele></trkpt><trkpt lat="45.815581" lon="9.440146"><time>2024-03-23T12:02:31.000Z</time><ele>719.2</ele></trkpt><trkpt lat="45.815577" lon="9.440136"><time>2024-03-23T12:02:32.000Z</time><ele>719</ele></trkpt><trkpt lat="45.815579" lon="9.440123"><time>2024-03-23T12:02:33.000Z</time><ele>718.8</ele></trkpt><trkpt lat="45.81558" lon="9.440106"><time>2024-03-23T12:02:34.000Z</time><ele>718.6</ele></trkpt><trkpt lat="45.815575" lon="9.440088"><time>2024-03-23T12:02:35.000Z</time><ele>718.6</ele></trkpt><trkpt lat="45.815573" lon="9.440071"><time>2024-03-23T12:02:36.000Z</time><ele>718.4</ele></trkpt><trkpt lat="45.815571" lon="9.440052"><time>2024-03-23T12:02:37.000Z</time><ele>718.4</ele></trkpt><trkpt lat="45.815569" lon="9.440034"><time>2024-03-23T12:02:38.000Z</time><ele>718.2</ele></trkpt><trkpt lat="45.815568" lon="9.44002"><time>2024-03-23T12:02:39.000Z</time><ele>718.2</ele></trkpt><trkpt lat="45.815571" lon="9.440002"><time>2024-03-23T12:02:40.000Z</time><ele>718.2</ele></trkpt><trkpt lat="45.81557" lon="9.439982"><time>2024-03-23T12:02:41.000Z</time><ele>718.2</ele></trkpt><trkpt lat="45.815569" lon="9.439963"><time>2024-03-23T12:02:42.000Z</time><ele>718.2</ele></trkpt><trkpt lat="45.815569" lon="9.439945"><time>2024-03-23T12:02:43.000Z</time><ele>718.2</ele></trkpt><trkpt lat="45.815567" lon="9.439933"><time>2024-03-23T12:02:44.000Z</time><ele>718.2</ele></trkpt><trkpt lat="45.815568" lon="9.439918"><time>2024-03-23T12:02:45.000Z</time><ele>718.2</ele></trkpt><trkpt lat="45.815565" lon="9.439904"><time>2024-03-23T12:02:46.000Z</time><ele>718</ele></trkpt><trkpt lat="45.815562" lon="9.439901"><time>2024-03-23T12:02:47.000Z</time><ele>718</ele></trkpt><trkpt lat="45.815561" lon="9.439903"><time>2024-03-23T12:02:48.000Z</time><ele>718</ele></trkpt><trkpt lat="45.81556" lon="9.439906"><time>2024-03-23T12:02:49.000Z</time><ele>717.8</ele></trkpt><trkpt lat="45.815563" lon="9.43991"><time>2024-03-23T12:02:50.000Z</time><ele>717.8</ele></trkpt><trkpt lat="45.815563" lon="9.439912"><time>2024-03-23T12:02:51.000Z</time><ele>717.8</ele></trkpt><trkpt lat="45.815564" lon="9.439913"><time>2024-03-23T12:02:52.000Z</time><ele>717.6</ele></trkpt><trkpt lat="45.815564" lon="9.439914"><time>2024-03-23T12:02:53.000Z</time><ele>717.6</ele></trkpt><trkpt lat="45.815564" lon="9.439914"><time>2024-03-23T12:02:54.000Z</time><ele>717.6</ele></trkpt><trkpt lat="45.815565" lon="9.439914"><time>2024-03-23T12:02:55.000Z</time><ele>717.6</ele></trkpt><trkpt lat="45.815565" lon="9.439914"><time>2024-03-23T12:02:56.000Z</time><ele>717.6</ele></trkpt><trkpt lat="45.815566" lon="9.439913"><time>2024-03-23T12:02:57.000Z</time><ele>717.4</ele></trkpt><trkpt lat="45.81557" lon="9.43991"><time>2024-03-23T12:02:58.000Z</time><ele>717.4</ele></trkpt><trkpt lat="45.815566" lon="9.439904"><time>2024-03-23T12:02:59.000Z</time><ele>717.4</ele></trkpt><trkpt lat="45.815564" lon="9.439894"><time>2024-03-23T12:03:00.000Z</time><ele>717.4</ele></trkpt><trkpt lat="45.815563" lon="9.439881"><time>2024-03-23T12:03:01.000Z</time><ele>717.4</ele></trkpt><trkpt lat="45.81556" lon="9.439865"><time>2024-03-23T12:03:02.000Z</time><ele>717.4</ele></trkpt><trkpt lat="45.815564" lon="9.439847"><time>2024-03-23T12:03:03.000Z</time><ele>717.4</ele></trkpt><trkpt lat="45.815563" lon="9.43983"><time>2024-03-23T12:03:04.000Z</time><ele>717.4</ele></trkpt><trkpt lat="45.815565" lon="9.439815"><time>2024-03-23T12:03:05.000Z</time><ele>717.4</ele></trkpt><trkpt lat="45.815567" lon="9.439804"><time>2024-03-23T12:03:06.000Z</time><ele>717.4</ele></trkpt><trkpt lat="45.815569" lon="9.439794"><time>2024-03-23T12:03:07.000Z</time><ele>717.4</ele></trkpt><trkpt lat="45.815572" lon="9.439784"><time>2024-03-23T12:03:08.000Z</time><ele>717.4</ele></trkpt><trkpt lat="45.815573" lon="9.439776"><time>2024-03-23T12:03:09.000Z</time><ele>717.6</ele></trkpt><trkpt lat="45.815577" lon="9.439759"><time>2024-03-23T12:03:10.000Z</time><ele>717.6</ele></trkpt><trkpt lat="45.815581" lon="9.439741"><time>2024-03-23T12:03:11.000Z</time><ele>717.8</ele></trkpt><trkpt lat="45.815583" lon="9.439727"><time>2024-03-23T12:03:12.000Z</time><ele>717.8</ele></trkpt><trkpt lat="45.815584" lon="9.439716"><time>2024-03-23T12:03:13.000Z</time><ele>718</ele></trkpt><trkpt lat="45.815586" lon="9.439703"><time>2024-03-23T12:03:14.000Z</time><ele>718</ele></trkpt><trkpt lat="45.815586" lon="9.439688"><time>2024-03-23T12:03:15.000Z</time><ele>718</ele></trkpt><trkpt lat="45.815583" lon="9.43967"><time>2024-03-23T12:03:16.000Z</time><ele>718</ele></trkpt><trkpt lat="45.815578" lon="9.439651"><time>2024-03-23T12:03:17.000Z</time><ele>718</ele></trkpt><trkpt lat="45.815577" lon="9.439635"><time>2024-03-23T12:03:18.000Z</time><ele>718</ele></trkpt><trkpt lat="45.815576" lon="9.439618"><time>2024-03-23T12:03:19.000Z</time><ele>718</ele></trkpt><trkpt lat="45.815574" lon="9.439599"><time>2024-03-23T12:03:20.000Z</time><ele>717.8</ele></trkpt><trkpt lat="45.815571" lon="9.439582"><time>2024-03-23T12:03:21.000Z</time><ele>717.8</ele></trkpt><trkpt lat="45.815567" lon="9.439568"><time>2024-03-23T12:03:22.000Z</time><ele>717.8</ele></trkpt><trkpt lat="45.815563" lon="9.439552"><time>2024-03-23T12:03:23.000Z</time><ele>717.6</ele></trkpt><trkpt lat="45.815564" lon="9.439534"><time>2024-03-23T12:03:24.000Z</time><ele>717.6</ele></trkpt><trkpt lat="45.815564" lon="9.439514"><time>2024-03-23T12:03:25.000Z</time><ele>717.4</ele></trkpt><trkpt lat="45.815563" lon="9.439495"><time>2024-03-23T12:03:26.000Z</time><ele>717.4</ele></trkpt><trkpt lat="45.815563" lon="9.439483"><time>2024-03-23T12:03:27.000Z</time><ele>717.4</ele></trkpt><trkpt lat="45.815565" lon="9.439471"><time>2024-03-23T12:03:28.000Z</time><ele>717.4</ele></trkpt><trkpt lat="45.815564" lon="9.439461"><time>2024-03-23T12:03:29.000Z</time><ele>717.4</ele></trkpt><trkpt lat="45.815565" lon="9.43945"><time>2024-03-23T12:03:30.000Z</time><ele>717.2</ele></trkpt><trkpt lat="45.815567" lon="9.439438"><time>2024-03-23T12:03:31.000Z</time><ele>717.4</ele></trkpt><trkpt lat="45.815573" lon="9.439427"><time>2024-03-23T12:03:32.000Z</time><ele>717.4</ele></trkpt><trkpt lat="45.815575" lon="9.439415"><time>2024-03-23T12:03:33.000Z</time><ele>717.6</ele></trkpt><trkpt lat="45.815577" lon="9.439401"><time>2024-03-23T12:03:34.000Z</time><ele>717.6</ele></trkpt><trkpt lat="45.815581" lon="9.439387"><time>2024-03-23T12:03:35.000Z</time><ele>717.8</ele></trkpt><trkpt lat="45.815581" lon="9.439378"><time>2024-03-23T12:03:36.000Z</time><ele>717.8</ele></trkpt><trkpt lat="45.815578" lon="9.439366"><time>2024-03-23T12:03:37.000Z</time><ele>718</ele></trkpt><trkpt lat="45.815576" lon="9.439351"><time>2024-03-23T12:03:38.000Z</time><ele>718</ele></trkpt><trkpt lat="45.815576" lon="9.439346"><time>2024-03-23T12:03:39.000Z</time><ele>718</ele></trkpt><trkpt lat="45.815578" lon="9.439343"><time>2024-03-23T12:03:40.000Z</time><ele>718.2</ele></trkpt><trkpt lat="45.815581" lon="9.439344"><time>2024-03-23T12:03:41.000Z</time><ele>718.2</ele></trkpt><trkpt lat="45.815583" lon="9.439345"><time>2024-03-23T12:03:42.000Z</time><ele>718.2</ele></trkpt><trkpt lat="45.815584" lon="9.439346"><time>2024-03-23T12:03:43.000Z</time><ele>718.2</ele></trkpt><trkpt lat="45.815584" lon="9.439348"><time>2024-03-23T12:03:44.000Z</time><ele>718.2</ele></trkpt><trkpt lat="45.815584" lon="9.43935"><time>2024-03-23T12:03:45.000Z</time><ele>718.2</ele></trkpt><trkpt lat="45.815591" lon="9.439354"><time>2024-03-23T12:03:46.000Z</time><ele>718.2</ele></trkpt><trkpt lat="45.815593" lon="9.439354"><time>2024-03-23T12:03:47.000Z</time><ele>718.2</ele></trkpt><trkpt lat="45.81559" lon="9.439349"><time>2024-03-23T12:03:48.000Z</time><ele>718.2</ele></trkpt><trkpt lat="45.815589" lon="9.439341"><time>2024-03-23T12:03:49.000Z</time><ele>718.2</ele></trkpt><trkpt lat="45.815588" lon="9.439334"><time>2024-03-23T12:03:50.000Z</time><ele>718.6</ele></trkpt><trkpt lat="45.815583" lon="9.43933"><time>2024-03-23T12:03:51.000Z</time><ele>718.6</ele></trkpt><trkpt lat="45.815573" lon="9.43933"><time>2024-03-23T12:03:52.000Z</time><ele>718.6</ele></trkpt><trkpt lat="45.815569" lon="9.439325"><time>2024-03-23T12:03:53.000Z</time><ele>718.4</ele></trkpt><trkpt lat="45.815564" lon="9.439318"><time>2024-03-23T12:03:54.000Z</time><ele>718.2</ele></trkpt><trkpt lat="45.815562" lon="9.439315"><time>2024-03-23T12:03:55.000Z</time><ele>718</ele></trkpt><trkpt lat="45.815561" lon="9.439312"><time>2024-03-23T12:03:56.000Z</time><ele>718</ele></trkpt><trkpt lat="45.81556" lon="9.439311"><time>2024-03-23T12:03:57.000Z</time><ele>718</ele></trkpt><trkpt lat="45.815557" lon="9.439308"><time>2024-03-23T12:03:58.000Z</time><ele>718</ele></trkpt><trkpt lat="45.815551" lon="9.43931"><time>2024-03-23T12:03:59.000Z</time><ele>718.2</ele></trkpt><trkpt lat="45.815554" lon="9.439306"><time>2024-03-23T12:04:00.000Z</time><ele>718.4</ele></trkpt><trkpt lat="45.815552" lon="9.439307"><time>2024-03-23T12:04:01.000Z</time><ele>718.6</ele></trkpt><trkpt lat="45.815553" lon="9.439306"><time>2024-03-23T12:04:02.000Z</time><ele>718.8</ele></trkpt><trkpt lat="45.815552" lon="9.439307"><time>2024-03-23T12:04:03.000Z</time><ele>718.8</ele></trkpt><trkpt lat="45.815553" lon="9.439307"><time>2024-03-23T12:04:04.000Z</time><ele>718.8</ele></trkpt><trkpt lat="45.815554" lon="9.439306"><time>2024-03-23T12:04:05.000Z</time><ele>718.6</ele></trkpt><trkpt lat="45.815557" lon="9.439307"><time>2024-03-23T12:04:06.000Z</time><ele>718.4</ele></trkpt><trkpt lat="45.815558" lon="9.439307"><time>2024-03-23T12:04:07.000Z</time><ele>718.4</ele></trkpt><trkpt lat="45.815558" lon="9.439306"><time>2024-03-23T12:04:08.000Z</time><ele>718.4</ele></trkpt><trkpt lat="45.815558" lon="9.439306"><time>2024-03-23T12:04:09.000Z</time><ele>718.4</ele></trkpt><trkpt lat="45.815558" lon="9.439306"><time>2024-03-23T12:04:10.000Z</time><ele>718.6</ele></trkpt><trkpt lat="45.815558" lon="9.439306"><time>2024-03-23T12:04:11.000Z</time><ele>718.6</ele></trkpt><trkpt lat="45.815558" lon="9.439306"><time>2024-03-23T12:04:12.000Z</time><ele>718.8</ele></trkpt><trkpt lat="45.815558" lon="9.439306"><time>2024-03-23T12:04:13.000Z</time><ele>718.8</ele></trkpt><trkpt lat="45.815558" lon="9.439306"><time>2024-03-23T12:04:14.000Z</time><ele>718.6</ele></trkpt><trkpt lat="45.815558" lon="9.439306"><time>2024-03-23T12:04:15.000Z</time><ele>718</ele></trkpt><trkpt lat="45.815558" lon="9.439306"><time>2024-03-23T12:04:16.000Z</time><ele>717.8</ele></trkpt><trkpt lat="45.815558" lon="9.439306"><time>2024-03-23T12:04:17.000Z</time><ele>717.6</ele></trkpt><trkpt lat="45.815558" lon="9.439306"><time>2024-03-23T12:04:18.000Z</time><ele>717.4</ele></trkpt><trkpt lat="45.815557" lon="9.439306"><time>2024-03-23T12:04:19.000Z</time><ele>717.4</ele></trkpt><trkpt lat="45.815555" lon="9.439306"><time>2024-03-23T12:04:20.000Z</time><ele>717.4</ele></trkpt><trkpt lat="45.815554" lon="9.439306"><time>2024-03-23T12:04:21.000Z</time><ele>717.4</ele></trkpt><trkpt lat="45.815553" lon="9.439306"><time>2024-03-23T12:04:22.000Z</time><ele>717.2</ele></trkpt><trkpt lat="45.815553" lon="9.439306"><time>2024-03-23T12:04:23.000Z</time><ele>717.2</ele></trkpt><trkpt lat="45.815553" lon="9.439306"><time>2024-03-23T12:04:24.000Z</time><ele>717</ele></trkpt><trkpt lat="45.815552" lon="9.439306"><time>2024-03-23T12:04:25.000Z</time><ele>717</ele></trkpt><trkpt lat="45.815552" lon="9.439306"><time>2024-03-23T12:04:26.000Z</time><ele>717</ele></trkpt><trkpt lat="45.81555" lon="9.439306"><time>2024-03-23T12:04:27.000Z</time><ele>717</ele></trkpt><trkpt lat="45.81555" lon="9.439301"><time>2024-03-23T12:04:28.000Z</time><ele>716.8</ele></trkpt><trkpt lat="45.815548" lon="9.439299"><time>2024-03-23T12:04:29.000Z</time><ele>716.8</ele></trkpt><trkpt lat="45.815543" lon="9.439293"><time>2024-03-23T12:04:30.000Z</time><ele>716.6</ele></trkpt><trkpt lat="45.815541" lon="9.439288"><time>2024-03-23T12:04:31.000Z</time><ele>716.6</ele></trkpt><trkpt lat="45.81554" lon="9.439283"><time>2024-03-23T12:04:32.000Z</time><ele>716.6</ele></trkpt><trkpt lat="45.815537" lon="9.439277"><time>2024-03-23T12:04:33.000Z</time><ele>716.6</ele></trkpt><trkpt lat="45.815536" lon="9.439273"><time>2024-03-23T12:04:34.000Z</time><ele>716.6</ele></trkpt><trkpt lat="45.815533" lon="9.439272"><time>2024-03-23T12:04:35.000Z</time><ele>716.6</ele></trkpt><trkpt lat="45.815531" lon="9.43927"><time>2024-03-23T12:04:36.000Z</time><ele>716.6</ele></trkpt><trkpt lat="45.815525" lon="9.439263"><time>2024-03-23T12:04:37.000Z</time><ele>716.6</ele></trkpt><trkpt lat="45.81552" lon="9.439261"><time>2024-03-23T12:04:38.000Z</time><ele>716.6</ele></trkpt><trkpt lat="45.815513" lon="9.43926"><time>2024-03-23T12:04:39.000Z</time><ele>716.6</ele></trkpt><trkpt lat="45.815509" lon="9.439249"><time>2024-03-23T12:04:40.000Z</time><ele>716.6</ele></trkpt><trkpt lat="45.815501" lon="9.439246"><time>2024-03-23T12:04:41.000Z</time><ele>716.6</ele></trkpt><trkpt lat="45.815498" lon="9.439244"><time>2024-03-23T12:04:42.000Z</time><ele>716.6</ele></trkpt><trkpt lat="45.815496" lon="9.439242"><time>2024-03-23T12:04:43.000Z</time><ele>716.6</ele></trkpt><trkpt lat="45.815496" lon="9.43924"><time>2024-03-23T12:04:44.000Z</time><ele>716.6</ele></trkpt><trkpt lat="45.815492" lon="9.439238"><time>2024-03-23T12:04:45.000Z</time><ele>716.6</ele></trkpt><trkpt lat="45.815491" lon="9.439234"><time>2024-03-23T12:04:46.000Z</time><ele>716.6</ele></trkpt><trkpt lat="45.81549" lon="9.439233"><time>2024-03-23T12:04:47.000Z</time><ele>716.6</ele></trkpt><trkpt lat="45.81549" lon="9.439231"><time>2024-03-23T12:04:48.000Z</time><ele>716.6</ele></trkpt><trkpt lat="45.815488" lon="9.43923"><time>2024-03-23T12:04:49.000Z</time><ele>716.6</ele></trkpt><trkpt lat="45.815485" lon="9.439229"><time>2024-03-23T12:04:50.000Z</time><ele>716.6</ele></trkpt><trkpt lat="45.815484" lon="9.439228"><time>2024-03-23T12:04:51.000Z</time><ele>716.6</ele></trkpt><trkpt lat="45.815483" lon="9.439228"><time>2024-03-23T12:04:52.000Z</time><ele>716.4</ele></trkpt><trkpt lat="45.815482" lon="9.439228"><time>2024-03-23T12:04:53.000Z</time><ele>716.4</ele></trkpt><trkpt lat="45.815481" lon="9.439227"><time>2024-03-23T12:04:54.000Z</time><ele>716.4</ele></trkpt><trkpt lat="45.815478" lon="9.439227"><time>2024-03-23T12:04:55.000Z</time><ele>716.4</ele></trkpt><trkpt lat="45.815477" lon="9.439227"><time>2024-03-23T12:04:56.000Z</time><ele>716.4</ele></trkpt><trkpt lat="45.815477" lon="9.439227"><time>2024-03-23T12:04:57.000Z</time><ele>716.4</ele></trkpt><trkpt lat="45.815476" lon="9.439227"><time>2024-03-23T12:04:58.000Z</time><ele>716.4</ele></trkpt><trkpt lat="45.815476" lon="9.439227"><time>2024-03-23T12:04:59.000Z</time><ele>716.4</ele></trkpt><trkpt lat="45.815476" lon="9.439227"><time>2024-03-23T12:05:00.000Z</time><ele>716.4</ele></trkpt><trkpt lat="45.815476" lon="9.439227"><time>2024-03-23T12:05:01.000Z</time><ele>716.6</ele></trkpt><trkpt lat="45.815476" lon="9.439227"><time>2024-03-23T12:05:02.000Z</time><ele>716.6</ele></trkpt><trkpt lat="45.815476" lon="9.439221"><time>2024-03-23T12:05:03.000Z</time><ele>716.6</ele></trkpt><trkpt lat="45.815472" lon="9.439202"><time>2024-03-23T12:05:04.000Z</time><ele>716.6</ele></trkpt><trkpt lat="45.815467" lon="9.439181"><time>2024-03-23T12:05:05.000Z</time><ele>716.6</ele></trkpt><trkpt lat="45.815458" lon="9.439166"><time>2024-03-23T12:05:06.000Z</time><ele>716.6</ele></trkpt><trkpt lat="45.815453" lon="9.439155"><time>2024-03-23T12:05:07.000Z</time><ele>716.6</ele></trkpt><trkpt lat="45.815451" lon="9.439139"><time>2024-03-23T12:05:08.000Z</time><ele>716.6</ele></trkpt><trkpt lat="45.815451" lon="9.439124"><time>2024-03-23T12:05:09.000Z</time><ele>716.6</ele></trkpt><trkpt lat="45.815449" lon="9.43911"><time>2024-03-23T12:05:10.000Z</time><ele>716.4</ele></trkpt><trkpt lat="45.815447" lon="9.439098"><time>2024-03-23T12:05:11.000Z</time><ele>716.4</ele></trkpt><trkpt lat="45.815441" lon="9.439091"><time>2024-03-23T12:05:12.000Z</time><ele>716.2</ele></trkpt><trkpt lat="45.815435" lon="9.439086"><time>2024-03-23T12:05:13.000Z</time><ele>716.2</ele></trkpt><trkpt lat="45.815429" lon="9.439082"><time>2024-03-23T12:05:14.000Z</time><ele>716</ele></trkpt><trkpt lat="45.815424" lon="9.439073"><time>2024-03-23T12:05:15.000Z</time><ele>715.8</ele></trkpt><trkpt lat="45.815418" lon="9.439061"><time>2024-03-23T12:05:16.000Z</time><ele>715.4</ele></trkpt><trkpt lat="45.81541" lon="9.439057"><time>2024-03-23T12:05:17.000Z</time><ele>715.2</ele></trkpt><trkpt lat="45.815401" lon="9.439055"><time>2024-03-23T12:05:18.000Z</time><ele>715.2</ele></trkpt><trkpt lat="45.815394" lon="9.439051"><time>2024-03-23T12:05:19.000Z</time><ele>715.2</ele></trkpt><trkpt lat="45.81539" lon="9.439043"><time>2024-03-23T12:05:20.000Z</time><ele>715</ele></trkpt><trkpt lat="45.815386" lon="9.439034"><time>2024-03-23T12:05:21.000Z</time><ele>714.8</ele></trkpt><trkpt lat="45.815379" lon="9.439025"><time>2024-03-23T12:05:22.000Z</time><ele>714.8</ele></trkpt><trkpt lat="45.81537" lon="9.439012"><time>2024-03-23T12:05:23.000Z</time><ele>714.6</ele></trkpt><trkpt lat="45.815361" lon="9.439002"><time>2024-03-23T12:05:24.000Z</time><ele>714.6</ele></trkpt><trkpt lat="45.815351" lon="9.438994"><time>2024-03-23T12:05:25.000Z</time><ele>714.4</ele></trkpt><trkpt lat="45.815345" lon="9.438982"><time>2024-03-23T12:05:26.000Z</time><ele>714.2</ele></trkpt><trkpt lat="45.815338" lon="9.438975"><time>2024-03-23T12:05:27.000Z</time><ele>714</ele></trkpt><trkpt lat="45.815332" lon="9.438965"><time>2024-03-23T12:05:28.000Z</time><ele>714</ele></trkpt><trkpt lat="45.815325" lon="9.438955"><time>2024-03-23T12:05:29.000Z</time><ele>714</ele></trkpt><trkpt lat="45.815318" lon="9.438943"><time>2024-03-23T12:05:30.000Z</time><ele>714</ele></trkpt><trkpt lat="45.815309" lon="9.438934"><time>2024-03-23T12:05:31.000Z</time><ele>714</ele></trkpt><trkpt lat="45.815302" lon="9.438928"><time>2024-03-23T12:05:32.000Z</time><ele>713.8</ele></trkpt><trkpt lat="45.815293" lon="9.438925"><time>2024-03-23T12:05:33.000Z</time><ele>713.8</ele></trkpt><trkpt lat="45.815285" lon="9.438922"><time>2024-03-23T12:05:34.000Z</time><ele>713.8</ele></trkpt><trkpt lat="45.815279" lon="9.43892"><time>2024-03-23T12:05:35.000Z</time><ele>713.6</ele></trkpt><trkpt lat="45.815276" lon="9.438921"><time>2024-03-23T12:05:36.000Z</time><ele>713.4</ele></trkpt><trkpt lat="45.815268" lon="9.438923"><time>2024-03-23T12:05:37.000Z</time><ele>713.4</ele></trkpt><trkpt lat="45.815257" lon="9.438923"><time>2024-03-23T12:05:38.000Z</time><ele>713.2</ele></trkpt><trkpt lat="45.815251" lon="9.438922"><time>2024-03-23T12:05:39.000Z</time><ele>713</ele></trkpt><trkpt lat="45.815242" lon="9.438922"><time>2024-03-23T12:05:40.000Z</time><ele>712.8</ele></trkpt><trkpt lat="45.815233" lon="9.438922"><time>2024-03-23T12:05:41.000Z</time><ele>712.6</ele></trkpt><trkpt lat="45.815226" lon="9.438924"><time>2024-03-23T12:05:42.000Z</time><ele>712.4</ele></trkpt><trkpt lat="45.815216" lon="9.438926"><time>2024-03-23T12:05:43.000Z</time><ele>712.2</ele></trkpt><trkpt lat="45.815208" lon="9.438927"><time>2024-03-23T12:05:44.000Z</time><ele>711.8</ele></trkpt><trkpt lat="45.8152" lon="9.438925"><time>2024-03-23T12:05:45.000Z</time><ele>711.4</ele></trkpt><trkpt lat="45.815187" lon="9.43892"><time>2024-03-23T12:05:46.000Z</time><ele>711.4</ele></trkpt><trkpt lat="45.815179" lon="9.438911"><time>2024-03-23T12:05:47.000Z</time><ele>711.2</ele></trkpt><trkpt lat="45.815174" lon="9.438906"><time>2024-03-23T12:05:48.000Z</time><ele>711</ele></trkpt><trkpt lat="45.815165" lon="9.438907"><time>2024-03-23T12:05:49.000Z</time><ele>710.8</ele></trkpt><trkpt lat="45.815156" lon="9.438904"><time>2024-03-23T12:05:50.000Z</time><ele>710.6</ele></trkpt><trkpt lat="45.815153" lon="9.438898"><time>2024-03-23T12:05:51.000Z</time><ele>710.2</ele></trkpt><trkpt lat="45.815152" lon="9.438895"><time>2024-03-23T12:05:52.000Z</time><ele>710.2</ele></trkpt><trkpt lat="45.815152" lon="9.438895"><time>2024-03-23T12:05:53.000Z</time><ele>710</ele></trkpt><trkpt lat="45.815153" lon="9.438895"><time>2024-03-23T12:05:54.000Z</time><ele>709.8</ele></trkpt><trkpt lat="45.815151" lon="9.438897"><time>2024-03-23T12:05:55.000Z</time><ele>709.8</ele></trkpt><trkpt lat="45.815151" lon="9.438897"><time>2024-03-23T12:05:56.000Z</time><ele>709.8</ele></trkpt><trkpt lat="45.815152" lon="9.438897"><time>2024-03-23T12:05:57.000Z</time><ele>709.8</ele></trkpt><trkpt lat="45.815153" lon="9.438895"><time>2024-03-23T12:05:58.000Z</time><ele>709.8</ele></trkpt><trkpt lat="45.815152" lon="9.438891"><time>2024-03-23T12:05:59.000Z</time><ele>709.8</ele></trkpt><trkpt lat="45.815152" lon="9.438888"><time>2024-03-23T12:06:00.000Z</time><ele>709.8</ele></trkpt><trkpt lat="45.815145" lon="9.438883"><time>2024-03-23T12:06:01.000Z</time><ele>709.8</ele></trkpt><trkpt lat="45.815139" lon="9.438879"><time>2024-03-23T12:06:02.000Z</time><ele>709.6</ele></trkpt><trkpt lat="45.815129" lon="9.438872"><time>2024-03-23T12:06:03.000Z</time><ele>709.6</ele></trkpt><trkpt lat="45.815115" lon="9.438865"><time>2024-03-23T12:06:04.000Z</time><ele>709.6</ele></trkpt><trkpt lat="45.8151" lon="9.438856"><time>2024-03-23T12:06:05.000Z</time><ele>709.4</ele></trkpt><trkpt lat="45.815086" lon="9.438845"><time>2024-03-23T12:06:06.000Z</time><ele>709.4</ele></trkpt><trkpt lat="45.815074" lon="9.438838"><time>2024-03-23T12:06:07.000Z</time><ele>709.4</ele></trkpt><trkpt lat="45.815072" lon="9.438837"><time>2024-03-23T12:06:08.000Z</time><ele>709.4</ele></trkpt><trkpt lat="45.815072" lon="9.438838"><time>2024-03-23T12:06:09.000Z</time><ele>709.4</ele></trkpt><trkpt lat="45.815073" lon="9.438837"><time>2024-03-23T12:06:10.000Z</time><ele>709.4</ele></trkpt><trkpt lat="45.815073" lon="9.438836"><time>2024-03-23T12:06:11.000Z</time><ele>709.4</ele></trkpt><trkpt lat="45.815073" lon="9.438835"><time>2024-03-23T12:06:12.000Z</time><ele>709.4</ele></trkpt><trkpt lat="45.815072" lon="9.438833"><time>2024-03-23T12:06:13.000Z</time><ele>709.4</ele></trkpt><trkpt lat="45.815071" lon="9.43883"><time>2024-03-23T12:06:14.000Z</time><ele>709.4</ele></trkpt><trkpt lat="45.815068" lon="9.438824"><time>2024-03-23T12:06:15.000Z</time><ele>709.4</ele></trkpt><trkpt lat="45.815059" lon="9.438811"><time>2024-03-23T12:06:16.000Z</time><ele>709.4</ele></trkpt><trkpt lat="45.815049" lon="9.438795"><time>2024-03-23T12:06:17.000Z</time><ele>709.4</ele></trkpt><trkpt lat="45.815039" lon="9.438779"><time>2024-03-23T12:06:18.000Z</time><ele>709.4</ele></trkpt><trkpt lat="45.815031" lon="9.438763"><time>2024-03-23T12:06:19.000Z</time><ele>709.4</ele></trkpt><trkpt lat="45.815024" lon="9.438746"><time>2024-03-23T12:06:20.000Z</time><ele>709.4</ele></trkpt><trkpt lat="45.815016" lon="9.438733"><time>2024-03-23T12:06:21.000Z</time><ele>709.4</ele></trkpt><trkpt lat="45.815008" lon="9.438721"><time>2024-03-23T12:06:22.000Z</time><ele>709.4</ele></trkpt><trkpt lat="45.815" lon="9.438709"><time>2024-03-23T12:06:23.000Z</time><ele>709.4</ele></trkpt><trkpt lat="45.814993" lon="9.438697"><time>2024-03-23T12:06:24.000Z</time><ele>709.4</ele></trkpt><trkpt lat="45.814986" lon="9.438683"><time>2024-03-23T12:06:25.000Z</time><ele>709.4</ele></trkpt><trkpt lat="45.81498" lon="9.438667"><time>2024-03-23T12:06:26.000Z</time><ele>709.2</ele></trkpt><trkpt lat="45.814975" lon="9.438651"><time>2024-03-23T12:06:27.000Z</time><ele>709.2</ele></trkpt><trkpt lat="45.814971" lon="9.438637"><time>2024-03-23T12:06:28.000Z</time><ele>709.2</ele></trkpt><trkpt lat="45.814967" lon="9.438619"><time>2024-03-23T12:06:29.000Z</time><ele>709.2</ele></trkpt><trkpt lat="45.814963" lon="9.438603"><time>2024-03-23T12:06:30.000Z</time><ele>709.2</ele></trkpt><trkpt lat="45.81496" lon="9.438578"><time>2024-03-23T12:06:31.000Z</time><ele>709.2</ele></trkpt><trkpt lat="45.814959" lon="9.438559"><time>2024-03-23T12:06:32.000Z</time><ele>709.2</ele></trkpt><trkpt lat="45.81496" lon="9.438543"><time>2024-03-23T12:06:33.000Z</time><ele>709.2</ele></trkpt><trkpt lat="45.814961" lon="9.438527"><time>2024-03-23T12:06:34.000Z</time><ele>709.2</ele></trkpt><trkpt lat="45.814961" lon="9.438512"><time>2024-03-23T12:06:35.000Z</time><ele>709.2</ele></trkpt><trkpt lat="45.814959" lon="9.438506"><time>2024-03-23T12:06:36.000Z</time><ele>709.2</ele></trkpt><trkpt lat="45.814956" lon="9.438502"><time>2024-03-23T12:06:37.000Z</time><ele>709.2</ele></trkpt><trkpt lat="45.814955" lon="9.438502"><time>2024-03-23T12:06:38.000Z</time><ele>709.2</ele></trkpt><trkpt lat="45.814955" lon="9.438503"><time>2024-03-23T12:06:39.000Z</time><ele>709</ele></trkpt><trkpt lat="45.814954" lon="9.438504"><time>2024-03-23T12:06:40.000Z</time><ele>709</ele></trkpt><trkpt lat="45.814954" lon="9.438505"><time>2024-03-23T12:06:41.000Z</time><ele>709</ele></trkpt><trkpt lat="45.814953" lon="9.438507"><time>2024-03-23T12:06:42.000Z</time><ele>709</ele></trkpt><trkpt lat="45.814954" lon="9.438508"><time>2024-03-23T12:06:43.000Z</time><ele>709</ele></trkpt><trkpt lat="45.814952" lon="9.43851"><time>2024-03-23T12:06:44.000Z</time><ele>709</ele></trkpt><trkpt lat="45.814951" lon="9.438512"><time>2024-03-23T12:06:45.000Z</time><ele>709</ele></trkpt><trkpt lat="45.81495" lon="9.438513"><time>2024-03-23T12:06:46.000Z</time><ele>709</ele></trkpt><trkpt lat="45.814949" lon="9.438515"><time>2024-03-23T12:06:47.000Z</time><ele>709</ele></trkpt><trkpt lat="45.814948" lon="9.438518"><time>2024-03-23T12:06:48.000Z</time><ele>709.2</ele></trkpt><trkpt lat="45.814949" lon="9.43852"><time>2024-03-23T12:06:49.000Z</time><ele>709.2</ele></trkpt><trkpt lat="45.814949" lon="9.438521"><time>2024-03-23T12:06:50.000Z</time><ele>709.2</ele></trkpt><trkpt lat="45.814949" lon="9.438521"><time>2024-03-23T12:06:51.000Z</time><ele>709.4</ele></trkpt><trkpt lat="45.814952" lon="9.438519"><time>2024-03-23T12:06:52.000Z</time><ele>709.4</ele></trkpt><trkpt lat="45.814952" lon="9.438517"><time>2024-03-23T12:06:53.000Z</time><ele>709.4</ele></trkpt><trkpt lat="45.814952" lon="9.438504"><time>2024-03-23T12:06:54.000Z</time><ele>709.4</ele></trkpt><trkpt lat="45.814953" lon="9.438493"><time>2024-03-23T12:06:55.000Z</time><ele>709.4</ele></trkpt><trkpt lat="45.814954" lon="9.438478"><time>2024-03-23T12:06:56.000Z</time><ele>709.2</ele></trkpt><trkpt lat="45.814955" lon="9.438464"><time>2024-03-23T12:06:57.000Z</time><ele>709.2</ele></trkpt><trkpt lat="45.814957" lon="9.438447"><time>2024-03-23T12:06:58.000Z</time><ele>709.2</ele></trkpt><trkpt lat="45.814959" lon="9.438429"><time>2024-03-23T12:06:59.000Z</time><ele>709.2</ele></trkpt><trkpt lat="45.814959" lon="9.438414"><time>2024-03-23T12:07:00.000Z</time><ele>709.2</ele></trkpt><trkpt lat="45.814962" lon="9.438398"><time>2024-03-23T12:07:01.000Z</time><ele>709.2</ele></trkpt><trkpt lat="45.814966" lon="9.438382"><time>2024-03-23T12:07:02.000Z</time><ele>709.2</ele></trkpt><trkpt lat="45.814969" lon="9.438368"><time>2024-03-23T12:07:03.000Z</time><ele>709.2</ele></trkpt><trkpt lat="45.814975" lon="9.438353"><time>2024-03-23T12:07:04.000Z</time><ele>709.2</ele></trkpt><trkpt lat="45.814982" lon="9.438334"><time>2024-03-23T12:07:05.000Z</time><ele>709.4</ele></trkpt><trkpt lat="45.814985" lon="9.438317"><time>2024-03-23T12:07:06.000Z</time><ele>709.4</ele></trkpt><trkpt lat="45.814987" lon="9.438305"><time>2024-03-23T12:07:07.000Z</time><ele>709.4</ele></trkpt><trkpt lat="45.814991" lon="9.438291"><time>2024-03-23T12:07:08.000Z</time><ele>709.4</ele></trkpt><trkpt lat="45.814996" lon="9.438276"><time>2024-03-23T12:07:09.000Z</time><ele>709.6</ele></trkpt><trkpt lat="45.815001" lon="9.438256"><time>2024-03-23T12:07:10.000Z</time><ele>709.6</ele></trkpt><trkpt lat="45.814999" lon="9.438245"><time>2024-03-23T12:07:11.000Z</time><ele>709.8</ele></trkpt><trkpt lat="45.814998" lon="9.438232"><time>2024-03-23T12:07:12.000Z</time><ele>709.8</ele></trkpt><trkpt lat="45.814998" lon="9.438219"><time>2024-03-23T12:07:13.000Z</time><ele>709.4</ele></trkpt><trkpt lat="45.814997" lon="9.438205"><time>2024-03-23T12:07:14.000Z</time><ele>709.4</ele></trkpt><trkpt lat="45.814994" lon="9.438192"><time>2024-03-23T12:07:15.000Z</time><ele>709.4</ele></trkpt><trkpt lat="45.814988" lon="9.438179"><time>2024-03-23T12:07:16.000Z</time><ele>709.4</ele></trkpt><trkpt lat="45.814984" lon="9.438163"><time>2024-03-23T12:07:17.000Z</time><ele>709.4</ele></trkpt><trkpt lat="45.814977" lon="9.438155"><time>2024-03-23T12:07:18.000Z</time><ele>709.4</ele></trkpt><trkpt lat="45.814974" lon="9.438151"><time>2024-03-23T12:07:19.000Z</time><ele>709.4</ele></trkpt><trkpt lat="45.814972" lon="9.43814"><time>2024-03-23T12:07:20.000Z</time><ele>709.4</ele></trkpt><trkpt lat="45.814971" lon="9.438126"><time>2024-03-23T12:07:21.000Z</time><ele>709.4</ele></trkpt><trkpt lat="45.814973" lon="9.438119"><time>2024-03-23T12:07:22.000Z</time><ele>709.4</ele></trkpt><trkpt lat="45.814974" lon="9.438116"><time>2024-03-23T12:07:23.000Z</time><ele>709.4</ele></trkpt><trkpt lat="45.814973" lon="9.438113"><time>2024-03-23T12:07:24.000Z</time><ele>709.4</ele></trkpt><trkpt lat="45.814973" lon="9.438105"><time>2024-03-23T12:07:25.000Z</time><ele>709.4</ele></trkpt><trkpt lat="45.814971" lon="9.438094"><time>2024-03-23T12:07:26.000Z</time><ele>709.2</ele></trkpt><trkpt lat="45.814972" lon="9.438075"><time>2024-03-23T12:07:27.000Z</time><ele>708.8</ele></trkpt><trkpt lat="45.814969" lon="9.438054"><time>2024-03-23T12:07:28.000Z</time><ele>708.6</ele></trkpt><trkpt lat="45.814963" lon="9.438036"><time>2024-03-23T12:07:29.000Z</time><ele>708.4</ele></trkpt><trkpt lat="45.814962" lon="9.438022"><time>2024-03-23T12:07:30.000Z</time><ele>708.2</ele></trkpt><trkpt lat="45.814962" lon="9.438008"><time>2024-03-23T12:07:31.000Z</time><ele>708</ele></trkpt><trkpt lat="45.81496" lon="9.437994"><time>2024-03-23T12:07:32.000Z</time><ele>707.8</ele></trkpt><trkpt lat="45.814954" lon="9.437982"><time>2024-03-23T12:07:33.000Z</time><ele>707.8</ele></trkpt><trkpt lat="45.814941" lon="9.437969"><time>2024-03-23T12:07:34.000Z</time><ele>707.4</ele></trkpt><trkpt lat="45.814928" lon="9.437961"><time>2024-03-23T12:07:35.000Z</time><ele>707.2</ele></trkpt><trkpt lat="45.814919" lon="9.437949"><time>2024-03-23T12:07:36.000Z</time><ele>707</ele></trkpt><trkpt lat="45.814908" lon="9.437932"><time>2024-03-23T12:07:37.000Z</time><ele>706.8</ele></trkpt><trkpt lat="45.814902" lon="9.437917"><time>2024-03-23T12:07:38.000Z</time><ele>706.8</ele></trkpt><trkpt lat="45.814898" lon="9.437901"><time>2024-03-23T12:07:39.000Z</time><ele>706.6</ele></trkpt><trkpt lat="45.814897" lon="9.437885"><time>2024-03-23T12:07:40.000Z</time><ele>706.6</ele></trkpt><trkpt lat="45.814895" lon="9.437875"><time>2024-03-23T12:07:41.000Z</time><ele>706.4</ele></trkpt><trkpt lat="45.814889" lon="9.437859"><time>2024-03-23T12:07:42.000Z</time><ele>706.4</ele></trkpt><trkpt lat="45.814884" lon="9.437843"><time>2024-03-23T12:07:43.000Z</time><ele>706.2</ele></trkpt><trkpt lat="45.814885" lon="9.437822"><time>2024-03-23T12:07:44.000Z</time><ele>706.2</ele></trkpt><trkpt lat="45.814874" lon="9.437809"><time>2024-03-23T12:07:45.000Z</time><ele>706.2</ele></trkpt><trkpt lat="45.814866" lon="9.43779"><time>2024-03-23T12:07:46.000Z</time><ele>706.2</ele></trkpt><trkpt lat="45.814865" lon="9.437768"><time>2024-03-23T12:07:47.000Z</time><ele>706.2</ele></trkpt><trkpt lat="45.814865" lon="9.437744"><time>2024-03-23T12:07:48.000Z</time><ele>706.2</ele></trkpt><trkpt lat="45.814866" lon="9.437722"><time>2024-03-23T12:07:49.000Z</time><ele>706</ele></trkpt><trkpt lat="45.814857" lon="9.437711"><time>2024-03-23T12:07:50.000Z</time><ele>706</ele></trkpt><trkpt lat="45.81485" lon="9.437694"><time>2024-03-23T12:07:51.000Z</time><ele>705.8</ele></trkpt><trkpt lat="45.814838" lon="9.437681"><time>2024-03-23T12:07:52.000Z</time><ele>705.6</ele></trkpt><trkpt lat="45.814828" lon="9.437669"><time>2024-03-23T12:07:53.000Z</time><ele>705.4</ele></trkpt><trkpt lat="45.814822" lon="9.437662"><time>2024-03-23T12:07:54.000Z</time><ele>705.2</ele></trkpt><trkpt lat="45.814815" lon="9.437647"><time>2024-03-23T12:07:55.000Z</time><ele>705</ele></trkpt><trkpt lat="45.814806" lon="9.437632"><time>2024-03-23T12:07:56.000Z</time><ele>704.8</ele></trkpt><trkpt lat="45.814798" lon="9.437612"><time>2024-03-23T12:07:57.000Z</time><ele>704.6</ele></trkpt><trkpt lat="45.814794" lon="9.437585"><time>2024-03-23T12:07:58.000Z</time><ele>704.6</ele></trkpt><trkpt lat="45.814791" lon="9.437565"><time>2024-03-23T12:07:59.000Z</time><ele>704.4</ele></trkpt><trkpt lat="45.814785" lon="9.437549"><time>2024-03-23T12:08:00.000Z</time><ele>704.4</ele></trkpt><trkpt lat="45.814778" lon="9.437533"><time>2024-03-23T12:08:01.000Z</time><ele>704.4</ele></trkpt><trkpt lat="45.81477" lon="9.437519"><time>2024-03-23T12:08:02.000Z</time><ele>704.4</ele></trkpt><trkpt lat="45.814764" lon="9.437504"><time>2024-03-23T12:08:03.000Z</time><ele>704.2</ele></trkpt><trkpt lat="45.814758" lon="9.437489"><time>2024-03-23T12:08:04.000Z</time><ele>704.2</ele></trkpt><trkpt lat="45.814751" lon="9.437477"><time>2024-03-23T12:08:05.000Z</time><ele>704.2</ele></trkpt><trkpt lat="45.814745" lon="9.437465"><time>2024-03-23T12:08:06.000Z</time><ele>704.2</ele></trkpt><trkpt lat="45.814738" lon="9.437451"><time>2024-03-23T12:08:07.000Z</time><ele>704.4</ele></trkpt><trkpt lat="45.81473" lon="9.437439"><time>2024-03-23T12:08:08.000Z</time><ele>704.4</ele></trkpt><trkpt lat="45.814721" lon="9.437429"><time>2024-03-23T12:08:09.000Z</time><ele>704.4</ele></trkpt><trkpt lat="45.814714" lon="9.437427"><time>2024-03-23T12:08:10.000Z</time><ele>704.4</ele></trkpt><trkpt lat="45.81471" lon="9.437431"><time>2024-03-23T12:08:11.000Z</time><ele>704.4</ele></trkpt><trkpt lat="45.814706" lon="9.437432"><time>2024-03-23T12:08:12.000Z</time><ele>704.4</ele></trkpt><trkpt lat="45.814704" lon="9.437433"><time>2024-03-23T12:08:13.000Z</time><ele>704.2</ele></trkpt><trkpt lat="45.814703" lon="9.437432"><time>2024-03-23T12:08:14.000Z</time><ele>704.2</ele></trkpt><trkpt lat="45.814703" lon="9.437433"><time>2024-03-23T12:08:15.000Z</time><ele>704.2</ele></trkpt><trkpt lat="45.814702" lon="9.437431"><time>2024-03-23T12:08:16.000Z</time><ele>704</ele></trkpt><trkpt lat="45.814701" lon="9.437431"><time>2024-03-23T12:08:17.000Z</time><ele>704</ele></trkpt><trkpt lat="45.814702" lon="9.43743"><time>2024-03-23T12:08:18.000Z</time><ele>704</ele></trkpt><trkpt lat="45.814703" lon="9.437429"><time>2024-03-23T12:08:19.000Z</time><ele>704</ele></trkpt><trkpt lat="45.814703" lon="9.437428"><time>2024-03-23T12:08:20.000Z</time><ele>703.8</ele></trkpt><trkpt lat="45.814702" lon="9.437429"><time>2024-03-23T12:08:21.000Z</time><ele>703.8</ele></trkpt><trkpt lat="45.814702" lon="9.437427"><time>2024-03-23T12:08:22.000Z</time><ele>703.8</ele></trkpt><trkpt lat="45.814702" lon="9.437428"><time>2024-03-23T12:08:23.000Z</time><ele>703.6</ele></trkpt><trkpt lat="45.814703" lon="9.437427"><time>2024-03-23T12:08:24.000Z</time><ele>703.6</ele></trkpt><trkpt lat="45.814703" lon="9.437425"><time>2024-03-23T12:08:25.000Z</time><ele>703.6</ele></trkpt><trkpt lat="45.814704" lon="9.437423"><time>2024-03-23T12:08:26.000Z</time><ele>703.6</ele></trkpt><trkpt lat="45.814704" lon="9.437423"><time>2024-03-23T12:08:27.000Z</time><ele>703.6</ele></trkpt><trkpt lat="45.814704" lon="9.437423"><time>2024-03-23T12:08:28.000Z</time><ele>703.6</ele></trkpt><trkpt lat="45.814704" lon="9.437423"><time>2024-03-23T12:08:29.000Z</time><ele>703.6</ele></trkpt><trkpt lat="45.814704" lon="9.437423"><time>2024-03-23T12:08:30.000Z</time><ele>703.6</ele></trkpt><trkpt lat="45.814704" lon="9.437423"><time>2024-03-23T12:08:31.000Z</time><ele>703.6</ele></trkpt><trkpt lat="45.814704" lon="9.437423"><time>2024-03-23T12:08:32.000Z</time><ele>703.6</ele></trkpt><trkpt lat="45.814704" lon="9.437423"><time>2024-03-23T12:08:33.000Z</time><ele>703.8</ele></trkpt><trkpt lat="45.814704" lon="9.437423"><time>2024-03-23T12:08:34.000Z</time><ele>703.8</ele></trkpt><trkpt lat="45.814704" lon="9.437423"><time>2024-03-23T12:08:35.000Z</time><ele>703.8</ele></trkpt><trkpt lat="45.814703" lon="9.437423"><time>2024-03-23T12:08:36.000Z</time><ele>703.8</ele></trkpt><trkpt lat="45.814703" lon="9.437425"><time>2024-03-23T12:08:37.000Z</time><ele>703.8</ele></trkpt><trkpt lat="45.814703" lon="9.437427"><time>2024-03-23T12:08:38.000Z</time><ele>703.8</ele></trkpt><trkpt lat="45.814703" lon="9.437427"><time>2024-03-23T12:08:39.000Z</time><ele>703.6</ele></trkpt><trkpt lat="45.814702" lon="9.437428"><time>2024-03-23T12:08:40.000Z</time><ele>703.6</ele></trkpt><trkpt lat="45.814702" lon="9.437428"><time>2024-03-23T12:08:41.000Z</time><ele>703.6</ele></trkpt><trkpt lat="45.814702" lon="9.437429"><time>2024-03-23T12:08:42.000Z</time><ele>703.6</ele></trkpt><trkpt lat="45.814702" lon="9.437429"><time>2024-03-23T12:08:43.000Z</time><ele>703.6</ele></trkpt><trkpt lat="45.814702" lon="9.437429"><time>2024-03-23T12:08:44.000Z</time><ele>703.6</ele></trkpt><trkpt lat="45.814702" lon="9.437429"><time>2024-03-23T12:08:45.000Z</time><ele>703.8</ele></trkpt><trkpt lat="45.814702" lon="9.437429"><time>2024-03-23T12:08:46.000Z</time><ele>703.8</ele></trkpt><trkpt lat="45.814701" lon="9.437429"><time>2024-03-23T12:08:47.000Z</time><ele>703.8</ele></trkpt><trkpt lat="45.814701" lon="9.437429"><time>2024-03-23T12:08:48.000Z</time><ele>703.8</ele></trkpt><trkpt lat="45.814701" lon="9.437428"><time>2024-03-23T12:08:49.000Z</time><ele>703.8</ele></trkpt><trkpt lat="45.814701" lon="9.437428"><time>2024-03-23T12:08:50.000Z</time><ele>703.8</ele></trkpt><trkpt lat="45.8147" lon="9.437427"><time>2024-03-23T12:08:51.000Z</time><ele>703.8</ele></trkpt><trkpt lat="45.8147" lon="9.437427"><time>2024-03-23T12:08:52.000Z</time><ele>704</ele></trkpt><trkpt lat="45.8147" lon="9.437427"><time>2024-03-23T12:08:53.000Z</time><ele>704</ele></trkpt><trkpt lat="45.8147" lon="9.437427"><time>2024-03-23T12:08:54.000Z</time><ele>704.2</ele></trkpt><trkpt lat="45.8147" lon="9.437427"><time>2024-03-23T12:08:55.000Z</time><ele>704.2</ele></trkpt><trkpt lat="45.8147" lon="9.437427"><time>2024-03-23T12:08:56.000Z</time><ele>704.2</ele></trkpt><trkpt lat="45.8147" lon="9.437427"><time>2024-03-23T12:08:57.000Z</time><ele>704.2</ele></trkpt><trkpt lat="45.8147" lon="9.437427"><time>2024-03-23T12:08:58.000Z</time><ele>704.2</ele></trkpt><trkpt lat="45.8147" lon="9.437427"><time>2024-03-23T12:08:59.000Z</time><ele>704.2</ele></trkpt><trkpt lat="45.8147" lon="9.437426"><time>2024-03-23T12:09:00.000Z</time><ele>704.4</ele></trkpt><trkpt lat="45.8147" lon="9.437425"><time>2024-03-23T12:09:01.000Z</time><ele>704.4</ele></trkpt><trkpt lat="45.814701" lon="9.437422"><time>2024-03-23T12:09:02.000Z</time><ele>704.4</ele></trkpt><trkpt lat="45.814701" lon="9.437422"><time>2024-03-23T12:09:03.000Z</time><ele>704.4</ele></trkpt><trkpt lat="45.814701" lon="9.437421"><time>2024-03-23T12:09:04.000Z</time><ele>704.4</ele></trkpt><trkpt lat="45.8147" lon="9.437421"><time>2024-03-23T12:09:05.000Z</time><ele>704.2</ele></trkpt><trkpt lat="45.8147" lon="9.43742"><time>2024-03-23T12:09:06.000Z</time><ele>704.2</ele></trkpt><trkpt lat="45.8147" lon="9.437419"><time>2024-03-23T12:09:07.000Z</time><ele>704.2</ele></trkpt><trkpt lat="45.8147" lon="9.437418"><time>2024-03-23T12:09:08.000Z</time><ele>704.2</ele></trkpt><trkpt lat="45.8147" lon="9.437418"><time>2024-03-23T12:09:09.000Z</time><ele>704.2</ele></trkpt><trkpt lat="45.8147" lon="9.437418"><time>2024-03-23T12:09:10.000Z</time><ele>704.2</ele></trkpt><trkpt lat="45.8147" lon="9.437417"><time>2024-03-23T12:09:11.000Z</time><ele>704.2</ele></trkpt><trkpt lat="45.814701" lon="9.437417"><time>2024-03-23T12:09:12.000Z</time><ele>704.2</ele></trkpt><trkpt lat="45.814701" lon="9.437416"><time>2024-03-23T12:09:13.000Z</time><ele>704.2</ele></trkpt><trkpt lat="45.814701" lon="9.437416"><time>2024-03-23T12:09:14.000Z</time><ele>704.2</ele></trkpt><trkpt lat="45.814701" lon="9.437416"><time>2024-03-23T12:09:15.000Z</time><ele>704.2</ele></trkpt><trkpt lat="45.814702" lon="9.437416"><time>2024-03-23T12:09:16.000Z</time><ele>704.2</ele></trkpt><trkpt lat="45.814702" lon="9.437416"><time>2024-03-23T12:09:17.000Z</time><ele>704.2</ele></trkpt><trkpt lat="45.814702" lon="9.437416"><time>2024-03-23T12:09:18.000Z</time><ele>704.2</ele></trkpt><trkpt lat="45.814702" lon="9.437409"><time>2024-03-23T12:09:19.000Z</time><ele>704.4</ele></trkpt><trkpt lat="45.814699" lon="9.437396"><time>2024-03-23T12:09:20.000Z</time><ele>704.4</ele></trkpt><trkpt lat="45.814694" lon="9.437381"><time>2024-03-23T12:09:21.000Z</time><ele>704.4</ele></trkpt><trkpt lat="45.814691" lon="9.437369"><time>2024-03-23T12:09:22.000Z</time><ele>704.4</ele></trkpt><trkpt lat="45.814687" lon="9.437359"><time>2024-03-23T12:09:23.000Z</time><ele>704.4</ele></trkpt><trkpt lat="45.814682" lon="9.437346"><time>2024-03-23T12:09:24.000Z</time><ele>704.4</ele></trkpt><trkpt lat="45.814675" lon="9.437324"><time>2024-03-23T12:09:25.000Z</time><ele>704.4</ele></trkpt><trkpt lat="45.814676" lon="9.437305"><time>2024-03-23T12:09:26.000Z</time><ele>704.4</ele></trkpt><trkpt lat="45.814676" lon="9.43729"><time>2024-03-23T12:09:27.000Z</time><ele>704</ele></trkpt><trkpt lat="45.814671" lon="9.437275"><time>2024-03-23T12:09:28.000Z</time><ele>703.8</ele></trkpt><trkpt lat="45.814664" lon="9.437266"><time>2024-03-23T12:09:29.000Z</time><ele>703.6</ele></trkpt><trkpt lat="45.814657" lon="9.437259"><time>2024-03-23T12:09:30.000Z</time><ele>703.4</ele></trkpt><trkpt lat="45.814652" lon="9.437247"><time>2024-03-23T12:09:31.000Z</time><ele>703.2</ele></trkpt><trkpt lat="45.814647" lon="9.43723"><time>2024-03-23T12:09:32.000Z</time><ele>703.2</ele></trkpt><trkpt lat="45.814641" lon="9.437218"><time>2024-03-23T12:09:33.000Z</time><ele>703</ele></trkpt><trkpt lat="45.814629" lon="9.437203"><time>2024-03-23T12:09:34.000Z</time><ele>703</ele></trkpt><trkpt lat="45.814622" lon="9.437192"><time>2024-03-23T12:09:35.000Z</time><ele>702.8</ele></trkpt><trkpt lat="45.814617" lon="9.437179"><time>2024-03-23T12:09:36.000Z</time><ele>702.6</ele></trkpt><trkpt lat="45.814613" lon="9.437164"><time>2024-03-23T12:09:37.000Z</time><ele>702.4</ele></trkpt><trkpt lat="45.814609" lon="9.437146"><time>2024-03-23T12:09:38.000Z</time><ele>702.2</ele></trkpt><trkpt lat="45.8146" lon="9.437134"><time>2024-03-23T12:09:39.000Z</time><ele>702</ele></trkpt><trkpt lat="45.814592" lon="9.437121"><time>2024-03-23T12:09:40.000Z</time><ele>701.8</ele></trkpt><trkpt lat="45.814591" lon="9.437112"><time>2024-03-23T12:09:41.000Z</time><ele>701.8</ele></trkpt><trkpt lat="45.814588" lon="9.437106"><time>2024-03-23T12:09:42.000Z</time><ele>701.6</ele></trkpt><trkpt lat="45.81458" lon="9.437103"><time>2024-03-23T12:09:43.000Z</time><ele>701.6</ele></trkpt><trkpt lat="45.814574" lon="9.437104"><time>2024-03-23T12:09:44.000Z</time><ele>701.6</ele></trkpt><trkpt lat="45.814571" lon="9.437104"><time>2024-03-23T12:09:45.000Z</time><ele>701.2</ele></trkpt><trkpt lat="45.814568" lon="9.437098"><time>2024-03-23T12:09:46.000Z</time><ele>700.8</ele></trkpt><trkpt lat="45.814564" lon="9.437097"><time>2024-03-23T12:09:47.000Z</time><ele>700.6</ele></trkpt><trkpt lat="45.81456" lon="9.437089"><time>2024-03-23T12:09:48.000Z</time><ele>700.2</ele></trkpt><trkpt lat="45.814553" lon="9.437083"><time>2024-03-23T12:09:49.000Z</time><ele>700.2</ele></trkpt><trkpt lat="45.814546" lon="9.437072"><time>2024-03-23T12:09:50.000Z</time><ele>699.8</ele></trkpt><trkpt lat="45.81454" lon="9.437059"><time>2024-03-23T12:09:51.000Z</time><ele>699.6</ele></trkpt><trkpt lat="45.814533" lon="9.437046"><time>2024-03-23T12:09:52.000Z</time><ele>699.6</ele></trkpt><trkpt lat="45.814525" lon="9.437033"><time>2024-03-23T12:09:53.000Z</time><ele>699.4</ele></trkpt><trkpt lat="45.814518" lon="9.437022"><time>2024-03-23T12:09:54.000Z</time><ele>699.2</ele></trkpt><trkpt lat="45.814509" lon="9.437001"><time>2024-03-23T12:09:55.000Z</time><ele>699</ele></trkpt><trkpt lat="45.814502" lon="9.43698"><time>2024-03-23T12:09:56.000Z</time><ele>698.8</ele></trkpt><trkpt lat="45.814495" lon="9.436967"><time>2024-03-23T12:09:57.000Z</time><ele>698.6</ele></trkpt><trkpt lat="45.814485" lon="9.436957"><time>2024-03-23T12:09:58.000Z</time><ele>698.6</ele></trkpt><trkpt lat="45.814479" lon="9.436947"><time>2024-03-23T12:09:59.000Z</time><ele>698.4</ele></trkpt><trkpt lat="45.814473" lon="9.436935"><time>2024-03-23T12:10:00.000Z</time><ele>698.4</ele></trkpt><trkpt lat="45.814467" lon="9.43692"><time>2024-03-23T12:10:01.000Z</time><ele>698.4</ele></trkpt><trkpt lat="45.814461" lon="9.436903"><time>2024-03-23T12:10:02.000Z</time><ele>698.2</ele></trkpt><trkpt lat="45.814454" lon="9.436885"><time>2024-03-23T12:10:03.000Z</time><ele>698.2</ele></trkpt><trkpt lat="45.814448" lon="9.436867"><time>2024-03-23T12:10:04.000Z</time><ele>698.2</ele></trkpt><trkpt lat="45.814443" lon="9.436848"><time>2024-03-23T12:10:05.000Z</time><ele>698</ele></trkpt><trkpt lat="45.814442" lon="9.436829"><time>2024-03-23T12:10:06.000Z</time><ele>698</ele></trkpt><trkpt lat="45.81444" lon="9.436811"><time>2024-03-23T12:10:07.000Z</time><ele>697.8</ele></trkpt><trkpt lat="45.814433" lon="9.436796"><time>2024-03-23T12:10:08.000Z</time><ele>697.6</ele></trkpt><trkpt lat="45.814426" lon="9.436783"><time>2024-03-23T12:10:09.000Z</time><ele>697.4</ele></trkpt><trkpt lat="45.814422" lon="9.436767"><time>2024-03-23T12:10:10.000Z</time><ele>697.2</ele></trkpt><trkpt lat="45.814414" lon="9.43675"><time>2024-03-23T12:10:11.000Z</time><ele>697.2</ele></trkpt><trkpt lat="45.814406" lon="9.436737"><time>2024-03-23T12:10:12.000Z</time><ele>697</ele></trkpt><trkpt lat="45.814397" lon="9.436724"><time>2024-03-23T12:10:13.000Z</time><ele>697</ele></trkpt><trkpt lat="45.814393" lon="9.43671"><time>2024-03-23T12:10:14.000Z</time><ele>697</ele></trkpt><trkpt lat="45.814387" lon="9.436697"><time>2024-03-23T12:10:15.000Z</time><ele>696.8</ele></trkpt><trkpt lat="45.814382" lon="9.436685"><time>2024-03-23T12:10:16.000Z</time><ele>696.6</ele></trkpt><trkpt lat="45.814376" lon="9.436678"><time>2024-03-23T12:10:17.000Z</time><ele>696.4</ele></trkpt><trkpt lat="45.814367" lon="9.436671"><time>2024-03-23T12:10:18.000Z</time><ele>696.4</ele></trkpt><trkpt lat="45.814352" lon="9.436656"><time>2024-03-23T12:10:19.000Z</time><ele>696.2</ele></trkpt><trkpt lat="45.814339" lon="9.436643"><time>2024-03-23T12:10:20.000Z</time><ele>696.2</ele></trkpt><trkpt lat="45.814328" lon="9.436621"><time>2024-03-23T12:10:21.000Z</time><ele>696</ele></trkpt><trkpt lat="45.814324" lon="9.436604"><time>2024-03-23T12:10:22.000Z</time><ele>695.8</ele></trkpt><trkpt lat="45.814321" lon="9.436588"><time>2024-03-23T12:10:23.000Z</time><ele>695.6</ele></trkpt><trkpt lat="45.814316" lon="9.436573"><time>2024-03-23T12:10:24.000Z</time><ele>695.6</ele></trkpt><trkpt lat="45.814313" lon="9.436554"><time>2024-03-23T12:10:25.000Z</time><ele>695.4</ele></trkpt><trkpt lat="45.814312" lon="9.436532"><time>2024-03-23T12:10:26.000Z</time><ele>695.4</ele></trkpt><trkpt lat="45.814312" lon="9.436498"><time>2024-03-23T12:10:27.000Z</time><ele>695.2</ele></trkpt><trkpt lat="45.814316" lon="9.436473"><time>2024-03-23T12:10:28.000Z</time><ele>695.2</ele></trkpt><trkpt lat="45.814314" lon="9.436454"><time>2024-03-23T12:10:29.000Z</time><ele>695.2</ele></trkpt><trkpt lat="45.814311" lon="9.436441"><time>2024-03-23T12:10:30.000Z</time><ele>695</ele></trkpt><trkpt lat="45.814306" lon="9.436428"><time>2024-03-23T12:10:31.000Z</time><ele>695</ele></trkpt><trkpt lat="45.8143" lon="9.436413"><time>2024-03-23T12:10:32.000Z</time><ele>695</ele></trkpt><trkpt lat="45.814295" lon="9.436399"><time>2024-03-23T12:10:33.000Z</time><ele>694.8</ele></trkpt><trkpt lat="45.814292" lon="9.436381"><time>2024-03-23T12:10:34.000Z</time><ele>694.8</ele></trkpt><trkpt lat="45.814288" lon="9.436364"><time>2024-03-23T12:10:35.000Z</time><ele>694.8</ele></trkpt><trkpt lat="45.814288" lon="9.43635"><time>2024-03-23T12:10:36.000Z</time><ele>694.8</ele></trkpt><trkpt lat="45.814289" lon="9.43633"><time>2024-03-23T12:10:37.000Z</time><ele>694.6</ele></trkpt><trkpt lat="45.814286" lon="9.436312"><time>2024-03-23T12:10:38.000Z</time><ele>694.4</ele></trkpt><trkpt lat="45.814283" lon="9.436292"><time>2024-03-23T12:10:39.000Z</time><ele>694.4</ele></trkpt><trkpt lat="45.814278" lon="9.436273"><time>2024-03-23T12:10:40.000Z</time><ele>694.4</ele></trkpt><trkpt lat="45.814275" lon="9.436256"><time>2024-03-23T12:10:41.000Z</time><ele>694.2</ele></trkpt><trkpt lat="45.814275" lon="9.436242"><time>2024-03-23T12:10:42.000Z</time><ele>694.2</ele></trkpt><trkpt lat="45.814274" lon="9.436231"><time>2024-03-23T12:10:43.000Z</time><ele>694.2</ele></trkpt><trkpt lat="45.814272" lon="9.436224"><time>2024-03-23T12:10:44.000Z</time><ele>694.2</ele></trkpt><trkpt lat="45.814273" lon="9.436215"><time>2024-03-23T12:10:45.000Z</time><ele>694.2</ele></trkpt><trkpt lat="45.814273" lon="9.436204"><time>2024-03-23T12:10:46.000Z</time><ele>694</ele></trkpt><trkpt lat="45.814271" lon="9.436188"><time>2024-03-23T12:10:47.000Z</time><ele>694</ele></trkpt><trkpt lat="45.814268" lon="9.436174"><time>2024-03-23T12:10:48.000Z</time><ele>694</ele></trkpt><trkpt lat="45.814265" lon="9.436157"><time>2024-03-23T12:10:49.000Z</time><ele>693.8</ele></trkpt><trkpt lat="45.814262" lon="9.436135"><time>2024-03-23T12:10:50.000Z</time><ele>693.8</ele></trkpt><trkpt lat="45.814262" lon="9.436117"><time>2024-03-23T12:10:51.000Z</time><ele>693.6</ele></trkpt><trkpt lat="45.814262" lon="9.436101"><time>2024-03-23T12:10:52.000Z</time><ele>693.4</ele></trkpt><trkpt lat="45.814257" lon="9.436085"><time>2024-03-23T12:10:53.000Z</time><ele>693.4</ele></trkpt><trkpt lat="45.814253" lon="9.436068"><time>2024-03-23T12:10:54.000Z</time><ele>693.2</ele></trkpt><trkpt lat="45.814252" lon="9.43605"><time>2024-03-23T12:10:55.000Z</time><ele>693.2</ele></trkpt><trkpt lat="45.81425" lon="9.43603"><time>2024-03-23T12:10:56.000Z</time><ele>693</ele></trkpt><trkpt lat="45.81425" lon="9.436009"><time>2024-03-23T12:10:57.000Z</time><ele>693</ele></trkpt><trkpt lat="45.814252" lon="9.43599"><time>2024-03-23T12:10:58.000Z</time><ele>692.8</ele></trkpt><trkpt lat="45.814256" lon="9.435973"><time>2024-03-23T12:10:59.000Z</time><ele>692.6</ele></trkpt><trkpt lat="45.814258" lon="9.435956"><time>2024-03-23T12:11:00.000Z</time><ele>692.6</ele></trkpt><trkpt lat="45.814259" lon="9.435938"><time>2024-03-23T12:11:01.000Z</time><ele>692.4</ele></trkpt><trkpt lat="45.814263" lon="9.435919"><time>2024-03-23T12:11:02.000Z</time><ele>692.4</ele></trkpt><trkpt lat="45.814267" lon="9.435901"><time>2024-03-23T12:11:03.000Z</time><ele>692.4</ele></trkpt><trkpt lat="45.814269" lon="9.43588"><time>2024-03-23T12:11:04.000Z</time><ele>692.4</ele></trkpt><trkpt lat="45.814271" lon="9.435863"><time>2024-03-23T12:11:05.000Z</time><ele>692.4</ele></trkpt><trkpt lat="45.814272" lon="9.435847"><time>2024-03-23T12:11:06.000Z</time><ele>692.4</ele></trkpt><trkpt lat="45.814274" lon="9.435837"><time>2024-03-23T12:11:07.000Z</time><ele>692.4</ele></trkpt><trkpt lat="45.814275" lon="9.435833"><time>2024-03-23T12:11:08.000Z</time><ele>692.2</ele></trkpt><trkpt lat="45.814276" lon="9.435832"><time>2024-03-23T12:11:09.000Z</time><ele>692.2</ele></trkpt><trkpt lat="45.814277" lon="9.435831"><time>2024-03-23T12:11:10.000Z</time><ele>692.2</ele></trkpt><trkpt lat="45.814278" lon="9.435829"><time>2024-03-23T12:11:11.000Z</time><ele>692</ele></trkpt><trkpt lat="45.81428" lon="9.43582"><time>2024-03-23T12:11:12.000Z</time><ele>692</ele></trkpt><trkpt lat="45.814279" lon="9.435805"><time>2024-03-23T12:11:13.000Z</time><ele>692</ele></trkpt><trkpt lat="45.814276" lon="9.435788"><time>2024-03-23T12:11:14.000Z</time><ele>691.8</ele></trkpt><trkpt lat="45.814271" lon="9.435772"><time>2024-03-23T12:11:15.000Z</time><ele>691.8</ele></trkpt><trkpt lat="45.814271" lon="9.435758"><time>2024-03-23T12:11:16.000Z</time><ele>691.8</ele></trkpt><trkpt lat="45.814271" lon="9.435748"><time>2024-03-23T12:11:17.000Z</time><ele>691.6</ele></trkpt><trkpt lat="45.814268" lon="9.435739"><time>2024-03-23T12:11:18.000Z</time><ele>691.6</ele></trkpt><trkpt lat="45.814263" lon="9.435727"><time>2024-03-23T12:11:19.000Z</time><ele>691.6</ele></trkpt><trkpt lat="45.814258" lon="9.435712"><time>2024-03-23T12:11:20.000Z</time><ele>691.6</ele></trkpt><trkpt lat="45.814256" lon="9.435699"><time>2024-03-23T12:11:21.000Z</time><ele>691.4</ele></trkpt><trkpt lat="45.814255" lon="9.435688"><time>2024-03-23T12:11:22.000Z</time><ele>691.4</ele></trkpt><trkpt lat="45.814254" lon="9.435683"><time>2024-03-23T12:11:23.000Z</time><ele>691.4</ele></trkpt><trkpt lat="45.814252" lon="9.435682"><time>2024-03-23T12:11:24.000Z</time><ele>691.4</ele></trkpt><trkpt lat="45.814254" lon="9.435684"><time>2024-03-23T12:11:25.000Z</time><ele>691.4</ele></trkpt><trkpt lat="45.814256" lon="9.435686"><time>2024-03-23T12:11:26.000Z</time><ele>691.4</ele></trkpt><trkpt lat="45.814256" lon="9.435687"><time>2024-03-23T12:11:27.000Z</time><ele>691.2</ele></trkpt><trkpt lat="45.814257" lon="9.435689"><time>2024-03-23T12:11:28.000Z</time><ele>691.4</ele></trkpt><trkpt lat="45.814257" lon="9.435689"><time>2024-03-23T12:11:29.000Z</time><ele>691.4</ele></trkpt><trkpt lat="45.814257" lon="9.435689"><time>2024-03-23T12:11:30.000Z</time><ele>691.6</ele></trkpt><trkpt lat="45.814252" lon="9.435683"><time>2024-03-23T12:11:31.000Z</time><ele>691.6</ele></trkpt><trkpt lat="45.81425" lon="9.435681"><time>2024-03-23T12:11:32.000Z</time><ele>691.6</ele></trkpt><trkpt lat="45.814251" lon="9.435685"><time>2024-03-23T12:11:33.000Z</time><ele>691.6</ele></trkpt><trkpt lat="45.814253" lon="9.435695"><time>2024-03-23T12:11:34.000Z</time><ele>691.6</ele></trkpt><trkpt lat="45.814251" lon="9.4357"><time>2024-03-23T12:11:35.000Z</time><ele>691.4</ele></trkpt><trkpt lat="45.814251" lon="9.435709"><time>2024-03-23T12:11:36.000Z</time><ele>691.4</ele></trkpt><trkpt lat="45.814251" lon="9.435714"><time>2024-03-23T12:11:37.000Z</time><ele>691.4</ele></trkpt><trkpt lat="45.814251" lon="9.435716"><time>2024-03-23T12:11:38.000Z</time><ele>691.4</ele></trkpt><trkpt lat="45.814252" lon="9.435719"><time>2024-03-23T12:11:39.000Z</time><ele>691.4</ele></trkpt><trkpt lat="45.814253" lon="9.435719"><time>2024-03-23T12:11:40.000Z</time><ele>691.4</ele></trkpt><trkpt lat="45.814254" lon="9.435721"><time>2024-03-23T12:11:41.000Z</time><ele>691.6</ele></trkpt><trkpt lat="45.814253" lon="9.435721"><time>2024-03-23T12:11:42.000Z</time><ele>691.6</ele></trkpt><trkpt lat="45.814253" lon="9.435721"><time>2024-03-23T12:11:43.000Z</time><ele>691.8</ele></trkpt><trkpt lat="45.814253" lon="9.435721"><time>2024-03-23T12:11:44.000Z</time><ele>691.8</ele></trkpt><trkpt lat="45.814253" lon="9.435721"><time>2024-03-23T12:11:45.000Z</time><ele>691.8</ele></trkpt><trkpt lat="45.814253" lon="9.435721"><time>2024-03-23T12:11:46.000Z</time><ele>691.8</ele></trkpt><trkpt lat="45.814253" lon="9.435721"><time>2024-03-23T12:11:47.000Z</time><ele>691.8</ele></trkpt><trkpt lat="45.814253" lon="9.435721"><time>2024-03-23T12:11:48.000Z</time><ele>691.8</ele></trkpt><trkpt lat="45.814253" lon="9.435721"><time>2024-03-23T12:11:49.000Z</time><ele>691.8</ele></trkpt><trkpt lat="45.814253" lon="9.435721"><time>2024-03-23T12:11:50.000Z</time><ele>691.8</ele></trkpt><trkpt lat="45.814253" lon="9.435721"><time>2024-03-23T12:11:51.000Z</time><ele>691.8</ele></trkpt><trkpt lat="45.814253" lon="9.435721"><time>2024-03-23T12:11:52.000Z</time><ele>692</ele></trkpt><trkpt lat="45.814253" lon="9.435721"><time>2024-03-23T12:11:53.000Z</time><ele>692</ele></trkpt><trkpt lat="45.814252" lon="9.435727"><time>2024-03-23T12:11:54.000Z</time><ele>692</ele></trkpt><trkpt lat="45.814258" lon="9.435747"><time>2024-03-23T12:11:55.000Z</time><ele>692.2</ele></trkpt><trkpt lat="45.814263" lon="9.435762"><time>2024-03-23T12:11:56.000Z</time><ele>692.2</ele></trkpt><trkpt lat="45.814267" lon="9.435771"><time>2024-03-23T12:11:57.000Z</time><ele>692.4</ele></trkpt><trkpt lat="45.81427" lon="9.435776"><time>2024-03-23T12:11:58.000Z</time><ele>692.4</ele></trkpt><trkpt lat="45.814274" lon="9.435778"><time>2024-03-23T12:11:59.000Z</time><ele>692.4</ele></trkpt><trkpt lat="45.81428" lon="9.435782"><time>2024-03-23T12:12:00.000Z</time><ele>692.4</ele></trkpt><trkpt lat="45.814289" lon="9.435785"><time>2024-03-23T12:12:01.000Z</time><ele>692.2</ele></trkpt><trkpt lat="45.814297" lon="9.435784"><time>2024-03-23T12:12:02.000Z</time><ele>692.2</ele></trkpt><trkpt lat="45.814303" lon="9.435783"><time>2024-03-23T12:12:03.000Z</time><ele>692</ele></trkpt><trkpt lat="45.814303" lon="9.435779"><time>2024-03-23T12:12:04.000Z</time><ele>691.6</ele></trkpt><trkpt lat="45.814309" lon="9.435774"><time>2024-03-23T12:12:05.000Z</time><ele>691.2</ele></trkpt><trkpt lat="45.814312" lon="9.435771"><time>2024-03-23T12:12:06.000Z</time><ele>691</ele></trkpt><trkpt lat="45.814311" lon="9.43577"><time>2024-03-23T12:12:07.000Z</time><ele>690.8</ele></trkpt><trkpt lat="45.814307" lon="9.435772"><time>2024-03-23T12:12:08.000Z</time><ele>690.6</ele></trkpt><trkpt lat="45.814308" lon="9.435779"><time>2024-03-23T12:12:09.000Z</time><ele>690.6</ele></trkpt><trkpt lat="45.814312" lon="9.435781"><time>2024-03-23T12:12:10.000Z</time><ele>690.4</ele></trkpt><trkpt lat="45.814314" lon="9.435785"><time>2024-03-23T12:12:11.000Z</time><ele>690.2</ele></trkpt><trkpt lat="45.814316" lon="9.435789"><time>2024-03-23T12:12:12.000Z</time><ele>690</ele></trkpt><trkpt lat="45.814322" lon="9.435797"><time>2024-03-23T12:12:13.000Z</time><ele>689.8</ele></trkpt><trkpt lat="45.814333" lon="9.435809"><time>2024-03-23T12:12:14.000Z</time><ele>689.6</ele></trkpt><trkpt lat="45.814345" lon="9.43582"><time>2024-03-23T12:12:15.000Z</time><ele>689.2</ele></trkpt><trkpt lat="45.814354" lon="9.43582"><time>2024-03-23T12:12:16.000Z</time><ele>689</ele></trkpt><trkpt lat="45.814356" lon="9.435815"><time>2024-03-23T12:12:17.000Z</time><ele>688.8</ele></trkpt><trkpt lat="45.814363" lon="9.435802"><time>2024-03-23T12:12:18.000Z</time><ele>688.4</ele></trkpt><trkpt lat="45.814371" lon="9.435794"><time>2024-03-23T12:12:19.000Z</time><ele>688.2</ele></trkpt><trkpt lat="45.814384" lon="9.435786"><time>2024-03-23T12:12:20.000Z</time><ele>688.2</ele></trkpt><trkpt lat="45.814393" lon="9.435777"><time>2024-03-23T12:12:21.000Z</time><ele>688</ele></trkpt><trkpt lat="45.814405" lon="9.435772"><time>2024-03-23T12:12:22.000Z</time><ele>687.8</ele></trkpt><trkpt lat="45.814412" lon="9.435769"><time>2024-03-23T12:12:23.000Z</time><ele>687.4</ele></trkpt><trkpt lat="45.814415" lon="9.435768"><time>2024-03-23T12:12:24.000Z</time><ele>687.2</ele></trkpt><trkpt lat="45.814422" lon="9.435767"><time>2024-03-23T12:12:25.000Z</time><ele>686.8</ele></trkpt><trkpt lat="45.814425" lon="9.435763"><time>2024-03-23T12:12:26.000Z</time><ele>686.6</ele></trkpt><trkpt lat="45.81443" lon="9.435759"><time>2024-03-23T12:12:27.000Z</time><ele>686.4</ele></trkpt><trkpt lat="45.814438" lon="9.435757"><time>2024-03-23T12:12:28.000Z</time><ele>686.2</ele></trkpt><trkpt lat="45.814448" lon="9.435753"><time>2024-03-23T12:12:29.000Z</time><ele>686</ele></trkpt><trkpt lat="45.814449" lon="9.43575"><time>2024-03-23T12:12:30.000Z</time><ele>685.8</ele></trkpt><trkpt lat="45.814459" lon="9.435743"><time>2024-03-23T12:12:31.000Z</time><ele>685.6</ele></trkpt><trkpt lat="45.814461" lon="9.435739"><time>2024-03-23T12:12:32.000Z</time><ele>685.4</ele></trkpt><trkpt lat="45.814463" lon="9.43574"><time>2024-03-23T12:12:33.000Z</time><ele>685</ele></trkpt><trkpt lat="45.814469" lon="9.435738"><time>2024-03-23T12:12:34.000Z</time><ele>684.4</ele></trkpt><trkpt lat="45.814474" lon="9.435727"><time>2024-03-23T12:12:35.000Z</time><ele>684.2</ele></trkpt><trkpt lat="45.814477" lon="9.435715"><time>2024-03-23T12:12:36.000Z</time><ele>684</ele></trkpt><trkpt lat="45.814482" lon="9.435711"><time>2024-03-23T12:12:37.000Z</time><ele>683.8</ele></trkpt><trkpt lat="45.814485" lon="9.435702"><time>2024-03-23T12:12:38.000Z</time><ele>683.6</ele></trkpt><trkpt lat="45.814492" lon="9.4357"><time>2024-03-23T12:12:39.000Z</time><ele>683.4</ele></trkpt><trkpt lat="45.814495" lon="9.435695"><time>2024-03-23T12:12:40.000Z</time><ele>683</ele></trkpt><trkpt lat="45.814495" lon="9.435689"><time>2024-03-23T12:12:41.000Z</time><ele>682.8</ele></trkpt><trkpt lat="45.814495" lon="9.435686"><time>2024-03-23T12:12:42.000Z</time><ele>682.6</ele></trkpt><trkpt lat="45.814504" lon="9.435674"><time>2024-03-23T12:12:43.000Z</time><ele>682.6</ele></trkpt><trkpt lat="45.814507" lon="9.435664"><time>2024-03-23T12:12:44.000Z</time><ele>682.4</ele></trkpt><trkpt lat="45.81451" lon="9.43566"><time>2024-03-23T12:12:45.000Z</time><ele>682</ele></trkpt><trkpt lat="45.814512" lon="9.435654"><time>2024-03-23T12:12:46.000Z</time><ele>681.6</ele></trkpt><trkpt lat="45.814512" lon="9.435649"><time>2024-03-23T12:12:47.000Z</time><ele>681.2</ele></trkpt><trkpt lat="45.814515" lon="9.43565"><time>2024-03-23T12:12:48.000Z</time><ele>681</ele></trkpt><trkpt lat="45.814516" lon="9.435643"><time>2024-03-23T12:12:49.000Z</time><ele>681</ele></trkpt><trkpt lat="45.814515" lon="9.435632"><time>2024-03-23T12:12:50.000Z</time><ele>680.8</ele></trkpt><trkpt lat="45.814517" lon="9.435624"><time>2024-03-23T12:12:51.000Z</time><ele>680.8</ele></trkpt><trkpt lat="45.814516" lon="9.435616"><time>2024-03-23T12:12:52.000Z</time><ele>680.6</ele></trkpt><trkpt lat="45.814512" lon="9.435613"><time>2024-03-23T12:12:53.000Z</time><ele>680.4</ele></trkpt><trkpt lat="45.814513" lon="9.435609"><time>2024-03-23T12:12:54.000Z</time><ele>680</ele></trkpt><trkpt lat="45.814506" lon="9.435599"><time>2024-03-23T12:12:55.000Z</time><ele>679.8</ele></trkpt><trkpt lat="45.814502" lon="9.435595"><time>2024-03-23T12:12:56.000Z</time><ele>679.8</ele></trkpt><trkpt lat="45.814502" lon="9.435593"><time>2024-03-23T12:12:57.000Z</time><ele>679.6</ele></trkpt><trkpt lat="45.814502" lon="9.435589"><time>2024-03-23T12:12:58.000Z</time><ele>679.4</ele></trkpt><trkpt lat="45.814502" lon="9.435586"><time>2024-03-23T12:12:59.000Z</time><ele>679.2</ele></trkpt><trkpt lat="45.8145" lon="9.435574"><time>2024-03-23T12:13:00.000Z</time><ele>679</ele></trkpt><trkpt lat="45.814493" lon="9.435563"><time>2024-03-23T12:13:01.000Z</time><ele>678.8</ele></trkpt><trkpt lat="45.81448" lon="9.43555"><time>2024-03-23T12:13:02.000Z</time><ele>678.6</ele></trkpt><trkpt lat="45.814467" lon="9.435539"><time>2024-03-23T12:13:03.000Z</time><ele>678.6</ele></trkpt><trkpt lat="45.814461" lon="9.435537"><time>2024-03-23T12:13:04.000Z</time><ele>678.4</ele></trkpt><trkpt lat="45.814458" lon="9.435536"><time>2024-03-23T12:13:05.000Z</time><ele>678.2</ele></trkpt><trkpt lat="45.814459" lon="9.435532"><time>2024-03-23T12:13:06.000Z</time><ele>677.8</ele></trkpt><trkpt lat="45.814455" lon="9.435529"><time>2024-03-23T12:13:07.000Z</time><ele>677.6</ele></trkpt><trkpt lat="45.81445" lon="9.435529"><time>2024-03-23T12:13:08.000Z</time><ele>677.4</ele></trkpt><trkpt lat="45.814448" lon="9.435533"><time>2024-03-23T12:13:09.000Z</time><ele>677.2</ele></trkpt><trkpt lat="45.814444" lon="9.435531"><time>2024-03-23T12:13:10.000Z</time><ele>677</ele></trkpt><trkpt lat="45.814437" lon="9.43553"><time>2024-03-23T12:13:11.000Z</time><ele>676.6</ele></trkpt><trkpt lat="45.814428" lon="9.435523"><time>2024-03-23T12:13:12.000Z</time><ele>676.4</ele></trkpt><trkpt lat="45.814426" lon="9.435518"><time>2024-03-23T12:13:13.000Z</time><ele>676.2</ele></trkpt><trkpt lat="45.814423" lon="9.435513"><time>2024-03-23T12:13:14.000Z</time><ele>676</ele></trkpt><trkpt lat="45.814424" lon="9.435504"><time>2024-03-23T12:13:15.000Z</time><ele>675.6</ele></trkpt><trkpt lat="45.814425" lon="9.435497"><time>2024-03-23T12:13:16.000Z</time><ele>675.4</ele></trkpt><trkpt lat="45.814424" lon="9.435481"><time>2024-03-23T12:13:17.000Z</time><ele>675.2</ele></trkpt><trkpt lat="45.814428" lon="9.435475"><time>2024-03-23T12:13:18.000Z</time><ele>675</ele></trkpt><trkpt lat="45.814427" lon="9.435472"><time>2024-03-23T12:13:19.000Z</time><ele>674.8</ele></trkpt><trkpt lat="45.814429" lon="9.435467"><time>2024-03-23T12:13:20.000Z</time><ele>674.6</ele></trkpt><trkpt lat="45.814431" lon="9.43546"><time>2024-03-23T12:13:21.000Z</time><ele>674.4</ele></trkpt><trkpt lat="45.814432" lon="9.435453"><time>2024-03-23T12:13:22.000Z</time><ele>674.2</ele></trkpt><trkpt lat="45.814432" lon="9.435457"><time>2024-03-23T12:13:23.000Z</time><ele>673.8</ele></trkpt><trkpt lat="45.814434" lon="9.435465"><time>2024-03-23T12:13:24.000Z</time><ele>673.6</ele></trkpt><trkpt lat="45.814441" lon="9.435469"><time>2024-03-23T12:13:25.000Z</time><ele>673.6</ele></trkpt><trkpt lat="45.814446" lon="9.435463"><time>2024-03-23T12:13:26.000Z</time><ele>673.4</ele></trkpt><trkpt lat="45.814451" lon="9.435453"><time>2024-03-23T12:13:27.000Z</time><ele>673.2</ele></trkpt><trkpt lat="45.814452" lon="9.435446"><time>2024-03-23T12:13:28.000Z</time><ele>673</ele></trkpt><trkpt lat="45.814455" lon="9.435444"><time>2024-03-23T12:13:29.000Z</time><ele>672.6</ele></trkpt><trkpt lat="45.814461" lon="9.435441"><time>2024-03-23T12:13:30.000Z</time><ele>672.4</ele></trkpt><trkpt lat="45.814468" lon="9.435439"><time>2024-03-23T12:13:31.000Z</time><ele>672.2</ele></trkpt><trkpt lat="45.814477" lon="9.435437"><time>2024-03-23T12:13:32.000Z</time><ele>672</ele></trkpt><trkpt lat="45.814481" lon="9.435438"><time>2024-03-23T12:13:33.000Z</time><ele>671.8</ele></trkpt><trkpt lat="45.814485" lon="9.435442"><time>2024-03-23T12:13:34.000Z</time><ele>671.6</ele></trkpt><trkpt lat="45.814487" lon="9.435444"><time>2024-03-23T12:13:35.000Z</time><ele>671.6</ele></trkpt><trkpt lat="45.814492" lon="9.435451"><time>2024-03-23T12:13:36.000Z</time><ele>671.2</ele></trkpt><trkpt lat="45.814496" lon="9.43545"><time>2024-03-23T12:13:37.000Z</time><ele>671</ele></trkpt><trkpt lat="45.814496" lon="9.43545"><time>2024-03-23T12:13:38.000Z</time><ele>670.8</ele></trkpt><trkpt lat="45.814497" lon="9.435441"><time>2024-03-23T12:13:39.000Z</time><ele>670.6</ele></trkpt><trkpt lat="45.8145" lon="9.435437"><time>2024-03-23T12:13:40.000Z</time><ele>670.4</ele></trkpt><trkpt lat="45.814508" lon="9.435436"><time>2024-03-23T12:13:41.000Z</time><ele>670.2</ele></trkpt><trkpt lat="45.814512" lon="9.435433"><time>2024-03-23T12:13:42.000Z</time><ele>670</ele></trkpt><trkpt lat="45.814515" lon="9.435423"><time>2024-03-23T12:13:43.000Z</time><ele>669.8</ele></trkpt><trkpt lat="45.814521" lon="9.435419"><time>2024-03-23T12:13:44.000Z</time><ele>669.6</ele></trkpt><trkpt lat="45.814525" lon="9.435419"><time>2024-03-23T12:13:45.000Z</time><ele>669.4</ele></trkpt><trkpt lat="45.814534" lon="9.435421"><time>2024-03-23T12:13:46.000Z</time><ele>669.2</ele></trkpt><trkpt lat="45.814543" lon="9.435418"><time>2024-03-23T12:13:47.000Z</time><ele>669</ele></trkpt><trkpt lat="45.814543" lon="9.435401"><time>2024-03-23T12:13:48.000Z</time><ele>668.8</ele></trkpt><trkpt lat="45.814541" lon="9.435386"><time>2024-03-23T12:13:49.000Z</time><ele>668.6</ele></trkpt><trkpt lat="45.814544" lon="9.435379"><time>2024-03-23T12:13:50.000Z</time><ele>668.2</ele></trkpt><trkpt lat="45.814553" lon="9.435383"><time>2024-03-23T12:13:51.000Z</time><ele>668.2</ele></trkpt><trkpt lat="45.814567" lon="9.435387"><time>2024-03-23T12:13:52.000Z</time><ele>667.8</ele></trkpt><trkpt lat="45.814574" lon="9.43539"><time>2024-03-23T12:13:53.000Z</time><ele>667.8</ele></trkpt><trkpt lat="45.814579" lon="9.435395"><time>2024-03-23T12:13:54.000Z</time><ele>667.6</ele></trkpt><trkpt lat="45.814575" lon="9.435383"><time>2024-03-23T12:13:55.000Z</time><ele>667.2</ele></trkpt><trkpt lat="45.814577" lon="9.435364"><time>2024-03-23T12:13:56.000Z</time><ele>667</ele></trkpt><trkpt lat="45.814577" lon="9.435354"><time>2024-03-23T12:13:57.000Z</time><ele>667</ele></trkpt><trkpt lat="45.81458" lon="9.435345"><time>2024-03-23T12:13:58.000Z</time><ele>666.8</ele></trkpt><trkpt lat="45.814582" lon="9.435335"><time>2024-03-23T12:13:59.000Z</time><ele>666.6</ele></trkpt><trkpt lat="45.814586" lon="9.435339"><time>2024-03-23T12:14:00.000Z</time><ele>666.4</ele></trkpt><trkpt lat="45.814589" lon="9.435337"><time>2024-03-23T12:14:01.000Z</time><ele>666</ele></trkpt><trkpt lat="45.814593" lon="9.435331"><time>2024-03-23T12:14:02.000Z</time><ele>666</ele></trkpt><trkpt lat="45.8146" lon="9.435335"><time>2024-03-23T12:14:03.000Z</time><ele>665.8</ele></trkpt><trkpt lat="45.814613" lon="9.43535"><time>2024-03-23T12:14:04.000Z</time><ele>665.6</ele></trkpt><trkpt lat="45.814632" lon="9.435384"><time>2024-03-23T12:14:05.000Z</time><ele>665.4</ele></trkpt><trkpt lat="45.81464" lon="9.435399"><time>2024-03-23T12:14:06.000Z</time><ele>665.2</ele></trkpt><trkpt lat="45.814645" lon="9.435391"><time>2024-03-23T12:14:07.000Z</time><ele>665.2</ele></trkpt><trkpt lat="45.814644" lon="9.435381"><time>2024-03-23T12:14:08.000Z</time><ele>664.8</ele></trkpt><trkpt lat="45.814651" lon="9.435382"><time>2024-03-23T12:14:09.000Z</time><ele>664.6</ele></trkpt><trkpt lat="45.814657" lon="9.435391"><time>2024-03-23T12:14:10.000Z</time><ele>664.4</ele></trkpt><trkpt lat="45.814658" lon="9.435398"><time>2024-03-23T12:14:11.000Z</time><ele>664.2</ele></trkpt><trkpt lat="45.814658" lon="9.435398"><time>2024-03-23T12:14:12.000Z</time><ele>664</ele></trkpt><trkpt lat="45.814659" lon="9.435387"><time>2024-03-23T12:14:13.000Z</time><ele>663.6</ele></trkpt><trkpt lat="45.814662" lon="9.435382"><time>2024-03-23T12:14:14.000Z</time><ele>663.4</ele></trkpt><trkpt lat="45.814666" lon="9.435377"><time>2024-03-23T12:14:15.000Z</time><ele>663.2</ele></trkpt><trkpt lat="45.814671" lon="9.435377"><time>2024-03-23T12:14:16.000Z</time><ele>663</ele></trkpt><trkpt lat="45.814677" lon="9.435364"><time>2024-03-23T12:14:17.000Z</time><ele>662.8</ele></trkpt><trkpt lat="45.814685" lon="9.435358"><time>2024-03-23T12:14:18.000Z</time><ele>662.6</ele></trkpt><trkpt lat="45.814692" lon="9.435357"><time>2024-03-23T12:14:19.000Z</time><ele>662.2</ele></trkpt><trkpt lat="45.814698" lon="9.435349"><time>2024-03-23T12:14:20.000Z</time><ele>662</ele></trkpt><trkpt lat="45.814702" lon="9.435346"><time>2024-03-23T12:14:21.000Z</time><ele>661.8</ele></trkpt><trkpt lat="45.81471" lon="9.435351"><time>2024-03-23T12:14:22.000Z</time><ele>661.6</ele></trkpt><trkpt lat="45.814717" lon="9.435344"><time>2024-03-23T12:14:23.000Z</time><ele>661.2</ele></trkpt><trkpt lat="45.814718" lon="9.435334"><time>2024-03-23T12:14:24.000Z</time><ele>661</ele></trkpt><trkpt lat="45.814718" lon="9.435331"><time>2024-03-23T12:14:25.000Z</time><ele>660.8</ele></trkpt><trkpt lat="45.814719" lon="9.435329"><time>2024-03-23T12:14:26.000Z</time><ele>660.8</ele></trkpt><trkpt lat="45.814719" lon="9.435327"><time>2024-03-23T12:14:27.000Z</time><ele>660.8</ele></trkpt><trkpt lat="45.81472" lon="9.435328"><time>2024-03-23T12:14:28.000Z</time><ele>660.8</ele></trkpt><trkpt lat="45.81472" lon="9.43533"><time>2024-03-23T12:14:29.000Z</time><ele>660.6</ele></trkpt><trkpt lat="45.814719" lon="9.435328"><time>2024-03-23T12:14:30.000Z</time><ele>660.6</ele></trkpt><trkpt lat="45.81472" lon="9.43533"><time>2024-03-23T12:14:31.000Z</time><ele>660.6</ele></trkpt><trkpt lat="45.81472" lon="9.435331"><time>2024-03-23T12:14:32.000Z</time><ele>660.6</ele></trkpt><trkpt lat="45.81472" lon="9.435334"><time>2024-03-23T12:14:33.000Z</time><ele>660.6</ele></trkpt><trkpt lat="45.81472" lon="9.435333"><time>2024-03-23T12:14:34.000Z</time><ele>660.6</ele></trkpt><trkpt lat="45.81472" lon="9.435333"><time>2024-03-23T12:14:35.000Z</time><ele>660.6</ele></trkpt><trkpt lat="45.81472" lon="9.435333"><time>2024-03-23T12:14:36.000Z</time><ele>660.6</ele></trkpt><trkpt lat="45.81472" lon="9.435333"><time>2024-03-23T12:14:37.000Z</time><ele>660.4</ele></trkpt><trkpt lat="45.81472" lon="9.435333"><time>2024-03-23T12:14:38.000Z</time><ele>660.4</ele></trkpt><trkpt lat="45.81472" lon="9.435333"><time>2024-03-23T12:14:39.000Z</time><ele>660.4</ele></trkpt><trkpt lat="45.81472" lon="9.435333"><time>2024-03-23T12:14:40.000Z</time><ele>660.2</ele></trkpt><trkpt lat="45.81472" lon="9.435333"><time>2024-03-23T12:14:41.000Z</time><ele>660.2</ele></trkpt><trkpt lat="45.81472" lon="9.435333"><time>2024-03-23T12:14:42.000Z</time><ele>660</ele></trkpt><trkpt lat="45.81472" lon="9.435333"><time>2024-03-23T12:14:43.000Z</time><ele>659.8</ele></trkpt><trkpt lat="45.81472" lon="9.435333"><time>2024-03-23T12:14:44.000Z</time><ele>659.6</ele></trkpt><trkpt lat="45.81472" lon="9.435333"><time>2024-03-23T12:14:45.000Z</time><ele>659.2</ele></trkpt><trkpt lat="45.81472" lon="9.435333"><time>2024-03-23T12:14:46.000Z</time><ele>659</ele></trkpt><trkpt lat="45.81472" lon="9.435333"><time>2024-03-23T12:14:47.000Z</time><ele>659</ele></trkpt><trkpt lat="45.81472" lon="9.435333"><time>2024-03-23T12:14:48.000Z</time><ele>658.8</ele></trkpt><trkpt lat="45.81472" lon="9.435333"><time>2024-03-23T12:14:49.000Z</time><ele>658.8</ele></trkpt><trkpt lat="45.81472" lon="9.435333"><time>2024-03-23T12:14:50.000Z</time><ele>658.8</ele></trkpt><trkpt lat="45.814727" lon="9.435333"><time>2024-03-23T12:14:51.000Z</time><ele>659</ele></trkpt><trkpt lat="45.814728" lon="9.435333"><time>2024-03-23T12:14:52.000Z</time><ele>659</ele></trkpt><trkpt lat="45.814731" lon="9.435334"><time>2024-03-23T12:14:53.000Z</time><ele>659</ele></trkpt><trkpt lat="45.814731" lon="9.435334"><time>2024-03-23T12:14:54.000Z</time><ele>659</ele></trkpt><trkpt lat="45.814737" lon="9.435335"><time>2024-03-23T12:14:55.000Z</time><ele>659.2</ele></trkpt><trkpt lat="45.814742" lon="9.435336"><time>2024-03-23T12:14:56.000Z</time><ele>659.2</ele></trkpt><trkpt lat="45.814746" lon="9.435336"><time>2024-03-23T12:14:57.000Z</time><ele>659.2</ele></trkpt><trkpt lat="45.814747" lon="9.435336"><time>2024-03-23T12:14:58.000Z</time><ele>659.2</ele></trkpt><trkpt lat="45.814748" lon="9.435336"><time>2024-03-23T12:14:59.000Z</time><ele>659.2</ele></trkpt><trkpt lat="45.814753" lon="9.435336"><time>2024-03-23T12:15:00.000Z</time><ele>659.2</ele></trkpt><trkpt lat="45.814758" lon="9.435336"><time>2024-03-23T12:15:01.000Z</time><ele>659.2</ele></trkpt><trkpt lat="45.814772" lon="9.435336"><time>2024-03-23T12:15:02.000Z</time><ele>659</ele></trkpt><trkpt lat="45.814775" lon="9.435336"><time>2024-03-23T12:15:03.000Z</time><ele>658.8</ele></trkpt><trkpt lat="45.814776" lon="9.435336"><time>2024-03-23T12:15:04.000Z</time><ele>658.8</ele></trkpt><trkpt lat="45.814785" lon="9.435336"><time>2024-03-23T12:15:05.000Z</time><ele>658.6</ele></trkpt><trkpt lat="45.814791" lon="9.435336"><time>2024-03-23T12:15:06.000Z</time><ele>658.6</ele></trkpt><trkpt lat="45.814792" lon="9.435336"><time>2024-03-23T12:15:07.000Z</time><ele>658.4</ele></trkpt><trkpt lat="45.814793" lon="9.435336"><time>2024-03-23T12:15:08.000Z</time><ele>658.2</ele></trkpt><trkpt lat="45.814793" lon="9.435336"><time>2024-03-23T12:15:09.000Z</time><ele>657.8</ele></trkpt><trkpt lat="45.814793" lon="9.435336"><time>2024-03-23T12:15:10.000Z</time><ele>657.4</ele></trkpt><trkpt lat="45.814793" lon="9.435336"><time>2024-03-23T12:15:11.000Z</time><ele>657.2</ele></trkpt><trkpt lat="45.814793" lon="9.435336"><time>2024-03-23T12:15:12.000Z</time><ele>657.2</ele></trkpt><trkpt lat="45.814793" lon="9.435336"><time>2024-03-23T12:15:13.000Z</time><ele>657</ele></trkpt><trkpt lat="45.814793" lon="9.435336"><time>2024-03-23T12:15:14.000Z</time><ele>656.6</ele></trkpt><trkpt lat="45.814793" lon="9.435332"><time>2024-03-23T12:15:15.000Z</time><ele>656.4</ele></trkpt><trkpt lat="45.814793" lon="9.435329"><time>2024-03-23T12:15:16.000Z</time><ele>656.2</ele></trkpt><trkpt lat="45.814793" lon="9.435327"><time>2024-03-23T12:15:17.000Z</time><ele>656</ele></trkpt><trkpt lat="45.814793" lon="9.435325"><time>2024-03-23T12:15:18.000Z</time><ele>655.8</ele></trkpt><trkpt lat="45.814793" lon="9.435324"><time>2024-03-23T12:15:19.000Z</time><ele>655.6</ele></trkpt><trkpt lat="45.814793" lon="9.435323"><time>2024-03-23T12:15:20.000Z</time><ele>655.4</ele></trkpt><trkpt lat="45.814793" lon="9.435322"><time>2024-03-23T12:15:21.000Z</time><ele>655</ele></trkpt><trkpt lat="45.814793" lon="9.43532"><time>2024-03-23T12:15:22.000Z</time><ele>654.8</ele></trkpt><trkpt lat="45.814792" lon="9.435317"><time>2024-03-23T12:15:23.000Z</time><ele>654.6</ele></trkpt><trkpt lat="45.814791" lon="9.435313"><time>2024-03-23T12:15:24.000Z</time><ele>654.6</ele></trkpt><trkpt lat="45.814789" lon="9.435311"><time>2024-03-23T12:15:25.000Z</time><ele>654.4</ele></trkpt><trkpt lat="45.814783" lon="9.435309"><time>2024-03-23T12:15:26.000Z</time><ele>654.2</ele></trkpt><trkpt lat="45.814778" lon="9.435308"><time>2024-03-23T12:15:27.000Z</time><ele>654</ele></trkpt><trkpt lat="45.814772" lon="9.435303"><time>2024-03-23T12:15:28.000Z</time><ele>653.8</ele></trkpt><trkpt lat="45.814765" lon="9.4353"><time>2024-03-23T12:15:29.000Z</time><ele>653.8</ele></trkpt><trkpt lat="45.81476" lon="9.435299"><time>2024-03-23T12:15:30.000Z</time><ele>653.6</ele></trkpt><trkpt lat="45.814756" lon="9.435295"><time>2024-03-23T12:15:31.000Z</time><ele>653.4</ele></trkpt><trkpt lat="45.814752" lon="9.435291"><time>2024-03-23T12:15:32.000Z</time><ele>653</ele></trkpt><trkpt lat="45.814749" lon="9.435289"><time>2024-03-23T12:15:33.000Z</time><ele>652.8</ele></trkpt><trkpt lat="45.814748" lon="9.435284"><time>2024-03-23T12:15:34.000Z</time><ele>652.4</ele></trkpt><trkpt lat="45.814747" lon="9.435282"><time>2024-03-23T12:15:35.000Z</time><ele>652</ele></trkpt><trkpt lat="45.814744" lon="9.435279"><time>2024-03-23T12:15:36.000Z</time><ele>651.8</ele></trkpt><trkpt lat="45.814743" lon="9.435278"><time>2024-03-23T12:15:37.000Z</time><ele>651.8</ele></trkpt><trkpt lat="45.814742" lon="9.435275"><time>2024-03-23T12:15:38.000Z</time><ele>651.4</ele></trkpt><trkpt lat="45.814741" lon="9.435267"><time>2024-03-23T12:15:39.000Z</time><ele>651</ele></trkpt><trkpt lat="45.81474" lon="9.435262"><time>2024-03-23T12:15:40.000Z</time><ele>650.8</ele></trkpt><trkpt lat="45.814739" lon="9.435261"><time>2024-03-23T12:15:41.000Z</time><ele>650.4</ele></trkpt><trkpt lat="45.814738" lon="9.435259"><time>2024-03-23T12:15:42.000Z</time><ele>650.2</ele></trkpt><trkpt lat="45.814737" lon="9.435257"><time>2024-03-23T12:15:43.000Z</time><ele>650</ele></trkpt><trkpt lat="45.814737" lon="9.435245"><time>2024-03-23T12:15:44.000Z</time><ele>649.6</ele></trkpt><trkpt lat="45.814738" lon="9.43523"><time>2024-03-23T12:15:45.000Z</time><ele>649.4</ele></trkpt><trkpt lat="45.814746" lon="9.435224"><time>2024-03-23T12:15:46.000Z</time><ele>649.2</ele></trkpt><trkpt lat="45.814755" lon="9.43521"><time>2024-03-23T12:15:47.000Z</time><ele>649</ele></trkpt><trkpt lat="45.814761" lon="9.435194"><time>2024-03-23T12:15:48.000Z</time><ele>648.6</ele></trkpt><trkpt lat="45.814766" lon="9.435182"><time>2024-03-23T12:15:49.000Z</time><ele>648.6</ele></trkpt><trkpt lat="45.814771" lon="9.435165"><time>2024-03-23T12:15:50.000Z</time><ele>648.2</ele></trkpt><trkpt lat="45.814772" lon="9.435142"><time>2024-03-23T12:15:51.000Z</time><ele>648</ele></trkpt><trkpt lat="45.814773" lon="9.435123"><time>2024-03-23T12:15:52.000Z</time><ele>647.6</ele></trkpt><trkpt lat="45.814774" lon="9.435101"><time>2024-03-23T12:15:53.000Z</time><ele>647.4</ele></trkpt><trkpt lat="45.814779" lon="9.435092"><time>2024-03-23T12:15:54.000Z</time><ele>647</ele></trkpt><trkpt lat="45.814786" lon="9.435084"><time>2024-03-23T12:15:55.000Z</time><ele>646.8</ele></trkpt><trkpt lat="45.814792" lon="9.435076"><time>2024-03-23T12:15:56.000Z</time><ele>646.6</ele></trkpt><trkpt lat="45.814797" lon="9.435064"><time>2024-03-23T12:15:57.000Z</time><ele>646.2</ele></trkpt><trkpt lat="45.814804" lon="9.435057"><time>2024-03-23T12:15:58.000Z</time><ele>646</ele></trkpt><trkpt lat="45.814807" lon="9.43505"><time>2024-03-23T12:15:59.000Z</time><ele>645.8</ele></trkpt><trkpt lat="45.814812" lon="9.435053"><time>2024-03-23T12:16:00.000Z</time><ele>645.6</ele></trkpt><trkpt lat="45.814824" lon="9.435062"><time>2024-03-23T12:16:01.000Z</time><ele>645.2</ele></trkpt><trkpt lat="45.814831" lon="9.43506"><time>2024-03-23T12:16:02.000Z</time><ele>645.2</ele></trkpt><trkpt lat="45.814838" lon="9.435066"><time>2024-03-23T12:16:03.000Z</time><ele>645</ele></trkpt><trkpt lat="45.814846" lon="9.435076"><time>2024-03-23T12:16:04.000Z</time><ele>645</ele></trkpt><trkpt lat="45.814855" lon="9.435087"><time>2024-03-23T12:16:05.000Z</time><ele>644.8</ele></trkpt><trkpt lat="45.814863" lon="9.435096"><time>2024-03-23T12:16:06.000Z</time><ele>644.6</ele></trkpt><trkpt lat="45.814872" lon="9.435097"><time>2024-03-23T12:16:07.000Z</time><ele>644.4</ele></trkpt><trkpt lat="45.81487" lon="9.43509"><time>2024-03-23T12:16:08.000Z</time><ele>644.2</ele></trkpt><trkpt lat="45.814868" lon="9.435075"><time>2024-03-23T12:16:09.000Z</time><ele>643.8</ele></trkpt><trkpt lat="45.814867" lon="9.435058"><time>2024-03-23T12:16:10.000Z</time><ele>643.6</ele></trkpt><trkpt lat="45.814866" lon="9.435052"><time>2024-03-23T12:16:11.000Z</time><ele>643.2</ele></trkpt><trkpt lat="45.814867" lon="9.435051"><time>2024-03-23T12:16:12.000Z</time><ele>643</ele></trkpt><trkpt lat="45.814867" lon="9.435048"><time>2024-03-23T12:16:13.000Z</time><ele>642.6</ele></trkpt><trkpt lat="45.814866" lon="9.435051"><time>2024-03-23T12:16:14.000Z</time><ele>642.6</ele></trkpt><trkpt lat="45.814864" lon="9.435051"><time>2024-03-23T12:16:15.000Z</time><ele>642.2</ele></trkpt><trkpt lat="45.81486" lon="9.43505"><time>2024-03-23T12:16:16.000Z</time><ele>641.8</ele></trkpt><trkpt lat="45.814859" lon="9.435053"><time>2024-03-23T12:16:17.000Z</time><ele>641.6</ele></trkpt><trkpt lat="45.814858" lon="9.435058"><time>2024-03-23T12:16:18.000Z</time><ele>641</ele></trkpt><trkpt lat="45.814856" lon="9.435056"><time>2024-03-23T12:16:19.000Z</time><ele>640.8</ele></trkpt><trkpt lat="45.814854" lon="9.435056"><time>2024-03-23T12:16:20.000Z</time><ele>640.4</ele></trkpt><trkpt lat="45.814849" lon="9.435049"><time>2024-03-23T12:16:21.000Z</time><ele>640.2</ele></trkpt><trkpt lat="45.814843" lon="9.435034"><time>2024-03-23T12:16:22.000Z</time><ele>639.8</ele></trkpt><trkpt lat="45.814837" lon="9.435017"><time>2024-03-23T12:16:23.000Z</time><ele>639.6</ele></trkpt><trkpt lat="45.81483" lon="9.435008"><time>2024-03-23T12:16:24.000Z</time><ele>639.4</ele></trkpt><trkpt lat="45.814821" lon="9.434995"><time>2024-03-23T12:16:25.000Z</time><ele>639</ele></trkpt><trkpt lat="45.814815" lon="9.43499"><time>2024-03-23T12:16:26.000Z</time><ele>638.8</ele></trkpt><trkpt lat="45.814811" lon="9.434982"><time>2024-03-23T12:16:27.000Z</time><ele>638.4</ele></trkpt><trkpt lat="45.814805" lon="9.434975"><time>2024-03-23T12:16:28.000Z</time><ele>638.2</ele></trkpt><trkpt lat="45.814793" lon="9.434969"><time>2024-03-23T12:16:29.000Z</time><ele>638</ele></trkpt><trkpt lat="45.814788" lon="9.434973"><time>2024-03-23T12:16:30.000Z</time><ele>637.8</ele></trkpt><trkpt lat="45.814781" lon="9.434973"><time>2024-03-23T12:16:31.000Z</time><ele>637.6</ele></trkpt><trkpt lat="45.814775" lon="9.434976"><time>2024-03-23T12:16:32.000Z</time><ele>637.4</ele></trkpt><trkpt lat="45.814771" lon="9.434971"><time>2024-03-23T12:16:33.000Z</time><ele>637</ele></trkpt><trkpt lat="45.814771" lon="9.434967"><time>2024-03-23T12:16:34.000Z</time><ele>636.8</ele></trkpt><trkpt lat="45.814763" lon="9.434964"><time>2024-03-23T12:16:35.000Z</time><ele>636.6</ele></trkpt><trkpt lat="45.814754" lon="9.434967"><time>2024-03-23T12:16:36.000Z</time><ele>636.2</ele></trkpt><trkpt lat="45.814749" lon="9.434956"><time>2024-03-23T12:16:37.000Z</time><ele>635.8</ele></trkpt><trkpt lat="45.814745" lon="9.434942"><time>2024-03-23T12:16:38.000Z</time><ele>635.6</ele></trkpt><trkpt lat="45.814743" lon="9.43492"><time>2024-03-23T12:16:39.000Z</time><ele>635.4</ele></trkpt><trkpt lat="45.814748" lon="9.434913"><time>2024-03-23T12:16:40.000Z</time><ele>635.2</ele></trkpt><trkpt lat="45.814753" lon="9.434908"><time>2024-03-23T12:16:41.000Z</time><ele>634.8</ele></trkpt><trkpt lat="45.814758" lon="9.434903"><time>2024-03-23T12:16:42.000Z</time><ele>634.6</ele></trkpt><trkpt lat="45.814764" lon="9.434894"><time>2024-03-23T12:16:43.000Z</time><ele>634.4</ele></trkpt><trkpt lat="45.81477" lon="9.434886"><time>2024-03-23T12:16:44.000Z</time><ele>634</ele></trkpt><trkpt lat="45.814774" lon="9.434876"><time>2024-03-23T12:16:45.000Z</time><ele>633.8</ele></trkpt><trkpt lat="45.814776" lon="9.43487"><time>2024-03-23T12:16:46.000Z</time><ele>633.6</ele></trkpt><trkpt lat="45.814779" lon="9.434864"><time>2024-03-23T12:16:47.000Z</time><ele>633.2</ele></trkpt><trkpt lat="45.814784" lon="9.434864"><time>2024-03-23T12:16:48.000Z</time><ele>633</ele></trkpt><trkpt lat="45.814785" lon="9.434861"><time>2024-03-23T12:16:49.000Z</time><ele>632.8</ele></trkpt><trkpt lat="45.814793" lon="9.434863"><time>2024-03-23T12:16:50.000Z</time><ele>632.6</ele></trkpt><trkpt lat="45.814802" lon="9.43487"><time>2024-03-23T12:16:51.000Z</time><ele>632.2</ele></trkpt><trkpt lat="45.814804" lon="9.434867"><time>2024-03-23T12:16:52.000Z</time><ele>632</ele></trkpt><trkpt lat="45.814807" lon="9.434854"><time>2024-03-23T12:16:53.000Z</time><ele>631.6</ele></trkpt><trkpt lat="45.814808" lon="9.434841"><time>2024-03-23T12:16:54.000Z</time><ele>631.4</ele></trkpt><trkpt lat="45.814814" lon="9.434834"><time>2024-03-23T12:16:55.000Z</time><ele>631</ele></trkpt><trkpt lat="45.814819" lon="9.434828"><time>2024-03-23T12:16:56.000Z</time><ele>630.8</ele></trkpt><trkpt lat="45.814826" lon="9.43482"><time>2024-03-23T12:16:57.000Z</time><ele>630.6</ele></trkpt><trkpt lat="45.814836" lon="9.434822"><time>2024-03-23T12:16:58.000Z</time><ele>630.6</ele></trkpt><trkpt lat="45.814847" lon="9.434827"><time>2024-03-23T12:16:59.000Z</time><ele>630.4</ele></trkpt><trkpt lat="45.814856" lon="9.434828"><time>2024-03-23T12:17:00.000Z</time><ele>630.2</ele></trkpt><trkpt lat="45.814859" lon="9.434825"><time>2024-03-23T12:17:01.000Z</time><ele>630</ele></trkpt><trkpt lat="45.81486" lon="9.434822"><time>2024-03-23T12:17:02.000Z</time><ele>629.6</ele></trkpt><trkpt lat="45.814867" lon="9.43482"><time>2024-03-23T12:17:03.000Z</time><ele>629.6</ele></trkpt><trkpt lat="45.81487" lon="9.434818"><time>2024-03-23T12:17:04.000Z</time><ele>629</ele></trkpt><trkpt lat="45.814872" lon="9.43481"><time>2024-03-23T12:17:05.000Z</time><ele>628.8</ele></trkpt><trkpt lat="45.814873" lon="9.434806"><time>2024-03-23T12:17:06.000Z</time><ele>628.4</ele></trkpt><trkpt lat="45.814876" lon="9.434796"><time>2024-03-23T12:17:07.000Z</time><ele>628.2</ele></trkpt><trkpt lat="45.814881" lon="9.434789"><time>2024-03-23T12:17:08.000Z</time><ele>628.2</ele></trkpt><trkpt lat="45.814892" lon="9.434784"><time>2024-03-23T12:17:09.000Z</time><ele>627.8</ele></trkpt><trkpt lat="45.814895" lon="9.434774"><time>2024-03-23T12:17:10.000Z</time><ele>627.4</ele></trkpt><trkpt lat="45.814898" lon="9.434762"><time>2024-03-23T12:17:11.000Z</time><ele>627.2</ele></trkpt><trkpt lat="45.814904" lon="9.434769"><time>2024-03-23T12:17:12.000Z</time><ele>627</ele></trkpt><trkpt lat="45.814911" lon="9.434783"><time>2024-03-23T12:17:13.000Z</time><ele>626.8</ele></trkpt><trkpt lat="45.814913" lon="9.434783"><time>2024-03-23T12:17:14.000Z</time><ele>626.6</ele></trkpt><trkpt lat="45.814914" lon="9.434785"><time>2024-03-23T12:17:15.000Z</time><ele>626.4</ele></trkpt><trkpt lat="45.814916" lon="9.434786"><time>2024-03-23T12:17:16.000Z</time><ele>626.2</ele></trkpt><trkpt lat="45.814921" lon="9.434788"><time>2024-03-23T12:17:17.000Z</time><ele>626.2</ele></trkpt><trkpt lat="45.814927" lon="9.434788"><time>2024-03-23T12:17:18.000Z</time><ele>626.2</ele></trkpt><trkpt lat="45.814936" lon="9.434788"><time>2024-03-23T12:17:19.000Z</time><ele>626</ele></trkpt><trkpt lat="45.81494" lon="9.434776"><time>2024-03-23T12:17:20.000Z</time><ele>626</ele></trkpt><trkpt lat="45.814939" lon="9.434758"><time>2024-03-23T12:17:21.000Z</time><ele>626</ele></trkpt><trkpt lat="45.814944" lon="9.434741"><time>2024-03-23T12:17:22.000Z</time><ele>626</ele></trkpt><trkpt lat="45.814955" lon="9.434732"><time>2024-03-23T12:17:23.000Z</time><ele>625.8</ele></trkpt><trkpt lat="45.814962" lon="9.434721"><time>2024-03-23T12:17:24.000Z</time><ele>625.6</ele></trkpt><trkpt lat="45.814966" lon="9.434707"><time>2024-03-23T12:17:25.000Z</time><ele>625.4</ele></trkpt><trkpt lat="45.814967" lon="9.434681"><time>2024-03-23T12:17:26.000Z</time><ele>625.2</ele></trkpt><trkpt lat="45.814965" lon="9.434657"><time>2024-03-23T12:17:27.000Z</time><ele>625</ele></trkpt><trkpt lat="45.814964" lon="9.434651"><time>2024-03-23T12:17:28.000Z</time><ele>624.8</ele></trkpt><trkpt lat="45.814966" lon="9.434643"><time>2024-03-23T12:17:29.000Z</time><ele>624.6</ele></trkpt><trkpt lat="45.814972" lon="9.434637"><time>2024-03-23T12:17:30.000Z</time><ele>624.2</ele></trkpt><trkpt lat="45.814978" lon="9.434623"><time>2024-03-23T12:17:31.000Z</time><ele>624</ele></trkpt><trkpt lat="45.814985" lon="9.434612"><time>2024-03-23T12:17:32.000Z</time><ele>624</ele></trkpt><trkpt lat="45.814993" lon="9.434603"><time>2024-03-23T12:17:33.000Z</time><ele>623.8</ele></trkpt><trkpt lat="45.815004" lon="9.434602"><time>2024-03-23T12:17:34.000Z</time><ele>623.4</ele></trkpt><trkpt lat="45.815013" lon="9.434598"><time>2024-03-23T12:17:35.000Z</time><ele>623.2</ele></trkpt><trkpt lat="45.815012" lon="9.434596"><time>2024-03-23T12:17:36.000Z</time><ele>623</ele></trkpt><trkpt lat="45.815017" lon="9.43459"><time>2024-03-23T12:17:37.000Z</time><ele>622.8</ele></trkpt><trkpt lat="45.815026" lon="9.434587"><time>2024-03-23T12:17:38.000Z</time><ele>622.6</ele></trkpt><trkpt lat="45.815036" lon="9.434583"><time>2024-03-23T12:17:39.000Z</time><ele>622.4</ele></trkpt><trkpt lat="45.815046" lon="9.434584"><time>2024-03-23T12:17:40.000Z</time><ele>622</ele></trkpt><trkpt lat="45.815052" lon="9.434583"><time>2024-03-23T12:17:41.000Z</time><ele>622</ele></trkpt><trkpt lat="45.815053" lon="9.434584"><time>2024-03-23T12:17:42.000Z</time><ele>621.8</ele></trkpt><trkpt lat="45.815058" lon="9.434579"><time>2024-03-23T12:17:43.000Z</time><ele>621.6</ele></trkpt><trkpt lat="45.815058" lon="9.434576"><time>2024-03-23T12:17:44.000Z</time><ele>621.4</ele></trkpt><trkpt lat="45.815063" lon="9.434568"><time>2024-03-23T12:17:45.000Z</time><ele>621</ele></trkpt><trkpt lat="45.815075" lon="9.434557"><time>2024-03-23T12:17:46.000Z</time><ele>620.8</ele></trkpt><trkpt lat="45.815079" lon="9.434555"><time>2024-03-23T12:17:47.000Z</time><ele>620.6</ele></trkpt><trkpt lat="45.815085" lon="9.434543"><time>2024-03-23T12:17:48.000Z</time><ele>620.4</ele></trkpt><trkpt lat="45.815092" lon="9.434535"><time>2024-03-23T12:17:49.000Z</time><ele>620.2</ele></trkpt><trkpt lat="45.815093" lon="9.434532"><time>2024-03-23T12:17:50.000Z</time><ele>619.8</ele></trkpt><trkpt lat="45.815091" lon="9.43453"><time>2024-03-23T12:17:51.000Z</time><ele>619.4</ele></trkpt><trkpt lat="45.815092" lon="9.434529"><time>2024-03-23T12:17:52.000Z</time><ele>619</ele></trkpt><trkpt lat="45.815099" lon="9.43452"><time>2024-03-23T12:17:53.000Z</time><ele>618.8</ele></trkpt><trkpt lat="45.815105" lon="9.434512"><time>2024-03-23T12:17:54.000Z</time><ele>618.6</ele></trkpt><trkpt lat="45.81511" lon="9.43451"><time>2024-03-23T12:17:55.000Z</time><ele>618.2</ele></trkpt><trkpt lat="45.815117" lon="9.434511"><time>2024-03-23T12:17:56.000Z</time><ele>618</ele></trkpt><trkpt lat="45.81512" lon="9.434509"><time>2024-03-23T12:17:57.000Z</time><ele>617.6</ele></trkpt><trkpt lat="45.815121" lon="9.434503"><time>2024-03-23T12:17:58.000Z</time><ele>617.4</ele></trkpt><trkpt lat="45.81512" lon="9.434483"><time>2024-03-23T12:17:59.000Z</time><ele>617.2</ele></trkpt><trkpt lat="45.81512" lon="9.434469"><time>2024-03-23T12:18:00.000Z</time><ele>616.8</ele></trkpt><trkpt lat="45.815119" lon="9.434456"><time>2024-03-23T12:18:01.000Z</time><ele>616.6</ele></trkpt><trkpt lat="45.815117" lon="9.434442"><time>2024-03-23T12:18:02.000Z</time><ele>616.4</ele></trkpt><trkpt lat="45.815118" lon="9.434439"><time>2024-03-23T12:18:03.000Z</time><ele>616.2</ele></trkpt><trkpt lat="45.815117" lon="9.434426"><time>2024-03-23T12:18:04.000Z</time><ele>615.8</ele></trkpt><trkpt lat="45.815125" lon="9.434426"><time>2024-03-23T12:18:05.000Z</time><ele>615.8</ele></trkpt><trkpt lat="45.815136" lon="9.434422"><time>2024-03-23T12:18:06.000Z</time><ele>615.6</ele></trkpt><trkpt lat="45.815145" lon="9.434425"><time>2024-03-23T12:18:07.000Z</time><ele>615.4</ele></trkpt><trkpt lat="45.815146" lon="9.434422"><time>2024-03-23T12:18:08.000Z</time><ele>615</ele></trkpt><trkpt lat="45.815146" lon="9.43442"><time>2024-03-23T12:18:09.000Z</time><ele>614.6</ele></trkpt><trkpt lat="45.815147" lon="9.434415"><time>2024-03-23T12:18:10.000Z</time><ele>614.4</ele></trkpt><trkpt lat="45.815151" lon="9.434409"><time>2024-03-23T12:18:11.000Z</time><ele>614.2</ele></trkpt><trkpt lat="45.815155" lon="9.434398"><time>2024-03-23T12:18:12.000Z</time><ele>614</ele></trkpt><trkpt lat="45.815164" lon="9.4344"><time>2024-03-23T12:18:13.000Z</time><ele>613.8</ele></trkpt><trkpt lat="45.81517" lon="9.43439"><time>2024-03-23T12:18:14.000Z</time><ele>613.4</ele></trkpt><trkpt lat="45.815172" lon="9.434386"><time>2024-03-23T12:18:15.000Z</time><ele>613.2</ele></trkpt><trkpt lat="45.815179" lon="9.434367"><time>2024-03-23T12:18:16.000Z</time><ele>613</ele></trkpt><trkpt lat="45.815181" lon="9.434359"><time>2024-03-23T12:18:17.000Z</time><ele>612.8</ele></trkpt><trkpt lat="45.815183" lon="9.43434"><time>2024-03-23T12:18:18.000Z</time><ele>612.6</ele></trkpt><trkpt lat="45.815186" lon="9.434324"><time>2024-03-23T12:18:19.000Z</time><ele>612.4</ele></trkpt><trkpt lat="45.815186" lon="9.434308"><time>2024-03-23T12:18:20.000Z</time><ele>612.2</ele></trkpt><trkpt lat="45.815192" lon="9.434302"><time>2024-03-23T12:18:21.000Z</time><ele>612</ele></trkpt><trkpt lat="45.815194" lon="9.434298"><time>2024-03-23T12:18:22.000Z</time><ele>611.8</ele></trkpt><trkpt lat="45.815194" lon="9.434298"><time>2024-03-23T12:18:23.000Z</time><ele>611.6</ele></trkpt><trkpt lat="45.81519" lon="9.434302"><time>2024-03-23T12:18:24.000Z</time><ele>611</ele></trkpt><trkpt lat="45.815188" lon="9.434313"><time>2024-03-23T12:18:25.000Z</time><ele>610.8</ele></trkpt><trkpt lat="45.815184" lon="9.434313"><time>2024-03-23T12:18:26.000Z</time><ele>610.4</ele></trkpt><trkpt lat="45.815181" lon="9.43432"><time>2024-03-23T12:18:27.000Z</time><ele>610.2</ele></trkpt><trkpt lat="45.815175" lon="9.434319"><time>2024-03-23T12:18:28.000Z</time><ele>609.8</ele></trkpt><trkpt lat="45.815175" lon="9.434325"><time>2024-03-23T12:18:29.000Z</time><ele>609.6</ele></trkpt><trkpt lat="45.815172" lon="9.434329"><time>2024-03-23T12:18:30.000Z</time><ele>609.4</ele></trkpt><trkpt lat="45.815169" lon="9.434329"><time>2024-03-23T12:18:31.000Z</time><ele>609.2</ele></trkpt><trkpt lat="45.815165" lon="9.434333"><time>2024-03-23T12:18:32.000Z</time><ele>609</ele></trkpt><trkpt lat="45.815161" lon="9.434328"><time>2024-03-23T12:18:33.000Z</time><ele>608.8</ele></trkpt><trkpt lat="45.815155" lon="9.434321"><time>2024-03-23T12:18:34.000Z</time><ele>608.4</ele></trkpt><trkpt lat="45.815146" lon="9.434314"><time>2024-03-23T12:18:35.000Z</time><ele>608.2</ele></trkpt><trkpt lat="45.815139" lon="9.434302"><time>2024-03-23T12:18:36.000Z</time><ele>608</ele></trkpt><trkpt lat="45.815132" lon="9.434293"><time>2024-03-23T12:18:37.000Z</time><ele>607.8</ele></trkpt><trkpt lat="45.815127" lon="9.434287"><time>2024-03-23T12:18:38.000Z</time><ele>607.6</ele></trkpt><trkpt lat="45.815132" lon="9.434296"><time>2024-03-23T12:18:39.000Z</time><ele>607.4</ele></trkpt><trkpt lat="45.815134" lon="9.434303"><time>2024-03-23T12:18:40.000Z</time><ele>607.2</ele></trkpt><trkpt lat="45.815134" lon="9.4343"><time>2024-03-23T12:18:41.000Z</time><ele>607</ele></trkpt><trkpt lat="45.815134" lon="9.434284"><time>2024-03-23T12:18:42.000Z</time><ele>606.8</ele></trkpt><trkpt lat="45.815132" lon="9.434263"><time>2024-03-23T12:18:43.000Z</time><ele>606.4</ele></trkpt><trkpt lat="45.815134" lon="9.434252"><time>2024-03-23T12:18:44.000Z</time><ele>606.2</ele></trkpt><trkpt lat="45.815137" lon="9.434246"><time>2024-03-23T12:18:45.000Z</time><ele>606.2</ele></trkpt><trkpt lat="45.81514" lon="9.434245"><time>2024-03-23T12:18:46.000Z</time><ele>605.6</ele></trkpt><trkpt lat="45.815143" lon="9.434246"><time>2024-03-23T12:18:47.000Z</time><ele>605.4</ele></trkpt><trkpt lat="45.815148" lon="9.43424"><time>2024-03-23T12:18:48.000Z</time><ele>605.2</ele></trkpt><trkpt lat="45.815151" lon="9.434228"><time>2024-03-23T12:18:49.000Z</time><ele>604.8</ele></trkpt><trkpt lat="45.815155" lon="9.434223"><time>2024-03-23T12:18:50.000Z</time><ele>604.6</ele></trkpt><trkpt lat="45.815156" lon="9.434227"><time>2024-03-23T12:18:51.000Z</time><ele>604.4</ele></trkpt><trkpt lat="45.81516" lon="9.434215"><time>2024-03-23T12:18:52.000Z</time><ele>604</ele></trkpt><trkpt lat="45.815162" lon="9.434208"><time>2024-03-23T12:18:53.000Z</time><ele>604</ele></trkpt><trkpt lat="45.815166" lon="9.4342"><time>2024-03-23T12:18:54.000Z</time><ele>603.6</ele></trkpt><trkpt lat="45.815168" lon="9.434199"><time>2024-03-23T12:18:55.000Z</time><ele>603.4</ele></trkpt><trkpt lat="45.815175" lon="9.434202"><time>2024-03-23T12:18:56.000Z</time><ele>603</ele></trkpt><trkpt lat="45.815179" lon="9.434187"><time>2024-03-23T12:18:57.000Z</time><ele>602.4</ele></trkpt><trkpt lat="45.815184" lon="9.434188"><time>2024-03-23T12:18:58.000Z</time><ele>602.2</ele></trkpt><trkpt lat="45.815188" lon="9.434172"><time>2024-03-23T12:18:59.000Z</time><ele>602</ele></trkpt><trkpt lat="45.81519" lon="9.434168"><time>2024-03-23T12:19:00.000Z</time><ele>601.6</ele></trkpt><trkpt lat="45.815196" lon="9.434156"><time>2024-03-23T12:19:01.000Z</time><ele>601.4</ele></trkpt><trkpt lat="45.815196" lon="9.434153"><time>2024-03-23T12:19:02.000Z</time><ele>601.4</ele></trkpt><trkpt lat="45.815204" lon="9.434148"><time>2024-03-23T12:19:03.000Z</time><ele>601</ele></trkpt><trkpt lat="45.815214" lon="9.434137"><time>2024-03-23T12:19:04.000Z</time><ele>600.8</ele></trkpt><trkpt lat="45.815224" lon="9.434131"><time>2024-03-23T12:19:05.000Z</time><ele>600.6</ele></trkpt><trkpt lat="45.81523" lon="9.434128"><time>2024-03-23T12:19:06.000Z</time><ele>600.2</ele></trkpt><trkpt lat="45.815238" lon="9.434124"><time>2024-03-23T12:19:07.000Z</time><ele>600</ele></trkpt><trkpt lat="45.815239" lon="9.434104"><time>2024-03-23T12:19:08.000Z</time><ele>599.6</ele></trkpt><trkpt lat="45.81524" lon="9.434087"><time>2024-03-23T12:19:09.000Z</time><ele>599.2</ele></trkpt><trkpt lat="45.815245" lon="9.434079"><time>2024-03-23T12:19:10.000Z</time><ele>599</ele></trkpt><trkpt lat="45.815248" lon="9.434083"><time>2024-03-23T12:19:11.000Z</time><ele>598.8</ele></trkpt><trkpt lat="45.815249" lon="9.434077"><time>2024-03-23T12:19:12.000Z</time><ele>598.8</ele></trkpt><trkpt lat="45.815252" lon="9.434062"><time>2024-03-23T12:19:13.000Z</time><ele>598.6</ele></trkpt><trkpt lat="45.815249" lon="9.434048"><time>2024-03-23T12:19:14.000Z</time><ele>598.4</ele></trkpt><trkpt lat="45.815247" lon="9.434045"><time>2024-03-23T12:19:15.000Z</time><ele>598.2</ele></trkpt><trkpt lat="45.815247" lon="9.434034"><time>2024-03-23T12:19:16.000Z</time><ele>598</ele></trkpt><trkpt lat="45.815241" lon="9.434016"><time>2024-03-23T12:19:17.000Z</time><ele>597.6</ele></trkpt><trkpt lat="45.815236" lon="9.433999"><time>2024-03-23T12:19:18.000Z</time><ele>597.4</ele></trkpt><trkpt lat="45.815241" lon="9.433977"><time>2024-03-23T12:19:19.000Z</time><ele>597</ele></trkpt><trkpt lat="45.815242" lon="9.433973"><time>2024-03-23T12:19:20.000Z</time><ele>596.8</ele></trkpt><trkpt lat="45.815248" lon="9.433956"><time>2024-03-23T12:19:21.000Z</time><ele>596.6</ele></trkpt><trkpt lat="45.815251" lon="9.433951"><time>2024-03-23T12:19:22.000Z</time><ele>596.2</ele></trkpt><trkpt lat="45.815254" lon="9.433933"><time>2024-03-23T12:19:23.000Z</time><ele>596</ele></trkpt><trkpt lat="45.815254" lon="9.433911"><time>2024-03-23T12:19:24.000Z</time><ele>595.8</ele></trkpt><trkpt lat="45.815255" lon="9.433897"><time>2024-03-23T12:19:25.000Z</time><ele>595.4</ele></trkpt><trkpt lat="45.815263" lon="9.43386"><time>2024-03-23T12:19:26.000Z</time><ele>595.2</ele></trkpt><trkpt lat="45.81527" lon="9.433843"><time>2024-03-23T12:19:27.000Z</time><ele>595.2</ele></trkpt><trkpt lat="45.815278" lon="9.433836"><time>2024-03-23T12:19:28.000Z</time><ele>595</ele></trkpt><trkpt lat="45.815272" lon="9.433806"><time>2024-03-23T12:19:29.000Z</time><ele>594.6</ele></trkpt><trkpt lat="45.815276" lon="9.433793"><time>2024-03-23T12:19:30.000Z</time><ele>594.2</ele></trkpt><trkpt lat="45.815285" lon="9.433773"><time>2024-03-23T12:19:31.000Z</time><ele>594</ele></trkpt><trkpt lat="45.815286" lon="9.433769"><time>2024-03-23T12:19:32.000Z</time><ele>593.8</ele></trkpt><trkpt lat="45.815298" lon="9.433751"><time>2024-03-23T12:19:33.000Z</time><ele>593.6</ele></trkpt><trkpt lat="45.815305" lon="9.43375"><time>2024-03-23T12:19:34.000Z</time><ele>593.4</ele></trkpt><trkpt lat="45.815313" lon="9.433747"><time>2024-03-23T12:19:35.000Z</time><ele>593.4</ele></trkpt><trkpt lat="45.815315" lon="9.433733"><time>2024-03-23T12:19:36.000Z</time><ele>593.2</ele></trkpt><trkpt lat="45.815311" lon="9.433711"><time>2024-03-23T12:19:37.000Z</time><ele>593</ele></trkpt><trkpt lat="45.815299" lon="9.43368"><time>2024-03-23T12:19:38.000Z</time><ele>592.6</ele></trkpt><trkpt lat="45.815296" lon="9.433669"><time>2024-03-23T12:19:39.000Z</time><ele>592.6</ele></trkpt><trkpt lat="45.8153" lon="9.433654"><time>2024-03-23T12:19:40.000Z</time><ele>592.2</ele></trkpt><trkpt lat="45.815299" lon="9.433656"><time>2024-03-23T12:19:41.000Z</time><ele>592</ele></trkpt><trkpt lat="45.815283" lon="9.433647"><time>2024-03-23T12:19:42.000Z</time><ele>591.8</ele></trkpt><trkpt lat="45.815263" lon="9.433637"><time>2024-03-23T12:19:43.000Z</time><ele>591.4</ele></trkpt><trkpt lat="45.815246" lon="9.433624"><time>2024-03-23T12:19:44.000Z</time><ele>591.2</ele></trkpt><trkpt lat="45.815222" lon="9.433601"><time>2024-03-23T12:19:45.000Z</time><ele>591</ele></trkpt><trkpt lat="45.815209" lon="9.433592"><time>2024-03-23T12:19:46.000Z</time><ele>590.8</ele></trkpt><trkpt lat="45.815206" lon="9.433601"><time>2024-03-23T12:19:47.000Z</time><ele>590.8</ele></trkpt><trkpt lat="45.8152" lon="9.433603"><time>2024-03-23T12:19:48.000Z</time><ele>590.6</ele></trkpt><trkpt lat="45.8152" lon="9.433604"><time>2024-03-23T12:19:49.000Z</time><ele>590.4</ele></trkpt><trkpt lat="45.815206" lon="9.433624"><time>2024-03-23T12:19:50.000Z</time><ele>590.2</ele></trkpt><trkpt lat="45.815214" lon="9.43365"><time>2024-03-23T12:19:51.000Z</time><ele>589.8</ele></trkpt><trkpt lat="45.815213" lon="9.433656"><time>2024-03-23T12:19:52.000Z</time><ele>589.6</ele></trkpt><trkpt lat="45.815205" lon="9.433645"><time>2024-03-23T12:19:53.000Z</time><ele>589.4</ele></trkpt><trkpt lat="45.815191" lon="9.433626"><time>2024-03-23T12:19:54.000Z</time><ele>589.2</ele></trkpt><trkpt lat="45.815182" lon="9.433609"><time>2024-03-23T12:19:55.000Z</time><ele>588.8</ele></trkpt><trkpt lat="45.815172" lon="9.433607"><time>2024-03-23T12:19:56.000Z</time><ele>588.4</ele></trkpt><trkpt lat="45.815167" lon="9.433614"><time>2024-03-23T12:19:57.000Z</time><ele>588</ele></trkpt><trkpt lat="45.815168" lon="9.43362"><time>2024-03-23T12:19:58.000Z</time><ele>587.8</ele></trkpt><trkpt lat="45.815172" lon="9.433629"><time>2024-03-23T12:19:59.000Z</time><ele>587.4</ele></trkpt><trkpt lat="45.815171" lon="9.43363"><time>2024-03-23T12:20:00.000Z</time><ele>587.2</ele></trkpt><trkpt lat="45.815162" lon="9.433625"><time>2024-03-23T12:20:01.000Z</time><ele>587</ele></trkpt><trkpt lat="45.81515" lon="9.433632"><time>2024-03-23T12:20:02.000Z</time><ele>586.8</ele></trkpt><trkpt lat="45.815138" lon="9.433637"><time>2024-03-23T12:20:03.000Z</time><ele>586.4</ele></trkpt><trkpt lat="45.81513" lon="9.433643"><time>2024-03-23T12:20:04.000Z</time><ele>586.2</ele></trkpt><trkpt lat="45.815126" lon="9.433655"><time>2024-03-23T12:20:05.000Z</time><ele>585.8</ele></trkpt><trkpt lat="45.81512" lon="9.43366"><time>2024-03-23T12:20:06.000Z</time><ele>585.6</ele></trkpt><trkpt lat="45.815117" lon="9.433665"><time>2024-03-23T12:20:07.000Z</time><ele>585.2</ele></trkpt><trkpt lat="45.81511" lon="9.433672"><time>2024-03-23T12:20:08.000Z</time><ele>585.2</ele></trkpt><trkpt lat="45.815103" lon="9.433672"><time>2024-03-23T12:20:09.000Z</time><ele>585</ele></trkpt><trkpt lat="45.815094" lon="9.433671"><time>2024-03-23T12:20:10.000Z</time><ele>584.6</ele></trkpt><trkpt lat="45.815088" lon="9.433678"><time>2024-03-23T12:20:11.000Z</time><ele>584.4</ele></trkpt><trkpt lat="45.815083" lon="9.433684"><time>2024-03-23T12:20:12.000Z</time><ele>584.2</ele></trkpt><trkpt lat="45.815083" lon="9.433696"><time>2024-03-23T12:20:13.000Z</time><ele>584</ele></trkpt><trkpt lat="45.815076" lon="9.433703"><time>2024-03-23T12:20:14.000Z</time><ele>584</ele></trkpt><trkpt lat="45.815072" lon="9.433711"><time>2024-03-23T12:20:15.000Z</time><ele>583.6</ele></trkpt><trkpt lat="45.815065" lon="9.433719"><time>2024-03-23T12:20:16.000Z</time><ele>583.4</ele></trkpt><trkpt lat="45.815061" lon="9.433723"><time>2024-03-23T12:20:17.000Z</time><ele>583</ele></trkpt><trkpt lat="45.815052" lon="9.43372"><time>2024-03-23T12:20:18.000Z</time><ele>582.8</ele></trkpt><trkpt lat="45.815055" lon="9.433724"><time>2024-03-23T12:20:19.000Z</time><ele>582.4</ele></trkpt><trkpt lat="45.815056" lon="9.433737"><time>2024-03-23T12:20:20.000Z</time><ele>582.2</ele></trkpt><trkpt lat="45.815061" lon="9.433748"><time>2024-03-23T12:20:21.000Z</time><ele>581.8</ele></trkpt><trkpt lat="45.815064" lon="9.433755"><time>2024-03-23T12:20:22.000Z</time><ele>581.8</ele></trkpt><trkpt lat="45.815065" lon="9.433753"><time>2024-03-23T12:20:23.000Z</time><ele>581.6</ele></trkpt><trkpt lat="45.815066" lon="9.433744"><time>2024-03-23T12:20:24.000Z</time><ele>581.6</ele></trkpt><trkpt lat="45.81507" lon="9.433736"><time>2024-03-23T12:20:25.000Z</time><ele>581.2</ele></trkpt><trkpt lat="45.815068" lon="9.433723"><time>2024-03-23T12:20:26.000Z</time><ele>581</ele></trkpt><trkpt lat="45.815069" lon="9.433714"><time>2024-03-23T12:20:27.000Z</time><ele>580.8</ele></trkpt><trkpt lat="45.81507" lon="9.4337"><time>2024-03-23T12:20:28.000Z</time><ele>580.4</ele></trkpt><trkpt lat="45.815071" lon="9.433691"><time>2024-03-23T12:20:29.000Z</time><ele>580</ele></trkpt><trkpt lat="45.81508" lon="9.433698"><time>2024-03-23T12:20:30.000Z</time><ele>579.8</ele></trkpt><trkpt lat="45.815084" lon="9.433702"><time>2024-03-23T12:20:31.000Z</time><ele>579.6</ele></trkpt><trkpt lat="45.815089" lon="9.433709"><time>2024-03-23T12:20:32.000Z</time><ele>579.6</ele></trkpt><trkpt lat="45.815091" lon="9.433707"><time>2024-03-23T12:20:33.000Z</time><ele>579.2</ele></trkpt><trkpt lat="45.815094" lon="9.433703"><time>2024-03-23T12:20:34.000Z</time><ele>578.8</ele></trkpt><trkpt lat="45.815098" lon="9.433693"><time>2024-03-23T12:20:35.000Z</time><ele>578.4</ele></trkpt><trkpt lat="45.815101" lon="9.433675"><time>2024-03-23T12:20:36.000Z</time><ele>578</ele></trkpt><trkpt lat="45.815101" lon="9.433651"><time>2024-03-23T12:20:37.000Z</time><ele>577.8</ele></trkpt><trkpt lat="45.8151" lon="9.433632"><time>2024-03-23T12:20:38.000Z</time><ele>577.4</ele></trkpt><trkpt lat="45.815097" lon="9.433605"><time>2024-03-23T12:20:39.000Z</time><ele>577.2</ele></trkpt><trkpt lat="45.815094" lon="9.433588"><time>2024-03-23T12:20:40.000Z</time><ele>577</ele></trkpt><trkpt lat="45.815087" lon="9.43357"><time>2024-03-23T12:20:41.000Z</time><ele>576.6</ele></trkpt><trkpt lat="45.815086" lon="9.433558"><time>2024-03-23T12:20:42.000Z</time><ele>576.2</ele></trkpt><trkpt lat="45.81509" lon="9.433556"><time>2024-03-23T12:20:43.000Z</time><ele>575.8</ele></trkpt><trkpt lat="45.815103" lon="9.433557"><time>2024-03-23T12:20:44.000Z</time><ele>575.4</ele></trkpt><trkpt lat="45.815113" lon="9.433555"><time>2024-03-23T12:20:45.000Z</time><ele>575.2</ele></trkpt><trkpt lat="45.815115" lon="9.433534"><time>2024-03-23T12:20:46.000Z</time><ele>575</ele></trkpt><trkpt lat="45.815117" lon="9.433513"><time>2024-03-23T12:20:47.000Z</time><ele>574.6</ele></trkpt><trkpt lat="45.815115" lon="9.433491"><time>2024-03-23T12:20:48.000Z</time><ele>574.4</ele></trkpt><trkpt lat="45.815108" lon="9.433473"><time>2024-03-23T12:20:49.000Z</time><ele>574</ele></trkpt><trkpt lat="45.815106" lon="9.433462"><time>2024-03-23T12:20:50.000Z</time><ele>574</ele></trkpt><trkpt lat="45.815108" lon="9.433462"><time>2024-03-23T12:20:51.000Z</time><ele>573.8</ele></trkpt><trkpt lat="45.815113" lon="9.433463"><time>2024-03-23T12:20:52.000Z</time><ele>573.6</ele></trkpt><trkpt lat="45.815114" lon="9.433465"><time>2024-03-23T12:20:53.000Z</time><ele>573.2</ele></trkpt><trkpt lat="45.815115" lon="9.433466"><time>2024-03-23T12:20:54.000Z</time><ele>573</ele></trkpt><trkpt lat="45.815117" lon="9.433469"><time>2024-03-23T12:20:55.000Z</time><ele>572.8</ele></trkpt><trkpt lat="45.815119" lon="9.433473"><time>2024-03-23T12:20:56.000Z</time><ele>572.4</ele></trkpt><trkpt lat="45.815121" lon="9.433471"><time>2024-03-23T12:20:57.000Z</time><ele>572.2</ele></trkpt><trkpt lat="45.815121" lon="9.433463"><time>2024-03-23T12:20:58.000Z</time><ele>571.8</ele></trkpt><trkpt lat="45.815115" lon="9.433447"><time>2024-03-23T12:20:59.000Z</time><ele>571.6</ele></trkpt><trkpt lat="45.81511" lon="9.433427"><time>2024-03-23T12:21:00.000Z</time><ele>571.4</ele></trkpt><trkpt lat="45.815105" lon="9.433402"><time>2024-03-23T12:21:01.000Z</time><ele>571</ele></trkpt><trkpt lat="45.815104" lon="9.433382"><time>2024-03-23T12:21:02.000Z</time><ele>570.8</ele></trkpt><trkpt lat="45.815104" lon="9.433367"><time>2024-03-23T12:21:03.000Z</time><ele>570.4</ele></trkpt><trkpt lat="45.815105" lon="9.433352"><time>2024-03-23T12:21:04.000Z</time><ele>570</ele></trkpt><trkpt lat="45.815107" lon="9.433331"><time>2024-03-23T12:21:05.000Z</time><ele>569.8</ele></trkpt><trkpt lat="45.815112" lon="9.433308"><time>2024-03-23T12:21:06.000Z</time><ele>569.6</ele></trkpt><trkpt lat="45.815122" lon="9.433291"><time>2024-03-23T12:21:07.000Z</time><ele>569.4</ele></trkpt><trkpt lat="45.815134" lon="9.433279"><time>2024-03-23T12:21:08.000Z</time><ele>569.2</ele></trkpt><trkpt lat="45.815145" lon="9.433274"><time>2024-03-23T12:21:09.000Z</time><ele>569</ele></trkpt><trkpt lat="45.815155" lon="9.433266"><time>2024-03-23T12:21:10.000Z</time><ele>568.8</ele></trkpt><trkpt lat="45.815166" lon="9.433255"><time>2024-03-23T12:21:11.000Z</time><ele>568.8</ele></trkpt><trkpt lat="45.815172" lon="9.433235"><time>2024-03-23T12:21:12.000Z</time><ele>568.6</ele></trkpt><trkpt lat="45.815176" lon="9.433209"><time>2024-03-23T12:21:13.000Z</time><ele>568.4</ele></trkpt><trkpt lat="45.815189" lon="9.433189"><time>2024-03-23T12:21:14.000Z</time><ele>568.2</ele></trkpt><trkpt lat="45.815194" lon="9.433159"><time>2024-03-23T12:21:15.000Z</time><ele>568</ele></trkpt><trkpt lat="45.815201" lon="9.433134"><time>2024-03-23T12:21:16.000Z</time><ele>567.8</ele></trkpt><trkpt lat="45.81521" lon="9.433116"><time>2024-03-23T12:21:17.000Z</time><ele>567.6</ele></trkpt><trkpt lat="45.81522" lon="9.433093"><time>2024-03-23T12:21:18.000Z</time><ele>567.4</ele></trkpt><trkpt lat="45.815225" lon="9.433072"><time>2024-03-23T12:21:19.000Z</time><ele>567.4</ele></trkpt><trkpt lat="45.815227" lon="9.433044"><time>2024-03-23T12:21:20.000Z</time><ele>567</ele></trkpt><trkpt lat="45.815229" lon="9.433018"><time>2024-03-23T12:21:21.000Z</time><ele>566.8</ele></trkpt><trkpt lat="45.815235" lon="9.432995"><time>2024-03-23T12:21:22.000Z</time><ele>566.6</ele></trkpt><trkpt lat="45.815239" lon="9.432971"><time>2024-03-23T12:21:23.000Z</time><ele>566.4</ele></trkpt><trkpt lat="45.81524" lon="9.432955"><time>2024-03-23T12:21:24.000Z</time><ele>566.2</ele></trkpt><trkpt lat="45.815246" lon="9.432943"><time>2024-03-23T12:21:25.000Z</time><ele>566</ele></trkpt><trkpt lat="45.815252" lon="9.43293"><time>2024-03-23T12:21:26.000Z</time><ele>565.8</ele></trkpt><trkpt lat="45.81526" lon="9.432925"><time>2024-03-23T12:21:27.000Z</time><ele>565.6</ele></trkpt><trkpt lat="45.815265" lon="9.432915"><time>2024-03-23T12:21:28.000Z</time><ele>565.4</ele></trkpt><trkpt lat="45.815274" lon="9.432904"><time>2024-03-23T12:21:29.000Z</time><ele>565.4</ele></trkpt><trkpt lat="45.815279" lon="9.432883"><time>2024-03-23T12:21:30.000Z</time><ele>565</ele></trkpt><trkpt lat="45.815281" lon="9.432867"><time>2024-03-23T12:21:31.000Z</time><ele>564.8</ele></trkpt><trkpt lat="45.815283" lon="9.432856"><time>2024-03-23T12:21:32.000Z</time><ele>564.4</ele></trkpt><trkpt lat="45.815281" lon="9.432849"><time>2024-03-23T12:21:33.000Z</time><ele>564.2</ele></trkpt><trkpt lat="45.815283" lon="9.432846"><time>2024-03-23T12:21:34.000Z</time><ele>564.2</ele></trkpt><trkpt lat="45.815282" lon="9.432829"><time>2024-03-23T12:21:35.000Z</time><ele>564</ele></trkpt><trkpt lat="45.815283" lon="9.432809"><time>2024-03-23T12:21:36.000Z</time><ele>563.6</ele></trkpt><trkpt lat="45.815284" lon="9.432783"><time>2024-03-23T12:21:37.000Z</time><ele>563.4</ele></trkpt><trkpt lat="45.81529" lon="9.432771"><time>2024-03-23T12:21:38.000Z</time><ele>563</ele></trkpt><trkpt lat="45.815296" lon="9.43276"><time>2024-03-23T12:21:39.000Z</time><ele>562.6</ele></trkpt><trkpt lat="45.815296" lon="9.432743"><time>2024-03-23T12:21:40.000Z</time><ele>562.4</ele></trkpt><trkpt lat="45.815293" lon="9.432727"><time>2024-03-23T12:21:41.000Z</time><ele>562</ele></trkpt><trkpt lat="45.815294" lon="9.432708"><time>2024-03-23T12:21:42.000Z</time><ele>561.8</ele></trkpt><trkpt lat="45.815301" lon="9.432696"><time>2024-03-23T12:21:43.000Z</time><ele>561.6</ele></trkpt><trkpt lat="45.815304" lon="9.432683"><time>2024-03-23T12:21:44.000Z</time><ele>561.4</ele></trkpt><trkpt lat="45.815303" lon="9.432676"><time>2024-03-23T12:21:45.000Z</time><ele>561.2</ele></trkpt><trkpt lat="45.815304" lon="9.432672"><time>2024-03-23T12:21:46.000Z</time><ele>560.8</ele></trkpt><trkpt lat="45.815308" lon="9.432671"><time>2024-03-23T12:21:47.000Z</time><ele>560.4</ele></trkpt><trkpt lat="45.81531" lon="9.432665"><time>2024-03-23T12:21:48.000Z</time><ele>560.2</ele></trkpt><trkpt lat="45.815306" lon="9.432651"><time>2024-03-23T12:21:49.000Z</time><ele>559.8</ele></trkpt><trkpt lat="45.815298" lon="9.432631"><time>2024-03-23T12:21:50.000Z</time><ele>559.6</ele></trkpt><trkpt lat="45.815291" lon="9.432609"><time>2024-03-23T12:21:51.000Z</time><ele>559.2</ele></trkpt><trkpt lat="45.815283" lon="9.432587"><time>2024-03-23T12:21:52.000Z</time><ele>558.8</ele></trkpt><trkpt lat="45.815281" lon="9.43257"><time>2024-03-23T12:21:53.000Z</time><ele>558.6</ele></trkpt><trkpt lat="45.81528" lon="9.432562"><time>2024-03-23T12:21:54.000Z</time><ele>558.4</ele></trkpt><trkpt lat="45.815281" lon="9.432549"><time>2024-03-23T12:21:55.000Z</time><ele>558.2</ele></trkpt><trkpt lat="45.815285" lon="9.432539"><time>2024-03-23T12:21:56.000Z</time><ele>558</ele></trkpt><trkpt lat="45.815291" lon="9.432528"><time>2024-03-23T12:21:57.000Z</time><ele>557.6</ele></trkpt><trkpt lat="45.815296" lon="9.432516"><time>2024-03-23T12:21:58.000Z</time><ele>557.4</ele></trkpt><trkpt lat="45.815301" lon="9.432504"><time>2024-03-23T12:21:59.000Z</time><ele>557.2</ele></trkpt><trkpt lat="45.815303" lon="9.43249"><time>2024-03-23T12:22:00.000Z</time><ele>556.8</ele></trkpt><trkpt lat="45.815305" lon="9.432486"><time>2024-03-23T12:22:01.000Z</time><ele>556.4</ele></trkpt><trkpt lat="45.815309" lon="9.432488"><time>2024-03-23T12:22:02.000Z</time><ele>556.2</ele></trkpt><trkpt lat="45.815314" lon="9.432483"><time>2024-03-23T12:22:03.000Z</time><ele>556</ele></trkpt><trkpt lat="45.815323" lon="9.432477"><time>2024-03-23T12:22:04.000Z</time><ele>555.8</ele></trkpt><trkpt lat="45.815329" lon="9.432469"><time>2024-03-23T12:22:05.000Z</time><ele>555.6</ele></trkpt><trkpt lat="45.815326" lon="9.432455"><time>2024-03-23T12:22:06.000Z</time><ele>555.2</ele></trkpt><trkpt lat="45.815324" lon="9.43245"><time>2024-03-23T12:22:07.000Z</time><ele>555</ele></trkpt><trkpt lat="45.815324" lon="9.432448"><time>2024-03-23T12:22:08.000Z</time><ele>554.6</ele></trkpt><trkpt lat="45.815324" lon="9.432447"><time>2024-03-23T12:22:09.000Z</time><ele>554.2</ele></trkpt><trkpt lat="45.815324" lon="9.432442"><time>2024-03-23T12:22:10.000Z</time><ele>554</ele></trkpt><trkpt lat="45.815315" lon="9.432428"><time>2024-03-23T12:22:11.000Z</time><ele>553.8</ele></trkpt><trkpt lat="45.815305" lon="9.432409"><time>2024-03-23T12:22:12.000Z</time><ele>553.8</ele></trkpt><trkpt lat="45.815304" lon="9.432406"><time>2024-03-23T12:22:13.000Z</time><ele>553.8</ele></trkpt><trkpt lat="45.815304" lon="9.432405"><time>2024-03-23T12:22:14.000Z</time><ele>553.8</ele></trkpt><trkpt lat="45.815303" lon="9.432409"><time>2024-03-23T12:22:15.000Z</time><ele>553.8</ele></trkpt><trkpt lat="45.815303" lon="9.432409"><time>2024-03-23T12:22:16.000Z</time><ele>554</ele></trkpt><trkpt lat="45.815303" lon="9.432405"><time>2024-03-23T12:22:17.000Z</time><ele>554</ele></trkpt><trkpt lat="45.815304" lon="9.432402"><time>2024-03-23T12:22:18.000Z</time><ele>554</ele></trkpt><trkpt lat="45.815305" lon="9.432395"><time>2024-03-23T12:22:19.000Z</time><ele>554</ele></trkpt><trkpt lat="45.815306" lon="9.43239"><time>2024-03-23T12:22:20.000Z</time><ele>554</ele></trkpt><trkpt lat="45.815307" lon="9.432388"><time>2024-03-23T12:22:21.000Z</time><ele>554</ele></trkpt><trkpt lat="45.815309" lon="9.432387"><time>2024-03-23T12:22:22.000Z</time><ele>554</ele></trkpt><trkpt lat="45.815309" lon="9.432385"><time>2024-03-23T12:22:23.000Z</time><ele>553.8</ele></trkpt><trkpt lat="45.815307" lon="9.432381"><time>2024-03-23T12:22:24.000Z</time><ele>553.8</ele></trkpt><trkpt lat="45.815308" lon="9.432368"><time>2024-03-23T12:22:25.000Z</time><ele>553.8</ele></trkpt><trkpt lat="45.81531" lon="9.432356"><time>2024-03-23T12:22:26.000Z</time><ele>553.6</ele></trkpt><trkpt lat="45.81531" lon="9.432335"><time>2024-03-23T12:22:27.000Z</time><ele>553.6</ele></trkpt><trkpt lat="45.815315" lon="9.432326"><time>2024-03-23T12:22:28.000Z</time><ele>553.4</ele></trkpt><trkpt lat="45.815318" lon="9.432318"><time>2024-03-23T12:22:29.000Z</time><ele>553.2</ele></trkpt><trkpt lat="45.815321" lon="9.432308"><time>2024-03-23T12:22:30.000Z</time><ele>553.2</ele></trkpt><trkpt lat="45.815322" lon="9.432295"><time>2024-03-23T12:22:31.000Z</time><ele>553</ele></trkpt><trkpt lat="45.815319" lon="9.43229"><time>2024-03-23T12:22:32.000Z</time><ele>552.8</ele></trkpt><trkpt lat="45.815315" lon="9.432279"><time>2024-03-23T12:22:33.000Z</time><ele>552.6</ele></trkpt><trkpt lat="45.815314" lon="9.432278"><time>2024-03-23T12:22:34.000Z</time><ele>552.4</ele></trkpt><trkpt lat="45.815314" lon="9.432276"><time>2024-03-23T12:22:35.000Z</time><ele>552.2</ele></trkpt><trkpt lat="45.815316" lon="9.432266"><time>2024-03-23T12:22:36.000Z</time><ele>552</ele></trkpt><trkpt lat="45.815319" lon="9.432256"><time>2024-03-23T12:22:37.000Z</time><ele>552</ele></trkpt><trkpt lat="45.815324" lon="9.43225"><time>2024-03-23T12:22:38.000Z</time><ele>551.6</ele></trkpt><trkpt lat="45.815328" lon="9.432243"><time>2024-03-23T12:22:39.000Z</time><ele>551.4</ele></trkpt><trkpt lat="45.815328" lon="9.43224"><time>2024-03-23T12:22:40.000Z</time><ele>551.2</ele></trkpt><trkpt lat="45.815335" lon="9.432237"><time>2024-03-23T12:22:41.000Z</time><ele>551</ele></trkpt><trkpt lat="45.815342" lon="9.432231"><time>2024-03-23T12:22:42.000Z</time><ele>550.8</ele></trkpt><trkpt lat="45.815346" lon="9.43222"><time>2024-03-23T12:22:43.000Z</time><ele>550.4</ele></trkpt><trkpt lat="45.815347" lon="9.432207"><time>2024-03-23T12:22:44.000Z</time><ele>550.2</ele></trkpt><trkpt lat="45.815347" lon="9.432198"><time>2024-03-23T12:22:45.000Z</time><ele>550</ele></trkpt><trkpt lat="45.815345" lon="9.432191"><time>2024-03-23T12:22:46.000Z</time><ele>549.8</ele></trkpt><trkpt lat="45.815342" lon="9.432188"><time>2024-03-23T12:22:47.000Z</time><ele>549.6</ele></trkpt><trkpt lat="45.815342" lon="9.432186"><time>2024-03-23T12:22:48.000Z</time><ele>549.6</ele></trkpt><trkpt lat="45.815343" lon="9.432182"><time>2024-03-23T12:22:49.000Z</time><ele>549.4</ele></trkpt><trkpt lat="45.815347" lon="9.432174"><time>2024-03-23T12:22:50.000Z</time><ele>548.8</ele></trkpt><trkpt lat="45.815347" lon="9.432157"><time>2024-03-23T12:22:51.000Z</time><ele>548.6</ele></trkpt><trkpt lat="45.815347" lon="9.432136"><time>2024-03-23T12:22:52.000Z</time><ele>548.4</ele></trkpt><trkpt lat="45.815352" lon="9.432114"><time>2024-03-23T12:22:53.000Z</time><ele>548.2</ele></trkpt><trkpt lat="45.81536" lon="9.432095"><time>2024-03-23T12:22:54.000Z</time><ele>547.8</ele></trkpt><trkpt lat="45.815368" lon="9.432082"><time>2024-03-23T12:22:55.000Z</time><ele>547.6</ele></trkpt><trkpt lat="45.815374" lon="9.432064"><time>2024-03-23T12:22:56.000Z</time><ele>547.2</ele></trkpt><trkpt lat="45.815379" lon="9.43205"><time>2024-03-23T12:22:57.000Z</time><ele>547</ele></trkpt><trkpt lat="45.815382" lon="9.432037"><time>2024-03-23T12:22:58.000Z</time><ele>546.8</ele></trkpt><trkpt lat="45.815381" lon="9.432032"><time>2024-03-23T12:22:59.000Z</time><ele>546.4</ele></trkpt><trkpt lat="45.815378" lon="9.432024"><time>2024-03-23T12:23:00.000Z</time><ele>546.2</ele></trkpt><trkpt lat="45.815381" lon="9.432011"><time>2024-03-23T12:23:01.000Z</time><ele>545.8</ele></trkpt><trkpt lat="45.815389" lon="9.431999"><time>2024-03-23T12:23:02.000Z</time><ele>545.6</ele></trkpt><trkpt lat="45.815395" lon="9.431985"><time>2024-03-23T12:23:03.000Z</time><ele>545.2</ele></trkpt><trkpt lat="45.815403" lon="9.431971"><time>2024-03-23T12:23:04.000Z</time><ele>545</ele></trkpt><trkpt lat="45.815409" lon="9.431953"><time>2024-03-23T12:23:05.000Z</time><ele>544.6</ele></trkpt><trkpt lat="45.815411" lon="9.431939"><time>2024-03-23T12:23:06.000Z</time><ele>544.4</ele></trkpt><trkpt lat="45.81542" lon="9.431923"><time>2024-03-23T12:23:07.000Z</time><ele>544.2</ele></trkpt><trkpt lat="45.815429" lon="9.431913"><time>2024-03-23T12:23:08.000Z</time><ele>544.2</ele></trkpt><trkpt lat="45.815439" lon="9.4319"><time>2024-03-23T12:23:09.000Z</time><ele>544</ele></trkpt><trkpt lat="45.815445" lon="9.431879"><time>2024-03-23T12:23:10.000Z</time><ele>543.8</ele></trkpt><trkpt lat="45.815449" lon="9.431866"><time>2024-03-23T12:23:11.000Z</time><ele>543.6</ele></trkpt><trkpt lat="45.81545" lon="9.431855"><time>2024-03-23T12:23:12.000Z</time><ele>543.4</ele></trkpt><trkpt lat="45.815452" lon="9.431844"><time>2024-03-23T12:23:13.000Z</time><ele>543</ele></trkpt><trkpt lat="45.815455" lon="9.431832"><time>2024-03-23T12:23:14.000Z</time><ele>542.6</ele></trkpt><trkpt lat="45.815456" lon="9.431815"><time>2024-03-23T12:23:15.000Z</time><ele>542.4</ele></trkpt><trkpt lat="45.815461" lon="9.431799"><time>2024-03-23T12:23:16.000Z</time><ele>542.2</ele></trkpt><trkpt lat="45.815468" lon="9.431786"><time>2024-03-23T12:23:17.000Z</time><ele>541.8</ele></trkpt><trkpt lat="45.815472" lon="9.431774"><time>2024-03-23T12:23:18.000Z</time><ele>541.6</ele></trkpt><trkpt lat="45.815479" lon="9.431763"><time>2024-03-23T12:23:19.000Z</time><ele>541.4</ele></trkpt><trkpt lat="45.815488" lon="9.43175"><time>2024-03-23T12:23:20.000Z</time><ele>541.2</ele></trkpt><trkpt lat="45.815495" lon="9.431738"><time>2024-03-23T12:23:21.000Z</time><ele>541</ele></trkpt><trkpt lat="45.815498" lon="9.431725"><time>2024-03-23T12:23:22.000Z</time><ele>541</ele></trkpt><trkpt lat="45.815504" lon="9.431712"><time>2024-03-23T12:23:23.000Z</time><ele>540.8</ele></trkpt><trkpt lat="45.815505" lon="9.431696"><time>2024-03-23T12:23:24.000Z</time><ele>540.6</ele></trkpt><trkpt lat="45.815507" lon="9.431681"><time>2024-03-23T12:23:25.000Z</time><ele>540.4</ele></trkpt><trkpt lat="45.815514" lon="9.431673"><time>2024-03-23T12:23:26.000Z</time><ele>540.4</ele></trkpt><trkpt lat="45.815524" lon="9.431662"><time>2024-03-23T12:23:27.000Z</time><ele>540.2</ele></trkpt><trkpt lat="45.815522" lon="9.431648"><time>2024-03-23T12:23:28.000Z</time><ele>540</ele></trkpt><trkpt lat="45.815527" lon="9.431639"><time>2024-03-23T12:23:29.000Z</time><ele>539.8</ele></trkpt><trkpt lat="45.815536" lon="9.431633"><time>2024-03-23T12:23:30.000Z</time><ele>539.6</ele></trkpt><trkpt lat="45.815539" lon="9.431631"><time>2024-03-23T12:23:31.000Z</time><ele>539.6</ele></trkpt><trkpt lat="45.815541" lon="9.43162"><time>2024-03-23T12:23:32.000Z</time><ele>539.2</ele></trkpt><trkpt lat="45.815544" lon="9.431617"><time>2024-03-23T12:23:33.000Z</time><ele>539</ele></trkpt><trkpt lat="45.815546" lon="9.431614"><time>2024-03-23T12:23:34.000Z</time><ele>538.8</ele></trkpt><trkpt lat="45.815549" lon="9.431605"><time>2024-03-23T12:23:35.000Z</time><ele>538.8</ele></trkpt><trkpt lat="45.815554" lon="9.431593"><time>2024-03-23T12:23:36.000Z</time><ele>538.4</ele></trkpt><trkpt lat="45.815557" lon="9.431585"><time>2024-03-23T12:23:37.000Z</time><ele>537.8</ele></trkpt><trkpt lat="45.815556" lon="9.431575"><time>2024-03-23T12:23:38.000Z</time><ele>537.4</ele></trkpt><trkpt lat="45.815558" lon="9.431562"><time>2024-03-23T12:23:39.000Z</time><ele>537.2</ele></trkpt><trkpt lat="45.815559" lon="9.431554"><time>2024-03-23T12:23:40.000Z</time><ele>537</ele></trkpt><trkpt lat="45.815561" lon="9.431545"><time>2024-03-23T12:23:41.000Z</time><ele>536.8</ele></trkpt><trkpt lat="45.815562" lon="9.431535"><time>2024-03-23T12:23:42.000Z</time><ele>536.8</ele></trkpt><trkpt lat="45.815567" lon="9.431528"><time>2024-03-23T12:23:43.000Z</time><ele>536.6</ele></trkpt><trkpt lat="45.81557" lon="9.431518"><time>2024-03-23T12:23:44.000Z</time><ele>536.4</ele></trkpt><trkpt lat="45.815576" lon="9.431514"><time>2024-03-23T12:23:45.000Z</time><ele>536.2</ele></trkpt><trkpt lat="45.815581" lon="9.431511"><time>2024-03-23T12:23:46.000Z</time><ele>536</ele></trkpt><trkpt lat="45.815587" lon="9.431505"><time>2024-03-23T12:23:47.000Z</time><ele>535.8</ele></trkpt><trkpt lat="45.815594" lon="9.431502"><time>2024-03-23T12:23:48.000Z</time><ele>535.4</ele></trkpt><trkpt lat="45.815597" lon="9.431495"><time>2024-03-23T12:23:49.000Z</time><ele>535.2</ele></trkpt><trkpt lat="45.815599" lon="9.431484"><time>2024-03-23T12:23:50.000Z</time><ele>535</ele></trkpt><trkpt lat="45.815603" lon="9.431477"><time>2024-03-23T12:23:51.000Z</time><ele>535</ele></trkpt><trkpt lat="45.815607" lon="9.431474"><time>2024-03-23T12:23:52.000Z</time><ele>534.6</ele></trkpt><trkpt lat="45.815609" lon="9.43147"><time>2024-03-23T12:23:53.000Z</time><ele>534.4</ele></trkpt><trkpt lat="45.815611" lon="9.431464"><time>2024-03-23T12:23:54.000Z</time><ele>534.2</ele></trkpt><trkpt lat="45.815612" lon="9.43146"><time>2024-03-23T12:23:55.000Z</time><ele>534</ele></trkpt><trkpt lat="45.815613" lon="9.431458"><time>2024-03-23T12:23:56.000Z</time><ele>533.6</ele></trkpt><trkpt lat="45.815614" lon="9.431456"><time>2024-03-23T12:23:57.000Z</time><ele>533.4</ele></trkpt><trkpt lat="45.815618" lon="9.431449"><time>2024-03-23T12:23:58.000Z</time><ele>533</ele></trkpt><trkpt lat="45.815621" lon="9.431437"><time>2024-03-23T12:23:59.000Z</time><ele>532.8</ele></trkpt><trkpt lat="45.815624" lon="9.431426"><time>2024-03-23T12:24:00.000Z</time><ele>532.6</ele></trkpt><trkpt lat="45.815626" lon="9.431417"><time>2024-03-23T12:24:01.000Z</time><ele>532.4</ele></trkpt><trkpt lat="45.815632" lon="9.431411"><time>2024-03-23T12:24:02.000Z</time><ele>532</ele></trkpt><trkpt lat="45.815635" lon="9.43141"><time>2024-03-23T12:24:03.000Z</time><ele>531.8</ele></trkpt><trkpt lat="45.815635" lon="9.431402"><time>2024-03-23T12:24:04.000Z</time><ele>531.6</ele></trkpt><trkpt lat="45.815631" lon="9.431391"><time>2024-03-23T12:24:05.000Z</time><ele>531.4</ele></trkpt><trkpt lat="45.815626" lon="9.431384"><time>2024-03-23T12:24:06.000Z</time><ele>531.2</ele></trkpt><trkpt lat="45.815621" lon="9.431378"><time>2024-03-23T12:24:07.000Z</time><ele>530.8</ele></trkpt><trkpt lat="45.815613" lon="9.431363"><time>2024-03-23T12:24:08.000Z</time><ele>530.4</ele></trkpt><trkpt lat="45.815599" lon="9.431349"><time>2024-03-23T12:24:09.000Z</time><ele>530</ele></trkpt><trkpt lat="45.815588" lon="9.431339"><time>2024-03-23T12:24:10.000Z</time><ele>529.8</ele></trkpt><trkpt lat="45.81558" lon="9.431341"><time>2024-03-23T12:24:11.000Z</time><ele>529.6</ele></trkpt><trkpt lat="45.815573" lon="9.431341"><time>2024-03-23T12:24:12.000Z</time><ele>529.4</ele></trkpt><trkpt lat="45.815566" lon="9.431336"><time>2024-03-23T12:24:13.000Z</time><ele>529</ele></trkpt><trkpt lat="45.815567" lon="9.431332"><time>2024-03-23T12:24:14.000Z</time><ele>528.8</ele></trkpt><trkpt lat="45.815563" lon="9.431331"><time>2024-03-23T12:24:15.000Z</time><ele>528.4</ele></trkpt><trkpt lat="45.815558" lon="9.431331"><time>2024-03-23T12:24:16.000Z</time><ele>528.2</ele></trkpt><trkpt lat="45.815552" lon="9.43133"><time>2024-03-23T12:24:17.000Z</time><ele>527.8</ele></trkpt><trkpt lat="45.815549" lon="9.431336"><time>2024-03-23T12:24:18.000Z</time><ele>527.6</ele></trkpt><trkpt lat="45.815542" lon="9.431341"><time>2024-03-23T12:24:19.000Z</time><ele>527.4</ele></trkpt><trkpt lat="45.815538" lon="9.431344"><time>2024-03-23T12:24:20.000Z</time><ele>527.2</ele></trkpt><trkpt lat="45.815533" lon="9.431349"><time>2024-03-23T12:24:21.000Z</time><ele>527</ele></trkpt><trkpt lat="45.815525" lon="9.431353"><time>2024-03-23T12:24:22.000Z</time><ele>526.8</ele></trkpt><trkpt lat="45.815516" lon="9.431354"><time>2024-03-23T12:24:23.000Z</time><ele>526.4</ele></trkpt><trkpt lat="45.81551" lon="9.431352"><time>2024-03-23T12:24:24.000Z</time><ele>526.4</ele></trkpt><trkpt lat="45.815504" lon="9.431358"><time>2024-03-23T12:24:25.000Z</time><ele>526.2</ele></trkpt><trkpt lat="45.815502" lon="9.431368"><time>2024-03-23T12:24:26.000Z</time><ele>526</ele></trkpt><trkpt lat="45.8155" lon="9.431373"><time>2024-03-23T12:24:27.000Z</time><ele>525.8</ele></trkpt><trkpt lat="45.815494" lon="9.431373"><time>2024-03-23T12:24:28.000Z</time><ele>525.6</ele></trkpt><trkpt lat="45.815486" lon="9.431376"><time>2024-03-23T12:24:29.000Z</time><ele>525.2</ele></trkpt><trkpt lat="45.81548" lon="9.431376"><time>2024-03-23T12:24:30.000Z</time><ele>525</ele></trkpt><trkpt lat="45.815474" lon="9.431375"><time>2024-03-23T12:24:31.000Z</time><ele>524.8</ele></trkpt><trkpt lat="45.815468" lon="9.431371"><time>2024-03-23T12:24:32.000Z</time><ele>524.8</ele></trkpt><trkpt lat="45.81546" lon="9.431368"><time>2024-03-23T12:24:33.000Z</time><ele>524.6</ele></trkpt><trkpt lat="45.815457" lon="9.431371"><time>2024-03-23T12:24:34.000Z</time><ele>524.4</ele></trkpt><trkpt lat="45.815455" lon="9.431371"><time>2024-03-23T12:24:35.000Z</time><ele>524</ele></trkpt><trkpt lat="45.815453" lon="9.43137"><time>2024-03-23T12:24:36.000Z</time><ele>523.8</ele></trkpt><trkpt lat="45.815449" lon="9.431372"><time>2024-03-23T12:24:37.000Z</time><ele>523.4</ele></trkpt><trkpt lat="45.815448" lon="9.431374"><time>2024-03-23T12:24:38.000Z</time><ele>523.2</ele></trkpt><trkpt lat="45.815448" lon="9.431369"><time>2024-03-23T12:24:39.000Z</time><ele>523</ele></trkpt><trkpt lat="45.815449" lon="9.431366"><time>2024-03-23T12:24:40.000Z</time><ele>522.8</ele></trkpt><trkpt lat="45.81545" lon="9.431366"><time>2024-03-23T12:24:41.000Z</time><ele>522.6</ele></trkpt><trkpt lat="45.81545" lon="9.431365"><time>2024-03-23T12:24:42.000Z</time><ele>522.2</ele></trkpt><trkpt lat="45.815449" lon="9.431362"><time>2024-03-23T12:24:43.000Z</time><ele>522</ele></trkpt><trkpt lat="45.815447" lon="9.431353"><time>2024-03-23T12:24:44.000Z</time><ele>521.8</ele></trkpt><trkpt lat="45.815441" lon="9.431344"><time>2024-03-23T12:24:45.000Z</time><ele>521.6</ele></trkpt><trkpt lat="45.815437" lon="9.431337"><time>2024-03-23T12:24:46.000Z</time><ele>521.2</ele></trkpt><trkpt lat="45.815433" lon="9.431339"><time>2024-03-23T12:24:47.000Z</time><ele>521</ele></trkpt><trkpt lat="45.815427" lon="9.431335"><time>2024-03-23T12:24:48.000Z</time><ele>520.6</ele></trkpt><trkpt lat="45.815424" lon="9.431337"><time>2024-03-23T12:24:49.000Z</time><ele>520.4</ele></trkpt><trkpt lat="45.815422" lon="9.43134"><time>2024-03-23T12:24:50.000Z</time><ele>520</ele></trkpt><trkpt lat="45.815415" lon="9.431343"><time>2024-03-23T12:24:51.000Z</time><ele>519.6</ele></trkpt><trkpt lat="45.815407" lon="9.431344"><time>2024-03-23T12:24:52.000Z</time><ele>519.4</ele></trkpt><trkpt lat="45.815405" lon="9.431344"><time>2024-03-23T12:24:53.000Z</time><ele>519.2</ele></trkpt><trkpt lat="45.815405" lon="9.431344"><time>2024-03-23T12:24:54.000Z</time><ele>518.8</ele></trkpt><trkpt lat="45.815405" lon="9.431344"><time>2024-03-23T12:24:55.000Z</time><ele>518.6</ele></trkpt><trkpt lat="45.815405" lon="9.431344"><time>2024-03-23T12:24:56.000Z</time><ele>518.4</ele></trkpt><trkpt lat="45.815405" lon="9.431344"><time>2024-03-23T12:24:57.000Z</time><ele>518.2</ele></trkpt><trkpt lat="45.815405" lon="9.431344"><time>2024-03-23T12:24:58.000Z</time><ele>518</ele></trkpt><trkpt lat="45.815405" lon="9.431344"><time>2024-03-23T12:24:59.000Z</time><ele>517.6</ele></trkpt><trkpt lat="45.815405" lon="9.431344"><time>2024-03-23T12:25:00.000Z</time><ele>517.4</ele></trkpt><trkpt lat="45.815405" lon="9.431344"><time>2024-03-23T12:25:01.000Z</time><ele>517.2</ele></trkpt><trkpt lat="45.815405" lon="9.431344"><time>2024-03-23T12:25:02.000Z</time><ele>517</ele></trkpt><trkpt lat="45.815405" lon="9.431343"><time>2024-03-23T12:25:03.000Z</time><ele>516.8</ele></trkpt><trkpt lat="45.815405" lon="9.431343"><time>2024-03-23T12:25:04.000Z</time><ele>516.6</ele></trkpt><trkpt lat="45.815405" lon="9.431341"><time>2024-03-23T12:25:05.000Z</time><ele>516.4</ele></trkpt><trkpt lat="45.815405" lon="9.43134"><time>2024-03-23T12:25:06.000Z</time><ele>516.2</ele></trkpt><trkpt lat="45.815405" lon="9.431339"><time>2024-03-23T12:25:07.000Z</time><ele>516</ele></trkpt><trkpt lat="45.815405" lon="9.431338"><time>2024-03-23T12:25:08.000Z</time><ele>515.6</ele></trkpt><trkpt lat="45.815404" lon="9.431329"><time>2024-03-23T12:25:09.000Z</time><ele>515.2</ele></trkpt><trkpt lat="45.815404" lon="9.431312"><time>2024-03-23T12:25:10.000Z</time><ele>515</ele></trkpt><trkpt lat="45.815406" lon="9.43129"><time>2024-03-23T12:25:11.000Z</time><ele>514.8</ele></trkpt><trkpt lat="45.815409" lon="9.431273"><time>2024-03-23T12:25:12.000Z</time><ele>514.6</ele></trkpt><trkpt lat="45.81541" lon="9.431257"><time>2024-03-23T12:25:13.000Z</time><ele>514.2</ele></trkpt><trkpt lat="45.815413" lon="9.431237"><time>2024-03-23T12:25:14.000Z</time><ele>513.6</ele></trkpt><trkpt lat="45.815416" lon="9.431219"><time>2024-03-23T12:25:15.000Z</time><ele>513.2</ele></trkpt><trkpt lat="45.815419" lon="9.431196"><time>2024-03-23T12:25:16.000Z</time><ele>513</ele></trkpt><trkpt lat="45.815419" lon="9.43117"><time>2024-03-23T12:25:17.000Z</time><ele>513</ele></trkpt><trkpt lat="45.815418" lon="9.431151"><time>2024-03-23T12:25:18.000Z</time><ele>512.6</ele></trkpt><trkpt lat="45.815417" lon="9.431147"><time>2024-03-23T12:25:19.000Z</time><ele>512.4</ele></trkpt><trkpt lat="45.815412" lon="9.43114"><time>2024-03-23T12:25:20.000Z</time><ele>512</ele></trkpt><trkpt lat="45.815408" lon="9.431134"><time>2024-03-23T12:25:21.000Z</time><ele>511.8</ele></trkpt><trkpt lat="45.815406" lon="9.431128"><time>2024-03-23T12:25:22.000Z</time><ele>511.4</ele></trkpt><trkpt lat="45.815403" lon="9.43112"><time>2024-03-23T12:25:23.000Z</time><ele>511.2</ele></trkpt><trkpt lat="45.815399" lon="9.431108"><time>2024-03-23T12:25:24.000Z</time><ele>511</ele></trkpt><trkpt lat="45.815401" lon="9.431101"><time>2024-03-23T12:25:25.000Z</time><ele>510.6</ele></trkpt><trkpt lat="45.815406" lon="9.431091"><time>2024-03-23T12:25:26.000Z</time><ele>510.2</ele></trkpt><trkpt lat="45.815412" lon="9.43109"><time>2024-03-23T12:25:27.000Z</time><ele>510</ele></trkpt><trkpt lat="45.815412" lon="9.431088"><time>2024-03-23T12:25:28.000Z</time><ele>509.6</ele></trkpt><trkpt lat="45.81541" lon="9.431084"><time>2024-03-23T12:25:29.000Z</time><ele>509.4</ele></trkpt><trkpt lat="45.815411" lon="9.431076"><time>2024-03-23T12:25:30.000Z</time><ele>509.2</ele></trkpt><trkpt lat="45.815415" lon="9.43107"><time>2024-03-23T12:25:31.000Z</time><ele>509</ele></trkpt><trkpt lat="45.815422" lon="9.431062"><time>2024-03-23T12:25:32.000Z</time><ele>508.6</ele></trkpt><trkpt lat="45.815424" lon="9.431057"><time>2024-03-23T12:25:33.000Z</time><ele>508.2</ele></trkpt><trkpt lat="45.815427" lon="9.431052"><time>2024-03-23T12:25:34.000Z</time><ele>507.8</ele></trkpt><trkpt lat="45.815428" lon="9.431048"><time>2024-03-23T12:25:35.000Z</time><ele>507.6</ele></trkpt><trkpt lat="45.81543" lon="9.431045"><time>2024-03-23T12:25:36.000Z</time><ele>507.2</ele></trkpt><trkpt lat="45.815429" lon="9.431037"><time>2024-03-23T12:25:37.000Z</time><ele>507</ele></trkpt><trkpt lat="45.815428" lon="9.431024"><time>2024-03-23T12:25:38.000Z</time><ele>506.8</ele></trkpt><trkpt lat="45.815426" lon="9.431009"><time>2024-03-23T12:25:39.000Z</time><ele>506.4</ele></trkpt><trkpt lat="45.815426" lon="9.431005"><time>2024-03-23T12:25:40.000Z</time><ele>506</ele></trkpt><trkpt lat="45.815423" lon="9.431001"><time>2024-03-23T12:25:41.000Z</time><ele>505.6</ele></trkpt><trkpt lat="45.815422" lon="9.431"><time>2024-03-23T12:25:42.000Z</time><ele>505.4</ele></trkpt><trkpt lat="45.815433" lon="9.431001"><time>2024-03-23T12:25:43.000Z</time><ele>505</ele></trkpt><trkpt lat="45.815437" lon="9.431003"><time>2024-03-23T12:25:44.000Z</time><ele>504.8</ele></trkpt><trkpt lat="45.81544" lon="9.430995"><time>2024-03-23T12:25:45.000Z</time><ele>504.6</ele></trkpt><trkpt lat="45.815439" lon="9.43099"><time>2024-03-23T12:25:46.000Z</time><ele>504.4</ele></trkpt><trkpt lat="45.815439" lon="9.430987"><time>2024-03-23T12:25:47.000Z</time><ele>504</ele></trkpt><trkpt lat="45.81544" lon="9.430961"><time>2024-03-23T12:25:48.000Z</time><ele>503.8</ele></trkpt><trkpt lat="45.815439" lon="9.430944"><time>2024-03-23T12:25:49.000Z</time><ele>503.4</ele></trkpt><trkpt lat="45.81544" lon="9.430934"><time>2024-03-23T12:25:50.000Z</time><ele>503</ele></trkpt><trkpt lat="45.81544" lon="9.43093"><time>2024-03-23T12:25:51.000Z</time><ele>502.6</ele></trkpt><trkpt lat="45.815444" lon="9.430922"><time>2024-03-23T12:25:52.000Z</time><ele>502.2</ele></trkpt><trkpt lat="45.815448" lon="9.43092"><time>2024-03-23T12:25:53.000Z</time><ele>501.8</ele></trkpt><trkpt lat="45.815451" lon="9.430906"><time>2024-03-23T12:25:54.000Z</time><ele>501.4</ele></trkpt><trkpt lat="45.815454" lon="9.430891"><time>2024-03-23T12:25:55.000Z</time><ele>501.2</ele></trkpt><trkpt lat="45.815459" lon="9.430876"><time>2024-03-23T12:25:56.000Z</time><ele>500.8</ele></trkpt><trkpt lat="45.815465" lon="9.430862"><time>2024-03-23T12:25:57.000Z</time><ele>500.6</ele></trkpt><trkpt lat="45.815469" lon="9.430852"><time>2024-03-23T12:25:58.000Z</time><ele>500.6</ele></trkpt><trkpt lat="45.815474" lon="9.430845"><time>2024-03-23T12:25:59.000Z</time><ele>500.4</ele></trkpt><trkpt lat="45.815477" lon="9.430838"><time>2024-03-23T12:26:00.000Z</time><ele>500.2</ele></trkpt><trkpt lat="45.815479" lon="9.430835"><time>2024-03-23T12:26:01.000Z</time><ele>500.2</ele></trkpt><trkpt lat="45.815482" lon="9.430831"><time>2024-03-23T12:26:02.000Z</time><ele>499.6</ele></trkpt><trkpt lat="45.815487" lon="9.43082"><time>2024-03-23T12:26:03.000Z</time><ele>499.4</ele></trkpt><trkpt lat="45.815493" lon="9.430808"><time>2024-03-23T12:26:04.000Z</time><ele>499.2</ele></trkpt><trkpt lat="45.815496" lon="9.430794"><time>2024-03-23T12:26:05.000Z</time><ele>499</ele></trkpt><trkpt lat="45.815496" lon="9.43078"><time>2024-03-23T12:26:06.000Z</time><ele>498.6</ele></trkpt><trkpt lat="45.815497" lon="9.430766"><time>2024-03-23T12:26:07.000Z</time><ele>498.4</ele></trkpt><trkpt lat="45.815499" lon="9.430754"><time>2024-03-23T12:26:08.000Z</time><ele>498</ele></trkpt><trkpt lat="45.815501" lon="9.430739"><time>2024-03-23T12:26:09.000Z</time><ele>497.8</ele></trkpt><trkpt lat="45.815505" lon="9.430718"><time>2024-03-23T12:26:10.000Z</time><ele>497.6</ele></trkpt><trkpt lat="45.81551" lon="9.430703"><time>2024-03-23T12:26:11.000Z</time><ele>497.2</ele></trkpt><trkpt lat="45.81551" lon="9.430699"><time>2024-03-23T12:26:12.000Z</time><ele>497</ele></trkpt><trkpt lat="45.81552" lon="9.430688"><time>2024-03-23T12:26:13.000Z</time><ele>496.6</ele></trkpt><trkpt lat="45.81553" lon="9.430673"><time>2024-03-23T12:26:14.000Z</time><ele>496.6</ele></trkpt><trkpt lat="45.815537" lon="9.430664"><time>2024-03-23T12:26:15.000Z</time><ele>496.4</ele></trkpt><trkpt lat="45.815537" lon="9.43065"><time>2024-03-23T12:26:16.000Z</time><ele>496</ele></trkpt><trkpt lat="45.815534" lon="9.430631"><time>2024-03-23T12:26:17.000Z</time><ele>495.8</ele></trkpt><trkpt lat="45.815534" lon="9.430605"><time>2024-03-23T12:26:18.000Z</time><ele>495.4</ele></trkpt><trkpt lat="45.815537" lon="9.430588"><time>2024-03-23T12:26:19.000Z</time><ele>495</ele></trkpt><trkpt lat="45.815539" lon="9.430575"><time>2024-03-23T12:26:20.000Z</time><ele>494.8</ele></trkpt><trkpt lat="45.815543" lon="9.43057"><time>2024-03-23T12:26:21.000Z</time><ele>494.6</ele></trkpt><trkpt lat="45.81554" lon="9.430555"><time>2024-03-23T12:26:22.000Z</time><ele>494.2</ele></trkpt><trkpt lat="45.815538" lon="9.430538"><time>2024-03-23T12:26:23.000Z</time><ele>493.6</ele></trkpt><trkpt lat="45.815538" lon="9.430523"><time>2024-03-23T12:26:24.000Z</time><ele>493.4</ele></trkpt><trkpt lat="45.81554" lon="9.430509"><time>2024-03-23T12:26:25.000Z</time><ele>493.2</ele></trkpt><trkpt lat="45.815539" lon="9.430488"><time>2024-03-23T12:26:26.000Z</time><ele>493</ele></trkpt><trkpt lat="45.815532" lon="9.430467"><time>2024-03-23T12:26:27.000Z</time><ele>492.6</ele></trkpt><trkpt lat="45.815525" lon="9.430453"><time>2024-03-23T12:26:28.000Z</time><ele>492.4</ele></trkpt><trkpt lat="45.815523" lon="9.430441"><time>2024-03-23T12:26:29.000Z</time><ele>492</ele></trkpt><trkpt lat="45.815523" lon="9.430432"><time>2024-03-23T12:26:30.000Z</time><ele>491.6</ele></trkpt><trkpt lat="45.815532" lon="9.430423"><time>2024-03-23T12:26:31.000Z</time><ele>491.4</ele></trkpt><trkpt lat="45.815543" lon="9.430415"><time>2024-03-23T12:26:32.000Z</time><ele>491</ele></trkpt><trkpt lat="45.815553" lon="9.430406"><time>2024-03-23T12:26:33.000Z</time><ele>490.8</ele></trkpt><trkpt lat="45.815561" lon="9.430397"><time>2024-03-23T12:26:34.000Z</time><ele>490.4</ele></trkpt><trkpt lat="45.815567" lon="9.430386"><time>2024-03-23T12:26:35.000Z</time><ele>490.2</ele></trkpt><trkpt lat="45.815569" lon="9.430379"><time>2024-03-23T12:26:36.000Z</time><ele>490</ele></trkpt><trkpt lat="45.81557" lon="9.430372"><time>2024-03-23T12:26:37.000Z</time><ele>489.6</ele></trkpt><trkpt lat="45.815573" lon="9.430367"><time>2024-03-23T12:26:38.000Z</time><ele>489.4</ele></trkpt><trkpt lat="45.815582" lon="9.430354"><time>2024-03-23T12:26:39.000Z</time><ele>489.2</ele></trkpt><trkpt lat="45.815589" lon="9.430347"><time>2024-03-23T12:26:40.000Z</time><ele>489</ele></trkpt><trkpt lat="45.815594" lon="9.430343"><time>2024-03-23T12:26:41.000Z</time><ele>488.6</ele></trkpt><trkpt lat="45.815599" lon="9.430338"><time>2024-03-23T12:26:42.000Z</time><ele>488.4</ele></trkpt><trkpt lat="45.815599" lon="9.430332"><time>2024-03-23T12:26:43.000Z</time><ele>488</ele></trkpt><trkpt lat="45.815597" lon="9.430329"><time>2024-03-23T12:26:44.000Z</time><ele>487.8</ele></trkpt><trkpt lat="45.815595" lon="9.430324"><time>2024-03-23T12:26:45.000Z</time><ele>487.6</ele></trkpt><trkpt lat="45.815594" lon="9.430322"><time>2024-03-23T12:26:46.000Z</time><ele>487.2</ele></trkpt><trkpt lat="45.815594" lon="9.430325"><time>2024-03-23T12:26:47.000Z</time><ele>487</ele></trkpt><trkpt lat="45.815592" lon="9.430326"><time>2024-03-23T12:26:48.000Z</time><ele>487</ele></trkpt><trkpt lat="45.815587" lon="9.430321"><time>2024-03-23T12:26:49.000Z</time><ele>486.6</ele></trkpt><trkpt lat="45.815586" lon="9.430314"><time>2024-03-23T12:26:50.000Z</time><ele>486.6</ele></trkpt><trkpt lat="45.815584" lon="9.430302"><time>2024-03-23T12:26:51.000Z</time><ele>486.2</ele></trkpt><trkpt lat="45.815581" lon="9.430287"><time>2024-03-23T12:26:52.000Z</time><ele>486</ele></trkpt><trkpt lat="45.815583" lon="9.43027"><time>2024-03-23T12:26:53.000Z</time><ele>485.6</ele></trkpt><trkpt lat="45.815581" lon="9.430266"><time>2024-03-23T12:26:54.000Z</time><ele>485.4</ele></trkpt><trkpt lat="45.815579" lon="9.430257"><time>2024-03-23T12:26:55.000Z</time><ele>485.2</ele></trkpt><trkpt lat="45.815577" lon="9.430253"><time>2024-03-23T12:26:56.000Z</time><ele>485</ele></trkpt><trkpt lat="45.815575" lon="9.43025"><time>2024-03-23T12:26:57.000Z</time><ele>484.8</ele></trkpt><trkpt lat="45.815571" lon="9.430243"><time>2024-03-23T12:26:58.000Z</time><ele>484.4</ele></trkpt><trkpt lat="45.815569" lon="9.430244"><time>2024-03-23T12:26:59.000Z</time><ele>484.2</ele></trkpt><trkpt lat="45.815567" lon="9.430241"><time>2024-03-23T12:27:00.000Z</time><ele>484</ele></trkpt><trkpt lat="45.815567" lon="9.430239"><time>2024-03-23T12:27:01.000Z</time><ele>483.6</ele></trkpt><trkpt lat="45.815564" lon="9.430239"><time>2024-03-23T12:27:02.000Z</time><ele>483.6</ele></trkpt><trkpt lat="45.815562" lon="9.430241"><time>2024-03-23T12:27:03.000Z</time><ele>483.2</ele></trkpt><trkpt lat="45.815558" lon="9.430237"><time>2024-03-23T12:27:04.000Z</time><ele>483</ele></trkpt><trkpt lat="45.815553" lon="9.430235"><time>2024-03-23T12:27:05.000Z</time><ele>482.6</ele></trkpt><trkpt lat="45.815549" lon="9.430232"><time>2024-03-23T12:27:06.000Z</time><ele>482.4</ele></trkpt><trkpt lat="45.815549" lon="9.430232"><time>2024-03-23T12:27:07.000Z</time><ele>482.2</ele></trkpt><trkpt lat="45.815553" lon="9.430228"><time>2024-03-23T12:27:08.000Z</time><ele>482</ele></trkpt><trkpt lat="45.815555" lon="9.430225"><time>2024-03-23T12:27:09.000Z</time><ele>481.6</ele></trkpt><trkpt lat="45.81556" lon="9.430227"><time>2024-03-23T12:27:10.000Z</time><ele>481.4</ele></trkpt><trkpt lat="45.815561" lon="9.430226"><time>2024-03-23T12:27:11.000Z</time><ele>481.2</ele></trkpt><trkpt lat="45.815562" lon="9.430216"><time>2024-03-23T12:27:12.000Z</time><ele>480.8</ele></trkpt><trkpt lat="45.815563" lon="9.430208"><time>2024-03-23T12:27:13.000Z</time><ele>480.6</ele></trkpt><trkpt lat="45.815563" lon="9.430205"><time>2024-03-23T12:27:14.000Z</time><ele>480.4</ele></trkpt><trkpt lat="45.815567" lon="9.430197"><time>2024-03-23T12:27:15.000Z</time><ele>480</ele></trkpt><trkpt lat="45.81557" lon="9.430189"><time>2024-03-23T12:27:16.000Z</time><ele>479.8</ele></trkpt><trkpt lat="45.815571" lon="9.430186"><time>2024-03-23T12:27:17.000Z</time><ele>479.6</ele></trkpt><trkpt lat="45.815575" lon="9.430183"><time>2024-03-23T12:27:18.000Z</time><ele>479.4</ele></trkpt><trkpt lat="45.815578" lon="9.430172"><time>2024-03-23T12:27:19.000Z</time><ele>479.2</ele></trkpt><trkpt lat="45.81558" lon="9.430164"><time>2024-03-23T12:27:20.000Z</time><ele>479</ele></trkpt><trkpt lat="45.815581" lon="9.430158"><time>2024-03-23T12:27:21.000Z</time><ele>479</ele></trkpt><trkpt lat="45.81558" lon="9.430155"><time>2024-03-23T12:27:22.000Z</time><ele>478.8</ele></trkpt><trkpt lat="45.815585" lon="9.430148"><time>2024-03-23T12:27:23.000Z</time><ele>478.6</ele></trkpt><trkpt lat="45.815584" lon="9.430142"><time>2024-03-23T12:27:24.000Z</time><ele>478.4</ele></trkpt><trkpt lat="45.815587" lon="9.430139"><time>2024-03-23T12:27:25.000Z</time><ele>478</ele></trkpt><trkpt lat="45.815586" lon="9.430135"><time>2024-03-23T12:27:26.000Z</time><ele>477.8</ele></trkpt><trkpt lat="45.815582" lon="9.430132"><time>2024-03-23T12:27:27.000Z</time><ele>477.6</ele></trkpt><trkpt lat="45.815588" lon="9.430118"><time>2024-03-23T12:27:28.000Z</time><ele>477.4</ele></trkpt><trkpt lat="45.815587" lon="9.430114"><time>2024-03-23T12:27:29.000Z</time><ele>477</ele></trkpt><trkpt lat="45.815589" lon="9.4301"><time>2024-03-23T12:27:30.000Z</time><ele>476.6</ele></trkpt><trkpt lat="45.815589" lon="9.430089"><time>2024-03-23T12:27:31.000Z</time><ele>476.2</ele></trkpt><trkpt lat="45.815591" lon="9.430075"><time>2024-03-23T12:27:32.000Z</time><ele>476</ele></trkpt><trkpt lat="45.815592" lon="9.430062"><time>2024-03-23T12:27:33.000Z</time><ele>475.6</ele></trkpt><trkpt lat="45.815593" lon="9.430053"><time>2024-03-23T12:27:34.000Z</time><ele>475.4</ele></trkpt><trkpt lat="45.815594" lon="9.430042"><time>2024-03-23T12:27:35.000Z</time><ele>475.2</ele></trkpt><trkpt lat="45.815592" lon="9.430039"><time>2024-03-23T12:27:36.000Z</time><ele>475</ele></trkpt><trkpt lat="45.815592" lon="9.430035"><time>2024-03-23T12:27:37.000Z</time><ele>474.8</ele></trkpt><trkpt lat="45.815593" lon="9.430033"><time>2024-03-23T12:27:38.000Z</time><ele>474.8</ele></trkpt><trkpt lat="45.815601" lon="9.430022"><time>2024-03-23T12:27:39.000Z</time><ele>474.6</ele></trkpt><trkpt lat="45.815602" lon="9.430018"><time>2024-03-23T12:27:40.000Z</time><ele>474.2</ele></trkpt><trkpt lat="45.815604" lon="9.430014"><time>2024-03-23T12:27:41.000Z</time><ele>474</ele></trkpt><trkpt lat="45.8156" lon="9.43001"><time>2024-03-23T12:27:42.000Z</time><ele>474</ele></trkpt><trkpt lat="45.815598" lon="9.430012"><time>2024-03-23T12:27:43.000Z</time><ele>473.6</ele></trkpt><trkpt lat="45.815595" lon="9.430014"><time>2024-03-23T12:27:44.000Z</time><ele>473.4</ele></trkpt><trkpt lat="45.815586" lon="9.430008"><time>2024-03-23T12:27:45.000Z</time><ele>473.2</ele></trkpt><trkpt lat="45.815582" lon="9.430009"><time>2024-03-23T12:27:46.000Z</time><ele>473</ele></trkpt><trkpt lat="45.81558" lon="9.430012"><time>2024-03-23T12:27:47.000Z</time><ele>472.8</ele></trkpt><trkpt lat="45.815578" lon="9.430002"><time>2024-03-23T12:27:48.000Z</time><ele>472.6</ele></trkpt><trkpt lat="45.815576" lon="9.430003"><time>2024-03-23T12:27:49.000Z</time><ele>472.2</ele></trkpt><trkpt lat="45.815574" lon="9.430001"><time>2024-03-23T12:27:50.000Z</time><ele>471.8</ele></trkpt><trkpt lat="45.81557" lon="9.429995"><time>2024-03-23T12:27:51.000Z</time><ele>471.8</ele></trkpt><trkpt lat="45.815568" lon="9.429991"><time>2024-03-23T12:27:52.000Z</time><ele>471.6</ele></trkpt><trkpt lat="45.815566" lon="9.429991"><time>2024-03-23T12:27:53.000Z</time><ele>471.2</ele></trkpt><trkpt lat="45.815565" lon="9.429991"><time>2024-03-23T12:27:54.000Z</time><ele>471</ele></trkpt><trkpt lat="45.815559" lon="9.429991"><time>2024-03-23T12:27:55.000Z</time><ele>470.8</ele></trkpt><trkpt lat="45.815554" lon="9.429981"><time>2024-03-23T12:27:56.000Z</time><ele>470.4</ele></trkpt><trkpt lat="45.815546" lon="9.429973"><time>2024-03-23T12:27:57.000Z</time><ele>470.2</ele></trkpt><trkpt lat="45.815542" lon="9.429973"><time>2024-03-23T12:27:58.000Z</time><ele>470</ele></trkpt><trkpt lat="45.815533" lon="9.429972"><time>2024-03-23T12:27:59.000Z</time><ele>469.8</ele></trkpt><trkpt lat="45.815522" lon="9.429966"><time>2024-03-23T12:28:00.000Z</time><ele>469.6</ele></trkpt><trkpt lat="45.815509" lon="9.429964"><time>2024-03-23T12:28:01.000Z</time><ele>469.2</ele></trkpt><trkpt lat="45.815501" lon="9.429961"><time>2024-03-23T12:28:02.000Z</time><ele>469</ele></trkpt><trkpt lat="45.815495" lon="9.429958"><time>2024-03-23T12:28:03.000Z</time><ele>468.8</ele></trkpt><trkpt lat="45.815489" lon="9.429957"><time>2024-03-23T12:28:04.000Z</time><ele>468.2</ele></trkpt><trkpt lat="45.815483" lon="9.429956"><time>2024-03-23T12:28:05.000Z</time><ele>468</ele></trkpt><trkpt lat="45.815479" lon="9.429956"><time>2024-03-23T12:28:06.000Z</time><ele>467.6</ele></trkpt><trkpt lat="45.815477" lon="9.429958"><time>2024-03-23T12:28:07.000Z</time><ele>467.4</ele></trkpt><trkpt lat="45.815476" lon="9.42996"><time>2024-03-23T12:28:08.000Z</time><ele>467</ele></trkpt><trkpt lat="45.815466" lon="9.429957"><time>2024-03-23T12:28:09.000Z</time><ele>466.8</ele></trkpt><trkpt lat="45.815457" lon="9.429948"><time>2024-03-23T12:28:10.000Z</time><ele>466.6</ele></trkpt><trkpt lat="45.815449" lon="9.429948"><time>2024-03-23T12:28:11.000Z</time><ele>466.6</ele></trkpt><trkpt lat="45.815443" lon="9.429953"><time>2024-03-23T12:28:12.000Z</time><ele>466.4</ele></trkpt><trkpt lat="45.815441" lon="9.429966"><time>2024-03-23T12:28:13.000Z</time><ele>466</ele></trkpt><trkpt lat="45.815439" lon="9.429969"><time>2024-03-23T12:28:14.000Z</time><ele>465.8</ele></trkpt><trkpt lat="45.815436" lon="9.42997"><time>2024-03-23T12:28:15.000Z</time><ele>465.6</ele></trkpt><trkpt lat="45.815432" lon="9.429971"><time>2024-03-23T12:28:16.000Z</time><ele>465.4</ele></trkpt><trkpt lat="45.81543" lon="9.429971"><time>2024-03-23T12:28:17.000Z</time><ele>465.2</ele></trkpt><trkpt lat="45.815422" lon="9.429953"><time>2024-03-23T12:28:18.000Z</time><ele>465</ele></trkpt><trkpt lat="45.815404" lon="9.429948"><time>2024-03-23T12:28:19.000Z</time><ele>464.8</ele></trkpt><trkpt lat="45.8154" lon="9.429948"><time>2024-03-23T12:28:20.000Z</time><ele>464.6</ele></trkpt><trkpt lat="45.815385" lon="9.429927"><time>2024-03-23T12:28:21.000Z</time><ele>464.4</ele></trkpt><trkpt lat="45.81537" lon="9.429906"><time>2024-03-23T12:28:22.000Z</time><ele>464.2</ele></trkpt><trkpt lat="45.815358" lon="9.429895"><time>2024-03-23T12:28:23.000Z</time><ele>463.8</ele></trkpt><trkpt lat="45.815354" lon="9.429893"><time>2024-03-23T12:28:24.000Z</time><ele>463.6</ele></trkpt><trkpt lat="45.81535" lon="9.42989"><time>2024-03-23T12:28:25.000Z</time><ele>463.4</ele></trkpt><trkpt lat="45.815347" lon="9.429887"><time>2024-03-23T12:28:26.000Z</time><ele>463.2</ele></trkpt><trkpt lat="45.815344" lon="9.429889"><time>2024-03-23T12:28:27.000Z</time><ele>463</ele></trkpt><trkpt lat="45.815328" lon="9.429869"><time>2024-03-23T12:28:28.000Z</time><ele>462.8</ele></trkpt><trkpt lat="45.815312" lon="9.429863"><time>2024-03-23T12:28:29.000Z</time><ele>462.6</ele></trkpt><trkpt lat="45.815305" lon="9.429853"><time>2024-03-23T12:28:30.000Z</time><ele>462.2</ele></trkpt><trkpt lat="45.815302" lon="9.429841"><time>2024-03-23T12:28:31.000Z</time><ele>462</ele></trkpt><trkpt lat="45.815303" lon="9.429838"><time>2024-03-23T12:28:32.000Z</time><ele>461.8</ele></trkpt><trkpt lat="45.81531" lon="9.429843"><time>2024-03-23T12:28:33.000Z</time><ele>461.6</ele></trkpt><trkpt lat="45.815304" lon="9.429849"><time>2024-03-23T12:28:34.000Z</time><ele>461.4</ele></trkpt><trkpt lat="45.815288" lon="9.429846"><time>2024-03-23T12:28:35.000Z</time><ele>461.2</ele></trkpt><trkpt lat="45.815279" lon="9.429849"><time>2024-03-23T12:28:36.000Z</time><ele>460.8</ele></trkpt><trkpt lat="45.815275" lon="9.429846"><time>2024-03-23T12:28:37.000Z</time><ele>460.6</ele></trkpt><trkpt lat="45.815273" lon="9.429842"><time>2024-03-23T12:28:38.000Z</time><ele>460.4</ele></trkpt><trkpt lat="45.815271" lon="9.429838"><time>2024-03-23T12:28:39.000Z</time><ele>460.4</ele></trkpt><trkpt lat="45.815271" lon="9.429834"><time>2024-03-23T12:28:40.000Z</time><ele>460.2</ele></trkpt><trkpt lat="45.815268" lon="9.429837"><time>2024-03-23T12:28:41.000Z</time><ele>460.2</ele></trkpt><trkpt lat="45.815264" lon="9.429835"><time>2024-03-23T12:28:42.000Z</time><ele>460.2</ele></trkpt><trkpt lat="45.815263" lon="9.429831"><time>2024-03-23T12:28:43.000Z</time><ele>460</ele></trkpt><trkpt lat="45.815258" lon="9.429826"><time>2024-03-23T12:28:44.000Z</time><ele>460</ele></trkpt><trkpt lat="45.815255" lon="9.429831"><time>2024-03-23T12:28:45.000Z</time><ele>460</ele></trkpt><trkpt lat="45.815252" lon="9.429831"><time>2024-03-23T12:28:46.000Z</time><ele>460</ele></trkpt><trkpt lat="45.815253" lon="9.429832"><time>2024-03-23T12:28:47.000Z</time><ele>460</ele></trkpt><trkpt lat="45.815255" lon="9.429831"><time>2024-03-23T12:28:48.000Z</time><ele>460</ele></trkpt><trkpt lat="45.815255" lon="9.42983"><time>2024-03-23T12:28:49.000Z</time><ele>460</ele></trkpt><trkpt lat="45.815255" lon="9.42983"><time>2024-03-23T12:28:50.000Z</time><ele>460</ele></trkpt><trkpt lat="45.815255" lon="9.42983"><time>2024-03-23T12:28:51.000Z</time><ele>460</ele></trkpt><trkpt lat="45.815255" lon="9.42983"><time>2024-03-23T12:28:52.000Z</time><ele>460</ele></trkpt><trkpt lat="45.815255" lon="9.42983"><time>2024-03-23T12:28:53.000Z</time><ele>460</ele></trkpt><trkpt lat="45.815255" lon="9.42983"><time>2024-03-23T12:28:54.000Z</time><ele>460</ele></trkpt><trkpt lat="45.815255" lon="9.42983"><time>2024-03-23T12:28:55.000Z</time><ele>460</ele></trkpt><trkpt lat="45.815255" lon="9.42983"><time>2024-03-23T12:28:56.000Z</time><ele>459.8</ele></trkpt><trkpt lat="45.815255" lon="9.42983"><time>2024-03-23T12:28:57.000Z</time><ele>459.6</ele></trkpt><trkpt lat="45.815255" lon="9.42983"><time>2024-03-23T12:28:58.000Z</time><ele>459.4</ele></trkpt><trkpt lat="45.815255" lon="9.42983"><time>2024-03-23T12:28:59.000Z</time><ele>459.2</ele></trkpt><trkpt lat="45.815255" lon="9.42983"><time>2024-03-23T12:29:00.000Z</time><ele>459</ele></trkpt><trkpt lat="45.815255" lon="9.42983"><time>2024-03-23T12:29:01.000Z</time><ele>458.8</ele></trkpt><trkpt lat="45.815256" lon="9.42983"><time>2024-03-23T12:29:02.000Z</time><ele>458.6</ele></trkpt><trkpt lat="45.815258" lon="9.42983"><time>2024-03-23T12:29:03.000Z</time><ele>458.4</ele></trkpt><trkpt lat="45.815259" lon="9.429828"><time>2024-03-23T12:29:04.000Z</time><ele>458.4</ele></trkpt><trkpt lat="45.815263" lon="9.429827"><time>2024-03-23T12:29:05.000Z</time><ele>458.2</ele></trkpt><trkpt lat="45.815264" lon="9.429826"><time>2024-03-23T12:29:06.000Z</time><ele>458</ele></trkpt><trkpt lat="45.815264" lon="9.429826"><time>2024-03-23T12:29:07.000Z</time><ele>457.8</ele></trkpt><trkpt lat="45.815268" lon="9.429819"><time>2024-03-23T12:29:08.000Z</time><ele>457.8</ele></trkpt><trkpt lat="45.815271" lon="9.429816"><time>2024-03-23T12:29:09.000Z</time><ele>457.6</ele></trkpt><trkpt lat="45.815277" lon="9.429815"><time>2024-03-23T12:29:10.000Z</time><ele>457.6</ele></trkpt><trkpt lat="45.815283" lon="9.429814"><time>2024-03-23T12:29:11.000Z</time><ele>457.2</ele></trkpt><trkpt lat="45.815287" lon="9.429813"><time>2024-03-23T12:29:12.000Z</time><ele>457</ele></trkpt><trkpt lat="45.815289" lon="9.429812"><time>2024-03-23T12:29:13.000Z</time><ele>456.8</ele></trkpt><trkpt lat="45.815292" lon="9.42981"><time>2024-03-23T12:29:14.000Z</time><ele>456.6</ele></trkpt><trkpt lat="45.815294" lon="9.429808"><time>2024-03-23T12:29:15.000Z</time><ele>456.4</ele></trkpt><trkpt lat="45.815298" lon="9.429803"><time>2024-03-23T12:29:16.000Z</time><ele>456.4</ele></trkpt><trkpt lat="45.8153" lon="9.4298"><time>2024-03-23T12:29:17.000Z</time><ele>456.2</ele></trkpt><trkpt lat="45.815301" lon="9.429795"><time>2024-03-23T12:29:18.000Z</time><ele>456.2</ele></trkpt><trkpt lat="45.815302" lon="9.429794"><time>2024-03-23T12:29:19.000Z</time><ele>456.2</ele></trkpt><trkpt lat="45.815302" lon="9.429792"><time>2024-03-23T12:29:20.000Z</time><ele>456.4</ele></trkpt><trkpt lat="45.815304" lon="9.429787"><time>2024-03-23T12:29:21.000Z</time><ele>456.4</ele></trkpt><trkpt lat="45.815305" lon="9.42978"><time>2024-03-23T12:29:22.000Z</time><ele>456.4</ele></trkpt><trkpt lat="45.815306" lon="9.42977"><time>2024-03-23T12:29:23.000Z</time><ele>456.2</ele></trkpt><trkpt lat="45.815306" lon="9.429764"><time>2024-03-23T12:29:24.000Z</time><ele>456.2</ele></trkpt><trkpt lat="45.815306" lon="9.429761"><time>2024-03-23T12:29:25.000Z</time><ele>456.2</ele></trkpt><trkpt lat="45.815306" lon="9.429758"><time>2024-03-23T12:29:26.000Z</time><ele>456</ele></trkpt><trkpt lat="45.815307" lon="9.429757"><time>2024-03-23T12:29:27.000Z</time><ele>455.8</ele></trkpt><trkpt lat="45.815308" lon="9.429756"><time>2024-03-23T12:29:28.000Z</time><ele>455.6</ele></trkpt><trkpt lat="45.815308" lon="9.429755"><time>2024-03-23T12:29:29.000Z</time><ele>455.6</ele></trkpt><trkpt lat="45.815309" lon="9.429755"><time>2024-03-23T12:29:30.000Z</time><ele>455.4</ele></trkpt><trkpt lat="45.815309" lon="9.429754"><time>2024-03-23T12:29:31.000Z</time><ele>455.4</ele></trkpt><trkpt lat="45.815309" lon="9.429754"><time>2024-03-23T12:29:32.000Z</time><ele>455</ele></trkpt><trkpt lat="45.815311" lon="9.429747"><time>2024-03-23T12:29:33.000Z</time><ele>455</ele></trkpt><trkpt lat="45.815304" lon="9.429738"><time>2024-03-23T12:29:34.000Z</time><ele>454.8</ele></trkpt><trkpt lat="45.8153" lon="9.429722"><time>2024-03-23T12:29:35.000Z</time><ele>454.6</ele></trkpt><trkpt lat="45.815291" lon="9.429708"><time>2024-03-23T12:29:36.000Z</time><ele>454.4</ele></trkpt><trkpt lat="45.815281" lon="9.429701"><time>2024-03-23T12:29:37.000Z</time><ele>454.4</ele></trkpt><trkpt lat="45.815272" lon="9.429694"><time>2024-03-23T12:29:38.000Z</time><ele>454.4</ele></trkpt><trkpt lat="45.815262" lon="9.429691"><time>2024-03-23T12:29:39.000Z</time><ele>454.4</ele></trkpt><trkpt lat="45.815255" lon="9.429693"><time>2024-03-23T12:29:40.000Z</time><ele>454.4</ele></trkpt><trkpt lat="45.815247" lon="9.429695"><time>2024-03-23T12:29:41.000Z</time><ele>454.4</ele></trkpt><trkpt lat="45.815239" lon="9.429697"><time>2024-03-23T12:29:42.000Z</time><ele>454.4</ele></trkpt><trkpt lat="45.81523" lon="9.429702"><time>2024-03-23T12:29:43.000Z</time><ele>454.4</ele></trkpt><trkpt lat="45.815221" lon="9.429709"><time>2024-03-23T12:29:44.000Z</time><ele>454.4</ele></trkpt><trkpt lat="45.81521" lon="9.429708"><time>2024-03-23T12:29:45.000Z</time><ele>454.2</ele></trkpt><trkpt lat="45.8152" lon="9.429707"><time>2024-03-23T12:29:46.000Z</time><ele>454.2</ele></trkpt><trkpt lat="45.815188" lon="9.429711"><time>2024-03-23T12:29:47.000Z</time><ele>454.2</ele></trkpt><trkpt lat="45.815178" lon="9.429715"><time>2024-03-23T12:29:48.000Z</time><ele>454.2</ele></trkpt><trkpt lat="45.815168" lon="9.429724"><time>2024-03-23T12:29:49.000Z</time><ele>454.2</ele></trkpt><trkpt lat="45.81516" lon="9.429729"><time>2024-03-23T12:29:50.000Z</time><ele>454</ele></trkpt><trkpt lat="45.815145" lon="9.429734"><time>2024-03-23T12:29:51.000Z</time><ele>454</ele></trkpt><trkpt lat="45.815132" lon="9.429742"><time>2024-03-23T12:29:52.000Z</time><ele>454</ele></trkpt><trkpt lat="45.815128" lon="9.42974"><time>2024-03-23T12:29:53.000Z</time><ele>454</ele></trkpt><trkpt lat="45.815126" lon="9.429738"><time>2024-03-23T12:29:54.000Z</time><ele>454.2</ele></trkpt><trkpt lat="45.815127" lon="9.429737"><time>2024-03-23T12:29:55.000Z</time><ele>454.4</ele></trkpt><trkpt lat="45.815129" lon="9.429734"><time>2024-03-23T12:29:56.000Z</time><ele>454.4</ele></trkpt><trkpt lat="45.815128" lon="9.429734"><time>2024-03-23T12:29:57.000Z</time><ele>454.4</ele></trkpt><trkpt lat="45.815128" lon="9.429737"><time>2024-03-23T12:29:58.000Z</time><ele>454.6</ele></trkpt><trkpt lat="45.815116" lon="9.429746"><time>2024-03-23T12:29:59.000Z</time><ele>454.6</ele></trkpt><trkpt lat="45.815112" lon="9.429752"><time>2024-03-23T12:30:00.000Z</time><ele>454.4</ele></trkpt><trkpt lat="45.815108" lon="9.429766"><time>2024-03-23T12:30:01.000Z</time><ele>454.2</ele></trkpt><trkpt lat="45.815099" lon="9.429778"><time>2024-03-23T12:30:02.000Z</time><ele>454.2</ele></trkpt><trkpt lat="45.81509" lon="9.429786"><time>2024-03-23T12:30:03.000Z</time><ele>454.2</ele></trkpt><trkpt lat="45.815084" lon="9.429785"><time>2024-03-23T12:30:04.000Z</time><ele>454.2</ele></trkpt><trkpt lat="45.815082" lon="9.429784"><time>2024-03-23T12:30:05.000Z</time><ele>454.2</ele></trkpt><trkpt lat="45.815081" lon="9.429783"><time>2024-03-23T12:30:06.000Z</time><ele>454.4</ele></trkpt><trkpt lat="45.815081" lon="9.429783"><time>2024-03-23T12:30:07.000Z</time><ele>454.4</ele></trkpt><trkpt lat="45.815078" lon="9.429774"><time>2024-03-23T12:30:08.000Z</time><ele>454.6</ele></trkpt><trkpt lat="45.815076" lon="9.42977"><time>2024-03-23T12:30:09.000Z</time><ele>454.6</ele></trkpt><trkpt lat="45.815072" lon="9.429773"><time>2024-03-23T12:30:10.000Z</time><ele>454.6</ele></trkpt><trkpt lat="45.815068" lon="9.429776"><time>2024-03-23T12:30:11.000Z</time><ele>454.6</ele></trkpt><trkpt lat="45.815064" lon="9.429779"><time>2024-03-23T12:30:12.000Z</time><ele>454.4</ele></trkpt><trkpt lat="45.81506" lon="9.429784"><time>2024-03-23T12:30:13.000Z</time><ele>454.2</ele></trkpt><trkpt lat="45.815056" lon="9.429786"><time>2024-03-23T12:30:14.000Z</time><ele>454.2</ele></trkpt><trkpt lat="45.815055" lon="9.429788"><time>2024-03-23T12:30:15.000Z</time><ele>454</ele></trkpt><trkpt lat="45.815054" lon="9.42979"><time>2024-03-23T12:30:16.000Z</time><ele>454</ele></trkpt><trkpt lat="45.815055" lon="9.429795"><time>2024-03-23T12:30:17.000Z</time><ele>454.2</ele></trkpt><trkpt lat="45.815054" lon="9.429799"><time>2024-03-23T12:30:18.000Z</time><ele>454.2</ele></trkpt><trkpt lat="45.815051" lon="9.429803"><time>2024-03-23T12:30:19.000Z</time><ele>454.2</ele></trkpt><trkpt lat="45.815048" lon="9.429809"><time>2024-03-23T12:30:20.000Z</time><ele>454.2</ele></trkpt><trkpt lat="45.815044" lon="9.42981"><time>2024-03-23T12:30:21.000Z</time><ele>454.2</ele></trkpt><trkpt lat="45.81504" lon="9.429808"><time>2024-03-23T12:30:22.000Z</time><ele>454.2</ele></trkpt><trkpt lat="45.815038" lon="9.429808"><time>2024-03-23T12:30:23.000Z</time><ele>454.4</ele></trkpt><trkpt lat="45.815038" lon="9.4298"><time>2024-03-23T12:30:24.000Z</time><ele>454.4</ele></trkpt><trkpt lat="45.815037" lon="9.429792"><time>2024-03-23T12:30:25.000Z</time><ele>454.8</ele></trkpt><trkpt lat="45.815035" lon="9.429782"><time>2024-03-23T12:30:26.000Z</time><ele>455</ele></trkpt><trkpt lat="45.815036" lon="9.429779"><time>2024-03-23T12:30:27.000Z</time><ele>455</ele></trkpt><trkpt lat="45.815038" lon="9.429776"><time>2024-03-23T12:30:28.000Z</time><ele>455</ele></trkpt><trkpt lat="45.815038" lon="9.429776"><time>2024-03-23T12:30:29.000Z</time><ele>455.2</ele></trkpt><trkpt lat="45.815038" lon="9.429776"><time>2024-03-23T12:30:30.000Z</time><ele>455.2</ele></trkpt><trkpt lat="45.815038" lon="9.429776"><time>2024-03-23T12:30:31.000Z</time><ele>455.2</ele></trkpt><trkpt lat="45.815038" lon="9.429776"><time>2024-03-23T12:30:32.000Z</time><ele>455</ele></trkpt><trkpt lat="45.815038" lon="9.429776"><time>2024-03-23T12:30:33.000Z</time><ele>454.8</ele></trkpt><trkpt lat="45.815041" lon="9.429777"><time>2024-03-23T12:30:34.000Z</time><ele>454.8</ele></trkpt><trkpt lat="45.815045" lon="9.429774"><time>2024-03-23T12:30:35.000Z</time><ele>454.6</ele></trkpt><trkpt lat="45.815052" lon="9.429765"><time>2024-03-23T12:30:36.000Z</time><ele>454.6</ele></trkpt><trkpt lat="45.815058" lon="9.429758"><time>2024-03-23T12:30:37.000Z</time><ele>454.6</ele></trkpt><trkpt lat="45.815064" lon="9.429755"><time>2024-03-23T12:30:38.000Z</time><ele>454.6</ele></trkpt><trkpt lat="45.815075" lon="9.429756"><time>2024-03-23T12:30:39.000Z</time><ele>454.8</ele></trkpt><trkpt lat="45.815084" lon="9.429756"><time>2024-03-23T12:30:40.000Z</time><ele>454.8</ele></trkpt><trkpt lat="45.815088" lon="9.429757"><time>2024-03-23T12:30:41.000Z</time><ele>454.8</ele></trkpt><trkpt lat="45.815105" lon="9.429764"><time>2024-03-23T12:30:42.000Z</time><ele>455</ele></trkpt><trkpt lat="45.815119" lon="9.429771"><time>2024-03-23T12:30:43.000Z</time><ele>454.8</ele></trkpt><trkpt lat="45.815122" lon="9.42977"><time>2024-03-23T12:30:44.000Z</time><ele>454.8</ele></trkpt><trkpt lat="45.815128" lon="9.429767"><time>2024-03-23T12:30:45.000Z</time><ele>454.8</ele></trkpt><trkpt lat="45.815128" lon="9.429768"><time>2024-03-23T12:30:46.000Z</time><ele>454.8</ele></trkpt><trkpt lat="45.81513" lon="9.429768"><time>2024-03-23T12:30:47.000Z</time><ele>454.6</ele></trkpt><trkpt lat="45.815137" lon="9.429764"><time>2024-03-23T12:30:48.000Z</time><ele>454.8</ele></trkpt><trkpt lat="45.81514" lon="9.429756"><time>2024-03-23T12:30:49.000Z</time><ele>454.8</ele></trkpt><trkpt lat="45.815145" lon="9.429751"><time>2024-03-23T12:30:50.000Z</time><ele>454.8</ele></trkpt><trkpt lat="45.815156" lon="9.429743"><time>2024-03-23T12:30:51.000Z</time><ele>454.8</ele></trkpt><trkpt lat="45.815166" lon="9.429737"><time>2024-03-23T12:30:52.000Z</time><ele>454.8</ele></trkpt><trkpt lat="45.815172" lon="9.429731"><time>2024-03-23T12:30:53.000Z</time><ele>454.8</ele></trkpt><trkpt lat="45.815177" lon="9.429729"><time>2024-03-23T12:30:54.000Z</time><ele>454.8</ele></trkpt><trkpt lat="45.81518" lon="9.429723"><time>2024-03-23T12:30:55.000Z</time><ele>454.8</ele></trkpt><trkpt lat="45.815192" lon="9.429732"><time>2024-03-23T12:30:56.000Z</time><ele>454.8</ele></trkpt><trkpt lat="45.815202" lon="9.429727"><time>2024-03-23T12:30:57.000Z</time><ele>454.8</ele></trkpt><trkpt lat="45.815203" lon="9.429724"><time>2024-03-23T12:30:58.000Z</time><ele>454.8</ele></trkpt><trkpt lat="45.81521" lon="9.429715"><time>2024-03-23T12:30:59.000Z</time><ele>454.8</ele></trkpt><trkpt lat="45.815221" lon="9.429705"><time>2024-03-23T12:31:00.000Z</time><ele>454.8</ele></trkpt><trkpt lat="45.815233" lon="9.429689"><time>2024-03-23T12:31:01.000Z</time><ele>454.8</ele></trkpt><trkpt lat="45.81524" lon="9.429678"><time>2024-03-23T12:31:02.000Z</time><ele>454.8</ele></trkpt><trkpt lat="45.815241" lon="9.429677"><time>2024-03-23T12:31:03.000Z</time><ele>454.8</ele></trkpt><trkpt lat="45.815242" lon="9.429678"><time>2024-03-23T12:31:04.000Z</time><ele>454.8</ele></trkpt><trkpt lat="45.815248" lon="9.429687"><time>2024-03-23T12:31:05.000Z</time><ele>454.8</ele></trkpt><trkpt lat="45.815254" lon="9.429691"><time>2024-03-23T12:31:06.000Z</time><ele>454.8</ele></trkpt><trkpt lat="45.815255" lon="9.429688"><time>2024-03-23T12:31:07.000Z</time><ele>454.8</ele></trkpt><trkpt lat="45.815256" lon="9.429676"><time>2024-03-23T12:31:08.000Z</time><ele>454.8</ele></trkpt><trkpt lat="45.815258" lon="9.429673"><time>2024-03-23T12:31:09.000Z</time><ele>454.8</ele></trkpt><trkpt lat="45.815258" lon="9.429672"><time>2024-03-23T12:31:10.000Z</time><ele>455</ele></trkpt><trkpt lat="45.815267" lon="9.429663"><time>2024-03-23T12:31:11.000Z</time><ele>455</ele></trkpt><trkpt lat="45.815277" lon="9.42965"><time>2024-03-23T12:31:12.000Z</time><ele>455</ele></trkpt><trkpt lat="45.81528" lon="9.429644"><time>2024-03-23T12:31:13.000Z</time><ele>455</ele></trkpt><trkpt lat="45.815299" lon="9.429645"><time>2024-03-23T12:31:14.000Z</time><ele>455</ele></trkpt><trkpt lat="45.815304" lon="9.429647"><time>2024-03-23T12:31:15.000Z</time><ele>454.8</ele></trkpt><trkpt lat="45.815307" lon="9.429647"><time>2024-03-23T12:31:16.000Z</time><ele>454.8</ele></trkpt><trkpt lat="45.815309" lon="9.429643"><time>2024-03-23T12:31:17.000Z</time><ele>454.8</ele></trkpt><trkpt lat="45.815315" lon="9.429645"><time>2024-03-23T12:31:18.000Z</time><ele>454.6</ele></trkpt><trkpt lat="45.815322" lon="9.429646"><time>2024-03-23T12:31:19.000Z</time><ele>454.6</ele></trkpt><trkpt lat="45.815322" lon="9.429648"><time>2024-03-23T12:31:21.000Z</time><ele>454.6</ele></trkpt><trkpt lat="45.815323" lon="9.429646"><time>2024-03-23T12:31:22.000Z</time><ele>454.6</ele></trkpt><trkpt lat="45.815331" lon="9.429639"><time>2024-03-23T12:31:23.000Z</time><ele>454.6</ele></trkpt><trkpt lat="45.815342" lon="9.42963"><time>2024-03-23T12:31:24.000Z</time><ele>454.6</ele></trkpt><trkpt lat="45.815348" lon="9.429624"><time>2024-03-23T12:31:25.000Z</time><ele>454.6</ele></trkpt><trkpt lat="45.815352" lon="9.429621"><time>2024-03-23T12:31:26.000Z</time><ele>454.6</ele></trkpt><trkpt lat="45.815353" lon="9.429616"><time>2024-03-23T12:31:27.000Z</time><ele>454.6</ele></trkpt><trkpt lat="45.815355" lon="9.429609"><time>2024-03-23T12:31:28.000Z</time><ele>454.6</ele></trkpt><trkpt lat="45.815358" lon="9.429604"><time>2024-03-23T12:31:29.000Z</time><ele>454.6</ele></trkpt><trkpt lat="45.81536" lon="9.429598"><time>2024-03-23T12:31:30.000Z</time><ele>454.6</ele></trkpt><trkpt lat="45.815367" lon="9.429597"><time>2024-03-23T12:31:31.000Z</time><ele>454.6</ele></trkpt><trkpt lat="45.815374" lon="9.429595"><time>2024-03-23T12:31:32.000Z</time><ele>454.6</ele></trkpt><trkpt lat="45.815382" lon="9.42959"><time>2024-03-23T12:31:33.000Z</time><ele>454.6</ele></trkpt><trkpt lat="45.81539" lon="9.429579"><time>2024-03-23T12:31:34.000Z</time><ele>454.6</ele></trkpt><trkpt lat="45.815394" lon="9.429575"><time>2024-03-23T12:31:35.000Z</time><ele>454.6</ele></trkpt><trkpt lat="45.815402" lon="9.429566"><time>2024-03-23T12:31:36.000Z</time><ele>454.6</ele></trkpt><trkpt lat="45.815405" lon="9.429564"><time>2024-03-23T12:31:37.000Z</time><ele>454.6</ele></trkpt><trkpt lat="45.815411" lon="9.429553"><time>2024-03-23T12:31:38.000Z</time><ele>454.6</ele></trkpt><trkpt lat="45.815419" lon="9.42955"><time>2024-03-23T12:31:39.000Z</time><ele>454.6</ele></trkpt><trkpt lat="45.815428" lon="9.429547"><time>2024-03-23T12:31:40.000Z</time><ele>454.6</ele></trkpt><trkpt lat="45.815432" lon="9.429536"><time>2024-03-23T12:31:41.000Z</time><ele>454.6</ele></trkpt><trkpt lat="45.815434" lon="9.429518"><time>2024-03-23T12:31:42.000Z</time><ele>454.6</ele></trkpt><trkpt lat="45.815436" lon="9.42951"><time>2024-03-23T12:31:43.000Z</time><ele>454.6</ele></trkpt><trkpt lat="45.815443" lon="9.429502"><time>2024-03-23T12:31:44.000Z</time><ele>454.6</ele></trkpt><trkpt lat="45.81545" lon="9.429492"><time>2024-03-23T12:31:45.000Z</time><ele>454.6</ele></trkpt><trkpt lat="45.815453" lon="9.429489"><time>2024-03-23T12:31:46.000Z</time><ele>454.6</ele></trkpt><trkpt lat="45.815464" lon="9.42947"><time>2024-03-23T12:31:47.000Z</time><ele>454.6</ele></trkpt><trkpt lat="45.815467" lon="9.429451"><time>2024-03-23T12:31:48.000Z</time><ele>454.6</ele></trkpt><trkpt lat="45.815468" lon="9.429437"><time>2024-03-23T12:31:49.000Z</time><ele>454.6</ele></trkpt><trkpt lat="45.815471" lon="9.429421"><time>2024-03-23T12:31:50.000Z</time><ele>454.6</ele></trkpt><trkpt lat="45.815473" lon="9.429402"><time>2024-03-23T12:31:51.000Z</time><ele>454.6</ele></trkpt><trkpt lat="45.815474" lon="9.429396"><time>2024-03-23T12:31:52.000Z</time><ele>451.8</ele></trkpt><trkpt lat="45.815477" lon="9.42939"><time>2024-03-23T12:31:53.000Z</time><ele>450.4</ele></trkpt><trkpt lat="45.815478" lon="9.429389"><time>2024-03-23T12:31:54.000Z</time><ele>449.4</ele></trkpt><trkpt lat="45.815483" lon="9.429379"><time>2024-03-23T12:31:55.000Z</time><ele>448.8</ele></trkpt><trkpt lat="45.815483" lon="9.429376"><time>2024-03-23T12:31:56.000Z</time><ele>448.4</ele></trkpt><trkpt lat="45.815482" lon="9.429373"><time>2024-03-23T12:31:57.000Z</time><ele>448</ele></trkpt><trkpt lat="45.815489" lon="9.429361"><time>2024-03-23T12:31:58.000Z</time><ele>447.6</ele></trkpt><trkpt lat="45.815493" lon="9.429355"><time>2024-03-23T12:31:59.000Z</time><ele>447.4</ele></trkpt><trkpt lat="45.815498" lon="9.42935"><time>2024-03-23T12:32:00.000Z</time><ele>447.2</ele></trkpt><trkpt lat="45.815504" lon="9.429343"><time>2024-03-23T12:32:01.000Z</time><ele>447</ele></trkpt><trkpt lat="45.815508" lon="9.42933"><time>2024-03-23T12:32:02.000Z</time><ele>446.8</ele></trkpt><trkpt lat="45.81551" lon="9.42932"><time>2024-03-23T12:32:03.000Z</time><ele>446.6</ele></trkpt><trkpt lat="45.815513" lon="9.429317"><time>2024-03-23T12:32:04.000Z</time><ele>446.4</ele></trkpt><trkpt lat="45.81552" lon="9.429312"><time>2024-03-23T12:32:05.000Z</time><ele>446.2</ele></trkpt><trkpt lat="45.815528" lon="9.429305"><time>2024-03-23T12:32:06.000Z</time><ele>446</ele></trkpt><trkpt lat="45.815532" lon="9.429302"><time>2024-03-23T12:32:07.000Z</time><ele>445.8</ele></trkpt><trkpt lat="45.815541" lon="9.429295"><time>2024-03-23T12:32:08.000Z</time><ele>445.4</ele></trkpt><trkpt lat="45.815548" lon="9.429284"><time>2024-03-23T12:32:09.000Z</time><ele>445.2</ele></trkpt><trkpt lat="45.815554" lon="9.429275"><time>2024-03-23T12:32:10.000Z</time><ele>445</ele></trkpt><trkpt lat="45.815569" lon="9.429268"><time>2024-03-23T12:32:11.000Z</time><ele>444.8</ele></trkpt><trkpt lat="45.81558" lon="9.429266"><time>2024-03-23T12:32:12.000Z</time><ele>444.6</ele></trkpt><trkpt lat="45.81559" lon="9.429264"><time>2024-03-23T12:32:13.000Z</time><ele>444.4</ele></trkpt><trkpt lat="45.815598" lon="9.429262"><time>2024-03-23T12:32:14.000Z</time><ele>444.2</ele></trkpt><trkpt lat="45.815605" lon="9.429243"><time>2024-03-23T12:32:15.000Z</time><ele>444</ele></trkpt><trkpt lat="45.815612" lon="9.429228"><time>2024-03-23T12:32:16.000Z</time><ele>443.8</ele></trkpt><trkpt lat="45.815623" lon="9.429213"><time>2024-03-23T12:32:17.000Z</time><ele>443.6</ele></trkpt><trkpt lat="45.815628" lon="9.429204"><time>2024-03-23T12:32:18.000Z</time><ele>443.4</ele></trkpt><trkpt lat="45.815636" lon="9.429194"><time>2024-03-23T12:32:19.000Z</time><ele>443.2</ele></trkpt><trkpt lat="45.815634" lon="9.429182"><time>2024-03-23T12:32:20.000Z</time><ele>443</ele></trkpt><trkpt lat="45.815636" lon="9.429177"><time>2024-03-23T12:32:21.000Z</time><ele>442.8</ele></trkpt><trkpt lat="45.815636" lon="9.429166"><time>2024-03-23T12:32:22.000Z</time><ele>442.6</ele></trkpt><trkpt lat="45.815637" lon="9.429159"><time>2024-03-23T12:32:23.000Z</time><ele>442.2</ele></trkpt><trkpt lat="45.815642" lon="9.429147"><time>2024-03-23T12:32:24.000Z</time><ele>442</ele></trkpt><trkpt lat="45.815646" lon="9.429144"><time>2024-03-23T12:32:25.000Z</time><ele>441.8</ele></trkpt><trkpt lat="45.815652" lon="9.429135"><time>2024-03-23T12:32:26.000Z</time><ele>441.6</ele></trkpt><trkpt lat="45.815652" lon="9.429132"><time>2024-03-23T12:32:27.000Z</time><ele>441.4</ele></trkpt><trkpt lat="45.815653" lon="9.429129"><time>2024-03-23T12:32:28.000Z</time><ele>441</ele></trkpt><trkpt lat="45.815653" lon="9.429124"><time>2024-03-23T12:32:29.000Z</time><ele>440.8</ele></trkpt><trkpt lat="45.815655" lon="9.429121"><time>2024-03-23T12:32:30.000Z</time><ele>440.6</ele></trkpt><trkpt lat="45.815656" lon="9.429119"><time>2024-03-23T12:32:31.000Z</time><ele>440.4</ele></trkpt><trkpt lat="45.815657" lon="9.429118"><time>2024-03-23T12:32:32.000Z</time><ele>440.2</ele></trkpt><trkpt lat="45.815656" lon="9.429104"><time>2024-03-23T12:32:33.000Z</time><ele>440</ele></trkpt><trkpt lat="45.815657" lon="9.429096"><time>2024-03-23T12:32:34.000Z</time><ele>439.8</ele></trkpt><trkpt lat="45.815659" lon="9.429089"><time>2024-03-23T12:32:35.000Z</time><ele>439.8</ele></trkpt><trkpt lat="45.815661" lon="9.429085"><time>2024-03-23T12:32:36.000Z</time><ele>439.6</ele></trkpt><trkpt lat="45.815662" lon="9.429079"><time>2024-03-23T12:32:37.000Z</time><ele>439.4</ele></trkpt><trkpt lat="45.815666" lon="9.429072"><time>2024-03-23T12:32:38.000Z</time><ele>439.4</ele></trkpt><trkpt lat="45.815671" lon="9.429062"><time>2024-03-23T12:32:39.000Z</time><ele>439.2</ele></trkpt><trkpt lat="45.815673" lon="9.429057"><time>2024-03-23T12:32:40.000Z</time><ele>439.2</ele></trkpt><trkpt lat="45.815676" lon="9.429053"><time>2024-03-23T12:32:41.000Z</time><ele>439</ele></trkpt><trkpt lat="45.815679" lon="9.429047"><time>2024-03-23T12:32:42.000Z</time><ele>438.8</ele></trkpt><trkpt lat="45.815681" lon="9.429043"><time>2024-03-23T12:32:43.000Z</time><ele>438.8</ele></trkpt><trkpt lat="45.815681" lon="9.429031"><time>2024-03-23T12:32:44.000Z</time><ele>438.6</ele></trkpt><trkpt lat="45.815683" lon="9.429022"><time>2024-03-23T12:32:45.000Z</time><ele>438.6</ele></trkpt><trkpt lat="45.815683" lon="9.429016"><time>2024-03-23T12:32:46.000Z</time><ele>438.6</ele></trkpt><trkpt lat="45.815684" lon="9.429012"><time>2024-03-23T12:32:47.000Z</time><ele>438.4</ele></trkpt><trkpt lat="45.815683" lon="9.429007"><time>2024-03-23T12:32:48.000Z</time><ele>438.2</ele></trkpt><trkpt lat="45.815682" lon="9.429004"><time>2024-03-23T12:32:49.000Z</time><ele>438.2</ele></trkpt><trkpt lat="45.815682" lon="9.429003"><time>2024-03-23T12:32:50.000Z</time><ele>438</ele></trkpt><trkpt lat="45.815681" lon="9.429002"><time>2024-03-23T12:32:51.000Z</time><ele>438</ele></trkpt><trkpt lat="45.815689" lon="9.428993"><time>2024-03-23T12:32:52.000Z</time><ele>437.8</ele></trkpt><trkpt lat="45.81569" lon="9.42899"><time>2024-03-23T12:32:53.000Z</time><ele>437.8</ele></trkpt><trkpt lat="45.815689" lon="9.428989"><time>2024-03-23T12:32:54.000Z</time><ele>437.8</ele></trkpt><trkpt lat="45.815691" lon="9.42899"><time>2024-03-23T12:32:55.000Z</time><ele>437.8</ele></trkpt><trkpt lat="45.815687" lon="9.428984"><time>2024-03-23T12:32:56.000Z</time><ele>437.6</ele></trkpt><trkpt lat="45.815684" lon="9.428987"><time>2024-03-23T12:32:57.000Z</time><ele>437.6</ele></trkpt><trkpt lat="45.815682" lon="9.428989"><time>2024-03-23T12:32:58.000Z</time><ele>437.6</ele></trkpt><trkpt lat="45.815684" lon="9.428983"><time>2024-03-23T12:32:59.000Z</time><ele>437.4</ele></trkpt><trkpt lat="45.815686" lon="9.428982"><time>2024-03-23T12:33:00.000Z</time><ele>437.4</ele></trkpt><trkpt lat="45.815688" lon="9.428984"><time>2024-03-23T12:33:01.000Z</time><ele>437.4</ele></trkpt><trkpt lat="45.815692" lon="9.428991"><time>2024-03-23T12:33:02.000Z</time><ele>437.4</ele></trkpt><trkpt lat="45.815694" lon="9.428992"><time>2024-03-23T12:33:03.000Z</time><ele>437.4</ele></trkpt><trkpt lat="45.815695" lon="9.428993"><time>2024-03-23T12:33:04.000Z</time><ele>437.4</ele></trkpt><trkpt lat="45.815694" lon="9.428994"><time>2024-03-23T12:33:05.000Z</time><ele>437.4</ele></trkpt><trkpt lat="45.815698" lon="9.428994"><time>2024-03-23T12:33:06.000Z</time><ele>437.4</ele></trkpt><trkpt lat="45.8157" lon="9.428996"><time>2024-03-23T12:33:07.000Z</time><ele>437.4</ele></trkpt><trkpt lat="45.815704" lon="9.428986"><time>2024-03-23T12:33:08.000Z</time><ele>437.4</ele></trkpt><trkpt lat="45.815705" lon="9.428978"><time>2024-03-23T12:33:09.000Z</time><ele>437.4</ele></trkpt><trkpt lat="45.815706" lon="9.428974"><time>2024-03-23T12:33:10.000Z</time><ele>437.2</ele></trkpt><trkpt lat="45.815708" lon="9.428959"><time>2024-03-23T12:33:11.000Z</time><ele>437.2</ele></trkpt><trkpt lat="45.815715" lon="9.428956"><time>2024-03-23T12:33:12.000Z</time><ele>437</ele></trkpt><trkpt lat="45.815719" lon="9.428954"><time>2024-03-23T12:33:13.000Z</time><ele>436.8</ele></trkpt><trkpt lat="45.815724" lon="9.428943"><time>2024-03-23T12:33:14.000Z</time><ele>436.6</ele></trkpt><trkpt lat="45.815728" lon="9.428924"><time>2024-03-23T12:33:15.000Z</time><ele>436.6</ele></trkpt><trkpt lat="45.815731" lon="9.428908"><time>2024-03-23T12:33:16.000Z</time><ele>436.4</ele></trkpt><trkpt lat="45.815732" lon="9.428903"><time>2024-03-23T12:33:17.000Z</time><ele>436.2</ele></trkpt><trkpt lat="45.815732" lon="9.428893"><time>2024-03-23T12:33:18.000Z</time><ele>436</ele></trkpt><trkpt lat="45.815731" lon="9.428882"><time>2024-03-23T12:33:19.000Z</time><ele>435.8</ele></trkpt><trkpt lat="45.81573" lon="9.42887"><time>2024-03-23T12:33:20.000Z</time><ele>435.6</ele></trkpt><trkpt lat="45.815732" lon="9.428851"><time>2024-03-23T12:33:21.000Z</time><ele>435.4</ele></trkpt><trkpt lat="45.815736" lon="9.428833"><time>2024-03-23T12:33:22.000Z</time><ele>435.4</ele></trkpt><trkpt lat="45.815744" lon="9.428817"><time>2024-03-23T12:33:23.000Z</time><ele>435.2</ele></trkpt><trkpt lat="45.815751" lon="9.428799"><time>2024-03-23T12:33:24.000Z</time><ele>435</ele></trkpt><trkpt lat="45.815756" lon="9.428783"><time>2024-03-23T12:33:25.000Z</time><ele>435</ele></trkpt><trkpt lat="45.815759" lon="9.428771"><time>2024-03-23T12:33:26.000Z</time><ele>434.8</ele></trkpt><trkpt lat="45.815759" lon="9.428767"><time>2024-03-23T12:33:27.000Z</time><ele>434.6</ele></trkpt><trkpt lat="45.815759" lon="9.428765"><time>2024-03-23T12:33:28.000Z</time><ele>434.4</ele></trkpt><trkpt lat="45.815761" lon="9.42876"><time>2024-03-23T12:33:29.000Z</time><ele>434.2</ele></trkpt><trkpt lat="45.815758" lon="9.428753"><time>2024-03-23T12:33:30.000Z</time><ele>434</ele></trkpt><trkpt lat="45.815759" lon="9.428744"><time>2024-03-23T12:33:31.000Z</time><ele>433.8</ele></trkpt><trkpt lat="45.815761" lon="9.428732"><time>2024-03-23T12:33:32.000Z</time><ele>433.6</ele></trkpt><trkpt lat="45.815771" lon="9.428715"><time>2024-03-23T12:33:33.000Z</time><ele>433.4</ele></trkpt><trkpt lat="45.81578" lon="9.428702"><time>2024-03-23T12:33:34.000Z</time><ele>433</ele></trkpt><trkpt lat="45.815783" lon="9.42869"><time>2024-03-23T12:33:35.000Z</time><ele>432.8</ele></trkpt><trkpt lat="45.815786" lon="9.428678"><time>2024-03-23T12:33:36.000Z</time><ele>432.6</ele></trkpt><trkpt lat="45.815786" lon="9.428671"><time>2024-03-23T12:33:37.000Z</time><ele>432.4</ele></trkpt><trkpt lat="45.81579" lon="9.428662"><time>2024-03-23T12:33:38.000Z</time><ele>432.2</ele></trkpt><trkpt lat="45.815796" lon="9.428656"><time>2024-03-23T12:33:39.000Z</time><ele>432</ele></trkpt><trkpt lat="45.815801" lon="9.428647"><time>2024-03-23T12:33:40.000Z</time><ele>431.8</ele></trkpt><trkpt lat="45.815809" lon="9.428635"><time>2024-03-23T12:33:41.000Z</time><ele>431.6</ele></trkpt><trkpt lat="45.815818" lon="9.428621"><time>2024-03-23T12:33:42.000Z</time><ele>431.4</ele></trkpt><trkpt lat="45.815823" lon="9.428608"><time>2024-03-23T12:33:43.000Z</time><ele>431.2</ele></trkpt><trkpt lat="45.815826" lon="9.428595"><time>2024-03-23T12:33:44.000Z</time><ele>431</ele></trkpt><trkpt lat="45.81583" lon="9.428583"><time>2024-03-23T12:33:45.000Z</time><ele>431</ele></trkpt><trkpt lat="45.815836" lon="9.428574"><time>2024-03-23T12:33:46.000Z</time><ele>430.8</ele></trkpt><trkpt lat="45.815836" lon="9.428557"><time>2024-03-23T12:33:47.000Z</time><ele>430.6</ele></trkpt><trkpt lat="45.815837" lon="9.428549"><time>2024-03-23T12:33:48.000Z</time><ele>430.4</ele></trkpt><trkpt lat="45.815837" lon="9.428534"><time>2024-03-23T12:33:49.000Z</time><ele>430.2</ele></trkpt><trkpt lat="45.815839" lon="9.428514"><time>2024-03-23T12:33:50.000Z</time><ele>430</ele></trkpt><trkpt lat="45.815841" lon="9.428506"><time>2024-03-23T12:33:51.000Z</time><ele>429.6</ele></trkpt><trkpt lat="45.81584" lon="9.428506"><time>2024-03-23T12:33:52.000Z</time><ele>429.4</ele></trkpt><trkpt lat="45.815843" lon="9.428504"><time>2024-03-23T12:33:53.000Z</time><ele>429.2</ele></trkpt><trkpt lat="45.815847" lon="9.4285"><time>2024-03-23T12:33:54.000Z</time><ele>429</ele></trkpt><trkpt lat="45.815849" lon="9.428506"><time>2024-03-23T12:33:55.000Z</time><ele>428.8</ele></trkpt><trkpt lat="45.81585" lon="9.428496"><time>2024-03-23T12:33:56.000Z</time><ele>428.6</ele></trkpt><trkpt lat="45.815846" lon="9.428487"><time>2024-03-23T12:33:57.000Z</time><ele>428.6</ele></trkpt><trkpt lat="45.815844" lon="9.428486"><time>2024-03-23T12:33:58.000Z</time><ele>428.4</ele></trkpt><trkpt lat="45.815847" lon="9.428468"><time>2024-03-23T12:33:59.000Z</time><ele>428.4</ele></trkpt><trkpt lat="45.815853" lon="9.428445"><time>2024-03-23T12:34:00.000Z</time><ele>428.2</ele></trkpt><trkpt lat="45.815851" lon="9.42844"><time>2024-03-23T12:34:01.000Z</time><ele>428</ele></trkpt><trkpt lat="45.815862" lon="9.428423"><time>2024-03-23T12:34:02.000Z</time><ele>427.8</ele></trkpt><trkpt lat="45.81587" lon="9.428408"><time>2024-03-23T12:34:03.000Z</time><ele>427.6</ele></trkpt><trkpt lat="45.815872" lon="9.428409"><time>2024-03-23T12:34:04.000Z</time><ele>427.4</ele></trkpt><trkpt lat="45.815873" lon="9.428411"><time>2024-03-23T12:34:05.000Z</time><ele>427.4</ele></trkpt><trkpt lat="45.815872" lon="9.428413"><time>2024-03-23T12:34:06.000Z</time><ele>427.2</ele></trkpt><trkpt lat="45.815873" lon="9.428414"><time>2024-03-23T12:34:07.000Z</time><ele>427.2</ele></trkpt><trkpt lat="45.815874" lon="9.428412"><time>2024-03-23T12:34:08.000Z</time><ele>427.2</ele></trkpt><trkpt lat="45.815876" lon="9.428409"><time>2024-03-23T12:34:09.000Z</time><ele>427.2</ele></trkpt><trkpt lat="45.815876" lon="9.428411"><time>2024-03-23T12:34:10.000Z</time><ele>427.2</ele></trkpt><trkpt lat="45.815877" lon="9.428413"><time>2024-03-23T12:34:11.000Z</time><ele>427.2</ele></trkpt><trkpt lat="45.815877" lon="9.428414"><time>2024-03-23T12:34:12.000Z</time><ele>427.2</ele></trkpt><trkpt lat="45.815877" lon="9.428415"><time>2024-03-23T12:34:13.000Z</time><ele>427.2</ele></trkpt><trkpt lat="45.815884" lon="9.428403"><time>2024-03-23T12:34:14.000Z</time><ele>427.2</ele></trkpt><trkpt lat="45.815891" lon="9.428394"><time>2024-03-23T12:34:15.000Z</time><ele>427</ele></trkpt><trkpt lat="45.815893" lon="9.428393"><time>2024-03-23T12:34:16.000Z</time><ele>427</ele></trkpt><trkpt lat="45.815896" lon="9.428391"><time>2024-03-23T12:34:17.000Z</time><ele>427</ele></trkpt><trkpt lat="45.815898" lon="9.428388"><time>2024-03-23T12:34:18.000Z</time><ele>426.8</ele></trkpt><trkpt lat="45.815899" lon="9.428385"><time>2024-03-23T12:34:19.000Z</time><ele>426.8</ele></trkpt><trkpt lat="45.815895" lon="9.428378"><time>2024-03-23T12:34:20.000Z</time><ele>426.6</ele></trkpt><trkpt lat="45.815892" lon="9.428369"><time>2024-03-23T12:34:21.000Z</time><ele>426.6</ele></trkpt><trkpt lat="45.815891" lon="9.428362"><time>2024-03-23T12:34:22.000Z</time><ele>426.6</ele></trkpt><trkpt lat="45.815888" lon="9.42835"><time>2024-03-23T12:34:23.000Z</time><ele>426.4</ele></trkpt><trkpt lat="45.81589" lon="9.428345"><time>2024-03-23T12:34:24.000Z</time><ele>426.2</ele></trkpt><trkpt lat="45.81589" lon="9.428335"><time>2024-03-23T12:34:25.000Z</time><ele>426</ele></trkpt><trkpt lat="45.81589" lon="9.428328"><time>2024-03-23T12:34:26.000Z</time><ele>425.8</ele></trkpt><trkpt lat="45.815893" lon="9.428316"><time>2024-03-23T12:34:27.000Z</time><ele>425.6</ele></trkpt><trkpt lat="45.815895" lon="9.428311"><time>2024-03-23T12:34:28.000Z</time><ele>425.6</ele></trkpt><trkpt lat="45.815899" lon="9.4283"><time>2024-03-23T12:34:29.000Z</time><ele>425.4</ele></trkpt><trkpt lat="45.815896" lon="9.428289"><time>2024-03-23T12:34:30.000Z</time><ele>425.2</ele></trkpt><trkpt lat="45.815893" lon="9.428283"><time>2024-03-23T12:34:31.000Z</time><ele>425</ele></trkpt><trkpt lat="45.815891" lon="9.428278"><time>2024-03-23T12:34:32.000Z</time><ele>424.8</ele></trkpt><trkpt lat="45.815889" lon="9.428257"><time>2024-03-23T12:34:33.000Z</time><ele>424.4</ele></trkpt><trkpt lat="45.815886" lon="9.428241"><time>2024-03-23T12:34:34.000Z</time><ele>424.2</ele></trkpt><trkpt lat="45.815885" lon="9.42823"><time>2024-03-23T12:34:35.000Z</time><ele>424</ele></trkpt><trkpt lat="45.815879" lon="9.428223"><time>2024-03-23T12:34:36.000Z</time><ele>424</ele></trkpt><trkpt lat="45.815875" lon="9.428221"><time>2024-03-23T12:34:37.000Z</time><ele>423.8</ele></trkpt><trkpt lat="45.815871" lon="9.428218"><time>2024-03-23T12:34:38.000Z</time><ele>423.6</ele></trkpt><trkpt lat="45.815871" lon="9.428216"><time>2024-03-23T12:34:39.000Z</time><ele>423.6</ele></trkpt><trkpt lat="45.815875" lon="9.428212"><time>2024-03-23T12:34:40.000Z</time><ele>423.4</ele></trkpt><trkpt lat="45.815874" lon="9.428205"><time>2024-03-23T12:34:41.000Z</time><ele>423.2</ele></trkpt><trkpt lat="45.815874" lon="9.428204"><time>2024-03-23T12:34:42.000Z</time><ele>423.2</ele></trkpt><trkpt lat="45.815874" lon="9.428204"><time>2024-03-23T12:34:43.000Z</time><ele>423.2</ele></trkpt><trkpt lat="45.815875" lon="9.428205"><time>2024-03-23T12:34:44.000Z</time><ele>423.2</ele></trkpt><trkpt lat="45.815876" lon="9.428206"><time>2024-03-23T12:34:45.000Z</time><ele>423.2</ele></trkpt><trkpt lat="45.815875" lon="9.428205"><time>2024-03-23T12:34:46.000Z</time><ele>423.2</ele></trkpt><trkpt lat="45.815876" lon="9.428206"><time>2024-03-23T12:34:47.000Z</time><ele>423.2</ele></trkpt><trkpt lat="45.815874" lon="9.428197"><time>2024-03-23T12:34:48.000Z</time><ele>423.2</ele></trkpt><trkpt lat="45.815874" lon="9.428184"><time>2024-03-23T12:34:49.000Z</time><ele>423</ele></trkpt><trkpt lat="45.815873" lon="9.428177"><time>2024-03-23T12:34:50.000Z</time><ele>423</ele></trkpt><trkpt lat="45.815872" lon="9.42817"><time>2024-03-23T12:34:51.000Z</time><ele>422.8</ele></trkpt><trkpt lat="45.815869" lon="9.428163"><time>2024-03-23T12:34:52.000Z</time><ele>422.6</ele></trkpt><trkpt lat="45.815863" lon="9.428157"><time>2024-03-23T12:34:53.000Z</time><ele>422.4</ele></trkpt><trkpt lat="45.815858" lon="9.428151"><time>2024-03-23T12:34:54.000Z</time><ele>422.4</ele></trkpt><trkpt lat="45.815853" lon="9.42814"><time>2024-03-23T12:34:55.000Z</time><ele>422.2</ele></trkpt><trkpt lat="45.815847" lon="9.428129"><time>2024-03-23T12:34:56.000Z</time><ele>422</ele></trkpt><trkpt lat="45.815835" lon="9.428118"><time>2024-03-23T12:34:57.000Z</time><ele>422</ele></trkpt><trkpt lat="45.815823" lon="9.428106"><time>2024-03-23T12:34:58.000Z</time><ele>421.8</ele></trkpt><trkpt lat="45.815809" lon="9.428095"><time>2024-03-23T12:34:59.000Z</time><ele>421.6</ele></trkpt><trkpt lat="45.815795" lon="9.428091"><time>2024-03-23T12:35:00.000Z</time><ele>421.4</ele></trkpt><trkpt lat="45.81579" lon="9.428084"><time>2024-03-23T12:35:01.000Z</time><ele>421.4</ele></trkpt><trkpt lat="45.815786" lon="9.42808"><time>2024-03-23T12:35:02.000Z</time><ele>421.2</ele></trkpt><trkpt lat="45.815777" lon="9.42807"><time>2024-03-23T12:35:03.000Z</time><ele>421.2</ele></trkpt><trkpt lat="45.81576" lon="9.42806"><time>2024-03-23T12:35:04.000Z</time><ele>421</ele></trkpt><trkpt lat="45.815741" lon="9.428054"><time>2024-03-23T12:35:05.000Z</time><ele>420.8</ele></trkpt><trkpt lat="45.815723" lon="9.42804"><time>2024-03-23T12:35:06.000Z</time><ele>420.6</ele></trkpt><trkpt lat="45.81571" lon="9.428028"><time>2024-03-23T12:35:07.000Z</time><ele>420.4</ele></trkpt><trkpt lat="45.815696" lon="9.42802"><time>2024-03-23T12:35:08.000Z</time><ele>420.2</ele></trkpt><trkpt lat="45.815683" lon="9.428013"><time>2024-03-23T12:35:09.000Z</time><ele>420</ele></trkpt><trkpt lat="45.815671" lon="9.427999"><time>2024-03-23T12:35:10.000Z</time><ele>419.8</ele></trkpt><trkpt lat="45.815663" lon="9.42799"><time>2024-03-23T12:35:11.000Z</time><ele>419.8</ele></trkpt><trkpt lat="45.815652" lon="9.427979"><time>2024-03-23T12:35:12.000Z</time><ele>419.6</ele></trkpt><trkpt lat="45.815641" lon="9.427969"><time>2024-03-23T12:35:13.000Z</time><ele>419.4</ele></trkpt><trkpt lat="45.815631" lon="9.427958"><time>2024-03-23T12:35:14.000Z</time><ele>419.2</ele></trkpt><trkpt lat="45.815627" lon="9.427956"><time>2024-03-23T12:35:15.000Z</time><ele>419.2</ele></trkpt><trkpt lat="45.815627" lon="9.427954"><time>2024-03-23T12:35:16.000Z</time><ele>419.2</ele></trkpt><trkpt lat="45.815629" lon="9.427953"><time>2024-03-23T12:35:17.000Z</time><ele>419.2</ele></trkpt><trkpt lat="45.815631" lon="9.427955"><time>2024-03-23T12:35:18.000Z</time><ele>419.2</ele></trkpt><trkpt lat="45.815632" lon="9.427956"><time>2024-03-23T12:35:19.000Z</time><ele>419.2</ele></trkpt><trkpt lat="45.815631" lon="9.427954"><time>2024-03-23T12:35:20.000Z</time><ele>419.2</ele></trkpt><trkpt lat="45.81563" lon="9.42795"><time>2024-03-23T12:35:21.000Z</time><ele>419.2</ele></trkpt><trkpt lat="45.815627" lon="9.427947"><time>2024-03-23T12:35:22.000Z</time><ele>419.2</ele></trkpt><trkpt lat="45.815613" lon="9.427949"><time>2024-03-23T12:35:23.000Z</time><ele>419.2</ele></trkpt><trkpt lat="45.815606" lon="9.427951"><time>2024-03-23T12:35:24.000Z</time><ele>419.2</ele></trkpt><trkpt lat="45.815598" lon="9.427954"><time>2024-03-23T12:35:25.000Z</time><ele>419</ele></trkpt><trkpt lat="45.815588" lon="9.427948"><time>2024-03-23T12:35:26.000Z</time><ele>419</ele></trkpt><trkpt lat="45.815581" lon="9.427933"><time>2024-03-23T12:35:27.000Z</time><ele>419</ele></trkpt><trkpt lat="45.815582" lon="9.427925"><time>2024-03-23T12:35:28.000Z</time><ele>418.8</ele></trkpt><trkpt lat="45.815589" lon="9.427916"><time>2024-03-23T12:35:29.000Z</time><ele>418.8</ele></trkpt><trkpt lat="45.815595" lon="9.427905"><time>2024-03-23T12:35:30.000Z</time><ele>418.6</ele></trkpt><trkpt lat="45.815602" lon="9.42789"><time>2024-03-23T12:35:31.000Z</time><ele>418.4</ele></trkpt><trkpt lat="45.815606" lon="9.427874"><time>2024-03-23T12:35:32.000Z</time><ele>418.4</ele></trkpt><trkpt lat="45.815611" lon="9.427858"><time>2024-03-23T12:35:33.000Z</time><ele>418.4</ele></trkpt><trkpt lat="45.815615" lon="9.427843"><time>2024-03-23T12:35:34.000Z</time><ele>418.4</ele></trkpt><trkpt lat="45.81562" lon="9.427828"><time>2024-03-23T12:35:35.000Z</time><ele>418.6</ele></trkpt><trkpt lat="45.815622" lon="9.427819"><time>2024-03-23T12:35:36.000Z</time><ele>418.6</ele></trkpt><trkpt lat="45.815624" lon="9.427805"><time>2024-03-23T12:35:37.000Z</time><ele>418.8</ele></trkpt><trkpt lat="45.815618" lon="9.427794"><time>2024-03-23T12:35:38.000Z</time><ele>418.8</ele></trkpt><trkpt lat="45.815618" lon="9.427783"><time>2024-03-23T12:35:39.000Z</time><ele>419</ele></trkpt><trkpt lat="45.815616" lon="9.427771"><time>2024-03-23T12:35:40.000Z</time><ele>419</ele></trkpt><trkpt lat="45.815619" lon="9.427758"><time>2024-03-23T12:35:41.000Z</time><ele>419.4</ele></trkpt><trkpt lat="45.815621" lon="9.427748"><time>2024-03-23T12:35:42.000Z</time><ele>419.6</ele></trkpt><trkpt lat="45.81562" lon="9.42774"><time>2024-03-23T12:35:43.000Z</time><ele>419.6</ele></trkpt><trkpt lat="45.815621" lon="9.427735"><time>2024-03-23T12:35:44.000Z</time><ele>419.8</ele></trkpt><trkpt lat="45.815624" lon="9.427728"><time>2024-03-23T12:35:45.000Z</time><ele>420.2</ele></trkpt><trkpt lat="45.815625" lon="9.427722"><time>2024-03-23T12:35:46.000Z</time><ele>420.4</ele></trkpt><trkpt lat="45.815628" lon="9.427714"><time>2024-03-23T12:35:47.000Z</time><ele>420.6</ele></trkpt><trkpt lat="45.81563" lon="9.427705"><time>2024-03-23T12:35:48.000Z</time><ele>420.8</ele></trkpt><trkpt lat="45.81563" lon="9.427692"><time>2024-03-23T12:35:49.000Z</time><ele>421</ele></trkpt><trkpt lat="45.815626" lon="9.42768"><time>2024-03-23T12:35:50.000Z</time><ele>421.2</ele></trkpt><trkpt lat="45.815624" lon="9.42766"><time>2024-03-23T12:35:51.000Z</time><ele>421.4</ele></trkpt><trkpt lat="45.815624" lon="9.427644"><time>2024-03-23T12:35:52.000Z</time><ele>421.6</ele></trkpt><trkpt lat="45.815623" lon="9.427628"><time>2024-03-23T12:35:53.000Z</time><ele>421.6</ele></trkpt><trkpt lat="45.815626" lon="9.4276"><time>2024-03-23T12:35:54.000Z</time><ele>421.6</ele></trkpt><trkpt lat="45.815626" lon="9.427579"><time>2024-03-23T12:35:55.000Z</time><ele>421.6</ele></trkpt><trkpt lat="45.815629" lon="9.427564"><time>2024-03-23T12:35:56.000Z</time><ele>421.6</ele></trkpt><trkpt lat="45.815629" lon="9.42754"><time>2024-03-23T12:35:57.000Z</time><ele>421.6</ele></trkpt><trkpt lat="45.815632" lon="9.427521"><time>2024-03-23T12:35:58.000Z</time><ele>421.6</ele></trkpt><trkpt lat="45.81563" lon="9.427496"><time>2024-03-23T12:35:59.000Z</time><ele>421.4</ele></trkpt><trkpt lat="45.81563" lon="9.427476"><time>2024-03-23T12:36:00.000Z</time><ele>421.4</ele></trkpt><trkpt lat="45.815629" lon="9.427463"><time>2024-03-23T12:36:01.000Z</time><ele>421.4</ele></trkpt><trkpt lat="45.815629" lon="9.427449"><time>2024-03-23T12:36:02.000Z</time><ele>421.4</ele></trkpt><trkpt lat="45.81563" lon="9.427434"><time>2024-03-23T12:36:03.000Z</time><ele>421.6</ele></trkpt><trkpt lat="45.815632" lon="9.427417"><time>2024-03-23T12:36:04.000Z</time><ele>421.6</ele></trkpt><trkpt lat="45.815632" lon="9.427399"><time>2024-03-23T12:36:05.000Z</time><ele>421.6</ele></trkpt><trkpt lat="45.81563" lon="9.427382"><time>2024-03-23T12:36:06.000Z</time><ele>421.6</ele></trkpt><trkpt lat="45.815628" lon="9.427367"><time>2024-03-23T12:36:07.000Z</time><ele>421.6</ele></trkpt><trkpt lat="45.815627" lon="9.427351"><time>2024-03-23T12:36:08.000Z</time><ele>421.6</ele></trkpt><trkpt lat="45.815625" lon="9.427338"><time>2024-03-23T12:36:09.000Z</time><ele>421.6</ele></trkpt><trkpt lat="45.815624" lon="9.427325"><time>2024-03-23T12:36:10.000Z</time><ele>421.6</ele></trkpt><trkpt lat="45.815622" lon="9.42731"><time>2024-03-23T12:36:11.000Z</time><ele>421.6</ele></trkpt><trkpt lat="45.815622" lon="9.427293"><time>2024-03-23T12:36:12.000Z</time><ele>421.6</ele></trkpt><trkpt lat="45.815618" lon="9.427279"><time>2024-03-23T12:36:13.000Z</time><ele>421.6</ele></trkpt><trkpt lat="45.815616" lon="9.427264"><time>2024-03-23T12:36:14.000Z</time><ele>421.6</ele></trkpt><trkpt lat="45.815611" lon="9.427254"><time>2024-03-23T12:36:15.000Z</time><ele>421.6</ele></trkpt><trkpt lat="45.815609" lon="9.427247"><time>2024-03-23T12:36:16.000Z</time><ele>421.8</ele></trkpt><trkpt lat="45.815613" lon="9.427234"><time>2024-03-23T12:36:17.000Z</time><ele>421.8</ele></trkpt><trkpt lat="45.815617" lon="9.427221"><time>2024-03-23T12:36:18.000Z</time><ele>422</ele></trkpt><trkpt lat="45.815617" lon="9.427208"><time>2024-03-23T12:36:19.000Z</time><ele>422</ele></trkpt><trkpt lat="45.815616" lon="9.427197"><time>2024-03-23T12:36:20.000Z</time><ele>422</ele></trkpt><trkpt lat="45.815615" lon="9.427184"><time>2024-03-23T12:36:21.000Z</time><ele>422</ele></trkpt><trkpt lat="45.815614" lon="9.427168"><time>2024-03-23T12:36:22.000Z</time><ele>422.2</ele></trkpt><trkpt lat="45.815613" lon="9.427156"><time>2024-03-23T12:36:23.000Z</time><ele>422.4</ele></trkpt><trkpt lat="45.81561" lon="9.427149"><time>2024-03-23T12:36:24.000Z</time><ele>422.4</ele></trkpt><trkpt lat="45.815607" lon="9.427148"><time>2024-03-23T12:36:25.000Z</time><ele>422.4</ele></trkpt><trkpt lat="45.815606" lon="9.427148"><time>2024-03-23T12:36:26.000Z</time><ele>422.4</ele></trkpt><trkpt lat="45.815607" lon="9.427147"><time>2024-03-23T12:36:27.000Z</time><ele>422.6</ele></trkpt><trkpt lat="45.815609" lon="9.427145"><time>2024-03-23T12:36:28.000Z</time><ele>422.6</ele></trkpt><trkpt lat="45.81561" lon="9.427143"><time>2024-03-23T12:36:29.000Z</time><ele>422.6</ele></trkpt><trkpt lat="45.81561" lon="9.427142"><time>2024-03-23T12:36:30.000Z</time><ele>422.6</ele></trkpt><trkpt lat="45.815608" lon="9.427137"><time>2024-03-23T12:36:31.000Z</time><ele>422.6</ele></trkpt><trkpt lat="45.815603" lon="9.42713"><time>2024-03-23T12:36:32.000Z</time><ele>422.4</ele></trkpt><trkpt lat="45.8156" lon="9.427118"><time>2024-03-23T12:36:33.000Z</time><ele>422.4</ele></trkpt><trkpt lat="45.815593" lon="9.427108"><time>2024-03-23T12:36:34.000Z</time><ele>422.4</ele></trkpt><trkpt lat="45.815587" lon="9.427097"><time>2024-03-23T12:36:35.000Z</time><ele>422.4</ele></trkpt><trkpt lat="45.815582" lon="9.427085"><time>2024-03-23T12:36:36.000Z</time><ele>422.4</ele></trkpt><trkpt lat="45.815576" lon="9.427079"><time>2024-03-23T12:36:37.000Z</time><ele>422.4</ele></trkpt><trkpt lat="45.815572" lon="9.42707"><time>2024-03-23T12:36:38.000Z</time><ele>422.4</ele></trkpt><trkpt lat="45.815568" lon="9.427061"><time>2024-03-23T12:36:39.000Z</time><ele>422.4</ele></trkpt><trkpt lat="45.815559" lon="9.427053"><time>2024-03-23T12:36:40.000Z</time><ele>422.4</ele></trkpt><trkpt lat="45.815551" lon="9.427046"><time>2024-03-23T12:36:41.000Z</time><ele>422.6</ele></trkpt><trkpt lat="45.815545" lon="9.427041"><time>2024-03-23T12:36:42.000Z</time><ele>422.6</ele></trkpt><trkpt lat="45.815542" lon="9.427031"><time>2024-03-23T12:36:43.000Z</time><ele>422.6</ele></trkpt><trkpt lat="45.815539" lon="9.42702"><time>2024-03-23T12:36:44.000Z</time><ele>422.8</ele></trkpt><trkpt lat="45.815537" lon="9.427008"><time>2024-03-23T12:36:45.000Z</time><ele>422.8</ele></trkpt><trkpt lat="45.815535" lon="9.426993"><time>2024-03-23T12:36:46.000Z</time><ele>422.8</ele></trkpt><trkpt lat="45.81553" lon="9.426983"><time>2024-03-23T12:36:47.000Z</time><ele>423</ele></trkpt><trkpt lat="45.815526" lon="9.426971"><time>2024-03-23T12:36:48.000Z</time><ele>423</ele></trkpt><trkpt lat="45.815525" lon="9.42696"><time>2024-03-23T12:36:49.000Z</time><ele>423</ele></trkpt><trkpt lat="45.815523" lon="9.426943"><time>2024-03-23T12:36:50.000Z</time><ele>423.2</ele></trkpt><trkpt lat="45.815517" lon="9.426931"><time>2024-03-23T12:36:51.000Z</time><ele>423.4</ele></trkpt><trkpt lat="45.815512" lon="9.426922"><time>2024-03-23T12:36:52.000Z</time><ele>423.4</ele></trkpt><trkpt lat="45.815508" lon="9.426921"><time>2024-03-23T12:36:53.000Z</time><ele>423.4</ele></trkpt><trkpt lat="45.815508" lon="9.426922"><time>2024-03-23T12:36:54.000Z</time><ele>423.6</ele></trkpt><trkpt lat="45.815507" lon="9.426925"><time>2024-03-23T12:36:55.000Z</time><ele>423.8</ele></trkpt><trkpt lat="45.815505" lon="9.426928"><time>2024-03-23T12:36:56.000Z</time><ele>423.8</ele></trkpt><trkpt lat="45.815502" lon="9.426928"><time>2024-03-23T12:36:57.000Z</time><ele>424</ele></trkpt><trkpt lat="45.815499" lon="9.426927"><time>2024-03-23T12:36:58.000Z</time><ele>424</ele></trkpt><trkpt lat="45.815496" lon="9.426927"><time>2024-03-23T12:36:59.000Z</time><ele>424.2</ele></trkpt><trkpt lat="45.815494" lon="9.426929"><time>2024-03-23T12:37:00.000Z</time><ele>424.2</ele></trkpt><trkpt lat="45.815493" lon="9.42693"><time>2024-03-23T12:37:01.000Z</time><ele>424.2</ele></trkpt><trkpt lat="45.815493" lon="9.42693"><time>2024-03-23T12:37:02.000Z</time><ele>424.2</ele></trkpt><trkpt lat="45.815493" lon="9.426929"><time>2024-03-23T12:37:03.000Z</time><ele>424.4</ele></trkpt><trkpt lat="45.815493" lon="9.42693"><time>2024-03-23T12:37:04.000Z</time><ele>424.4</ele></trkpt><trkpt lat="45.815493" lon="9.42693"><time>2024-03-23T12:37:05.000Z</time><ele>424.4</ele></trkpt><trkpt lat="45.815493" lon="9.42693"><time>2024-03-23T12:37:06.000Z</time><ele>424.6</ele></trkpt><trkpt lat="45.815493" lon="9.42693"><time>2024-03-23T12:37:07.000Z</time><ele>424.6</ele></trkpt><trkpt lat="45.815493" lon="9.42693"><time>2024-03-23T12:37:08.000Z</time><ele>424.4</ele></trkpt><trkpt lat="45.815493" lon="9.42693"><time>2024-03-23T12:37:09.000Z</time><ele>424.4</ele></trkpt><trkpt lat="45.815493" lon="9.42693"><time>2024-03-23T12:37:10.000Z</time><ele>424.4</ele></trkpt><trkpt lat="45.815493" lon="9.42693"><time>2024-03-23T12:37:11.000Z</time><ele>424.6</ele></trkpt><trkpt lat="45.815493" lon="9.42693"><time>2024-03-23T12:37:12.000Z</time><ele>424.6</ele></trkpt><trkpt lat="45.815493" lon="9.42693"><time>2024-03-23T12:37:13.000Z</time><ele>424.6</ele></trkpt><trkpt lat="45.815493" lon="9.42693"><time>2024-03-23T12:37:14.000Z</time><ele>424.6</ele></trkpt><trkpt lat="45.815494" lon="9.42693"><time>2024-03-23T12:37:15.000Z</time><ele>424.6</ele></trkpt><trkpt lat="45.815494" lon="9.426929"><time>2024-03-23T12:37:16.000Z</time><ele>424.6</ele></trkpt><trkpt lat="45.815494" lon="9.426929"><time>2024-03-23T12:37:17.000Z</time><ele>424.6</ele></trkpt><trkpt lat="45.815494" lon="9.426928"><time>2024-03-23T12:37:18.000Z</time><ele>424.6</ele></trkpt><trkpt lat="45.815494" lon="9.426928"><time>2024-03-23T12:37:19.000Z</time><ele>424.8</ele></trkpt><trkpt lat="45.815494" lon="9.426927"><time>2024-03-23T12:37:20.000Z</time><ele>425</ele></trkpt><trkpt lat="45.815494" lon="9.426927"><time>2024-03-23T12:37:21.000Z</time><ele>425</ele></trkpt><trkpt lat="45.815494" lon="9.426924"><time>2024-03-23T12:37:22.000Z</time><ele>425.2</ele></trkpt><trkpt lat="45.815494" lon="9.426922"><time>2024-03-23T12:37:23.000Z</time><ele>425.2</ele></trkpt><trkpt lat="45.815491" lon="9.426916"><time>2024-03-23T12:37:24.000Z</time><ele>425.4</ele></trkpt><trkpt lat="45.815487" lon="9.426899"><time>2024-03-23T12:37:25.000Z</time><ele>425.6</ele></trkpt><trkpt lat="45.815486" lon="9.426877"><time>2024-03-23T12:37:26.000Z</time><ele>425.8</ele></trkpt><trkpt lat="45.815481" lon="9.426861"><time>2024-03-23T12:37:27.000Z</time><ele>426</ele></trkpt><trkpt lat="45.815481" lon="9.426837"><time>2024-03-23T12:37:28.000Z</time><ele>426.2</ele></trkpt><trkpt lat="45.815479" lon="9.426817"><time>2024-03-23T12:37:29.000Z</time><ele>426.4</ele></trkpt><trkpt lat="45.815477" lon="9.426801"><time>2024-03-23T12:37:30.000Z</time><ele>426.4</ele></trkpt><trkpt lat="45.815476" lon="9.426786"><time>2024-03-23T12:37:31.000Z</time><ele>426.6</ele></trkpt><trkpt lat="45.815473" lon="9.426773"><time>2024-03-23T12:37:32.000Z</time><ele>426.6</ele></trkpt><trkpt lat="45.815471" lon="9.426765"><time>2024-03-23T12:37:33.000Z</time><ele>426.8</ele></trkpt><trkpt lat="45.815474" lon="9.426763"><time>2024-03-23T12:37:34.000Z</time><ele>426.8</ele></trkpt><trkpt lat="45.815475" lon="9.426764"><time>2024-03-23T12:37:35.000Z</time><ele>427</ele></trkpt><trkpt lat="45.815476" lon="9.426764"><time>2024-03-23T12:37:36.000Z</time><ele>427</ele></trkpt><trkpt lat="45.815476" lon="9.426764"><time>2024-03-23T12:37:37.000Z</time><ele>427</ele></trkpt><trkpt lat="45.815477" lon="9.426766"><time>2024-03-23T12:37:38.000Z</time><ele>427.2</ele></trkpt><trkpt lat="45.815476" lon="9.426767"><time>2024-03-23T12:37:39.000Z</time><ele>427.2</ele></trkpt><trkpt lat="45.815474" lon="9.426768"><time>2024-03-23T12:37:40.000Z</time><ele>427.4</ele></trkpt><trkpt lat="45.815474" lon="9.426768"><time>2024-03-23T12:37:41.000Z</time><ele>427.4</ele></trkpt><trkpt lat="45.815473" lon="9.426764"><time>2024-03-23T12:37:42.000Z</time><ele>427.4</ele></trkpt><trkpt lat="45.815468" lon="9.426759"><time>2024-03-23T12:37:43.000Z</time><ele>427.4</ele></trkpt><trkpt lat="45.815468" lon="9.426752"><time>2024-03-23T12:37:44.000Z</time><ele>427.4</ele></trkpt><trkpt lat="45.815471" lon="9.426744"><time>2024-03-23T12:37:45.000Z</time><ele>427.2</ele></trkpt><trkpt lat="45.815477" lon="9.426735"><time>2024-03-23T12:37:46.000Z</time><ele>427.2</ele></trkpt><trkpt lat="45.815477" lon="9.426724"><time>2024-03-23T12:37:47.000Z</time><ele>427.2</ele></trkpt><trkpt lat="45.815475" lon="9.426713"><time>2024-03-23T12:37:48.000Z</time><ele>427.6</ele></trkpt><trkpt lat="45.815474" lon="9.426704"><time>2024-03-23T12:37:49.000Z</time><ele>427.8</ele></trkpt><trkpt lat="45.815473" lon="9.426695"><time>2024-03-23T12:37:50.000Z</time><ele>428</ele></trkpt><trkpt lat="45.815475" lon="9.426685"><time>2024-03-23T12:37:51.000Z</time><ele>428</ele></trkpt><trkpt lat="45.815478" lon="9.426676"><time>2024-03-23T12:37:52.000Z</time><ele>428.2</ele></trkpt><trkpt lat="45.815481" lon="9.426668"><time>2024-03-23T12:37:53.000Z</time><ele>428.4</ele></trkpt><trkpt lat="45.815482" lon="9.426662"><time>2024-03-23T12:37:54.000Z</time><ele>428.6</ele></trkpt><trkpt lat="45.815482" lon="9.42666"><time>2024-03-23T12:37:55.000Z</time><ele>428.6</ele></trkpt><trkpt lat="45.815481" lon="9.42666"><time>2024-03-23T12:37:56.000Z</time><ele>428.6</ele></trkpt><trkpt lat="45.815481" lon="9.426661"><time>2024-03-23T12:37:57.000Z</time><ele>428.8</ele></trkpt><trkpt lat="45.815481" lon="9.42666"><time>2024-03-23T12:37:58.000Z</time><ele>428.8</ele></trkpt><trkpt lat="45.815482" lon="9.42666"><time>2024-03-23T12:37:59.000Z</time><ele>428.8</ele></trkpt><trkpt lat="45.815484" lon="9.42666"><time>2024-03-23T12:38:00.000Z</time><ele>429</ele></trkpt><trkpt lat="45.815483" lon="9.426657"><time>2024-03-23T12:38:01.000Z</time><ele>429</ele></trkpt><trkpt lat="45.815482" lon="9.426653"><time>2024-03-23T12:38:02.000Z</time><ele>429</ele></trkpt><trkpt lat="45.81548" lon="9.426645"><time>2024-03-23T12:38:03.000Z</time><ele>429</ele></trkpt><trkpt lat="45.81548" lon="9.426636"><time>2024-03-23T12:38:04.000Z</time><ele>429</ele></trkpt><trkpt lat="45.815477" lon="9.426625"><time>2024-03-23T12:38:05.000Z</time><ele>429</ele></trkpt><trkpt lat="45.815471" lon="9.426611"><time>2024-03-23T12:38:06.000Z</time><ele>429.2</ele></trkpt><trkpt lat="45.815471" lon="9.426599"><time>2024-03-23T12:38:07.000Z</time><ele>429.2</ele></trkpt><trkpt lat="45.815473" lon="9.426589"><time>2024-03-23T12:38:08.000Z</time><ele>429.4</ele></trkpt><trkpt lat="45.815473" lon="9.426578"><time>2024-03-23T12:38:09.000Z</time><ele>429.6</ele></trkpt><trkpt lat="45.815471" lon="9.426567"><time>2024-03-23T12:38:10.000Z</time><ele>429.6</ele></trkpt><trkpt lat="45.81547" lon="9.426551"><time>2024-03-23T12:38:11.000Z</time><ele>429.8</ele></trkpt><trkpt lat="45.815468" lon="9.426541"><time>2024-03-23T12:38:12.000Z</time><ele>429.8</ele></trkpt><trkpt lat="45.815466" lon="9.42653"><time>2024-03-23T12:38:13.000Z</time><ele>430</ele></trkpt><trkpt lat="45.815463" lon="9.426523"><time>2024-03-23T12:38:14.000Z</time><ele>430</ele></trkpt><trkpt lat="45.815458" lon="9.426515"><time>2024-03-23T12:38:15.000Z</time><ele>430.2</ele></trkpt><trkpt lat="45.815455" lon="9.426507"><time>2024-03-23T12:38:16.000Z</time><ele>430.4</ele></trkpt><trkpt lat="45.815454" lon="9.426499"><time>2024-03-23T12:38:17.000Z</time><ele>430.6</ele></trkpt><trkpt lat="45.815453" lon="9.426498"><time>2024-03-23T12:38:18.000Z</time><ele>430.8</ele></trkpt><trkpt lat="45.815455" lon="9.426501"><time>2024-03-23T12:38:19.000Z</time><ele>431</ele></trkpt><trkpt lat="45.815454" lon="9.426499"><time>2024-03-23T12:38:20.000Z</time><ele>431</ele></trkpt><trkpt lat="45.815454" lon="9.426497"><time>2024-03-23T12:38:21.000Z</time><ele>431.2</ele></trkpt><trkpt lat="45.815453" lon="9.426495"><time>2024-03-23T12:38:22.000Z</time><ele>431.2</ele></trkpt><trkpt lat="45.815447" lon="9.426505"><time>2024-03-23T12:38:23.000Z</time><ele>431.4</ele></trkpt><trkpt lat="45.815446" lon="9.426511"><time>2024-03-23T12:38:24.000Z</time><ele>431.4</ele></trkpt><trkpt lat="45.815444" lon="9.426514"><time>2024-03-23T12:38:25.000Z</time><ele>431.4</ele></trkpt><trkpt lat="45.815443" lon="9.426516"><time>2024-03-23T12:38:26.000Z</time><ele>431.4</ele></trkpt><trkpt lat="45.815443" lon="9.426516"><time>2024-03-23T12:38:27.000Z</time><ele>431.4</ele></trkpt><trkpt lat="45.815443" lon="9.426516"><time>2024-03-23T12:38:28.000Z</time><ele>431.4</ele></trkpt><trkpt lat="45.815443" lon="9.426516"><time>2024-03-23T12:38:29.000Z</time><ele>431.4</ele></trkpt><trkpt lat="45.815443" lon="9.426516"><time>2024-03-23T12:38:30.000Z</time><ele>431.4</ele></trkpt><trkpt lat="45.815443" lon="9.426516"><time>2024-03-23T12:38:31.000Z</time><ele>431.4</ele></trkpt><trkpt lat="45.815443" lon="9.426516"><time>2024-03-23T12:38:32.000Z</time><ele>431.4</ele></trkpt><trkpt lat="45.815443" lon="9.426516"><time>2024-03-23T12:38:33.000Z</time><ele>431.4</ele></trkpt><trkpt lat="45.815443" lon="9.426516"><time>2024-03-23T12:38:34.000Z</time><ele>431.4</ele></trkpt><trkpt lat="45.815443" lon="9.426516"><time>2024-03-23T12:38:35.000Z</time><ele>431.4</ele></trkpt><trkpt lat="45.815443" lon="9.426515"><time>2024-03-23T12:38:36.000Z</time><ele>431.4</ele></trkpt><trkpt lat="45.815443" lon="9.426515"><time>2024-03-23T12:38:37.000Z</time><ele>431.4</ele></trkpt><trkpt lat="45.815443" lon="9.426515"><time>2024-03-23T12:38:38.000Z</time><ele>431.4</ele></trkpt><trkpt lat="45.815443" lon="9.426514"><time>2024-03-23T12:38:39.000Z</time><ele>431.6</ele></trkpt><trkpt lat="45.815443" lon="9.426514"><time>2024-03-23T12:38:40.000Z</time><ele>431.6</ele></trkpt><trkpt lat="45.815443" lon="9.426514"><time>2024-03-23T12:38:41.000Z</time><ele>431.8</ele></trkpt><trkpt lat="45.815443" lon="9.426514"><time>2024-03-23T12:38:42.000Z</time><ele>432</ele></trkpt><trkpt lat="45.815443" lon="9.426514"><time>2024-03-23T12:38:43.000Z</time><ele>432.2</ele></trkpt><trkpt lat="45.815443" lon="9.426513"><time>2024-03-23T12:38:44.000Z</time><ele>432.4</ele></trkpt><trkpt lat="45.815443" lon="9.426512"><time>2024-03-23T12:38:45.000Z</time><ele>432.6</ele></trkpt><trkpt lat="45.815443" lon="9.426511"><time>2024-03-23T12:38:46.000Z</time><ele>432.8</ele></trkpt><trkpt lat="45.815443" lon="9.426509"><time>2024-03-23T12:38:47.000Z</time><ele>433</ele></trkpt><trkpt lat="45.815443" lon="9.426505"><time>2024-03-23T12:38:48.000Z</time><ele>433.4</ele></trkpt><trkpt lat="45.815442" lon="9.426505"><time>2024-03-23T12:38:49.000Z</time><ele>433.4</ele></trkpt><trkpt lat="45.815441" lon="9.426505"><time>2024-03-23T12:38:50.000Z</time><ele>433.6</ele></trkpt><trkpt lat="45.815441" lon="9.426505"><time>2024-03-23T12:38:51.000Z</time><ele>433.8</ele></trkpt><trkpt lat="45.81544" lon="9.426505"><time>2024-03-23T12:38:52.000Z</time><ele>434</ele></trkpt><trkpt lat="45.815439" lon="9.426503"><time>2024-03-23T12:38:53.000Z</time><ele>434.4</ele></trkpt><trkpt lat="45.815439" lon="9.426494"><time>2024-03-23T12:38:54.000Z</time><ele>434.6</ele></trkpt><trkpt lat="45.815439" lon="9.426488"><time>2024-03-23T12:38:55.000Z</time><ele>434.8</ele></trkpt><trkpt lat="45.815434" lon="9.426478"><time>2024-03-23T12:38:56.000Z</time><ele>435</ele></trkpt><trkpt lat="45.815422" lon="9.42646"><time>2024-03-23T12:38:57.000Z</time><ele>435</ele></trkpt><trkpt lat="45.815409" lon="9.426443"><time>2024-03-23T12:38:58.000Z</time><ele>435.2</ele></trkpt><trkpt lat="45.815398" lon="9.426429"><time>2024-03-23T12:38:59.000Z</time><ele>435.2</ele></trkpt><trkpt lat="45.815388" lon="9.426412"><time>2024-03-23T12:39:00.000Z</time><ele>435.2</ele></trkpt><trkpt lat="45.815376" lon="9.426398"><time>2024-03-23T12:39:01.000Z</time><ele>435.4</ele></trkpt><trkpt lat="45.815362" lon="9.426384"><time>2024-03-23T12:39:02.000Z</time><ele>435.4</ele></trkpt><trkpt lat="45.815351" lon="9.426374"><time>2024-03-23T12:39:03.000Z</time><ele>435.4</ele></trkpt><trkpt lat="45.815339" lon="9.42636"><time>2024-03-23T12:39:04.000Z</time><ele>435.4</ele></trkpt><trkpt lat="45.815326" lon="9.426343"><time>2024-03-23T12:39:05.000Z</time><ele>435.4</ele></trkpt><trkpt lat="45.815319" lon="9.426337"><time>2024-03-23T12:39:06.000Z</time><ele>435.6</ele></trkpt><trkpt lat="45.81531" lon="9.426337"><time>2024-03-23T12:39:07.000Z</time><ele>435.6</ele></trkpt><trkpt lat="45.815305" lon="9.42634"><time>2024-03-23T12:39:08.000Z</time><ele>435.6</ele></trkpt><trkpt lat="45.815302" lon="9.426342"><time>2024-03-23T12:39:09.000Z</time><ele>435.6</ele></trkpt><trkpt lat="45.8153" lon="9.426344"><time>2024-03-23T12:39:10.000Z</time><ele>435.6</ele></trkpt><trkpt lat="45.8153" lon="9.426344"><time>2024-03-23T12:39:11.000Z</time><ele>435.6</ele></trkpt><trkpt lat="45.815299" lon="9.426344"><time>2024-03-23T12:39:12.000Z</time><ele>435.8</ele></trkpt><trkpt lat="45.8153" lon="9.426344"><time>2024-03-23T12:39:13.000Z</time><ele>436</ele></trkpt><trkpt lat="45.8153" lon="9.426343"><time>2024-03-23T12:39:14.000Z</time><ele>436</ele></trkpt><trkpt lat="45.8153" lon="9.426342"><time>2024-03-23T12:39:15.000Z</time><ele>436.2</ele></trkpt><trkpt lat="45.815299" lon="9.426342"><time>2024-03-23T12:39:16.000Z</time><ele>436.2</ele></trkpt><trkpt lat="45.815297" lon="9.426341"><time>2024-03-23T12:39:17.000Z</time><ele>436.2</ele></trkpt><trkpt lat="45.815296" lon="9.426341"><time>2024-03-23T12:39:18.000Z</time><ele>436.2</ele></trkpt><trkpt lat="45.815294" lon="9.426341"><time>2024-03-23T12:39:19.000Z</time><ele>436.2</ele></trkpt><trkpt lat="45.815291" lon="9.426346"><time>2024-03-23T12:39:20.000Z</time><ele>436.2</ele></trkpt><trkpt lat="45.815289" lon="9.426348"><time>2024-03-23T12:39:21.000Z</time><ele>436.2</ele></trkpt><trkpt lat="45.815287" lon="9.42635"><time>2024-03-23T12:39:22.000Z</time><ele>436</ele></trkpt><trkpt lat="45.815282" lon="9.426355"><time>2024-03-23T12:39:23.000Z</time><ele>436</ele></trkpt><trkpt lat="45.81528" lon="9.426356"><time>2024-03-23T12:39:24.000Z</time><ele>436</ele></trkpt><trkpt lat="45.81528" lon="9.426356"><time>2024-03-23T12:39:25.000Z</time><ele>436</ele></trkpt><trkpt lat="45.81528" lon="9.426356"><time>2024-03-23T12:39:26.000Z</time><ele>436</ele></trkpt><trkpt lat="45.81528" lon="9.426356"><time>2024-03-23T12:39:27.000Z</time><ele>436</ele></trkpt><trkpt lat="45.81528" lon="9.426356"><time>2024-03-23T12:39:28.000Z</time><ele>436</ele></trkpt><trkpt lat="45.81528" lon="9.426356"><time>2024-03-23T12:39:29.000Z</time><ele>436</ele></trkpt><trkpt lat="45.81528" lon="9.426356"><time>2024-03-23T12:39:30.000Z</time><ele>436</ele></trkpt><trkpt lat="45.81528" lon="9.426356"><time>2024-03-23T12:39:31.000Z</time><ele>436</ele></trkpt><trkpt lat="45.81528" lon="9.426356"><time>2024-03-23T12:39:32.000Z</time><ele>436</ele></trkpt><trkpt lat="45.81528" lon="9.426356"><time>2024-03-23T12:39:33.000Z</time><ele>436</ele></trkpt><trkpt lat="45.81528" lon="9.426356"><time>2024-03-23T12:39:34.000Z</time><ele>436</ele></trkpt><trkpt lat="45.81528" lon="9.426356"><time>2024-03-23T12:39:35.000Z</time><ele>436</ele></trkpt><trkpt lat="45.81528" lon="9.426356"><time>2024-03-23T12:39:36.000Z</time><ele>436</ele></trkpt><trkpt lat="45.81528" lon="9.426356"><time>2024-03-23T12:39:37.000Z</time><ele>436</ele></trkpt><trkpt lat="45.81528" lon="9.426356"><time>2024-03-23T12:39:38.000Z</time><ele>436.2</ele></trkpt><trkpt lat="45.81528" lon="9.426356"><time>2024-03-23T12:39:39.000Z</time><ele>436.2</ele></trkpt><trkpt lat="45.81528" lon="9.426363"><time>2024-03-23T12:39:40.000Z</time><ele>436.4</ele></trkpt><trkpt lat="45.815278" lon="9.426377"><time>2024-03-23T12:39:41.000Z</time><ele>436.6</ele></trkpt><trkpt lat="45.815275" lon="9.426392"><time>2024-03-23T12:39:42.000Z</time><ele>436.6</ele></trkpt><trkpt lat="45.815273" lon="9.426409"><time>2024-03-23T12:39:43.000Z</time><ele>436.8</ele></trkpt><trkpt lat="45.815271" lon="9.426424"><time>2024-03-23T12:39:44.000Z</time><ele>437</ele></trkpt><trkpt lat="45.81527" lon="9.426438"><time>2024-03-23T12:39:45.000Z</time><ele>437</ele></trkpt><trkpt lat="45.815269" lon="9.426453"><time>2024-03-23T12:39:46.000Z</time><ele>437.2</ele></trkpt><trkpt lat="45.815265" lon="9.426464"><time>2024-03-23T12:39:47.000Z</time><ele>437.2</ele></trkpt><trkpt lat="45.815263" lon="9.42648"><time>2024-03-23T12:39:48.000Z</time><ele>437.4</ele></trkpt><trkpt lat="45.815261" lon="9.426496"><time>2024-03-23T12:39:49.000Z</time><ele>437.4</ele></trkpt><trkpt lat="45.815258" lon="9.426504"><time>2024-03-23T12:39:50.000Z</time><ele>437.6</ele></trkpt><trkpt lat="45.815254" lon="9.426517"><time>2024-03-23T12:39:51.000Z</time><ele>437.8</ele></trkpt><trkpt lat="45.81525" lon="9.42653"><time>2024-03-23T12:39:52.000Z</time><ele>438.2</ele></trkpt><trkpt lat="45.815246" lon="9.426541"><time>2024-03-23T12:39:53.000Z</time><ele>438.2</ele></trkpt><trkpt lat="45.815243" lon="9.426554"><time>2024-03-23T12:39:54.000Z</time><ele>438.4</ele></trkpt><trkpt lat="45.815239" lon="9.426567"><time>2024-03-23T12:39:55.000Z</time><ele>438.4</ele></trkpt><trkpt lat="45.815234" lon="9.426576"><time>2024-03-23T12:39:56.000Z</time><ele>438.4</ele></trkpt><trkpt lat="45.815229" lon="9.426584"><time>2024-03-23T12:39:57.000Z</time><ele>438.6</ele></trkpt><trkpt lat="45.815223" lon="9.42659"><time>2024-03-23T12:39:58.000Z</time><ele>438.6</ele></trkpt><trkpt lat="45.81522" lon="9.426597"><time>2024-03-23T12:39:59.000Z</time><ele>438.6</ele></trkpt><trkpt lat="45.815217" lon="9.426605"><time>2024-03-23T12:40:00.000Z</time><ele>438.8</ele></trkpt><trkpt lat="45.815213" lon="9.426614"><time>2024-03-23T12:40:01.000Z</time><ele>439</ele></trkpt><trkpt lat="45.815209" lon="9.426626"><time>2024-03-23T12:40:02.000Z</time><ele>439</ele></trkpt><trkpt lat="45.815205" lon="9.426634"><time>2024-03-23T12:40:03.000Z</time><ele>439.2</ele></trkpt><trkpt lat="45.815204" lon="9.426639"><time>2024-03-23T12:40:04.000Z</time><ele>439.2</ele></trkpt><trkpt lat="45.815205" lon="9.42664"><time>2024-03-23T12:40:05.000Z</time><ele>439.2</ele></trkpt><trkpt lat="45.815205" lon="9.42664"><time>2024-03-23T12:40:06.000Z</time><ele>439.4</ele></trkpt><trkpt lat="45.815207" lon="9.426641"><time>2024-03-23T12:40:07.000Z</time><ele>439.4</ele></trkpt><trkpt lat="45.815207" lon="9.426642"><time>2024-03-23T12:40:08.000Z</time><ele>439.4</ele></trkpt><trkpt lat="45.815208" lon="9.426642"><time>2024-03-23T12:40:09.000Z</time><ele>439.4</ele></trkpt><trkpt lat="45.815208" lon="9.426642"><time>2024-03-23T12:40:10.000Z</time><ele>439.4</ele></trkpt><trkpt lat="45.815207" lon="9.426637"><time>2024-03-23T12:40:11.000Z</time><ele>439.4</ele></trkpt><trkpt lat="45.815207" lon="9.426638"><time>2024-03-23T12:40:12.000Z</time><ele>439.2</ele></trkpt><trkpt lat="45.815207" lon="9.426638"><time>2024-03-23T12:40:13.000Z</time><ele>439.2</ele></trkpt><trkpt lat="45.815206" lon="9.42664"><time>2024-03-23T12:40:14.000Z</time><ele>439.2</ele></trkpt><trkpt lat="45.815207" lon="9.426643"><time>2024-03-23T12:40:15.000Z</time><ele>439.2</ele></trkpt><trkpt lat="45.815207" lon="9.426643"><time>2024-03-23T12:40:16.000Z</time><ele>439.2</ele></trkpt><trkpt lat="45.815206" lon="9.426641"><time>2024-03-23T12:40:17.000Z</time><ele>439</ele></trkpt><trkpt lat="45.815207" lon="9.426641"><time>2024-03-23T12:40:18.000Z</time><ele>439</ele></trkpt><trkpt lat="45.815207" lon="9.426637"><time>2024-03-23T12:40:19.000Z</time><ele>438.8</ele></trkpt><trkpt lat="45.815207" lon="9.426637"><time>2024-03-23T12:40:20.000Z</time><ele>438.8</ele></trkpt><trkpt lat="45.815207" lon="9.426637"><time>2024-03-23T12:40:21.000Z</time><ele>438.8</ele></trkpt><trkpt lat="45.815207" lon="9.426637"><time>2024-03-23T12:40:22.000Z</time><ele>439.2</ele></trkpt><trkpt lat="45.815207" lon="9.426637"><time>2024-03-23T12:40:23.000Z</time><ele>439.4</ele></trkpt><trkpt lat="45.815207" lon="9.426637"><time>2024-03-23T12:40:24.000Z</time><ele>439.6</ele></trkpt><trkpt lat="45.815207" lon="9.426637"><time>2024-03-23T12:40:25.000Z</time><ele>439.6</ele></trkpt><trkpt lat="45.815207" lon="9.426637"><time>2024-03-23T12:40:26.000Z</time><ele>439.6</ele></trkpt><trkpt lat="45.815207" lon="9.426637"><time>2024-03-23T12:40:27.000Z</time><ele>439.6</ele></trkpt><trkpt lat="45.815207" lon="9.426637"><time>2024-03-23T12:40:28.000Z</time><ele>439.6</ele></trkpt><trkpt lat="45.815207" lon="9.426637"><time>2024-03-23T12:40:29.000Z</time><ele>439.4</ele></trkpt><trkpt lat="45.815207" lon="9.426637"><time>2024-03-23T12:40:30.000Z</time><ele>439.4</ele></trkpt><trkpt lat="45.815207" lon="9.426637"><time>2024-03-23T12:40:31.000Z</time><ele>439.4</ele></trkpt><trkpt lat="45.815207" lon="9.426637"><time>2024-03-23T12:40:32.000Z</time><ele>439.6</ele></trkpt><trkpt lat="45.815207" lon="9.426637"><time>2024-03-23T12:40:33.000Z</time><ele>439.6</ele></trkpt><trkpt lat="45.815207" lon="9.426637"><time>2024-03-23T12:40:34.000Z</time><ele>439.6</ele></trkpt><trkpt lat="45.815207" lon="9.426637"><time>2024-03-23T12:40:35.000Z</time><ele>439.6</ele></trkpt><trkpt lat="45.815207" lon="9.426637"><time>2024-03-23T12:40:36.000Z</time><ele>439.6</ele></trkpt><trkpt lat="45.815207" lon="9.426637"><time>2024-03-23T12:40:37.000Z</time><ele>439.6</ele></trkpt><trkpt lat="45.815207" lon="9.426637"><time>2024-03-23T12:40:38.000Z</time><ele>439.6</ele></trkpt><trkpt lat="45.815207" lon="9.426637"><time>2024-03-23T12:40:39.000Z</time><ele>439.6</ele></trkpt><trkpt lat="45.815207" lon="9.426637"><time>2024-03-23T12:40:40.000Z</time><ele>439.4</ele></trkpt><trkpt lat="45.815207" lon="9.426637"><time>2024-03-23T12:40:41.000Z</time><ele>439.4</ele></trkpt><trkpt lat="45.815207" lon="9.426637"><time>2024-03-23T12:40:42.000Z</time><ele>439.4</ele></trkpt><trkpt lat="45.815207" lon="9.426637"><time>2024-03-23T12:40:43.000Z</time><ele>439.6</ele></trkpt><trkpt lat="45.815207" lon="9.426637"><time>2024-03-23T12:40:44.000Z</time><ele>439.6</ele></trkpt><trkpt lat="45.815207" lon="9.426637"><time>2024-03-23T12:40:45.000Z</time><ele>439.6</ele></trkpt><trkpt lat="45.815207" lon="9.426637"><time>2024-03-23T12:40:46.000Z</time><ele>439.6</ele></trkpt><trkpt lat="45.815207" lon="9.426637"><time>2024-03-23T12:40:47.000Z</time><ele>439.4</ele></trkpt><trkpt lat="45.815207" lon="9.426637"><time>2024-03-23T12:40:48.000Z</time><ele>439.4</ele></trkpt><trkpt lat="45.815207" lon="9.426637"><time>2024-03-23T12:40:49.000Z</time><ele>439.4</ele></trkpt><trkpt lat="45.815207" lon="9.426637"><time>2024-03-23T12:40:50.000Z</time><ele>439.4</ele></trkpt><trkpt lat="45.815207" lon="9.426637"><time>2024-03-23T12:40:51.000Z</time><ele>439.2</ele></trkpt><trkpt lat="45.815207" lon="9.426637"><time>2024-03-23T12:40:52.000Z</time><ele>439.2</ele></trkpt><trkpt lat="45.815207" lon="9.426637"><time>2024-03-23T12:40:53.000Z</time><ele>439</ele></trkpt><trkpt lat="45.815208" lon="9.426637"><time>2024-03-23T12:40:54.000Z</time><ele>438.8</ele></trkpt><trkpt lat="45.815208" lon="9.426637"><time>2024-03-23T12:40:55.000Z</time><ele>438.8</ele></trkpt><trkpt lat="45.815208" lon="9.426638"><time>2024-03-23T12:40:56.000Z</time><ele>438.8</ele></trkpt><trkpt lat="45.815208" lon="9.426638"><time>2024-03-23T12:40:57.000Z</time><ele>438.8</ele></trkpt><trkpt lat="45.815208" lon="9.426638"><time>2024-03-23T12:40:58.000Z</time><ele>438.8</ele></trkpt><trkpt lat="45.815208" lon="9.426638"><time>2024-03-23T12:40:59.000Z</time><ele>438.8</ele></trkpt><trkpt lat="45.815208" lon="9.426638"><time>2024-03-23T12:41:00.000Z</time><ele>438.8</ele></trkpt><trkpt lat="45.815209" lon="9.426638"><time>2024-03-23T12:41:01.000Z</time><ele>438.8</ele></trkpt><trkpt lat="45.81521" lon="9.426647"><time>2024-03-23T12:41:02.000Z</time><ele>438.8</ele></trkpt><trkpt lat="45.815209" lon="9.426664"><time>2024-03-23T12:41:03.000Z</time><ele>439</ele></trkpt><trkpt lat="45.815206" lon="9.426685"><time>2024-03-23T12:41:04.000Z</time><ele>439</ele></trkpt><trkpt lat="45.815202" lon="9.426702"><time>2024-03-23T12:41:05.000Z</time><ele>439</ele></trkpt><trkpt lat="45.8152" lon="9.426721"><time>2024-03-23T12:41:06.000Z</time><ele>439.2</ele></trkpt><trkpt lat="45.815198" lon="9.426741"><time>2024-03-23T12:41:07.000Z</time><ele>439.2</ele></trkpt><trkpt lat="45.815198" lon="9.426756"><time>2024-03-23T12:41:08.000Z</time><ele>439.2</ele></trkpt><trkpt lat="45.815199" lon="9.426768"><time>2024-03-23T12:41:09.000Z</time><ele>439.4</ele></trkpt><trkpt lat="45.8152" lon="9.42678"><time>2024-03-23T12:41:10.000Z</time><ele>439.4</ele></trkpt><trkpt lat="45.8152" lon="9.426789"><time>2024-03-23T12:41:11.000Z</time><ele>439.6</ele></trkpt><trkpt lat="45.815199" lon="9.426788"><time>2024-03-23T12:41:12.000Z</time><ele>439.6</ele></trkpt><trkpt lat="45.815198" lon="9.426789"><time>2024-03-23T12:41:13.000Z</time><ele>439.6</ele></trkpt><trkpt lat="45.815198" lon="9.426788"><time>2024-03-23T12:41:14.000Z</time><ele>439.4</ele></trkpt><trkpt lat="45.815199" lon="9.426788"><time>2024-03-23T12:41:15.000Z</time><ele>439.4</ele></trkpt><trkpt lat="45.815198" lon="9.426787"><time>2024-03-23T12:41:16.000Z</time><ele>439.2</ele></trkpt><trkpt lat="45.815199" lon="9.426787"><time>2024-03-23T12:41:17.000Z</time><ele>439.2</ele></trkpt><trkpt lat="45.815201" lon="9.426788"><time>2024-03-23T12:41:18.000Z</time><ele>439.2</ele></trkpt><trkpt lat="45.815203" lon="9.426791"><time>2024-03-23T12:41:19.000Z</time><ele>439.2</ele></trkpt><trkpt lat="45.815201" lon="9.426793"><time>2024-03-23T12:41:20.000Z</time><ele>439.2</ele></trkpt><trkpt lat="45.815197" lon="9.426796"><time>2024-03-23T12:41:21.000Z</time><ele>439.2</ele></trkpt><trkpt lat="45.815193" lon="9.4268"><time>2024-03-23T12:41:22.000Z</time><ele>439.2</ele></trkpt><trkpt lat="45.81519" lon="9.426808"><time>2024-03-23T12:41:23.000Z</time><ele>439.2</ele></trkpt><trkpt lat="45.81519" lon="9.426814"><time>2024-03-23T12:41:24.000Z</time><ele>439.2</ele></trkpt><trkpt lat="45.815188" lon="9.42682"><time>2024-03-23T12:41:25.000Z</time><ele>439.2</ele></trkpt><trkpt lat="45.815187" lon="9.426825"><time>2024-03-23T12:41:26.000Z</time><ele>439.2</ele></trkpt><trkpt lat="45.815185" lon="9.426831"><time>2024-03-23T12:41:27.000Z</time><ele>439.2</ele></trkpt><trkpt lat="45.815181" lon="9.426841"><time>2024-03-23T12:41:28.000Z</time><ele>439.2</ele></trkpt><trkpt lat="45.81518" lon="9.426852"><time>2024-03-23T12:41:29.000Z</time><ele>439.2</ele></trkpt><trkpt lat="45.81518" lon="9.426861"><time>2024-03-23T12:41:30.000Z</time><ele>439.2</ele></trkpt><trkpt lat="45.815178" lon="9.426868"><time>2024-03-23T12:41:31.000Z</time><ele>439.2</ele></trkpt><trkpt lat="45.815176" lon="9.426872"><time>2024-03-23T12:41:32.000Z</time><ele>439.2</ele></trkpt><trkpt lat="45.815174" lon="9.426874"><time>2024-03-23T12:41:33.000Z</time><ele>439.2</ele></trkpt><trkpt lat="45.815172" lon="9.426875"><time>2024-03-23T12:41:34.000Z</time><ele>439.2</ele></trkpt><trkpt lat="45.815172" lon="9.426875"><time>2024-03-23T12:41:35.000Z</time><ele>439.4</ele></trkpt><trkpt lat="45.815171" lon="9.426876"><time>2024-03-23T12:41:36.000Z</time><ele>439.8</ele></trkpt><trkpt lat="45.81517" lon="9.426876"><time>2024-03-23T12:41:37.000Z</time><ele>440</ele></trkpt><trkpt lat="45.81517" lon="9.426876"><time>2024-03-23T12:41:38.000Z</time><ele>440</ele></trkpt><trkpt lat="45.81517" lon="9.426876"><time>2024-03-23T12:41:39.000Z</time><ele>440.2</ele></trkpt><trkpt lat="45.815169" lon="9.426877"><time>2024-03-23T12:41:40.000Z</time><ele>440.2</ele></trkpt><trkpt lat="45.81517" lon="9.426877"><time>2024-03-23T12:41:41.000Z</time><ele>440.2</ele></trkpt><trkpt lat="45.81517" lon="9.426877"><time>2024-03-23T12:41:42.000Z</time><ele>440.2</ele></trkpt><trkpt lat="45.81517" lon="9.426877"><time>2024-03-23T12:41:43.000Z</time><ele>440.2</ele></trkpt><trkpt lat="45.81517" lon="9.426877"><time>2024-03-23T12:41:44.000Z</time><ele>440.2</ele></trkpt><trkpt lat="45.81517" lon="9.426877"><time>2024-03-23T12:41:45.000Z</time><ele>440</ele></trkpt><trkpt lat="45.81517" lon="9.426877"><time>2024-03-23T12:41:46.000Z</time><ele>439.8</ele></trkpt><trkpt lat="45.81517" lon="9.426877"><time>2024-03-23T12:41:47.000Z</time><ele>439.6</ele></trkpt><trkpt lat="45.81517" lon="9.426877"><time>2024-03-23T12:41:48.000Z</time><ele>439.4</ele></trkpt><trkpt lat="45.81517" lon="9.426877"><time>2024-03-23T12:41:49.000Z</time><ele>439.4</ele></trkpt><trkpt lat="45.81517" lon="9.426877"><time>2024-03-23T12:41:50.000Z</time><ele>439.2</ele></trkpt><trkpt lat="45.81517" lon="9.426877"><time>2024-03-23T12:41:51.000Z</time><ele>439.2</ele></trkpt><trkpt lat="45.81517" lon="9.426877"><time>2024-03-23T12:41:52.000Z</time><ele>439</ele></trkpt><trkpt lat="45.81517" lon="9.426877"><time>2024-03-23T12:41:53.000Z</time><ele>439</ele></trkpt><trkpt lat="45.81517" lon="9.426877"><time>2024-03-23T12:41:54.000Z</time><ele>439</ele></trkpt><trkpt lat="45.81517" lon="9.426877"><time>2024-03-23T12:41:55.000Z</time><ele>439</ele></trkpt><trkpt lat="45.81517" lon="9.426877"><time>2024-03-23T12:41:56.000Z</time><ele>439</ele></trkpt><trkpt lat="45.81517" lon="9.426877"><time>2024-03-23T12:41:57.000Z</time><ele>439</ele></trkpt><trkpt lat="45.81517" lon="9.426877"><time>2024-03-23T12:41:58.000Z</time><ele>439</ele></trkpt><trkpt lat="45.81517" lon="9.426877"><time>2024-03-23T12:41:59.000Z</time><ele>439</ele></trkpt><trkpt lat="45.81517" lon="9.426877"><time>2024-03-23T12:42:00.000Z</time><ele>439</ele></trkpt><trkpt lat="45.81517" lon="9.426877"><time>2024-03-23T12:42:01.000Z</time><ele>439.2</ele></trkpt><trkpt lat="45.81517" lon="9.426877"><time>2024-03-23T12:42:02.000Z</time><ele>439.2</ele></trkpt><trkpt lat="45.81517" lon="9.426877"><time>2024-03-23T12:42:03.000Z</time><ele>439.2</ele></trkpt><trkpt lat="45.815171" lon="9.426883"><time>2024-03-23T12:42:04.000Z</time><ele>439.2</ele></trkpt><trkpt lat="45.815173" lon="9.426899"><time>2024-03-23T12:42:05.000Z</time><ele>439.2</ele></trkpt><trkpt lat="45.815175" lon="9.426918"><time>2024-03-23T12:42:06.000Z</time><ele>439.2</ele></trkpt><trkpt lat="45.815177" lon="9.426935"><time>2024-03-23T12:42:07.000Z</time><ele>439.2</ele></trkpt><trkpt lat="45.815177" lon="9.426949"><time>2024-03-23T12:42:08.000Z</time><ele>439.2</ele></trkpt><trkpt lat="45.815178" lon="9.426967"><time>2024-03-23T12:42:09.000Z</time><ele>439.2</ele></trkpt><trkpt lat="45.81518" lon="9.426985"><time>2024-03-23T12:42:10.000Z</time><ele>439.2</ele></trkpt><trkpt lat="45.815183" lon="9.427"><time>2024-03-23T12:42:11.000Z</time><ele>439.2</ele></trkpt><trkpt lat="45.815188" lon="9.42701"><time>2024-03-23T12:42:12.000Z</time><ele>439.2</ele></trkpt><trkpt lat="45.815191" lon="9.427015"><time>2024-03-23T12:42:13.000Z</time><ele>439</ele></trkpt><trkpt lat="45.815191" lon="9.427013"><time>2024-03-23T12:42:14.000Z</time><ele>439</ele></trkpt><trkpt lat="45.815193" lon="9.427013"><time>2024-03-23T12:42:15.000Z</time><ele>439</ele></trkpt><trkpt lat="45.815194" lon="9.427016"><time>2024-03-23T12:42:16.000Z</time><ele>439</ele></trkpt><trkpt lat="45.815194" lon="9.427016"><time>2024-03-23T12:42:17.000Z</time><ele>439</ele></trkpt><trkpt lat="45.815196" lon="9.427018"><time>2024-03-23T12:42:18.000Z</time><ele>439</ele></trkpt><trkpt lat="45.815199" lon="9.427021"><time>2024-03-23T12:42:19.000Z</time><ele>439.2</ele></trkpt><trkpt lat="45.815201" lon="9.427028"><time>2024-03-23T12:42:20.000Z</time><ele>439.2</ele></trkpt><trkpt lat="45.815201" lon="9.427031"><time>2024-03-23T12:42:21.000Z</time><ele>439.2</ele></trkpt><trkpt lat="45.8152" lon="9.427034"><time>2024-03-23T12:42:22.000Z</time><ele>439.4</ele></trkpt><trkpt lat="45.815201" lon="9.427035"><time>2024-03-23T12:42:23.000Z</time><ele>439.4</ele></trkpt><trkpt lat="45.815201" lon="9.427034"><time>2024-03-23T12:42:24.000Z</time><ele>439.4</ele></trkpt><trkpt lat="45.8152" lon="9.427032"><time>2024-03-23T12:42:25.000Z</time><ele>439.4</ele></trkpt><trkpt lat="45.815201" lon="9.427034"><time>2024-03-23T12:42:26.000Z</time><ele>439.4</ele></trkpt><trkpt lat="45.815202" lon="9.427036"><time>2024-03-23T12:42:27.000Z</time><ele>439.4</ele></trkpt><trkpt lat="45.815204" lon="9.427036"><time>2024-03-23T12:42:28.000Z</time><ele>439.4</ele></trkpt><trkpt lat="45.815204" lon="9.427038"><time>2024-03-23T12:42:29.000Z</time><ele>439.4</ele></trkpt><trkpt lat="45.815203" lon="9.427044"><time>2024-03-23T12:42:30.000Z</time><ele>439.4</ele></trkpt><trkpt lat="45.815201" lon="9.427047"><time>2024-03-23T12:42:31.000Z</time><ele>439.4</ele></trkpt><trkpt lat="45.8152" lon="9.427051"><time>2024-03-23T12:42:32.000Z</time><ele>439.6</ele></trkpt><trkpt lat="45.815196" lon="9.427057"><time>2024-03-23T12:42:33.000Z</time><ele>439.6</ele></trkpt><trkpt lat="45.815195" lon="9.427057"><time>2024-03-23T12:42:34.000Z</time><ele>439.6</ele></trkpt><trkpt lat="45.815194" lon="9.427058"><time>2024-03-23T12:42:35.000Z</time><ele>439.6</ele></trkpt><trkpt lat="45.815193" lon="9.42706"><time>2024-03-23T12:42:36.000Z</time><ele>439.6</ele></trkpt><trkpt lat="45.815191" lon="9.427062"><time>2024-03-23T12:42:37.000Z</time><ele>439.6</ele></trkpt><trkpt lat="45.815191" lon="9.427067"><time>2024-03-23T12:42:38.000Z</time><ele>439.2</ele></trkpt><trkpt lat="45.815193" lon="9.427072"><time>2024-03-23T12:42:39.000Z</time><ele>439.2</ele></trkpt><trkpt lat="45.815197" lon="9.427076"><time>2024-03-23T12:42:40.000Z</time><ele>439</ele></trkpt><trkpt lat="45.815198" lon="9.427074"><time>2024-03-23T12:42:41.000Z</time><ele>439</ele></trkpt><trkpt lat="45.815199" lon="9.427073"><time>2024-03-23T12:42:42.000Z</time><ele>438.8</ele></trkpt><trkpt lat="45.815199" lon="9.427073"><time>2024-03-23T12:42:43.000Z</time><ele>438.8</ele></trkpt><trkpt lat="45.815199" lon="9.427073"><time>2024-03-23T12:42:44.000Z</time><ele>438.8</ele></trkpt><trkpt lat="45.815199" lon="9.427073"><time>2024-03-23T12:42:45.000Z</time><ele>438.8</ele></trkpt><trkpt lat="45.815199" lon="9.427073"><time>2024-03-23T12:42:46.000Z</time><ele>438.8</ele></trkpt><trkpt lat="45.815199" lon="9.427073"><time>2024-03-23T12:42:47.000Z</time><ele>438.8</ele></trkpt><trkpt lat="45.815199" lon="9.427073"><time>2024-03-23T12:42:48.000Z</time><ele>438.8</ele></trkpt><trkpt lat="45.815199" lon="9.427073"><time>2024-03-23T12:42:49.000Z</time><ele>439</ele></trkpt><trkpt lat="45.815199" lon="9.427073"><time>2024-03-23T12:42:50.000Z</time><ele>439</ele></trkpt><trkpt lat="45.815199" lon="9.427073"><time>2024-03-23T12:42:51.000Z</time><ele>439.2</ele></trkpt><trkpt lat="45.815199" lon="9.427072"><time>2024-03-23T12:42:52.000Z</time><ele>439.2</ele></trkpt><trkpt lat="45.815199" lon="9.427069"><time>2024-03-23T12:42:53.000Z</time><ele>439.2</ele></trkpt><trkpt lat="45.815199" lon="9.427068"><time>2024-03-23T12:42:54.000Z</time><ele>439.2</ele></trkpt><trkpt lat="45.815199" lon="9.427068"><time>2024-03-23T12:42:55.000Z</time><ele>439</ele></trkpt><trkpt lat="45.815199" lon="9.427068"><time>2024-03-23T12:42:56.000Z</time><ele>439</ele></trkpt><trkpt lat="45.815199" lon="9.427063"><time>2024-03-23T12:42:57.000Z</time><ele>439</ele></trkpt><trkpt lat="45.8152" lon="9.427055"><time>2024-03-23T12:42:58.000Z</time><ele>439</ele></trkpt><trkpt lat="45.8152" lon="9.427046"><time>2024-03-23T12:42:59.000Z</time><ele>439</ele></trkpt><trkpt lat="45.815201" lon="9.42704"><time>2024-03-23T12:43:00.000Z</time><ele>439</ele></trkpt><trkpt lat="45.8152" lon="9.427034"><time>2024-03-23T12:43:01.000Z</time><ele>439</ele></trkpt><trkpt lat="45.815201" lon="9.427032"><time>2024-03-23T12:43:02.000Z</time><ele>439</ele></trkpt><trkpt lat="45.815201" lon="9.427028"><time>2024-03-23T12:43:03.000Z</time><ele>439</ele></trkpt><trkpt lat="45.815201" lon="9.427028"><time>2024-03-23T12:43:04.000Z</time><ele>439</ele></trkpt><trkpt lat="45.815201" lon="9.427028"><time>2024-03-23T12:43:05.000Z</time><ele>439</ele></trkpt><trkpt lat="45.815201" lon="9.427028"><time>2024-03-23T12:43:06.000Z</time><ele>439</ele></trkpt><trkpt lat="45.815201" lon="9.427028"><time>2024-03-23T12:43:07.000Z</time><ele>439</ele></trkpt><trkpt lat="45.815201" lon="9.427028"><time>2024-03-23T12:43:08.000Z</time><ele>438.8</ele></trkpt><trkpt lat="45.815201" lon="9.427028"><time>2024-03-23T12:43:09.000Z</time><ele>438.6</ele></trkpt><trkpt lat="45.815202" lon="9.427028"><time>2024-03-23T12:43:10.000Z</time><ele>438.4</ele></trkpt><trkpt lat="45.815202" lon="9.427023"><time>2024-03-23T12:43:11.000Z</time><ele>438.4</ele></trkpt><trkpt lat="45.815202" lon="9.42702"><time>2024-03-23T12:43:12.000Z</time><ele>438.4</ele></trkpt><trkpt lat="45.815202" lon="9.427017"><time>2024-03-23T12:43:13.000Z</time><ele>438.2</ele></trkpt><trkpt lat="45.815202" lon="9.427016"><time>2024-03-23T12:43:14.000Z</time><ele>438.4</ele></trkpt><trkpt lat="45.815202" lon="9.427016"><time>2024-03-23T12:43:15.000Z</time><ele>438.4</ele></trkpt><trkpt lat="45.815202" lon="9.427016"><time>2024-03-23T12:43:16.000Z</time><ele>438.4</ele></trkpt><trkpt lat="45.815202" lon="9.427016"><time>2024-03-23T12:43:17.000Z</time><ele>438.4</ele></trkpt><trkpt lat="45.815202" lon="9.427014"><time>2024-03-23T12:43:18.000Z</time><ele>438.4</ele></trkpt><trkpt lat="45.815202" lon="9.427014"><time>2024-03-23T12:43:19.000Z</time><ele>438.4</ele></trkpt><trkpt lat="45.815202" lon="9.427013"><time>2024-03-23T12:43:20.000Z</time><ele>438.4</ele></trkpt><trkpt lat="45.815198" lon="9.427001"><time>2024-03-23T12:43:21.000Z</time><ele>438.2</ele></trkpt><trkpt lat="45.815188" lon="9.426987"><time>2024-03-23T12:43:22.000Z</time><ele>438.2</ele></trkpt><trkpt lat="45.815178" lon="9.42697"><time>2024-03-23T12:43:23.000Z</time><ele>438.2</ele></trkpt><trkpt lat="45.81517" lon="9.426962"><time>2024-03-23T12:43:24.000Z</time><ele>438.2</ele></trkpt><trkpt lat="45.815165" lon="9.426952"><time>2024-03-23T12:43:25.000Z</time><ele>438.2</ele></trkpt><trkpt lat="45.81516" lon="9.426943"><time>2024-03-23T12:43:26.000Z</time><ele>438.2</ele></trkpt><trkpt lat="45.815156" lon="9.426933"><time>2024-03-23T12:43:27.000Z</time><ele>438.2</ele></trkpt><trkpt lat="45.815152" lon="9.426921"><time>2024-03-23T12:43:28.000Z</time><ele>438.2</ele></trkpt><trkpt lat="45.815148" lon="9.42691"><time>2024-03-23T12:43:29.000Z</time><ele>438.2</ele></trkpt><trkpt lat="45.815145" lon="9.4269"><time>2024-03-23T12:43:30.000Z</time><ele>438.2</ele></trkpt><trkpt lat="45.815144" lon="9.426896"><time>2024-03-23T12:43:31.000Z</time><ele>438.2</ele></trkpt><trkpt lat="45.815144" lon="9.426894"><time>2024-03-23T12:43:32.000Z</time><ele>438.2</ele></trkpt><trkpt lat="45.815143" lon="9.426894"><time>2024-03-23T12:43:33.000Z</time><ele>438.2</ele></trkpt><trkpt lat="45.815143" lon="9.426894"><time>2024-03-23T12:43:34.000Z</time><ele>438.2</ele></trkpt><trkpt lat="45.815143" lon="9.426894"><time>2024-03-23T12:43:35.000Z</time><ele>438.2</ele></trkpt><trkpt lat="45.815143" lon="9.426894"><time>2024-03-23T12:43:36.000Z</time><ele>438.2</ele></trkpt><trkpt lat="45.815143" lon="9.426894"><time>2024-03-23T12:43:37.000Z</time><ele>438.2</ele></trkpt><trkpt lat="45.815143" lon="9.426894"><time>2024-03-23T12:43:38.000Z</time><ele>438.2</ele></trkpt><trkpt lat="45.815143" lon="9.426894"><time>2024-03-23T12:43:39.000Z</time><ele>438.2</ele></trkpt><trkpt lat="45.815143" lon="9.426894"><time>2024-03-23T12:43:40.000Z</time><ele>438.2</ele></trkpt><trkpt lat="45.815143" lon="9.426894"><time>2024-03-23T12:43:41.000Z</time><ele>438.2</ele></trkpt><trkpt lat="45.815143" lon="9.426894"><time>2024-03-23T12:43:42.000Z</time><ele>438.2</ele></trkpt><trkpt lat="45.815143" lon="9.426894"><time>2024-03-23T12:43:43.000Z</time><ele>438.2</ele></trkpt><trkpt lat="45.815143" lon="9.426894"><time>2024-03-23T12:43:44.000Z</time><ele>438.2</ele></trkpt><trkpt lat="45.815148" lon="9.426892"><time>2024-03-23T12:43:45.000Z</time><ele>438.4</ele></trkpt><trkpt lat="45.815162" lon="9.426878"><time>2024-03-23T12:43:46.000Z</time><ele>438.4</ele></trkpt><trkpt lat="45.815171" lon="9.426866"><time>2024-03-23T12:43:47.000Z</time><ele>438.4</ele></trkpt><trkpt lat="45.815177" lon="9.42686"><time>2024-03-23T12:43:48.000Z</time><ele>438.4</ele></trkpt><trkpt lat="45.815182" lon="9.426857"><time>2024-03-23T12:43:49.000Z</time><ele>438.6</ele></trkpt><trkpt lat="45.815186" lon="9.426855"><time>2024-03-23T12:43:50.000Z</time><ele>438.6</ele></trkpt><trkpt lat="45.815189" lon="9.426854"><time>2024-03-23T12:43:51.000Z</time><ele>438.8</ele></trkpt><trkpt lat="45.815194" lon="9.426852"><time>2024-03-23T12:43:52.000Z</time><ele>439</ele></trkpt><trkpt lat="45.815199" lon="9.426849"><time>2024-03-23T12:43:53.000Z</time><ele>439</ele></trkpt><trkpt lat="45.815204" lon="9.426847"><time>2024-03-23T12:43:54.000Z</time><ele>439</ele></trkpt><trkpt lat="45.815205" lon="9.426847"><time>2024-03-23T12:43:55.000Z</time><ele>439</ele></trkpt><trkpt lat="45.815205" lon="9.426851"><time>2024-03-23T12:43:56.000Z</time><ele>439</ele></trkpt><trkpt lat="45.815202" lon="9.426856"><time>2024-03-23T12:43:57.000Z</time><ele>439</ele></trkpt><trkpt lat="45.815198" lon="9.426863"><time>2024-03-23T12:43:58.000Z</time><ele>439</ele></trkpt><trkpt lat="45.815191" lon="9.426864"><time>2024-03-23T12:43:59.000Z</time><ele>438.8</ele></trkpt><trkpt lat="45.815186" lon="9.426862"><time>2024-03-23T12:44:00.000Z</time><ele>438.6</ele></trkpt><trkpt lat="45.815183" lon="9.426854"><time>2024-03-23T12:44:01.000Z</time><ele>438.4</ele></trkpt><trkpt lat="45.815182" lon="9.426848"><time>2024-03-23T12:44:02.000Z</time><ele>438.4</ele></trkpt><trkpt lat="45.81518" lon="9.42684"><time>2024-03-23T12:44:03.000Z</time><ele>438.4</ele></trkpt><trkpt lat="45.81518" lon="9.426828"><time>2024-03-23T12:44:04.000Z</time><ele>438.2</ele></trkpt><trkpt lat="45.81518" lon="9.426818"><time>2024-03-23T12:44:05.000Z</time><ele>438.2</ele></trkpt><trkpt lat="45.815185" lon="9.42681"><time>2024-03-23T12:44:06.000Z</time><ele>438.2</ele></trkpt><trkpt lat="45.81519" lon="9.4268"><time>2024-03-23T12:44:07.000Z</time><ele>438.2</ele></trkpt><trkpt lat="45.815193" lon="9.426788"><time>2024-03-23T12:44:08.000Z</time><ele>438.2</ele></trkpt><trkpt lat="45.815195" lon="9.42678"><time>2024-03-23T12:44:09.000Z</time><ele>438</ele></trkpt><trkpt lat="45.815196" lon="9.426772"><time>2024-03-23T12:44:10.000Z</time><ele>438</ele></trkpt><trkpt lat="45.815201" lon="9.426761"><time>2024-03-23T12:44:11.000Z</time><ele>438</ele></trkpt><trkpt lat="45.815203" lon="9.426748"><time>2024-03-23T12:44:12.000Z</time><ele>438</ele></trkpt><trkpt lat="45.815204" lon="9.426736"><time>2024-03-23T12:44:13.000Z</time><ele>438</ele></trkpt><trkpt lat="45.815205" lon="9.426724"><time>2024-03-23T12:44:14.000Z</time><ele>438</ele></trkpt><trkpt lat="45.815207" lon="9.426712"><time>2024-03-23T12:44:15.000Z</time><ele>437.8</ele></trkpt><trkpt lat="45.815209" lon="9.426703"><time>2024-03-23T12:44:16.000Z</time><ele>437.8</ele></trkpt><trkpt lat="45.815211" lon="9.426693"><time>2024-03-23T12:44:17.000Z</time><ele>437.8</ele></trkpt><trkpt lat="45.815214" lon="9.426683"><time>2024-03-23T12:44:18.000Z</time><ele>437.8</ele></trkpt><trkpt lat="45.815218" lon="9.426672"><time>2024-03-23T12:44:19.000Z</time><ele>437.8</ele></trkpt><trkpt lat="45.815225" lon="9.426662"><time>2024-03-23T12:44:20.000Z</time><ele>437.6</ele></trkpt><trkpt lat="45.81523" lon="9.426655"><time>2024-03-23T12:44:21.000Z</time><ele>437.6</ele></trkpt><trkpt lat="45.815232" lon="9.426646"><time>2024-03-23T12:44:22.000Z</time><ele>437.4</ele></trkpt><trkpt lat="45.815234" lon="9.426634"><time>2024-03-23T12:44:23.000Z</time><ele>437.4</ele></trkpt><trkpt lat="45.815233" lon="9.426625"><time>2024-03-23T12:44:24.000Z</time><ele>437.4</ele></trkpt><trkpt lat="45.815233" lon="9.42662"><time>2024-03-23T12:44:25.000Z</time><ele>437.4</ele></trkpt><trkpt lat="45.815237" lon="9.426613"><time>2024-03-23T12:44:26.000Z</time><ele>437.4</ele></trkpt><trkpt lat="45.815241" lon="9.426603"><time>2024-03-23T12:44:27.000Z</time><ele>437.4</ele></trkpt><trkpt lat="45.815243" lon="9.426591"><time>2024-03-23T12:44:28.000Z</time><ele>437.4</ele></trkpt><trkpt lat="45.815245" lon="9.426581"><time>2024-03-23T12:44:29.000Z</time><ele>437.4</ele></trkpt><trkpt lat="45.815245" lon="9.426575"><time>2024-03-23T12:44:30.000Z</time><ele>437.2</ele></trkpt><trkpt lat="45.815246" lon="9.426571"><time>2024-03-23T12:44:31.000Z</time><ele>437.2</ele></trkpt><trkpt lat="45.815245" lon="9.426568"><time>2024-03-23T12:44:32.000Z</time><ele>437.2</ele></trkpt><trkpt lat="45.815246" lon="9.426569"><time>2024-03-23T12:44:33.000Z</time><ele>437.2</ele></trkpt><trkpt lat="45.815245" lon="9.426568"><time>2024-03-23T12:44:34.000Z</time><ele>437.2</ele></trkpt><trkpt lat="45.815244" lon="9.426567"><time>2024-03-23T12:44:35.000Z</time><ele>437.2</ele></trkpt><trkpt lat="45.815244" lon="9.426564"><time>2024-03-23T12:44:36.000Z</time><ele>437</ele></trkpt><trkpt lat="45.81525" lon="9.426562"><time>2024-03-23T12:44:37.000Z</time><ele>437</ele></trkpt><trkpt lat="45.815257" lon="9.426555"><time>2024-03-23T12:44:38.000Z</time><ele>437</ele></trkpt><trkpt lat="45.815262" lon="9.426548"><time>2024-03-23T12:44:39.000Z</time><ele>437.2</ele></trkpt><trkpt lat="45.815261" lon="9.426538"><time>2024-03-23T12:44:40.000Z</time><ele>437.2</ele></trkpt><trkpt lat="45.815261" lon="9.426524"><time>2024-03-23T12:44:41.000Z</time><ele>437.2</ele></trkpt><trkpt lat="45.815264" lon="9.426512"><time>2024-03-23T12:44:42.000Z</time><ele>437.2</ele></trkpt><trkpt lat="45.815271" lon="9.426503"><time>2024-03-23T12:44:43.000Z</time><ele>437.2</ele></trkpt><trkpt lat="45.815276" lon="9.42649"><time>2024-03-23T12:44:44.000Z</time><ele>437</ele></trkpt><trkpt lat="45.815279" lon="9.426488"><time>2024-03-23T12:44:45.000Z</time><ele>437</ele></trkpt><trkpt lat="45.815279" lon="9.426474"><time>2024-03-23T12:44:46.000Z</time><ele>437</ele></trkpt><trkpt lat="45.815279" lon="9.426461"><time>2024-03-23T12:44:47.000Z</time><ele>437</ele></trkpt><trkpt lat="45.815278" lon="9.426451"><time>2024-03-23T12:44:48.000Z</time><ele>437</ele></trkpt><trkpt lat="45.815276" lon="9.426441"><time>2024-03-23T12:44:49.000Z</time><ele>436.8</ele></trkpt><trkpt lat="45.815272" lon="9.426419"><time>2024-03-23T12:44:50.000Z</time><ele>436.6</ele></trkpt><trkpt lat="45.815265" lon="9.426399"><time>2024-03-23T12:44:51.000Z</time><ele>436.4</ele></trkpt><trkpt lat="45.815261" lon="9.426389"><time>2024-03-23T12:44:52.000Z</time><ele>436.2</ele></trkpt><trkpt lat="45.815259" lon="9.426386"><time>2024-03-23T12:44:53.000Z</time><ele>436</ele></trkpt><trkpt lat="45.815257" lon="9.426383"><time>2024-03-23T12:44:54.000Z</time><ele>435.8</ele></trkpt><trkpt lat="45.815256" lon="9.426383"><time>2024-03-23T12:44:55.000Z</time><ele>435.8</ele></trkpt><trkpt lat="45.815255" lon="9.426374"><time>2024-03-23T12:44:56.000Z</time><ele>435.4</ele></trkpt><trkpt lat="45.815251" lon="9.426356"><time>2024-03-23T12:44:57.000Z</time><ele>435.4</ele></trkpt><trkpt lat="45.815247" lon="9.426351"><time>2024-03-23T12:44:58.000Z</time><ele>435.2</ele></trkpt><trkpt lat="45.815246" lon="9.426349"><time>2024-03-23T12:44:59.000Z</time><ele>435.2</ele></trkpt><trkpt lat="45.815244" lon="9.426346"><time>2024-03-23T12:45:00.000Z</time><ele>435.2</ele></trkpt><trkpt lat="45.815243" lon="9.426345"><time>2024-03-23T12:45:01.000Z</time><ele>435.2</ele></trkpt><trkpt lat="45.815239" lon="9.426346"><time>2024-03-23T12:45:02.000Z</time><ele>435.2</ele></trkpt><trkpt lat="45.815235" lon="9.426352"><time>2024-03-23T12:45:03.000Z</time><ele>435.4</ele></trkpt><trkpt lat="45.815234" lon="9.426356"><time>2024-03-23T12:45:04.000Z</time><ele>435.4</ele></trkpt><trkpt lat="45.815233" lon="9.426358"><time>2024-03-23T12:45:05.000Z</time><ele>435.4</ele></trkpt><trkpt lat="45.815232" lon="9.426358"><time>2024-03-23T12:45:06.000Z</time><ele>435.6</ele></trkpt><trkpt lat="45.815232" lon="9.426357"><time>2024-03-23T12:45:07.000Z</time><ele>435.6</ele></trkpt><trkpt lat="45.815234" lon="9.426354"><time>2024-03-23T12:45:08.000Z</time><ele>435.6</ele></trkpt><trkpt lat="45.81524" lon="9.426349"><time>2024-03-23T12:45:09.000Z</time><ele>435.6</ele></trkpt><trkpt lat="45.815247" lon="9.426343"><time>2024-03-23T12:45:10.000Z</time><ele>435.6</ele></trkpt><trkpt lat="45.815254" lon="9.426338"><time>2024-03-23T12:45:11.000Z</time><ele>435.6</ele></trkpt><trkpt lat="45.81526" lon="9.426331"><time>2024-03-23T12:45:12.000Z</time><ele>435.4</ele></trkpt><trkpt lat="45.815262" lon="9.426323"><time>2024-03-23T12:45:13.000Z</time><ele>435.4</ele></trkpt><trkpt lat="45.815265" lon="9.426318"><time>2024-03-23T12:45:14.000Z</time><ele>435.4</ele></trkpt><trkpt lat="45.815265" lon="9.426309"><time>2024-03-23T12:45:15.000Z</time><ele>435.4</ele></trkpt><trkpt lat="45.815263" lon="9.426297"><time>2024-03-23T12:45:16.000Z</time><ele>435.4</ele></trkpt><trkpt lat="45.81526" lon="9.426283"><time>2024-03-23T12:45:17.000Z</time><ele>435.2</ele></trkpt><trkpt lat="45.815261" lon="9.426268"><time>2024-03-23T12:45:18.000Z</time><ele>435</ele></trkpt><trkpt lat="45.815269" lon="9.426257"><time>2024-03-23T12:45:19.000Z</time><ele>434.8</ele></trkpt><trkpt lat="45.815277" lon="9.42625"><time>2024-03-23T12:45:20.000Z</time><ele>434.8</ele></trkpt><trkpt lat="45.815288" lon="9.426237"><time>2024-03-23T12:45:21.000Z</time><ele>434.6</ele></trkpt><trkpt lat="45.815291" lon="9.426223"><time>2024-03-23T12:45:22.000Z</time><ele>434.4</ele></trkpt><trkpt lat="45.815295" lon="9.426209"><time>2024-03-23T12:45:23.000Z</time><ele>434.2</ele></trkpt><trkpt lat="45.815295" lon="9.426199"><time>2024-03-23T12:45:24.000Z</time><ele>434.2</ele></trkpt><trkpt lat="45.815295" lon="9.426197"><time>2024-03-23T12:45:25.000Z</time><ele>434.2</ele></trkpt><trkpt lat="45.815295" lon="9.426196"><time>2024-03-23T12:45:26.000Z</time><ele>434.2</ele></trkpt><trkpt lat="45.815296" lon="9.426196"><time>2024-03-23T12:45:27.000Z</time><ele>434.2</ele></trkpt><trkpt lat="45.815297" lon="9.426195"><time>2024-03-23T12:45:28.000Z</time><ele>434.2</ele></trkpt><trkpt lat="45.815297" lon="9.426194"><time>2024-03-23T12:45:29.000Z</time><ele>434.2</ele></trkpt><trkpt lat="45.815299" lon="9.426191"><time>2024-03-23T12:45:30.000Z</time><ele>434</ele></trkpt><trkpt lat="45.815301" lon="9.426183"><time>2024-03-23T12:45:31.000Z</time><ele>434</ele></trkpt><trkpt lat="45.815303" lon="9.426174"><time>2024-03-23T12:45:32.000Z</time><ele>434</ele></trkpt><trkpt lat="45.815305" lon="9.426165"><time>2024-03-23T12:45:33.000Z</time><ele>434</ele></trkpt><trkpt lat="45.815307" lon="9.426154"><time>2024-03-23T12:45:34.000Z</time><ele>434</ele></trkpt><trkpt lat="45.815309" lon="9.426143"><time>2024-03-23T12:45:35.000Z</time><ele>434</ele></trkpt><trkpt lat="45.815309" lon="9.42613"><time>2024-03-23T12:45:36.000Z</time><ele>433.8</ele></trkpt><trkpt lat="45.815308" lon="9.426122"><time>2024-03-23T12:45:37.000Z</time><ele>433.8</ele></trkpt><trkpt lat="45.815308" lon="9.426115"><time>2024-03-23T12:45:38.000Z</time><ele>433.6</ele></trkpt><trkpt lat="45.815308" lon="9.426113"><time>2024-03-23T12:45:39.000Z</time><ele>433.6</ele></trkpt><trkpt lat="45.815309" lon="9.426112"><time>2024-03-23T12:45:40.000Z</time><ele>433.6</ele></trkpt><trkpt lat="45.815309" lon="9.426111"><time>2024-03-23T12:45:41.000Z</time><ele>433.6</ele></trkpt><trkpt lat="45.815308" lon="9.426111"><time>2024-03-23T12:45:42.000Z</time><ele>433.8</ele></trkpt><trkpt lat="45.815307" lon="9.426112"><time>2024-03-23T12:45:43.000Z</time><ele>433.8</ele></trkpt><trkpt lat="45.815307" lon="9.426114"><time>2024-03-23T12:45:44.000Z</time><ele>433.8</ele></trkpt><trkpt lat="45.815308" lon="9.426116"><time>2024-03-23T12:45:45.000Z</time><ele>433.8</ele></trkpt><trkpt lat="45.815309" lon="9.426116"><time>2024-03-23T12:45:46.000Z</time><ele>433.6</ele></trkpt><trkpt lat="45.815311" lon="9.426117"><time>2024-03-23T12:45:47.000Z</time><ele>433.6</ele></trkpt><trkpt lat="45.815314" lon="9.426118"><time>2024-03-23T12:45:48.000Z</time><ele>433.6</ele></trkpt><trkpt lat="45.815317" lon="9.426121"><time>2024-03-23T12:45:49.000Z</time><ele>433.6</ele></trkpt><trkpt lat="45.815323" lon="9.42612"><time>2024-03-23T12:45:50.000Z</time><ele>433.6</ele></trkpt><trkpt lat="45.815327" lon="9.426116"><time>2024-03-23T12:45:51.000Z</time><ele>433.6</ele></trkpt><trkpt lat="45.815331" lon="9.426106"><time>2024-03-23T12:45:52.000Z</time><ele>433.6</ele></trkpt><trkpt lat="45.815329" lon="9.426098"><time>2024-03-23T12:45:53.000Z</time><ele>433.4</ele></trkpt><trkpt lat="45.815326" lon="9.426092"><time>2024-03-23T12:45:54.000Z</time><ele>433.4</ele></trkpt><trkpt lat="45.815324" lon="9.426089"><time>2024-03-23T12:45:55.000Z</time><ele>433.4</ele></trkpt><trkpt lat="45.815323" lon="9.426088"><time>2024-03-23T12:45:56.000Z</time><ele>433.2</ele></trkpt><trkpt lat="45.815323" lon="9.426088"><time>2024-03-23T12:45:57.000Z</time><ele>433.2</ele></trkpt><trkpt lat="45.815323" lon="9.426088"><time>2024-03-23T12:45:58.000Z</time><ele>433.2</ele></trkpt><trkpt lat="45.815323" lon="9.426088"><time>2024-03-23T12:45:59.000Z</time><ele>433.2</ele></trkpt><trkpt lat="45.815323" lon="9.426088"><time>2024-03-23T12:46:00.000Z</time><ele>433.2</ele></trkpt><trkpt lat="45.815323" lon="9.426088"><time>2024-03-23T12:46:01.000Z</time><ele>433.2</ele></trkpt><trkpt lat="45.815323" lon="9.426088"><time>2024-03-23T12:46:02.000Z</time><ele>433.2</ele></trkpt><trkpt lat="45.815323" lon="9.426088"><time>2024-03-23T12:46:03.000Z</time><ele>433.2</ele></trkpt><trkpt lat="45.815323" lon="9.426088"><time>2024-03-23T12:46:04.000Z</time><ele>433.4</ele></trkpt><trkpt lat="45.815323" lon="9.426088"><time>2024-03-23T12:46:05.000Z</time><ele>433.4</ele></trkpt><trkpt lat="45.815323" lon="9.426088"><time>2024-03-23T12:46:06.000Z</time><ele>433.4</ele></trkpt><trkpt lat="45.815323" lon="9.426089"><time>2024-03-23T12:46:07.000Z</time><ele>433.4</ele></trkpt><trkpt lat="45.815323" lon="9.426089"><time>2024-03-23T12:46:08.000Z</time><ele>433.4</ele></trkpt><trkpt lat="45.815323" lon="9.426089"><time>2024-03-23T12:46:09.000Z</time><ele>433.4</ele></trkpt><trkpt lat="45.815323" lon="9.426089"><time>2024-03-23T12:46:10.000Z</time><ele>433.2</ele></trkpt><trkpt lat="45.815323" lon="9.426089"><time>2024-03-23T12:46:11.000Z</time><ele>433.2</ele></trkpt><trkpt lat="45.815323" lon="9.426089"><time>2024-03-23T12:46:12.000Z</time><ele>433.2</ele></trkpt><trkpt lat="45.815323" lon="9.426089"><time>2024-03-23T12:46:13.000Z</time><ele>433</ele></trkpt><trkpt lat="45.815323" lon="9.426089"><time>2024-03-23T12:46:14.000Z</time><ele>433</ele></trkpt><trkpt lat="45.815323" lon="9.426089"><time>2024-03-23T12:46:15.000Z</time><ele>433</ele></trkpt><trkpt lat="45.815322" lon="9.426089"><time>2024-03-23T12:46:16.000Z</time><ele>433</ele></trkpt><trkpt lat="45.815322" lon="9.426089"><time>2024-03-23T12:46:17.000Z</time><ele>432.8</ele></trkpt><trkpt lat="45.815322" lon="9.426089"><time>2024-03-23T12:46:18.000Z</time><ele>432.8</ele></trkpt><trkpt lat="45.815322" lon="9.426089"><time>2024-03-23T12:46:19.000Z</time><ele>432.8</ele></trkpt><trkpt lat="45.815321" lon="9.426088"><time>2024-03-23T12:46:20.000Z</time><ele>433</ele></trkpt><trkpt lat="45.815321" lon="9.426088"><time>2024-03-23T12:46:21.000Z</time><ele>432.8</ele></trkpt><trkpt lat="45.815321" lon="9.426088"><time>2024-03-23T12:46:22.000Z</time><ele>433</ele></trkpt><trkpt lat="45.815321" lon="9.426088"><time>2024-03-23T12:46:23.000Z</time><ele>433</ele></trkpt><trkpt lat="45.815316" lon="9.426088"><time>2024-03-23T12:46:24.000Z</time><ele>432.8</ele></trkpt><trkpt lat="45.81531" lon="9.426088"><time>2024-03-23T12:46:25.000Z</time><ele>432.8</ele></trkpt><trkpt lat="45.815308" lon="9.426087"><time>2024-03-23T12:46:26.000Z</time><ele>432.8</ele></trkpt><trkpt lat="45.815306" lon="9.426087"><time>2024-03-23T12:46:27.000Z</time><ele>432.6</ele></trkpt><trkpt lat="45.815305" lon="9.426087"><time>2024-03-23T12:46:28.000Z</time><ele>432.6</ele></trkpt><trkpt lat="45.815304" lon="9.426087"><time>2024-03-23T12:46:29.000Z</time><ele>432.6</ele></trkpt><trkpt lat="45.815303" lon="9.426087"><time>2024-03-23T12:46:30.000Z</time><ele>432.6</ele></trkpt><trkpt lat="45.815301" lon="9.426087"><time>2024-03-23T12:46:31.000Z</time><ele>432.6</ele></trkpt><trkpt lat="45.815301" lon="9.426087"><time>2024-03-23T12:46:32.000Z</time><ele>432.6</ele></trkpt><trkpt lat="45.8153" lon="9.426087"><time>2024-03-23T12:46:33.000Z</time><ele>432.6</ele></trkpt><trkpt lat="45.815299" lon="9.426087"><time>2024-03-23T12:46:34.000Z</time><ele>432.6</ele></trkpt><trkpt lat="45.815299" lon="9.426087"><time>2024-03-23T12:46:35.000Z</time><ele>432.6</ele></trkpt><trkpt lat="45.815298" lon="9.426087"><time>2024-03-23T12:46:36.000Z</time><ele>432.6</ele></trkpt><trkpt lat="45.815295" lon="9.426091"><time>2024-03-23T12:46:37.000Z</time><ele>432.6</ele></trkpt><trkpt lat="45.815291" lon="9.426099"><time>2024-03-23T12:46:38.000Z</time><ele>432.6</ele></trkpt><trkpt lat="45.815288" lon="9.426103"><time>2024-03-23T12:46:39.000Z</time><ele>432.6</ele></trkpt><trkpt lat="45.815285" lon="9.426107"><time>2024-03-23T12:46:40.000Z</time><ele>432.6</ele></trkpt><trkpt lat="45.815285" lon="9.426107"><time>2024-03-23T12:46:41.000Z</time><ele>432.4</ele></trkpt><trkpt lat="45.815285" lon="9.426107"><time>2024-03-23T12:46:42.000Z</time><ele>432.4</ele></trkpt><trkpt lat="45.815285" lon="9.426107"><time>2024-03-23T12:46:43.000Z</time><ele>432.4</ele></trkpt><trkpt lat="45.815285" lon="9.426107"><time>2024-03-23T12:46:44.000Z</time><ele>432.4</ele></trkpt><trkpt lat="45.815285" lon="9.426107"><time>2024-03-23T12:46:45.000Z</time><ele>432.4</ele></trkpt><trkpt lat="45.815285" lon="9.426107"><time>2024-03-23T12:46:46.000Z</time><ele>432.4</ele></trkpt><trkpt lat="45.815285" lon="9.426107"><time>2024-03-23T12:46:47.000Z</time><ele>432.4</ele></trkpt><trkpt lat="45.815285" lon="9.426107"><time>2024-03-23T12:46:48.000Z</time><ele>432.4</ele></trkpt><trkpt lat="45.815285" lon="9.426107"><time>2024-03-23T12:46:49.000Z</time><ele>432.4</ele></trkpt><trkpt lat="45.815283" lon="9.426111"><time>2024-03-23T12:46:50.000Z</time><ele>432.4</ele></trkpt><trkpt lat="45.815277" lon="9.426122"><time>2024-03-23T12:46:51.000Z</time><ele>432.4</ele></trkpt><trkpt lat="45.81527" lon="9.426131"><time>2024-03-23T12:46:52.000Z</time><ele>432.4</ele></trkpt><trkpt lat="45.815268" lon="9.426133"><time>2024-03-23T12:46:53.000Z</time><ele>432.4</ele></trkpt><trkpt lat="45.815268" lon="9.426134"><time>2024-03-23T12:46:54.000Z</time><ele>432.4</ele></trkpt><trkpt lat="45.815268" lon="9.426134"><time>2024-03-23T12:46:55.000Z</time><ele>432.4</ele></trkpt><trkpt lat="45.815267" lon="9.426134"><time>2024-03-23T12:46:56.000Z</time><ele>432.2</ele></trkpt><trkpt lat="45.815267" lon="9.426134"><time>2024-03-23T12:46:57.000Z</time><ele>432.4</ele></trkpt><trkpt lat="45.815267" lon="9.426135"><time>2024-03-23T12:46:58.000Z</time><ele>432.4</ele></trkpt><trkpt lat="45.815267" lon="9.426136"><time>2024-03-23T12:46:59.000Z</time><ele>432.4</ele></trkpt><trkpt lat="45.815267" lon="9.426137"><time>2024-03-23T12:47:00.000Z</time><ele>432.4</ele></trkpt><trkpt lat="45.815267" lon="9.426138"><time>2024-03-23T12:47:01.000Z</time><ele>432.4</ele></trkpt><trkpt lat="45.815266" lon="9.426139"><time>2024-03-23T12:47:02.000Z</time><ele>432.4</ele></trkpt><trkpt lat="45.815266" lon="9.426142"><time>2024-03-23T12:47:03.000Z</time><ele>432.4</ele></trkpt><trkpt lat="45.815264" lon="9.426146"><time>2024-03-23T12:47:04.000Z</time><ele>432.4</ele></trkpt><trkpt lat="45.815259" lon="9.426152"><time>2024-03-23T12:47:05.000Z</time><ele>432.4</ele></trkpt><trkpt lat="45.815255" lon="9.426161"><time>2024-03-23T12:47:06.000Z</time><ele>432.4</ele></trkpt><trkpt lat="45.815252" lon="9.426171"><time>2024-03-23T12:47:07.000Z</time><ele>432.4</ele></trkpt><trkpt lat="45.815248" lon="9.426179"><time>2024-03-23T12:47:08.000Z</time><ele>432.2</ele></trkpt><trkpt lat="45.815237" lon="9.426196"><time>2024-03-23T12:47:09.000Z</time><ele>432.2</ele></trkpt><trkpt lat="45.815228" lon="9.426213"><time>2024-03-23T12:47:10.000Z</time><ele>432.2</ele></trkpt><trkpt lat="45.815219" lon="9.426228"><time>2024-03-23T12:47:11.000Z</time><ele>432.2</ele></trkpt><trkpt lat="45.815211" lon="9.426246"><time>2024-03-23T12:47:12.000Z</time><ele>432.2</ele></trkpt><trkpt lat="45.815202" lon="9.426268"><time>2024-03-23T12:47:13.000Z</time><ele>432</ele></trkpt><trkpt lat="45.815192" lon="9.426289"><time>2024-03-23T12:47:14.000Z</time><ele>432</ele></trkpt><trkpt lat="45.815184" lon="9.426307"><time>2024-03-23T12:47:15.000Z</time><ele>432</ele></trkpt><trkpt lat="45.815174" lon="9.426326"><time>2024-03-23T12:47:16.000Z</time><ele>432</ele></trkpt><trkpt lat="45.815167" lon="9.426345"><time>2024-03-23T12:47:17.000Z</time><ele>431.8</ele></trkpt><trkpt lat="45.815162" lon="9.426357"><time>2024-03-23T12:47:18.000Z</time><ele>431.8</ele></trkpt><trkpt lat="45.815157" lon="9.426371"><time>2024-03-23T12:47:19.000Z</time><ele>431.8</ele></trkpt><trkpt lat="45.815154" lon="9.426383"><time>2024-03-23T12:47:20.000Z</time><ele>431.6</ele></trkpt><trkpt lat="45.815152" lon="9.426395"><time>2024-03-23T12:47:21.000Z</time><ele>431.6</ele></trkpt><trkpt lat="45.815149" lon="9.426409"><time>2024-03-23T12:47:22.000Z</time><ele>431.4</ele></trkpt><trkpt lat="45.815144" lon="9.426422"><time>2024-03-23T12:47:23.000Z</time><ele>431.2</ele></trkpt><trkpt lat="45.815141" lon="9.426435"><time>2024-03-23T12:47:24.000Z</time><ele>431</ele></trkpt><trkpt lat="45.815137" lon="9.426451"><time>2024-03-23T12:47:25.000Z</time><ele>431</ele></trkpt><trkpt lat="45.815135" lon="9.426465"><time>2024-03-23T12:47:26.000Z</time><ele>430.8</ele></trkpt><trkpt lat="45.815131" lon="9.426479"><time>2024-03-23T12:47:27.000Z</time><ele>430.6</ele></trkpt><trkpt lat="45.815125" lon="9.426494"><time>2024-03-23T12:47:28.000Z</time><ele>430.6</ele></trkpt><trkpt lat="45.815121" lon="9.426506"><time>2024-03-23T12:47:29.000Z</time><ele>430.6</ele></trkpt><trkpt lat="45.815118" lon="9.426517"><time>2024-03-23T12:47:30.000Z</time><ele>430.4</ele></trkpt><trkpt lat="45.815114" lon="9.426532"><time>2024-03-23T12:47:31.000Z</time><ele>430.2</ele></trkpt><trkpt lat="45.815107" lon="9.426544"><time>2024-03-23T12:47:32.000Z</time><ele>430</ele></trkpt><trkpt lat="45.815103" lon="9.426561"><time>2024-03-23T12:47:33.000Z</time><ele>429.8</ele></trkpt><trkpt lat="45.815102" lon="9.426569"><time>2024-03-23T12:47:34.000Z</time><ele>429.8</ele></trkpt><trkpt lat="45.815103" lon="9.426572"><time>2024-03-23T12:47:35.000Z</time><ele>429.6</ele></trkpt><trkpt lat="45.815103" lon="9.42657"><time>2024-03-23T12:47:36.000Z</time><ele>429.6</ele></trkpt><trkpt lat="45.815103" lon="9.426568"><time>2024-03-23T12:47:37.000Z</time><ele>429.6</ele></trkpt><trkpt lat="45.815103" lon="9.42657"><time>2024-03-23T12:47:38.000Z</time><ele>429.4</ele></trkpt><trkpt lat="45.815105" lon="9.426572"><time>2024-03-23T12:47:39.000Z</time><ele>429.4</ele></trkpt><trkpt lat="45.815106" lon="9.426572"><time>2024-03-23T12:47:40.000Z</time><ele>429.4</ele></trkpt><trkpt lat="45.815106" lon="9.426572"><time>2024-03-23T12:47:41.000Z</time><ele>429.4</ele></trkpt><trkpt lat="45.815105" lon="9.426571"><time>2024-03-23T12:47:42.000Z</time><ele>429.4</ele></trkpt><trkpt lat="45.815104" lon="9.426571"><time>2024-03-23T12:47:43.000Z</time><ele>429.4</ele></trkpt><trkpt lat="45.815102" lon="9.42657"><time>2024-03-23T12:47:44.000Z</time><ele>429.4</ele></trkpt><trkpt lat="45.815102" lon="9.426569"><time>2024-03-23T12:47:45.000Z</time><ele>429.4</ele></trkpt><trkpt lat="45.815102" lon="9.426571"><time>2024-03-23T12:47:46.000Z</time><ele>429.4</ele></trkpt><trkpt lat="45.815103" lon="9.426574"><time>2024-03-23T12:47:47.000Z</time><ele>429.6</ele></trkpt><trkpt lat="45.815104" lon="9.426572"><time>2024-03-23T12:47:48.000Z</time><ele>429.6</ele></trkpt><trkpt lat="45.815104" lon="9.426572"><time>2024-03-23T12:47:49.000Z</time><ele>429.6</ele></trkpt><trkpt lat="45.815104" lon="9.426572"><time>2024-03-23T12:47:50.000Z</time><ele>429.6</ele></trkpt><trkpt lat="45.815104" lon="9.426572"><time>2024-03-23T12:47:51.000Z</time><ele>429.6</ele></trkpt><trkpt lat="45.815104" lon="9.426572"><time>2024-03-23T12:47:52.000Z</time><ele>429.6</ele></trkpt><trkpt lat="45.815104" lon="9.426572"><time>2024-03-23T12:47:53.000Z</time><ele>429.6</ele></trkpt><trkpt lat="45.815104" lon="9.426572"><time>2024-03-23T12:47:54.000Z</time><ele>429.4</ele></trkpt><trkpt lat="45.815104" lon="9.426572"><time>2024-03-23T12:47:55.000Z</time><ele>429.4</ele></trkpt><trkpt lat="45.815104" lon="9.426572"><time>2024-03-23T12:47:56.000Z</time><ele>429.4</ele></trkpt><trkpt lat="45.815104" lon="9.426572"><time>2024-03-23T12:47:57.000Z</time><ele>429.4</ele></trkpt><trkpt lat="45.815104" lon="9.426572"><time>2024-03-23T12:47:58.000Z</time><ele>429.2</ele></trkpt><trkpt lat="45.815104" lon="9.426572"><time>2024-03-23T12:47:59.000Z</time><ele>429.2</ele></trkpt><trkpt lat="45.815102" lon="9.42658"><time>2024-03-23T12:48:00.000Z</time><ele>429.2</ele></trkpt><trkpt lat="45.815098" lon="9.4266"><time>2024-03-23T12:48:01.000Z</time><ele>429</ele></trkpt><trkpt lat="45.815093" lon="9.426623"><time>2024-03-23T12:48:02.000Z</time><ele>429</ele></trkpt><trkpt lat="45.815089" lon="9.426641"><time>2024-03-23T12:48:03.000Z</time><ele>429</ele></trkpt><trkpt lat="45.815085" lon="9.426658"><time>2024-03-23T12:48:04.000Z</time><ele>428.8</ele></trkpt><trkpt lat="45.815082" lon="9.426673"><time>2024-03-23T12:48:05.000Z</time><ele>428.8</ele></trkpt><trkpt lat="45.815079" lon="9.426688"><time>2024-03-23T12:48:06.000Z</time><ele>428.6</ele></trkpt><trkpt lat="45.815075" lon="9.426708"><time>2024-03-23T12:48:07.000Z</time><ele>428.4</ele></trkpt><trkpt lat="45.815074" lon="9.426727"><time>2024-03-23T12:48:08.000Z</time><ele>428.2</ele></trkpt><trkpt lat="45.815073" lon="9.426746"><time>2024-03-23T12:48:09.000Z</time><ele>428</ele></trkpt><trkpt lat="45.815072" lon="9.426754"><time>2024-03-23T12:48:10.000Z</time><ele>428</ele></trkpt><trkpt lat="45.815073" lon="9.426763"><time>2024-03-23T12:48:11.000Z</time><ele>427.8</ele></trkpt><trkpt lat="45.815073" lon="9.426774"><time>2024-03-23T12:48:12.000Z</time><ele>427.6</ele></trkpt><trkpt lat="45.815075" lon="9.426786"><time>2024-03-23T12:48:13.000Z</time><ele>427.6</ele></trkpt><trkpt lat="45.815077" lon="9.426797"><time>2024-03-23T12:48:14.000Z</time><ele>427.4</ele></trkpt><trkpt lat="45.815078" lon="9.426805"><time>2024-03-23T12:48:15.000Z</time><ele>427.2</ele></trkpt><trkpt lat="45.815078" lon="9.426811"><time>2024-03-23T12:48:16.000Z</time><ele>427</ele></trkpt><trkpt lat="45.81508" lon="9.426815"><time>2024-03-23T12:48:17.000Z</time><ele>426.8</ele></trkpt><trkpt lat="45.815078" lon="9.426822"><time>2024-03-23T12:48:18.000Z</time><ele>426.6</ele></trkpt><trkpt lat="45.815078" lon="9.426828"><time>2024-03-23T12:48:19.000Z</time><ele>426.4</ele></trkpt><trkpt lat="45.81507" lon="9.426837"><time>2024-03-23T12:48:20.000Z</time><ele>426.2</ele></trkpt><trkpt lat="45.815067" lon="9.42684"><time>2024-03-23T12:48:21.000Z</time><ele>426</ele></trkpt><trkpt lat="45.815064" lon="9.426844"><time>2024-03-23T12:48:22.000Z</time><ele>425.6</ele></trkpt><trkpt lat="45.815063" lon="9.426849"><time>2024-03-23T12:48:23.000Z</time><ele>425.4</ele></trkpt><trkpt lat="45.815058" lon="9.426853"><time>2024-03-23T12:48:24.000Z</time><ele>425.2</ele></trkpt><trkpt lat="45.815051" lon="9.426859"><time>2024-03-23T12:48:25.000Z</time><ele>425</ele></trkpt><trkpt lat="45.815045" lon="9.426864"><time>2024-03-23T12:48:26.000Z</time><ele>424.6</ele></trkpt><trkpt lat="45.815039" lon="9.426864"><time>2024-03-23T12:48:27.000Z</time><ele>424.4</ele></trkpt><trkpt lat="45.815035" lon="9.426872"><time>2024-03-23T12:48:28.000Z</time><ele>424.2</ele></trkpt><trkpt lat="45.815031" lon="9.426877"><time>2024-03-23T12:48:29.000Z</time><ele>423.8</ele></trkpt><trkpt lat="45.815026" lon="9.426882"><time>2024-03-23T12:48:30.000Z</time><ele>423.6</ele></trkpt><trkpt lat="45.815017" lon="9.426884"><time>2024-03-23T12:48:31.000Z</time><ele>423.2</ele></trkpt><trkpt lat="45.815013" lon="9.426887"><time>2024-03-23T12:48:32.000Z</time><ele>423</ele></trkpt><trkpt lat="45.81501" lon="9.426888"><time>2024-03-23T12:48:33.000Z</time><ele>422.8</ele></trkpt><trkpt lat="45.815006" lon="9.426889"><time>2024-03-23T12:48:34.000Z</time><ele>422.6</ele></trkpt><trkpt lat="45.815004" lon="9.42689"><time>2024-03-23T12:48:35.000Z</time><ele>422.4</ele></trkpt><trkpt lat="45.815004" lon="9.426893"><time>2024-03-23T12:48:36.000Z</time><ele>422.4</ele></trkpt><trkpt lat="45.815003" lon="9.426894"><time>2024-03-23T12:48:37.000Z</time><ele>422.4</ele></trkpt><trkpt lat="45.815003" lon="9.426895"><time>2024-03-23T12:48:38.000Z</time><ele>422.2</ele></trkpt><trkpt lat="45.815003" lon="9.426895"><time>2024-03-23T12:48:39.000Z</time><ele>422.2</ele></trkpt><trkpt lat="45.815" lon="9.426889"><time>2024-03-23T12:48:40.000Z</time><ele>422.2</ele></trkpt><trkpt lat="45.815" lon="9.426888"><time>2024-03-23T12:48:41.000Z</time><ele>422.2</ele></trkpt><trkpt lat="45.815" lon="9.426886"><time>2024-03-23T12:48:42.000Z</time><ele>422.2</ele></trkpt><trkpt lat="45.815002" lon="9.426887"><time>2024-03-23T12:48:43.000Z</time><ele>422.2</ele></trkpt><trkpt lat="45.815003" lon="9.426889"><time>2024-03-23T12:48:44.000Z</time><ele>422.2</ele></trkpt><trkpt lat="45.815004" lon="9.426889"><time>2024-03-23T12:48:45.000Z</time><ele>422.2</ele></trkpt><trkpt lat="45.815005" lon="9.426891"><time>2024-03-23T12:48:46.000Z</time><ele>422.2</ele></trkpt><trkpt lat="45.815005" lon="9.426893"><time>2024-03-23T12:48:47.000Z</time><ele>422.2</ele></trkpt><trkpt lat="45.815005" lon="9.426893"><time>2024-03-23T12:48:48.000Z</time><ele>422.2</ele></trkpt><trkpt lat="45.815005" lon="9.426893"><time>2024-03-23T12:48:49.000Z</time><ele>422.2</ele></trkpt><trkpt lat="45.815005" lon="9.426893"><time>2024-03-23T12:48:50.000Z</time><ele>422.2</ele></trkpt><trkpt lat="45.815005" lon="9.426893"><time>2024-03-23T12:48:51.000Z</time><ele>422.2</ele></trkpt><trkpt lat="45.815005" lon="9.426893"><time>2024-03-23T12:48:52.000Z</time><ele>422.4</ele></trkpt><trkpt lat="45.815005" lon="9.426893"><time>2024-03-23T12:48:53.000Z</time><ele>422.4</ele></trkpt><trkpt lat="45.815005" lon="9.426893"><time>2024-03-23T12:48:54.000Z</time><ele>422.4</ele></trkpt><trkpt lat="45.815005" lon="9.426893"><time>2024-03-23T12:48:55.000Z</time><ele>422.4</ele></trkpt><trkpt lat="45.815005" lon="9.426893"><time>2024-03-23T12:48:56.000Z</time><ele>422.4</ele></trkpt><trkpt lat="45.815005" lon="9.426893"><time>2024-03-23T12:48:57.000Z</time><ele>422.4</ele></trkpt><trkpt lat="45.815005" lon="9.426893"><time>2024-03-23T12:48:58.000Z</time><ele>422.4</ele></trkpt><trkpt lat="45.815005" lon="9.426893"><time>2024-03-23T12:48:59.000Z</time><ele>422.4</ele></trkpt><trkpt lat="45.815005" lon="9.426893"><time>2024-03-23T12:49:00.000Z</time><ele>422.4</ele></trkpt><trkpt lat="45.815005" lon="9.426893"><time>2024-03-23T12:49:01.000Z</time><ele>422.4</ele></trkpt><trkpt lat="45.815005" lon="9.426893"><time>2024-03-23T12:49:02.000Z</time><ele>422.4</ele></trkpt><trkpt lat="45.815005" lon="9.426893"><time>2024-03-23T12:49:03.000Z</time><ele>422.4</ele></trkpt><trkpt lat="45.815005" lon="9.426893"><time>2024-03-23T12:49:04.000Z</time><ele>422.4</ele></trkpt><trkpt lat="45.815005" lon="9.426893"><time>2024-03-23T12:49:05.000Z</time><ele>422.4</ele></trkpt><trkpt lat="45.815005" lon="9.426893"><time>2024-03-23T12:49:06.000Z</time><ele>422.4</ele></trkpt><trkpt lat="45.815005" lon="9.426893"><time>2024-03-23T12:49:07.000Z</time><ele>422.4</ele></trkpt><trkpt lat="45.815005" lon="9.426893"><time>2024-03-23T12:49:08.000Z</time><ele>422.4</ele></trkpt><trkpt lat="45.815005" lon="9.426893"><time>2024-03-23T12:49:09.000Z</time><ele>422.4</ele></trkpt><trkpt lat="45.815005" lon="9.426893"><time>2024-03-23T12:49:10.000Z</time><ele>422.4</ele></trkpt><trkpt lat="45.815006" lon="9.426893"><time>2024-03-23T12:49:11.000Z</time><ele>422.4</ele></trkpt><trkpt lat="45.815006" lon="9.426893"><time>2024-03-23T12:49:12.000Z</time><ele>422.4</ele></trkpt><trkpt lat="45.815007" lon="9.426893"><time>2024-03-23T12:49:13.000Z</time><ele>422.4</ele></trkpt><trkpt lat="45.815007" lon="9.426894"><time>2024-03-23T12:49:14.000Z</time><ele>422.4</ele></trkpt><trkpt lat="45.815007" lon="9.426896"><time>2024-03-23T12:49:15.000Z</time><ele>422.2</ele></trkpt><trkpt lat="45.815007" lon="9.426897"><time>2024-03-23T12:49:16.000Z</time><ele>422.2</ele></trkpt><trkpt lat="45.81501" lon="9.426899"><time>2024-03-23T12:49:17.000Z</time><ele>422.2</ele></trkpt><trkpt lat="45.815012" lon="9.4269"><time>2024-03-23T12:49:18.000Z</time><ele>422.2</ele></trkpt><trkpt lat="45.815013" lon="9.4269"><time>2024-03-23T12:49:19.000Z</time><ele>422.4</ele></trkpt><trkpt lat="45.815014" lon="9.426901"><time>2024-03-23T12:49:20.000Z</time><ele>422.4</ele></trkpt><trkpt lat="45.815014" lon="9.426901"><time>2024-03-23T12:49:21.000Z</time><ele>422.4</ele></trkpt><trkpt lat="45.815014" lon="9.426902"><time>2024-03-23T12:49:22.000Z</time><ele>422.4</ele></trkpt><trkpt lat="45.815014" lon="9.426902"><time>2024-03-23T12:49:23.000Z</time><ele>422.4</ele></trkpt><trkpt lat="45.815015" lon="9.426902"><time>2024-03-23T12:49:24.000Z</time><ele>422.4</ele></trkpt><trkpt lat="45.815015" lon="9.426903"><time>2024-03-23T12:49:25.000Z</time><ele>422.4</ele></trkpt><trkpt lat="45.815015" lon="9.426903"><time>2024-03-23T12:49:26.000Z</time><ele>422.4</ele></trkpt><trkpt lat="45.815015" lon="9.426904"><time>2024-03-23T12:49:27.000Z</time><ele>422.4</ele></trkpt><trkpt lat="45.815016" lon="9.426904"><time>2024-03-23T12:49:28.000Z</time><ele>422.4</ele></trkpt><trkpt lat="45.815016" lon="9.426905"><time>2024-03-23T12:49:29.000Z</time><ele>422.4</ele></trkpt><trkpt lat="45.815016" lon="9.426906"><time>2024-03-23T12:49:30.000Z</time><ele>422.4</ele></trkpt><trkpt lat="45.815016" lon="9.426907"><time>2024-03-23T12:49:31.000Z</time><ele>422.4</ele></trkpt><trkpt lat="45.815016" lon="9.426909"><time>2024-03-23T12:49:32.000Z</time><ele>422.4</ele></trkpt><trkpt lat="45.815017" lon="9.426911"><time>2024-03-23T12:49:33.000Z</time><ele>422.4</ele></trkpt><trkpt lat="45.815018" lon="9.426912"><time>2024-03-23T12:49:34.000Z</time><ele>422.4</ele></trkpt><trkpt lat="45.815018" lon="9.426913"><time>2024-03-23T12:49:35.000Z</time><ele>422.4</ele></trkpt><trkpt lat="45.815018" lon="9.426913"><time>2024-03-23T12:49:36.000Z</time><ele>422.4</ele></trkpt><trkpt lat="45.815018" lon="9.426913"><time>2024-03-23T12:49:37.000Z</time><ele>422.4</ele></trkpt><trkpt lat="45.815018" lon="9.426913"><time>2024-03-23T12:49:38.000Z</time><ele>422.4</ele></trkpt><trkpt lat="45.815018" lon="9.426913"><time>2024-03-23T12:49:39.000Z</time><ele>422.4</ele></trkpt><trkpt lat="45.815018" lon="9.426913"><time>2024-03-23T12:49:40.000Z</time><ele>422.6</ele></trkpt><trkpt lat="45.815018" lon="9.426913"><time>2024-03-23T12:49:41.000Z</time><ele>422.6</ele></trkpt><trkpt lat="45.815018" lon="9.426913"><time>2024-03-23T12:49:42.000Z</time><ele>422.6</ele></trkpt><trkpt lat="45.815018" lon="9.426913"><time>2024-03-23T12:49:43.000Z</time><ele>422.6</ele></trkpt><trkpt lat="45.815018" lon="9.426913"><time>2024-03-23T12:49:44.000Z</time><ele>422.6</ele></trkpt><trkpt lat="45.815018" lon="9.426913"><time>2024-03-23T12:49:45.000Z</time><ele>422.6</ele></trkpt><trkpt lat="45.815018" lon="9.426913"><time>2024-03-23T12:49:46.000Z</time><ele>422.6</ele></trkpt><trkpt lat="45.815018" lon="9.426913"><time>2024-03-23T12:49:47.000Z</time><ele>422.6</ele></trkpt><trkpt lat="45.815018" lon="9.426913"><time>2024-03-23T12:49:48.000Z</time><ele>422.6</ele></trkpt><trkpt lat="45.815018" lon="9.426913"><time>2024-03-23T12:49:49.000Z</time><ele>422.8</ele></trkpt><trkpt lat="45.815017" lon="9.426913"><time>2024-03-23T12:49:50.000Z</time><ele>422.8</ele></trkpt><trkpt lat="45.815017" lon="9.426912"><time>2024-03-23T12:49:51.000Z</time><ele>422.8</ele></trkpt><trkpt lat="45.815016" lon="9.426911"><time>2024-03-23T12:49:52.000Z</time><ele>422.8</ele></trkpt><trkpt lat="45.815016" lon="9.426911"><time>2024-03-23T12:49:53.000Z</time><ele>422.8</ele></trkpt><trkpt lat="45.815016" lon="9.426909"><time>2024-03-23T12:49:54.000Z</time><ele>423</ele></trkpt><trkpt lat="45.815015" lon="9.426909"><time>2024-03-23T12:49:55.000Z</time><ele>423</ele></trkpt><trkpt lat="45.815011" lon="9.426902"><time>2024-03-23T12:49:56.000Z</time><ele>423</ele></trkpt><trkpt lat="45.815008" lon="9.426895"><time>2024-03-23T12:49:57.000Z</time><ele>423</ele></trkpt><trkpt lat="45.815006" lon="9.426891"><time>2024-03-23T12:49:58.000Z</time><ele>423</ele></trkpt><trkpt lat="45.815002" lon="9.426886"><time>2024-03-23T12:49:59.000Z</time><ele>422.8</ele></trkpt><trkpt lat="45.815" lon="9.426882"><time>2024-03-23T12:50:00.000Z</time><ele>422.8</ele></trkpt><trkpt lat="45.814999" lon="9.426879"><time>2024-03-23T12:50:01.000Z</time><ele>422.8</ele></trkpt><trkpt lat="45.814999" lon="9.426876"><time>2024-03-23T12:50:02.000Z</time><ele>422.8</ele></trkpt><trkpt lat="45.814999" lon="9.426873"><time>2024-03-23T12:50:03.000Z</time><ele>422.8</ele></trkpt><trkpt lat="45.814998" lon="9.426872"><time>2024-03-23T12:50:04.000Z</time><ele>423</ele></trkpt><trkpt lat="45.814998" lon="9.426871"><time>2024-03-23T12:50:05.000Z</time><ele>423</ele></trkpt><trkpt lat="45.814998" lon="9.426871"><time>2024-03-23T12:50:06.000Z</time><ele>423</ele></trkpt><trkpt lat="45.814998" lon="9.426869"><time>2024-03-23T12:50:07.000Z</time><ele>423</ele></trkpt><trkpt lat="45.814998" lon="9.426868"><time>2024-03-23T12:50:08.000Z</time><ele>423</ele></trkpt><trkpt lat="45.814998" lon="9.426867"><time>2024-03-23T12:50:09.000Z</time><ele>423</ele></trkpt><trkpt lat="45.814998" lon="9.426867"><time>2024-03-23T12:50:10.000Z</time><ele>423</ele></trkpt><trkpt lat="45.814998" lon="9.426866"><time>2024-03-23T12:50:11.000Z</time><ele>423</ele></trkpt><trkpt lat="45.814998" lon="9.426866"><time>2024-03-23T12:50:12.000Z</time><ele>423</ele></trkpt><trkpt lat="45.814998" lon="9.426866"><time>2024-03-23T12:50:13.000Z</time><ele>423</ele></trkpt><trkpt lat="45.814997" lon="9.426865"><time>2024-03-23T12:50:14.000Z</time><ele>423</ele></trkpt><trkpt lat="45.814997" lon="9.426865"><time>2024-03-23T12:50:15.000Z</time><ele>423</ele></trkpt><trkpt lat="45.814997" lon="9.426865"><time>2024-03-23T12:50:16.000Z</time><ele>423</ele></trkpt><trkpt lat="45.814997" lon="9.426865"><time>2024-03-23T12:50:17.000Z</time><ele>423</ele></trkpt><trkpt lat="45.814997" lon="9.426864"><time>2024-03-23T12:50:18.000Z</time><ele>423</ele></trkpt><trkpt lat="45.814997" lon="9.426864"><time>2024-03-23T12:50:19.000Z</time><ele>423.2</ele></trkpt><trkpt lat="45.814997" lon="9.426864"><time>2024-03-23T12:50:20.000Z</time><ele>423.2</ele></trkpt><trkpt lat="45.814997" lon="9.426863"><time>2024-03-23T12:50:21.000Z</time><ele>423.4</ele></trkpt><trkpt lat="45.814997" lon="9.426863"><time>2024-03-23T12:50:22.000Z</time><ele>423.4</ele></trkpt><trkpt lat="45.814997" lon="9.426863"><time>2024-03-23T12:50:23.000Z</time><ele>423.4</ele></trkpt><trkpt lat="45.814997" lon="9.426862"><time>2024-03-23T12:50:24.000Z</time><ele>423.4</ele></trkpt><trkpt lat="45.814997" lon="9.426861"><time>2024-03-23T12:50:25.000Z</time><ele>423.4</ele></trkpt><trkpt lat="45.814997" lon="9.426861"><time>2024-03-23T12:50:26.000Z</time><ele>423.4</ele></trkpt><trkpt lat="45.814997" lon="9.42686"><time>2024-03-23T12:50:27.000Z</time><ele>423.4</ele></trkpt><trkpt lat="45.814997" lon="9.42686"><time>2024-03-23T12:50:28.000Z</time><ele>423.4</ele></trkpt><trkpt lat="45.814997" lon="9.42686"><time>2024-03-23T12:50:29.000Z</time><ele>423.4</ele></trkpt><trkpt lat="45.814997" lon="9.42686"><time>2024-03-23T12:50:30.000Z</time><ele>423.2</ele></trkpt><trkpt lat="45.814997" lon="9.42686"><time>2024-03-23T12:50:31.000Z</time><ele>423.2</ele></trkpt><trkpt lat="45.814997" lon="9.42686"><time>2024-03-23T12:50:32.000Z</time><ele>423.2</ele></trkpt><trkpt lat="45.814997" lon="9.42686"><time>2024-03-23T12:50:33.000Z</time><ele>423.4</ele></trkpt><trkpt lat="45.814997" lon="9.42686"><time>2024-03-23T12:50:34.000Z</time><ele>423.4</ele></trkpt><trkpt lat="45.814997" lon="9.42686"><time>2024-03-23T12:50:35.000Z</time><ele>423.4</ele></trkpt><trkpt lat="45.814997" lon="9.42686"><time>2024-03-23T12:50:36.000Z</time><ele>423.4</ele></trkpt><trkpt lat="45.814997" lon="9.42686"><time>2024-03-23T12:50:37.000Z</time><ele>423.4</ele></trkpt><trkpt lat="45.814997" lon="9.42686"><time>2024-03-23T12:50:38.000Z</time><ele>423.4</ele></trkpt><trkpt lat="45.814997" lon="9.42686"><time>2024-03-23T12:50:39.000Z</time><ele>423.4</ele></trkpt><trkpt lat="45.814998" lon="9.42686"><time>2024-03-23T12:50:40.000Z</time><ele>423.2</ele></trkpt><trkpt lat="45.814998" lon="9.426859"><time>2024-03-23T12:50:41.000Z</time><ele>423.2</ele></trkpt><trkpt lat="45.815" lon="9.426855"><time>2024-03-23T12:50:42.000Z</time><ele>423</ele></trkpt><trkpt lat="45.815003" lon="9.42685"><time>2024-03-23T12:50:43.000Z</time><ele>422.6</ele></trkpt><trkpt lat="45.815006" lon="9.426835"><time>2024-03-23T12:50:44.000Z</time><ele>422.4</ele></trkpt><trkpt lat="45.815007" lon="9.42682"><time>2024-03-23T12:50:45.000Z</time><ele>422.2</ele></trkpt><trkpt lat="45.815012" lon="9.426815"><time>2024-03-23T12:50:46.000Z</time><ele>422</ele></trkpt><trkpt lat="45.815015" lon="9.42681"><time>2024-03-23T12:50:47.000Z</time><ele>421.8</ele></trkpt><trkpt lat="45.815018" lon="9.426804"><time>2024-03-23T12:50:48.000Z</time><ele>421.6</ele></trkpt><trkpt lat="45.815019" lon="9.426793"><time>2024-03-23T12:50:49.000Z</time><ele>421.2</ele></trkpt><trkpt lat="45.815018" lon="9.426785"><time>2024-03-23T12:50:50.000Z</time><ele>421</ele></trkpt><trkpt lat="45.815014" lon="9.42677"><time>2024-03-23T12:50:51.000Z</time><ele>421</ele></trkpt><trkpt lat="45.815011" lon="9.426759"><time>2024-03-23T12:50:52.000Z</time><ele>420.8</ele></trkpt><trkpt lat="45.815007" lon="9.426747"><time>2024-03-23T12:50:53.000Z</time><ele>420.4</ele></trkpt><trkpt lat="45.815004" lon="9.426739"><time>2024-03-23T12:50:54.000Z</time><ele>420.2</ele></trkpt><trkpt lat="45.814999" lon="9.426736"><time>2024-03-23T12:50:55.000Z</time><ele>420</ele></trkpt><trkpt lat="45.814997" lon="9.426732"><time>2024-03-23T12:50:56.000Z</time><ele>419.8</ele></trkpt><trkpt lat="45.814996" lon="9.426725"><time>2024-03-23T12:50:57.000Z</time><ele>419.6</ele></trkpt><trkpt lat="45.814994" lon="9.426719"><time>2024-03-23T12:50:58.000Z</time><ele>419.4</ele></trkpt><trkpt lat="45.814989" lon="9.426716"><time>2024-03-23T12:50:59.000Z</time><ele>419</ele></trkpt><trkpt lat="45.814987" lon="9.426714"><time>2024-03-23T12:51:00.000Z</time><ele>419</ele></trkpt><trkpt lat="45.814984" lon="9.42671"><time>2024-03-23T12:51:01.000Z</time><ele>418.8</ele></trkpt><trkpt lat="45.814981" lon="9.426707"><time>2024-03-23T12:51:02.000Z</time><ele>418.6</ele></trkpt><trkpt lat="45.814977" lon="9.426703"><time>2024-03-23T12:51:03.000Z</time><ele>418.4</ele></trkpt><trkpt lat="45.814976" lon="9.426695"><time>2024-03-23T12:51:04.000Z</time><ele>418.2</ele></trkpt><trkpt lat="45.814973" lon="9.42669"><time>2024-03-23T12:51:05.000Z</time><ele>418</ele></trkpt><trkpt lat="45.814974" lon="9.426687"><time>2024-03-23T12:51:06.000Z</time><ele>418</ele></trkpt><trkpt lat="45.814973" lon="9.426683"><time>2024-03-23T12:51:07.000Z</time><ele>417.8</ele></trkpt><trkpt lat="45.814972" lon="9.426679"><time>2024-03-23T12:51:08.000Z</time><ele>417.6</ele></trkpt><trkpt lat="45.814972" lon="9.426677"><time>2024-03-23T12:51:09.000Z</time><ele>417.4</ele></trkpt><trkpt lat="45.814975" lon="9.426676"><time>2024-03-23T12:51:10.000Z</time><ele>417.2</ele></trkpt><trkpt lat="45.814976" lon="9.42667"><time>2024-03-23T12:51:11.000Z</time><ele>416.8</ele></trkpt><trkpt lat="45.814978" lon="9.426662"><time>2024-03-23T12:51:12.000Z</time><ele>416.6</ele></trkpt><trkpt lat="45.814981" lon="9.426654"><time>2024-03-23T12:51:13.000Z</time><ele>416.2</ele></trkpt><trkpt lat="45.814986" lon="9.426649"><time>2024-03-23T12:51:14.000Z</time><ele>416.2</ele></trkpt><trkpt lat="45.814992" lon="9.426639"><time>2024-03-23T12:51:15.000Z</time><ele>416</ele></trkpt><trkpt lat="45.814995" lon="9.42663"><time>2024-03-23T12:51:16.000Z</time><ele>415.8</ele></trkpt><trkpt lat="45.814999" lon="9.426624"><time>2024-03-23T12:51:17.000Z</time><ele>415.8</ele></trkpt><trkpt lat="45.81499" lon="9.426617"><time>2024-03-23T12:51:18.000Z</time><ele>415.4</ele></trkpt><trkpt lat="45.814977" lon="9.426602"><time>2024-03-23T12:51:19.000Z</time><ele>415.2</ele></trkpt><trkpt lat="45.814971" lon="9.426589"><time>2024-03-23T12:51:20.000Z</time><ele>415</ele></trkpt><trkpt lat="45.814973" lon="9.42658"><time>2024-03-23T12:51:21.000Z</time><ele>414.8</ele></trkpt><trkpt lat="45.814976" lon="9.426574"><time>2024-03-23T12:51:22.000Z</time><ele>414.6</ele></trkpt><trkpt lat="45.814983" lon="9.426567"><time>2024-03-23T12:51:23.000Z</time><ele>414.2</ele></trkpt><trkpt lat="45.814978" lon="9.426558"><time>2024-03-23T12:51:24.000Z</time><ele>414</ele></trkpt><trkpt lat="45.814974" lon="9.426553"><time>2024-03-23T12:51:25.000Z</time><ele>413.8</ele></trkpt><trkpt lat="45.814965" lon="9.426554"><time>2024-03-23T12:51:26.000Z</time><ele>413.6</ele></trkpt><trkpt lat="45.814961" lon="9.426562"><time>2024-03-23T12:51:27.000Z</time><ele>413.4</ele></trkpt><trkpt lat="45.814958" lon="9.426569"><time>2024-03-23T12:51:28.000Z</time><ele>413.2</ele></trkpt><trkpt lat="45.814957" lon="9.426575"><time>2024-03-23T12:51:29.000Z</time><ele>413</ele></trkpt><trkpt lat="45.814956" lon="9.42658"><time>2024-03-23T12:51:30.000Z</time><ele>412.8</ele></trkpt><trkpt lat="45.814951" lon="9.42659"><time>2024-03-23T12:51:31.000Z</time><ele>412.4</ele></trkpt><trkpt lat="45.814956" lon="9.426595"><time>2024-03-23T12:51:32.000Z</time><ele>412.2</ele></trkpt><trkpt lat="45.814958" lon="9.426608"><time>2024-03-23T12:51:33.000Z</time><ele>412</ele></trkpt><trkpt lat="45.814957" lon="9.426617"><time>2024-03-23T12:51:34.000Z</time><ele>411.8</ele></trkpt><trkpt lat="45.814957" lon="9.426625"><time>2024-03-23T12:51:35.000Z</time><ele>411.6</ele></trkpt><trkpt lat="45.814956" lon="9.426632"><time>2024-03-23T12:51:36.000Z</time><ele>411.4</ele></trkpt><trkpt lat="45.814956" lon="9.426642"><time>2024-03-23T12:51:37.000Z</time><ele>411.2</ele></trkpt><trkpt lat="45.814952" lon="9.426651"><time>2024-03-23T12:51:38.000Z</time><ele>410.8</ele></trkpt><trkpt lat="45.814951" lon="9.426659"><time>2024-03-23T12:51:39.000Z</time><ele>410.6</ele></trkpt><trkpt lat="45.814946" lon="9.426663"><time>2024-03-23T12:51:40.000Z</time><ele>410.4</ele></trkpt><trkpt lat="45.81495" lon="9.42667"><time>2024-03-23T12:51:41.000Z</time><ele>410.2</ele></trkpt><trkpt lat="45.814953" lon="9.426675"><time>2024-03-23T12:51:42.000Z</time><ele>409.8</ele></trkpt><trkpt lat="45.814948" lon="9.426685"><time>2024-03-23T12:51:43.000Z</time><ele>409.6</ele></trkpt><trkpt lat="45.81494" lon="9.426691"><time>2024-03-23T12:51:44.000Z</time><ele>409.6</ele></trkpt><trkpt lat="45.81493" lon="9.426698"><time>2024-03-23T12:51:45.000Z</time><ele>409.2</ele></trkpt><trkpt lat="45.814928" lon="9.426702"><time>2024-03-23T12:51:46.000Z</time><ele>409</ele></trkpt><trkpt lat="45.814929" lon="9.426708"><time>2024-03-23T12:51:47.000Z</time><ele>409</ele></trkpt><trkpt lat="45.814932" lon="9.426712"><time>2024-03-23T12:51:48.000Z</time><ele>408.8</ele></trkpt><trkpt lat="45.814932" lon="9.426714"><time>2024-03-23T12:51:49.000Z</time><ele>408.8</ele></trkpt><trkpt lat="45.814931" lon="9.426714"><time>2024-03-23T12:51:50.000Z</time><ele>408.6</ele></trkpt><trkpt lat="45.814931" lon="9.426715"><time>2024-03-23T12:51:51.000Z</time><ele>408.6</ele></trkpt><trkpt lat="45.814931" lon="9.426715"><time>2024-03-23T12:51:52.000Z</time><ele>408.6</ele></trkpt><trkpt lat="45.814929" lon="9.426718"><time>2024-03-23T12:51:53.000Z</time><ele>408.4</ele></trkpt><trkpt lat="45.814926" lon="9.426718"><time>2024-03-23T12:51:54.000Z</time><ele>408.4</ele></trkpt><trkpt lat="45.814924" lon="9.426717"><time>2024-03-23T12:51:55.000Z</time><ele>408.4</ele></trkpt><trkpt lat="45.814923" lon="9.426718"><time>2024-03-23T12:51:56.000Z</time><ele>408.4</ele></trkpt><trkpt lat="45.814923" lon="9.426718"><time>2024-03-23T12:51:57.000Z</time><ele>408.4</ele></trkpt><trkpt lat="45.814923" lon="9.426718"><time>2024-03-23T12:51:58.000Z</time><ele>408.4</ele></trkpt><trkpt lat="45.814923" lon="9.426718"><time>2024-03-23T12:51:59.000Z</time><ele>408.4</ele></trkpt><trkpt lat="45.814923" lon="9.426718"><time>2024-03-23T12:52:00.000Z</time><ele>408.2</ele></trkpt><trkpt lat="45.814923" lon="9.426718"><time>2024-03-23T12:52:01.000Z</time><ele>408</ele></trkpt><trkpt lat="45.814923" lon="9.426718"><time>2024-03-23T12:52:02.000Z</time><ele>408</ele></trkpt><trkpt lat="45.814923" lon="9.426718"><time>2024-03-23T12:52:03.000Z</time><ele>407.8</ele></trkpt><trkpt lat="45.814923" lon="9.426718"><time>2024-03-23T12:52:04.000Z</time><ele>407.6</ele></trkpt><trkpt lat="45.814923" lon="9.426718"><time>2024-03-23T12:52:05.000Z</time><ele>407.4</ele></trkpt><trkpt lat="45.814923" lon="9.426718"><time>2024-03-23T12:52:06.000Z</time><ele>407.2</ele></trkpt><trkpt lat="45.814923" lon="9.426718"><time>2024-03-23T12:52:07.000Z</time><ele>407</ele></trkpt><trkpt lat="45.814923" lon="9.426718"><time>2024-03-23T12:52:08.000Z</time><ele>407</ele></trkpt><trkpt lat="45.814923" lon="9.426718"><time>2024-03-23T12:52:09.000Z</time><ele>406.8</ele></trkpt><trkpt lat="45.814923" lon="9.426718"><time>2024-03-23T12:52:10.000Z</time><ele>406.8</ele></trkpt><trkpt lat="45.814923" lon="9.426718"><time>2024-03-23T12:52:11.000Z</time><ele>406.6</ele></trkpt><trkpt lat="45.814923" lon="9.42672"><time>2024-03-23T12:52:12.000Z</time><ele>406.4</ele></trkpt><trkpt lat="45.814923" lon="9.426721"><time>2024-03-23T12:52:13.000Z</time><ele>406.2</ele></trkpt><trkpt lat="45.814921" lon="9.426721"><time>2024-03-23T12:52:14.000Z</time><ele>405.8</ele></trkpt><trkpt lat="45.81492" lon="9.426721"><time>2024-03-23T12:52:15.000Z</time><ele>405.6</ele></trkpt><trkpt lat="45.81492" lon="9.426721"><time>2024-03-23T12:52:16.000Z</time><ele>405.4</ele></trkpt><trkpt lat="45.814916" lon="9.426721"><time>2024-03-23T12:52:17.000Z</time><ele>405.2</ele></trkpt><trkpt lat="45.814914" lon="9.426721"><time>2024-03-23T12:52:18.000Z</time><ele>405.2</ele></trkpt><trkpt lat="45.814911" lon="9.426721"><time>2024-03-23T12:52:19.000Z</time><ele>405.2</ele></trkpt><trkpt lat="45.81491" lon="9.426721"><time>2024-03-23T12:52:20.000Z</time><ele>405</ele></trkpt><trkpt lat="45.81491" lon="9.426721"><time>2024-03-23T12:52:21.000Z</time><ele>405</ele></trkpt><trkpt lat="45.814908" lon="9.426721"><time>2024-03-23T12:52:22.000Z</time><ele>405</ele></trkpt><trkpt lat="45.814907" lon="9.426721"><time>2024-03-23T12:52:23.000Z</time><ele>405</ele></trkpt><trkpt lat="45.814906" lon="9.426721"><time>2024-03-23T12:52:24.000Z</time><ele>405</ele></trkpt><trkpt lat="45.814905" lon="9.426721"><time>2024-03-23T12:52:25.000Z</time><ele>405</ele></trkpt><trkpt lat="45.814905" lon="9.426721"><time>2024-03-23T12:52:26.000Z</time><ele>404.8</ele></trkpt><trkpt lat="45.814905" lon="9.42672"><time>2024-03-23T12:52:27.000Z</time><ele>404.8</ele></trkpt><trkpt lat="45.814905" lon="9.426707"><time>2024-03-23T12:52:28.000Z</time><ele>404.6</ele></trkpt><trkpt lat="45.814903" lon="9.426699"><time>2024-03-23T12:52:29.000Z</time><ele>404.2</ele></trkpt><trkpt lat="45.814896" lon="9.426683"><time>2024-03-23T12:52:30.000Z</time><ele>404</ele></trkpt><trkpt lat="45.814892" lon="9.426666"><time>2024-03-23T12:52:31.000Z</time><ele>403.8</ele></trkpt><trkpt lat="45.81489" lon="9.426647"><time>2024-03-23T12:52:32.000Z</time><ele>403.6</ele></trkpt><trkpt lat="45.814887" lon="9.426625"><time>2024-03-23T12:52:33.000Z</time><ele>403.2</ele></trkpt><trkpt lat="45.814884" lon="9.426608"><time>2024-03-23T12:52:34.000Z</time><ele>403</ele></trkpt><trkpt lat="45.814881" lon="9.42659"><time>2024-03-23T12:52:35.000Z</time><ele>402.6</ele></trkpt><trkpt lat="45.814881" lon="9.426568"><time>2024-03-23T12:52:36.000Z</time><ele>402.4</ele></trkpt><trkpt lat="45.81488" lon="9.426554"><time>2024-03-23T12:52:37.000Z</time><ele>402.2</ele></trkpt><trkpt lat="45.814878" lon="9.426541"><time>2024-03-23T12:52:38.000Z</time><ele>402</ele></trkpt><trkpt lat="45.81488" lon="9.426534"><time>2024-03-23T12:52:39.000Z</time><ele>401.6</ele></trkpt><trkpt lat="45.814879" lon="9.426528"><time>2024-03-23T12:52:40.000Z</time><ele>401.4</ele></trkpt><trkpt lat="45.81488" lon="9.42652"><time>2024-03-23T12:52:41.000Z</time><ele>401.2</ele></trkpt><trkpt lat="45.814882" lon="9.426513"><time>2024-03-23T12:52:42.000Z</time><ele>400.8</ele></trkpt><trkpt lat="45.814885" lon="9.426506"><time>2024-03-23T12:52:43.000Z</time><ele>400.4</ele></trkpt><trkpt lat="45.814885" lon="9.426497"><time>2024-03-23T12:52:44.000Z</time><ele>400.4</ele></trkpt><trkpt lat="45.814886" lon="9.426493"><time>2024-03-23T12:52:45.000Z</time><ele>400</ele></trkpt><trkpt lat="45.814885" lon="9.426486"><time>2024-03-23T12:52:46.000Z</time><ele>399.4</ele></trkpt><trkpt lat="45.814886" lon="9.426479"><time>2024-03-23T12:52:47.000Z</time><ele>399.2</ele></trkpt><trkpt lat="45.814885" lon="9.426471"><time>2024-03-23T12:52:48.000Z</time><ele>398.8</ele></trkpt><trkpt lat="45.814892" lon="9.426463"><time>2024-03-23T12:52:49.000Z</time><ele>398.4</ele></trkpt><trkpt lat="45.814894" lon="9.426452"><time>2024-03-23T12:52:50.000Z</time><ele>398.2</ele></trkpt><trkpt lat="45.814894" lon="9.426444"><time>2024-03-23T12:52:51.000Z</time><ele>398</ele></trkpt><trkpt lat="45.814899" lon="9.426436"><time>2024-03-23T12:52:52.000Z</time><ele>397.6</ele></trkpt><trkpt lat="45.814911" lon="9.426436"><time>2024-03-23T12:52:53.000Z</time><ele>397.4</ele></trkpt><trkpt lat="45.814914" lon="9.426437"><time>2024-03-23T12:52:54.000Z</time><ele>397.2</ele></trkpt><trkpt lat="45.814916" lon="9.426437"><time>2024-03-23T12:52:55.000Z</time><ele>397</ele></trkpt><trkpt lat="45.814925" lon="9.426429"><time>2024-03-23T12:52:56.000Z</time><ele>396.8</ele></trkpt><trkpt lat="45.814928" lon="9.426414"><time>2024-03-23T12:52:57.000Z</time><ele>396.4</ele></trkpt><trkpt lat="45.814929" lon="9.426398"><time>2024-03-23T12:52:58.000Z</time><ele>396</ele></trkpt><trkpt lat="45.814927" lon="9.426383"><time>2024-03-23T12:52:59.000Z</time><ele>395.6</ele></trkpt><trkpt lat="45.81493" lon="9.426372"><time>2024-03-23T12:53:00.000Z</time><ele>395.2</ele></trkpt><trkpt lat="45.814932" lon="9.426367"><time>2024-03-23T12:53:01.000Z</time><ele>394.8</ele></trkpt><trkpt lat="45.814936" lon="9.426359"><time>2024-03-23T12:53:02.000Z</time><ele>394.6</ele></trkpt><trkpt lat="45.814937" lon="9.426351"><time>2024-03-23T12:53:03.000Z</time><ele>394.4</ele></trkpt><trkpt lat="45.814936" lon="9.42634"><time>2024-03-23T12:53:04.000Z</time><ele>394.2</ele></trkpt><trkpt lat="45.814938" lon="9.426329"><time>2024-03-23T12:53:05.000Z</time><ele>393.8</ele></trkpt><trkpt lat="45.81494" lon="9.426314"><time>2024-03-23T12:53:06.000Z</time><ele>393.4</ele></trkpt><trkpt lat="45.81494" lon="9.426297"><time>2024-03-23T12:53:07.000Z</time><ele>393</ele></trkpt><trkpt lat="45.814941" lon="9.426284"><time>2024-03-23T12:53:08.000Z</time><ele>392.8</ele></trkpt><trkpt lat="45.814941" lon="9.426279"><time>2024-03-23T12:53:09.000Z</time><ele>392.6</ele></trkpt><trkpt lat="45.814943" lon="9.42628"><time>2024-03-23T12:53:10.000Z</time><ele>392.4</ele></trkpt><trkpt lat="45.814942" lon="9.426282"><time>2024-03-23T12:53:11.000Z</time><ele>392.2</ele></trkpt><trkpt lat="45.814941" lon="9.426275"><time>2024-03-23T12:53:12.000Z</time><ele>391.8</ele></trkpt><trkpt lat="45.814938" lon="9.426269"><time>2024-03-23T12:53:13.000Z</time><ele>391.6</ele></trkpt><trkpt lat="45.814939" lon="9.426262"><time>2024-03-23T12:53:14.000Z</time><ele>391.2</ele></trkpt><trkpt lat="45.814937" lon="9.426256"><time>2024-03-23T12:53:15.000Z</time><ele>390.8</ele></trkpt><trkpt lat="45.814937" lon="9.426246"><time>2024-03-23T12:53:16.000Z</time><ele>390.8</ele></trkpt><trkpt lat="45.814941" lon="9.426238"><time>2024-03-23T12:53:17.000Z</time><ele>390.6</ele></trkpt><trkpt lat="45.814947" lon="9.426231"><time>2024-03-23T12:53:18.000Z</time><ele>390.2</ele></trkpt><trkpt lat="45.814947" lon="9.426218"><time>2024-03-23T12:53:19.000Z</time><ele>390</ele></trkpt><trkpt lat="45.81495" lon="9.42621"><time>2024-03-23T12:53:20.000Z</time><ele>389.8</ele></trkpt><trkpt lat="45.814952" lon="9.426206"><time>2024-03-23T12:53:21.000Z</time><ele>389.6</ele></trkpt><trkpt lat="45.814952" lon="9.426203"><time>2024-03-23T12:53:22.000Z</time><ele>389.4</ele></trkpt><trkpt lat="45.814953" lon="9.4262"><time>2024-03-23T12:53:23.000Z</time><ele>389.4</ele></trkpt><trkpt lat="45.814952" lon="9.426199"><time>2024-03-23T12:53:24.000Z</time><ele>389.4</ele></trkpt><trkpt lat="45.814951" lon="9.426198"><time>2024-03-23T12:53:25.000Z</time><ele>389.2</ele></trkpt><trkpt lat="45.814949" lon="9.426197"><time>2024-03-23T12:53:26.000Z</time><ele>389.2</ele></trkpt><trkpt lat="45.814949" lon="9.426196"><time>2024-03-23T12:53:27.000Z</time><ele>389.2</ele></trkpt><trkpt lat="45.814949" lon="9.426197"><time>2024-03-23T12:53:28.000Z</time><ele>389.2</ele></trkpt><trkpt lat="45.814953" lon="9.426193"><time>2024-03-23T12:53:29.000Z</time><ele>389.2</ele></trkpt><trkpt lat="45.814954" lon="9.426192"><time>2024-03-23T12:53:30.000Z</time><ele>389</ele></trkpt><trkpt lat="45.814954" lon="9.426192"><time>2024-03-23T12:53:31.000Z</time><ele>389</ele></trkpt><trkpt lat="45.814954" lon="9.426192"><time>2024-03-23T12:53:32.000Z</time><ele>388.8</ele></trkpt><trkpt lat="45.814954" lon="9.426192"><time>2024-03-23T12:53:33.000Z</time><ele>388.8</ele></trkpt><trkpt lat="45.814954" lon="9.426192"><time>2024-03-23T12:53:34.000Z</time><ele>388.6</ele></trkpt><trkpt lat="45.814954" lon="9.426192"><time>2024-03-23T12:53:35.000Z</time><ele>388.4</ele></trkpt><trkpt lat="45.814954" lon="9.426192"><time>2024-03-23T12:53:36.000Z</time><ele>388.4</ele></trkpt><trkpt lat="45.814954" lon="9.426192"><time>2024-03-23T12:53:37.000Z</time><ele>388.4</ele></trkpt><trkpt lat="45.814954" lon="9.426192"><time>2024-03-23T12:53:38.000Z</time><ele>388.4</ele></trkpt><trkpt lat="45.814954" lon="9.426192"><time>2024-03-23T12:53:39.000Z</time><ele>388.4</ele></trkpt><trkpt lat="45.814954" lon="9.426192"><time>2024-03-23T12:53:40.000Z</time><ele>388.4</ele></trkpt><trkpt lat="45.814954" lon="9.426192"><time>2024-03-23T12:53:41.000Z</time><ele>388.4</ele></trkpt><trkpt lat="45.814954" lon="9.426192"><time>2024-03-23T12:53:42.000Z</time><ele>388.4</ele></trkpt><trkpt lat="45.814954" lon="9.426192"><time>2024-03-23T12:53:43.000Z</time><ele>388.4</ele></trkpt><trkpt lat="45.814954" lon="9.426192"><time>2024-03-23T12:53:44.000Z</time><ele>388.4</ele></trkpt><trkpt lat="45.814954" lon="9.426192"><time>2024-03-23T12:53:45.000Z</time><ele>388.4</ele></trkpt><trkpt lat="45.814954" lon="9.426184"><time>2024-03-23T12:53:46.000Z</time><ele>388.2</ele></trkpt><trkpt lat="45.814954" lon="9.426178"><time>2024-03-23T12:53:47.000Z</time><ele>388.2</ele></trkpt><trkpt lat="45.814952" lon="9.42617"><time>2024-03-23T12:53:48.000Z</time><ele>388</ele></trkpt><trkpt lat="45.814947" lon="9.426169"><time>2024-03-23T12:53:49.000Z</time><ele>387.8</ele></trkpt><trkpt lat="45.814946" lon="9.426167"><time>2024-03-23T12:53:50.000Z</time><ele>387.6</ele></trkpt><trkpt lat="45.814943" lon="9.426165"><time>2024-03-23T12:53:51.000Z</time><ele>387.4</ele></trkpt><trkpt lat="45.814941" lon="9.426163"><time>2024-03-23T12:53:52.000Z</time><ele>387</ele></trkpt><trkpt lat="45.81494" lon="9.426164"><time>2024-03-23T12:53:53.000Z</time><ele>386.6</ele></trkpt><trkpt lat="45.814937" lon="9.426164"><time>2024-03-23T12:53:54.000Z</time><ele>386.4</ele></trkpt><trkpt lat="45.814932" lon="9.426159"><time>2024-03-23T12:53:55.000Z</time><ele>386</ele></trkpt><trkpt lat="45.814927" lon="9.426155"><time>2024-03-23T12:53:56.000Z</time><ele>385.8</ele></trkpt><trkpt lat="45.814917" lon="9.426143"><time>2024-03-23T12:53:57.000Z</time><ele>385.6</ele></trkpt><trkpt lat="45.814907" lon="9.426126"><time>2024-03-23T12:53:58.000Z</time><ele>385.2</ele></trkpt><trkpt lat="45.8149" lon="9.426111"><time>2024-03-23T12:53:59.000Z</time><ele>385.2</ele></trkpt><trkpt lat="45.814898" lon="9.4261"><time>2024-03-23T12:54:00.000Z</time><ele>384.8</ele></trkpt><trkpt lat="45.814897" lon="9.426088"><time>2024-03-23T12:54:01.000Z</time><ele>384.6</ele></trkpt><trkpt lat="45.814903" lon="9.426071"><time>2024-03-23T12:54:02.000Z</time><ele>384.4</ele></trkpt><trkpt lat="45.814905" lon="9.426063"><time>2024-03-23T12:54:03.000Z</time><ele>384.2</ele></trkpt><trkpt lat="45.814904" lon="9.426049"><time>2024-03-23T12:54:04.000Z</time><ele>383.8</ele></trkpt><trkpt lat="45.814903" lon="9.426047"><time>2024-03-23T12:54:05.000Z</time><ele>383.4</ele></trkpt><trkpt lat="45.814901" lon="9.426041"><time>2024-03-23T12:54:06.000Z</time><ele>383</ele></trkpt><trkpt lat="45.814897" lon="9.42603"><time>2024-03-23T12:54:07.000Z</time><ele>382.6</ele></trkpt><trkpt lat="45.814895" lon="9.426024"><time>2024-03-23T12:54:08.000Z</time><ele>382.2</ele></trkpt><trkpt lat="45.814895" lon="9.426014"><time>2024-03-23T12:54:09.000Z</time><ele>382</ele></trkpt><trkpt lat="45.814891" lon="9.426008"><time>2024-03-23T12:54:10.000Z</time><ele>381.6</ele></trkpt><trkpt lat="45.814884" lon="9.426003"><time>2024-03-23T12:54:11.000Z</time><ele>381.4</ele></trkpt><trkpt lat="45.81488" lon="9.425995"><time>2024-03-23T12:54:12.000Z</time><ele>380.8</ele></trkpt><trkpt lat="45.814873" lon="9.425993"><time>2024-03-23T12:54:13.000Z</time><ele>380.4</ele></trkpt><trkpt lat="45.814863" lon="9.425994"><time>2024-03-23T12:54:14.000Z</time><ele>380.2</ele></trkpt><trkpt lat="45.814859" lon="9.425999"><time>2024-03-23T12:54:15.000Z</time><ele>379.8</ele></trkpt><trkpt lat="45.814854" lon="9.426006"><time>2024-03-23T12:54:16.000Z</time><ele>379.6</ele></trkpt><trkpt lat="45.814849" lon="9.426015"><time>2024-03-23T12:54:17.000Z</time><ele>379.4</ele></trkpt><trkpt lat="45.814845" lon="9.426022"><time>2024-03-23T12:54:18.000Z</time><ele>379.2</ele></trkpt><trkpt lat="45.814841" lon="9.426027"><time>2024-03-23T12:54:19.000Z</time><ele>379</ele></trkpt><trkpt lat="45.814835" lon="9.426035"><time>2024-03-23T12:54:20.000Z</time><ele>378.8</ele></trkpt><trkpt lat="45.814829" lon="9.42604"><time>2024-03-23T12:54:21.000Z</time><ele>378.6</ele></trkpt><trkpt lat="45.814823" lon="9.426049"><time>2024-03-23T12:54:22.000Z</time><ele>378.4</ele></trkpt><trkpt lat="45.814816" lon="9.42606"><time>2024-03-23T12:54:23.000Z</time><ele>378.2</ele></trkpt><trkpt lat="45.814811" lon="9.42607"><time>2024-03-23T12:54:24.000Z</time><ele>378</ele></trkpt><trkpt lat="45.814808" lon="9.426083"><time>2024-03-23T12:54:25.000Z</time><ele>377.6</ele></trkpt><trkpt lat="45.814806" lon="9.4261"><time>2024-03-23T12:54:26.000Z</time><ele>377.4</ele></trkpt><trkpt lat="45.814803" lon="9.426115"><time>2024-03-23T12:54:27.000Z</time><ele>377</ele></trkpt><trkpt lat="45.814799" lon="9.426107"><time>2024-03-23T12:54:28.000Z</time><ele>377</ele></trkpt><trkpt lat="45.814796" lon="9.426105"><time>2024-03-23T12:54:29.000Z</time><ele>376.6</ele></trkpt><trkpt lat="45.814793" lon="9.426105"><time>2024-03-23T12:54:30.000Z</time><ele>376.4</ele></trkpt><trkpt lat="45.814791" lon="9.426113"><time>2024-03-23T12:54:31.000Z</time><ele>376.2</ele></trkpt><trkpt lat="45.814793" lon="9.426121"><time>2024-03-23T12:54:32.000Z</time><ele>375.8</ele></trkpt><trkpt lat="45.814791" lon="9.426134"><time>2024-03-23T12:54:33.000Z</time><ele>375.8</ele></trkpt><trkpt lat="45.814788" lon="9.426145"><time>2024-03-23T12:54:34.000Z</time><ele>375.6</ele></trkpt><trkpt lat="45.814785" lon="9.426158"><time>2024-03-23T12:54:35.000Z</time><ele>375.2</ele></trkpt><trkpt lat="45.814779" lon="9.426172"><time>2024-03-23T12:54:36.000Z</time><ele>375</ele></trkpt><trkpt lat="45.814773" lon="9.426185"><time>2024-03-23T12:54:37.000Z</time><ele>374.8</ele></trkpt><trkpt lat="45.814764" lon="9.4262"><time>2024-03-23T12:54:38.000Z</time><ele>374.4</ele></trkpt><trkpt lat="45.814763" lon="9.426208"><time>2024-03-23T12:54:39.000Z</time><ele>374.2</ele></trkpt><trkpt lat="45.814758" lon="9.426217"><time>2024-03-23T12:54:40.000Z</time><ele>374</ele></trkpt><trkpt lat="45.814754" lon="9.426223"><time>2024-03-23T12:54:41.000Z</time><ele>373.6</ele></trkpt><trkpt lat="45.814749" lon="9.426228"><time>2024-03-23T12:54:42.000Z</time><ele>373.4</ele></trkpt><trkpt lat="45.814742" lon="9.426237"><time>2024-03-23T12:54:43.000Z</time><ele>373.2</ele></trkpt><trkpt lat="45.814736" lon="9.426247"><time>2024-03-23T12:54:44.000Z</time><ele>373</ele></trkpt><trkpt lat="45.814732" lon="9.426259"><time>2024-03-23T12:54:45.000Z</time><ele>372.8</ele></trkpt><trkpt lat="45.814729" lon="9.426269"><time>2024-03-23T12:54:46.000Z</time><ele>372.6</ele></trkpt><trkpt lat="45.814724" lon="9.426275"><time>2024-03-23T12:54:47.000Z</time><ele>372.4</ele></trkpt><trkpt lat="45.814722" lon="9.42628"><time>2024-03-23T12:54:48.000Z</time><ele>372.2</ele></trkpt><trkpt lat="45.814717" lon="9.426288"><time>2024-03-23T12:54:49.000Z</time><ele>371.8</ele></trkpt><trkpt lat="45.814713" lon="9.426299"><time>2024-03-23T12:54:50.000Z</time><ele>371.8</ele></trkpt><trkpt lat="45.814709" lon="9.426312"><time>2024-03-23T12:54:51.000Z</time><ele>371.6</ele></trkpt><trkpt lat="45.814703" lon="9.426326"><time>2024-03-23T12:54:52.000Z</time><ele>371.2</ele></trkpt><trkpt lat="45.814698" lon="9.426334"><time>2024-03-23T12:54:53.000Z</time><ele>371</ele></trkpt><trkpt lat="45.814691" lon="9.426342"><time>2024-03-23T12:54:54.000Z</time><ele>370.8</ele></trkpt><trkpt lat="45.814681" lon="9.426349"><time>2024-03-23T12:54:55.000Z</time><ele>370.6</ele></trkpt><trkpt lat="45.814675" lon="9.426356"><time>2024-03-23T12:54:56.000Z</time><ele>370.4</ele></trkpt><trkpt lat="45.814671" lon="9.426363"><time>2024-03-23T12:54:57.000Z</time><ele>370.2</ele></trkpt><trkpt lat="45.814664" lon="9.426372"><time>2024-03-23T12:54:58.000Z</time><ele>370</ele></trkpt><trkpt lat="45.814659" lon="9.426381"><time>2024-03-23T12:54:59.000Z</time><ele>369.6</ele></trkpt><trkpt lat="45.814652" lon="9.42639"><time>2024-03-23T12:55:00.000Z</time><ele>369.6</ele></trkpt><trkpt lat="45.814649" lon="9.426393"><time>2024-03-23T12:55:01.000Z</time><ele>369.2</ele></trkpt><trkpt lat="45.814649" lon="9.426398"><time>2024-03-23T12:55:02.000Z</time><ele>369</ele></trkpt><trkpt lat="45.814649" lon="9.426405"><time>2024-03-23T12:55:03.000Z</time><ele>368.8</ele></trkpt><trkpt lat="45.814648" lon="9.42641"><time>2024-03-23T12:55:04.000Z</time><ele>368.6</ele></trkpt><trkpt lat="45.814644" lon="9.426418"><time>2024-03-23T12:55:05.000Z</time><ele>368.6</ele></trkpt><trkpt lat="45.814639" lon="9.426428"><time>2024-03-23T12:55:06.000Z</time><ele>368.4</ele></trkpt><trkpt lat="45.81463" lon="9.426435"><time>2024-03-23T12:55:07.000Z</time><ele>368.2</ele></trkpt><trkpt lat="45.81462" lon="9.426443"><time>2024-03-23T12:55:08.000Z</time><ele>368</ele></trkpt><trkpt lat="45.814613" lon="9.426455"><time>2024-03-23T12:55:09.000Z</time><ele>368</ele></trkpt><trkpt lat="45.814607" lon="9.426467"><time>2024-03-23T12:55:10.000Z</time><ele>367.8</ele></trkpt><trkpt lat="45.814601" lon="9.426476"><time>2024-03-23T12:55:11.000Z</time><ele>367.6</ele></trkpt><trkpt lat="45.814598" lon="9.426484"><time>2024-03-23T12:55:12.000Z</time><ele>367.4</ele></trkpt><trkpt lat="45.814596" lon="9.426492"><time>2024-03-23T12:55:13.000Z</time><ele>367.2</ele></trkpt><trkpt lat="45.814592" lon="9.426504"><time>2024-03-23T12:55:14.000Z</time><ele>367</ele></trkpt><trkpt lat="45.814589" lon="9.426518"><time>2024-03-23T12:55:15.000Z</time><ele>367</ele></trkpt><trkpt lat="45.814584" lon="9.426534"><time>2024-03-23T12:55:16.000Z</time><ele>366.6</ele></trkpt><trkpt lat="45.814581" lon="9.42655"><time>2024-03-23T12:55:17.000Z</time><ele>366.4</ele></trkpt><trkpt lat="45.814581" lon="9.426563"><time>2024-03-23T12:55:18.000Z</time><ele>366.2</ele></trkpt><trkpt lat="45.81458" lon="9.426575"><time>2024-03-23T12:55:19.000Z</time><ele>366.2</ele></trkpt><trkpt lat="45.814576" lon="9.426583"><time>2024-03-23T12:55:20.000Z</time><ele>366</ele></trkpt><trkpt lat="45.814572" lon="9.426595"><time>2024-03-23T12:55:21.000Z</time><ele>365.8</ele></trkpt><trkpt lat="45.81457" lon="9.426602"><time>2024-03-23T12:55:22.000Z</time><ele>365.6</ele></trkpt><trkpt lat="45.814568" lon="9.426604"><time>2024-03-23T12:55:23.000Z</time><ele>365.6</ele></trkpt><trkpt lat="45.814567" lon="9.426607"><time>2024-03-23T12:55:24.000Z</time><ele>365.4</ele></trkpt><trkpt lat="45.814563" lon="9.426614"><time>2024-03-23T12:55:25.000Z</time><ele>365.4</ele></trkpt><trkpt lat="45.81456" lon="9.426624"><time>2024-03-23T12:55:26.000Z</time><ele>365.4</ele></trkpt><trkpt lat="45.814555" lon="9.426634"><time>2024-03-23T12:55:27.000Z</time><ele>365.2</ele></trkpt><trkpt lat="45.814552" lon="9.426642"><time>2024-03-23T12:55:28.000Z</time><ele>365.2</ele></trkpt><trkpt lat="45.814548" lon="9.426652"><time>2024-03-23T12:55:29.000Z</time><ele>365</ele></trkpt><trkpt lat="45.814542" lon="9.426665"><time>2024-03-23T12:55:30.000Z</time><ele>364.8</ele></trkpt><trkpt lat="45.814535" lon="9.426676"><time>2024-03-23T12:55:31.000Z</time><ele>364.6</ele></trkpt><trkpt lat="45.814527" lon="9.426689"><time>2024-03-23T12:55:32.000Z</time><ele>364.4</ele></trkpt><trkpt lat="45.81452" lon="9.426701"><time>2024-03-23T12:55:33.000Z</time><ele>364.4</ele></trkpt><trkpt lat="45.814517" lon="9.426713"><time>2024-03-23T12:55:34.000Z</time><ele>364.2</ele></trkpt><trkpt lat="45.814517" lon="9.426732"><time>2024-03-23T12:55:35.000Z</time><ele>364</ele></trkpt><trkpt lat="45.814513" lon="9.426742"><time>2024-03-23T12:55:36.000Z</time><ele>363.8</ele></trkpt><trkpt lat="45.814509" lon="9.426758"><time>2024-03-23T12:55:37.000Z</time><ele>363.8</ele></trkpt><trkpt lat="45.814504" lon="9.426771"><time>2024-03-23T12:55:38.000Z</time><ele>363.4</ele></trkpt><trkpt lat="45.8145" lon="9.426782"><time>2024-03-23T12:55:39.000Z</time><ele>363.2</ele></trkpt><trkpt lat="45.814497" lon="9.426794"><time>2024-03-23T12:55:40.000Z</time><ele>363</ele></trkpt><trkpt lat="45.814494" lon="9.426802"><time>2024-03-23T12:55:41.000Z</time><ele>363</ele></trkpt><trkpt lat="45.814491" lon="9.426812"><time>2024-03-23T12:55:42.000Z</time><ele>362.8</ele></trkpt><trkpt lat="45.814487" lon="9.426825"><time>2024-03-23T12:55:43.000Z</time><ele>362.6</ele></trkpt><trkpt lat="45.814485" lon="9.426838"><time>2024-03-23T12:55:44.000Z</time><ele>362.6</ele></trkpt><trkpt lat="45.814481" lon="9.426849"><time>2024-03-23T12:55:45.000Z</time><ele>362.6</ele></trkpt><trkpt lat="45.81448" lon="9.42686"><time>2024-03-23T12:55:46.000Z</time><ele>362.4</ele></trkpt><trkpt lat="45.814477" lon="9.426872"><time>2024-03-23T12:55:47.000Z</time><ele>362</ele></trkpt><trkpt lat="45.814475" lon="9.426883"><time>2024-03-23T12:55:48.000Z</time><ele>361.8</ele></trkpt><trkpt lat="45.814471" lon="9.426891"><time>2024-03-23T12:55:49.000Z</time><ele>361.4</ele></trkpt><trkpt lat="45.814467" lon="9.426898"><time>2024-03-23T12:55:50.000Z</time><ele>361.4</ele></trkpt><trkpt lat="45.814462" lon="9.426907"><time>2024-03-23T12:55:51.000Z</time><ele>361.2</ele></trkpt><trkpt lat="45.814456" lon="9.426919"><time>2024-03-23T12:55:52.000Z</time><ele>361.2</ele></trkpt><trkpt lat="45.814451" lon="9.426931"><time>2024-03-23T12:55:53.000Z</time><ele>361.2</ele></trkpt><trkpt lat="45.814447" lon="9.426944"><time>2024-03-23T12:55:54.000Z</time><ele>361</ele></trkpt><trkpt lat="45.81444" lon="9.426959"><time>2024-03-23T12:55:55.000Z</time><ele>361</ele></trkpt><trkpt lat="45.814436" lon="9.426972"><time>2024-03-23T12:55:56.000Z</time><ele>361</ele></trkpt><trkpt lat="45.81443" lon="9.426987"><time>2024-03-23T12:55:57.000Z</time><ele>361</ele></trkpt><trkpt lat="45.814424" lon="9.426999"><time>2024-03-23T12:55:58.000Z</time><ele>361</ele></trkpt><trkpt lat="45.814416" lon="9.427007"><time>2024-03-23T12:55:59.000Z</time><ele>361</ele></trkpt><trkpt lat="45.814413" lon="9.427011"><time>2024-03-23T12:56:00.000Z</time><ele>361</ele></trkpt><trkpt lat="45.814408" lon="9.42702"><time>2024-03-23T12:56:01.000Z</time><ele>360.8</ele></trkpt><trkpt lat="45.814403" lon="9.427033"><time>2024-03-23T12:56:02.000Z</time><ele>360.8</ele></trkpt><trkpt lat="45.814398" lon="9.427043"><time>2024-03-23T12:56:03.000Z</time><ele>360.6</ele></trkpt><trkpt lat="45.814391" lon="9.42705"><time>2024-03-23T12:56:04.000Z</time><ele>360.4</ele></trkpt><trkpt lat="45.814389" lon="9.427061"><time>2024-03-23T12:56:05.000Z</time><ele>360.4</ele></trkpt><trkpt lat="45.814388" lon="9.427072"><time>2024-03-23T12:56:06.000Z</time><ele>360.2</ele></trkpt><trkpt lat="45.814384" lon="9.427077"><time>2024-03-23T12:56:07.000Z</time><ele>360</ele></trkpt><trkpt lat="45.814382" lon="9.427083"><time>2024-03-23T12:56:08.000Z</time><ele>360</ele></trkpt><trkpt lat="45.814383" lon="9.427095"><time>2024-03-23T12:56:09.000Z</time><ele>360</ele></trkpt><trkpt lat="45.814385" lon="9.427106"><time>2024-03-23T12:56:10.000Z</time><ele>359.8</ele></trkpt><trkpt lat="45.814385" lon="9.427107"><time>2024-03-23T12:56:11.000Z</time><ele>359.6</ele></trkpt><trkpt lat="45.814386" lon="9.427106"><time>2024-03-23T12:56:12.000Z</time><ele>359.6</ele></trkpt><trkpt lat="45.814385" lon="9.427112"><time>2024-03-23T12:56:13.000Z</time><ele>359.4</ele></trkpt><trkpt lat="45.814384" lon="9.42711"><time>2024-03-23T12:56:14.000Z</time><ele>359.4</ele></trkpt><trkpt lat="45.814399" lon="9.427122"><time>2024-03-23T12:56:15.000Z</time><ele>359.4</ele></trkpt><trkpt lat="45.814413" lon="9.427124"><time>2024-03-23T12:56:16.000Z</time><ele>359.6</ele></trkpt><trkpt lat="45.814416" lon="9.427124"><time>2024-03-23T12:56:17.000Z</time><ele>359.6</ele></trkpt><trkpt lat="45.814418" lon="9.427125"><time>2024-03-23T12:56:18.000Z</time><ele>359.6</ele></trkpt><trkpt lat="45.814419" lon="9.427128"><time>2024-03-23T12:56:19.000Z</time><ele>359.8</ele></trkpt><trkpt lat="45.814419" lon="9.427131"><time>2024-03-23T12:56:20.000Z</time><ele>359.8</ele></trkpt><trkpt lat="45.814421" lon="9.42714"><time>2024-03-23T12:56:21.000Z</time><ele>359.8</ele></trkpt><trkpt lat="45.814424" lon="9.427141"><time>2024-03-23T12:56:22.000Z</time><ele>359.6</ele></trkpt><trkpt lat="45.814419" lon="9.427147"><time>2024-03-23T12:56:23.000Z</time><ele>359.6</ele></trkpt><trkpt lat="45.814419" lon="9.427156"><time>2024-03-23T12:56:24.000Z</time><ele>359.4</ele></trkpt><trkpt lat="45.814423" lon="9.427166"><time>2024-03-23T12:56:25.000Z</time><ele>359.2</ele></trkpt><trkpt lat="45.814422" lon="9.427176"><time>2024-03-23T12:56:26.000Z</time><ele>359.2</ele></trkpt><trkpt lat="45.814419" lon="9.427187"><time>2024-03-23T12:56:27.000Z</time><ele>359.2</ele></trkpt><trkpt lat="45.814412" lon="9.427195"><time>2024-03-23T12:56:28.000Z</time><ele>359</ele></trkpt><trkpt lat="45.814409" lon="9.4272"><time>2024-03-23T12:56:29.000Z</time><ele>359</ele></trkpt><trkpt lat="45.814403" lon="9.427212"><time>2024-03-23T12:56:30.000Z</time><ele>359</ele></trkpt><trkpt lat="45.814399" lon="9.427221"><time>2024-03-23T12:56:31.000Z</time><ele>358.8</ele></trkpt><trkpt lat="45.814395" lon="9.427231"><time>2024-03-23T12:56:32.000Z</time><ele>358.8</ele></trkpt><trkpt lat="45.814389" lon="9.427237"><time>2024-03-23T12:56:33.000Z</time><ele>358.8</ele></trkpt><trkpt lat="45.814382" lon="9.427244"><time>2024-03-23T12:56:34.000Z</time><ele>358.6</ele></trkpt><trkpt lat="45.814374" lon="9.427255"><time>2024-03-23T12:56:35.000Z</time><ele>358.6</ele></trkpt><trkpt lat="45.814365" lon="9.427265"><time>2024-03-23T12:56:36.000Z</time><ele>358.4</ele></trkpt><trkpt lat="45.814356" lon="9.427274"><time>2024-03-23T12:56:37.000Z</time><ele>358.4</ele></trkpt><trkpt lat="45.814345" lon="9.427289"><time>2024-03-23T12:56:38.000Z</time><ele>358.2</ele></trkpt><trkpt lat="45.814338" lon="9.427303"><time>2024-03-23T12:56:39.000Z</time><ele>358</ele></trkpt><trkpt lat="45.814334" lon="9.427319"><time>2024-03-23T12:56:40.000Z</time><ele>358</ele></trkpt><trkpt lat="45.81433" lon="9.427335"><time>2024-03-23T12:56:41.000Z</time><ele>357.8</ele></trkpt><trkpt lat="45.814326" lon="9.427349"><time>2024-03-23T12:56:42.000Z</time><ele>357.6</ele></trkpt><trkpt lat="45.814327" lon="9.427363"><time>2024-03-23T12:56:43.000Z</time><ele>357.4</ele></trkpt><trkpt lat="45.814326" lon="9.427376"><time>2024-03-23T12:56:44.000Z</time><ele>357.4</ele></trkpt><trkpt lat="45.814322" lon="9.427389"><time>2024-03-23T12:56:45.000Z</time><ele>357.4</ele></trkpt><trkpt lat="45.814318" lon="9.427405"><time>2024-03-23T12:56:46.000Z</time><ele>357.2</ele></trkpt><trkpt lat="45.814312" lon="9.427421"><time>2024-03-23T12:56:47.000Z</time><ele>357.2</ele></trkpt><trkpt lat="45.814308" lon="9.427442"><time>2024-03-23T12:56:48.000Z</time><ele>357.2</ele></trkpt><trkpt lat="45.814307" lon="9.42746"><time>2024-03-23T12:56:49.000Z</time><ele>357</ele></trkpt><trkpt lat="45.814304" lon="9.427478"><time>2024-03-23T12:56:50.000Z</time><ele>357</ele></trkpt><trkpt lat="45.814291" lon="9.42749"><time>2024-03-23T12:56:51.000Z</time><ele>357</ele></trkpt><trkpt lat="45.81428" lon="9.427504"><time>2024-03-23T12:56:52.000Z</time><ele>356.8</ele></trkpt><trkpt lat="45.814277" lon="9.427519"><time>2024-03-23T12:56:53.000Z</time><ele>356.6</ele></trkpt><trkpt lat="45.814272" lon="9.427536"><time>2024-03-23T12:56:54.000Z</time><ele>356.6</ele></trkpt><trkpt lat="45.814265" lon="9.427549"><time>2024-03-23T12:56:55.000Z</time><ele>356.4</ele></trkpt><trkpt lat="45.814258" lon="9.427563"><time>2024-03-23T12:56:56.000Z</time><ele>356.4</ele></trkpt><trkpt lat="45.814251" lon="9.427577"><time>2024-03-23T12:56:57.000Z</time><ele>356.2</ele></trkpt><trkpt lat="45.814246" lon="9.427588"><time>2024-03-23T12:56:58.000Z</time><ele>356.2</ele></trkpt><trkpt lat="45.814245" lon="9.4276"><time>2024-03-23T12:56:59.000Z</time><ele>356.2</ele></trkpt><trkpt lat="45.814244" lon="9.427609"><time>2024-03-23T12:57:00.000Z</time><ele>356.2</ele></trkpt><trkpt lat="45.814238" lon="9.427623"><time>2024-03-23T12:57:01.000Z</time><ele>356.2</ele></trkpt><trkpt lat="45.814231" lon="9.427632"><time>2024-03-23T12:57:02.000Z</time><ele>356</ele></trkpt><trkpt lat="45.814224" lon="9.427644"><time>2024-03-23T12:57:03.000Z</time><ele>356</ele></trkpt><trkpt lat="45.81422" lon="9.42766"><time>2024-03-23T12:57:04.000Z</time><ele>355.8</ele></trkpt><trkpt lat="45.814215" lon="9.427673"><time>2024-03-23T12:57:05.000Z</time><ele>355.6</ele></trkpt><trkpt lat="45.814208" lon="9.427695"><time>2024-03-23T12:57:06.000Z</time><ele>355.6</ele></trkpt><trkpt lat="45.814204" lon="9.427711"><time>2024-03-23T12:57:07.000Z</time><ele>355.6</ele></trkpt><trkpt lat="45.814197" lon="9.427728"><time>2024-03-23T12:57:08.000Z</time><ele>355.4</ele></trkpt><trkpt lat="45.814193" lon="9.427742"><time>2024-03-23T12:57:09.000Z</time><ele>355.4</ele></trkpt><trkpt lat="45.814192" lon="9.427752"><time>2024-03-23T12:57:10.000Z</time><ele>355.4</ele></trkpt><trkpt lat="45.81419" lon="9.427764"><time>2024-03-23T12:57:11.000Z</time><ele>355.2</ele></trkpt><trkpt lat="45.814187" lon="9.427772"><time>2024-03-23T12:57:12.000Z</time><ele>355.2</ele></trkpt><trkpt lat="45.814182" lon="9.427785"><time>2024-03-23T12:57:13.000Z</time><ele>355.2</ele></trkpt><trkpt lat="45.814179" lon="9.427798"><time>2024-03-23T12:57:14.000Z</time><ele>355</ele></trkpt><trkpt lat="45.814172" lon="9.42781"><time>2024-03-23T12:57:15.000Z</time><ele>355</ele></trkpt><trkpt lat="45.814165" lon="9.427826"><time>2024-03-23T12:57:16.000Z</time><ele>354.8</ele></trkpt><trkpt lat="45.81416" lon="9.42784"><time>2024-03-23T12:57:17.000Z</time><ele>354.6</ele></trkpt><trkpt lat="45.814155" lon="9.427853"><time>2024-03-23T12:57:18.000Z</time><ele>354.6</ele></trkpt><trkpt lat="45.814148" lon="9.427869"><time>2024-03-23T12:57:19.000Z</time><ele>354.6</ele></trkpt><trkpt lat="45.81414" lon="9.427885"><time>2024-03-23T12:57:20.000Z</time><ele>354.6</ele></trkpt><trkpt lat="45.814134" lon="9.427901"><time>2024-03-23T12:57:21.000Z</time><ele>354.4</ele></trkpt><trkpt lat="45.814131" lon="9.427918"><time>2024-03-23T12:57:22.000Z</time><ele>354.4</ele></trkpt><trkpt lat="45.814126" lon="9.427928"><time>2024-03-23T12:57:23.000Z</time><ele>354.2</ele></trkpt><trkpt lat="45.814117" lon="9.427936"><time>2024-03-23T12:57:24.000Z</time><ele>354.2</ele></trkpt><trkpt lat="45.814112" lon="9.427948"><time>2024-03-23T12:57:25.000Z</time><ele>354.2</ele></trkpt><trkpt lat="45.814103" lon="9.427961"><time>2024-03-23T12:57:26.000Z</time><ele>354.2</ele></trkpt><trkpt lat="45.814095" lon="9.427971"><time>2024-03-23T12:57:27.000Z</time><ele>354.2</ele></trkpt><trkpt lat="45.814086" lon="9.427994"><time>2024-03-23T12:57:28.000Z</time><ele>354</ele></trkpt><trkpt lat="45.81408" lon="9.428017"><time>2024-03-23T12:57:29.000Z</time><ele>354</ele></trkpt><trkpt lat="45.814074" lon="9.428033"><time>2024-03-23T12:57:30.000Z</time><ele>354</ele></trkpt><trkpt lat="45.814067" lon="9.428045"><time>2024-03-23T12:57:31.000Z</time><ele>353.8</ele></trkpt><trkpt lat="45.814058" lon="9.428058"><time>2024-03-23T12:57:32.000Z</time><ele>353.6</ele></trkpt><trkpt lat="45.814056" lon="9.428075"><time>2024-03-23T12:57:33.000Z</time><ele>353.6</ele></trkpt><trkpt lat="45.814054" lon="9.428095"><time>2024-03-23T12:57:34.000Z</time><ele>353.4</ele></trkpt><trkpt lat="45.814051" lon="9.428112"><time>2024-03-23T12:57:35.000Z</time><ele>353.2</ele></trkpt><trkpt lat="45.814047" lon="9.428123"><time>2024-03-23T12:57:36.000Z</time><ele>353.2</ele></trkpt><trkpt lat="45.814039" lon="9.428137"><time>2024-03-23T12:57:37.000Z</time><ele>353.2</ele></trkpt><trkpt lat="45.814031" lon="9.428152"><time>2024-03-23T12:57:38.000Z</time><ele>353.2</ele></trkpt><trkpt lat="45.814024" lon="9.428169"><time>2024-03-23T12:57:39.000Z</time><ele>353</ele></trkpt><trkpt lat="45.814014" lon="9.428183"><time>2024-03-23T12:57:40.000Z</time><ele>353</ele></trkpt><trkpt lat="45.814004" lon="9.428201"><time>2024-03-23T12:57:41.000Z</time><ele>352.6</ele></trkpt><trkpt lat="45.813996" lon="9.428216"><time>2024-03-23T12:57:42.000Z</time><ele>352.6</ele></trkpt><trkpt lat="45.813991" lon="9.42823"><time>2024-03-23T12:57:43.000Z</time><ele>352.2</ele></trkpt><trkpt lat="45.813987" lon="9.428243"><time>2024-03-23T12:57:44.000Z</time><ele>352.2</ele></trkpt><trkpt lat="45.813983" lon="9.428258"><time>2024-03-23T12:57:45.000Z</time><ele>352</ele></trkpt><trkpt lat="45.813982" lon="9.428273"><time>2024-03-23T12:57:46.000Z</time><ele>352</ele></trkpt><trkpt lat="45.81398" lon="9.42829"><time>2024-03-23T12:57:47.000Z</time><ele>351.8</ele></trkpt><trkpt lat="45.813977" lon="9.428307"><time>2024-03-23T12:57:48.000Z</time><ele>351.6</ele></trkpt><trkpt lat="45.813974" lon="9.428325"><time>2024-03-23T12:57:49.000Z</time><ele>351.6</ele></trkpt><trkpt lat="45.813969" lon="9.428338"><time>2024-03-23T12:57:50.000Z</time><ele>351.4</ele></trkpt><trkpt lat="45.813963" lon="9.428352"><time>2024-03-23T12:57:51.000Z</time><ele>351.4</ele></trkpt><trkpt lat="45.813957" lon="9.428367"><time>2024-03-23T12:57:52.000Z</time><ele>351.2</ele></trkpt><trkpt lat="45.813953" lon="9.428381"><time>2024-03-23T12:57:53.000Z</time><ele>351.2</ele></trkpt><trkpt lat="45.813947" lon="9.428395"><time>2024-03-23T12:57:54.000Z</time><ele>351.2</ele></trkpt><trkpt lat="45.813943" lon="9.428411"><time>2024-03-23T12:57:55.000Z</time><ele>351</ele></trkpt><trkpt lat="45.813938" lon="9.428426"><time>2024-03-23T12:57:56.000Z</time><ele>351</ele></trkpt><trkpt lat="45.813934" lon="9.428439"><time>2024-03-23T12:57:57.000Z</time><ele>350.8</ele></trkpt><trkpt lat="45.813929" lon="9.428455"><time>2024-03-23T12:57:58.000Z</time><ele>350.6</ele></trkpt><trkpt lat="45.81392" lon="9.42847"><time>2024-03-23T12:57:59.000Z</time><ele>350.6</ele></trkpt><trkpt lat="45.813914" lon="9.428488"><time>2024-03-23T12:58:00.000Z</time><ele>350.6</ele></trkpt><trkpt lat="45.813909" lon="9.428504"><time>2024-03-23T12:58:01.000Z</time><ele>350.6</ele></trkpt><trkpt lat="45.813903" lon="9.428517"><time>2024-03-23T12:58:02.000Z</time><ele>350.6</ele></trkpt><trkpt lat="45.813897" lon="9.428528"><time>2024-03-23T12:58:03.000Z</time><ele>350.4</ele></trkpt><trkpt lat="45.813891" lon="9.428546"><time>2024-03-23T12:58:04.000Z</time><ele>350.2</ele></trkpt><trkpt lat="45.813886" lon="9.428562"><time>2024-03-23T12:58:05.000Z</time><ele>350.2</ele></trkpt><trkpt lat="45.81388" lon="9.428576"><time>2024-03-23T12:58:06.000Z</time><ele>350</ele></trkpt><trkpt lat="45.813874" lon="9.428587"><time>2024-03-23T12:58:07.000Z</time><ele>350</ele></trkpt><trkpt lat="45.813866" lon="9.428597"><time>2024-03-23T12:58:08.000Z</time><ele>349.8</ele></trkpt><trkpt lat="45.813858" lon="9.428609"><time>2024-03-23T12:58:09.000Z</time><ele>349.8</ele></trkpt><trkpt lat="45.813852" lon="9.428622"><time>2024-03-23T12:58:10.000Z</time><ele>349.8</ele></trkpt><trkpt lat="45.813846" lon="9.428634"><time>2024-03-23T12:58:11.000Z</time><ele>349.6</ele></trkpt><trkpt lat="45.813842" lon="9.428648"><time>2024-03-23T12:58:12.000Z</time><ele>349.4</ele></trkpt><trkpt lat="45.813838" lon="9.42866"><time>2024-03-23T12:58:13.000Z</time><ele>349.4</ele></trkpt><trkpt lat="45.813832" lon="9.428666"><time>2024-03-23T12:58:14.000Z</time><ele>349.2</ele></trkpt><trkpt lat="45.813825" lon="9.428667"><time>2024-03-23T12:58:15.000Z</time><ele>349.2</ele></trkpt><trkpt lat="45.813819" lon="9.428681"><time>2024-03-23T12:58:16.000Z</time><ele>349.2</ele></trkpt><trkpt lat="45.813811" lon="9.428694"><time>2024-03-23T12:58:17.000Z</time><ele>349.2</ele></trkpt><trkpt lat="45.813807" lon="9.428704"><time>2024-03-23T12:58:18.000Z</time><ele>349</ele></trkpt><trkpt lat="45.813802" lon="9.428715"><time>2024-03-23T12:58:19.000Z</time><ele>349</ele></trkpt><trkpt lat="45.813797" lon="9.428727"><time>2024-03-23T12:58:20.000Z</time><ele>348.8</ele></trkpt><trkpt lat="45.81379" lon="9.428738"><time>2024-03-23T12:58:21.000Z</time><ele>348.8</ele></trkpt><trkpt lat="45.813788" lon="9.428753"><time>2024-03-23T12:58:22.000Z</time><ele>348.8</ele></trkpt><trkpt lat="45.813784" lon="9.42877"><time>2024-03-23T12:58:23.000Z</time><ele>348.6</ele></trkpt><trkpt lat="45.813778" lon="9.428782"><time>2024-03-23T12:58:24.000Z</time><ele>348.6</ele></trkpt><trkpt lat="45.813776" lon="9.428794"><time>2024-03-23T12:58:25.000Z</time><ele>348.4</ele></trkpt><trkpt lat="45.813774" lon="9.428811"><time>2024-03-23T12:58:26.000Z</time><ele>348.4</ele></trkpt><trkpt lat="45.813772" lon="9.428828"><time>2024-03-23T12:58:27.000Z</time><ele>348.4</ele></trkpt><trkpt lat="45.813769" lon="9.428843"><time>2024-03-23T12:58:28.000Z</time><ele>348.4</ele></trkpt><trkpt lat="45.813764" lon="9.428863"><time>2024-03-23T12:58:29.000Z</time><ele>348.4</ele></trkpt><trkpt lat="45.813758" lon="9.428878"><time>2024-03-23T12:58:30.000Z</time><ele>348.2</ele></trkpt><trkpt lat="45.81375" lon="9.428894"><time>2024-03-23T12:58:31.000Z</time><ele>348.2</ele></trkpt><trkpt lat="45.81374" lon="9.428909"><time>2024-03-23T12:58:32.000Z</time><ele>348.2</ele></trkpt><trkpt lat="45.813733" lon="9.42893"><time>2024-03-23T12:58:33.000Z</time><ele>348</ele></trkpt><trkpt lat="45.813725" lon="9.428944"><time>2024-03-23T12:58:34.000Z</time><ele>348</ele></trkpt><trkpt lat="45.813722" lon="9.428958"><time>2024-03-23T12:58:35.000Z</time><ele>347.8</ele></trkpt><trkpt lat="45.813716" lon="9.428969"><time>2024-03-23T12:58:36.000Z</time><ele>347.8</ele></trkpt><trkpt lat="45.813713" lon="9.428982"><time>2024-03-23T12:58:37.000Z</time><ele>347.8</ele></trkpt><trkpt lat="45.81371" lon="9.428997"><time>2024-03-23T12:58:38.000Z</time><ele>347.8</ele></trkpt><trkpt lat="45.813703" lon="9.42901"><time>2024-03-23T12:58:39.000Z</time><ele>347.8</ele></trkpt><trkpt lat="45.813696" lon="9.42902"><time>2024-03-23T12:58:40.000Z</time><ele>347.8</ele></trkpt><trkpt lat="45.813692" lon="9.429035"><time>2024-03-23T12:58:41.000Z</time><ele>347.6</ele></trkpt><trkpt lat="45.813686" lon="9.429047"><time>2024-03-23T12:58:42.000Z</time><ele>347.6</ele></trkpt><trkpt lat="45.81368" lon="9.429063"><time>2024-03-23T12:58:43.000Z</time><ele>347.6</ele></trkpt><trkpt lat="45.813671" lon="9.429074"><time>2024-03-23T12:58:44.000Z</time><ele>347.6</ele></trkpt><trkpt lat="45.813664" lon="9.429084"><time>2024-03-23T12:58:45.000Z</time><ele>347.4</ele></trkpt><trkpt lat="45.813656" lon="9.429096"><time>2024-03-23T12:58:46.000Z</time><ele>347.4</ele></trkpt><trkpt lat="45.813647" lon="9.429106"><time>2024-03-23T12:58:47.000Z</time><ele>347.4</ele></trkpt><trkpt lat="45.813639" lon="9.429117"><time>2024-03-23T12:58:48.000Z</time><ele>347.2</ele></trkpt><trkpt lat="45.813631" lon="9.42913"><time>2024-03-23T12:58:49.000Z</time><ele>347.2</ele></trkpt><trkpt lat="45.813624" lon="9.429144"><time>2024-03-23T12:58:50.000Z</time><ele>347.2</ele></trkpt><trkpt lat="45.813617" lon="9.429156"><time>2024-03-23T12:58:51.000Z</time><ele>347</ele></trkpt><trkpt lat="45.813611" lon="9.429167"><time>2024-03-23T12:58:52.000Z</time><ele>347</ele></trkpt><trkpt lat="45.813602" lon="9.429177"><time>2024-03-23T12:58:53.000Z</time><ele>346.8</ele></trkpt><trkpt lat="45.813594" lon="9.429187"><time>2024-03-23T12:58:54.000Z</time><ele>346.8</ele></trkpt><trkpt lat="45.813588" lon="9.429201"><time>2024-03-23T12:58:55.000Z</time><ele>346.8</ele></trkpt><trkpt lat="45.813584" lon="9.429221"><time>2024-03-23T12:58:56.000Z</time><ele>346.6</ele></trkpt><trkpt lat="45.813577" lon="9.429236"><time>2024-03-23T12:58:57.000Z</time><ele>346.6</ele></trkpt><trkpt lat="45.813567" lon="9.429246"><time>2024-03-23T12:58:58.000Z</time><ele>346.6</ele></trkpt><trkpt lat="45.813555" lon="9.429254"><time>2024-03-23T12:58:59.000Z</time><ele>346.6</ele></trkpt><trkpt lat="45.813546" lon="9.429263"><time>2024-03-23T12:59:00.000Z</time><ele>346.4</ele></trkpt><trkpt lat="45.813536" lon="9.429267"><time>2024-03-23T12:59:01.000Z</time><ele>346.4</ele></trkpt><trkpt lat="45.813528" lon="9.42927"><time>2024-03-23T12:59:02.000Z</time><ele>346.2</ele></trkpt><trkpt lat="45.813515" lon="9.429273"><time>2024-03-23T12:59:03.000Z</time><ele>346.2</ele></trkpt><trkpt lat="45.813505" lon="9.42928"><time>2024-03-23T12:59:04.000Z</time><ele>346.2</ele></trkpt><trkpt lat="45.813493" lon="9.429285"><time>2024-03-23T12:59:05.000Z</time><ele>346.2</ele></trkpt><trkpt lat="45.813482" lon="9.429291"><time>2024-03-23T12:59:06.000Z</time><ele>346.2</ele></trkpt><trkpt lat="45.813477" lon="9.429293"><time>2024-03-23T12:59:07.000Z</time><ele>346</ele></trkpt><trkpt lat="45.813469" lon="9.429298"><time>2024-03-23T12:59:08.000Z</time><ele>346</ele></trkpt><trkpt lat="45.813463" lon="9.429299"><time>2024-03-23T12:59:09.000Z</time><ele>345.8</ele></trkpt><trkpt lat="45.813458" lon="9.429304"><time>2024-03-23T12:59:10.000Z</time><ele>345.8</ele></trkpt><trkpt lat="45.813453" lon="9.429308"><time>2024-03-23T12:59:11.000Z</time><ele>345.6</ele></trkpt><trkpt lat="45.813451" lon="9.429308"><time>2024-03-23T12:59:12.000Z</time><ele>345.6</ele></trkpt><trkpt lat="45.813445" lon="9.429311"><time>2024-03-23T12:59:13.000Z</time><ele>345.4</ele></trkpt><trkpt lat="45.813435" lon="9.429316"><time>2024-03-23T12:59:14.000Z</time><ele>345.4</ele></trkpt><trkpt lat="45.813428" lon="9.429327"><time>2024-03-23T12:59:15.000Z</time><ele>345.2</ele></trkpt><trkpt lat="45.813424" lon="9.429333"><time>2024-03-23T12:59:16.000Z</time><ele>345.2</ele></trkpt><trkpt lat="45.813416" lon="9.429339"><time>2024-03-23T12:59:17.000Z</time><ele>345</ele></trkpt><trkpt lat="45.813407" lon="9.429344"><time>2024-03-23T12:59:18.000Z</time><ele>345</ele></trkpt><trkpt lat="45.813394" lon="9.429346"><time>2024-03-23T12:59:19.000Z</time><ele>344.8</ele></trkpt><trkpt lat="45.813376" lon="9.429342"><time>2024-03-23T12:59:20.000Z</time><ele>344.8</ele></trkpt><trkpt lat="45.813362" lon="9.429343"><time>2024-03-23T12:59:21.000Z</time><ele>344.6</ele></trkpt><trkpt lat="45.813351" lon="9.429347"><time>2024-03-23T12:59:22.000Z</time><ele>344.6</ele></trkpt><trkpt lat="45.813341" lon="9.42935"><time>2024-03-23T12:59:23.000Z</time><ele>344.6</ele></trkpt><trkpt lat="45.813336" lon="9.42936"><time>2024-03-23T12:59:24.000Z</time><ele>344.6</ele></trkpt><trkpt lat="45.813327" lon="9.42937"><time>2024-03-23T12:59:25.000Z</time><ele>344.4</ele></trkpt><trkpt lat="45.813322" lon="9.429382"><time>2024-03-23T12:59:26.000Z</time><ele>344.4</ele></trkpt><trkpt lat="45.813312" lon="9.42939"><time>2024-03-23T12:59:27.000Z</time><ele>344.4</ele></trkpt><trkpt lat="45.813299" lon="9.429397"><time>2024-03-23T12:59:28.000Z</time><ele>344.2</ele></trkpt><trkpt lat="45.813292" lon="9.429408"><time>2024-03-23T12:59:29.000Z</time><ele>344.2</ele></trkpt><trkpt lat="45.813279" lon="9.429416"><time>2024-03-23T12:59:30.000Z</time><ele>344</ele></trkpt><trkpt lat="45.813261" lon="9.429419"><time>2024-03-23T12:59:31.000Z</time><ele>344</ele></trkpt><trkpt lat="45.813247" lon="9.429424"><time>2024-03-23T12:59:32.000Z</time><ele>344</ele></trkpt><trkpt lat="45.813233" lon="9.429431"><time>2024-03-23T12:59:33.000Z</time><ele>343.8</ele></trkpt><trkpt lat="45.813222" lon="9.429441"><time>2024-03-23T12:59:34.000Z</time><ele>343.8</ele></trkpt><trkpt lat="45.81321" lon="9.429452"><time>2024-03-23T12:59:35.000Z</time><ele>343.6</ele></trkpt><trkpt lat="45.813199" lon="9.429462"><time>2024-03-23T12:59:36.000Z</time><ele>343.6</ele></trkpt><trkpt lat="45.813192" lon="9.429467"><time>2024-03-23T12:59:37.000Z</time><ele>343.6</ele></trkpt><trkpt lat="45.813185" lon="9.429474"><time>2024-03-23T12:59:38.000Z</time><ele>343.6</ele></trkpt><trkpt lat="45.813175" lon="9.429478"><time>2024-03-23T12:59:39.000Z</time><ele>343.6</ele></trkpt><trkpt lat="45.813167" lon="9.429483"><time>2024-03-23T12:59:40.000Z</time><ele>343.4</ele></trkpt><trkpt lat="45.813158" lon="9.429488"><time>2024-03-23T12:59:41.000Z</time><ele>343.4</ele></trkpt><trkpt lat="45.81315" lon="9.429495"><time>2024-03-23T12:59:42.000Z</time><ele>343.2</ele></trkpt><trkpt lat="45.813142" lon="9.429498"><time>2024-03-23T12:59:43.000Z</time><ele>343</ele></trkpt><trkpt lat="45.813131" lon="9.4295"><time>2024-03-23T12:59:44.000Z</time><ele>342.8</ele></trkpt><trkpt lat="45.813114" lon="9.429494"><time>2024-03-23T12:59:45.000Z</time><ele>342.8</ele></trkpt><trkpt lat="45.813103" lon="9.42949"><time>2024-03-23T12:59:46.000Z</time><ele>342.6</ele></trkpt><trkpt lat="45.813092" lon="9.429492"><time>2024-03-23T12:59:47.000Z</time><ele>342.4</ele></trkpt><trkpt lat="45.813079" lon="9.429495"><time>2024-03-23T12:59:48.000Z</time><ele>342.2</ele></trkpt><trkpt lat="45.813068" lon="9.429495"><time>2024-03-23T12:59:49.000Z</time><ele>342</ele></trkpt><trkpt lat="45.813051" lon="9.429504"><time>2024-03-23T12:59:50.000Z</time><ele>342</ele></trkpt><trkpt lat="45.813038" lon="9.42951"><time>2024-03-23T12:59:51.000Z</time><ele>341.8</ele></trkpt><trkpt lat="45.813025" lon="9.429512"><time>2024-03-23T12:59:52.000Z</time><ele>341.6</ele></trkpt><trkpt lat="45.813014" lon="9.429511"><time>2024-03-23T12:59:53.000Z</time><ele>341.6</ele></trkpt><trkpt lat="45.813013" lon="9.429519"><time>2024-03-23T12:59:54.000Z</time><ele>341.4</ele></trkpt><trkpt lat="45.813008" lon="9.429525"><time>2024-03-23T12:59:55.000Z</time><ele>341.4</ele></trkpt><trkpt lat="45.813" lon="9.429525"><time>2024-03-23T12:59:56.000Z</time><ele>341.2</ele></trkpt><trkpt lat="45.812988" lon="9.429526"><time>2024-03-23T12:59:57.000Z</time><ele>341</ele></trkpt><trkpt lat="45.812978" lon="9.429529"><time>2024-03-23T12:59:58.000Z</time><ele>340.8</ele></trkpt><trkpt lat="45.812968" lon="9.429531"><time>2024-03-23T12:59:59.000Z</time><ele>340.8</ele></trkpt><trkpt lat="45.812958" lon="9.429531"><time>2024-03-23T13:00:00.000Z</time><ele>340.6</ele></trkpt><trkpt lat="45.81295" lon="9.429532"><time>2024-03-23T13:00:01.000Z</time><ele>340.4</ele></trkpt><trkpt lat="45.812942" lon="9.429535"><time>2024-03-23T13:00:02.000Z</time><ele>340.2</ele></trkpt><trkpt lat="45.81293" lon="9.429531"><time>2024-03-23T13:00:03.000Z</time><ele>340</ele></trkpt><trkpt lat="45.812912" lon="9.429516"><time>2024-03-23T13:00:04.000Z</time><ele>340</ele></trkpt><trkpt lat="45.812899" lon="9.429498"><time>2024-03-23T13:00:05.000Z</time><ele>339.8</ele></trkpt><trkpt lat="45.812891" lon="9.429495"><time>2024-03-23T13:00:06.000Z</time><ele>339.6</ele></trkpt><trkpt lat="45.812884" lon="9.42949"><time>2024-03-23T13:00:07.000Z</time><ele>339.6</ele></trkpt><trkpt lat="45.812878" lon="9.429484"><time>2024-03-23T13:00:08.000Z</time><ele>339.4</ele></trkpt><trkpt lat="45.81287" lon="9.429478"><time>2024-03-23T13:00:09.000Z</time><ele>339.2</ele></trkpt><trkpt lat="45.81286" lon="9.429474"><time>2024-03-23T13:00:10.000Z</time><ele>339</ele></trkpt><trkpt lat="45.812852" lon="9.429472"><time>2024-03-23T13:00:11.000Z</time><ele>338.8</ele></trkpt><trkpt lat="45.812844" lon="9.429472"><time>2024-03-23T13:00:12.000Z</time><ele>338.6</ele></trkpt><trkpt lat="45.812833" lon="9.429476"><time>2024-03-23T13:00:13.000Z</time><ele>338.4</ele></trkpt><trkpt lat="45.812825" lon="9.429483"><time>2024-03-23T13:00:14.000Z</time><ele>338.2</ele></trkpt><trkpt lat="45.81282" lon="9.429496"><time>2024-03-23T13:00:15.000Z</time><ele>338</ele></trkpt><trkpt lat="45.812815" lon="9.429501"><time>2024-03-23T13:00:16.000Z</time><ele>338</ele></trkpt><trkpt lat="45.812812" lon="9.429499"><time>2024-03-23T13:00:17.000Z</time><ele>337.8</ele></trkpt><trkpt lat="45.812807" lon="9.429494"><time>2024-03-23T13:00:18.000Z</time><ele>337.6</ele></trkpt><trkpt lat="45.812801" lon="9.42949"><time>2024-03-23T13:00:19.000Z</time><ele>337.4</ele></trkpt><trkpt lat="45.812793" lon="9.429491"><time>2024-03-23T13:00:20.000Z</time><ele>337.4</ele></trkpt><trkpt lat="45.812786" lon="9.429495"><time>2024-03-23T13:00:21.000Z</time><ele>337.2</ele></trkpt><trkpt lat="45.812778" lon="9.429498"><time>2024-03-23T13:00:22.000Z</time><ele>337</ele></trkpt><trkpt lat="45.812766" lon="9.429496"><time>2024-03-23T13:00:23.000Z</time><ele>337</ele></trkpt><trkpt lat="45.812756" lon="9.429486"><time>2024-03-23T13:00:24.000Z</time><ele>336.8</ele></trkpt><trkpt lat="45.812749" lon="9.429483"><time>2024-03-23T13:00:25.000Z</time><ele>336.8</ele></trkpt><trkpt lat="45.812743" lon="9.429482"><time>2024-03-23T13:00:26.000Z</time><ele>336.8</ele></trkpt><trkpt lat="45.812736" lon="9.429486"><time>2024-03-23T13:00:27.000Z</time><ele>336.6</ele></trkpt><trkpt lat="45.812729" lon="9.42949"><time>2024-03-23T13:00:28.000Z</time><ele>336.4</ele></trkpt><trkpt lat="45.812722" lon="9.429487"><time>2024-03-23T13:00:29.000Z</time><ele>336.2</ele></trkpt><trkpt lat="45.812716" lon="9.429485"><time>2024-03-23T13:00:30.000Z</time><ele>335.8</ele></trkpt><trkpt lat="45.812709" lon="9.429476"><time>2024-03-23T13:00:31.000Z</time><ele>335.6</ele></trkpt><trkpt lat="45.812701" lon="9.429467"><time>2024-03-23T13:00:32.000Z</time><ele>335.4</ele></trkpt><trkpt lat="45.812697" lon="9.429464"><time>2024-03-23T13:00:33.000Z</time><ele>335.2</ele></trkpt><trkpt lat="45.812685" lon="9.429455"><time>2024-03-23T13:00:34.000Z</time><ele>335</ele></trkpt><trkpt lat="45.812677" lon="9.429458"><time>2024-03-23T13:00:35.000Z</time><ele>334.8</ele></trkpt><trkpt lat="45.812675" lon="9.429455"><time>2024-03-23T13:00:36.000Z</time><ele>334.6</ele></trkpt><trkpt lat="45.812662" lon="9.429465"><time>2024-03-23T13:00:37.000Z</time><ele>334.6</ele></trkpt><trkpt lat="45.812659" lon="9.429466"><time>2024-03-23T13:00:38.000Z</time><ele>334.4</ele></trkpt><trkpt lat="45.812652" lon="9.429468"><time>2024-03-23T13:00:39.000Z</time><ele>334.2</ele></trkpt><trkpt lat="45.812647" lon="9.429464"><time>2024-03-23T13:00:40.000Z</time><ele>334</ele></trkpt><trkpt lat="45.812642" lon="9.429458"><time>2024-03-23T13:00:41.000Z</time><ele>333.8</ele></trkpt><trkpt lat="45.812638" lon="9.429457"><time>2024-03-23T13:00:42.000Z</time><ele>333.8</ele></trkpt><trkpt lat="45.812634" lon="9.429456"><time>2024-03-23T13:00:43.000Z</time><ele>333.6</ele></trkpt><trkpt lat="45.812626" lon="9.429454"><time>2024-03-23T13:00:44.000Z</time><ele>333.6</ele></trkpt><trkpt lat="45.81262" lon="9.429451"><time>2024-03-23T13:00:45.000Z</time><ele>333.6</ele></trkpt><trkpt lat="45.812613" lon="9.429448"><time>2024-03-23T13:00:46.000Z</time><ele>333.6</ele></trkpt><trkpt lat="45.812604" lon="9.429444"><time>2024-03-23T13:00:47.000Z</time><ele>333.4</ele></trkpt><trkpt lat="45.812596" lon="9.429441"><time>2024-03-23T13:00:48.000Z</time><ele>333.4</ele></trkpt><trkpt lat="45.812587" lon="9.429437"><time>2024-03-23T13:00:49.000Z</time><ele>333.2</ele></trkpt><trkpt lat="45.812578" lon="9.429434"><time>2024-03-23T13:00:50.000Z</time><ele>333.2</ele></trkpt><trkpt lat="45.812572" lon="9.42943"><time>2024-03-23T13:00:51.000Z</time><ele>333</ele></trkpt><trkpt lat="45.812565" lon="9.42943"><time>2024-03-23T13:00:52.000Z</time><ele>332.8</ele></trkpt><trkpt lat="45.812556" lon="9.429432"><time>2024-03-23T13:00:53.000Z</time><ele>332.8</ele></trkpt><trkpt lat="45.812548" lon="9.429432"><time>2024-03-23T13:00:54.000Z</time><ele>332.6</ele></trkpt><trkpt lat="45.812541" lon="9.429431"><time>2024-03-23T13:00:55.000Z</time><ele>332.4</ele></trkpt><trkpt lat="45.812536" lon="9.42943"><time>2024-03-23T13:00:56.000Z</time><ele>332.4</ele></trkpt><trkpt lat="45.812531" lon="9.429435"><time>2024-03-23T13:00:57.000Z</time><ele>332.2</ele></trkpt><trkpt lat="45.812529" lon="9.429435"><time>2024-03-23T13:00:58.000Z</time><ele>332.2</ele></trkpt><trkpt lat="45.812529" lon="9.429435"><time>2024-03-23T13:00:59.000Z</time><ele>332.2</ele></trkpt><trkpt lat="45.812529" lon="9.429436"><time>2024-03-23T13:01:00.000Z</time><ele>332.2</ele></trkpt><trkpt lat="45.81253" lon="9.429435"><time>2024-03-23T13:01:01.000Z</time><ele>332</ele></trkpt><trkpt lat="45.812531" lon="9.429434"><time>2024-03-23T13:01:02.000Z</time><ele>332</ele></trkpt><trkpt lat="45.812532" lon="9.429433"><time>2024-03-23T13:01:03.000Z</time><ele>332</ele></trkpt><trkpt lat="45.812532" lon="9.429433"><time>2024-03-23T13:01:04.000Z</time><ele>332</ele></trkpt><trkpt lat="45.812532" lon="9.429432"><time>2024-03-23T13:01:05.000Z</time><ele>331.8</ele></trkpt><trkpt lat="45.812532" lon="9.429432"><time>2024-03-23T13:01:06.000Z</time><ele>331.8</ele></trkpt><trkpt lat="45.812532" lon="9.429432"><time>2024-03-23T13:01:07.000Z</time><ele>331.8</ele></trkpt><trkpt lat="45.812532" lon="9.429432"><time>2024-03-23T13:01:08.000Z</time><ele>331.8</ele></trkpt><trkpt lat="45.812532" lon="9.429432"><time>2024-03-23T13:01:09.000Z</time><ele>331.8</ele></trkpt><trkpt lat="45.812532" lon="9.429432"><time>2024-03-23T13:01:10.000Z</time><ele>331.8</ele></trkpt><trkpt lat="45.812532" lon="9.429432"><time>2024-03-23T13:01:11.000Z</time><ele>331.8</ele></trkpt><trkpt lat="45.812532" lon="9.429432"><time>2024-03-23T13:01:12.000Z</time><ele>331.8</ele></trkpt><trkpt lat="45.812532" lon="9.429432"><time>2024-03-23T13:01:13.000Z</time><ele>331.8</ele></trkpt><trkpt lat="45.812532" lon="9.429432"><time>2024-03-23T13:01:14.000Z</time><ele>331.8</ele></trkpt><trkpt lat="45.812532" lon="9.429432"><time>2024-03-23T13:01:15.000Z</time><ele>331.8</ele></trkpt><trkpt lat="45.812532" lon="9.429432"><time>2024-03-23T13:01:16.000Z</time><ele>331.8</ele></trkpt><trkpt lat="45.812531" lon="9.429432"><time>2024-03-23T13:01:17.000Z</time><ele>331.8</ele></trkpt><trkpt lat="45.812531" lon="9.429432"><time>2024-03-23T13:01:18.000Z</time><ele>331.8</ele></trkpt><trkpt lat="45.812531" lon="9.429432"><time>2024-03-23T13:01:19.000Z</time><ele>331.6</ele></trkpt><trkpt lat="45.812531" lon="9.429432"><time>2024-03-23T13:01:20.000Z</time><ele>331.6</ele></trkpt><trkpt lat="45.81253" lon="9.429432"><time>2024-03-23T13:01:21.000Z</time><ele>331.6</ele></trkpt><trkpt lat="45.81253" lon="9.429432"><time>2024-03-23T13:01:22.000Z</time><ele>331.6</ele></trkpt><trkpt lat="45.81253" lon="9.429432"><time>2024-03-23T13:01:23.000Z</time><ele>331.6</ele></trkpt><trkpt lat="45.81253" lon="9.429432"><time>2024-03-23T13:01:24.000Z</time><ele>331.6</ele></trkpt><trkpt lat="45.81253" lon="9.429432"><time>2024-03-23T13:01:25.000Z</time><ele>331.6</ele></trkpt><trkpt lat="45.812529" lon="9.429432"><time>2024-03-23T13:01:26.000Z</time><ele>331.6</ele></trkpt><trkpt lat="45.812529" lon="9.429432"><time>2024-03-23T13:01:27.000Z</time><ele>331.6</ele></trkpt><trkpt lat="45.812529" lon="9.429432"><time>2024-03-23T13:01:28.000Z</time><ele>331.6</ele></trkpt><trkpt lat="45.812529" lon="9.429432"><time>2024-03-23T13:01:29.000Z</time><ele>331.6</ele></trkpt><trkpt lat="45.812529" lon="9.429431"><time>2024-03-23T13:01:30.000Z</time><ele>331.6</ele></trkpt><trkpt lat="45.812528" lon="9.429429"><time>2024-03-23T13:01:31.000Z</time><ele>331.6</ele></trkpt><trkpt lat="45.812528" lon="9.429428"><time>2024-03-23T13:01:32.000Z</time><ele>331.6</ele></trkpt><trkpt lat="45.812528" lon="9.429428"><time>2024-03-23T13:01:33.000Z</time><ele>331.6</ele></trkpt><trkpt lat="45.812528" lon="9.429428"><time>2024-03-23T13:01:34.000Z</time><ele>331.4</ele></trkpt><trkpt lat="45.812528" lon="9.429428"><time>2024-03-23T13:01:35.000Z</time><ele>331.4</ele></trkpt><trkpt lat="45.812528" lon="9.429428"><time>2024-03-23T13:01:36.000Z</time><ele>331.4</ele></trkpt><trkpt lat="45.812528" lon="9.429428"><time>2024-03-23T13:01:37.000Z</time><ele>331.4</ele></trkpt><trkpt lat="45.812528" lon="9.429428"><time>2024-03-23T13:01:38.000Z</time><ele>331.4</ele></trkpt><trkpt lat="45.812528" lon="9.429428"><time>2024-03-23T13:01:39.000Z</time><ele>331.4</ele></trkpt><trkpt lat="45.812528" lon="9.429428"><time>2024-03-23T13:01:40.000Z</time><ele>331.4</ele></trkpt><trkpt lat="45.812528" lon="9.429427"><time>2024-03-23T13:01:41.000Z</time><ele>331.4</ele></trkpt><trkpt lat="45.812528" lon="9.429427"><time>2024-03-23T13:01:42.000Z</time><ele>331.6</ele></trkpt><trkpt lat="45.812528" lon="9.429427"><time>2024-03-23T13:01:43.000Z</time><ele>331.6</ele></trkpt><trkpt lat="45.812528" lon="9.429427"><time>2024-03-23T13:01:44.000Z</time><ele>331.6</ele></trkpt><trkpt lat="45.812528" lon="9.429427"><time>2024-03-23T13:01:45.000Z</time><ele>331.6</ele></trkpt><trkpt lat="45.812528" lon="9.429427"><time>2024-03-23T13:01:46.000Z</time><ele>331.6</ele></trkpt><trkpt lat="45.812528" lon="9.429427"><time>2024-03-23T13:01:47.000Z</time><ele>331.4</ele></trkpt><trkpt lat="45.812528" lon="9.429427"><time>2024-03-23T13:01:48.000Z</time><ele>331.4</ele></trkpt><trkpt lat="45.812528" lon="9.429427"><time>2024-03-23T13:01:49.000Z</time><ele>331.4</ele></trkpt><trkpt lat="45.812528" lon="9.429427"><time>2024-03-23T13:01:50.000Z</time><ele>331.6</ele></trkpt><trkpt lat="45.812528" lon="9.429427"><time>2024-03-23T13:01:51.000Z</time><ele>331.4</ele></trkpt><trkpt lat="45.812528" lon="9.429427"><time>2024-03-23T13:01:52.000Z</time><ele>331.4</ele></trkpt><trkpt lat="45.812528" lon="9.429428"><time>2024-03-23T13:01:53.000Z</time><ele>331.4</ele></trkpt><trkpt lat="45.812528" lon="9.429428"><time>2024-03-23T13:01:54.000Z</time><ele>331.4</ele></trkpt><trkpt lat="45.812528" lon="9.429428"><time>2024-03-23T13:01:55.000Z</time><ele>331.4</ele></trkpt><trkpt lat="45.812528" lon="9.429428"><time>2024-03-23T13:01:56.000Z</time><ele>331.2</ele></trkpt><trkpt lat="45.812528" lon="9.429429"><time>2024-03-23T13:01:57.000Z</time><ele>331.2</ele></trkpt><trkpt lat="45.812528" lon="9.429429"><time>2024-03-23T13:01:58.000Z</time><ele>331</ele></trkpt><trkpt lat="45.812528" lon="9.429428"><time>2024-03-23T13:01:59.000Z</time><ele>330.8</ele></trkpt><trkpt lat="45.812536" lon="9.42942"><time>2024-03-23T13:02:00.000Z</time><ele>330.8</ele></trkpt><trkpt lat="45.812546" lon="9.429413"><time>2024-03-23T13:02:01.000Z</time><ele>330.8</ele></trkpt><trkpt lat="45.812554" lon="9.429406"><time>2024-03-23T13:02:02.000Z</time><ele>330.6</ele></trkpt><trkpt lat="45.812567" lon="9.429404"><time>2024-03-23T13:02:03.000Z</time><ele>330.6</ele></trkpt><trkpt lat="45.812578" lon="9.429396"><time>2024-03-23T13:02:04.000Z</time><ele>330.6</ele></trkpt><trkpt lat="45.812585" lon="9.429383"><time>2024-03-23T13:02:05.000Z</time><ele>330.6</ele></trkpt><trkpt lat="45.812594" lon="9.429374"><time>2024-03-23T13:02:06.000Z</time><ele>330.6</ele></trkpt><trkpt lat="45.812603" lon="9.429369"><time>2024-03-23T13:02:07.000Z</time><ele>330.6</ele></trkpt><trkpt lat="45.812613" lon="9.429363"><time>2024-03-23T13:02:08.000Z</time><ele>330.4</ele></trkpt><trkpt lat="45.812626" lon="9.429358"><time>2024-03-23T13:02:09.000Z</time><ele>330.4</ele></trkpt><trkpt lat="45.812638" lon="9.429349"><time>2024-03-23T13:02:10.000Z</time><ele>330.2</ele></trkpt><trkpt lat="45.812654" lon="9.429341"><time>2024-03-23T13:02:11.000Z</time><ele>330.2</ele></trkpt><trkpt lat="45.812665" lon="9.429331"><time>2024-03-23T13:02:12.000Z</time><ele>330</ele></trkpt><trkpt lat="45.812673" lon="9.429324"><time>2024-03-23T13:02:13.000Z</time><ele>330</ele></trkpt><trkpt lat="45.812675" lon="9.429312"><time>2024-03-23T13:02:14.000Z</time><ele>330</ele></trkpt><trkpt lat="45.812678" lon="9.429306"><time>2024-03-23T13:02:15.000Z</time><ele>329.8</ele></trkpt><trkpt lat="45.812688" lon="9.429301"><time>2024-03-23T13:02:16.000Z</time><ele>329.8</ele></trkpt><trkpt lat="45.812696" lon="9.429297"><time>2024-03-23T13:02:17.000Z</time><ele>329.8</ele></trkpt><trkpt lat="45.812699" lon="9.429292"><time>2024-03-23T13:02:18.000Z</time><ele>329.8</ele></trkpt><trkpt lat="45.812704" lon="9.429285"><time>2024-03-23T13:02:19.000Z</time><ele>329.6</ele></trkpt><trkpt lat="45.812711" lon="9.429282"><time>2024-03-23T13:02:20.000Z</time><ele>329.6</ele></trkpt><trkpt lat="45.81272" lon="9.429279"><time>2024-03-23T13:02:21.000Z</time><ele>329.6</ele></trkpt><trkpt lat="45.812723" lon="9.429275"><time>2024-03-23T13:02:22.000Z</time><ele>329.6</ele></trkpt><trkpt lat="45.812724" lon="9.42927"><time>2024-03-23T13:02:23.000Z</time><ele>329.6</ele></trkpt><trkpt lat="45.812725" lon="9.429267"><time>2024-03-23T13:02:24.000Z</time><ele>329.6</ele></trkpt><trkpt lat="45.812727" lon="9.429266"><time>2024-03-23T13:02:25.000Z</time><ele>329.6</ele></trkpt><trkpt lat="45.812728" lon="9.429265"><time>2024-03-23T13:02:26.000Z</time><ele>329.8</ele></trkpt><trkpt lat="45.812727" lon="9.429264"><time>2024-03-23T13:02:27.000Z</time><ele>329.8</ele></trkpt><trkpt lat="45.812726" lon="9.429264"><time>2024-03-23T13:02:28.000Z</time><ele>329.8</ele></trkpt><trkpt lat="45.812727" lon="9.429264"><time>2024-03-23T13:02:29.000Z</time><ele>330</ele></trkpt><trkpt lat="45.812728" lon="9.429265"><time>2024-03-23T13:02:30.000Z</time><ele>330</ele></trkpt><trkpt lat="45.81273" lon="9.429265"><time>2024-03-23T13:02:31.000Z</time><ele>330</ele></trkpt><trkpt lat="45.812731" lon="9.429266"><time>2024-03-23T13:02:32.000Z</time><ele>330</ele></trkpt><trkpt lat="45.812732" lon="9.429268"><time>2024-03-23T13:02:33.000Z</time><ele>330</ele></trkpt><trkpt lat="45.812734" lon="9.429272"><time>2024-03-23T13:02:34.000Z</time><ele>330</ele></trkpt><trkpt lat="45.812734" lon="9.429275"><time>2024-03-23T13:02:35.000Z</time><ele>330</ele></trkpt><trkpt lat="45.812734" lon="9.429276"><time>2024-03-23T13:02:36.000Z</time><ele>330</ele></trkpt><trkpt lat="45.812734" lon="9.429277"><time>2024-03-23T13:02:37.000Z</time><ele>330</ele></trkpt><trkpt lat="45.812733" lon="9.429278"><time>2024-03-23T13:02:38.000Z</time><ele>330</ele></trkpt><trkpt lat="45.812733" lon="9.429278"><time>2024-03-23T13:02:39.000Z</time><ele>330</ele></trkpt><trkpt lat="45.812735" lon="9.429278"><time>2024-03-23T13:02:40.000Z</time><ele>329.8</ele></trkpt><trkpt lat="45.812735" lon="9.429278"><time>2024-03-23T13:02:41.000Z</time><ele>329.8</ele></trkpt><trkpt lat="45.812735" lon="9.429278"><time>2024-03-23T13:02:42.000Z</time><ele>329.8</ele></trkpt><trkpt lat="45.812735" lon="9.429278"><time>2024-03-23T13:02:43.000Z</time><ele>329.8</ele></trkpt><trkpt lat="45.812735" lon="9.429278"><time>2024-03-23T13:02:44.000Z</time><ele>329.6</ele></trkpt><trkpt lat="45.812737" lon="9.429277"><time>2024-03-23T13:02:45.000Z</time><ele>329.6</ele></trkpt><trkpt lat="45.812744" lon="9.429268"><time>2024-03-23T13:02:46.000Z</time><ele>329.6</ele></trkpt><trkpt lat="45.812751" lon="9.429261"><time>2024-03-23T13:02:47.000Z</time><ele>329.6</ele></trkpt><trkpt lat="45.812754" lon="9.429254"><time>2024-03-23T13:02:48.000Z</time><ele>329.6</ele></trkpt><trkpt lat="45.812755" lon="9.429249"><time>2024-03-23T13:02:49.000Z</time><ele>329.6</ele></trkpt><trkpt lat="45.812757" lon="9.429248"><time>2024-03-23T13:02:50.000Z</time><ele>329.4</ele></trkpt><trkpt lat="45.812764" lon="9.429246"><time>2024-03-23T13:02:51.000Z</time><ele>329.4</ele></trkpt><trkpt lat="45.812775" lon="9.429243"><time>2024-03-23T13:02:52.000Z</time><ele>329.4</ele></trkpt><trkpt lat="45.812785" lon="9.429238"><time>2024-03-23T13:02:53.000Z</time><ele>329.2</ele></trkpt><trkpt lat="45.812792" lon="9.429235"><time>2024-03-23T13:02:54.000Z</time><ele>329.2</ele></trkpt><trkpt lat="45.8128" lon="9.42923"><time>2024-03-23T13:02:55.000Z</time><ele>329.2</ele></trkpt><trkpt lat="45.812808" lon="9.429224"><time>2024-03-23T13:02:56.000Z</time><ele>329.2</ele></trkpt><trkpt lat="45.812816" lon="9.429216"><time>2024-03-23T13:02:57.000Z</time><ele>329.2</ele></trkpt><trkpt lat="45.812826" lon="9.429208"><time>2024-03-23T13:02:58.000Z</time><ele>329.2</ele></trkpt><trkpt lat="45.812837" lon="9.429203"><time>2024-03-23T13:02:59.000Z</time><ele>329.2</ele></trkpt><trkpt lat="45.812848" lon="9.429198"><time>2024-03-23T13:03:00.000Z</time><ele>329.2</ele></trkpt><trkpt lat="45.812857" lon="9.429192"><time>2024-03-23T13:03:01.000Z</time><ele>329.4</ele></trkpt><trkpt lat="45.812865" lon="9.429183"><time>2024-03-23T13:03:02.000Z</time><ele>329.4</ele></trkpt><trkpt lat="45.812875" lon="9.429173"><time>2024-03-23T13:03:03.000Z</time><ele>329.4</ele></trkpt><trkpt lat="45.812884" lon="9.429164"><time>2024-03-23T13:03:04.000Z</time><ele>329.2</ele></trkpt><trkpt lat="45.812893" lon="9.429156"><time>2024-03-23T13:03:05.000Z</time><ele>329.2</ele></trkpt><trkpt lat="45.812905" lon="9.429147"><time>2024-03-23T13:03:06.000Z</time><ele>329.2</ele></trkpt><trkpt lat="45.812915" lon="9.429137"><time>2024-03-23T13:03:07.000Z</time><ele>329.2</ele></trkpt><trkpt lat="45.812926" lon="9.429126"><time>2024-03-23T13:03:08.000Z</time><ele>329.2</ele></trkpt><trkpt lat="45.812935" lon="9.429114"><time>2024-03-23T13:03:09.000Z</time><ele>329.2</ele></trkpt><trkpt lat="45.812941" lon="9.429101"><time>2024-03-23T13:03:10.000Z</time><ele>329.2</ele></trkpt><trkpt lat="45.812949" lon="9.429089"><time>2024-03-23T13:03:11.000Z</time><ele>329.2</ele></trkpt><trkpt lat="45.812958" lon="9.429077"><time>2024-03-23T13:03:12.000Z</time><ele>329.2</ele></trkpt><trkpt lat="45.812969" lon="9.429068"><time>2024-03-23T13:03:13.000Z</time><ele>329</ele></trkpt><trkpt lat="45.812978" lon="9.429056"><time>2024-03-23T13:03:14.000Z</time><ele>328.8</ele></trkpt><trkpt lat="45.812989" lon="9.429048"><time>2024-03-23T13:03:15.000Z</time><ele>328.8</ele></trkpt><trkpt lat="45.812997" lon="9.429039"><time>2024-03-23T13:03:16.000Z</time><ele>328.6</ele></trkpt><trkpt lat="45.813001" lon="9.429026"><time>2024-03-23T13:03:17.000Z</time><ele>328.6</ele></trkpt><trkpt lat="45.813006" lon="9.429016"><time>2024-03-23T13:03:18.000Z</time><ele>328.6</ele></trkpt><trkpt lat="45.813007" lon="9.429014"><time>2024-03-23T13:03:19.000Z</time><ele>328.6</ele></trkpt><trkpt lat="45.813008" lon="9.429013"><time>2024-03-23T13:03:20.000Z</time><ele>328.6</ele></trkpt><trkpt lat="45.813011" lon="9.429013"><time>2024-03-23T13:03:21.000Z</time><ele>328.6</ele></trkpt><trkpt lat="45.813016" lon="9.429009"><time>2024-03-23T13:03:22.000Z</time><ele>328.6</ele></trkpt><trkpt lat="45.813023" lon="9.429005"><time>2024-03-23T13:03:23.000Z</time><ele>328.6</ele></trkpt><trkpt lat="45.813028" lon="9.428997"><time>2024-03-23T13:03:24.000Z</time><ele>328.6</ele></trkpt><trkpt lat="45.813034" lon="9.428989"><time>2024-03-23T13:03:25.000Z</time><ele>328.6</ele></trkpt><trkpt lat="45.813038" lon="9.428981"><time>2024-03-23T13:03:26.000Z</time><ele>328.6</ele></trkpt><trkpt lat="45.813045" lon="9.428974"><time>2024-03-23T13:03:27.000Z</time><ele>328.4</ele></trkpt><trkpt lat="45.813051" lon="9.428967"><time>2024-03-23T13:03:28.000Z</time><ele>328.4</ele></trkpt><trkpt lat="45.813055" lon="9.42896"><time>2024-03-23T13:03:29.000Z</time><ele>328.2</ele></trkpt><trkpt lat="45.813058" lon="9.428955"><time>2024-03-23T13:03:30.000Z</time><ele>328</ele></trkpt><trkpt lat="45.813063" lon="9.42895"><time>2024-03-23T13:03:31.000Z</time><ele>328</ele></trkpt><trkpt lat="45.813072" lon="9.428948"><time>2024-03-23T13:03:32.000Z</time><ele>328</ele></trkpt><trkpt lat="45.813081" lon="9.428945"><time>2024-03-23T13:03:33.000Z</time><ele>327.8</ele></trkpt><trkpt lat="45.813086" lon="9.428941"><time>2024-03-23T13:03:34.000Z</time><ele>327.8</ele></trkpt><trkpt lat="45.813089" lon="9.428943"><time>2024-03-23T13:03:35.000Z</time><ele>327.8</ele></trkpt><trkpt lat="45.813087" lon="9.428943"><time>2024-03-23T13:03:36.000Z</time><ele>327.8</ele></trkpt><trkpt lat="45.813086" lon="9.428944"><time>2024-03-23T13:03:37.000Z</time><ele>327.8</ele></trkpt><trkpt lat="45.813084" lon="9.428944"><time>2024-03-23T13:03:38.000Z</time><ele>327.8</ele></trkpt><trkpt lat="45.813081" lon="9.428942"><time>2024-03-23T13:03:39.000Z</time><ele>327.8</ele></trkpt><trkpt lat="45.813078" lon="9.428939"><time>2024-03-23T13:03:40.000Z</time><ele>327.8</ele></trkpt><trkpt lat="45.813067" lon="9.428935"><time>2024-03-23T13:03:41.000Z</time><ele>327.8</ele></trkpt><trkpt lat="45.813055" lon="9.428932"><time>2024-03-23T13:03:42.000Z</time><ele>327.8</ele></trkpt><trkpt lat="45.813045" lon="9.428932"><time>2024-03-23T13:03:43.000Z</time><ele>327.8</ele></trkpt><trkpt lat="45.81304" lon="9.42894"><time>2024-03-23T13:03:44.000Z</time><ele>327.8</ele></trkpt><trkpt lat="45.813035" lon="9.428951"><time>2024-03-23T13:03:45.000Z</time><ele>327.8</ele></trkpt><trkpt lat="45.813031" lon="9.428961"><time>2024-03-23T13:03:46.000Z</time><ele>327.8</ele></trkpt><trkpt lat="45.813032" lon="9.428973"><time>2024-03-23T13:03:47.000Z</time><ele>328</ele></trkpt><trkpt lat="45.813024" lon="9.428977"><time>2024-03-23T13:03:48.000Z</time><ele>328</ele></trkpt><trkpt lat="45.813016" lon="9.428982"><time>2024-03-23T13:03:49.000Z</time><ele>328</ele></trkpt><trkpt lat="45.813008" lon="9.428988"><time>2024-03-23T13:03:50.000Z</time><ele>328</ele></trkpt><trkpt lat="45.812998" lon="9.428996"><time>2024-03-23T13:03:51.000Z</time><ele>328.2</ele></trkpt><trkpt lat="45.812986" lon="9.429004"><time>2024-03-23T13:03:52.000Z</time><ele>328.2</ele></trkpt><trkpt lat="45.812977" lon="9.429013"><time>2024-03-23T13:03:53.000Z</time><ele>328.4</ele></trkpt><trkpt lat="45.812968" lon="9.429022"><time>2024-03-23T13:03:54.000Z</time><ele>328.4</ele></trkpt><trkpt lat="45.81296" lon="9.42903"><time>2024-03-23T13:03:55.000Z</time><ele>328.4</ele></trkpt><trkpt lat="45.812951" lon="9.429035"><time>2024-03-23T13:03:56.000Z</time><ele>328.4</ele></trkpt><trkpt lat="45.812945" lon="9.429043"><time>2024-03-23T13:03:57.000Z</time><ele>328.4</ele></trkpt><trkpt lat="45.812933" lon="9.429049"><time>2024-03-23T13:03:58.000Z</time><ele>328.4</ele></trkpt><trkpt lat="45.812925" lon="9.429059"><time>2024-03-23T13:03:59.000Z</time><ele>328.6</ele></trkpt><trkpt lat="45.812916" lon="9.42907"><time>2024-03-23T13:04:00.000Z</time><ele>328.6</ele></trkpt><trkpt lat="45.812908" lon="9.429078"><time>2024-03-23T13:04:01.000Z</time><ele>328.6</ele></trkpt><trkpt lat="45.812902" lon="9.429089"><time>2024-03-23T13:04:02.000Z</time><ele>328.8</ele></trkpt><trkpt lat="45.812895" lon="9.429098"><time>2024-03-23T13:04:03.000Z</time><ele>329</ele></trkpt><trkpt lat="45.812888" lon="9.429109"><time>2024-03-23T13:04:04.000Z</time><ele>329.2</ele></trkpt><trkpt lat="45.812883" lon="9.429118"><time>2024-03-23T13:04:05.000Z</time><ele>329.2</ele></trkpt><trkpt lat="45.812874" lon="9.429126"><time>2024-03-23T13:04:06.000Z</time><ele>329.4</ele></trkpt><trkpt lat="45.812867" lon="9.429133"><time>2024-03-23T13:04:07.000Z</time><ele>329.4</ele></trkpt><trkpt lat="45.812859" lon="9.429141"><time>2024-03-23T13:04:08.000Z</time><ele>329.4</ele></trkpt><trkpt lat="45.81285" lon="9.429148"><time>2024-03-23T13:04:09.000Z</time><ele>329.4</ele></trkpt><trkpt lat="45.812841" lon="9.429156"><time>2024-03-23T13:04:10.000Z</time><ele>329.6</ele></trkpt><trkpt lat="45.812831" lon="9.429164"><time>2024-03-23T13:04:11.000Z</time><ele>329.6</ele></trkpt><trkpt lat="45.812824" lon="9.429173"><time>2024-03-23T13:04:12.000Z</time><ele>329.6</ele></trkpt><trkpt lat="45.812815" lon="9.429182"><time>2024-03-23T13:04:13.000Z</time><ele>329.8</ele></trkpt><trkpt lat="45.812807" lon="9.42919"><time>2024-03-23T13:04:14.000Z</time><ele>329.8</ele></trkpt><trkpt lat="45.8128" lon="9.429197"><time>2024-03-23T13:04:15.000Z</time><ele>329.8</ele></trkpt><trkpt lat="45.812788" lon="9.429205"><time>2024-03-23T13:04:16.000Z</time><ele>329.8</ele></trkpt><trkpt lat="45.812777" lon="9.429215"><time>2024-03-23T13:04:17.000Z</time><ele>330</ele></trkpt><trkpt lat="45.812769" lon="9.429227"><time>2024-03-23T13:04:18.000Z</time><ele>330</ele></trkpt><trkpt lat="45.812759" lon="9.429244"><time>2024-03-23T13:04:19.000Z</time><ele>330</ele></trkpt><trkpt lat="45.812749" lon="9.429254"><time>2024-03-23T13:04:20.000Z</time><ele>330</ele></trkpt><trkpt lat="45.812742" lon="9.429262"><time>2024-03-23T13:04:21.000Z</time><ele>330</ele></trkpt><trkpt lat="45.812734" lon="9.429268"><time>2024-03-23T13:04:22.000Z</time><ele>330</ele></trkpt><trkpt lat="45.812722" lon="9.429276"><time>2024-03-23T13:04:23.000Z</time><ele>330.2</ele></trkpt><trkpt lat="45.812714" lon="9.42928"><time>2024-03-23T13:04:24.000Z</time><ele>330.2</ele></trkpt><trkpt lat="45.812702" lon="9.429284"><time>2024-03-23T13:04:25.000Z</time><ele>330.2</ele></trkpt><trkpt lat="45.81269" lon="9.429285"><time>2024-03-23T13:04:26.000Z</time><ele>330.2</ele></trkpt><trkpt lat="45.81268" lon="9.429287"><time>2024-03-23T13:04:27.000Z</time><ele>330.2</ele></trkpt><trkpt lat="45.81267" lon="9.429288"><time>2024-03-23T13:04:28.000Z</time><ele>330.2</ele></trkpt><trkpt lat="45.812662" lon="9.429296"><time>2024-03-23T13:04:29.000Z</time><ele>330.2</ele></trkpt><trkpt lat="45.812653" lon="9.429311"><time>2024-03-23T13:04:30.000Z</time><ele>330.4</ele></trkpt><trkpt lat="45.812642" lon="9.429321"><time>2024-03-23T13:04:31.000Z</time><ele>330.4</ele></trkpt><trkpt lat="45.812637" lon="9.42933"><time>2024-03-23T13:04:32.000Z</time><ele>330.4</ele></trkpt><trkpt lat="45.812624" lon="9.429337"><time>2024-03-23T13:04:33.000Z</time><ele>330.4</ele></trkpt><trkpt lat="45.812614" lon="9.429348"><time>2024-03-23T13:04:34.000Z</time><ele>330.4</ele></trkpt><trkpt lat="45.812606" lon="9.429358"><time>2024-03-23T13:04:35.000Z</time><ele>330.6</ele></trkpt><trkpt lat="45.812601" lon="9.429372"><time>2024-03-23T13:04:36.000Z</time><ele>330.6</ele></trkpt><trkpt lat="45.812593" lon="9.429377"><time>2024-03-23T13:04:37.000Z</time><ele>330.6</ele></trkpt><trkpt lat="45.812586" lon="9.429386"><time>2024-03-23T13:04:38.000Z</time><ele>330.8</ele></trkpt><trkpt lat="45.812575" lon="9.42939"><time>2024-03-23T13:04:39.000Z</time><ele>330.8</ele></trkpt><trkpt lat="45.812564" lon="9.429396"><time>2024-03-23T13:04:40.000Z</time><ele>331</ele></trkpt><trkpt lat="45.812551" lon="9.429402"><time>2024-03-23T13:04:41.000Z</time><ele>331</ele></trkpt><trkpt lat="45.812539" lon="9.429405"><time>2024-03-23T13:04:42.000Z</time><ele>331.2</ele></trkpt><trkpt lat="45.812529" lon="9.429408"><time>2024-03-23T13:04:43.000Z</time><ele>331.2</ele></trkpt><trkpt lat="45.812519" lon="9.429412"><time>2024-03-23T13:04:44.000Z</time><ele>331.4</ele></trkpt><trkpt lat="45.81251" lon="9.429413"><time>2024-03-23T13:04:45.000Z</time><ele>331.4</ele></trkpt><trkpt lat="45.812499" lon="9.429415"><time>2024-03-23T13:04:46.000Z</time><ele>331.4</ele></trkpt><trkpt lat="45.812484" lon="9.429411"><time>2024-03-23T13:04:47.000Z</time><ele>331.4</ele></trkpt><trkpt lat="45.812471" lon="9.429411"><time>2024-03-23T13:04:48.000Z</time><ele>331.4</ele></trkpt><trkpt lat="45.812458" lon="9.429409"><time>2024-03-23T13:04:49.000Z</time><ele>331.4</ele></trkpt><trkpt lat="45.812452" lon="9.429409"><time>2024-03-23T13:04:50.000Z</time><ele>331.4</ele></trkpt><trkpt lat="45.812451" lon="9.429412"><time>2024-03-23T13:04:51.000Z</time><ele>331.4</ele></trkpt><trkpt lat="45.812453" lon="9.429424"><time>2024-03-23T13:04:52.000Z</time><ele>331.2</ele></trkpt><trkpt lat="45.812452" lon="9.429429"><time>2024-03-23T13:04:53.000Z</time><ele>331.2</ele></trkpt><trkpt lat="45.812443" lon="9.429436"><time>2024-03-23T13:04:54.000Z</time><ele>331.2</ele></trkpt><trkpt lat="45.812438" lon="9.429439"><time>2024-03-23T13:04:55.000Z</time><ele>331</ele></trkpt><trkpt lat="45.812428" lon="9.429445"><time>2024-03-23T13:04:56.000Z</time><ele>330.8</ele></trkpt><trkpt lat="45.812414" lon="9.429445"><time>2024-03-23T13:04:57.000Z</time><ele>330.8</ele></trkpt><trkpt lat="45.812395" lon="9.429438"><time>2024-03-23T13:04:58.000Z</time><ele>330.8</ele></trkpt><trkpt lat="45.812372" lon="9.429426"><time>2024-03-23T13:04:59.000Z</time><ele>330.8</ele></trkpt><trkpt lat="45.812358" lon="9.42942"><time>2024-03-23T13:05:00.000Z</time><ele>330.8</ele></trkpt><trkpt lat="45.812347" lon="9.42942"><time>2024-03-23T13:05:01.000Z</time><ele>330.6</ele></trkpt><trkpt lat="45.81234" lon="9.429422"><time>2024-03-23T13:05:02.000Z</time><ele>330.6</ele></trkpt><trkpt lat="45.812337" lon="9.429419"><time>2024-03-23T13:05:03.000Z</time><ele>330.6</ele></trkpt><trkpt lat="45.812344" lon="9.429416"><time>2024-03-23T13:05:04.000Z</time><ele>330.4</ele></trkpt><trkpt lat="45.812345" lon="9.429407"><time>2024-03-23T13:05:05.000Z</time><ele>330.4</ele></trkpt><trkpt lat="45.812343" lon="9.429404"><time>2024-03-23T13:05:06.000Z</time><ele>330.2</ele></trkpt><trkpt lat="45.812342" lon="9.429401"><time>2024-03-23T13:05:07.000Z</time><ele>330.2</ele></trkpt><trkpt lat="45.812342" lon="9.429399"><time>2024-03-23T13:05:08.000Z</time><ele>330.2</ele></trkpt><trkpt lat="45.812338" lon="9.429402"><time>2024-03-23T13:05:09.000Z</time><ele>330</ele></trkpt><trkpt lat="45.812328" lon="9.429404"><time>2024-03-23T13:05:10.000Z</time><ele>330</ele></trkpt><trkpt lat="45.812325" lon="9.429405"><time>2024-03-23T13:05:11.000Z</time><ele>329.8</ele></trkpt><trkpt lat="45.812319" lon="9.429407"><time>2024-03-23T13:05:12.000Z</time><ele>329.6</ele></trkpt><trkpt lat="45.812313" lon="9.42941"><time>2024-03-23T13:05:13.000Z</time><ele>329.6</ele></trkpt><trkpt lat="45.812301" lon="9.429408"><time>2024-03-23T13:05:14.000Z</time><ele>329.6</ele></trkpt><trkpt lat="45.812286" lon="9.429403"><time>2024-03-23T13:05:15.000Z</time><ele>329.4</ele></trkpt><trkpt lat="45.812279" lon="9.429397"><time>2024-03-23T13:05:16.000Z</time><ele>329.4</ele></trkpt><trkpt lat="45.812279" lon="9.429397"><time>2024-03-23T13:05:17.000Z</time><ele>329.4</ele></trkpt><trkpt lat="45.812279" lon="9.429397"><time>2024-03-23T13:05:18.000Z</time><ele>329.2</ele></trkpt><trkpt lat="45.812279" lon="9.429397"><time>2024-03-23T13:05:19.000Z</time><ele>329.2</ele></trkpt><trkpt lat="45.812279" lon="9.429397"><time>2024-03-23T13:05:20.000Z</time><ele>329.2</ele></trkpt><trkpt lat="45.812279" lon="9.429397"><time>2024-03-23T13:05:21.000Z</time><ele>329.2</ele></trkpt><trkpt lat="45.812279" lon="9.429397"><time>2024-03-23T13:05:22.000Z</time><ele>329.2</ele></trkpt><trkpt lat="45.812279" lon="9.429397"><time>2024-03-23T13:05:23.000Z</time><ele>329.2</ele></trkpt><trkpt lat="45.812276" lon="9.429391"><time>2024-03-23T13:05:24.000Z</time><ele>329.2</ele></trkpt><trkpt lat="45.812269" lon="9.429378"><time>2024-03-23T13:05:25.000Z</time><ele>329.2</ele></trkpt><trkpt lat="45.812268" lon="9.429369"><time>2024-03-23T13:05:26.000Z</time><ele>329.2</ele></trkpt><trkpt lat="45.81226" lon="9.429348"><time>2024-03-23T13:05:27.000Z</time><ele>329.2</ele></trkpt><trkpt lat="45.812256" lon="9.429337"><time>2024-03-23T13:05:28.000Z</time><ele>329.2</ele></trkpt><trkpt lat="45.812253" lon="9.429326"><time>2024-03-23T13:05:29.000Z</time><ele>329</ele></trkpt><trkpt lat="45.812245" lon="9.429303"><time>2024-03-23T13:05:30.000Z</time><ele>329</ele></trkpt><trkpt lat="45.812237" lon="9.429281"><time>2024-03-23T13:05:31.000Z</time><ele>329</ele></trkpt><trkpt lat="45.812235" lon="9.42927"><time>2024-03-23T13:05:32.000Z</time><ele>329</ele></trkpt><trkpt lat="45.812232" lon="9.429255"><time>2024-03-23T13:05:33.000Z</time><ele>329</ele></trkpt><trkpt lat="45.812222" lon="9.42924"><time>2024-03-23T13:05:34.000Z</time><ele>329</ele></trkpt><trkpt lat="45.812215" lon="9.429224"><time>2024-03-23T13:05:35.000Z</time><ele>329</ele></trkpt><trkpt lat="45.812212" lon="9.429212"><time>2024-03-23T13:05:36.000Z</time><ele>329</ele></trkpt><trkpt lat="45.812213" lon="9.429199"><time>2024-03-23T13:05:37.000Z</time><ele>328.8</ele></trkpt><trkpt lat="45.812211" lon="9.429186"><time>2024-03-23T13:05:38.000Z</time><ele>328.8</ele></trkpt><trkpt lat="45.812208" lon="9.429177"><time>2024-03-23T13:05:39.000Z</time><ele>328.8</ele></trkpt><trkpt lat="45.812197" lon="9.429164"><time>2024-03-23T13:05:40.000Z</time><ele>328.8</ele></trkpt><trkpt lat="45.812198" lon="9.429151"><time>2024-03-23T13:05:41.000Z</time><ele>328.8</ele></trkpt><trkpt lat="45.8122" lon="9.429138"><time>2024-03-23T13:05:42.000Z</time><ele>328.6</ele></trkpt><trkpt lat="45.812201" lon="9.429125"><time>2024-03-23T13:05:43.000Z</time><ele>328.6</ele></trkpt><trkpt lat="45.812201" lon="9.429111"><time>2024-03-23T13:05:44.000Z</time><ele>328.4</ele></trkpt><trkpt lat="45.812205" lon="9.429102"><time>2024-03-23T13:05:45.000Z</time><ele>328.2</ele></trkpt><trkpt lat="45.812202" lon="9.429093"><time>2024-03-23T13:05:46.000Z</time><ele>328</ele></trkpt><trkpt lat="45.812201" lon="9.429084"><time>2024-03-23T13:05:47.000Z</time><ele>327.8</ele></trkpt><trkpt lat="45.812207" lon="9.429083"><time>2024-03-23T13:05:48.000Z</time><ele>327.8</ele></trkpt><trkpt lat="45.812218" lon="9.429076"><time>2024-03-23T13:05:49.000Z</time><ele>327.6</ele></trkpt><trkpt lat="45.812233" lon="9.429076"><time>2024-03-23T13:05:50.000Z</time><ele>327.4</ele></trkpt><trkpt lat="45.812235" lon="9.429059"><time>2024-03-23T13:05:51.000Z</time><ele>327.2</ele></trkpt><trkpt lat="45.812237" lon="9.429047"><time>2024-03-23T13:05:52.000Z</time><ele>327.2</ele></trkpt><trkpt lat="45.812243" lon="9.429045"><time>2024-03-23T13:05:53.000Z</time><ele>327</ele></trkpt><trkpt lat="45.812256" lon="9.429036"><time>2024-03-23T13:05:54.000Z</time><ele>326.8</ele></trkpt><trkpt lat="45.812269" lon="9.429023"><time>2024-03-23T13:05:55.000Z</time><ele>326.8</ele></trkpt><trkpt lat="45.812276" lon="9.429002"><time>2024-03-23T13:05:56.000Z</time><ele>326.6</ele></trkpt><trkpt lat="45.812287" lon="9.428987"><time>2024-03-23T13:05:57.000Z</time><ele>326.4</ele></trkpt><trkpt lat="45.812288" lon="9.428981"><time>2024-03-23T13:05:58.000Z</time><ele>326.2</ele></trkpt><trkpt lat="45.812262" lon="9.428966"><time>2024-03-23T13:05:59.000Z</time><ele>326</ele></trkpt><trkpt lat="45.81225" lon="9.428963"><time>2024-03-23T13:06:00.000Z</time><ele>326</ele></trkpt><trkpt lat="45.812248" lon="9.428959"><time>2024-03-23T13:06:01.000Z</time><ele>326</ele></trkpt><trkpt lat="45.812264" lon="9.428966"><time>2024-03-23T13:06:02.000Z</time><ele>325.8</ele></trkpt><trkpt lat="45.812273" lon="9.428959"><time>2024-03-23T13:06:03.000Z</time><ele>325.6</ele></trkpt><trkpt lat="45.812269" lon="9.428931"><time>2024-03-23T13:06:04.000Z</time><ele>325.4</ele></trkpt><trkpt lat="45.81227" lon="9.428911"><time>2024-03-23T13:06:05.000Z</time><ele>325.2</ele></trkpt><trkpt lat="45.81228" lon="9.428906"><time>2024-03-23T13:06:06.000Z</time><ele>325</ele></trkpt><trkpt lat="45.812287" lon="9.4289"><time>2024-03-23T13:06:07.000Z</time><ele>324.8</ele></trkpt><trkpt lat="45.812292" lon="9.428891"><time>2024-03-23T13:06:08.000Z</time><ele>324.8</ele></trkpt><trkpt lat="45.812298" lon="9.428882"><time>2024-03-23T13:06:09.000Z</time><ele>324.6</ele></trkpt><trkpt lat="45.812308" lon="9.428876"><time>2024-03-23T13:06:10.000Z</time><ele>324.6</ele></trkpt><trkpt lat="45.812309" lon="9.428862"><time>2024-03-23T13:06:11.000Z</time><ele>324.2</ele></trkpt><trkpt lat="45.812313" lon="9.42885"><time>2024-03-23T13:06:12.000Z</time><ele>324.2</ele></trkpt><trkpt lat="45.812316" lon="9.428836"><time>2024-03-23T13:06:13.000Z</time><ele>323.8</ele></trkpt><trkpt lat="45.812316" lon="9.428824"><time>2024-03-23T13:06:14.000Z</time><ele>323.8</ele></trkpt><trkpt lat="45.81232" lon="9.428818"><time>2024-03-23T13:06:15.000Z</time><ele>323.6</ele></trkpt><trkpt lat="45.812327" lon="9.428811"><time>2024-03-23T13:06:16.000Z</time><ele>323.6</ele></trkpt><trkpt lat="45.812332" lon="9.428801"><time>2024-03-23T13:06:17.000Z</time><ele>323.4</ele></trkpt><trkpt lat="45.812334" lon="9.428788"><time>2024-03-23T13:06:18.000Z</time><ele>323.2</ele></trkpt><trkpt lat="45.812337" lon="9.428777"><time>2024-03-23T13:06:19.000Z</time><ele>323.2</ele></trkpt><trkpt lat="45.812339" lon="9.428766"><time>2024-03-23T13:06:20.000Z</time><ele>323</ele></trkpt><trkpt lat="45.812342" lon="9.428753"><time>2024-03-23T13:06:21.000Z</time><ele>322.8</ele></trkpt><trkpt lat="45.812345" lon="9.42874"><time>2024-03-23T13:06:22.000Z</time><ele>322.6</ele></trkpt><trkpt lat="45.812349" lon="9.42873"><time>2024-03-23T13:06:23.000Z</time><ele>322.4</ele></trkpt><trkpt lat="45.812355" lon="9.428726"><time>2024-03-23T13:06:24.000Z</time><ele>322.4</ele></trkpt><trkpt lat="45.812363" lon="9.428725"><time>2024-03-23T13:06:25.000Z</time><ele>322.2</ele></trkpt><trkpt lat="45.812371" lon="9.428719"><time>2024-03-23T13:06:26.000Z</time><ele>322</ele></trkpt><trkpt lat="45.812376" lon="9.428706"><time>2024-03-23T13:06:27.000Z</time><ele>322</ele></trkpt><trkpt lat="45.81238" lon="9.428692"><time>2024-03-23T13:06:28.000Z</time><ele>321.8</ele></trkpt><trkpt lat="45.812385" lon="9.428683"><time>2024-03-23T13:06:29.000Z</time><ele>321.4</ele></trkpt><trkpt lat="45.812391" lon="9.428675"><time>2024-03-23T13:06:30.000Z</time><ele>321.2</ele></trkpt><trkpt lat="45.812396" lon="9.428665"><time>2024-03-23T13:06:31.000Z</time><ele>321</ele></trkpt><trkpt lat="45.812401" lon="9.428654"><time>2024-03-23T13:06:32.000Z</time><ele>321</ele></trkpt><trkpt lat="45.812406" lon="9.428646"><time>2024-03-23T13:06:33.000Z</time><ele>320.6</ele></trkpt><trkpt lat="45.812412" lon="9.428637"><time>2024-03-23T13:06:34.000Z</time><ele>320.4</ele></trkpt><trkpt lat="45.812418" lon="9.42863"><time>2024-03-23T13:06:35.000Z</time><ele>320.2</ele></trkpt><trkpt lat="45.812424" lon="9.428625"><time>2024-03-23T13:06:36.000Z</time><ele>320.2</ele></trkpt><trkpt lat="45.812429" lon="9.428616"><time>2024-03-23T13:06:37.000Z</time><ele>320</ele></trkpt><trkpt lat="45.812433" lon="9.428608"><time>2024-03-23T13:06:38.000Z</time><ele>320</ele></trkpt><trkpt lat="45.812439" lon="9.428595"><time>2024-03-23T13:06:39.000Z</time><ele>319.8</ele></trkpt><trkpt lat="45.812445" lon="9.42858"><time>2024-03-23T13:06:40.000Z</time><ele>319.6</ele></trkpt><trkpt lat="45.812451" lon="9.42857"><time>2024-03-23T13:06:41.000Z</time><ele>319.4</ele></trkpt><trkpt lat="45.812454" lon="9.428563"><time>2024-03-23T13:06:42.000Z</time><ele>319</ele></trkpt><trkpt lat="45.812456" lon="9.428556"><time>2024-03-23T13:06:43.000Z</time><ele>319</ele></trkpt><trkpt lat="45.81246" lon="9.428547"><time>2024-03-23T13:06:44.000Z</time><ele>318.8</ele></trkpt><trkpt lat="45.812468" lon="9.428539"><time>2024-03-23T13:06:45.000Z</time><ele>318.6</ele></trkpt><trkpt lat="45.812473" lon="9.42853"><time>2024-03-23T13:06:46.000Z</time><ele>318.6</ele></trkpt><trkpt lat="45.812478" lon="9.42852"><time>2024-03-23T13:06:47.000Z</time><ele>318.2</ele></trkpt><trkpt lat="45.812483" lon="9.42851"><time>2024-03-23T13:06:48.000Z</time><ele>318.2</ele></trkpt><trkpt lat="45.812489" lon="9.4285"><time>2024-03-23T13:06:49.000Z</time><ele>318</ele></trkpt><trkpt lat="45.812495" lon="9.428488"><time>2024-03-23T13:06:50.000Z</time><ele>317.8</ele></trkpt><trkpt lat="45.812501" lon="9.428479"><time>2024-03-23T13:06:51.000Z</time><ele>317.8</ele></trkpt><trkpt lat="45.812505" lon="9.428472"><time>2024-03-23T13:06:52.000Z</time><ele>317.6</ele></trkpt><trkpt lat="45.81251" lon="9.428459"><time>2024-03-23T13:06:53.000Z</time><ele>317.4</ele></trkpt><trkpt lat="45.812515" lon="9.428447"><time>2024-03-23T13:06:54.000Z</time><ele>317.4</ele></trkpt><trkpt lat="45.812519" lon="9.428439"><time>2024-03-23T13:06:55.000Z</time><ele>317.2</ele></trkpt><trkpt lat="45.812524" lon="9.42843"><time>2024-03-23T13:06:56.000Z</time><ele>317</ele></trkpt><trkpt lat="45.812529" lon="9.428422"><time>2024-03-23T13:06:57.000Z</time><ele>316.8</ele></trkpt><trkpt lat="45.812532" lon="9.428414"><time>2024-03-23T13:06:58.000Z</time><ele>316.8</ele></trkpt><trkpt lat="45.812535" lon="9.428408"><time>2024-03-23T13:06:59.000Z</time><ele>316.6</ele></trkpt><trkpt lat="45.81254" lon="9.428398"><time>2024-03-23T13:07:00.000Z</time><ele>316.4</ele></trkpt><trkpt lat="45.812547" lon="9.428387"><time>2024-03-23T13:07:01.000Z</time><ele>316.4</ele></trkpt><trkpt lat="45.812553" lon="9.428374"><time>2024-03-23T13:07:02.000Z</time><ele>316.2</ele></trkpt><trkpt lat="45.812556" lon="9.428362"><time>2024-03-23T13:07:03.000Z</time><ele>316.2</ele></trkpt><trkpt lat="45.812559" lon="9.428352"><time>2024-03-23T13:07:04.000Z</time><ele>316</ele></trkpt><trkpt lat="45.812564" lon="9.428343"><time>2024-03-23T13:07:05.000Z</time><ele>315.8</ele></trkpt><trkpt lat="45.812567" lon="9.428329"><time>2024-03-23T13:07:06.000Z</time><ele>315.8</ele></trkpt><trkpt lat="45.81257" lon="9.428316"><time>2024-03-23T13:07:07.000Z</time><ele>315.6</ele></trkpt><trkpt lat="45.812573" lon="9.428305"><time>2024-03-23T13:07:08.000Z</time><ele>315.4</ele></trkpt><trkpt lat="45.812577" lon="9.428298"><time>2024-03-23T13:07:09.000Z</time><ele>315.2</ele></trkpt><trkpt lat="45.81258" lon="9.428292"><time>2024-03-23T13:07:10.000Z</time><ele>315</ele></trkpt><trkpt lat="45.812584" lon="9.42828"><time>2024-03-23T13:07:11.000Z</time><ele>314.8</ele></trkpt><trkpt lat="45.812587" lon="9.428269"><time>2024-03-23T13:07:12.000Z</time><ele>314.8</ele></trkpt><trkpt lat="45.812589" lon="9.428257"><time>2024-03-23T13:07:13.000Z</time><ele>314.6</ele></trkpt><trkpt lat="45.812592" lon="9.428246"><time>2024-03-23T13:07:14.000Z</time><ele>314.4</ele></trkpt><trkpt lat="45.812594" lon="9.428237"><time>2024-03-23T13:07:15.000Z</time><ele>314.2</ele></trkpt><trkpt lat="45.812601" lon="9.428227"><time>2024-03-23T13:07:16.000Z</time><ele>314.2</ele></trkpt><trkpt lat="45.812607" lon="9.428216"><time>2024-03-23T13:07:17.000Z</time><ele>314</ele></trkpt><trkpt lat="45.812612" lon="9.428206"><time>2024-03-23T13:07:18.000Z</time><ele>313.8</ele></trkpt><trkpt lat="45.812614" lon="9.428197"><time>2024-03-23T13:07:19.000Z</time><ele>313.8</ele></trkpt><trkpt lat="45.812616" lon="9.428187"><time>2024-03-23T13:07:20.000Z</time><ele>313.6</ele></trkpt><trkpt lat="45.812618" lon="9.428178"><time>2024-03-23T13:07:21.000Z</time><ele>313.4</ele></trkpt><trkpt lat="45.812619" lon="9.42817"><time>2024-03-23T13:07:22.000Z</time><ele>313.4</ele></trkpt><trkpt lat="45.812621" lon="9.42816"><time>2024-03-23T13:07:23.000Z</time><ele>313.2</ele></trkpt><trkpt lat="45.812624" lon="9.428152"><time>2024-03-23T13:07:24.000Z</time><ele>313</ele></trkpt><trkpt lat="45.812626" lon="9.428138"><time>2024-03-23T13:07:25.000Z</time><ele>312.8</ele></trkpt><trkpt lat="45.812628" lon="9.428129"><time>2024-03-23T13:07:26.000Z</time><ele>312.8</ele></trkpt><trkpt lat="45.812633" lon="9.428124"><time>2024-03-23T13:07:27.000Z</time><ele>312.6</ele></trkpt><trkpt lat="45.812637" lon="9.428121"><time>2024-03-23T13:07:28.000Z</time><ele>312.4</ele></trkpt><trkpt lat="45.812637" lon="9.428117"><time>2024-03-23T13:07:29.000Z</time><ele>312.4</ele></trkpt><trkpt lat="45.812638" lon="9.428111"><time>2024-03-23T13:07:30.000Z</time><ele>312.4</ele></trkpt><trkpt lat="45.812635" lon="9.428099"><time>2024-03-23T13:07:31.000Z</time><ele>312.2</ele></trkpt><trkpt lat="45.81264" lon="9.428088"><time>2024-03-23T13:07:32.000Z</time><ele>312</ele></trkpt><trkpt lat="45.812645" lon="9.428078"><time>2024-03-23T13:07:33.000Z</time><ele>311.8</ele></trkpt><trkpt lat="45.812646" lon="9.428065"><time>2024-03-23T13:07:34.000Z</time><ele>311.6</ele></trkpt><trkpt lat="45.812648" lon="9.428052"><time>2024-03-23T13:07:35.000Z</time><ele>311.6</ele></trkpt><trkpt lat="45.812648" lon="9.42804"><time>2024-03-23T13:07:36.000Z</time><ele>311.4</ele></trkpt><trkpt lat="45.81265" lon="9.428027"><time>2024-03-23T13:07:37.000Z</time><ele>311.4</ele></trkpt><trkpt lat="45.812653" lon="9.428016"><time>2024-03-23T13:07:38.000Z</time><ele>311.2</ele></trkpt><trkpt lat="45.812655" lon="9.428004"><time>2024-03-23T13:07:39.000Z</time><ele>311</ele></trkpt><trkpt lat="45.812657" lon="9.427993"><time>2024-03-23T13:07:40.000Z</time><ele>311</ele></trkpt><trkpt lat="45.812661" lon="9.427984"><time>2024-03-23T13:07:41.000Z</time><ele>311</ele></trkpt><trkpt lat="45.812666" lon="9.427975"><time>2024-03-23T13:07:42.000Z</time><ele>310.8</ele></trkpt><trkpt lat="45.812669" lon="9.427966"><time>2024-03-23T13:07:43.000Z</time><ele>310.8</ele></trkpt><trkpt lat="45.812671" lon="9.427953"><time>2024-03-23T13:07:44.000Z</time><ele>310.6</ele></trkpt><trkpt lat="45.812674" lon="9.427941"><time>2024-03-23T13:07:45.000Z</time><ele>310.4</ele></trkpt><trkpt lat="45.812672" lon="9.427926"><time>2024-03-23T13:07:46.000Z</time><ele>310.4</ele></trkpt><trkpt lat="45.812672" lon="9.427914"><time>2024-03-23T13:07:47.000Z</time><ele>310.4</ele></trkpt><trkpt lat="45.812674" lon="9.427903"><time>2024-03-23T13:07:48.000Z</time><ele>310.2</ele></trkpt><trkpt lat="45.812678" lon="9.427885"><time>2024-03-23T13:07:49.000Z</time><ele>310</ele></trkpt><trkpt lat="45.812682" lon="9.427872"><time>2024-03-23T13:07:50.000Z</time><ele>310</ele></trkpt><trkpt lat="45.812682" lon="9.427862"><time>2024-03-23T13:07:51.000Z</time><ele>309.8</ele></trkpt><trkpt lat="45.812684" lon="9.42785"><time>2024-03-23T13:07:52.000Z</time><ele>309.8</ele></trkpt><trkpt lat="45.812685" lon="9.427838"><time>2024-03-23T13:07:53.000Z</time><ele>309.6</ele></trkpt><trkpt lat="45.812686" lon="9.427828"><time>2024-03-23T13:07:54.000Z</time><ele>309.4</ele></trkpt><trkpt lat="45.812687" lon="9.427816"><time>2024-03-23T13:07:55.000Z</time><ele>309.2</ele></trkpt><trkpt lat="45.812688" lon="9.427808"><time>2024-03-23T13:07:56.000Z</time><ele>309</ele></trkpt><trkpt lat="45.812685" lon="9.427798"><time>2024-03-23T13:07:57.000Z</time><ele>308.8</ele></trkpt><trkpt lat="45.812681" lon="9.427787"><time>2024-03-23T13:07:58.000Z</time><ele>308.6</ele></trkpt><trkpt lat="45.812681" lon="9.427778"><time>2024-03-23T13:07:59.000Z</time><ele>308.2</ele></trkpt><trkpt lat="45.812681" lon="9.427769"><time>2024-03-23T13:08:00.000Z</time><ele>308</ele></trkpt><trkpt lat="45.812683" lon="9.427759"><time>2024-03-23T13:08:01.000Z</time><ele>308</ele></trkpt><trkpt lat="45.812684" lon="9.42775"><time>2024-03-23T13:08:02.000Z</time><ele>307.8</ele></trkpt><trkpt lat="45.812685" lon="9.42774"><time>2024-03-23T13:08:03.000Z</time><ele>307.6</ele></trkpt><trkpt lat="45.81269" lon="9.42773"><time>2024-03-23T13:08:04.000Z</time><ele>307.6</ele></trkpt><trkpt lat="45.812692" lon="9.427723"><time>2024-03-23T13:08:05.000Z</time><ele>307.4</ele></trkpt><trkpt lat="45.812694" lon="9.427714"><time>2024-03-23T13:08:06.000Z</time><ele>307</ele></trkpt><trkpt lat="45.812696" lon="9.427702"><time>2024-03-23T13:08:07.000Z</time><ele>307</ele></trkpt><trkpt lat="45.812698" lon="9.42769"><time>2024-03-23T13:08:08.000Z</time><ele>306.8</ele></trkpt><trkpt lat="45.8127" lon="9.427679"><time>2024-03-23T13:08:09.000Z</time><ele>306.6</ele></trkpt><trkpt lat="45.812699" lon="9.427668"><time>2024-03-23T13:08:10.000Z</time><ele>306.4</ele></trkpt><trkpt lat="45.812697" lon="9.427657"><time>2024-03-23T13:08:11.000Z</time><ele>306.2</ele></trkpt><trkpt lat="45.812697" lon="9.427646"><time>2024-03-23T13:08:12.000Z</time><ele>306.2</ele></trkpt><trkpt lat="45.812699" lon="9.427634"><time>2024-03-23T13:08:13.000Z</time><ele>306.2</ele></trkpt><trkpt lat="45.812701" lon="9.427626"><time>2024-03-23T13:08:14.000Z</time><ele>306</ele></trkpt><trkpt lat="45.812705" lon="9.427617"><time>2024-03-23T13:08:15.000Z</time><ele>305.8</ele></trkpt><trkpt lat="45.812706" lon="9.427603"><time>2024-03-23T13:08:16.000Z</time><ele>305.6</ele></trkpt><trkpt lat="45.812709" lon="9.427592"><time>2024-03-23T13:08:17.000Z</time><ele>305.4</ele></trkpt><trkpt lat="45.81271" lon="9.427581"><time>2024-03-23T13:08:18.000Z</time><ele>305.2</ele></trkpt><trkpt lat="45.812712" lon="9.427574"><time>2024-03-23T13:08:19.000Z</time><ele>305</ele></trkpt><trkpt lat="45.812717" lon="9.427566"><time>2024-03-23T13:08:20.000Z</time><ele>305</ele></trkpt><trkpt lat="45.812719" lon="9.427556"><time>2024-03-23T13:08:21.000Z</time><ele>304.8</ele></trkpt><trkpt lat="45.81272" lon="9.427545"><time>2024-03-23T13:08:22.000Z</time><ele>304.8</ele></trkpt><trkpt lat="45.812722" lon="9.42754"><time>2024-03-23T13:08:23.000Z</time><ele>304.6</ele></trkpt><trkpt lat="45.812723" lon="9.427534"><time>2024-03-23T13:08:24.000Z</time><ele>304.4</ele></trkpt><trkpt lat="45.812724" lon="9.427526"><time>2024-03-23T13:08:25.000Z</time><ele>304.4</ele></trkpt><trkpt lat="45.812725" lon="9.427517"><time>2024-03-23T13:08:26.000Z</time><ele>304.2</ele></trkpt><trkpt lat="45.812726" lon="9.427508"><time>2024-03-23T13:08:27.000Z</time><ele>304</ele></trkpt><trkpt lat="45.81273" lon="9.427495"><time>2024-03-23T13:08:28.000Z</time><ele>303.8</ele></trkpt><trkpt lat="45.812733" lon="9.427483"><time>2024-03-23T13:08:29.000Z</time><ele>303.8</ele></trkpt><trkpt lat="45.812736" lon="9.42747"><time>2024-03-23T13:08:30.000Z</time><ele>303.6</ele></trkpt><trkpt lat="45.812739" lon="9.427458"><time>2024-03-23T13:08:31.000Z</time><ele>303.4</ele></trkpt><trkpt lat="45.812739" lon="9.427447"><time>2024-03-23T13:08:32.000Z</time><ele>303.4</ele></trkpt><trkpt lat="45.812737" lon="9.427434"><time>2024-03-23T13:08:33.000Z</time><ele>303.2</ele></trkpt><trkpt lat="45.812735" lon="9.427424"><time>2024-03-23T13:08:34.000Z</time><ele>303.2</ele></trkpt><trkpt lat="45.812735" lon="9.427411"><time>2024-03-23T13:08:35.000Z</time><ele>303</ele></trkpt><trkpt lat="45.812733" lon="9.427397"><time>2024-03-23T13:08:36.000Z</time><ele>302.6</ele></trkpt><trkpt lat="45.81273" lon="9.427387"><time>2024-03-23T13:08:37.000Z</time><ele>302.4</ele></trkpt><trkpt lat="45.812727" lon="9.427377"><time>2024-03-23T13:08:38.000Z</time><ele>302.2</ele></trkpt><trkpt lat="45.812725" lon="9.427363"><time>2024-03-23T13:08:39.000Z</time><ele>302.2</ele></trkpt><trkpt lat="45.812726" lon="9.427357"><time>2024-03-23T13:08:40.000Z</time><ele>302</ele></trkpt><trkpt lat="45.812725" lon="9.427345"><time>2024-03-23T13:08:41.000Z</time><ele>302</ele></trkpt><trkpt lat="45.812722" lon="9.427334"><time>2024-03-23T13:08:42.000Z</time><ele>301.8</ele></trkpt><trkpt lat="45.812718" lon="9.427329"><time>2024-03-23T13:08:43.000Z</time><ele>301.6</ele></trkpt><trkpt lat="45.812713" lon="9.427324"><time>2024-03-23T13:08:44.000Z</time><ele>301.4</ele></trkpt><trkpt lat="45.81271" lon="9.427315"><time>2024-03-23T13:08:45.000Z</time><ele>301.2</ele></trkpt><trkpt lat="45.812708" lon="9.427298"><time>2024-03-23T13:08:46.000Z</time><ele>301.2</ele></trkpt><trkpt lat="45.812707" lon="9.427287"><time>2024-03-23T13:08:47.000Z</time><ele>301</ele></trkpt><trkpt lat="45.812706" lon="9.427274"><time>2024-03-23T13:08:48.000Z</time><ele>300.8</ele></trkpt><trkpt lat="45.812708" lon="9.427262"><time>2024-03-23T13:08:49.000Z</time><ele>300.8</ele></trkpt><trkpt lat="45.81271" lon="9.427253"><time>2024-03-23T13:08:50.000Z</time><ele>300.6</ele></trkpt><trkpt lat="45.812711" lon="9.42724"><time>2024-03-23T13:08:51.000Z</time><ele>300.4</ele></trkpt><trkpt lat="45.812714" lon="9.42723"><time>2024-03-23T13:08:52.000Z</time><ele>300.4</ele></trkpt><trkpt lat="45.812715" lon="9.427219"><time>2024-03-23T13:08:53.000Z</time><ele>300.2</ele></trkpt><trkpt lat="45.812717" lon="9.42721"><time>2024-03-23T13:08:54.000Z</time><ele>300.2</ele></trkpt><trkpt lat="45.81272" lon="9.4272"><time>2024-03-23T13:08:55.000Z</time><ele>300</ele></trkpt><trkpt lat="45.812723" lon="9.427191"><time>2024-03-23T13:08:56.000Z</time><ele>299.8</ele></trkpt><trkpt lat="45.812733" lon="9.427177"><time>2024-03-23T13:08:57.000Z</time><ele>299.6</ele></trkpt><trkpt lat="45.81274" lon="9.427167"><time>2024-03-23T13:08:58.000Z</time><ele>299.4</ele></trkpt><trkpt lat="45.812747" lon="9.427153"><time>2024-03-23T13:08:59.000Z</time><ele>299.4</ele></trkpt><trkpt lat="45.812754" lon="9.427139"><time>2024-03-23T13:09:00.000Z</time><ele>299.2</ele></trkpt><trkpt lat="45.812757" lon="9.427129"><time>2024-03-23T13:09:01.000Z</time><ele>299</ele></trkpt><trkpt lat="45.812759" lon="9.427122"><time>2024-03-23T13:09:02.000Z</time><ele>298.8</ele></trkpt><trkpt lat="45.81276" lon="9.427111"><time>2024-03-23T13:09:03.000Z</time><ele>298.8</ele></trkpt><trkpt lat="45.81276" lon="9.427103"><time>2024-03-23T13:09:04.000Z</time><ele>298.6</ele></trkpt><trkpt lat="45.812763" lon="9.427095"><time>2024-03-23T13:09:05.000Z</time><ele>298.4</ele></trkpt><trkpt lat="45.812765" lon="9.427086"><time>2024-03-23T13:09:06.000Z</time><ele>298.2</ele></trkpt><trkpt lat="45.812768" lon="9.427075"><time>2024-03-23T13:09:07.000Z</time><ele>298</ele></trkpt><trkpt lat="45.812772" lon="9.427064"><time>2024-03-23T13:09:08.000Z</time><ele>297.8</ele></trkpt><trkpt lat="45.812774" lon="9.427051"><time>2024-03-23T13:09:09.000Z</time><ele>297.8</ele></trkpt><trkpt lat="45.812773" lon="9.42704"><time>2024-03-23T13:09:10.000Z</time><ele>297.6</ele></trkpt><trkpt lat="45.812773" lon="9.427029"><time>2024-03-23T13:09:11.000Z</time><ele>297.4</ele></trkpt><trkpt lat="45.812772" lon="9.427016"><time>2024-03-23T13:09:12.000Z</time><ele>297.2</ele></trkpt><trkpt lat="45.812771" lon="9.427007"><time>2024-03-23T13:09:13.000Z</time><ele>297</ele></trkpt><trkpt lat="45.812769" lon="9.427001"><time>2024-03-23T13:09:14.000Z</time><ele>296.8</ele></trkpt><trkpt lat="45.812765" lon="9.426992"><time>2024-03-23T13:09:15.000Z</time><ele>296.8</ele></trkpt><trkpt lat="45.812761" lon="9.426982"><time>2024-03-23T13:09:16.000Z</time><ele>296.6</ele></trkpt><trkpt lat="45.812763" lon="9.42697"><time>2024-03-23T13:09:17.000Z</time><ele>296.6</ele></trkpt><trkpt lat="45.812767" lon="9.42696"><time>2024-03-23T13:09:18.000Z</time><ele>296.4</ele></trkpt><trkpt lat="45.812767" lon="9.426947"><time>2024-03-23T13:09:19.000Z</time><ele>296.2</ele></trkpt><trkpt lat="45.812766" lon="9.426933"><time>2024-03-23T13:09:20.000Z</time><ele>296.2</ele></trkpt><trkpt lat="45.812765" lon="9.42692"><time>2024-03-23T13:09:21.000Z</time><ele>296</ele></trkpt><trkpt lat="45.812765" lon="9.42691"><time>2024-03-23T13:09:22.000Z</time><ele>295.8</ele></trkpt><trkpt lat="45.812764" lon="9.426895"><time>2024-03-23T13:09:23.000Z</time><ele>295.8</ele></trkpt><trkpt lat="45.812763" lon="9.426877"><time>2024-03-23T13:09:24.000Z</time><ele>295.6</ele></trkpt><trkpt lat="45.812763" lon="9.426863"><time>2024-03-23T13:09:25.000Z</time><ele>295.6</ele></trkpt><trkpt lat="45.812763" lon="9.426848"><time>2024-03-23T13:09:26.000Z</time><ele>295.4</ele></trkpt><trkpt lat="45.812765" lon="9.426833"><time>2024-03-23T13:09:27.000Z</time><ele>295.4</ele></trkpt><trkpt lat="45.81277" lon="9.42682"><time>2024-03-23T13:09:28.000Z</time><ele>295</ele></trkpt><trkpt lat="45.812772" lon="9.426809"><time>2024-03-23T13:09:29.000Z</time><ele>294.8</ele></trkpt><trkpt lat="45.812773" lon="9.426798"><time>2024-03-23T13:09:30.000Z</time><ele>294.6</ele></trkpt><trkpt lat="45.812772" lon="9.426787"><time>2024-03-23T13:09:31.000Z</time><ele>294.4</ele></trkpt><trkpt lat="45.812771" lon="9.42678"><time>2024-03-23T13:09:32.000Z</time><ele>294.2</ele></trkpt><trkpt lat="45.812771" lon="9.42677"><time>2024-03-23T13:09:33.000Z</time><ele>294</ele></trkpt><trkpt lat="45.81277" lon="9.426759"><time>2024-03-23T13:09:34.000Z</time><ele>293.8</ele></trkpt><trkpt lat="45.812768" lon="9.426749"><time>2024-03-23T13:09:35.000Z</time><ele>293.6</ele></trkpt><trkpt lat="45.812766" lon="9.426742"><time>2024-03-23T13:09:36.000Z</time><ele>293.6</ele></trkpt><trkpt lat="45.812765" lon="9.426735"><time>2024-03-23T13:09:37.000Z</time><ele>293.4</ele></trkpt><trkpt lat="45.812763" lon="9.426728"><time>2024-03-23T13:09:38.000Z</time><ele>293.4</ele></trkpt><trkpt lat="45.812761" lon="9.426717"><time>2024-03-23T13:09:39.000Z</time><ele>293.2</ele></trkpt><trkpt lat="45.812762" lon="9.426706"><time>2024-03-23T13:09:40.000Z</time><ele>293</ele></trkpt><trkpt lat="45.812764" lon="9.426696"><time>2024-03-23T13:09:41.000Z</time><ele>292.8</ele></trkpt><trkpt lat="45.812764" lon="9.426686"><time>2024-03-23T13:09:42.000Z</time><ele>292.6</ele></trkpt><trkpt lat="45.81276" lon="9.426675"><time>2024-03-23T13:09:43.000Z</time><ele>292.4</ele></trkpt><trkpt lat="45.812761" lon="9.426667"><time>2024-03-23T13:09:44.000Z</time><ele>292.2</ele></trkpt><trkpt lat="45.812764" lon="9.426658"><time>2024-03-23T13:09:45.000Z</time><ele>292</ele></trkpt><trkpt lat="45.812768" lon="9.426648"><time>2024-03-23T13:09:46.000Z</time><ele>291.8</ele></trkpt><trkpt lat="45.812767" lon="9.426639"><time>2024-03-23T13:09:47.000Z</time><ele>291.8</ele></trkpt><trkpt lat="45.812766" lon="9.42663"><time>2024-03-23T13:09:48.000Z</time><ele>291.6</ele></trkpt><trkpt lat="45.812765" lon="9.426621"><time>2024-03-23T13:09:49.000Z</time><ele>291.4</ele></trkpt><trkpt lat="45.812764" lon="9.426612"><time>2024-03-23T13:09:50.000Z</time><ele>291.4</ele></trkpt><trkpt lat="45.81276" lon="9.426601"><time>2024-03-23T13:09:51.000Z</time><ele>291.2</ele></trkpt><trkpt lat="45.812758" lon="9.426592"><time>2024-03-23T13:09:52.000Z</time><ele>291</ele></trkpt><trkpt lat="45.812755" lon="9.426584"><time>2024-03-23T13:09:53.000Z</time><ele>291</ele></trkpt><trkpt lat="45.812752" lon="9.426574"><time>2024-03-23T13:09:54.000Z</time><ele>290.8</ele></trkpt><trkpt lat="45.812749" lon="9.426562"><time>2024-03-23T13:09:55.000Z</time><ele>290.6</ele></trkpt><trkpt lat="45.812749" lon="9.426552"><time>2024-03-23T13:09:56.000Z</time><ele>290.2</ele></trkpt><trkpt lat="45.812746" lon="9.426542"><time>2024-03-23T13:09:57.000Z</time><ele>290.2</ele></trkpt><trkpt lat="45.812744" lon="9.426531"><time>2024-03-23T13:09:58.000Z</time><ele>290</ele></trkpt><trkpt lat="45.812742" lon="9.426522"><time>2024-03-23T13:09:59.000Z</time><ele>289.8</ele></trkpt><trkpt lat="45.812741" lon="9.426513"><time>2024-03-23T13:10:00.000Z</time><ele>289.6</ele></trkpt><trkpt lat="45.81274" lon="9.426504"><time>2024-03-23T13:10:01.000Z</time><ele>289.4</ele></trkpt><trkpt lat="45.812737" lon="9.426495"><time>2024-03-23T13:10:02.000Z</time><ele>289.4</ele></trkpt><trkpt lat="45.812733" lon="9.426487"><time>2024-03-23T13:10:03.000Z</time><ele>289.2</ele></trkpt><trkpt lat="45.812733" lon="9.426479"><time>2024-03-23T13:10:04.000Z</time><ele>289</ele></trkpt><trkpt lat="45.812732" lon="9.426469"><time>2024-03-23T13:10:05.000Z</time><ele>288.8</ele></trkpt><trkpt lat="45.812732" lon="9.42646"><time>2024-03-23T13:10:06.000Z</time><ele>288.6</ele></trkpt><trkpt lat="45.812729" lon="9.426451"><time>2024-03-23T13:10:07.000Z</time><ele>288.6</ele></trkpt><trkpt lat="45.812728" lon="9.426442"><time>2024-03-23T13:10:08.000Z</time><ele>288.4</ele></trkpt><trkpt lat="45.812726" lon="9.42643"><time>2024-03-23T13:10:09.000Z</time><ele>288.4</ele></trkpt><trkpt lat="45.812726" lon="9.426419"><time>2024-03-23T13:10:10.000Z</time><ele>288</ele></trkpt><trkpt lat="45.812725" lon="9.42641"><time>2024-03-23T13:10:11.000Z</time><ele>287.8</ele></trkpt><trkpt lat="45.812724" lon="9.426403"><time>2024-03-23T13:10:12.000Z</time><ele>287.8</ele></trkpt><trkpt lat="45.812724" lon="9.426394"><time>2024-03-23T13:10:13.000Z</time><ele>287.6</ele></trkpt><trkpt lat="45.812725" lon="9.426384"><time>2024-03-23T13:10:14.000Z</time><ele>287.4</ele></trkpt><trkpt lat="45.812722" lon="9.426377"><time>2024-03-23T13:10:15.000Z</time><ele>287.2</ele></trkpt><trkpt lat="45.812721" lon="9.426367"><time>2024-03-23T13:10:16.000Z</time><ele>287</ele></trkpt><trkpt lat="45.812718" lon="9.426358"><time>2024-03-23T13:10:17.000Z</time><ele>286.8</ele></trkpt><trkpt lat="45.812716" lon="9.426351"><time>2024-03-23T13:10:18.000Z</time><ele>286.8</ele></trkpt><trkpt lat="45.812716" lon="9.426341"><time>2024-03-23T13:10:19.000Z</time><ele>286.6</ele></trkpt><trkpt lat="45.812713" lon="9.426332"><time>2024-03-23T13:10:20.000Z</time><ele>286.6</ele></trkpt><trkpt lat="45.812713" lon="9.42632"><time>2024-03-23T13:10:21.000Z</time><ele>286.4</ele></trkpt><trkpt lat="45.812712" lon="9.426308"><time>2024-03-23T13:10:22.000Z</time><ele>286.2</ele></trkpt><trkpt lat="45.812714" lon="9.426301"><time>2024-03-23T13:10:23.000Z</time><ele>286</ele></trkpt><trkpt lat="45.812712" lon="9.426293"><time>2024-03-23T13:10:24.000Z</time><ele>285.8</ele></trkpt><trkpt lat="45.812709" lon="9.426286"><time>2024-03-23T13:10:25.000Z</time><ele>285.6</ele></trkpt><trkpt lat="45.812707" lon="9.42628"><time>2024-03-23T13:10:26.000Z</time><ele>285.6</ele></trkpt><trkpt lat="45.812704" lon="9.426274"><time>2024-03-23T13:10:27.000Z</time><ele>285.4</ele></trkpt><trkpt lat="45.812705" lon="9.426265"><time>2024-03-23T13:10:28.000Z</time><ele>285.4</ele></trkpt><trkpt lat="45.812707" lon="9.426254"><time>2024-03-23T13:10:29.000Z</time><ele>285.4</ele></trkpt><trkpt lat="45.812708" lon="9.426241"><time>2024-03-23T13:10:30.000Z</time><ele>285.2</ele></trkpt><trkpt lat="45.812707" lon="9.426231"><time>2024-03-23T13:10:31.000Z</time><ele>285</ele></trkpt><trkpt lat="45.812707" lon="9.426223"><time>2024-03-23T13:10:32.000Z</time><ele>285</ele></trkpt><trkpt lat="45.812699" lon="9.426215"><time>2024-03-23T13:10:33.000Z</time><ele>284.8</ele></trkpt><trkpt lat="45.812694" lon="9.426204"><time>2024-03-23T13:10:34.000Z</time><ele>284.4</ele></trkpt><trkpt lat="45.812686" lon="9.426194"><time>2024-03-23T13:10:35.000Z</time><ele>284.4</ele></trkpt><trkpt lat="45.812683" lon="9.426186"><time>2024-03-23T13:10:36.000Z</time><ele>284.2</ele></trkpt><trkpt lat="45.812676" lon="9.426177"><time>2024-03-23T13:10:37.000Z</time><ele>284</ele></trkpt><trkpt lat="45.812673" lon="9.426172"><time>2024-03-23T13:10:38.000Z</time><ele>283.8</ele></trkpt><trkpt lat="45.812664" lon="9.426161"><time>2024-03-23T13:10:39.000Z</time><ele>283.8</ele></trkpt><trkpt lat="45.812661" lon="9.426142"><time>2024-03-23T13:10:40.000Z</time><ele>283.6</ele></trkpt><trkpt lat="45.812661" lon="9.426128"><time>2024-03-23T13:10:41.000Z</time><ele>283.4</ele></trkpt><trkpt lat="45.812657" lon="9.426119"><time>2024-03-23T13:10:42.000Z</time><ele>283.2</ele></trkpt><trkpt lat="45.812657" lon="9.426115"><time>2024-03-23T13:10:43.000Z</time><ele>283</ele></trkpt><trkpt lat="45.812656" lon="9.426111"><time>2024-03-23T13:10:44.000Z</time><ele>283</ele></trkpt><trkpt lat="45.812655" lon="9.426098"><time>2024-03-23T13:10:45.000Z</time><ele>283</ele></trkpt><trkpt lat="45.812654" lon="9.426081"><time>2024-03-23T13:10:46.000Z</time><ele>282.8</ele></trkpt><trkpt lat="45.812659" lon="9.426069"><time>2024-03-23T13:10:47.000Z</time><ele>282.6</ele></trkpt><trkpt lat="45.812666" lon="9.426054"><time>2024-03-23T13:10:48.000Z</time><ele>282.4</ele></trkpt><trkpt lat="45.812671" lon="9.426043"><time>2024-03-23T13:10:49.000Z</time><ele>282.2</ele></trkpt><trkpt lat="45.812672" lon="9.426032"><time>2024-03-23T13:10:50.000Z</time><ele>282</ele></trkpt><trkpt lat="45.81267" lon="9.426019"><time>2024-03-23T13:10:51.000Z</time><ele>281.8</ele></trkpt><trkpt lat="45.812666" lon="9.426003"><time>2024-03-23T13:10:52.000Z</time><ele>281.6</ele></trkpt><trkpt lat="45.812665" lon="9.425985"><time>2024-03-23T13:10:53.000Z</time><ele>281.4</ele></trkpt><trkpt lat="45.812661" lon="9.425973"><time>2024-03-23T13:10:54.000Z</time><ele>281.4</ele></trkpt><trkpt lat="45.812661" lon="9.425965"><time>2024-03-23T13:10:55.000Z</time><ele>281.2</ele></trkpt><trkpt lat="45.81266" lon="9.425957"><time>2024-03-23T13:10:56.000Z</time><ele>281</ele></trkpt><trkpt lat="45.812659" lon="9.425946"><time>2024-03-23T13:10:57.000Z</time><ele>281</ele></trkpt><trkpt lat="45.812664" lon="9.425937"><time>2024-03-23T13:10:58.000Z</time><ele>280.8</ele></trkpt><trkpt lat="45.812672" lon="9.425928"><time>2024-03-23T13:10:59.000Z</time><ele>280.4</ele></trkpt><trkpt lat="45.812679" lon="9.42592"><time>2024-03-23T13:11:00.000Z</time><ele>280.2</ele></trkpt><trkpt lat="45.812684" lon="9.425913"><time>2024-03-23T13:11:01.000Z</time><ele>280.2</ele></trkpt><trkpt lat="45.812686" lon="9.425903"><time>2024-03-23T13:11:02.000Z</time><ele>280</ele></trkpt><trkpt lat="45.812689" lon="9.425891"><time>2024-03-23T13:11:03.000Z</time><ele>280</ele></trkpt><trkpt lat="45.812692" lon="9.425879"><time>2024-03-23T13:11:04.000Z</time><ele>279.8</ele></trkpt><trkpt lat="45.812694" lon="9.425868"><time>2024-03-23T13:11:05.000Z</time><ele>279.8</ele></trkpt><trkpt lat="45.812697" lon="9.425858"><time>2024-03-23T13:11:06.000Z</time><ele>279.8</ele></trkpt><trkpt lat="45.812702" lon="9.425847"><time>2024-03-23T13:11:07.000Z</time><ele>279.8</ele></trkpt><trkpt lat="45.812708" lon="9.425834"><time>2024-03-23T13:11:08.000Z</time><ele>279.6</ele></trkpt><trkpt lat="45.812716" lon="9.425823"><time>2024-03-23T13:11:09.000Z</time><ele>279.6</ele></trkpt><trkpt lat="45.81272" lon="9.425814"><time>2024-03-23T13:11:10.000Z</time><ele>279.6</ele></trkpt><trkpt lat="45.812723" lon="9.425807"><time>2024-03-23T13:11:11.000Z</time><ele>279.6</ele></trkpt><trkpt lat="45.812724" lon="9.425801"><time>2024-03-23T13:11:12.000Z</time><ele>279.6</ele></trkpt><trkpt lat="45.812738" lon="9.425797"><time>2024-03-23T13:11:13.000Z</time><ele>279.6</ele></trkpt><trkpt lat="45.812748" lon="9.425796"><time>2024-03-23T13:11:14.000Z</time><ele>279.6</ele></trkpt></trkseg></trk></gpx>